<?xml version='1.0' encoding='UTF-8'?><gpx version="1.1" creator="JPX - https://github.com/jenetics/jpx" xmlns="http://www.topografix.com/GPX/1/1"><trk><trkseg><trkpt lat="43.408872622145275" lon="3.0865257962943864"><ele>151.0</ele><time>2026-04-07T11:58:59Z</time></trkpt><trkpt lat="43.408926836498004" lon="3.086429930954844"><ele>151.0</ele><time>2026-04-07T11:59:00Z</time></trkpt><trkpt lat="43.409003155717095" lon="3.0863053467323973"><ele>151.0</ele><time>2026-04-07T11:59:00.999Z</time></trkpt><trkpt lat="43.4090961530866" lon="3.086167407704663"><ele>151.0</ele><time>2026-04-07T11:59:01.999Z</time></trkpt><trkpt lat="43.40919341477274" lon="3.086036856100303"><ele>151.0</ele><time>2026-04-07T11:59:02.999Z</time></trkpt><trkpt lat="43.40930009222808" lon="3.085913057324464"><ele>151.0</ele><time>2026-04-07T11:59:03.999Z</time></trkpt><trkpt lat="43.409411912736985" lon="3.085775288506668"><ele>151.0</ele><time>2026-04-07T11:59:04.999Z</time></trkpt><trkpt lat="43.40953014984708" lon="3.085640772373769"><ele>151.0</ele><time>2026-04-07T11:59:05.999Z</time></trkpt><trkpt lat="43.409661180186134" lon="3.085497242451724"><ele>149.33333333333334</ele><time>2026-04-07T11:59:06.999Z</time></trkpt><trkpt lat="43.409793573642666" lon="3.085341447866727"><ele>147.66666666666666</ele><time>2026-04-07T11:59:07.999Z</time></trkpt><trkpt lat="43.40993151137715" lon="3.0851874934290637"><ele>146.0</ele><time>2026-04-07T11:59:08.999Z</time></trkpt><trkpt lat="43.41006554501292" lon="3.085011983444217"><ele>146.66666666666666</ele><time>2026-04-07T11:59:09.999Z</time></trkpt><trkpt lat="43.41020749904098" lon="3.08484287988634"><ele>147.33333333333334</ele><time>2026-04-07T11:59:10.999Z</time></trkpt><trkpt lat="43.410352809701166" lon="3.0846737768995522"><ele>148.0</ele><time>2026-04-07T11:59:11.999Z</time></trkpt><trkpt lat="43.4104972209798" lon="3.084503130470843"><ele>146.66666666666669</ele><time>2026-04-07T11:59:12.999Z</time></trkpt><trkpt lat="43.410649238408205" lon="3.084325819258547"><ele>145.33333333333334</ele><time>2026-04-07T11:59:13.999Z</time></trkpt><trkpt lat="43.41076119343901" lon="3.084111055149222"><ele>144.0</ele><time>2026-04-07T11:59:14.999Z</time></trkpt><trkpt lat="43.410823357450546" lon="3.083855105955036"><ele>144.0</ele><time>2026-04-07T11:59:15.999Z</time></trkpt><trkpt lat="43.41088609414699" lon="3.0835999795819373"><ele>144.0</ele><time>2026-04-07T11:59:16.999Z</time></trkpt><trkpt lat="43.4109575009367" lon="3.0833582970902125"><ele>144.0</ele><time>2026-04-07T11:59:17.999Z</time></trkpt><trkpt lat="43.411034130753244" lon="3.0831203022187634"><ele>143.66666666666666</ele><time>2026-04-07T11:59:18.999Z</time></trkpt><trkpt lat="43.411132496044864" lon="3.082906894076104"><ele>143.33333333333331</ele><time>2026-04-07T11:59:19.999Z</time></trkpt><trkpt lat="43.411259892626916" lon="3.0827064992529234"><ele>143.0</ele><time>2026-04-07T11:59:20.999Z</time></trkpt><trkpt lat="43.41141234084153" lon="3.0825429872648"><ele>142.0</ele><time>2026-04-07T11:59:21.999Z</time></trkpt><trkpt lat="43.41158118893353" lon="3.082418466397665"><ele>141.0</ele><time>2026-04-07T11:59:22.999Z</time></trkpt><trkpt lat="43.41177033878697" lon="3.0823355215230346"><ele>140.0</ele><time>2026-04-07T11:59:23.999Z</time></trkpt><trkpt lat="43.41196866821318" lon="3.0822900361978554"><ele>139.33333333333331</ele><time>2026-04-07T11:59:24.999Z</time></trkpt><trkpt lat="43.41217316585863" lon="3.0822596950488825"><ele>138.66666666666666</ele><time>2026-04-07T11:59:25.999Z</time></trkpt><trkpt lat="43.412376806552835" lon="3.0822599361126053"><ele>138.0</ele><time>2026-04-07T11:59:26.999Z</time></trkpt><trkpt lat="43.41258041263051" lon="3.0822361843344335"><ele>138.0</ele><time>2026-04-07T11:59:27.999Z</time></trkpt><trkpt lat="43.41278498216896" lon="3.0822107633880846"><ele>138.0</ele><time>2026-04-07T11:59:28.999Z</time></trkpt><trkpt lat="43.41299184706393" lon="3.082186024685595"><ele>138.0</ele><time>2026-04-07T11:59:29.999Z</time></trkpt><trkpt lat="43.41319678506902" lon="3.082166374297319"><ele>137.0</ele><time>2026-04-07T11:59:30.999Z</time></trkpt><trkpt lat="43.41339871123147" lon="3.0821719539635035"><ele>136.0</ele><time>2026-04-07T11:59:31.999Z</time></trkpt><trkpt lat="43.41359140206591" lon="3.082250817633914"><ele>135.0</ele><time>2026-04-07T11:59:32.999Z</time></trkpt><trkpt lat="43.41378061245873" lon="3.082319771562017"><ele>135.0</ele><time>2026-04-07T11:59:33.999Z</time></trkpt><trkpt lat="43.41394731126301" lon="3.0824136694686763"><ele>135.0</ele><time>2026-04-07T11:59:34.999Z</time></trkpt><trkpt lat="43.41410772181687" lon="3.0824901857474627"><ele>135.0</ele><time>2026-04-07T11:59:35.999Z</time></trkpt><trkpt lat="43.414267119968144" lon="3.0825562054812874"><ele>135.0</ele><time>2026-04-07T11:59:36.999Z</time></trkpt><trkpt lat="43.41443356795897" lon="3.0825930047615393"><ele>135.0</ele><time>2026-04-07T11:59:37.999Z</time></trkpt><trkpt lat="43.414603954174815" lon="3.08258920242889"><ele>135.0</ele><time>2026-04-07T11:59:38.999Z</time></trkpt><trkpt lat="43.41477300906417" lon="3.0825578283989667"><ele>134.33333333333334</ele><time>2026-04-07T11:59:39.999Z</time></trkpt><trkpt lat="43.41493477323" lon="3.082502618477916"><ele>133.66666666666669</ele><time>2026-04-07T11:59:40.999Z</time></trkpt><trkpt lat="43.41508871718733" lon="3.0824286293926106"><ele>133.0</ele><time>2026-04-07T11:59:41.999Z</time></trkpt><trkpt lat="43.415237599550025" lon="3.0823538875086687"><ele>135.33333333333334</ele><time>2026-04-07T11:59:42.999Z</time></trkpt><trkpt lat="43.41538699899383" lon="3.082287637706802"><ele>137.66666666666666</ele><time>2026-04-07T11:59:43.999Z</time></trkpt><trkpt lat="43.41553434715595" lon="3.082218215309895"><ele>140.0</ele><time>2026-04-07T11:59:44.999Z</time></trkpt><trkpt lat="43.4156795580867" lon="3.082155251786796"><ele>141.33333333333331</ele><time>2026-04-07T11:59:45.999Z</time></trkpt><trkpt lat="43.41582304107547" lon="3.0820885248520145"><ele>142.66666666666666</ele><time>2026-04-07T11:59:46.998Z</time></trkpt><trkpt lat="43.41596585614918" lon="3.0820244342651457"><ele>144.0</ele><time>2026-04-07T11:59:47.998Z</time></trkpt><trkpt lat="43.41610753240432" lon="3.081958060677922"><ele>144.0</ele><time>2026-04-07T11:59:48.998Z</time></trkpt><trkpt lat="43.41624829919948" lon="3.0818954260048916"><ele>144.0</ele><time>2026-04-07T11:59:49.998Z</time></trkpt><trkpt lat="43.41639210172123" lon="3.081835772919518"><ele>144.0</ele><time>2026-04-07T11:59:50.998Z</time></trkpt><trkpt lat="43.41653324810618" lon="3.081767766515899"><ele>144.0</ele><time>2026-04-07T11:59:51.998Z</time></trkpt><trkpt lat="43.416674925547575" lon="3.0816954936974144"><ele>142.66666666666666</ele><time>2026-04-07T11:59:52.998Z</time></trkpt><trkpt lat="43.4168083922628" lon="3.081605520200159"><ele>141.33333333333331</ele><time>2026-04-07T11:59:53.998Z</time></trkpt><trkpt lat="43.4169313724665" lon="3.081485749310033"><ele>140.0</ele><time>2026-04-07T11:59:54.998Z</time></trkpt><trkpt lat="43.41704772938067" lon="3.08135114230205"><ele>141.33333333333331</ele><time>2026-04-07T11:59:55.998Z</time></trkpt><trkpt lat="43.41716936571951" lon="3.0812260551145605"><ele>142.66666666666666</ele><time>2026-04-07T11:59:56.998Z</time></trkpt><trkpt lat="43.41730180649521" lon="3.0811167879954593"><ele>144.0</ele><time>2026-04-07T11:59:57.998Z</time></trkpt><trkpt lat="43.41744388395405" lon="3.081027367890567"><ele>144.0</ele><time>2026-04-07T11:59:58.998Z</time></trkpt><trkpt lat="43.41759196601559" lon="3.0809600315924404"><ele>144.0</ele><time>2026-04-07T11:59:59.998Z</time></trkpt><trkpt lat="43.417747081901254" lon="3.0809171476585275"><ele>144.0</ele><time>2026-04-07T12:00:00.998Z</time></trkpt><trkpt lat="43.41790541615375" lon="3.0808962586007533"><ele>143.33333333333334</ele><time>2026-04-07T12:00:01.998Z</time></trkpt><trkpt lat="43.41806604305466" lon="3.080896337365894"><ele>142.66666666666669</ele><time>2026-04-07T12:00:02.998Z</time></trkpt><trkpt lat="43.41822860596654" lon="3.080917810207973"><ele>142.0</ele><time>2026-04-07T12:00:03.998Z</time></trkpt><trkpt lat="43.418394396472024" lon="3.0809549264991714"><ele>142.0</ele><time>2026-04-07T12:00:04.998Z</time></trkpt><trkpt lat="43.41855335864001" lon="3.081001261034999"><ele>142.0</ele><time>2026-04-07T12:00:05.998Z</time></trkpt><trkpt lat="43.418715870732164" lon="3.0810500781676105"><ele>142.0</ele><time>2026-04-07T12:00:06.998Z</time></trkpt><trkpt lat="43.418879273723256" lon="3.0810978326960394"><ele>143.33333333333334</ele><time>2026-04-07T12:00:07.998Z</time></trkpt><trkpt lat="43.41904653369748" lon="3.081135962113446"><ele>144.66666666666666</ele><time>2026-04-07T12:00:08.998Z</time></trkpt><trkpt lat="43.419210909612204" lon="3.0811736804567134"><ele>146.0</ele><time>2026-04-07T12:00:09.998Z</time></trkpt><trkpt lat="43.41937627105376" lon="3.081211827557207"><ele>146.0</ele><time>2026-04-07T12:00:10.998Z</time></trkpt><trkpt lat="43.419541411996114" lon="3.0812588717827794"><ele>146.0</ele><time>2026-04-07T12:00:11.998Z</time></trkpt><trkpt lat="43.41970704957162" lon="3.081308108617496"><ele>146.0</ele><time>2026-04-07T12:00:12.998Z</time></trkpt><trkpt lat="43.41987356631317" lon="3.0813588446637574"><ele>147.0</ele><time>2026-04-07T12:00:13.998Z</time></trkpt><trkpt lat="43.42004061507592" lon="3.081401391212128"><ele>148.0</ele><time>2026-04-07T12:00:14.998Z</time></trkpt><trkpt lat="43.42020788473463" lon="3.0814253000967033"><ele>149.0</ele><time>2026-04-07T12:00:15.998Z</time></trkpt><trkpt lat="43.42037850753233" lon="3.0814376042233214"><ele>148.33333333333331</ele><time>2026-04-07T12:00:16.998Z</time></trkpt><trkpt lat="43.420548156355565" lon="3.081445123649099"><ele>147.66666666666666</ele><time>2026-04-07T12:00:17.998Z</time></trkpt><trkpt lat="43.42072426746197" lon="3.0814422614530512"><ele>147.0</ele><time>2026-04-07T12:00:18.998Z</time></trkpt><trkpt lat="43.420897177121105" lon="3.081447771330093"><ele>147.0</ele><time>2026-04-07T12:00:19.998Z</time></trkpt><trkpt lat="43.421082468644684" lon="3.081453228811146"><ele>147.0</ele><time>2026-04-07T12:00:20.998Z</time></trkpt><trkpt lat="43.42126912701142" lon="3.081455147644193"><ele>147.0</ele><time>2026-04-07T12:00:21.998Z</time></trkpt><trkpt lat="43.42146013038912" lon="3.081459854082678"><ele>146.0</ele><time>2026-04-07T12:00:22.998Z</time></trkpt><trkpt lat="43.421647379916244" lon="3.0814665022186536"><ele>145.0</ele><time>2026-04-07T12:00:23.998Z</time></trkpt><trkpt lat="43.421837781989105" lon="3.081472044108718"><ele>144.0</ele><time>2026-04-07T12:00:24.998Z</time></trkpt><trkpt lat="43.42203135988356" lon="3.0814732285671442"><ele>142.33333333333334</ele><time>2026-04-07T12:00:25.998Z</time></trkpt><trkpt lat="43.42222762486669" lon="3.08148057970729"><ele>140.66666666666669</ele><time>2026-04-07T12:00:26.998Z</time></trkpt><trkpt lat="43.42242439725479" lon="3.081490513175123"><ele>139.0</ele><time>2026-04-07T12:00:27.998Z</time></trkpt><trkpt lat="43.42262074127457" lon="3.081502000924213"><ele>139.0</ele><time>2026-04-07T12:00:28.998Z</time></trkpt><trkpt lat="43.42282051111369" lon="3.081506626409707"><ele>139.0</ele><time>2026-04-07T12:00:29.998Z</time></trkpt><trkpt lat="43.4230207955923" lon="3.081506024982418"><ele>139.0</ele><time>2026-04-07T12:00:31Z</time></trkpt><trkpt lat="43.423222835122" lon="3.081510681163557"><ele>138.0</ele><time>2026-04-07T12:00:32Z</time></trkpt><trkpt lat="43.42342170943957" lon="3.0815231728912043"><ele>137.0</ele><time>2026-04-07T12:00:33Z</time></trkpt><trkpt lat="43.423619174354805" lon="3.0815412179431676"><ele>136.0</ele><time>2026-04-07T12:00:34Z</time></trkpt><trkpt lat="43.423818204443435" lon="3.0815654258435567"><ele>136.33333333333334</ele><time>2026-04-07T12:00:35Z</time></trkpt><trkpt lat="43.424013787825835" lon="3.081586816431459"><ele>136.66666666666666</ele><time>2026-04-07T12:00:36Z</time></trkpt><trkpt lat="43.42421471336271" lon="3.0816252077593527"><ele>137.0</ele><time>2026-04-07T12:00:37Z</time></trkpt><trkpt lat="43.424416386525564" lon="3.0816704539119093"><ele>137.0</ele><time>2026-04-07T12:00:38Z</time></trkpt><trkpt lat="43.424617815337434" lon="3.0817188965020685"><ele>137.0</ele><time>2026-04-07T12:00:39Z</time></trkpt><trkpt lat="43.42482177866475" lon="3.081766711365204"><ele>137.0</ele><time>2026-04-07T12:00:40Z</time></trkpt><trkpt lat="43.425019705066916" lon="3.081816182960931"><ele>135.0</ele><time>2026-04-07T12:00:41Z</time></trkpt><trkpt lat="43.42522531278983" lon="3.081857674080544"><ele>133.0</ele><time>2026-04-07T12:00:42Z</time></trkpt><trkpt lat="43.42542603314244" lon="3.0819088563026615"><ele>131.0</ele><time>2026-04-07T12:00:43Z</time></trkpt><trkpt lat="43.42562789422889" lon="3.081959812760412"><ele>128.66666666666666</ele><time>2026-04-07T12:00:44Z</time></trkpt><trkpt lat="43.425830614573194" lon="3.0820110134142165"><ele>126.33333333333334</ele><time>2026-04-07T12:00:45Z</time></trkpt><trkpt lat="43.42603587606518" lon="3.0820612125458933"><ele>124.0</ele><time>2026-04-07T12:00:46Z</time></trkpt><trkpt lat="43.4262394188766" lon="3.082116671499608"><ele>122.66666666666667</ele><time>2026-04-07T12:00:47Z</time></trkpt><trkpt lat="43.426443823282476" lon="3.0821679324365445"><ele>121.33333333333334</ele><time>2026-04-07T12:00:48Z</time></trkpt><trkpt lat="43.426651097620045" lon="3.082220564314228"><ele>120.0</ele><time>2026-04-07T12:00:49Z</time></trkpt><trkpt lat="43.42685997388299" lon="3.082266531585177"><ele>120.0</ele><time>2026-04-07T12:00:50Z</time></trkpt><trkpt lat="43.427067196069004" lon="3.0823147432298987"><ele>120.0</ele><time>2026-04-07T12:00:51Z</time></trkpt><trkpt lat="43.42726725576164" lon="3.082367196606511"><ele>120.0</ele><time>2026-04-07T12:00:52Z</time></trkpt><trkpt lat="43.42745802038488" lon="3.0824150280225355"><ele>119.66666666666666</ele><time>2026-04-07T12:00:53Z</time></trkpt><trkpt lat="43.427640357386444" lon="3.0824603558265156"><ele>119.33333333333333</ele><time>2026-04-07T12:00:54Z</time></trkpt><trkpt lat="43.427818247287874" lon="3.082504380567956"><ele>119.0</ele><time>2026-04-07T12:00:55Z</time></trkpt><trkpt lat="43.427994326264404" lon="3.0825474939804227"><ele>117.66666666666666</ele><time>2026-04-07T12:00:56Z</time></trkpt><trkpt lat="43.42817659319684" lon="3.0825901024820572"><ele>116.33333333333334</ele><time>2026-04-07T12:00:57Z</time></trkpt><trkpt lat="43.42835088788377" lon="3.082633379503487"><ele>115.0</ele><time>2026-04-07T12:00:58Z</time></trkpt><trkpt lat="43.42852599149369" lon="3.0826745077154025"><ele>115.0</ele><time>2026-04-07T12:00:59Z</time></trkpt><trkpt lat="43.42869982088909" lon="3.0827119158543774"><ele>115.0</ele><time>2026-04-07T12:01:00Z</time></trkpt><trkpt lat="43.42887470292278" lon="3.0827419266833407"><ele>115.0</ele><time>2026-04-07T12:01:01Z</time></trkpt><trkpt lat="43.42905132428506" lon="3.0827820317194377"><ele>115.0</ele><time>2026-04-07T12:01:02Z</time></trkpt><trkpt lat="43.42922181397446" lon="3.0828349919653233"><ele>115.0</ele><time>2026-04-07T12:01:03Z</time></trkpt><trkpt lat="43.42938199754982" lon="3.0829492835128374"><ele>115.0</ele><time>2026-04-07T12:01:04Z</time></trkpt><trkpt lat="43.42954464923302" lon="3.083055403161298"><ele>115.33333333333334</ele><time>2026-04-07T12:01:04.999Z</time></trkpt><trkpt lat="43.42968567221325" lon="3.083198939955321"><ele>115.66666666666666</ele><time>2026-04-07T12:01:05.999Z</time></trkpt><trkpt lat="43.429828614991514" lon="3.0833311149761737"><ele>116.0</ele><time>2026-04-07T12:01:06.999Z</time></trkpt><trkpt lat="43.429983188890475" lon="3.0834276982117848"><ele>116.0</ele><time>2026-04-07T12:01:07.999Z</time></trkpt><trkpt lat="43.430147918214274" lon="3.0834907083188443"><ele>116.0</ele><time>2026-04-07T12:01:08.999Z</time></trkpt><trkpt lat="43.43030578203145" lon="3.08352686961872"><ele>116.0</ele><time>2026-04-07T12:01:09.999Z</time></trkpt><trkpt lat="43.430463642130896" lon="3.083537661104052"><ele>118.0</ele><time>2026-04-07T12:01:10.999Z</time></trkpt><trkpt lat="43.430625171263365" lon="3.0835188124063864"><ele>120.0</ele><time>2026-04-07T12:01:11.999Z</time></trkpt><trkpt lat="43.43078694966807" lon="3.083469330797689"><ele>122.0</ele><time>2026-04-07T12:01:12.999Z</time></trkpt><trkpt lat="43.43094573969065" lon="3.083420748778552"><ele>122.0</ele><time>2026-04-07T12:01:13.999Z</time></trkpt><trkpt lat="43.431108104756085" lon="3.083374432308025"><ele>122.0</ele><time>2026-04-07T12:01:14.999Z</time></trkpt><trkpt lat="43.43126700353033" lon="3.0833300828836427"><ele>122.0</ele><time>2026-04-07T12:01:15.999Z</time></trkpt><trkpt lat="43.431425539373144" lon="3.0832787974752813"><ele>124.0</ele><time>2026-04-07T12:01:16.999Z</time></trkpt><trkpt lat="43.43158226511651" lon="3.0832378448271553"><ele>126.0</ele><time>2026-04-07T12:01:17.999Z</time></trkpt><trkpt lat="43.43174323794503" lon="3.083173864848193"><ele>128.0</ele><time>2026-04-07T12:01:18.999Z</time></trkpt><trkpt lat="43.431902362397736" lon="3.0831042712878394"><ele>128.0</ele><time>2026-04-07T12:01:19.999Z</time></trkpt><trkpt lat="43.432059796100496" lon="3.083000220589217"><ele>128.0</ele><time>2026-04-07T12:01:20.999Z</time></trkpt><trkpt lat="43.432211148773135" lon="3.0828734585397877"><ele>128.0</ele><time>2026-04-07T12:01:21.999Z</time></trkpt><trkpt lat="43.4323493167871" lon="3.082708487870041"><ele>124.0</ele><time>2026-04-07T12:01:22.999Z</time></trkpt><trkpt lat="43.43246732271059" lon="3.082501093417916"><ele>120.0</ele><time>2026-04-07T12:01:23.999Z</time></trkpt><trkpt lat="43.43255991691703" lon="3.0822765711670446"><ele>116.0</ele><time>2026-04-07T12:01:24.999Z</time></trkpt><trkpt lat="43.4326466304237" lon="3.0820686765901986"><ele>116.0</ele><time>2026-04-07T12:01:25.999Z</time></trkpt><trkpt lat="43.43272195923932" lon="3.08187120972301"><ele>116.0</ele><time>2026-04-07T12:01:26.999Z</time></trkpt><trkpt lat="43.4327777596811" lon="3.0816572993005154"><ele>116.0</ele><time>2026-04-07T12:01:27.999Z</time></trkpt><trkpt lat="43.4328169869138" lon="3.081430559282003"><ele>116.33333333333333</ele><time>2026-04-07T12:01:28.999Z</time></trkpt><trkpt lat="43.43286775357583" lon="3.0812375424788905"><ele>116.66666666666666</ele><time>2026-04-07T12:01:29.999Z</time></trkpt><trkpt lat="43.43292481237858" lon="3.0810247864770024"><ele>117.0</ele><time>2026-04-07T12:01:30.999Z</time></trkpt><trkpt lat="43.43299362722318" lon="3.0808134831146754"><ele>113.33333333333334</ele><time>2026-04-07T12:01:31.999Z</time></trkpt><trkpt lat="43.43306636897374" lon="3.080616450216242"><ele>109.66666666666667</ele><time>2026-04-07T12:01:32.999Z</time></trkpt><trkpt lat="43.43316580533431" lon="3.0804354478017686"><ele>106.0</ele><time>2026-04-07T12:01:33.999Z</time></trkpt><trkpt lat="43.43327382557605" lon="3.080282542760323"><ele>106.0</ele><time>2026-04-07T12:01:34.999Z</time></trkpt><trkpt lat="43.433425230607774" lon="3.0801188420392656"><ele>106.0</ele><time>2026-04-07T12:01:35.999Z</time></trkpt><trkpt lat="43.433547065531975" lon="3.0799290668927393"><ele>106.0</ele><time>2026-04-07T12:01:36.999Z</time></trkpt><trkpt lat="43.43371520971076" lon="3.0798223552957325"><ele>109.66666666666667</ele><time>2026-04-07T12:01:37.999Z</time></trkpt><trkpt lat="43.43389175699303" lon="3.0797302453885314"><ele>113.33333333333334</ele><time>2026-04-07T12:01:38.999Z</time></trkpt><trkpt lat="43.434077657079186" lon="3.079684017538891"><ele>117.0</ele><time>2026-04-07T12:01:39.999Z</time></trkpt><trkpt lat="43.43427260374433" lon="3.0797417721293456"><ele>117.0</ele><time>2026-04-07T12:01:40.999Z</time></trkpt><trkpt lat="43.43446052372541" lon="3.0797464062975006"><ele>117.0</ele><time>2026-04-07T12:01:41.999Z</time></trkpt><trkpt lat="43.43465132848432" lon="3.0797574687106746"><ele>117.0</ele><time>2026-04-07T12:01:42.999Z</time></trkpt><trkpt lat="43.43484529557225" lon="3.079773754624201"><ele>112.66666666666666</ele><time>2026-04-07T12:01:43.999Z</time></trkpt><trkpt lat="43.43504047240366" lon="3.079768878527041"><ele>108.33333333333333</ele><time>2026-04-07T12:01:44.999Z</time></trkpt><trkpt lat="43.43523736127887" lon="3.0797674768954804"><ele>104.0</ele><time>2026-04-07T12:01:45.999Z</time></trkpt><trkpt lat="43.435432383172625" lon="3.0796970298807387"><ele>97.66666666666666</ele><time>2026-04-07T12:01:46.999Z</time></trkpt><trkpt lat="43.435624468912124" lon="3.0795811288131403"><ele>91.33333333333333</ele><time>2026-04-07T12:01:47.999Z</time></trkpt><trkpt lat="43.43579993246686" lon="3.079409385787733"><ele>85.0</ele><time>2026-04-07T12:01:48.999Z</time></trkpt><trkpt lat="43.43596017620746" lon="3.0791909279570437"><ele>87.0</ele><time>2026-04-07T12:01:49.999Z</time></trkpt><trkpt lat="43.4360930480129" lon="3.0789438495627923"><ele>89.0</ele><time>2026-04-07T12:01:50.999Z</time></trkpt><trkpt lat="43.43620315495902" lon="3.078700495400827"><ele>91.0</ele><time>2026-04-07T12:01:51.998Z</time></trkpt><trkpt lat="43.43631800668086" lon="3.0784627454728755"><ele>86.66666666666666</ele><time>2026-04-07T12:01:52.998Z</time></trkpt><trkpt lat="43.43642831789034" lon="3.078240357277453"><ele>82.33333333333333</ele><time>2026-04-07T12:01:53.998Z</time></trkpt><trkpt lat="43.43654410843145" lon="3.0780099082735113"><ele>78.0</ele><time>2026-04-07T12:01:54.998Z</time></trkpt><trkpt lat="43.43666138039795" lon="3.077781289421577"><ele>78.0</ele><time>2026-04-07T12:01:55.998Z</time></trkpt><trkpt lat="43.436777615155215" lon="3.0775547035676256"><ele>78.0</ele><time>2026-04-07T12:01:56.998Z</time></trkpt><trkpt lat="43.43689076209732" lon="3.0773209647869346"><ele>78.0</ele><time>2026-04-07T12:01:57.998Z</time></trkpt><trkpt lat="43.43700778907361" lon="3.077098681041478"><ele>78.66666666666667</ele><time>2026-04-07T12:01:58.998Z</time></trkpt><trkpt lat="43.43712733865139" lon="3.076875893258185"><ele>79.33333333333334</ele><time>2026-04-07T12:01:59.998Z</time></trkpt><trkpt lat="43.43724187043267" lon="3.0766545862837607"><ele>80.0</ele><time>2026-04-07T12:02:00.998Z</time></trkpt><trkpt lat="43.43735459287037" lon="3.07643256770851"><ele>77.0</ele><time>2026-04-07T12:02:01.998Z</time></trkpt><trkpt lat="43.437475305916806" lon="3.076214830941498"><ele>74.0</ele><time>2026-04-07T12:02:02.998Z</time></trkpt><trkpt lat="43.437593980375475" lon="3.0759996035813484"><ele>71.0</ele><time>2026-04-07T12:02:03.998Z</time></trkpt><trkpt lat="43.437692181993896" lon="3.0757621028646387"><ele>71.0</ele><time>2026-04-07T12:02:04.998Z</time></trkpt><trkpt lat="43.43776274361814" lon="3.0754986378147255"><ele>71.0</ele><time>2026-04-07T12:02:05.998Z</time></trkpt><trkpt lat="43.43780634283052" lon="3.075225829916337"><ele>71.0</ele><time>2026-04-07T12:02:06.998Z</time></trkpt><trkpt lat="43.43781973208913" lon="3.074939291498922"><ele>70.66666666666667</ele><time>2026-04-07T12:02:07.998Z</time></trkpt><trkpt lat="43.43781042102878" lon="3.074652298997115"><ele>70.33333333333333</ele><time>2026-04-07T12:02:08.998Z</time></trkpt><trkpt lat="43.437778788007094" lon="3.074368739979641"><ele>70.0</ele><time>2026-04-07T12:02:09.998Z</time></trkpt><trkpt lat="43.43772315943098" lon="3.074084402782208"><ele>66.66666666666666</ele><time>2026-04-07T12:02:10.998Z</time></trkpt><trkpt lat="43.43766409269505" lon="3.0738133720064185"><ele>63.33333333333333</ele><time>2026-04-07T12:02:11.998Z</time></trkpt><trkpt lat="43.43764412287615" lon="3.07353265011529"><ele>60.0</ele><time>2026-04-07T12:02:12.998Z</time></trkpt><trkpt lat="43.43765482249812" lon="3.073255826059936"><ele>58.33333333333333</ele><time>2026-04-07T12:02:13.998Z</time></trkpt><trkpt lat="43.43769535923239" lon="3.072988120130861"><ele>56.666666666666664</ele><time>2026-04-07T12:02:14.998Z</time></trkpt><trkpt lat="43.43776423700521" lon="3.0727281682662566"><ele>55.0</ele><time>2026-04-07T12:02:15.998Z</time></trkpt><trkpt lat="43.43785830874756" lon="3.072490710367721"><ele>54.666666666666664</ele><time>2026-04-07T12:02:16.998Z</time></trkpt><trkpt lat="43.4379750821247" lon="3.0722714468608934"><ele>54.33333333333333</ele><time>2026-04-07T12:02:17.998Z</time></trkpt><trkpt lat="43.438111520138236" lon="3.07208400093627"><ele>54.0</ele><time>2026-04-07T12:02:18.998Z</time></trkpt><trkpt lat="43.43824588074882" lon="3.0718848754917407"><ele>54.0</ele><time>2026-04-07T12:02:19.998Z</time></trkpt><trkpt lat="43.438398138130445" lon="3.071713839375126"><ele>54.0</ele><time>2026-04-07T12:02:20.998Z</time></trkpt><trkpt lat="43.43854577828925" lon="3.071534810525292"><ele>54.0</ele><time>2026-04-07T12:02:21.998Z</time></trkpt><trkpt lat="43.438685948134854" lon="3.0713559885691235"><ele>54.0</ele><time>2026-04-07T12:02:22.998Z</time></trkpt><trkpt lat="43.43881901352197" lon="3.0711806738161918"><ele>54.0</ele><time>2026-04-07T12:02:23.998Z</time></trkpt><trkpt lat="43.43895331378291" lon="3.0710063151032903"><ele>54.0</ele><time>2026-04-07T12:02:24.998Z</time></trkpt><trkpt lat="43.43909381068735" lon="3.070835216100148"><ele>54.66666666666667</ele><time>2026-04-07T12:02:25.998Z</time></trkpt><trkpt lat="43.43923094915611" lon="3.0706633890433"><ele>55.333333333333336</ele><time>2026-04-07T12:02:26.998Z</time></trkpt><trkpt lat="43.439369554164436" lon="3.0704936601547743"><ele>56.0</ele><time>2026-04-07T12:02:27.998Z</time></trkpt><trkpt lat="43.439504783124605" lon="3.070322607757331"><ele>55.333333333333336</ele><time>2026-04-07T12:02:28.998Z</time></trkpt><trkpt lat="43.43963730086769" lon="3.070151503849678"><ele>54.66666666666667</ele><time>2026-04-07T12:02:29.998Z</time></trkpt><trkpt lat="43.43977293567879" lon="3.0699802960509506"><ele>54.0</ele><time>2026-04-07T12:02:30.998Z</time></trkpt><trkpt lat="43.43990642347703" lon="3.0698145830372865"><ele>54.0</ele><time>2026-04-07T12:02:31.998Z</time></trkpt><trkpt lat="43.44004071389688" lon="3.0696457599798292"><ele>54.0</ele><time>2026-04-07T12:02:32.998Z</time></trkpt><trkpt lat="43.44017566311735" lon="3.0694814844949097"><ele>54.0</ele><time>2026-04-07T12:02:33.998Z</time></trkpt><trkpt lat="43.440311367958074" lon="3.0693171154912413"><ele>54.0</ele><time>2026-04-07T12:02:34.998Z</time></trkpt><trkpt lat="43.44044616095247" lon="3.069152376337394"><ele>54.0</ele><time>2026-04-07T12:02:35.998Z</time></trkpt><trkpt lat="43.440576516771195" lon="3.0689857009351127"><ele>54.0</ele><time>2026-04-07T12:02:37Z</time></trkpt><trkpt lat="43.440709945346995" lon="3.068819331218371"><ele>54.33333333333333</ele><time>2026-04-07T12:02:38Z</time></trkpt><trkpt lat="43.44084304942512" lon="3.0686569772547534"><ele>54.666666666666664</ele><time>2026-04-07T12:02:39Z</time></trkpt><trkpt lat="43.44097482181018" lon="3.0684986801488963"><ele>55.0</ele><time>2026-04-07T12:02:40Z</time></trkpt><trkpt lat="43.441119853013724" lon="3.0683251176168387"><ele>54.33333333333333</ele><time>2026-04-07T12:02:41Z</time></trkpt><trkpt lat="43.44124628757928" lon="3.0681570066883386"><ele>53.66666666666667</ele><time>2026-04-07T12:02:42Z</time></trkpt><trkpt lat="43.44137616234286" lon="3.067986869511536"><ele>53.0</ele><time>2026-04-07T12:02:43Z</time></trkpt><trkpt lat="43.44150340471083" lon="3.067819088749917"><ele>53.0</ele><time>2026-04-07T12:02:44Z</time></trkpt><trkpt lat="43.44164666053731" lon="3.0676524984905393"><ele>53.0</ele><time>2026-04-07T12:02:45Z</time></trkpt><trkpt lat="43.441792656972815" lon="3.0674980543315242"><ele>53.0</ele><time>2026-04-07T12:02:46Z</time></trkpt><trkpt lat="43.44195281577625" lon="3.067384881458606"><ele>52.333333333333336</ele><time>2026-04-07T12:02:47Z</time></trkpt><trkpt lat="43.44211646059258" lon="3.067264899869158"><ele>51.66666666666667</ele><time>2026-04-07T12:02:48Z</time></trkpt><trkpt lat="43.442278677350636" lon="3.067169611114438"><ele>51.0</ele><time>2026-04-07T12:02:49Z</time></trkpt><trkpt lat="43.44244606202728" lon="3.067095872989334"><ele>51.0</ele><time>2026-04-07T12:02:50Z</time></trkpt><trkpt lat="43.44261855372563" lon="3.067034486217083"><ele>51.0</ele><time>2026-04-07T12:02:51Z</time></trkpt><trkpt lat="43.442786832065075" lon="3.0669641809472634"><ele>51.0</ele><time>2026-04-07T12:02:52Z</time></trkpt><trkpt lat="43.44295728433634" lon="3.0669132812090765"><ele>51.0</ele><time>2026-04-07T12:02:53Z</time></trkpt><trkpt lat="43.44312256797732" lon="3.0668451694581202"><ele>51.0</ele><time>2026-04-07T12:02:54Z</time></trkpt><trkpt lat="43.44328052997944" lon="3.0667664239704404"><ele>51.0</ele><time>2026-04-07T12:02:55Z</time></trkpt><trkpt lat="43.44344497739545" lon="3.0666605024128604"><ele>51.0</ele><time>2026-04-07T12:02:56Z</time></trkpt><trkpt lat="43.44360245534756" lon="3.0665438719125095"><ele>51.0</ele><time>2026-04-07T12:02:57Z</time></trkpt><trkpt lat="43.443749321839874" lon="3.066405750396492"><ele>51.0</ele><time>2026-04-07T12:02:58Z</time></trkpt><trkpt lat="43.443890333160624" lon="3.0662475302003465"><ele>50.66666666666667</ele><time>2026-04-07T12:02:59Z</time></trkpt><trkpt lat="43.44401880936205" lon="3.066080211538456"><ele>50.333333333333336</ele><time>2026-04-07T12:03:00Z</time></trkpt><trkpt lat="43.44413755243036" lon="3.0658996558849028"><ele>50.0</ele><time>2026-04-07T12:03:01Z</time></trkpt><trkpt lat="43.444251156721336" lon="3.0657101603660237"><ele>50.0</ele><time>2026-04-07T12:03:02Z</time></trkpt><trkpt lat="43.44435351439841" lon="3.065507030326393"><ele>50.0</ele><time>2026-04-07T12:03:03Z</time></trkpt><trkpt lat="43.444441916438684" lon="3.0652940184005084"><ele>50.0</ele><time>2026-04-07T12:03:04Z</time></trkpt><trkpt lat="43.444510102438414" lon="3.06505352652143"><ele>50.333333333333336</ele><time>2026-04-07T12:03:05Z</time></trkpt><trkpt lat="43.4445757875536" lon="3.064802256541281"><ele>50.66666666666667</ele><time>2026-04-07T12:03:06Z</time></trkpt><trkpt lat="43.44464477017844" lon="3.0645595621364103"><ele>51.0</ele><time>2026-04-07T12:03:07Z</time></trkpt><trkpt lat="43.444701280217686" lon="3.0643232840927075"><ele>51.0</ele><time>2026-04-07T12:03:08Z</time></trkpt><trkpt lat="43.44476107246908" lon="3.0640867896458035"><ele>51.0</ele><time>2026-04-07T12:03:09Z</time></trkpt><trkpt lat="43.44482604447632" lon="3.0638524438375114"><ele>51.0</ele><time>2026-04-07T12:03:09.999Z</time></trkpt><trkpt lat="43.44489957771306" lon="3.0636253176298522"><ele>51.0</ele><time>2026-04-07T12:03:10.999Z</time></trkpt><trkpt lat="43.444979029135254" lon="3.0633961543498125"><ele>51.0</ele><time>2026-04-07T12:03:11.999Z</time></trkpt><trkpt lat="43.44504952018562" lon="3.0631644399177915"><ele>51.0</ele><time>2026-04-07T12:03:12.999Z</time></trkpt><trkpt lat="43.44512956051104" lon="3.0629427978492534"><ele>51.66666666666667</ele><time>2026-04-07T12:03:13.999Z</time></trkpt><trkpt lat="43.44520507466955" lon="3.0627282354215155"><ele>52.333333333333336</ele><time>2026-04-07T12:03:14.999Z</time></trkpt><trkpt lat="43.44530314972052" lon="3.0625104410053643"><ele>53.0</ele><time>2026-04-07T12:03:15.999Z</time></trkpt><trkpt lat="43.44538548469341" lon="3.0622848389861086"><ele>52.66666666666667</ele><time>2026-04-07T12:03:16.999Z</time></trkpt><trkpt lat="43.44547058836113" lon="3.062051650663592"><ele>52.33333333333333</ele><time>2026-04-07T12:03:17.999Z</time></trkpt><trkpt lat="43.445553832779524" lon="3.0618235568849084"><ele>52.0</ele><time>2026-04-07T12:03:18.999Z</time></trkpt><trkpt lat="43.445635955299956" lon="3.061597853398336"><ele>53.0</ele><time>2026-04-07T12:03:19.999Z</time></trkpt><trkpt lat="43.44571765257909" lon="3.0613731593031996"><ele>54.0</ele><time>2026-04-07T12:03:20.999Z</time></trkpt><trkpt lat="43.445794579793784" lon="3.061161584776561"><ele>55.0</ele><time>2026-04-07T12:03:21.999Z</time></trkpt><trkpt lat="43.44586975938865" lon="3.060954816554183"><ele>55.0</ele><time>2026-04-07T12:03:22.999Z</time></trkpt><trkpt lat="43.44594392415355" lon="3.060750838882438"><ele>55.0</ele><time>2026-04-07T12:03:23.999Z</time></trkpt><trkpt lat="43.44601980257333" lon="3.06054214912508"><ele>55.0</ele><time>2026-04-07T12:03:24.999Z</time></trkpt><trkpt lat="43.44608182369145" lon="3.060323383343159"><ele>55.0</ele><time>2026-04-07T12:03:25.999Z</time></trkpt><trkpt lat="43.44616909192592" lon="3.060131555443713"><ele>55.0</ele><time>2026-04-07T12:03:26.999Z</time></trkpt><trkpt lat="43.446241055321536" lon="3.0599371412277456"><ele>55.0</ele><time>2026-04-07T12:03:27.999Z</time></trkpt><trkpt lat="43.44631736849508" lon="3.0597333587072804"><ele>54.666666666666664</ele><time>2026-04-07T12:03:28.999Z</time></trkpt><trkpt lat="43.446383199117065" lon="3.0595216167798895"><ele>54.33333333333333</ele><time>2026-04-07T12:03:29.999Z</time></trkpt><trkpt lat="43.44648320460416" lon="3.0593328960701798"><ele>54.0</ele><time>2026-04-07T12:03:30.999Z</time></trkpt><trkpt lat="43.446578276083606" lon="3.059133357103389"><ele>54.0</ele><time>2026-04-07T12:03:31.999Z</time></trkpt><trkpt lat="43.446684196061106" lon="3.0589379032334088"><ele>54.0</ele><time>2026-04-07T12:03:32.999Z</time></trkpt><trkpt lat="43.446797421393114" lon="3.0587456102222377"><ele>54.0</ele><time>2026-04-07T12:03:33.999Z</time></trkpt><trkpt lat="43.44692299254359" lon="3.058546900312966"><ele>54.0</ele><time>2026-04-07T12:03:34.999Z</time></trkpt><trkpt lat="43.44705391206599" lon="3.058348357675491"><ele>54.0</ele><time>2026-04-07T12:03:35.999Z</time></trkpt><trkpt lat="43.447192183758204" lon="3.058138665137484"><ele>54.0</ele><time>2026-04-07T12:03:36.999Z</time></trkpt><trkpt lat="43.44733231444708" lon="3.057925901538394"><ele>54.0</ele><time>2026-04-07T12:03:37.999Z</time></trkpt><trkpt lat="43.447459113501004" lon="3.0577294608388277"><ele>54.0</ele><time>2026-04-07T12:03:38.999Z</time></trkpt><trkpt lat="43.44757056981741" lon="3.05755369341793"><ele>54.0</ele><time>2026-04-07T12:03:39.999Z</time></trkpt><trkpt lat="43.44766142618633" lon="3.0573951388051785"><ele>54.800000000000004</ele><time>2026-04-07T12:03:40.999Z</time></trkpt><trkpt lat="43.44771801998534" lon="3.057247672388343"><ele>55.60000000000001</ele><time>2026-04-07T12:03:41.999Z</time></trkpt><trkpt lat="43.447786565592224" lon="3.057140889280894"><ele>56.4</ele><time>2026-04-07T12:03:42.999Z</time></trkpt><trkpt lat="43.44783448983304" lon="3.0570195473479647"><ele>57.2</ele><time>2026-04-07T12:03:43.999Z</time></trkpt><trkpt lat="43.44787200881919" lon="3.0569034767938392"><ele>58.0</ele><time>2026-04-07T12:03:44.999Z</time></trkpt><trkpt lat="43.44788844270299" lon="3.056782608568126"><ele>57.99999999999999</ele><time>2026-04-07T12:03:45.999Z</time></trkpt><trkpt lat="43.44791839636234" lon="3.0566777118382467"><ele>58.0</ele><time>2026-04-07T12:03:46.999Z</time></trkpt><trkpt lat="43.44795087641088" lon="3.05658154701942"><ele>58.0</ele><time>2026-04-07T12:03:47.999Z</time></trkpt><trkpt lat="43.44796861926485" lon="3.056491227260517"><ele>58.0</ele><time>2026-04-07T12:03:48.999Z</time></trkpt><trkpt lat="43.447991098108076" lon="3.056407888540641"><ele>57.99999999999999</ele><time>2026-04-07T12:03:49.999Z</time></trkpt><trkpt lat="43.448022276691496" lon="3.0562771481188"><ele>58.0</ele><time>2026-04-07T12:03:51.999Z</time></trkpt><trkpt lat="43.44807011214269" lon="3.0562126773620863"><ele>57.8</ele><time>2026-04-07T12:03:54.999Z</time></trkpt><trkpt lat="43.44804500825032" lon="3.056118341810281"><ele>57.599999999999994</ele><time>2026-04-07T12:04:19.998Z</time></trkpt><trkpt lat="43.448049739449424" lon="3.0560191892274897"><ele>57.400000000000006</ele><time>2026-04-07T12:04:21.998Z</time></trkpt><trkpt lat="43.448065299145235" lon="3.055847840020146"><ele>57.2</ele><time>2026-04-07T12:04:23.998Z</time></trkpt><trkpt lat="43.44814413892835" lon="3.0557428080085143"><ele>57.0</ele><time>2026-04-07T12:04:24.998Z</time></trkpt><trkpt lat="43.448176374673665" lon="3.055593538331427"><ele>57.400000000000006</ele><time>2026-04-07T12:04:25.998Z</time></trkpt><trkpt lat="43.44820567489194" lon="3.0554591730182064"><ele>57.800000000000004</ele><time>2026-04-07T12:04:26.998Z</time></trkpt><trkpt lat="43.44823376732964" lon="3.0553303464296957"><ele>58.2</ele><time>2026-04-07T12:04:27.998Z</time></trkpt><trkpt lat="43.44826366394154" lon="3.055193246183829"><ele>58.6</ele><time>2026-04-07T12:04:28.998Z</time></trkpt><trkpt lat="43.448294430899736" lon="3.0550521547530356"><ele>59.0</ele><time>2026-04-07T12:04:29.998Z</time></trkpt><trkpt lat="43.44832341944383" lon="3.054919217793367"><ele>59.333333333333336</ele><time>2026-04-07T12:04:30.998Z</time></trkpt><trkpt lat="43.44835111268296" lon="3.0547961520854248"><ele>59.66666666666667</ele><time>2026-04-07T12:04:31.998Z</time></trkpt><trkpt lat="43.448374848498815" lon="3.0546825234383177"><ele>60.0</ele><time>2026-04-07T12:04:32.998Z</time></trkpt><trkpt lat="43.44839588429775" lon="3.0545756084849494"><ele>60.33333333333333</ele><time>2026-04-07T12:04:33.998Z</time></trkpt><trkpt lat="43.44841678333095" lon="3.0544617698905387"><ele>60.666666666666664</ele><time>2026-04-07T12:04:34.998Z</time></trkpt><trkpt lat="43.44843509651568" lon="3.0543507170132793"><ele>61.0</ele><time>2026-04-07T12:04:35.998Z</time></trkpt><trkpt lat="43.448448798288496" lon="3.0542349285851733"><ele>60.99999999999999</ele><time>2026-04-07T12:04:36.998Z</time></trkpt><trkpt lat="43.448458635896664" lon="3.0541254588431"><ele>61.0</ele><time>2026-04-07T12:04:37.998Z</time></trkpt><trkpt lat="43.4484694504286" lon="3.0540106484028864"><ele>61.0</ele><time>2026-04-07T12:04:38.998Z</time></trkpt><trkpt lat="43.448449653766964" lon="3.0538922446672374"><ele>61.0</ele><time>2026-04-07T12:04:39.998Z</time></trkpt><trkpt lat="43.44845642162652" lon="3.0537879434984427"><ele>60.99999999999999</ele><time>2026-04-07T12:04:40.998Z</time></trkpt><trkpt lat="43.448462432057994" lon="3.053701363176481"><ele>61.0</ele><time>2026-04-07T12:04:41.998Z</time></trkpt><trkpt lat="43.44848849541095" lon="3.0535326379244916"><ele>61.0</ele><time>2026-04-07T12:04:44Z</time></trkpt><trkpt lat="43.44856452403669" lon="3.053477324110324"><ele>60.99999999999999</ele><time>2026-04-07T12:04:46Z</time></trkpt><trkpt lat="43.4487075014135" lon="3.053537456752905"><ele>60.99999999999999</ele><time>2026-04-07T12:04:47Z</time></trkpt><trkpt lat="43.448798879667045" lon="3.053616598862335"><ele>61.0</ele><time>2026-04-07T12:04:48Z</time></trkpt><trkpt lat="43.44887853396203" lon="3.0536797180261783"><ele>61.0</ele><time>2026-04-07T12:04:49Z</time></trkpt><trkpt lat="43.448946214251926" lon="3.0537163853868803"><ele>61.0</ele><time>2026-04-07T12:04:50Z</time></trkpt><trkpt lat="43.44905844414971" lon="3.05378236564701"><ele>60.99999999999999</ele><time>2026-04-07T12:04:52Z</time></trkpt><trkpt lat="43.44917065721089" lon="3.053844903012296"><ele>60.99999999999999</ele><time>2026-04-07T12:04:54Z</time></trkpt><trkpt lat="43.44923726761418" lon="3.0538858126409916"><ele>61.0</ele><time>2026-04-07T12:04:55Z</time></trkpt><trkpt lat="43.449311692797714" lon="3.053942592923675"><ele>61.0</ele><time>2026-04-07T12:04:56Z</time></trkpt><trkpt lat="43.44937808817546" lon="3.053987189428053"><ele>60.99999999999999</ele><time>2026-04-07T12:04:57Z</time></trkpt><trkpt lat="43.44944104961494" lon="3.0540240804158265"><ele>61.0</ele><time>2026-04-07T12:04:58Z</time></trkpt><trkpt lat="43.4494968148762" lon="3.0540652727530597"><ele>61.0</ele><time>2026-04-07T12:04:59Z</time></trkpt><trkpt lat="43.44956649275949" lon="3.0540842165156765"><ele>61.0</ele><time>2026-04-07T12:05:00Z</time></trkpt><trkpt lat="43.44968190752837" lon="3.053977585076572"><ele>60.99999999999999</ele><time>2026-04-07T12:05:02Z</time></trkpt><trkpt lat="43.44972291339761" lon="3.053842812996581"><ele>61.0</ele><time>2026-04-07T12:05:03Z</time></trkpt><trkpt lat="43.44974473996835" lon="3.053686731231675"><ele>61.0</ele><time>2026-04-07T12:05:04Z</time></trkpt><trkpt lat="43.449777130792874" lon="3.053556939060399"><ele>60.99999999999999</ele><time>2026-04-07T12:05:05Z</time></trkpt><trkpt lat="43.449814856369464" lon="3.053439200753689"><ele>60.99999999999999</ele><time>2026-04-07T12:05:06Z</time></trkpt><trkpt lat="43.44985130666304" lon="3.05331716322676"><ele>61.0</ele><time>2026-04-07T12:05:07Z</time></trkpt><trkpt lat="43.449888084517006" lon="3.0531986614761277"><ele>61.0</ele><time>2026-04-07T12:05:08Z</time></trkpt><trkpt lat="43.44991595274031" lon="3.053077120660754"><ele>61.0</ele><time>2026-04-07T12:05:09Z</time></trkpt><trkpt lat="43.44995109084576" lon="3.0529451776628"><ele>60.99999999999999</ele><time>2026-04-07T12:05:10Z</time></trkpt><trkpt lat="43.449986279142664" lon="3.0528250697684185"><ele>60.99999999999999</ele><time>2026-04-07T12:05:11Z</time></trkpt><trkpt lat="43.45001603517649" lon="3.052709142050257"><ele>61.0</ele><time>2026-04-07T12:05:12Z</time></trkpt><trkpt lat="43.450046623945454" lon="3.0525876057823638"><ele>61.0</ele><time>2026-04-07T12:05:13Z</time></trkpt><trkpt lat="43.45008353053645" lon="3.0524710725244804"><ele>61.0</ele><time>2026-04-07T12:05:14Z</time></trkpt><trkpt lat="43.45012542196012" lon="3.05234894486341"><ele>60.99999999999999</ele><time>2026-04-07T12:05:15Z</time></trkpt><trkpt lat="43.45016036697871" lon="3.05221108841882"><ele>60.99999999999999</ele><time>2026-04-07T12:05:16Z</time></trkpt><trkpt lat="43.45018845036761" lon="3.052054898463274"><ele>61.0</ele><time>2026-04-07T12:05:17Z</time></trkpt><trkpt lat="43.450188171853796" lon="3.051912694294294"><ele>61.0</ele><time>2026-04-07T12:05:18Z</time></trkpt><trkpt lat="43.45020548910842" lon="3.0517577020434263"><ele>60.599999999999994</ele><time>2026-04-07T12:05:19Z</time></trkpt><trkpt lat="43.45021976653662" lon="3.051595222936338"><ele>60.199999999999996</ele><time>2026-04-07T12:05:20Z</time></trkpt><trkpt lat="43.45022463573093" lon="3.0514963188089688"><ele>59.800000000000004</ele><time>2026-04-07T12:05:20.999Z</time></trkpt><trkpt lat="43.450231049515025" lon="3.0513539632176405"><ele>59.400000000000006</ele><time>2026-04-07T12:05:21.999Z</time></trkpt><trkpt lat="43.45024431168866" lon="3.0512206270657893"><ele>59.0</ele><time>2026-04-07T12:05:22.999Z</time></trkpt><trkpt lat="43.45025330232622" lon="3.0510797181781886"><ele>59.00000000000001</ele><time>2026-04-07T12:05:23.999Z</time></trkpt><trkpt lat="43.45025980730468" lon="3.0509510038405168"><ele>59.0</ele><time>2026-04-07T12:05:24.999Z</time></trkpt><trkpt lat="43.450266646397544" lon="3.0508398392806924"><ele>59.0</ele><time>2026-04-07T12:05:25.999Z</time></trkpt><trkpt lat="43.45027330174574" lon="3.0507459116246207"><ele>59.0</ele><time>2026-04-07T12:05:26.999Z</time></trkpt><trkpt lat="43.45027564111191" lon="3.0506579767702626"><ele>59.00000000000001</ele><time>2026-04-07T12:05:27.999Z</time></trkpt><trkpt lat="43.45028363562227" lon="3.0505603585970364"><ele>59.0</ele><time>2026-04-07T12:05:28.999Z</time></trkpt><trkpt lat="43.45029074024089" lon="3.0504382802942462"><ele>59.6</ele><time>2026-04-07T12:05:30.999Z</time></trkpt><trkpt lat="43.45029591639543" lon="3.0503135070877994"><ele>60.2</ele><time>2026-04-07T12:05:32.999Z</time></trkpt><trkpt lat="43.45029975988236" lon="3.0501698032645366"><ele>60.800000000000004</ele><time>2026-04-07T12:05:34.999Z</time></trkpt><trkpt lat="43.450293444041705" lon="3.050010883039488"><ele>61.400000000000006</ele><time>2026-04-07T12:05:36.999Z</time></trkpt><trkpt lat="43.4502666488941" lon="3.0498689833672787"><ele>62.0</ele><time>2026-04-07T12:05:38.999Z</time></trkpt><trkpt lat="43.45025468890978" lon="3.049774630443394"><ele>62.6</ele><time>2026-04-07T12:05:39.999Z</time></trkpt><trkpt lat="43.45022048987197" lon="3.049634490520781"><ele>63.2</ele><time>2026-04-07T12:05:41.999Z</time></trkpt><trkpt lat="43.450166119042315" lon="3.049532249508236"><ele>63.8</ele><time>2026-04-07T12:05:43.999Z</time></trkpt><trkpt lat="43.450135210408554" lon="3.04939071322678"><ele>64.4</ele><time>2026-04-07T12:05:45.999Z</time></trkpt><trkpt lat="43.45011610006599" lon="3.0493019603785507"><ele>65.0</ele><time>2026-04-07T12:05:46.999Z</time></trkpt><trkpt lat="43.4500609886805" lon="3.0491603606359963"><ele>65.4</ele><time>2026-04-07T12:05:48.999Z</time></trkpt><trkpt lat="43.449996609845805" lon="3.0490002510376812"><ele>65.8</ele><time>2026-04-07T12:05:50.999Z</time></trkpt><trkpt lat="43.44989486505682" lon="3.0489096343778677"><ele>66.2</ele><time>2026-04-07T12:05:52.999Z</time></trkpt><trkpt lat="43.44978936453527" lon="3.048805370900268"><ele>66.6</ele><time>2026-04-07T12:05:54.999Z</time></trkpt><trkpt lat="43.44972822307931" lon="3.0487812801084035"><ele>67.0</ele><time>2026-04-07T12:05:55.999Z</time></trkpt><trkpt lat="43.44962643100183" lon="3.0487027062097596"><ele>67.4</ele><time>2026-04-07T12:05:57.999Z</time></trkpt><trkpt lat="43.449527017071794" lon="3.0486392306315184"><ele>67.80000000000001</ele><time>2026-04-07T12:05:59.999Z</time></trkpt><trkpt lat="43.44945457571524" lon="3.048534308540477"><ele>68.2</ele><time>2026-04-07T12:06:01.999Z</time></trkpt><trkpt lat="43.44940137891255" lon="3.048421636480573"><ele>68.60000000000001</ele><time>2026-04-07T12:06:03.999Z</time></trkpt><trkpt lat="43.44935308049614" lon="3.0483556073608855"><ele>69.0</ele><time>2026-04-07T12:06:04.999Z</time></trkpt><trkpt lat="43.4494089443933" lon="3.048121977267073"><ele>69.2</ele><time>2026-04-07T12:06:06.999Z</time></trkpt><trkpt lat="43.44946294202452" lon="3.0480028243792487"><ele>69.4</ele><time>2026-04-07T12:06:07.999Z</time></trkpt><trkpt lat="43.449539098887186" lon="3.047873864722793"><ele>69.6</ele><time>2026-04-07T12:06:08.998Z</time></trkpt><trkpt lat="43.44959445062968" lon="3.0477567252449935"><ele>69.8</ele><time>2026-04-07T12:06:09.998Z</time></trkpt><trkpt lat="43.449670130431976" lon="3.0476708733807376"><ele>70.0</ele><time>2026-04-07T12:06:10.998Z</time></trkpt><trkpt lat="43.44972958455033" lon="3.0475483383425526"><ele>70.2</ele><time>2026-04-07T12:06:11.998Z</time></trkpt><trkpt lat="43.44980040878063" lon="3.0474494448324467"><ele>70.4</ele><time>2026-04-07T12:06:12.998Z</time></trkpt><trkpt lat="43.44983870488216" lon="3.0473199463193037"><ele>70.6</ele><time>2026-04-07T12:06:13.998Z</time></trkpt><trkpt lat="43.449848682874595" lon="3.0471785363951076"><ele>70.8</ele><time>2026-04-07T12:06:14.998Z</time></trkpt><trkpt lat="43.44986742068829" lon="3.047063759657554"><ele>71.0</ele><time>2026-04-07T12:06:15.998Z</time></trkpt><trkpt lat="43.449878009408366" lon="3.0469383816846984"><ele>71.0</ele><time>2026-04-07T12:06:16.998Z</time></trkpt><trkpt lat="43.4498939418534" lon="3.0468201739520477"><ele>71.0</ele><time>2026-04-07T12:06:17.998Z</time></trkpt><trkpt lat="43.449921641231725" lon="3.0466850807395773"><ele>71.0</ele><time>2026-04-07T12:06:18.998Z</time></trkpt><trkpt lat="43.44990918714681" lon="3.046547604057897"><ele>71.0</ele><time>2026-04-07T12:06:19.998Z</time></trkpt><trkpt lat="43.44991852449341" lon="3.0464009179191516"><ele>71.0</ele><time>2026-04-07T12:06:20.998Z</time></trkpt><trkpt lat="43.44994019053387" lon="3.0462560997662975"><ele>70.8</ele><time>2026-04-07T12:06:21.998Z</time></trkpt><trkpt lat="43.44994785258023" lon="3.046116168220199"><ele>70.6</ele><time>2026-04-07T12:06:22.998Z</time></trkpt><trkpt lat="43.44995058999407" lon="3.046009156337272"><ele>70.4</ele><time>2026-04-07T12:06:23.998Z</time></trkpt><trkpt lat="43.449935235332944" lon="3.0458403829950353"><ele>70.2</ele><time>2026-04-07T12:06:24.998Z</time></trkpt><trkpt lat="43.449914037797484" lon="3.045697613098257"><ele>70.0</ele><time>2026-04-07T12:06:25.998Z</time></trkpt><trkpt lat="43.449895870174025" lon="3.045563448478541"><ele>68.8</ele><time>2026-04-07T12:06:26.998Z</time></trkpt><trkpt lat="43.44988190392079" lon="3.0454228047542995"><ele>67.6</ele><time>2026-04-07T12:06:27.998Z</time></trkpt><trkpt lat="43.44985852713235" lon="3.045290244123806"><ele>66.4</ele><time>2026-04-07T12:06:28.998Z</time></trkpt><trkpt lat="43.44982453418998" lon="3.045141815092089"><ele>65.2</ele><time>2026-04-07T12:06:29.998Z</time></trkpt><trkpt lat="43.44978958440193" lon="3.0449876025306124"><ele>64.0</ele><time>2026-04-07T12:06:30.998Z</time></trkpt><trkpt lat="43.44975232474227" lon="3.044835683452424"><ele>61.5</ele><time>2026-04-07T12:06:31.998Z</time></trkpt><trkpt lat="43.4497135622174" lon="3.0446762261834337"><ele>59.0</ele><time>2026-04-07T12:06:32.998Z</time></trkpt><trkpt lat="43.449662964431646" lon="3.04451693355122"><ele>56.5</ele><time>2026-04-07T12:06:33.998Z</time></trkpt><trkpt lat="43.449590475071105" lon="3.0443571875024564"><ele>54.0</ele><time>2026-04-07T12:06:34.998Z</time></trkpt><trkpt lat="43.449519216452785" lon="3.0441941472159146"><ele>57.75</ele><time>2026-04-07T12:06:35.998Z</time></trkpt><trkpt lat="43.44945347008466" lon="3.044032818845019"><ele>61.5</ele><time>2026-04-07T12:06:36.998Z</time></trkpt><trkpt lat="43.449385074418004" lon="3.0438628105422465"><ele>65.25</ele><time>2026-04-07T12:06:37.998Z</time></trkpt><trkpt lat="43.4493177707379" lon="3.043684415720857"><ele>69.0</ele><time>2026-04-07T12:06:38.998Z</time></trkpt><trkpt lat="43.44926119387166" lon="3.0434956985203954"><ele>69.0</ele><time>2026-04-07T12:06:39.998Z</time></trkpt><trkpt lat="43.44920168631907" lon="3.0433085254108585"><ele>69.0</ele><time>2026-04-07T12:06:40.998Z</time></trkpt><trkpt lat="43.449149844953034" lon="3.043104628135054"><ele>69.0</ele><time>2026-04-07T12:06:41.998Z</time></trkpt><trkpt lat="43.44911126609135" lon="3.0429054991095996"><ele>67.75</ele><time>2026-04-07T12:06:42.998Z</time></trkpt><trkpt lat="43.44909541336951" lon="3.0427034164179823"><ele>66.5</ele><time>2026-04-07T12:06:43.998Z</time></trkpt><trkpt lat="43.44909443437948" lon="3.0425215196170767"><ele>65.25</ele><time>2026-04-07T12:06:44.998Z</time></trkpt><trkpt lat="43.44910650544599" lon="3.0423787672467157"><ele>64.0</ele><time>2026-04-07T12:06:45.998Z</time></trkpt><trkpt lat="43.44909300319236" lon="3.042265635990506"><ele>63.6</ele><time>2026-04-07T12:06:46.998Z</time></trkpt><trkpt lat="43.44910261324688" lon="3.0421589156293485"><ele>63.2</ele><time>2026-04-07T12:06:47.998Z</time></trkpt><trkpt lat="43.44910535401317" lon="3.0420178769923574"><ele>62.800000000000004</ele><time>2026-04-07T12:06:49Z</time></trkpt><trkpt lat="43.449110149869455" lon="3.041859237328388"><ele>62.400000000000006</ele><time>2026-04-07T12:06:50Z</time></trkpt><trkpt lat="43.449122417976184" lon="3.0417005544070905"><ele>62.0</ele><time>2026-04-07T12:06:51Z</time></trkpt><trkpt lat="43.44911737339208" lon="3.041526207977317"><ele>61.5</ele><time>2026-04-07T12:06:52Z</time></trkpt><trkpt lat="43.449120821255725" lon="3.041338574376852"><ele>61.0</ele><time>2026-04-07T12:06:53Z</time></trkpt><trkpt lat="43.449130897464315" lon="3.0411624942442725"><ele>60.5</ele><time>2026-04-07T12:06:54Z</time></trkpt><trkpt lat="43.449141964759974" lon="3.0409747815526904"><ele>60.0</ele><time>2026-04-07T12:06:55Z</time></trkpt><trkpt lat="43.449136842743194" lon="3.0407815304952655"><ele>60.0</ele><time>2026-04-07T12:06:56Z</time></trkpt><trkpt lat="43.44913934787805" lon="3.0405920981767705"><ele>60.0</ele><time>2026-04-07T12:06:57Z</time></trkpt><trkpt lat="43.44913840063664" lon="3.040406407692385"><ele>60.0</ele><time>2026-04-07T12:06:58Z</time></trkpt><trkpt lat="43.44914689651021" lon="3.0401911128450796"><ele>60.0</ele><time>2026-04-07T12:06:59Z</time></trkpt><trkpt lat="43.44915052555535" lon="3.0399839145057275"><ele>59.0</ele><time>2026-04-07T12:07:00Z</time></trkpt><trkpt lat="43.44914713581981" lon="3.0397790456041567"><ele>58.0</ele><time>2026-04-07T12:07:01Z</time></trkpt><trkpt lat="43.449136774107345" lon="3.03956739984145"><ele>57.0</ele><time>2026-04-07T12:07:02Z</time></trkpt><trkpt lat="43.44912701809948" lon="3.03936364488256"><ele>57.0</ele><time>2026-04-07T12:07:03Z</time></trkpt><trkpt lat="43.44910384807299" lon="3.039166435806015"><ele>57.0</ele><time>2026-04-07T12:07:04Z</time></trkpt><trkpt lat="43.44908770555005" lon="3.038962742952897"><ele>57.0</ele><time>2026-04-07T12:07:05Z</time></trkpt><trkpt lat="43.44906847838863" lon="3.0387606762639345"><ele>57.0</ele><time>2026-04-07T12:07:06Z</time></trkpt><trkpt lat="43.44905418190038" lon="3.0385627872646754"><ele>56.8</ele><time>2026-04-07T12:07:07Z</time></trkpt><trkpt lat="43.44907499251557" lon="3.0383804463847572"><ele>56.6</ele><time>2026-04-07T12:07:08Z</time></trkpt><trkpt lat="43.44907588850314" lon="3.038218622285931"><ele>56.39999999999999</ele><time>2026-04-07T12:07:09Z</time></trkpt><trkpt lat="43.44912685796856" lon="3.0380958342930455"><ele>56.199999999999996</ele><time>2026-04-07T12:07:10Z</time></trkpt><trkpt lat="43.44917487327539" lon="3.0380007520713077"><ele>56.0</ele><time>2026-04-07T12:07:11Z</time></trkpt><trkpt lat="43.449168899579355" lon="3.0379095863689396"><ele>56.5</ele><time>2026-04-07T12:07:12Z</time></trkpt><trkpt lat="43.449107287155776" lon="3.0378160979015254"><ele>57.0</ele><time>2026-04-07T12:07:13Z</time></trkpt><trkpt lat="43.44902703522801" lon="3.0377156372301855"><ele>57.5</ele><time>2026-04-07T12:07:14Z</time></trkpt><trkpt lat="43.448958527240286" lon="3.037573814860447"><ele>58.0</ele><time>2026-04-07T12:07:15Z</time></trkpt><trkpt lat="43.44892118898201" lon="3.0374052161557166"><ele>58.25</ele><time>2026-04-07T12:07:16Z</time></trkpt><trkpt lat="43.448950037785075" lon="3.037216026092671"><ele>58.5</ele><time>2026-04-07T12:07:17Z</time></trkpt><trkpt lat="43.448952250448755" lon="3.0370409364391486"><ele>58.75</ele><time>2026-04-07T12:07:18Z</time></trkpt><trkpt lat="43.448969991918254" lon="3.03685829776578"><ele>59.0</ele><time>2026-04-07T12:07:19Z</time></trkpt><trkpt lat="43.449004248274605" lon="3.036681427940313"><ele>59.25</ele><time>2026-04-07T12:07:20Z</time></trkpt><trkpt lat="43.44905206721805" lon="3.03651000311896"><ele>59.5</ele><time>2026-04-07T12:07:21Z</time></trkpt><trkpt lat="43.44910744375426" lon="3.0363363985150906"><ele>59.75</ele><time>2026-04-07T12:07:22Z</time></trkpt><trkpt lat="43.449152847507584" lon="3.036151473395012"><ele>60.0</ele><time>2026-04-07T12:07:23Z</time></trkpt><trkpt lat="43.44922243306897" lon="3.035985667098107"><ele>60.5</ele><time>2026-04-07T12:07:24Z</time></trkpt><trkpt lat="43.44927674639291" lon="3.0358011033654897"><ele>61.0</ele><time>2026-04-07T12:07:25Z</time></trkpt><trkpt lat="43.44931210223349" lon="3.035610504371384"><ele>61.5</ele><time>2026-04-07T12:07:26Z</time></trkpt><trkpt lat="43.44934390746261" lon="3.035420742921002"><ele>62.0</ele><time>2026-04-07T12:07:27Z</time></trkpt><trkpt lat="43.44936986496989" lon="3.0352224237902874"><ele>62.0</ele><time>2026-04-07T12:07:27.999Z</time></trkpt><trkpt lat="43.44940735318048" lon="3.0350174074465124"><ele>62.0</ele><time>2026-04-07T12:07:28.999Z</time></trkpt><trkpt lat="43.449428914798716" lon="3.0348121387954374"><ele>62.0</ele><time>2026-04-07T12:07:29.999Z</time></trkpt><trkpt lat="43.44945030409438" lon="3.0346057520271037"><ele>62.0</ele><time>2026-04-07T12:07:30.999Z</time></trkpt><trkpt lat="43.449472397496216" lon="3.034391708957113"><ele>62.0</ele><time>2026-04-07T12:07:31.999Z</time></trkpt><trkpt lat="43.44949451298465" lon="3.0341774520275546"><ele>62.0</ele><time>2026-04-07T12:07:32.999Z</time></trkpt><trkpt lat="43.44950447776591" lon="3.033947117809575"><ele>62.333333333333336</ele><time>2026-04-07T12:07:33.999Z</time></trkpt><trkpt lat="43.44954160446108" lon="3.033727830844566"><ele>62.66666666666667</ele><time>2026-04-07T12:07:34.999Z</time></trkpt><trkpt lat="43.44956581891745" lon="3.0335000658528353"><ele>63.0</ele><time>2026-04-07T12:07:35.999Z</time></trkpt><trkpt lat="43.44959343233508" lon="3.0332559966986987"><ele>63.0</ele><time>2026-04-07T12:07:36.999Z</time></trkpt><trkpt lat="43.44961815881093" lon="3.03302248568239"><ele>63.0</ele><time>2026-04-07T12:07:37.999Z</time></trkpt><trkpt lat="43.44964039978567" lon="3.0327791306705327"><ele>63.0</ele><time>2026-04-07T12:07:38.999Z</time></trkpt><trkpt lat="43.44965636748069" lon="3.032527403483081"><ele>63.0</ele><time>2026-04-07T12:07:39.999Z</time></trkpt><trkpt lat="43.44966166613493" lon="3.032271809388056"><ele>63.0</ele><time>2026-04-07T12:07:40.999Z</time></trkpt><trkpt lat="43.449654418463716" lon="3.032013780473643"><ele>63.0</ele><time>2026-04-07T12:07:41.999Z</time></trkpt><trkpt lat="43.4496397396835" lon="3.031755202077933"><ele>63.66666666666667</ele><time>2026-04-07T12:07:42.999Z</time></trkpt><trkpt lat="43.44961905391252" lon="3.031492281973064"><ele>64.33333333333334</ele><time>2026-04-07T12:07:43.999Z</time></trkpt><trkpt lat="43.44959606151327" lon="3.0312311220840673"><ele>65.0</ele><time>2026-04-07T12:07:44.999Z</time></trkpt><trkpt lat="43.449573250337835" lon="3.030970919129181"><ele>64.66666666666667</ele><time>2026-04-07T12:07:45.999Z</time></trkpt><trkpt lat="43.449550616543455" lon="3.030708725140921"><ele>64.33333333333333</ele><time>2026-04-07T12:07:46.999Z</time></trkpt><trkpt lat="43.44952815526775" lon="3.0304485298169666"><ele>64.0</ele><time>2026-04-07T12:07:47.999Z</time></trkpt><trkpt lat="43.449504315482805" lon="3.0301831868933213"><ele>64.33333333333333</ele><time>2026-04-07T12:07:48.999Z</time></trkpt><trkpt lat="43.44947900648716" lon="3.0299160450441813"><ele>64.66666666666667</ele><time>2026-04-07T12:07:49.999Z</time></trkpt><trkpt lat="43.4494502683158" lon="3.0296563610224982"><ele>65.0</ele><time>2026-04-07T12:07:50.999Z</time></trkpt><trkpt lat="43.44942020151533" lon="3.0294003095688544"><ele>65.0</ele><time>2026-04-07T12:07:51.999Z</time></trkpt><trkpt lat="43.449390166607955" lon="3.0291445296232653"><ele>65.0</ele><time>2026-04-07T12:07:52.999Z</time></trkpt><trkpt lat="43.449360145661075" lon="3.028888868580248"><ele>65.0</ele><time>2026-04-07T12:07:53.999Z</time></trkpt><trkpt lat="43.44933062365936" lon="3.028637456547616"><ele>64.33333333333334</ele><time>2026-04-07T12:07:54.999Z</time></trkpt><trkpt lat="43.44930013991132" lon="3.0283817602992316"><ele>63.66666666666667</ele><time>2026-04-07T12:07:55.999Z</time></trkpt><trkpt lat="43.449251983086185" lon="3.0281305294171266"><ele>63.0</ele><time>2026-04-07T12:07:56.999Z</time></trkpt><trkpt lat="43.44921705139737" lon="3.0278784408170365"><ele>63.0</ele><time>2026-04-07T12:07:57.999Z</time></trkpt><trkpt lat="43.449184266372015" lon="3.0276253664506267"><ele>63.0</ele><time>2026-04-07T12:07:58.999Z</time></trkpt><trkpt lat="43.44913473450752" lon="3.0273762497754557"><ele>63.0</ele><time>2026-04-07T12:07:59.999Z</time></trkpt><trkpt lat="43.449060508724145" lon="3.0271419432444193"><ele>62.33333333333333</ele><time>2026-04-07T12:08:00.999Z</time></trkpt><trkpt lat="43.44900069283719" lon="3.026904537551306"><ele>61.666666666666664</ele><time>2026-04-07T12:08:01.999Z</time></trkpt><trkpt lat="43.44893302569704" lon="3.026672262071592"><ele>61.0</ele><time>2026-04-07T12:08:02.999Z</time></trkpt><trkpt lat="43.44886044090627" lon="3.026438007018434"><ele>62.33333333333333</ele><time>2026-04-07T12:08:03.999Z</time></trkpt><trkpt lat="43.44878426605982" lon="3.026202707073283"><ele>63.66666666666667</ele><time>2026-04-07T12:08:04.999Z</time></trkpt><trkpt lat="43.44870650510208" lon="3.025972478796403"><ele>65.0</ele><time>2026-04-07T12:08:05.999Z</time></trkpt><trkpt lat="43.44862863666039" lon="3.025745222678782"><ele>65.0</ele><time>2026-04-07T12:08:06.999Z</time></trkpt><trkpt lat="43.44855494330388" lon="3.0255169855474655"><ele>65.0</ele><time>2026-04-07T12:08:07.999Z</time></trkpt><trkpt lat="43.44849801249928" lon="3.0252770709430363"><ele>65.0</ele><time>2026-04-07T12:08:08.999Z</time></trkpt><trkpt lat="43.448433202116206" lon="3.0250409898055626"><ele>65.5</ele><time>2026-04-07T12:08:09.999Z</time></trkpt><trkpt lat="43.448380431065395" lon="3.024801095215568"><ele>66.0</ele><time>2026-04-07T12:08:10.999Z</time></trkpt><trkpt lat="43.4482966273305" lon="3.0243231889293627"><ele>66.0</ele><time>2026-04-07T12:08:12.999Z</time></trkpt><trkpt lat="43.44827600791665" lon="3.024079184559128"><ele>66.0</ele><time>2026-04-07T12:08:13.999Z</time></trkpt><trkpt lat="43.44826187976028" lon="3.0238334186880538"><ele>66.0</ele><time>2026-04-07T12:08:14.999Z</time></trkpt><trkpt lat="43.44825885509627" lon="3.023586447163731"><ele>66.0</ele><time>2026-04-07T12:08:15.998Z</time></trkpt><trkpt lat="43.44828502708627" lon="3.0233430726222283"><ele>66.0</ele><time>2026-04-07T12:08:16.998Z</time></trkpt><trkpt lat="43.448305366217916" lon="3.0230981251944735"><ele>66.0</ele><time>2026-04-07T12:08:17.998Z</time></trkpt><trkpt lat="43.44833143829514" lon="3.0228484413458396"><ele>66.33333333333333</ele><time>2026-04-07T12:08:18.998Z</time></trkpt><trkpt lat="43.44834342464492" lon="3.022603856629221"><ele>66.66666666666666</ele><time>2026-04-07T12:08:19.998Z</time></trkpt><trkpt lat="43.44837511578282" lon="3.0223551698389963"><ele>67.0</ele><time>2026-04-07T12:08:20.998Z</time></trkpt><trkpt lat="43.4484041084284" lon="3.0221181000395476"><ele>67.66666666666666</ele><time>2026-04-07T12:08:21.998Z</time></trkpt><trkpt lat="43.4484318726749" lon="3.021890083118242"><ele>68.33333333333333</ele><time>2026-04-07T12:08:22.998Z</time></trkpt><trkpt lat="43.44847435566763" lon="3.0216602884220336"><ele>69.0</ele><time>2026-04-07T12:08:23.998Z</time></trkpt><trkpt lat="43.44850423541769" lon="3.021425438952632"><ele>70.0</ele><time>2026-04-07T12:08:24.998Z</time></trkpt><trkpt lat="43.44853381040001" lon="3.0211922104330533"><ele>71.0</ele><time>2026-04-07T12:08:25.998Z</time></trkpt><trkpt lat="43.44856348701141" lon="3.0209554235699776"><ele>72.0</ele><time>2026-04-07T12:08:26.998Z</time></trkpt><trkpt lat="43.4485939043216" lon="3.0207127267527754"><ele>73.0</ele><time>2026-04-07T12:08:27.998Z</time></trkpt><trkpt lat="43.448618889928454" lon="3.0204881210828454"><ele>74.0</ele><time>2026-04-07T12:08:28.998Z</time></trkpt><trkpt lat="43.44864457710448" lon="3.020230261603124"><ele>75.0</ele><time>2026-04-07T12:08:29.998Z</time></trkpt><trkpt lat="43.448644904765466" lon="3.0201339138120873"><ele>76.0</ele><time>2026-04-07T12:08:30.998Z</time></trkpt><trkpt lat="43.44866149454006" lon="3.0198861663892416"><ele>76.66666666666666</ele><time>2026-04-07T12:08:31.998Z</time></trkpt><trkpt lat="43.448687142028305" lon="3.0196289679991253"><ele>77.33333333333333</ele><time>2026-04-07T12:08:32.998Z</time></trkpt><trkpt lat="43.44870112865769" lon="3.0193620263768337"><ele>78.0</ele><time>2026-04-07T12:08:33.998Z</time></trkpt><trkpt lat="43.44871793583905" lon="3.019091277044698"><ele>79.33333333333333</ele><time>2026-04-07T12:08:34.998Z</time></trkpt><trkpt lat="43.4487352659439" lon="3.0188111163752898"><ele>80.66666666666666</ele><time>2026-04-07T12:08:35.998Z</time></trkpt><trkpt lat="43.44875301599983" lon="3.0185241667229836"><ele>82.0</ele><time>2026-04-07T12:08:36.998Z</time></trkpt><trkpt lat="43.448768511297864" lon="3.0182559243901217"><ele>82.0</ele><time>2026-04-07T12:08:37.998Z</time></trkpt><trkpt lat="43.44878179198298" lon="3.0180038877952065"><ele>82.0</ele><time>2026-04-07T12:08:38.998Z</time></trkpt><trkpt lat="43.44879190987423" lon="3.0177695175741652"><ele>82.0</ele><time>2026-04-07T12:08:39.998Z</time></trkpt><trkpt lat="43.4487952788177" lon="3.0175472179200504"><ele>81.0</ele><time>2026-04-07T12:08:40.998Z</time></trkpt><trkpt lat="43.4487755673393" lon="3.0173329043175543"><ele>80.0</ele><time>2026-04-07T12:08:41.998Z</time></trkpt><trkpt lat="43.44876702444067" lon="3.0171278864288253"><ele>79.0</ele><time>2026-04-07T12:08:42.998Z</time></trkpt><trkpt lat="43.448769176187724" lon="3.016914880032012"><ele>79.0</ele><time>2026-04-07T12:08:43.998Z</time></trkpt><trkpt lat="43.44874936210121" lon="3.016697641150093"><ele>79.0</ele><time>2026-04-07T12:08:44.998Z</time></trkpt><trkpt lat="43.44870789687207" lon="3.016481156304434"><ele>79.0</ele><time>2026-04-07T12:08:45.998Z</time></trkpt><trkpt lat="43.44867893835281" lon="3.016260577588487"><ele>77.66666666666666</ele><time>2026-04-07T12:08:46.998Z</time></trkpt><trkpt lat="43.448645146106244" lon="3.0160391778107956"><ele>76.33333333333333</ele><time>2026-04-07T12:08:47.998Z</time></trkpt><trkpt lat="43.44859906170957" lon="3.015804753706703"><ele>75.0</ele><time>2026-04-07T12:08:48.998Z</time></trkpt><trkpt lat="43.44855103347372" lon="3.015567969417985"><ele>74.33333333333333</ele><time>2026-04-07T12:08:49.998Z</time></trkpt><trkpt lat="43.448512180957565" lon="3.0153242269842884"><ele>73.66666666666666</ele><time>2026-04-07T12:08:50.998Z</time></trkpt><trkpt lat="43.44845850349607" lon="3.015068940821962"><ele>73.0</ele><time>2026-04-07T12:08:51.998Z</time></trkpt><trkpt lat="43.44839587280661" lon="3.014792186235847"><ele>72.66666666666666</ele><time>2026-04-07T12:08:52.998Z</time></trkpt><trkpt lat="43.44832978725513" lon="3.014529558038658"><ele>72.33333333333333</ele><time>2026-04-07T12:08:53.998Z</time></trkpt><trkpt lat="43.44825991900625" lon="3.0142604919138196"><ele>72.0</ele><time>2026-04-07T12:08:55Z</time></trkpt><trkpt lat="43.44818993453145" lon="3.013990977753481"><ele>72.0</ele><time>2026-04-07T12:08:56Z</time></trkpt><trkpt lat="43.44812089481004" lon="3.0137342070714337"><ele>72.0</ele><time>2026-04-07T12:08:57Z</time></trkpt><trkpt lat="43.448054455131654" lon="3.013496422874052"><ele>72.0</ele><time>2026-04-07T12:08:58Z</time></trkpt><trkpt lat="43.44799359762173" lon="3.01327557846707"><ele>75.0</ele><time>2026-04-07T12:08:59Z</time></trkpt><trkpt lat="43.44793192460467" lon="3.0130553800143463"><ele>78.0</ele><time>2026-04-07T12:09:00Z</time></trkpt><trkpt lat="43.44786956855603" lon="3.0128366825528268"><ele>81.0</ele><time>2026-04-07T12:09:01Z</time></trkpt><trkpt lat="43.4478018283661" lon="3.012619820346175"><ele>79.66666666666667</ele><time>2026-04-07T12:09:02Z</time></trkpt><trkpt lat="43.44772726574533" lon="3.012405604773076"><ele>78.33333333333334</ele><time>2026-04-07T12:09:03Z</time></trkpt><trkpt lat="43.44764999139462" lon="3.0121918515406447"><ele>77.0</ele><time>2026-04-07T12:09:04Z</time></trkpt><trkpt lat="43.447573608315366" lon="3.0119819856597667"><ele>77.0</ele><time>2026-04-07T12:09:05Z</time></trkpt><trkpt lat="43.447494191085475" lon="3.0117666420294857"><ele>77.0</ele><time>2026-04-07T12:09:06Z</time></trkpt><trkpt lat="43.44741455470916" lon="3.011552749696752"><ele>77.0</ele><time>2026-04-07T12:09:07Z</time></trkpt><trkpt lat="43.447335051399754" lon="3.0113392148115685"><ele>75.66666666666667</ele><time>2026-04-07T12:09:08Z</time></trkpt><trkpt lat="43.447257077628336" lon="3.011125913112972"><ele>74.33333333333333</ele><time>2026-04-07T12:09:09Z</time></trkpt><trkpt lat="43.44718274201645" lon="3.010914648855642"><ele>73.0</ele><time>2026-04-07T12:09:10Z</time></trkpt><trkpt lat="43.44711192273257" lon="3.0107001226982293"><ele>77.0</ele><time>2026-04-07T12:09:11Z</time></trkpt><trkpt lat="43.44704349331073" lon="3.0104863666249444"><ele>81.0</ele><time>2026-04-07T12:09:12Z</time></trkpt><trkpt lat="43.44698067642106" lon="3.0102745643565565"><ele>85.0</ele><time>2026-04-07T12:09:13Z</time></trkpt><trkpt lat="43.44692247058333" lon="3.010056584521976"><ele>84.33333333333333</ele><time>2026-04-07T12:09:14Z</time></trkpt><trkpt lat="43.44688270238002" lon="3.009841398333711"><ele>83.66666666666667</ele><time>2026-04-07T12:09:15Z</time></trkpt><trkpt lat="43.446853111735095" lon="3.0096124432616294"><ele>83.0</ele><time>2026-04-07T12:09:16Z</time></trkpt><trkpt lat="43.446830629869346" lon="3.0093836258739097"><ele>83.33333333333334</ele><time>2026-04-07T12:09:17Z</time></trkpt><trkpt lat="43.446807578515866" lon="3.009148161147538"><ele>83.66666666666667</ele><time>2026-04-07T12:09:18Z</time></trkpt><trkpt lat="43.446786121530394" lon="3.0089136626341824"><ele>84.0</ele><time>2026-04-07T12:09:19Z</time></trkpt><trkpt lat="43.44676561087499" lon="3.008677821936933"><ele>84.0</ele><time>2026-04-07T12:09:20Z</time></trkpt><trkpt lat="43.4467547522074" lon="3.0084472468426076"><ele>84.0</ele><time>2026-04-07T12:09:21Z</time></trkpt><trkpt lat="43.44674976200413" lon="3.0082108785752464"><ele>84.0</ele><time>2026-04-07T12:09:22Z</time></trkpt><trkpt lat="43.44674666263965" lon="3.007975262336998"><ele>83.33333333333333</ele><time>2026-04-07T12:09:23Z</time></trkpt><trkpt lat="43.44673427059883" lon="3.0077416556941143"><ele>82.66666666666666</ele><time>2026-04-07T12:09:24Z</time></trkpt><trkpt lat="43.446696268579586" lon="3.007510433751693"><ele>82.0</ele><time>2026-04-07T12:09:25Z</time></trkpt><trkpt lat="43.446666508007624" lon="3.0072767455530354"><ele>81.0</ele><time>2026-04-07T12:09:26Z</time></trkpt><trkpt lat="43.44662397985038" lon="3.007039476919459"><ele>80.0</ele><time>2026-04-07T12:09:27Z</time></trkpt><trkpt lat="43.4465760123405" lon="3.0068167485923802"><ele>79.0</ele><time>2026-04-07T12:09:28Z</time></trkpt><trkpt lat="43.44652131489557" lon="3.0065926902214057"><ele>78.33333333333333</ele><time>2026-04-07T12:09:29Z</time></trkpt><trkpt lat="43.44645980371954" lon="3.0063653209780496"><ele>77.66666666666667</ele><time>2026-04-07T12:09:30Z</time></trkpt><trkpt lat="43.44639566926028" lon="3.0061357333171888"><ele>77.0</ele><time>2026-04-07T12:09:31Z</time></trkpt><trkpt lat="43.446321214605696" lon="3.005914102076945"><ele>78.66666666666667</ele><time>2026-04-07T12:09:32Z</time></trkpt><trkpt lat="43.446243749034174" lon="3.0056936916227825"><ele>80.33333333333333</ele><time>2026-04-07T12:09:33Z</time></trkpt><trkpt lat="43.44618000183599" lon="3.0054708551282983"><ele>82.0</ele><time>2026-04-07T12:09:33.999Z</time></trkpt><trkpt lat="43.4461051050182" lon="3.005254755638681"><ele>82.0</ele><time>2026-04-07T12:09:34.999Z</time></trkpt><trkpt lat="43.44602909132569" lon="3.00503385419872"><ele>82.0</ele><time>2026-04-07T12:09:35.999Z</time></trkpt><trkpt lat="43.44595264487878" lon="3.0048116948555803"><ele>82.0</ele><time>2026-04-07T12:09:36.999Z</time></trkpt><trkpt lat="43.44586652225425" lon="3.004594475644778"><ele>81.0</ele><time>2026-04-07T12:09:37.999Z</time></trkpt><trkpt lat="43.44578370809664" lon="3.0043785969478787"><ele>80.0</ele><time>2026-04-07T12:09:38.999Z</time></trkpt><trkpt lat="43.4457199857682" lon="3.004147570216989"><ele>79.0</ele><time>2026-04-07T12:09:39.999Z</time></trkpt><trkpt lat="43.445653123172775" lon="3.003920430471834"><ele>78.33333333333333</ele><time>2026-04-07T12:09:40.999Z</time></trkpt><trkpt lat="43.445589469503446" lon="3.0036933447938634"><ele>77.66666666666667</ele><time>2026-04-07T12:09:41.999Z</time></trkpt><trkpt lat="43.44552766502343" lon="3.003469963225205"><ele>77.0</ele><time>2026-04-07T12:09:42.999Z</time></trkpt><trkpt lat="43.445475833233644" lon="3.003241455751025"><ele>79.66666666666667</ele><time>2026-04-07T12:09:43.999Z</time></trkpt><trkpt lat="43.445447993190115" lon="3.0030085475269868"><ele>82.33333333333333</ele><time>2026-04-07T12:09:44.999Z</time></trkpt><trkpt lat="43.445397694563546" lon="3.002792516329348"><ele>85.0</ele><time>2026-04-07T12:09:45.999Z</time></trkpt><trkpt lat="43.44535695286288" lon="3.002579699395642"><ele>83.66666666666666</ele><time>2026-04-07T12:09:46.999Z</time></trkpt><trkpt lat="43.44530340894095" lon="3.0023617041422095"><ele>82.33333333333333</ele><time>2026-04-07T12:09:47.999Z</time></trkpt><trkpt lat="43.44522914748546" lon="3.002145629734148"><ele>81.0</ele><time>2026-04-07T12:09:48.999Z</time></trkpt><trkpt lat="43.44513190816868" lon="3.001941970322922"><ele>81.0</ele><time>2026-04-07T12:09:49.999Z</time></trkpt><trkpt lat="43.44504786689643" lon="3.0017218112918105"><ele>81.0</ele><time>2026-04-07T12:09:50.999Z</time></trkpt><trkpt lat="43.44495879539141" lon="3.001511410745875"><ele>81.0</ele><time>2026-04-07T12:09:51.999Z</time></trkpt><trkpt lat="43.44487060337303" lon="3.00130184107378"><ele>80.33333333333333</ele><time>2026-04-07T12:09:52.999Z</time></trkpt><trkpt lat="43.44476554199129" lon="3.001104624273506"><ele>79.66666666666666</ele><time>2026-04-07T12:09:53.999Z</time></trkpt><trkpt lat="43.44466528957455" lon="3.0009010551727484"><ele>79.0</ele><time>2026-04-07T12:09:54.999Z</time></trkpt><trkpt lat="43.444578168265394" lon="3.000684046228587"><ele>81.33333333333333</ele><time>2026-04-07T12:09:55.999Z</time></trkpt><trkpt lat="43.44447650694731" lon="3.000483637272528"><ele>83.66666666666667</ele><time>2026-04-07T12:09:56.999Z</time></trkpt><trkpt lat="43.444378065477885" lon="3.000297499682222"><ele>86.0</ele><time>2026-04-07T12:09:57.999Z</time></trkpt><trkpt lat="43.44427628568912" lon="3.0001113323226614"><ele>86.0</ele><time>2026-04-07T12:09:58.999Z</time></trkpt><trkpt lat="43.44417117396613" lon="2.9999243091602543"><ele>86.0</ele><time>2026-04-07T12:09:59.999Z</time></trkpt><trkpt lat="43.44406414267021" lon="2.9997391423188318"><ele>86.0</ele><time>2026-04-07T12:10:00.999Z</time></trkpt><trkpt lat="43.443955367003376" lon="2.999558288406607"><ele>86.0</ele><time>2026-04-07T12:10:01.999Z</time></trkpt><trkpt lat="43.443832864537995" lon="2.9993996435302157"><ele>86.0</ele><time>2026-04-07T12:10:02.999Z</time></trkpt><trkpt lat="43.44372787555989" lon="2.9992113697191396"><ele>86.0</ele><time>2026-04-07T12:10:03.999Z</time></trkpt><trkpt lat="43.44360350303065" lon="2.999043809419874"><ele>88.0</ele><time>2026-04-07T12:10:04.999Z</time></trkpt><trkpt lat="43.44347578821779" lon="2.9988860917496556"><ele>90.0</ele><time>2026-04-07T12:10:05.999Z</time></trkpt><trkpt lat="43.44334521318774" lon="2.998732635763635"><ele>92.0</ele><time>2026-04-07T12:10:06.999Z</time></trkpt><trkpt lat="43.44321348531301" lon="2.9985875682638516"><ele>92.0</ele><time>2026-04-07T12:10:07.999Z</time></trkpt><trkpt lat="43.443081385604316" lon="2.9984437279035747"><ele>92.0</ele><time>2026-04-07T12:10:08.999Z</time></trkpt><trkpt lat="43.44294988739902" lon="2.9982999534031594"><ele>92.0</ele><time>2026-04-07T12:10:09.999Z</time></trkpt><trkpt lat="43.44281868869937" lon="2.9981561521890594"><ele>94.0</ele><time>2026-04-07T12:10:10.999Z</time></trkpt><trkpt lat="43.44268352519136" lon="2.9980080061150947"><ele>96.0</ele><time>2026-04-07T12:10:11.999Z</time></trkpt><trkpt lat="43.44255202536737" lon="2.997863875239271"><ele>98.0</ele><time>2026-04-07T12:10:12.999Z</time></trkpt><trkpt lat="43.442420989020185" lon="2.9977202524919018"><ele>98.0</ele><time>2026-04-07T12:10:13.999Z</time></trkpt><trkpt lat="43.4422901078128" lon="2.997576799811367"><ele>98.0</ele><time>2026-04-07T12:10:14.999Z</time></trkpt><trkpt lat="43.44215718548541" lon="2.9974311098195665"><ele>98.0</ele><time>2026-04-07T12:10:15.999Z</time></trkpt><trkpt lat="43.442027160306715" lon="2.9972865953161953"><ele>97.33333333333333</ele><time>2026-04-07T12:10:16.999Z</time></trkpt><trkpt lat="43.44189769785138" lon="2.997138108107614"><ele>96.66666666666666</ele><time>2026-04-07T12:10:17.999Z</time></trkpt><trkpt lat="43.44177264631531" lon="2.996992099459806"><ele>96.0</ele><time>2026-04-07T12:10:18.999Z</time></trkpt><trkpt lat="43.441648201646785" lon="2.996843681337299"><ele>96.0</ele><time>2026-04-07T12:10:19.999Z</time></trkpt><trkpt lat="43.441523831842275" lon="2.996690949022922"><ele>96.0</ele><time>2026-04-07T12:10:20.999Z</time></trkpt><trkpt lat="43.44140343827994" lon="2.9965336229739408"><ele>96.0</ele><time>2026-04-07T12:10:21.998Z</time></trkpt><trkpt lat="43.44128221621307" lon="2.9963701513276124"><ele>97.33333333333334</ele><time>2026-04-07T12:10:22.998Z</time></trkpt><trkpt lat="43.441161737297435" lon="2.9962055760252975"><ele>98.66666666666667</ele><time>2026-04-07T12:10:23.998Z</time></trkpt><trkpt lat="43.441043117678745" lon="2.9960421867914877"><ele>100.0</ele><time>2026-04-07T12:10:24.998Z</time></trkpt><trkpt lat="43.44092605029111" lon="2.9958732410712474"><ele>96.0</ele><time>2026-04-07T12:10:25.998Z</time></trkpt><trkpt lat="43.44080823314871" lon="2.9957074223723104"><ele>92.0</ele><time>2026-04-07T12:10:26.998Z</time></trkpt><trkpt lat="43.44067198534133" lon="2.9955586882930607"><ele>88.0</ele><time>2026-04-07T12:10:27.998Z</time></trkpt><trkpt lat="43.440551898378764" lon="2.995385099044517"><ele>88.33333333333333</ele><time>2026-04-07T12:10:28.998Z</time></trkpt><trkpt lat="43.44043535006818" lon="2.9952074391072485"><ele>88.66666666666667</ele><time>2026-04-07T12:10:29.998Z</time></trkpt><trkpt lat="43.44031898551274" lon="2.9950249375813396"><ele>89.0</ele><time>2026-04-07T12:10:30.998Z</time></trkpt><trkpt lat="43.44021974663204" lon="2.9948257827370397"><ele>89.0</ele><time>2026-04-07T12:10:31.998Z</time></trkpt><trkpt lat="43.440107813478" lon="2.9946470762182242"><ele>89.0</ele><time>2026-04-07T12:10:32.998Z</time></trkpt><trkpt lat="43.43999221150841" lon="2.994458932899961"><ele>89.0</ele><time>2026-04-07T12:10:33.998Z</time></trkpt><trkpt lat="43.439878335080714" lon="2.9942724504689258"><ele>89.66666666666667</ele><time>2026-04-07T12:10:34.998Z</time></trkpt><trkpt lat="43.43976528955868" lon="2.994087328689385"><ele>90.33333333333333</ele><time>2026-04-07T12:10:35.998Z</time></trkpt><trkpt lat="43.43965098891367" lon="2.9939001515015096"><ele>91.0</ele><time>2026-04-07T12:10:36.998Z</time></trkpt><trkpt lat="43.439536159170025" lon="2.993712107900448"><ele>91.0</ele><time>2026-04-07T12:10:37.998Z</time></trkpt><trkpt lat="43.43942153307733" lon="2.993524397784344"><ele>91.0</ele><time>2026-04-07T12:10:38.998Z</time></trkpt><trkpt lat="43.43930635598673" lon="2.9933357853619382"><ele>91.0</ele><time>2026-04-07T12:10:39.998Z</time></trkpt><trkpt lat="43.4391947579836" lon="2.9931530336465517"><ele>89.0</ele><time>2026-04-07T12:10:40.998Z</time></trkpt><trkpt lat="43.43907828512944" lon="2.9929651027263673"><ele>87.0</ele><time>2026-04-07T12:10:41.998Z</time></trkpt><trkpt lat="43.438945654260905" lon="2.9928025976557473"><ele>85.0</ele><time>2026-04-07T12:10:42.998Z</time></trkpt><trkpt lat="43.438827824987165" lon="2.992622942111694"><ele>87.0</ele><time>2026-04-07T12:10:43.998Z</time></trkpt><trkpt lat="43.43870522387476" lon="2.992448451228934"><ele>89.0</ele><time>2026-04-07T12:10:44.998Z</time></trkpt><trkpt lat="43.43858215124738" lon="2.992277322253198"><ele>91.0</ele><time>2026-04-07T12:10:45.998Z</time></trkpt><trkpt lat="43.4384600825409" lon="2.992111776655475"><ele>91.0</ele><time>2026-04-07T12:10:46.998Z</time></trkpt><trkpt lat="43.43835617983362" lon="2.9919225475329188"><ele>91.0</ele><time>2026-04-07T12:10:47.998Z</time></trkpt><trkpt lat="43.43823832121783" lon="2.9917583113604445"><ele>91.0</ele><time>2026-04-07T12:10:48.998Z</time></trkpt><trkpt lat="43.43812667775369" lon="2.9915948293093377"><ele>89.33333333333333</ele><time>2026-04-07T12:10:49.998Z</time></trkpt><trkpt lat="43.438021372994164" lon="2.9914203906004793"><ele>87.66666666666667</ele><time>2026-04-07T12:10:50.998Z</time></trkpt><trkpt lat="43.43792259545556" lon="2.9912314823524553"><ele>86.0</ele><time>2026-04-07T12:10:51.998Z</time></trkpt><trkpt lat="43.43784049244725" lon="2.991041115275909"><ele>90.66666666666667</ele><time>2026-04-07T12:10:52.998Z</time></trkpt><trkpt lat="43.43776705390156" lon="2.9908380127730387"><ele>95.33333333333334</ele><time>2026-04-07T12:10:53.998Z</time></trkpt><trkpt lat="43.437698010977066" lon="2.9906273842531803"><ele>100.0</ele><time>2026-04-07T12:10:54.998Z</time></trkpt><trkpt lat="43.43763235120166" lon="2.9904119463246968"><ele>100.0</ele><time>2026-04-07T12:10:55.998Z</time></trkpt><trkpt lat="43.4375680615223" lon="2.990196145999177"><ele>100.0</ele><time>2026-04-07T12:10:56.998Z</time></trkpt><trkpt lat="43.43750418373129" lon="2.9899817275840115"><ele>100.0</ele><time>2026-04-07T12:10:57.998Z</time></trkpt><trkpt lat="43.43744066830408" lon="2.9897685265536484"><ele>97.33333333333334</ele><time>2026-04-07T12:10:58.998Z</time></trkpt><trkpt lat="43.437379834537694" lon="2.9895637983041756"><ele>94.66666666666667</ele><time>2026-04-07T12:10:59.998Z</time></trkpt><trkpt lat="43.43731963490586" lon="2.9893505176982975"><ele>92.0</ele><time>2026-04-07T12:11:01Z</time></trkpt><trkpt lat="43.43726126838448" lon="2.9891358581597878"><ele>91.0</ele><time>2026-04-07T12:11:02Z</time></trkpt><trkpt lat="43.43721005869923" lon="2.98891236342898"><ele>90.0</ele><time>2026-04-07T12:11:03Z</time></trkpt><trkpt lat="43.43716322752027" lon="2.988686058021659"><ele>89.0</ele><time>2026-04-07T12:11:04Z</time></trkpt><trkpt lat="43.43711686349018" lon="2.9884597853018002"><ele>95.66666666666667</ele><time>2026-04-07T12:11:05Z</time></trkpt><trkpt lat="43.43706730965497" lon="2.988232519078652"><ele>102.33333333333334</ele><time>2026-04-07T12:11:06Z</time></trkpt><trkpt lat="43.437010978939654" lon="2.988003969724638"><ele>109.0</ele><time>2026-04-07T12:11:07Z</time></trkpt><trkpt lat="43.43694862534725" lon="2.987778093591346"><ele>109.0</ele><time>2026-04-07T12:11:08Z</time></trkpt><trkpt lat="43.4368823211135" lon="2.987555249516804"><ele>109.0</ele><time>2026-04-07T12:11:09Z</time></trkpt><trkpt lat="43.43681237366109" lon="2.98733215795759"><ele>109.0</ele><time>2026-04-07T12:11:10Z</time></trkpt><trkpt lat="43.43671962328066" lon="2.987122162021664"><ele>106.33333333333334</ele><time>2026-04-07T12:11:11Z</time></trkpt><trkpt lat="43.43664750193451" lon="2.9869084971532653"><ele>103.66666666666666</ele><time>2026-04-07T12:11:12Z</time></trkpt><trkpt lat="43.43657235099072" lon="2.9866911236592673"><ele>101.0</ele><time>2026-04-07T12:11:13Z</time></trkpt><trkpt lat="43.436497520120426" lon="2.9864722490554945"><ele>99.33333333333333</ele><time>2026-04-07T12:11:14Z</time></trkpt><trkpt lat="43.436439453591746" lon="2.986246068143432"><ele>97.66666666666666</ele><time>2026-04-07T12:11:15Z</time></trkpt><trkpt lat="43.43636918646951" lon="2.986032388304387"><ele>96.0</ele><time>2026-04-07T12:11:16Z</time></trkpt><trkpt lat="43.43630824568903" lon="2.9858105516818054"><ele>104.66666666666666</ele><time>2026-04-07T12:11:17Z</time></trkpt><trkpt lat="43.436257608082265" lon="2.985582080578215"><ele>113.33333333333333</ele><time>2026-04-07T12:11:18Z</time></trkpt><trkpt lat="43.43621007064278" lon="2.9853519470487866"><ele>122.0</ele><time>2026-04-07T12:11:19Z</time></trkpt><trkpt lat="43.43616343856758" lon="2.9851220529715383"><ele>119.0</ele><time>2026-04-07T12:11:20Z</time></trkpt><trkpt lat="43.4361161439565" lon="2.984888892471671"><ele>116.0</ele><time>2026-04-07T12:11:21Z</time></trkpt><trkpt lat="43.43606642518918" lon="2.9846573817812905"><ele>113.0</ele><time>2026-04-07T12:11:22Z</time></trkpt><trkpt lat="43.436015812110206" lon="2.98442806842661"><ele>113.0</ele><time>2026-04-07T12:11:23Z</time></trkpt><trkpt lat="43.435962511646174" lon="2.9841991906191248"><ele>113.0</ele><time>2026-04-07T12:11:24Z</time></trkpt><trkpt lat="43.435900127111125" lon="2.983978538676909"><ele>113.0</ele><time>2026-04-07T12:11:25Z</time></trkpt><trkpt lat="43.435832611863084" lon="2.983764881184421"><ele>110.66666666666666</ele><time>2026-04-07T12:11:26Z</time></trkpt><trkpt lat="43.43575624952227" lon="2.9835507152452436"><ele>108.33333333333334</ele><time>2026-04-07T12:11:27Z</time></trkpt><trkpt lat="43.43567439560042" lon="2.983342641917297"><ele>106.0</ele><time>2026-04-07T12:11:28Z</time></trkpt><trkpt lat="43.43558878771064" lon="2.9831376319228666"><ele>103.0</ele><time>2026-04-07T12:11:29Z</time></trkpt><trkpt lat="43.43549477345819" lon="2.982933065368182"><ele>100.0</ele><time>2026-04-07T12:11:30Z</time></trkpt><trkpt lat="43.43540090131849" lon="2.9827339198718374"><ele>97.0</ele><time>2026-04-07T12:11:31Z</time></trkpt><trkpt lat="43.43530724561079" lon="2.9825352338247715"><ele>101.33333333333334</ele><time>2026-04-07T12:11:32Z</time></trkpt><trkpt lat="43.43521099856737" lon="2.98232759617679"><ele>105.66666666666666</ele><time>2026-04-07T12:11:33Z</time></trkpt><trkpt lat="43.43511473837026" lon="2.982119602842723"><ele>110.0</ele><time>2026-04-07T12:11:34Z</time></trkpt><trkpt lat="43.43501906047022" lon="2.981913124671701"><ele>110.0</ele><time>2026-04-07T12:11:35Z</time></trkpt><trkpt lat="43.43492522109469" lon="2.9817160524284136"><ele>110.0</ele><time>2026-04-07T12:11:36Z</time></trkpt><trkpt lat="43.43483229866651" lon="2.9815209057690835"><ele>110.0</ele><time>2026-04-07T12:11:37Z</time></trkpt><trkpt lat="43.434737238723415" lon="2.981324447927072"><ele>109.33333333333333</ele><time>2026-04-07T12:11:38Z</time></trkpt><trkpt lat="43.43464468206709" lon="2.9811332956777954"><ele>108.66666666666666</ele><time>2026-04-07T12:11:39Z</time></trkpt><trkpt lat="43.43455202089693" lon="2.9809391272026486"><ele>108.0</ele><time>2026-04-07T12:11:40Z</time></trkpt><trkpt lat="43.43446154631992" lon="2.980746759796099"><ele>108.0</ele><time>2026-04-07T12:11:40.999Z</time></trkpt><trkpt lat="43.43437434672498" lon="2.9805542489120747"><ele>108.0</ele><time>2026-04-07T12:11:41.999Z</time></trkpt><trkpt lat="43.43429619875777" lon="2.9803540330657903"><ele>108.0</ele><time>2026-04-07T12:11:42.999Z</time></trkpt><trkpt lat="43.43422344524212" lon="2.9801496337870934"><ele>106.33333333333334</ele><time>2026-04-07T12:11:43.999Z</time></trkpt><trkpt lat="43.43415771730333" lon="2.979942609993523"><ele>104.66666666666667</ele><time>2026-04-07T12:11:44.999Z</time></trkpt><trkpt lat="43.43410107360608" lon="2.9797263442185975"><ele>103.0</ele><time>2026-04-07T12:11:45.999Z</time></trkpt><trkpt lat="43.43405102320925" lon="2.9795061718558924"><ele>103.0</ele><time>2026-04-07T12:11:46.999Z</time></trkpt><trkpt lat="43.434010041801415" lon="2.9792846774777453"><ele>103.0</ele><time>2026-04-07T12:11:47.999Z</time></trkpt><trkpt lat="43.43397276184606" lon="2.9790632077123855"><ele>103.0</ele><time>2026-04-07T12:11:48.999Z</time></trkpt><trkpt lat="43.43393712774692" lon="2.978849021959618"><ele>102.33333333333334</ele><time>2026-04-07T12:11:49.999Z</time></trkpt><trkpt lat="43.433883941087146" lon="2.9786326543716695"><ele>101.66666666666666</ele><time>2026-04-07T12:11:50.999Z</time></trkpt><trkpt lat="43.43384255222748" lon="2.978411498717005"><ele>101.0</ele><time>2026-04-07T12:11:51.999Z</time></trkpt><trkpt lat="43.4337881961646" lon="2.9781919974246573"><ele>109.66666666666666</ele><time>2026-04-07T12:11:52.999Z</time></trkpt><trkpt lat="43.433722497480034" lon="2.977981850936231"><ele>118.33333333333334</ele><time>2026-04-07T12:11:53.999Z</time></trkpt><trkpt lat="43.43365761452736" lon="2.9777660861515924"><ele>127.0</ele><time>2026-04-07T12:11:54.999Z</time></trkpt><trkpt lat="43.43357304333154" lon="2.9775590005772665"><ele>123.0</ele><time>2026-04-07T12:11:55.999Z</time></trkpt><trkpt lat="43.433491394390444" lon="2.97735907061476"><ele>119.0</ele><time>2026-04-07T12:11:56.999Z</time></trkpt><trkpt lat="43.43341072297052" lon="2.9771688223581787"><ele>115.0</ele><time>2026-04-07T12:11:57.999Z</time></trkpt><trkpt lat="43.43331082881456" lon="2.9769832747291596"><ele>115.0</ele><time>2026-04-07T12:11:58.999Z</time></trkpt><trkpt lat="43.433224474952766" lon="2.976785927521684"><ele>115.0</ele><time>2026-04-07T12:11:59.999Z</time></trkpt><trkpt lat="43.433146724847724" lon="2.9765984318472745"><ele>115.0</ele><time>2026-04-07T12:12:00.999Z</time></trkpt><trkpt lat="43.433076889051996" lon="2.9764184452180107"><ele>116.5</ele><time>2026-04-07T12:12:01.999Z</time></trkpt><trkpt lat="43.433009642178746" lon="2.976235355324778"><ele>118.0</ele><time>2026-04-07T12:12:02.999Z</time></trkpt><trkpt lat="43.4329412543304" lon="2.9760597944732017"><ele>119.5</ele><time>2026-04-07T12:12:03.999Z</time></trkpt><trkpt lat="43.43287667111957" lon="2.9758780759245074"><ele>121.0</ele><time>2026-04-07T12:12:04.999Z</time></trkpt><trkpt lat="43.432795455539974" lon="2.975693455712118"><ele>121.0</ele><time>2026-04-07T12:12:05.999Z</time></trkpt><trkpt lat="43.43269109019961" lon="2.975512696460934"><ele>121.0</ele><time>2026-04-07T12:12:06.999Z</time></trkpt><trkpt lat="43.43256126787098" lon="2.9753134674005364"><ele>121.0</ele><time>2026-04-07T12:12:07.999Z</time></trkpt><trkpt lat="43.432436064353006" lon="2.9750950699358047"><ele>122.33333333333334</ele><time>2026-04-07T12:12:08.999Z</time></trkpt><trkpt lat="43.43230903171282" lon="2.9748910570568925"><ele>123.66666666666666</ele><time>2026-04-07T12:12:09.999Z</time></trkpt><trkpt lat="43.43220249881149" lon="2.974721061088046"><ele>125.0</ele><time>2026-04-07T12:12:10.999Z</time></trkpt><trkpt lat="43.432098958244886" lon="2.9745569415730886"><ele>125.0</ele><time>2026-04-07T12:12:11.999Z</time></trkpt><trkpt lat="43.43198141614262" lon="2.9743898302485388"><ele>125.0</ele><time>2026-04-07T12:12:12.999Z</time></trkpt><trkpt lat="43.43183714459692" lon="2.9742512526376617"><ele>125.0</ele><time>2026-04-07T12:12:13.999Z</time></trkpt><trkpt lat="43.431667713945615" lon="2.9741343963004945"><ele>120.33333333333333</ele><time>2026-04-07T12:12:14.999Z</time></trkpt><trkpt lat="43.431479555824836" lon="2.9740571475501416"><ele>115.66666666666666</ele><time>2026-04-07T12:12:15.999Z</time></trkpt><trkpt lat="43.43128700782993" lon="2.9740080367107535"><ele>111.0</ele><time>2026-04-07T12:12:16.999Z</time></trkpt><trkpt lat="43.4311166532721" lon="2.9739782671962542"><ele>111.0</ele><time>2026-04-07T12:12:17.999Z</time></trkpt><trkpt lat="43.430950645503195" lon="2.9739324245165473"><ele>111.0</ele><time>2026-04-07T12:12:18.999Z</time></trkpt><trkpt lat="43.43079080034375" lon="2.973844884614264"><ele>111.0</ele><time>2026-04-07T12:12:19.999Z</time></trkpt><trkpt lat="43.43063088002412" lon="2.9737154545388043"><ele>111.0</ele><time>2026-04-07T12:12:20.999Z</time></trkpt><trkpt lat="43.43048677970751" lon="2.97352921366015"><ele>111.0</ele><time>2026-04-07T12:12:21.999Z</time></trkpt><trkpt lat="43.43038849747503" lon="2.9733465871364864"><ele>111.0</ele><time>2026-04-07T12:12:23.999Z</time></trkpt><trkpt lat="43.43030133652945" lon="2.9731422190459362"><ele>108.66666666666666</ele><time>2026-04-07T12:12:24.999Z</time></trkpt><trkpt lat="43.43021660104071" lon="2.9729256992898243"><ele>106.33333333333333</ele><time>2026-04-07T12:12:25.999Z</time></trkpt><trkpt lat="43.430112163209266" lon="2.972715837616762"><ele>104.0</ele><time>2026-04-07T12:12:26.999Z</time></trkpt><trkpt lat="43.429979175070706" lon="2.9725344328000327"><ele>103.66666666666666</ele><time>2026-04-07T12:12:27.998Z</time></trkpt><trkpt lat="43.42985042267547" lon="2.972360707026305"><ele>103.33333333333334</ele><time>2026-04-07T12:12:28.998Z</time></trkpt><trkpt lat="43.429688978622345" lon="2.9722358780052476"><ele>103.0</ele><time>2026-04-07T12:12:29.998Z</time></trkpt><trkpt lat="43.42954248852567" lon="2.9721182793574683"><ele>103.0</ele><time>2026-04-07T12:12:30.998Z</time></trkpt><trkpt lat="43.429392732745924" lon="2.9720044297453656"><ele>103.0</ele><time>2026-04-07T12:12:31.998Z</time></trkpt><trkpt lat="43.42923559944449" lon="2.9718867670351305"><ele>103.0</ele><time>2026-04-07T12:12:32.998Z</time></trkpt><trkpt lat="43.4290855830778" lon="2.9717689634090383"><ele>102.66666666666667</ele><time>2026-04-07T12:12:33.998Z</time></trkpt><trkpt lat="43.42893898840871" lon="2.971659819836745"><ele>102.33333333333334</ele><time>2026-04-07T12:12:34.998Z</time></trkpt><trkpt lat="43.428792103235686" lon="2.9715367666740327"><ele>102.0</ele><time>2026-04-07T12:12:35.998Z</time></trkpt><trkpt lat="43.428660782995216" lon="2.9714187902020353"><ele>102.0</ele><time>2026-04-07T12:12:36.998Z</time></trkpt><trkpt lat="43.428509933866884" lon="2.971300177801549"><ele>102.0</ele><time>2026-04-07T12:12:37.998Z</time></trkpt><trkpt lat="43.42837278197974" lon="2.9711587367975745"><ele>102.0</ele><time>2026-04-07T12:12:38.998Z</time></trkpt><trkpt lat="43.428229104097284" lon="2.9710317490741844"><ele>102.0</ele><time>2026-04-07T12:12:39.998Z</time></trkpt><trkpt lat="43.42807725312363" lon="2.970922870822155"><ele>102.0</ele><time>2026-04-07T12:12:40.998Z</time></trkpt><trkpt lat="43.42793913361948" lon="2.970794394095856"><ele>102.0</ele><time>2026-04-07T12:12:41.998Z</time></trkpt><trkpt lat="43.42780559483735" lon="2.9706433577064124"><ele>102.33333333333334</ele><time>2026-04-07T12:12:42.998Z</time></trkpt><trkpt lat="43.42768803687582" lon="2.9705030779397976"><ele>102.66666666666667</ele><time>2026-04-07T12:12:43.998Z</time></trkpt><trkpt lat="43.42757984486324" lon="2.97033442049475"><ele>103.0</ele><time>2026-04-07T12:12:44.998Z</time></trkpt><trkpt lat="43.42749244420272" lon="2.9701567870417627"><ele>102.66666666666667</ele><time>2026-04-07T12:12:45.998Z</time></trkpt><trkpt lat="43.42741868861248" lon="2.969959745239734"><ele>102.33333333333334</ele><time>2026-04-07T12:12:46.998Z</time></trkpt><trkpt lat="43.42736569758673" lon="2.9697476164960355"><ele>102.0</ele><time>2026-04-07T12:12:47.998Z</time></trkpt><trkpt lat="43.42733241771499" lon="2.9695204416180663"><ele>102.0</ele><time>2026-04-07T12:12:48.998Z</time></trkpt><trkpt lat="43.42730474139231" lon="2.9692961973461838"><ele>102.0</ele><time>2026-04-07T12:12:49.998Z</time></trkpt><trkpt lat="43.42726383201029" lon="2.969067816423609"><ele>102.0</ele><time>2026-04-07T12:12:50.998Z</time></trkpt><trkpt lat="43.42723695291972" lon="2.9688423289979653"><ele>102.0</ele><time>2026-04-07T12:12:51.998Z</time></trkpt><trkpt lat="43.42722460034096" lon="2.968612645615612"><ele>102.0</ele><time>2026-04-07T12:12:52.998Z</time></trkpt><trkpt lat="43.427189498933004" lon="2.96839384028923"><ele>102.0</ele><time>2026-04-07T12:12:53.998Z</time></trkpt><trkpt lat="43.42712254767441" lon="2.968194811574622"><ele>102.66666666666666</ele><time>2026-04-07T12:12:54.998Z</time></trkpt><trkpt lat="43.427065250331985" lon="2.9680086616456838"><ele>103.33333333333333</ele><time>2026-04-07T12:12:55.998Z</time></trkpt><trkpt lat="43.42697914563481" lon="2.9678291230608758"><ele>104.0</ele><time>2026-04-07T12:12:56.998Z</time></trkpt><trkpt lat="43.42689394826843" lon="2.967647276870818"><ele>104.33333333333333</ele><time>2026-04-07T12:12:57.998Z</time></trkpt><trkpt lat="43.42680994578581" lon="2.9674723891199353"><ele>104.66666666666666</ele><time>2026-04-07T12:12:58.998Z</time></trkpt><trkpt lat="43.426723997986116" lon="2.9672960509666075"><ele>105.0</ele><time>2026-04-07T12:12:59.998Z</time></trkpt><trkpt lat="43.4266390260805" lon="2.9671185343199227"><ele>105.0</ele><time>2026-04-07T12:13:00.998Z</time></trkpt><trkpt lat="43.42655635338431" lon="2.966936430875554"><ele>105.0</ele><time>2026-04-07T12:13:01.998Z</time></trkpt><trkpt lat="43.426483272183255" lon="2.9667630370704536"><ele>105.0</ele><time>2026-04-07T12:13:02.998Z</time></trkpt><trkpt lat="43.426420336447094" lon="2.9666133934954813"><ele>105.0</ele><time>2026-04-07T12:13:03.998Z</time></trkpt><trkpt lat="43.426395316579786" lon="2.9664233135273204"><ele>105.0</ele><time>2026-04-07T12:13:04.998Z</time></trkpt><trkpt lat="43.426374159949376" lon="2.966158873303049"><ele>105.0</ele><time>2026-04-07T12:13:05.998Z</time></trkpt><trkpt lat="43.42635543354573" lon="2.965921074387449"><ele>105.0</ele><time>2026-04-07T12:13:07Z</time></trkpt><trkpt lat="43.426337719917136" lon="2.9656880130237955"><ele>104.66666666666666</ele><time>2026-04-07T12:13:08Z</time></trkpt><trkpt lat="43.42632234467398" lon="2.9654726947295913"><ele>104.33333333333333</ele><time>2026-04-07T12:13:09Z</time></trkpt><trkpt lat="43.42630744709262" lon="2.9652446526737344"><ele>104.0</ele><time>2026-04-07T12:13:10Z</time></trkpt><trkpt lat="43.426294124220604" lon="2.96502644934032"><ele>104.66666666666666</ele><time>2026-04-07T12:13:11Z</time></trkpt><trkpt lat="43.42628179917465" lon="2.9648023098496603"><ele>105.33333333333334</ele><time>2026-04-07T12:13:12Z</time></trkpt><trkpt lat="43.42627217690102" lon="2.9645877722732736"><ele>106.0</ele><time>2026-04-07T12:13:13Z</time></trkpt><trkpt lat="43.42626707423225" lon="2.9643658732321505"><ele>106.33333333333334</ele><time>2026-04-07T12:13:14Z</time></trkpt><trkpt lat="43.426270292730926" lon="2.9641447264447525"><ele>106.66666666666666</ele><time>2026-04-07T12:13:15Z</time></trkpt><trkpt lat="43.42628708695486" lon="2.963933457068518"><ele>107.0</ele><time>2026-04-07T12:13:16Z</time></trkpt><trkpt lat="43.426313670111185" lon="2.963729710342213"><ele>107.25</ele><time>2026-04-07T12:13:17Z</time></trkpt><trkpt lat="43.42634423196345" lon="2.9635419860681016"><ele>107.5</ele><time>2026-04-07T12:13:18Z</time></trkpt><trkpt lat="43.42636755773733" lon="2.9633615867619643"><ele>107.75</ele><time>2026-04-07T12:13:19Z</time></trkpt><trkpt lat="43.426406341432994" lon="2.9631952517292577"><ele>108.0</ele><time>2026-04-07T12:13:20Z</time></trkpt><trkpt lat="43.42644799962709" lon="2.9630339545355264"><ele>108.2</ele><time>2026-04-07T12:13:21Z</time></trkpt><trkpt lat="43.42645870836064" lon="2.9628976312970914"><ele>108.4</ele><time>2026-04-07T12:13:22Z</time></trkpt><trkpt lat="43.426487955128565" lon="2.9627704891561013"><ele>108.60000000000001</ele><time>2026-04-07T12:13:23Z</time></trkpt><trkpt lat="43.426518810449096" lon="2.9626491282326475"><ele>108.80000000000001</ele><time>2026-04-07T12:13:24Z</time></trkpt><trkpt lat="43.42657067049408" lon="2.9625382510105127"><ele>109.0</ele><time>2026-04-07T12:13:25Z</time></trkpt><trkpt lat="43.42666997072712" lon="2.9624503376589257"><ele>108.5</ele><time>2026-04-07T12:13:26Z</time></trkpt><trkpt lat="43.42671853874681" lon="2.962318870719983"><ele>108.0</ele><time>2026-04-07T12:13:27Z</time></trkpt><trkpt lat="43.42671679494037" lon="2.962163277160103"><ele>107.5</ele><time>2026-04-07T12:13:28Z</time></trkpt><trkpt lat="43.42664988691662" lon="2.961990988655272"><ele>107.0</ele><time>2026-04-07T12:13:29Z</time></trkpt><trkpt lat="43.42663175039628" lon="2.961803745058069"><ele>106.75</ele><time>2026-04-07T12:13:30Z</time></trkpt><trkpt lat="43.4266789166128" lon="2.9616130055642254"><ele>106.5</ele><time>2026-04-07T12:13:31Z</time></trkpt><trkpt lat="43.42670359430768" lon="2.9614279467923037"><ele>106.25</ele><time>2026-04-07T12:13:32Z</time></trkpt><trkpt lat="43.42672072669954" lon="2.961242799078907"><ele>106.0</ele><time>2026-04-07T12:13:33Z</time></trkpt><trkpt lat="43.42671426670774" lon="2.961053279423496"><ele>106.0</ele><time>2026-04-07T12:13:34Z</time></trkpt><trkpt lat="43.42671865741744" lon="2.9608691798096602"><ele>106.0</ele><time>2026-04-07T12:13:35Z</time></trkpt><trkpt lat="43.42672832091541" lon="2.9606904253309545"><ele>106.0</ele><time>2026-04-07T12:13:36Z</time></trkpt><trkpt lat="43.42673027159746" lon="2.9604994821224566"><ele>106.0</ele><time>2026-04-07T12:13:37Z</time></trkpt><trkpt lat="43.42671891972412" lon="2.9603144801544063"><ele>106.5</ele><time>2026-04-07T12:13:38Z</time></trkpt><trkpt lat="43.426711765256336" lon="2.960127014715411"><ele>107.0</ele><time>2026-04-07T12:13:39Z</time></trkpt><trkpt lat="43.42670455422356" lon="2.959937695634314"><ele>107.5</ele><time>2026-04-07T12:13:40Z</time></trkpt><trkpt lat="43.42669037424532" lon="2.9597445818078856"><ele>108.0</ele><time>2026-04-07T12:13:41Z</time></trkpt><trkpt lat="43.426670670876035" lon="2.959549735775629"><ele>108.25</ele><time>2026-04-07T12:13:42Z</time></trkpt><trkpt lat="43.42664106483759" lon="2.9593537783912787"><ele>108.5</ele><time>2026-04-07T12:13:43Z</time></trkpt><trkpt lat="43.42661174194386" lon="2.959150390159332"><ele>108.75</ele><time>2026-04-07T12:13:44Z</time></trkpt><trkpt lat="43.42657344952204" lon="2.958949867669848"><ele>109.0</ele><time>2026-04-07T12:13:45Z</time></trkpt><trkpt lat="43.42652717687644" lon="2.9587457249476437"><ele>109.33333333333334</ele><time>2026-04-07T12:13:45.999Z</time></trkpt><trkpt lat="43.42647518337968" lon="2.958536567462703"><ele>109.66666666666666</ele><time>2026-04-07T12:13:46.999Z</time></trkpt><trkpt lat="43.42642074755618" lon="2.958332995369762"><ele>110.0</ele><time>2026-04-07T12:13:47.999Z</time></trkpt><trkpt lat="43.42635564082384" lon="2.958127210038112"><ele>110.0</ele><time>2026-04-07T12:13:48.999Z</time></trkpt><trkpt lat="43.426288493874196" lon="2.957928988780704"><ele>110.0</ele><time>2026-04-07T12:13:49.999Z</time></trkpt><trkpt lat="43.42621955231665" lon="2.9577390667869787"><ele>110.0</ele><time>2026-04-07T12:13:50.999Z</time></trkpt><trkpt lat="43.42615444718899" lon="2.957547965000251"><ele>110.66666666666666</ele><time>2026-04-07T12:13:51.999Z</time></trkpt><trkpt lat="43.42607856253559" lon="2.9573906335801734"><ele>111.33333333333334</ele><time>2026-04-07T12:13:52.999Z</time></trkpt><trkpt lat="43.42599907312752" lon="2.9571828560723707"><ele>112.0</ele><time>2026-04-07T12:13:53.999Z</time></trkpt><trkpt lat="43.42592343471471" lon="2.9570085137776188"><ele>112.0</ele><time>2026-04-07T12:13:54.999Z</time></trkpt><trkpt lat="43.42585234979979" lon="2.956844667083367"><ele>112.0</ele><time>2026-04-07T12:13:55.999Z</time></trkpt><trkpt lat="43.425785003803234" lon="2.9566894383874063"><ele>112.0</ele><time>2026-04-07T12:13:56.999Z</time></trkpt><trkpt lat="43.4257178482161" lon="2.956535382919622"><ele>112.0</ele><time>2026-04-07T12:13:57.999Z</time></trkpt><trkpt lat="43.42563666591478" lon="2.9563904675582053"><ele>112.0</ele><time>2026-04-07T12:13:58.999Z</time></trkpt><trkpt lat="43.42557017806755" lon="2.956233072175835"><ele>112.0</ele><time>2026-04-07T12:13:59.999Z</time></trkpt><trkpt lat="43.425501567493505" lon="2.956077983138191"><ele>112.0</ele><time>2026-04-07T12:14:00.999Z</time></trkpt><trkpt lat="43.42544083554095" lon="2.955930581698335"><ele>112.0</ele><time>2026-04-07T12:14:01.999Z</time></trkpt><trkpt lat="43.42537907261091" lon="2.9557915155420456"><ele>112.5</ele><time>2026-04-07T12:14:02.999Z</time></trkpt><trkpt lat="43.425315471624245" lon="2.955642930448205"><ele>113.0</ele><time>2026-04-07T12:14:03.999Z</time></trkpt><trkpt lat="43.42525752993076" lon="2.9555003708449887"><ele>113.5</ele><time>2026-04-07T12:14:04.999Z</time></trkpt><trkpt lat="43.42520476348728" lon="2.9553518894679986"><ele>114.0</ele><time>2026-04-07T12:14:05.999Z</time></trkpt><trkpt lat="43.4251492641016" lon="2.955204208197093"><ele>114.0</ele><time>2026-04-07T12:14:06.999Z</time></trkpt><trkpt lat="43.42509474632336" lon="2.955055556740165"><ele>114.0</ele><time>2026-04-07T12:14:07.999Z</time></trkpt><trkpt lat="43.42504033910721" lon="2.954902845395076"><ele>114.0</ele><time>2026-04-07T12:14:08.999Z</time></trkpt><trkpt lat="43.424983115249745" lon="2.954750362494008"><ele>114.0</ele><time>2026-04-07T12:14:09.999Z</time></trkpt><trkpt lat="43.42492544731333" lon="2.9545972002712353"><ele>113.75</ele><time>2026-04-07T12:14:10.999Z</time></trkpt><trkpt lat="43.424867523199694" lon="2.9544359773902764"><ele>113.5</ele><time>2026-04-07T12:14:11.999Z</time></trkpt><trkpt lat="43.42481063687909" lon="2.9542806395896686"><ele>113.25</ele><time>2026-04-07T12:14:12.999Z</time></trkpt><trkpt lat="43.42475420659553" lon="2.954117689948983"><ele>113.0</ele><time>2026-04-07T12:14:13.999Z</time></trkpt><trkpt lat="43.42469925971981" lon="2.9539591471584226"><ele>112.75</ele><time>2026-04-07T12:14:14.999Z</time></trkpt><trkpt lat="43.424647177844875" lon="2.9537997949029084"><ele>112.5</ele><time>2026-04-07T12:14:15.999Z</time></trkpt><trkpt lat="43.42458929727165" lon="2.9536427845944955"><ele>112.25</ele><time>2026-04-07T12:14:16.999Z</time></trkpt><trkpt lat="43.42453356942719" lon="2.953494202458625"><ele>112.0</ele><time>2026-04-07T12:14:17.999Z</time></trkpt><trkpt lat="43.4244824477194" lon="2.953340421631807"><ele>113.0</ele><time>2026-04-07T12:14:18.999Z</time></trkpt><trkpt lat="43.424425126575876" lon="2.9531889033276273"><ele>114.0</ele><time>2026-04-07T12:14:19.999Z</time></trkpt><trkpt lat="43.42437004152184" lon="2.953031893919848"><ele>115.0</ele><time>2026-04-07T12:14:20.999Z</time></trkpt><trkpt lat="43.42431581735398" lon="2.9528690125945762"><ele>116.0</ele><time>2026-04-07T12:14:21.999Z</time></trkpt><trkpt lat="43.424263409067834" lon="2.95270208636149"><ele>115.75</ele><time>2026-04-07T12:14:22.999Z</time></trkpt><trkpt lat="43.42421024303997" lon="2.952530535548021"><ele>115.5</ele><time>2026-04-07T12:14:23.999Z</time></trkpt><trkpt lat="43.42417768793548" lon="2.952351494698644"><ele>115.25</ele><time>2026-04-07T12:14:24.999Z</time></trkpt><trkpt lat="43.42413448195186" lon="2.952195509880677"><ele>115.0</ele><time>2026-04-07T12:14:25.999Z</time></trkpt><trkpt lat="43.424093438684096" lon="2.9520444954500262"><ele>115.0</ele><time>2026-04-07T12:14:26.999Z</time></trkpt><trkpt lat="43.42405343279021" lon="2.951889870905915"><ele>115.0</ele><time>2026-04-07T12:14:27.999Z</time></trkpt><trkpt lat="43.42401334294447" lon="2.951725000740724"><ele>115.0</ele><time>2026-04-07T12:14:28.999Z</time></trkpt><trkpt lat="43.42397149575651" lon="2.9515529074156484"><ele>115.0</ele><time>2026-04-07T12:14:29.999Z</time></trkpt><trkpt lat="43.42392917596515" lon="2.9513729411501335"><ele>115.0</ele><time>2026-04-07T12:14:30.999Z</time></trkpt><trkpt lat="43.423889551905354" lon="2.951206004962862"><ele>115.0</ele><time>2026-04-07T12:14:31.999Z</time></trkpt><trkpt lat="43.42384877540825" lon="2.951034213906889"><ele>115.0</ele><time>2026-04-07T12:14:32.998Z</time></trkpt><trkpt lat="43.42380730859467" lon="2.9508595144831524"><ele>115.0</ele><time>2026-04-07T12:14:33.998Z</time></trkpt><trkpt lat="43.42376587047132" lon="2.9506849358443223"><ele>115.75</ele><time>2026-04-07T12:14:34.998Z</time></trkpt><trkpt lat="43.423708798864006" lon="2.950516992273274"><ele>116.5</ele><time>2026-04-07T12:14:35.998Z</time></trkpt><trkpt lat="43.423684607594105" lon="2.9503424945523546"><ele>117.25</ele><time>2026-04-07T12:14:36.998Z</time></trkpt><trkpt lat="43.42364157830172" lon="2.950192539281102"><ele>118.0</ele><time>2026-04-07T12:14:37.998Z</time></trkpt><trkpt lat="43.423602181183895" lon="2.9500492969941847"><ele>118.00000000000001</ele><time>2026-04-07T12:14:38.998Z</time></trkpt><trkpt lat="43.42357816211916" lon="2.949931022960098"><ele>118.0</ele><time>2026-04-07T12:14:39.998Z</time></trkpt><trkpt lat="43.42355618929895" lon="2.949848361848989"><ele>118.0</ele><time>2026-04-07T12:14:40.998Z</time></trkpt><trkpt lat="43.42353370528767" lon="2.9497589351075164"><ele>118.0</ele><time>2026-04-07T12:14:41.998Z</time></trkpt><trkpt lat="43.42350956457913" lon="2.9496612192859657"><ele>118.00000000000001</ele><time>2026-04-07T12:14:42.998Z</time></trkpt><trkpt lat="43.42348380177439" lon="2.9495474432683815"><ele>118.0</ele><time>2026-04-07T12:14:43.998Z</time></trkpt><trkpt lat="43.42344776451916" lon="2.9494556256829396"><ele>118.00000000000001</ele><time>2026-04-07T12:14:44.998Z</time></trkpt><trkpt lat="43.42340685630193" lon="2.949352611231421"><ele>118.0</ele><time>2026-04-07T12:14:45.998Z</time></trkpt><trkpt lat="43.42335495713405" lon="2.9492326899684778"><ele>118.0</ele><time>2026-04-07T12:14:46.998Z</time></trkpt><trkpt lat="43.42331252560285" lon="2.949123782871283"><ele>118.0</ele><time>2026-04-07T12:14:47.998Z</time></trkpt><trkpt lat="43.42326887879861" lon="2.949022527756183"><ele>118.00000000000001</ele><time>2026-04-07T12:14:48.998Z</time></trkpt><trkpt lat="43.423231393270214" lon="2.948913700324206"><ele>118.0</ele><time>2026-04-07T12:14:49.998Z</time></trkpt><trkpt lat="43.42318889153351" lon="2.9488072591893193"><ele>118.0</ele><time>2026-04-07T12:14:50.998Z</time></trkpt><trkpt lat="43.423147216462205" lon="2.9487049366490314"><ele>118.00000000000001</ele><time>2026-04-07T12:14:51.998Z</time></trkpt><trkpt lat="43.42310407055465" lon="2.948593501068868"><ele>118.00000000000001</ele><time>2026-04-07T12:14:52.998Z</time></trkpt><trkpt lat="43.42305806384416" lon="2.9484816204430424"><ele>118.0</ele><time>2026-04-07T12:14:53.998Z</time></trkpt><trkpt lat="43.423016725348646" lon="2.948357750196897"><ele>118.0</ele><time>2026-04-07T12:14:54.998Z</time></trkpt><trkpt lat="43.422969128308" lon="2.9482290500539587"><ele>118.60000000000001</ele><time>2026-04-07T12:14:55.998Z</time></trkpt><trkpt lat="43.42291848198685" lon="2.94811905731701"><ele>119.20000000000002</ele><time>2026-04-07T12:14:56.998Z</time></trkpt><trkpt lat="43.422875979275496" lon="2.948019998583956"><ele>119.8</ele><time>2026-04-07T12:14:57.998Z</time></trkpt><trkpt lat="43.42283571784977" lon="2.947909567473755"><ele>120.4</ele><time>2026-04-07T12:14:58.998Z</time></trkpt><trkpt lat="43.42279900695541" lon="2.9477806478929627"><ele>121.0</ele><time>2026-04-07T12:14:59.998Z</time></trkpt><trkpt lat="43.42275015297866" lon="2.947658696513683"><ele>121.4</ele><time>2026-04-07T12:15:00.998Z</time></trkpt><trkpt lat="43.42270821880538" lon="2.9475310470754224"><ele>121.8</ele><time>2026-04-07T12:15:01.998Z</time></trkpt><trkpt lat="43.422672687239036" lon="2.9473859016553225"><ele>122.20000000000002</ele><time>2026-04-07T12:15:02.998Z</time></trkpt><trkpt lat="43.42263263656425" lon="2.9472478515983567"><ele>122.60000000000001</ele><time>2026-04-07T12:15:03.998Z</time></trkpt><trkpt lat="43.422611498199636" lon="2.9471130586062917"><ele>123.0</ele><time>2026-04-07T12:15:04.998Z</time></trkpt><trkpt lat="43.42258015588628" lon="2.946991979796703"><ele>123.0</ele><time>2026-04-07T12:15:05.998Z</time></trkpt><trkpt lat="43.422550589016744" lon="2.946881799236418"><ele>123.0</ele><time>2026-04-07T12:15:06.998Z</time></trkpt><trkpt lat="43.422517590929054" lon="2.9467761022446135"><ele>123.0</ele><time>2026-04-07T12:15:07.998Z</time></trkpt><trkpt lat="43.42248974467355" lon="2.946687067294469"><ele>123.0</ele><time>2026-04-07T12:15:08.998Z</time></trkpt><trkpt lat="43.422509740116695" lon="2.946580038430574"><ele>123.0</ele><time>2026-04-07T12:15:10.998Z</time></trkpt><trkpt lat="43.42245957834127" lon="2.946506389896745"><ele>123.0</ele><time>2026-04-07T12:15:16Z</time></trkpt><trkpt lat="43.422418677624236" lon="2.9464234126416327"><ele>123.2</ele><time>2026-04-07T12:15:25Z</time></trkpt><trkpt lat="43.422447601095804" lon="2.946322612078066"><ele>123.4</ele><time>2026-04-07T12:15:29Z</time></trkpt><trkpt lat="43.42255483439578" lon="2.9462810056671143"><ele>123.60000000000001</ele><time>2026-04-07T12:15:30Z</time></trkpt><trkpt lat="43.42265061027165" lon="2.946226448173206"><ele>123.80000000000001</ele><time>2026-04-07T12:15:32Z</time></trkpt><trkpt lat="43.422740535071824" lon="2.946173623836"><ele>124.0</ele><time>2026-04-07T12:15:34Z</time></trkpt><trkpt lat="43.42280042207981" lon="2.9461312904524344"><ele>124.0</ele><time>2026-04-07T12:15:35Z</time></trkpt><trkpt lat="43.42286970301941" lon="2.946041783519404"><ele>124.0</ele><time>2026-04-07T12:15:36Z</time></trkpt><trkpt lat="43.422942414180056" lon="2.9459439490658874"><ele>124.0</ele><time>2026-04-07T12:15:37Z</time></trkpt><trkpt lat="43.4229466828322" lon="2.945767364839457"><ele>124.0</ele><time>2026-04-07T12:15:38Z</time></trkpt><trkpt lat="43.42295223040978" lon="2.9456415033065073"><ele>124.0</ele><time>2026-04-07T12:15:39Z</time></trkpt><trkpt lat="43.42295595529406" lon="2.9455153328082586"><ele>124.00000000000001</ele><time>2026-04-07T12:15:40Z</time></trkpt><trkpt lat="43.42296129593744" lon="2.945383722288995"><ele>124.0</ele><time>2026-04-07T12:15:41Z</time></trkpt><trkpt lat="43.42296400455393" lon="2.9452587463003574"><ele>124.0</ele><time>2026-04-07T12:15:42Z</time></trkpt><trkpt lat="43.42296507768292" lon="2.9451264251881533"><ele>124.0</ele><time>2026-04-07T12:15:43Z</time></trkpt><trkpt lat="43.4229696345962" lon="2.9450115849078746"><ele>124.00000000000001</ele><time>2026-04-07T12:15:44Z</time></trkpt><trkpt lat="43.42297298710068" lon="2.9449147331078462"><ele>124.0</ele><time>2026-04-07T12:15:45Z</time></trkpt><trkpt lat="43.42297169045847" lon="2.944820898285423"><ele>124.0</ele><time>2026-04-07T12:15:46Z</time></trkpt><trkpt lat="43.42296514211431" lon="2.944721946541643"><ele>124.0</ele><time>2026-04-07T12:15:47Z</time></trkpt><trkpt lat="43.42295088670817" lon="2.9446106008641513"><ele>124.0</ele><time>2026-04-07T12:15:48Z</time></trkpt><trkpt lat="43.42292421129648" lon="2.9444909999204736"><ele>124.0</ele><time>2026-04-07T12:15:49Z</time></trkpt><trkpt lat="43.42288084398488" lon="2.9443592573621538"><ele>124.0</ele><time>2026-04-07T12:15:50Z</time></trkpt><trkpt lat="43.42285482015681" lon="2.9442222604088504"><ele>124.4</ele><time>2026-04-07T12:15:50.999Z</time></trkpt><trkpt lat="43.422815595296775" lon="2.944093935306631"><ele>124.80000000000001</ele><time>2026-04-07T12:15:51.999Z</time></trkpt><trkpt lat="43.42277257236657" lon="2.943958878621635"><ele>125.19999999999999</ele><time>2026-04-07T12:15:52.999Z</time></trkpt><trkpt lat="43.4227313830931" lon="2.9438088787039884"><ele>125.6</ele><time>2026-04-07T12:15:53.999Z</time></trkpt><trkpt lat="43.422689274876255" lon="2.943669087482605"><ele>126.0</ele><time>2026-04-07T12:15:54.999Z</time></trkpt><trkpt lat="43.42264942830218" lon="2.943528101275389"><ele>126.75</ele><time>2026-04-07T12:15:55.999Z</time></trkpt><trkpt lat="43.422611182034785" lon="2.94337748951552"><ele>127.5</ele><time>2026-04-07T12:15:56.999Z</time></trkpt><trkpt lat="43.42258195493297" lon="2.9432299534572364"><ele>128.25</ele><time>2026-04-07T12:15:57.999Z</time></trkpt><trkpt lat="43.422538392762185" lon="2.9430812673002174"><ele>129.0</ele><time>2026-04-07T12:15:58.999Z</time></trkpt><trkpt lat="43.42249763283059" lon="2.9429144878609117"><ele>129.0</ele><time>2026-04-07T12:15:59.999Z</time></trkpt><trkpt lat="43.42247858303353" lon="2.9427351651708826"><ele>129.0</ele><time>2026-04-07T12:16:00.999Z</time></trkpt><trkpt lat="43.422449911768446" lon="2.9425841051921116"><ele>129.0</ele><time>2026-04-07T12:16:01.999Z</time></trkpt><trkpt lat="43.422420482999435" lon="2.9424182764191005"><ele>129.0</ele><time>2026-04-07T12:16:02.999Z</time></trkpt><trkpt lat="43.422392075074974" lon="2.9422581998978115"><ele>129.5</ele><time>2026-04-07T12:16:03.999Z</time></trkpt><trkpt lat="43.422361796806776" lon="2.9420875851312798"><ele>130.0</ele><time>2026-04-07T12:16:04.999Z</time></trkpt><trkpt lat="43.42233160668456" lon="2.941922185180981"><ele>130.5</ele><time>2026-04-07T12:16:05.999Z</time></trkpt><trkpt lat="43.422301710737145" lon="2.9417589732460856"><ele>131.0</ele><time>2026-04-07T12:16:06.999Z</time></trkpt><trkpt lat="43.422271375122946" lon="2.941597831507138"><ele>132.0</ele><time>2026-04-07T12:16:07.999Z</time></trkpt><trkpt lat="43.42224136082363" lon="2.9414383965969586"><ele>133.0</ele><time>2026-04-07T12:16:08.999Z</time></trkpt><trkpt lat="43.42221288102658" lon="2.9412864400106242"><ele>134.0</ele><time>2026-04-07T12:16:09.999Z</time></trkpt><trkpt lat="43.42218406169199" lon="2.941132542880903"><ele>135.0</ele><time>2026-04-07T12:16:10.999Z</time></trkpt><trkpt lat="43.42214463595792" lon="2.9409711902065503"><ele>136.4</ele><time>2026-04-07T12:16:11.999Z</time></trkpt><trkpt lat="43.4221203546429" lon="2.940828737138703"><ele>137.8</ele><time>2026-04-07T12:16:12.999Z</time></trkpt><trkpt lat="43.422090518426536" lon="2.9406838468697694"><ele>139.2</ele><time>2026-04-07T12:16:13.999Z</time></trkpt><trkpt lat="43.42206480967188" lon="2.9405362975336957"><ele>140.6</ele><time>2026-04-07T12:16:14.999Z</time></trkpt><trkpt lat="43.42203741402875" lon="2.94037876221632"><ele>142.0</ele><time>2026-04-07T12:16:15.999Z</time></trkpt><trkpt lat="43.42200700674986" lon="2.9402121838905617"><ele>142.6</ele><time>2026-04-07T12:16:16.999Z</time></trkpt><trkpt lat="43.421993103615684" lon="2.9400486599733275"><ele>143.2</ele><time>2026-04-07T12:16:17.999Z</time></trkpt><trkpt lat="43.421988035021116" lon="2.9399025379484263"><ele>143.8</ele><time>2026-04-07T12:16:18.999Z</time></trkpt><trkpt lat="43.42199147029687" lon="2.939767262409506"><ele>144.4</ele><time>2026-04-07T12:16:19.999Z</time></trkpt><trkpt lat="43.42201925888923" lon="2.9396313086371872"><ele>145.0</ele><time>2026-04-07T12:16:20.999Z</time></trkpt><trkpt lat="43.42206737973349" lon="2.9395038418319093"><ele>145.0</ele><time>2026-04-07T12:16:21.999Z</time></trkpt><trkpt lat="43.42214662272679" lon="2.9394144517040615"><ele>145.0</ele><time>2026-04-07T12:16:22.999Z</time></trkpt><trkpt lat="43.42220346118721" lon="2.9393109323219657"><ele>145.0</ele><time>2026-04-07T12:16:23.999Z</time></trkpt><trkpt lat="43.42221191658507" lon="2.9391756541657217"><ele>145.0</ele><time>2026-04-07T12:16:24.999Z</time></trkpt><trkpt lat="43.42218245404686" lon="2.9390335919092956"><ele>145.0</ele><time>2026-04-07T12:16:25.999Z</time></trkpt><trkpt lat="43.42211516608843" lon="2.9389269883012137"><ele>145.5</ele><time>2026-04-07T12:16:26.999Z</time></trkpt><trkpt lat="43.422041212607176" lon="2.9388238225167718"><ele>146.0</ele><time>2026-04-07T12:16:27.999Z</time></trkpt><trkpt lat="43.42200528823249" lon="2.9386811560779256"><ele>146.5</ele><time>2026-04-07T12:16:28.999Z</time></trkpt><trkpt lat="43.42200329980296" lon="2.938496162315458"><ele>147.0</ele><time>2026-04-07T12:16:29.999Z</time></trkpt><trkpt lat="43.42201841860684" lon="2.9383081426729394"><ele>147.25</ele><time>2026-04-07T12:16:30.999Z</time></trkpt><trkpt lat="43.422026254771346" lon="2.9381082730051724"><ele>147.5</ele><time>2026-04-07T12:16:31.999Z</time></trkpt><trkpt lat="43.42203141757794" lon="2.9379167291326804"><ele>147.75</ele><time>2026-04-07T12:16:32.999Z</time></trkpt><trkpt lat="43.42203783644032" lon="2.937737914188577"><ele>148.0</ele><time>2026-04-07T12:16:33.999Z</time></trkpt><trkpt lat="43.422050306373585" lon="2.937565023164622"><ele>148.0</ele><time>2026-04-07T12:16:34.999Z</time></trkpt><trkpt lat="43.42205922233908" lon="2.937346685125186"><ele>148.0</ele><time>2026-04-07T12:16:35.999Z</time></trkpt><trkpt lat="43.42207220264631" lon="2.937170201556957"><ele>148.0</ele><time>2026-04-07T12:16:36.998Z</time></trkpt><trkpt lat="43.422078287403316" lon="2.936979484117404"><ele>148.0</ele><time>2026-04-07T12:16:37.998Z</time></trkpt><trkpt lat="43.42210565241379" lon="2.9367952246807527"><ele>148.0</ele><time>2026-04-07T12:16:38.998Z</time></trkpt><trkpt lat="43.42210454086356" lon="2.936601274805228"><ele>148.0</ele><time>2026-04-07T12:16:39.998Z</time></trkpt><trkpt lat="43.42213332544558" lon="2.936401360298133"><ele>148.0</ele><time>2026-04-07T12:16:40.998Z</time></trkpt><trkpt lat="43.42214840817624" lon="2.936196344928318"><ele>148.0</ele><time>2026-04-07T12:16:41.998Z</time></trkpt><trkpt lat="43.422163304348814" lon="2.9359846879284754"><ele>149.33333333333334</ele><time>2026-04-07T12:16:42.998Z</time></trkpt><trkpt lat="43.42217822591057" lon="2.9357718919552647"><ele>150.66666666666666</ele><time>2026-04-07T12:16:43.998Z</time></trkpt><trkpt lat="43.42219399248495" lon="2.935552312003389"><ele>152.0</ele><time>2026-04-07T12:16:44.998Z</time></trkpt><trkpt lat="43.422209579298844" lon="2.9353379151316665"><ele>152.0</ele><time>2026-04-07T12:16:45.998Z</time></trkpt><trkpt lat="43.42222594975905" lon="2.9351097116279106"><ele>152.0</ele><time>2026-04-07T12:16:46.998Z</time></trkpt><trkpt lat="43.4222423082569" lon="2.934881674738433"><ele>152.0</ele><time>2026-04-07T12:16:47.998Z</time></trkpt><trkpt lat="43.42224206572893" lon="2.9346520566810677"><ele>152.66666666666666</ele><time>2026-04-07T12:16:48.998Z</time></trkpt><trkpt lat="43.42227474232962" lon="2.9344295452810516"><ele>153.33333333333334</ele><time>2026-04-07T12:16:49.998Z</time></trkpt><trkpt lat="43.42229072139896" lon="2.9342034108442356"><ele>154.0</ele><time>2026-04-07T12:16:50.998Z</time></trkpt><trkpt lat="43.422305761487905" lon="2.933975188235089"><ele>155.33333333333334</ele><time>2026-04-07T12:16:51.998Z</time></trkpt><trkpt lat="43.42232074257702" lon="2.933747860873911"><ele>156.66666666666666</ele><time>2026-04-07T12:16:52.998Z</time></trkpt><trkpt lat="43.422338664721416" lon="2.9335200517625313"><ele>158.0</ele><time>2026-04-07T12:16:53.998Z</time></trkpt><trkpt lat="43.42235750165232" lon="2.9332982306127846"><ele>158.66666666666666</ele><time>2026-04-07T12:16:54.998Z</time></trkpt><trkpt lat="43.42238097891008" lon="2.9330749545639856"><ele>159.33333333333334</ele><time>2026-04-07T12:16:55.998Z</time></trkpt><trkpt lat="43.42241991089069" lon="2.9328445370317295"><ele>160.0</ele><time>2026-04-07T12:16:56.998Z</time></trkpt><trkpt lat="43.422472530596245" lon="2.9326264720171813"><ele>160.5</ele><time>2026-04-07T12:16:57.998Z</time></trkpt><trkpt lat="43.42253756422535" lon="2.9324165898636183"><ele>161.0</ele><time>2026-04-07T12:16:58.998Z</time></trkpt><trkpt lat="43.42260406968305" lon="2.9322284908018235"><ele>161.5</ele><time>2026-04-07T12:16:59.998Z</time></trkpt><trkpt lat="43.42266989901373" lon="2.9320718414552953"><ele>162.0</ele><time>2026-04-07T12:17:00.998Z</time></trkpt><trkpt lat="43.42272348828549" lon="2.9319242569621067"><ele>162.0</ele><time>2026-04-07T12:17:01.998Z</time></trkpt><trkpt lat="43.422809319356844" lon="2.931807474537945"><ele>162.0</ele><time>2026-04-07T12:17:02.998Z</time></trkpt><trkpt lat="43.4229017406147" lon="2.931710915856966"><ele>162.0</ele><time>2026-04-07T12:17:03.998Z</time></trkpt><trkpt lat="43.42299846880478" lon="2.9316700036925916"><ele>162.0</ele><time>2026-04-07T12:17:04.998Z</time></trkpt><trkpt lat="43.42309533429092" lon="2.9316751753494623"><ele>162.0</ele><time>2026-04-07T12:17:05.998Z</time></trkpt><trkpt lat="43.42317641315946" lon="2.9316477079223953"><ele>162.83333333333334</ele><time>2026-04-07T12:17:06.998Z</time></trkpt><trkpt lat="43.423223607639414" lon="2.931584770851121"><ele>163.66666666666666</ele><time>2026-04-07T12:17:07.998Z</time></trkpt><trkpt lat="43.42324977700891" lon="2.931505787165029"><ele>164.5</ele><time>2026-04-07T12:17:08.998Z</time></trkpt><trkpt lat="43.42325706547048" lon="2.931338047116647"><ele>165.33333333333331</ele><time>2026-04-07T12:17:10.998Z</time></trkpt><trkpt lat="43.42324194041224" lon="2.9311852378693897"><ele>166.16666666666666</ele><time>2026-04-07T12:17:12.998Z</time></trkpt><trkpt lat="43.423247914563255" lon="2.9310948551168994"><ele>167.0</ele><time>2026-04-07T12:17:13.998Z</time></trkpt><trkpt lat="43.42326901657436" lon="2.9309973962906133"><ele>167.0</ele><time>2026-04-07T12:17:14.998Z</time></trkpt><trkpt lat="43.42329992917006" lon="2.9309021385916787"><ele>167.0</ele><time>2026-04-07T12:17:15.998Z</time></trkpt><trkpt lat="43.42336534976465" lon="2.930793391676601"><ele>167.0</ele><time>2026-04-07T12:17:16.998Z</time></trkpt><trkpt lat="43.42344266713029" lon="2.930680854051732"><ele>167.0</ele><time>2026-04-07T12:17:17.998Z</time></trkpt><trkpt lat="43.423537343117765" lon="2.9305495431411854"><ele>167.0</ele><time>2026-04-07T12:17:19Z</time></trkpt><trkpt lat="43.42362699820139" lon="2.930426923805922"><ele>167.2</ele><time>2026-04-07T12:17:20Z</time></trkpt><trkpt lat="43.423707464205094" lon="2.930317428969657"><ele>167.39999999999998</ele><time>2026-04-07T12:17:21Z</time></trkpt><trkpt lat="43.42377509018782" lon="2.930215811162674"><ele>167.60000000000002</ele><time>2026-04-07T12:17:22Z</time></trkpt><trkpt lat="43.42384005462054" lon="2.93011609288316"><ele>167.8</ele><time>2026-04-07T12:17:23Z</time></trkpt><trkpt lat="43.423904125637584" lon="2.930027981526739"><ele>168.0</ele><time>2026-04-07T12:17:24Z</time></trkpt><trkpt lat="43.42397182188766" lon="2.92993023046296"><ele>168.0</ele><time>2026-04-07T12:17:25Z</time></trkpt><trkpt lat="43.42404608513926" lon="2.9298296095230953"><ele>168.0</ele><time>2026-04-07T12:17:26Z</time></trkpt><trkpt lat="43.42412009114308" lon="2.9297249692302785"><ele>168.0</ele><time>2026-04-07T12:17:27Z</time></trkpt><trkpt lat="43.424193917427864" lon="2.929612750494908"><ele>168.0</ele><time>2026-04-07T12:17:28Z</time></trkpt><trkpt lat="43.42427322446357" lon="2.9294964407582675"><ele>168.0</ele><time>2026-04-07T12:17:29Z</time></trkpt><trkpt lat="43.42436520232976" lon="2.9293742298316494"><ele>168.0</ele><time>2026-04-07T12:17:30Z</time></trkpt><trkpt lat="43.42446391594446" lon="2.929238140556232"><ele>168.0</ele><time>2026-04-07T12:17:31Z</time></trkpt><trkpt lat="43.42456590762261" lon="2.9290960330256204"><ele>168.0</ele><time>2026-04-07T12:17:32Z</time></trkpt><trkpt lat="43.424671451255094" lon="2.9289466874886774"><ele>168.0</ele><time>2026-04-07T12:17:33Z</time></trkpt><trkpt lat="43.4247733897189" lon="2.9288021500377273"><ele>168.0</ele><time>2026-04-07T12:17:34Z</time></trkpt><trkpt lat="43.42487533508567" lon="2.9286562378387284"><ele>168.0</ele><time>2026-04-07T12:17:35Z</time></trkpt><trkpt lat="43.42498112281376" lon="2.928506411194084"><ele>168.0</ele><time>2026-04-07T12:17:36Z</time></trkpt><trkpt lat="43.42508388326618" lon="2.928364165521217"><ele>168.0</ele><time>2026-04-07T12:17:37Z</time></trkpt><trkpt lat="43.42518968565298" lon="2.9282191644147395"><ele>168.0</ele><time>2026-04-07T12:17:38Z</time></trkpt><trkpt lat="43.425296620306106" lon="2.928068551062687"><ele>168.0</ele><time>2026-04-07T12:17:39Z</time></trkpt><trkpt lat="43.425406208767576" lon="2.9279123180813453"><ele>168.0</ele><time>2026-04-07T12:17:40Z</time></trkpt><trkpt lat="43.42552592492429" lon="2.927752819024063"><ele>167.33333333333334</ele><time>2026-04-07T12:17:41Z</time></trkpt><trkpt lat="43.425638164474144" lon="2.9275916568647866"><ele>166.66666666666669</ele><time>2026-04-07T12:17:42Z</time></trkpt><trkpt lat="43.42574959098004" lon="2.9274298231467535"><ele>166.0</ele><time>2026-04-07T12:17:43Z</time></trkpt><trkpt lat="43.42586540472118" lon="2.9272676165596803"><ele>166.0</ele><time>2026-04-07T12:17:44Z</time></trkpt><trkpt lat="43.425978147898746" lon="2.92710203422837"><ele>166.0</ele><time>2026-04-07T12:17:45Z</time></trkpt><trkpt lat="43.42609750025742" lon="2.9269340543277784"><ele>166.0</ele><time>2026-04-07T12:17:46Z</time></trkpt><trkpt lat="43.42621746552027" lon="2.926769801766052"><ele>166.33333333333334</ele><time>2026-04-07T12:17:47Z</time></trkpt><trkpt lat="43.426339975665854" lon="2.9266052658827584"><ele>166.66666666666666</ele><time>2026-04-07T12:17:48Z</time></trkpt><trkpt lat="43.42646101202709" lon="2.9264374610865027"><ele>167.0</ele><time>2026-04-07T12:17:49Z</time></trkpt><trkpt lat="43.42658104881879" lon="2.9262715868790985"><ele>167.0</ele><time>2026-04-07T12:17:50Z</time></trkpt><trkpt lat="43.426702797096" lon="2.9261040977585147"><ele>167.0</ele><time>2026-04-07T12:17:51Z</time></trkpt><trkpt lat="43.42682687522016" lon="2.9259417527375873"><ele>167.0</ele><time>2026-04-07T12:17:52Z</time></trkpt><trkpt lat="43.42695518332357" lon="2.925766915256577"><ele>168.66666666666666</ele><time>2026-04-07T12:17:53Z</time></trkpt><trkpt lat="43.42707736227542" lon="2.925599708273806"><ele>170.33333333333334</ele><time>2026-04-07T12:17:54Z</time></trkpt><trkpt lat="43.42719992387677" lon="2.9254313018453284"><ele>172.0</ele><time>2026-04-07T12:17:54.999Z</time></trkpt><trkpt lat="43.42731851125629" lon="2.9252653670006823"><ele>173.66666666666669</ele><time>2026-04-07T12:17:55.999Z</time></trkpt><trkpt lat="43.427442515931354" lon="2.9251000374142375"><ele>175.33333333333334</ele><time>2026-04-07T12:17:56.999Z</time></trkpt><trkpt lat="43.4275678877867" lon="2.924938508721709"><ele>177.0</ele><time>2026-04-07T12:17:57.999Z</time></trkpt><trkpt lat="43.42769629529946" lon="2.92477934847751"><ele>177.0</ele><time>2026-04-07T12:17:58.999Z</time></trkpt><trkpt lat="43.427825736650234" lon="2.9246267991163237"><ele>177.0</ele><time>2026-04-07T12:17:59.999Z</time></trkpt><trkpt lat="43.4279611082015" lon="2.924479536249246"><ele>177.0</ele><time>2026-04-07T12:18:00.999Z</time></trkpt><trkpt lat="43.42809619221624" lon="2.92433308509168"><ele>178.66666666666666</ele><time>2026-04-07T12:18:01.999Z</time></trkpt><trkpt lat="43.42823443271354" lon="2.9241929157471773"><ele>180.33333333333331</ele><time>2026-04-07T12:18:02.999Z</time></trkpt><trkpt lat="43.42837369818115" lon="2.924059403485723"><ele>182.0</ele><time>2026-04-07T12:18:03.999Z</time></trkpt><trkpt lat="43.42851746493776" lon="2.9239327407051525"><ele>182.0</ele><time>2026-04-07T12:18:04.999Z</time></trkpt><trkpt lat="43.428661868360685" lon="2.923812287335558"><ele>182.0</ele><time>2026-04-07T12:18:05.999Z</time></trkpt><trkpt lat="43.42880834092265" lon="2.9236968674438075"><ele>182.0</ele><time>2026-04-07T12:18:06.999Z</time></trkpt><trkpt lat="43.4289571694993" lon="2.9235881197700104"><ele>181.33333333333331</ele><time>2026-04-07T12:18:07.999Z</time></trkpt><trkpt lat="43.42910578030743" lon="2.923482327403673"><ele>180.66666666666666</ele><time>2026-04-07T12:18:08.999Z</time></trkpt><trkpt lat="43.42926108760702" lon="2.9233858370113417"><ele>180.0</ele><time>2026-04-07T12:18:09.999Z</time></trkpt><trkpt lat="43.42941486672554" lon="2.9232912876132775"><ele>180.0</ele><time>2026-04-07T12:18:10.999Z</time></trkpt><trkpt lat="43.42956201391946" lon="2.923205796430482"><ele>180.0</ele><time>2026-04-07T12:18:11.999Z</time></trkpt><trkpt lat="43.42972322091011" lon="2.923119378904162"><ele>180.0</ele><time>2026-04-07T12:18:12.999Z</time></trkpt><trkpt lat="43.4298802595237" lon="2.9230457560847634"><ele>182.33333333333334</ele><time>2026-04-07T12:18:13.999Z</time></trkpt><trkpt lat="43.43003778644445" lon="2.9229759193753844"><ele>184.66666666666669</ele><time>2026-04-07T12:18:14.999Z</time></trkpt><trkpt lat="43.430187685126256" lon="2.9229176795132648"><ele>187.0</ele><time>2026-04-07T12:18:15.999Z</time></trkpt><trkpt lat="43.4303536823021" lon="2.9228605868716553"><ele>190.66666666666669</ele><time>2026-04-07T12:18:16.999Z</time></trkpt><trkpt lat="43.43051679781966" lon="2.9228115491852877"><ele>194.33333333333334</ele><time>2026-04-07T12:18:17.999Z</time></trkpt><trkpt lat="43.43067875475711" lon="2.9227676910216953"><ele>198.0</ele><time>2026-04-07T12:18:18.999Z</time></trkpt><trkpt lat="43.43084069688123" lon="2.922728161352705"><ele>198.0</ele><time>2026-04-07T12:18:19.999Z</time></trkpt><trkpt lat="43.431001508381364" lon="2.9226879039955556"><ele>198.0</ele><time>2026-04-07T12:18:20.999Z</time></trkpt><trkpt lat="43.43116381792628" lon="2.9226550674084115"><ele>198.0</ele><time>2026-04-07T12:18:21.999Z</time></trkpt><trkpt lat="43.43132862580558" lon="2.922624291501799"><ele>198.33333333333331</ele><time>2026-04-07T12:18:22.999Z</time></trkpt><trkpt lat="43.431490751714996" lon="2.9225947072062937"><ele>198.66666666666666</ele><time>2026-04-07T12:18:23.999Z</time></trkpt><trkpt lat="43.431657259297964" lon="2.9225586122433307"><ele>199.0</ele><time>2026-04-07T12:18:24.999Z</time></trkpt><trkpt lat="43.43181768553653" lon="2.922527689542502"><ele>199.0</ele><time>2026-04-07T12:18:25.999Z</time></trkpt><trkpt lat="43.431977971486695" lon="2.922505445518168"><ele>199.0</ele><time>2026-04-07T12:18:26.999Z</time></trkpt><trkpt lat="43.43214198085903" lon="2.9224718412753647"><ele>199.0</ele><time>2026-04-07T12:18:27.999Z</time></trkpt><trkpt lat="43.43230510672104" lon="2.9224408155487414"><ele>196.33333333333331</ele><time>2026-04-07T12:18:28.999Z</time></trkpt><trkpt lat="43.432468347408765" lon="2.9224114643763053"><ele>193.66666666666666</ele><time>2026-04-07T12:18:29.999Z</time></trkpt><trkpt lat="43.43263402738115" lon="2.922378346896064"><ele>191.0</ele><time>2026-04-07T12:18:30.999Z</time></trkpt><trkpt lat="43.43279839027758" lon="2.922339819921794"><ele>191.0</ele><time>2026-04-07T12:18:31.999Z</time></trkpt><trkpt lat="43.432960653996496" lon="2.922302403958421"><ele>191.0</ele><time>2026-04-07T12:18:32.999Z</time></trkpt><trkpt lat="43.43312508825892" lon="2.9222567706074773"><ele>191.0</ele><time>2026-04-07T12:18:33.999Z</time></trkpt><trkpt lat="43.43328820181512" lon="2.922203975714573"><ele>189.66666666666666</ele><time>2026-04-07T12:18:34.999Z</time></trkpt><trkpt lat="43.43345103868973" lon="2.922149618655106"><ele>188.33333333333334</ele><time>2026-04-07T12:18:35.999Z</time></trkpt><trkpt lat="43.43361302581155" lon="2.9220903745834956"><ele>187.0</ele><time>2026-04-07T12:18:36.999Z</time></trkpt><trkpt lat="43.433780368495164" lon="2.9220333941550822"><ele>190.66666666666669</ele><time>2026-04-07T12:18:37.999Z</time></trkpt><trkpt lat="43.43394516664254" lon="2.9219740174170803"><ele>194.33333333333334</ele><time>2026-04-07T12:18:38.999Z</time></trkpt><trkpt lat="43.434112490158114" lon="2.921914392403976"><ele>198.0</ele><time>2026-04-07T12:18:39.999Z</time></trkpt><trkpt lat="43.43428097011038" lon="2.9218501749202064"><ele>198.0</ele><time>2026-04-07T12:18:40.998Z</time></trkpt><trkpt lat="43.434450087877764" lon="2.9217853680301302"><ele>198.0</ele><time>2026-04-07T12:18:41.998Z</time></trkpt><trkpt lat="43.43461886714205" lon="2.9217192413883475"><ele>198.0</ele><time>2026-04-07T12:18:42.998Z</time></trkpt><trkpt lat="43.434788432786384" lon="2.921659492012879"><ele>199.33333333333331</ele><time>2026-04-07T12:18:43.998Z</time></trkpt><trkpt lat="43.4349558068264" lon="2.9215966355638052"><ele>200.66666666666666</ele><time>2026-04-07T12:18:44.998Z</time></trkpt><trkpt lat="43.435127717924814" lon="2.9215391732520124"><ele>202.0</ele><time>2026-04-07T12:18:45.998Z</time></trkpt><trkpt lat="43.43529980326129" lon="2.9214789560195285"><ele>201.33333333333331</ele><time>2026-04-07T12:18:46.998Z</time></trkpt><trkpt lat="43.43547102725979" lon="2.921421219061424"><ele>200.66666666666669</ele><time>2026-04-07T12:18:47.998Z</time></trkpt><trkpt lat="43.43564311375087" lon="2.9213614207788883"><ele>200.0</ele><time>2026-04-07T12:18:48.998Z</time></trkpt><trkpt lat="43.435813022429755" lon="2.9213028540411776"><ele>200.0</ele><time>2026-04-07T12:18:49.998Z</time></trkpt><trkpt lat="43.435982638419496" lon="2.921244471835481"><ele>200.0</ele><time>2026-04-07T12:18:50.998Z</time></trkpt><trkpt lat="43.43615091414541" lon="2.921185132528167"><ele>200.0</ele><time>2026-04-07T12:18:51.998Z</time></trkpt><trkpt lat="43.43631684249664" lon="2.9211116738769833"><ele>198.66666666666669</ele><time>2026-04-07T12:18:52.998Z</time></trkpt><trkpt lat="43.436486137442365" lon="2.9210267394669995"><ele>197.33333333333331</ele><time>2026-04-07T12:18:53.998Z</time></trkpt><trkpt lat="43.436644083600804" lon="2.9209288232170008"><ele>196.0</ele><time>2026-04-07T12:18:54.998Z</time></trkpt><trkpt lat="43.43679963520306" lon="2.9208267824899354"><ele>196.0</ele><time>2026-04-07T12:18:55.998Z</time></trkpt><trkpt lat="43.436950940924966" lon="2.920701071325131"><ele>196.0</ele><time>2026-04-07T12:18:56.998Z</time></trkpt><trkpt lat="43.437088506568806" lon="2.9205539789152044"><ele>196.0</ele><time>2026-04-07T12:18:57.998Z</time></trkpt><trkpt lat="43.43721965365759" lon="2.9203914771025326"><ele>197.33333333333331</ele><time>2026-04-07T12:18:58.998Z</time></trkpt><trkpt lat="43.43734282272739" lon="2.9202180122303694"><ele>198.66666666666669</ele><time>2026-04-07T12:18:59.998Z</time></trkpt><trkpt lat="43.437474309353995" lon="2.9200623300295803"><ele>200.0</ele><time>2026-04-07T12:19:00.998Z</time></trkpt><trkpt lat="43.43759430243434" lon="2.9198906002595013"><ele>200.0</ele><time>2026-04-07T12:19:01.998Z</time></trkpt><trkpt lat="43.437714050924" lon="2.9197174912383543"><ele>200.0</ele><time>2026-04-07T12:19:02.998Z</time></trkpt><trkpt lat="43.437831842826256" lon="2.9195472107131226"><ele>200.0</ele><time>2026-04-07T12:19:03.998Z</time></trkpt><trkpt lat="43.43795147700696" lon="2.9193759163747597"><ele>201.66666666666669</ele><time>2026-04-07T12:19:04.998Z</time></trkpt><trkpt lat="43.438069907878116" lon="2.9192070855039693"><ele>203.33333333333331</ele><time>2026-04-07T12:19:05.998Z</time></trkpt><trkpt lat="43.43818683864346" lon="2.9190369457105403"><ele>205.0</ele><time>2026-04-07T12:19:06.998Z</time></trkpt><trkpt lat="43.438308270772765" lon="2.918862361428216"><ele>205.0</ele><time>2026-04-07T12:19:07.998Z</time></trkpt><trkpt lat="43.438411422192246" lon="2.918683336757745"><ele>205.0</ele><time>2026-04-07T12:19:08.998Z</time></trkpt><trkpt lat="43.43853990605566" lon="2.918528520518265"><ele>205.0</ele><time>2026-04-07T12:19:09.998Z</time></trkpt><trkpt lat="43.438654321312285" lon="2.9183635293794805"><ele>202.66666666666666</ele><time>2026-04-07T12:19:10.998Z</time></trkpt><trkpt lat="43.43876409972982" lon="2.918204532417315"><ele>200.33333333333331</ele><time>2026-04-07T12:19:11.998Z</time></trkpt><trkpt lat="43.43887774398519" lon="2.918029816176335"><ele>198.0</ele><time>2026-04-07T12:19:12.998Z</time></trkpt><trkpt lat="43.43896414843924" lon="2.917835431121832"><ele>202.66666666666669</ele><time>2026-04-07T12:19:13.998Z</time></trkpt><trkpt lat="43.43907698428308" lon="2.9176744584132033"><ele>207.33333333333334</ele><time>2026-04-07T12:19:14.998Z</time></trkpt><trkpt lat="43.43919092090395" lon="2.9175075206389587"><ele>212.0</ele><time>2026-04-07T12:19:15.998Z</time></trkpt><trkpt lat="43.439315724832305" lon="2.917341445263152"><ele>212.0</ele><time>2026-04-07T12:19:16.998Z</time></trkpt><trkpt lat="43.4394140359987" lon="2.9171677889439223"><ele>212.0</ele><time>2026-04-07T12:19:17.998Z</time></trkpt><trkpt lat="43.439518757672765" lon="2.917000077142552"><ele>212.0</ele><time>2026-04-07T12:19:18.998Z</time></trkpt><trkpt lat="43.43962899874984" lon="2.9168500085249915"><ele>213.66666666666669</ele><time>2026-04-07T12:19:19.998Z</time></trkpt><trkpt lat="43.43976944114078" lon="2.916720281410482"><ele>215.33333333333331</ele><time>2026-04-07T12:19:20.998Z</time></trkpt><trkpt lat="43.43991434964147" lon="2.916620084071526"><ele>217.0</ele><time>2026-04-07T12:19:21.998Z</time></trkpt><trkpt lat="43.4400686897077" lon="2.9165524269529217"><ele>217.0</ele><time>2026-04-07T12:19:22.998Z</time></trkpt><trkpt lat="43.440229099652555" lon="2.916537901675639"><ele>217.0</ele><time>2026-04-07T12:19:23.998Z</time></trkpt><trkpt lat="43.4403886823293" lon="2.916565605746039"><ele>217.0</ele><time>2026-04-07T12:19:25Z</time></trkpt><trkpt lat="43.44053622963659" lon="2.916621412138585"><ele>217.0</ele><time>2026-04-07T12:19:26Z</time></trkpt><trkpt lat="43.44068342906305" lon="2.9166746552186735"><ele>217.0</ele><time>2026-04-07T12:19:27Z</time></trkpt><trkpt lat="43.44083808969868" lon="2.916722152766386"><ele>217.0</ele><time>2026-04-07T12:19:28Z</time></trkpt><trkpt lat="43.44099147155119" lon="2.916772872508203"><ele>225.66666666666666</ele><time>2026-04-07T12:19:29Z</time></trkpt><trkpt lat="43.44113719167236" lon="2.916824205898084"><ele>234.33333333333331</ele><time>2026-04-07T12:19:30Z</time></trkpt><trkpt lat="43.44128577578135" lon="2.916872032417246"><ele>243.0</ele><time>2026-04-07T12:19:31Z</time></trkpt><trkpt lat="43.44143155532695" lon="2.916920820121191"><ele>243.0</ele><time>2026-04-07T12:19:32Z</time></trkpt><trkpt lat="43.44156590992213" lon="2.916970909433779"><ele>243.0</ele><time>2026-04-07T12:19:33Z</time></trkpt><trkpt lat="43.441699613423225" lon="2.917013321831522"><ele>243.0</ele><time>2026-04-07T12:19:34Z</time></trkpt><trkpt lat="43.44183597377773" lon="2.9170101389010203"><ele>243.0</ele><time>2026-04-07T12:19:35Z</time></trkpt><trkpt lat="43.44200776402514" lon="2.9169613421365947"><ele>244.25</ele><time>2026-04-07T12:19:36Z</time></trkpt><trkpt lat="43.44215551942095" lon="2.916901228847723"><ele>245.5</ele><time>2026-04-07T12:19:37Z</time></trkpt><trkpt lat="43.442292971024735" lon="2.916840753659255"><ele>246.75</ele><time>2026-04-07T12:19:38Z</time></trkpt><trkpt lat="43.44243534554053" lon="2.9167895289750483"><ele>248.0</ele><time>2026-04-07T12:19:39Z</time></trkpt><trkpt lat="43.44257483493823" lon="2.9167416130898776"><ele>246.0</ele><time>2026-04-07T12:19:40Z</time></trkpt><trkpt lat="43.442714183740335" lon="2.9166881442933517"><ele>244.0</ele><time>2026-04-07T12:19:41Z</time></trkpt><trkpt lat="43.44285232481297" lon="2.91662921294987"><ele>242.0</ele><time>2026-04-07T12:19:42Z</time></trkpt><trkpt lat="43.44298859578322" lon="2.916571474638158"><ele>240.0</ele><time>2026-04-07T12:19:43Z</time></trkpt><trkpt lat="43.44312493089202" lon="2.916510026423156"><ele>240.0</ele><time>2026-04-07T12:19:44Z</time></trkpt><trkpt lat="43.443257547635554" lon="2.9164345892071464"><ele>240.0</ele><time>2026-04-07T12:19:45Z</time></trkpt><trkpt lat="43.44337416590104" lon="2.9163350339944634"><ele>240.0</ele><time>2026-04-07T12:19:46Z</time></trkpt><trkpt lat="43.443481695399775" lon="2.9162088187788857"><ele>240.0</ele><time>2026-04-07T12:19:47Z</time></trkpt><trkpt lat="43.44356800251445" lon="2.9160376329329565"><ele>243.5</ele><time>2026-04-07T12:19:48Z</time></trkpt><trkpt lat="43.44363671006084" lon="2.915858670258261"><ele>247.0</ele><time>2026-04-07T12:19:49Z</time></trkpt><trkpt lat="43.443693702447035" lon="2.9156966708214602"><ele>250.5</ele><time>2026-04-07T12:19:50Z</time></trkpt><trkpt lat="43.44375468259977" lon="2.9155437783085962"><ele>254.0</ele><time>2026-04-07T12:19:51Z</time></trkpt><trkpt lat="43.443821744989656" lon="2.915393328499499"><ele>254.0</ele><time>2026-04-07T12:19:52Z</time></trkpt><trkpt lat="43.44389098175544" lon="2.915241901795579"><ele>254.0</ele><time>2026-04-07T12:19:53Z</time></trkpt><trkpt lat="43.443961921209215" lon="2.915084558804104"><ele>254.0</ele><time>2026-04-07T12:19:54Z</time></trkpt><trkpt lat="43.44403609621767" lon="2.914939879768525"><ele>254.0</ele><time>2026-04-07T12:19:55Z</time></trkpt><trkpt lat="43.44412798270209" lon="2.914815430665909"><ele>249.66666666666669</ele><time>2026-04-07T12:19:56Z</time></trkpt><trkpt lat="43.44424638999593" lon="2.914731254057745"><ele>245.33333333333331</ele><time>2026-04-07T12:19:57Z</time></trkpt><trkpt lat="43.44438029241996" lon="2.914664079140344"><ele>241.0</ele><time>2026-04-07T12:19:58Z</time></trkpt><trkpt lat="43.444555298449444" lon="2.9146277521639905"><ele>244.25</ele><time>2026-04-07T12:19:59Z</time></trkpt><trkpt lat="43.44473851915067" lon="2.91459169850487"><ele>247.5</ele><time>2026-04-07T12:20:00Z</time></trkpt><trkpt lat="43.44487572311904" lon="2.914664328874937"><ele>250.75</ele><time>2026-04-07T12:20:00.999Z</time></trkpt><trkpt lat="43.44497694798893" lon="2.914654850217933"><ele>254.0</ele><time>2026-04-07T12:20:01.999Z</time></trkpt><trkpt lat="43.445063614222825" lon="2.9145650491959922"><ele>254.0</ele><time>2026-04-07T12:20:02.999Z</time></trkpt><trkpt lat="43.44517074424356" lon="2.9145437982400786"><ele>254.0</ele><time>2026-04-07T12:20:03.999Z</time></trkpt><trkpt lat="43.44526785857145" lon="2.914572987099601"><ele>254.0</ele><time>2026-04-07T12:20:04.999Z</time></trkpt><trkpt lat="43.445390315448726" lon="2.914637773158243"><ele>254.0</ele><time>2026-04-07T12:20:05.999Z</time></trkpt><trkpt lat="43.44553442790941" lon="2.9147249468218934"><ele>254.25</ele><time>2026-04-07T12:20:06.999Z</time></trkpt><trkpt lat="43.44565050386896" lon="2.91484737278112"><ele>254.5</ele><time>2026-04-07T12:20:07.999Z</time></trkpt><trkpt lat="43.44577384040275" lon="2.914906160186631"><ele>254.75</ele><time>2026-04-07T12:20:08.999Z</time></trkpt><trkpt lat="43.445919833870875" lon="2.9149488561037074"><ele>255.0</ele><time>2026-04-07T12:20:09.999Z</time></trkpt><trkpt lat="43.446061856802906" lon="2.9149128447656656"><ele>255.0</ele><time>2026-04-07T12:20:10.999Z</time></trkpt><trkpt lat="43.446193202661235" lon="2.9148800277655056"><ele>255.0</ele><time>2026-04-07T12:20:11.999Z</time></trkpt><trkpt lat="43.44631582896678" lon="2.914803948443641"><ele>255.0</ele><time>2026-04-07T12:20:12.999Z</time></trkpt><trkpt lat="43.4464377882321" lon="2.914725919937564"><ele>255.0</ele><time>2026-04-07T12:20:13.999Z</time></trkpt><trkpt lat="43.44657059015717" lon="2.914660029040173"><ele>256.75</ele><time>2026-04-07T12:20:14.999Z</time></trkpt><trkpt lat="43.44669349923635" lon="2.9146022515598804"><ele>258.5</ele><time>2026-04-07T12:20:15.999Z</time></trkpt><trkpt lat="43.44682827582972" lon="2.914560999646231"><ele>260.25</ele><time>2026-04-07T12:20:16.999Z</time></trkpt><trkpt lat="43.446968371258514" lon="2.91454224804485"><ele>262.0</ele><time>2026-04-07T12:20:17.999Z</time></trkpt><trkpt lat="43.44711133948485" lon="2.9145110087928954"><ele>264.0</ele><time>2026-04-07T12:20:18.999Z</time></trkpt><trkpt lat="43.44724933311925" lon="2.9145139784018688"><ele>266.0</ele><time>2026-04-07T12:20:19.999Z</time></trkpt><trkpt lat="43.44738957595249" lon="2.9145149829326766"><ele>268.0</ele><time>2026-04-07T12:20:20.999Z</time></trkpt><trkpt lat="43.44750432688067" lon="2.9144895076703103"><ele>270.0</ele><time>2026-04-07T12:20:21.999Z</time></trkpt><trkpt lat="43.447634992092716" lon="2.914485412994034"><ele>270.0</ele><time>2026-04-07T12:20:22.999Z</time></trkpt><trkpt lat="43.44776772998759" lon="2.914484275198263"><ele>270.0</ele><time>2026-04-07T12:20:23.999Z</time></trkpt><trkpt lat="43.44789794744496" lon="2.91447279603202"><ele>270.0</ele><time>2026-04-07T12:20:24.999Z</time></trkpt><trkpt lat="43.44802252596415" lon="2.914467867162001"><ele>270.0</ele><time>2026-04-07T12:20:25.999Z</time></trkpt><trkpt lat="43.4481547048725" lon="2.914450322837343"><ele>270.75</ele><time>2026-04-07T12:20:26.999Z</time></trkpt><trkpt lat="43.44828631675711" lon="2.9144254269648218"><ele>271.5</ele><time>2026-04-07T12:20:27.999Z</time></trkpt><trkpt lat="43.44841394461676" lon="2.9143808790617585"><ele>272.25</ele><time>2026-04-07T12:20:28.999Z</time></trkpt><trkpt lat="43.44853623723838" lon="2.914307936198122"><ele>273.0</ele><time>2026-04-07T12:20:29.999Z</time></trkpt><trkpt lat="43.44864902245801" lon="2.914201573023062"><ele>275.5</ele><time>2026-04-07T12:20:30.999Z</time></trkpt><trkpt lat="43.44874619968306" lon="2.914062685771535"><ele>278.0</ele><time>2026-04-07T12:20:31.999Z</time></trkpt><trkpt lat="43.448816746337634" lon="2.9138976962143595"><ele>280.5</ele><time>2026-04-07T12:20:32.999Z</time></trkpt><trkpt lat="43.44887758721062" lon="2.9137241180392572"><ele>283.0</ele><time>2026-04-07T12:20:33.999Z</time></trkpt><trkpt lat="43.44895157471815" lon="2.913548750038207"><ele>279.25</ele><time>2026-04-07T12:20:34.999Z</time></trkpt><trkpt lat="43.4490306753177" lon="2.9133781258619105"><ele>275.5</ele><time>2026-04-07T12:20:35.999Z</time></trkpt><trkpt lat="43.44911984325321" lon="2.9132174446734695"><ele>271.75</ele><time>2026-04-07T12:20:36.999Z</time></trkpt><trkpt lat="43.449228726890574" lon="2.9130790382015843"><ele>268.0</ele><time>2026-04-07T12:20:37.999Z</time></trkpt><trkpt lat="43.44933480386828" lon="2.9129392313840903"><ele>268.0</ele><time>2026-04-07T12:20:38.999Z</time></trkpt><trkpt lat="43.449448911072395" lon="2.9128071506136086"><ele>268.0</ele><time>2026-04-07T12:20:39.999Z</time></trkpt><trkpt lat="43.44956935764947" lon="2.9126860582988705"><ele>268.0</ele><time>2026-04-07T12:20:40.999Z</time></trkpt><trkpt lat="43.449692106791" lon="2.912569584158554"><ele>268.0</ele><time>2026-04-07T12:20:41.999Z</time></trkpt><trkpt lat="43.449807798473" lon="2.912435589397965"><ele>271.66666666666663</ele><time>2026-04-07T12:20:42.999Z</time></trkpt><trkpt lat="43.449932834968116" lon="2.912318356321765"><ele>275.3333333333333</ele><time>2026-04-07T12:20:43.999Z</time></trkpt><trkpt lat="43.4500510490362" lon="2.912189448810872"><ele>279.0</ele><time>2026-04-07T12:20:44.999Z</time></trkpt><trkpt lat="43.45016357044972" lon="2.912057724467559"><ele>279.0</ele><time>2026-04-07T12:20:45.999Z</time></trkpt><trkpt lat="43.45027327291039" lon="2.9119255939347397"><ele>279.0</ele><time>2026-04-07T12:20:46.999Z</time></trkpt><trkpt lat="43.4503896881541" lon="2.911789588805704"><ele>279.0</ele><time>2026-04-07T12:20:47.998Z</time></trkpt><trkpt lat="43.45049307966604" lon="2.911648228664316"><ele>279.0</ele><time>2026-04-07T12:20:48.998Z</time></trkpt><trkpt lat="43.450586041227794" lon="2.911487037575191"><ele>281.0</ele><time>2026-04-07T12:20:49.998Z</time></trkpt><trkpt lat="43.45064609558609" lon="2.9112970736931647"><ele>283.0</ele><time>2026-04-07T12:20:50.998Z</time></trkpt><trkpt lat="43.45067768418568" lon="2.911091443178097"><ele>285.0</ele><time>2026-04-07T12:20:51.998Z</time></trkpt><trkpt lat="43.45068730065766" lon="2.910883179025637"><ele>285.0</ele><time>2026-04-07T12:20:52.998Z</time></trkpt><trkpt lat="43.450701472337755" lon="2.910678876837769"><ele>285.0</ele><time>2026-04-07T12:20:53.998Z</time></trkpt><trkpt lat="43.4507307376021" lon="2.9104760865971833"><ele>285.0</ele><time>2026-04-07T12:20:54.998Z</time></trkpt><trkpt lat="43.45075778928199" lon="2.9102608683734243"><ele>282.6666666666667</ele><time>2026-04-07T12:20:55.998Z</time></trkpt><trkpt lat="43.45076596842963" lon="2.910048809889047"><ele>280.33333333333337</ele><time>2026-04-07T12:20:56.998Z</time></trkpt><trkpt lat="43.45077695141988" lon="2.909832738489153"><ele>278.0</ele><time>2026-04-07T12:20:57.998Z</time></trkpt><trkpt lat="43.450802246911444" lon="2.9096195933013456"><ele>278.0</ele><time>2026-04-07T12:20:58.998Z</time></trkpt><trkpt lat="43.45084054708705" lon="2.909402567876462"><ele>278.0</ele><time>2026-04-07T12:20:59.998Z</time></trkpt><trkpt lat="43.45090395728298" lon="2.90918898775588"><ele>278.0</ele><time>2026-04-07T12:21:00.998Z</time></trkpt><trkpt lat="43.450945072235335" lon="2.908972833628109"><ele>275.6666666666667</ele><time>2026-04-07T12:21:01.998Z</time></trkpt><trkpt lat="43.451002449994434" lon="2.908769852256292"><ele>273.3333333333333</ele><time>2026-04-07T12:21:02.998Z</time></trkpt><trkpt lat="43.451059065848206" lon="2.9085633842646605"><ele>271.0</ele><time>2026-04-07T12:21:03.998Z</time></trkpt><trkpt lat="43.45111466406824" lon="2.9083595405720453"><ele>268.0</ele><time>2026-04-07T12:21:04.998Z</time></trkpt><trkpt lat="43.45117011510742" lon="2.9081520127275953"><ele>265.0</ele><time>2026-04-07T12:21:05.998Z</time></trkpt><trkpt lat="43.451227862688356" lon="2.9079458146174475"><ele>262.0</ele><time>2026-04-07T12:21:06.998Z</time></trkpt><trkpt lat="43.45128659147044" lon="2.9077478225312516"><ele>273.66666666666663</ele><time>2026-04-07T12:21:07.998Z</time></trkpt><trkpt lat="43.45134246176993" lon="2.907537857627612"><ele>285.3333333333333</ele><time>2026-04-07T12:21:08.998Z</time></trkpt><trkpt lat="43.451401019717224" lon="2.9073295840877074"><ele>297.0</ele><time>2026-04-07T12:21:09.998Z</time></trkpt><trkpt lat="43.451463832721494" lon="2.907125696734959"><ele>297.0</ele><time>2026-04-07T12:21:10.998Z</time></trkpt><trkpt lat="43.45151973034421" lon="2.9069120219079774"><ele>297.0</ele><time>2026-04-07T12:21:11.998Z</time></trkpt><trkpt lat="43.45152731147247" lon="2.906690374291451"><ele>297.0</ele><time>2026-04-07T12:21:12.998Z</time></trkpt><trkpt lat="43.45151020665364" lon="2.90646238010928"><ele>296.0</ele><time>2026-04-07T12:21:13.998Z</time></trkpt><trkpt lat="43.45145758794902" lon="2.9062450322723548"><ele>295.0</ele><time>2026-04-07T12:21:14.998Z</time></trkpt><trkpt lat="43.45140223281859" lon="2.9060347164874316"><ele>294.0</ele><time>2026-04-07T12:21:15.998Z</time></trkpt><trkpt lat="43.45136299482573" lon="2.9058228889133524"><ele>297.0</ele><time>2026-04-07T12:21:16.998Z</time></trkpt><trkpt lat="43.45132641092699" lon="2.905612783130062"><ele>300.0</ele><time>2026-04-07T12:21:17.998Z</time></trkpt><trkpt lat="43.451289809112566" lon="2.9054161722577287"><ele>303.0</ele><time>2026-04-07T12:21:18.998Z</time></trkpt><trkpt lat="43.45125937753868" lon="2.905227104725764"><ele>306.0</ele><time>2026-04-07T12:21:19.998Z</time></trkpt><trkpt lat="43.45123264581911" lon="2.9050490009925025"><ele>307.75</ele><time>2026-04-07T12:21:20.998Z</time></trkpt><trkpt lat="43.45123189373689" lon="2.904865085906609"><ele>309.5</ele><time>2026-04-07T12:21:21.998Z</time></trkpt><trkpt lat="43.45123937734903" lon="2.904688645555577"><ele>311.25</ele><time>2026-04-07T12:21:22.998Z</time></trkpt><trkpt lat="43.45125084932982" lon="2.90450938566523"><ele>313.0</ele><time>2026-04-07T12:21:23.998Z</time></trkpt><trkpt lat="43.451343419112796" lon="2.9043723685785414"><ele>309.5</ele><time>2026-04-07T12:21:24.998Z</time></trkpt><trkpt lat="43.45142541798393" lon="2.904229973294986"><ele>306.0</ele><time>2026-04-07T12:21:25.998Z</time></trkpt><trkpt lat="43.451524680562464" lon="2.904102464910539"><ele>302.5</ele><time>2026-04-07T12:21:26.998Z</time></trkpt><trkpt lat="43.45163894046874" lon="2.90401713509281"><ele>299.0</ele><time>2026-04-07T12:21:27.998Z</time></trkpt><trkpt lat="43.451746524098596" lon="2.9039196545713266"><ele>299.0</ele><time>2026-04-07T12:21:28.998Z</time></trkpt><trkpt lat="43.4518440129031" lon="2.9038171692672012"><ele>299.0</ele><time>2026-04-07T12:21:29.998Z</time></trkpt><trkpt lat="43.451931619535515" lon="2.9036923714339617"><ele>299.0</ele><time>2026-04-07T12:21:31Z</time></trkpt><trkpt lat="43.45201369297266" lon="2.903551072307257"><ele>299.0</ele><time>2026-04-07T12:21:32Z</time></trkpt><trkpt lat="43.45208122014505" lon="2.9034009519901014"><ele>305.79999999999995</ele><time>2026-04-07T12:21:33Z</time></trkpt><trkpt lat="43.45213389581688" lon="2.9032602767255162"><ele>312.59999999999997</ele><time>2026-04-07T12:21:34Z</time></trkpt><trkpt lat="43.45217623741159" lon="2.9031136729080105"><ele>319.4</ele><time>2026-04-07T12:21:35Z</time></trkpt><trkpt lat="43.45220844803447" lon="2.9029688979442203"><ele>326.2</ele><time>2026-04-07T12:21:36Z</time></trkpt><trkpt lat="43.45221697799021" lon="2.90282781645889"><ele>333.0</ele><time>2026-04-07T12:21:37Z</time></trkpt><trkpt lat="43.45222152075326" lon="2.9026894366665124"><ele>325.75</ele><time>2026-04-07T12:21:38Z</time></trkpt><trkpt lat="43.45224381218064" lon="2.902544372490221"><ele>318.5</ele><time>2026-04-07T12:21:39Z</time></trkpt><trkpt lat="43.45227624664487" lon="2.9023938762412147"><ele>311.25</ele><time>2026-04-07T12:21:40Z</time></trkpt><trkpt lat="43.452353170227994" lon="2.9022701015756507"><ele>304.0</ele><time>2026-04-07T12:21:41Z</time></trkpt><trkpt lat="43.45246204204767" lon="2.90218200194597"><ele>304.0</ele><time>2026-04-07T12:21:42Z</time></trkpt><trkpt lat="43.4525828103447" lon="2.9021240979840925"><ele>304.0</ele><time>2026-04-07T12:21:43Z</time></trkpt><trkpt lat="43.4526872469728" lon="2.902120553869599"><ele>304.0</ele><time>2026-04-07T12:21:44Z</time></trkpt><trkpt lat="43.45278545401075" lon="2.9020856284628374"><ele>304.0</ele><time>2026-04-07T12:21:45Z</time></trkpt><trkpt lat="43.452876874586124" lon="2.902090420805584"><ele>304.0</ele><time>2026-04-07T12:21:46Z</time></trkpt><trkpt lat="43.452977807562235" lon="2.9020780109880806"><ele>309.5</ele><time>2026-04-07T12:21:47Z</time></trkpt><trkpt lat="43.45308271133561" lon="2.9020685956141254"><ele>315.0</ele><time>2026-04-07T12:21:48Z</time></trkpt><trkpt lat="43.4531944647637" lon="2.9020562066047906"><ele>320.5</ele><time>2026-04-07T12:21:49Z</time></trkpt><trkpt lat="43.45331309953145" lon="2.902056732456325"><ele>326.0</ele><time>2026-04-07T12:21:50Z</time></trkpt><trkpt lat="43.45343815425517" lon="2.9020681435224933"><ele>326.0</ele><time>2026-04-07T12:21:51Z</time></trkpt><trkpt lat="43.45357538223559" lon="2.9020770957070177"><ele>326.0</ele><time>2026-04-07T12:21:52Z</time></trkpt><trkpt lat="43.453721960095976" lon="2.902095057641072"><ele>326.0</ele><time>2026-04-07T12:21:53Z</time></trkpt><trkpt lat="43.453878586552555" lon="2.902120405348747"><ele>326.0</ele><time>2026-04-07T12:21:54Z</time></trkpt><trkpt lat="43.45402371294325" lon="2.902171959033728"><ele>326.25</ele><time>2026-04-07T12:21:55Z</time></trkpt><trkpt lat="43.45413713856855" lon="2.9021834544020795"><ele>326.5</ele><time>2026-04-07T12:21:56Z</time></trkpt><trkpt lat="43.45426296813866" lon="2.9021596119335977"><ele>326.75</ele><time>2026-04-07T12:21:58Z</time></trkpt><trkpt lat="43.45434852644646" lon="2.902096291027433"><ele>327.0</ele><time>2026-04-07T12:21:59Z</time></trkpt><trkpt lat="43.454393387394134" lon="2.9019498369237198"><ele>327.0</ele><time>2026-04-07T12:22:00Z</time></trkpt><trkpt lat="43.4544100505678" lon="2.9018002821981774"><ele>327.0</ele><time>2026-04-07T12:22:01Z</time></trkpt><trkpt lat="43.45443628475963" lon="2.901659719267003"><ele>327.0</ele><time>2026-04-07T12:22:02Z</time></trkpt><trkpt lat="43.45445118825816" lon="2.901501606108511"><ele>327.0</ele><time>2026-04-07T12:22:03Z</time></trkpt><trkpt lat="43.4544693998482" lon="2.9013596103901205"><ele>327.0</ele><time>2026-04-07T12:22:04Z</time></trkpt><trkpt lat="43.45448415228496" lon="2.901272976056383"><ele>328.40000000000003</ele><time>2026-04-07T12:22:05Z</time></trkpt><trkpt lat="43.454496262537546" lon="2.9011279457984047"><ele>329.8</ele><time>2026-04-07T12:22:06.999Z</time></trkpt><trkpt lat="43.45453481608801" lon="2.9010260313394585"><ele>331.2</ele><time>2026-04-07T12:22:07.999Z</time></trkpt><trkpt lat="43.45458188247151" lon="2.9009102584298248"><ele>332.6</ele><time>2026-04-07T12:22:08.999Z</time></trkpt><trkpt lat="43.45465439432739" lon="2.9008163685091666"><ele>334.0</ele><time>2026-04-07T12:22:09.999Z</time></trkpt><trkpt lat="43.4547058018609" lon="2.900708867503817"><ele>334.0</ele><time>2026-04-07T12:22:10.999Z</time></trkpt><trkpt lat="43.45477225208737" lon="2.9006019053572256"><ele>334.0</ele><time>2026-04-07T12:22:11.999Z</time></trkpt><trkpt lat="43.454846292649435" lon="2.900495540361647"><ele>334.0</ele><time>2026-04-07T12:22:12.999Z</time></trkpt><trkpt lat="43.45492204325176" lon="2.9003918574724614"><ele>334.0</ele><time>2026-04-07T12:22:13.999Z</time></trkpt><trkpt lat="43.45499583116482" lon="2.9003023185303745"><ele>334.0</ele><time>2026-04-07T12:22:14.999Z</time></trkpt><trkpt lat="43.45507972894439" lon="2.9002178374830887"><ele>334.0</ele><time>2026-04-07T12:22:15.999Z</time></trkpt><trkpt lat="43.455178136331426" lon="2.900124695379287"><ele>334.0</ele><time>2026-04-07T12:22:16.999Z</time></trkpt><trkpt lat="43.455267632711006" lon="2.900048360739224"><ele>334.0</ele><time>2026-04-07T12:22:17.999Z</time></trkpt><trkpt lat="43.45534445809696" lon="2.89994582629804"><ele>334.0</ele><time>2026-04-07T12:22:18.999Z</time></trkpt><trkpt lat="43.455420025588815" lon="2.8998051050303526"><ele>338.5</ele><time>2026-04-07T12:22:19.999Z</time></trkpt><trkpt lat="43.45545055383417" lon="2.8996200969039236"><ele>343.0</ele><time>2026-04-07T12:22:20.999Z</time></trkpt><trkpt lat="43.45544555682048" lon="2.8994368926013623"><ele>347.5</ele><time>2026-04-07T12:22:21.999Z</time></trkpt><trkpt lat="43.45545988016412" lon="2.899261859324604"><ele>352.0</ele><time>2026-04-07T12:22:22.999Z</time></trkpt><trkpt lat="43.45546217499702" lon="2.899087787827727"><ele>353.0</ele><time>2026-04-07T12:22:23.999Z</time></trkpt><trkpt lat="43.455471876539015" lon="2.8989274639168734"><ele>354.0</ele><time>2026-04-07T12:22:24.999Z</time></trkpt><trkpt lat="43.45548081654104" lon="2.898765583321853"><ele>355.0</ele><time>2026-04-07T12:22:25.999Z</time></trkpt><trkpt lat="43.45545064313613" lon="2.8985913159761254"><ele>356.0</ele><time>2026-04-07T12:22:26.999Z</time></trkpt><trkpt lat="43.45540044385312" lon="2.89840957890137"><ele>344.25</ele><time>2026-04-07T12:22:27.999Z</time></trkpt><trkpt lat="43.45533265627361" lon="2.898232147739521"><ele>332.5</ele><time>2026-04-07T12:22:28.999Z</time></trkpt><trkpt lat="43.45525129391471" lon="2.8980774877438136"><ele>320.75</ele><time>2026-04-07T12:22:29.999Z</time></trkpt><trkpt lat="43.45516643639449" lon="2.897950020900575"><ele>309.0</ele><time>2026-04-07T12:22:30.999Z</time></trkpt><trkpt lat="43.45508769899642" lon="2.8978270155369192"><ele>309.0</ele><time>2026-04-07T12:22:31.999Z</time></trkpt><trkpt lat="43.45501763011208" lon="2.897705613846638"><ele>309.0</ele><time>2026-04-07T12:22:32.999Z</time></trkpt><trkpt lat="43.4549604478265" lon="2.897572786935608"><ele>309.0</ele><time>2026-04-07T12:22:33.999Z</time></trkpt><trkpt lat="43.454923903954594" lon="2.897425016355696"><ele>309.0</ele><time>2026-04-07T12:22:34.999Z</time></trkpt><trkpt lat="43.45492258486116" lon="2.8972545174859636"><ele>312.25</ele><time>2026-04-07T12:22:35.999Z</time></trkpt><trkpt lat="43.45496718574436" lon="2.8970955130028817"><ele>315.5</ele><time>2026-04-07T12:22:36.999Z</time></trkpt><trkpt lat="43.455033669082205" lon="2.896957778743517"><ele>318.75</ele><time>2026-04-07T12:22:37.999Z</time></trkpt><trkpt lat="43.455087288425105" lon="2.896816225710423"><ele>322.0</ele><time>2026-04-07T12:22:38.999Z</time></trkpt><trkpt lat="43.45511791305067" lon="2.896652887928328"><ele>322.0</ele><time>2026-04-07T12:22:39.999Z</time></trkpt><trkpt lat="43.45513077799301" lon="2.8964925341905863"><ele>322.0</ele><time>2026-04-07T12:22:40.999Z</time></trkpt><trkpt lat="43.45514254168295" lon="2.896342317053579"><ele>322.0</ele><time>2026-04-07T12:22:41.999Z</time></trkpt><trkpt lat="43.45517135637723" lon="2.8962055016502997"><ele>322.0</ele><time>2026-04-07T12:22:42.999Z</time></trkpt><trkpt lat="43.45522077402577" lon="2.8960963649848726"><ele>322.0</ele><time>2026-04-07T12:22:43.999Z</time></trkpt><trkpt lat="43.45529683573869" lon="2.8960364374534633"><ele>322.0</ele><time>2026-04-07T12:22:44.999Z</time></trkpt><trkpt lat="43.45538409792358" lon="2.8959811790777144"><ele>322.0</ele><time>2026-04-07T12:22:45.999Z</time></trkpt><trkpt lat="43.45547561132174" lon="2.895950284944408"><ele>322.0</ele><time>2026-04-07T12:22:46.999Z</time></trkpt><trkpt lat="43.455554630129576" lon="2.8959618307138864"><ele>322.0</ele><time>2026-04-07T12:22:47.999Z</time></trkpt><trkpt lat="43.4556188677031" lon="2.8960056513442054"><ele>322.0</ele><time>2026-04-07T12:22:48.999Z</time></trkpt><trkpt lat="43.455661720553174" lon="2.896076832890798"><ele>322.0</ele><time>2026-04-07T12:22:49.999Z</time></trkpt><trkpt lat="43.45569650828696" lon="2.896182741079425"><ele>326.6</ele><time>2026-04-07T12:22:50.999Z</time></trkpt><trkpt lat="43.455733395669164" lon="2.8962923192735683"><ele>331.20000000000005</ele><time>2026-04-07T12:22:51.999Z</time></trkpt><trkpt lat="43.45577439907443" lon="2.896361767477141"><ele>335.8</ele><time>2026-04-07T12:22:52.998Z</time></trkpt><trkpt lat="43.45589707970116" lon="2.896433022079797"><ele>340.4</ele><time>2026-04-07T12:22:53.998Z</time></trkpt><trkpt lat="43.45600180103695" lon="2.896505334220174"><ele>345.0</ele><time>2026-04-07T12:22:54.998Z</time></trkpt><trkpt lat="43.456095830063155" lon="2.8965537884978403"><ele>345.0</ele><time>2026-04-07T12:22:55.998Z</time></trkpt><trkpt lat="43.45620222932738" lon="2.8965817785717114"><ele>345.0</ele><time>2026-04-07T12:22:56.998Z</time></trkpt><trkpt lat="43.45629908805374" lon="2.896617911154396"><ele>345.0</ele><time>2026-04-07T12:22:57.998Z</time></trkpt><trkpt lat="43.45640177584156" lon="2.8966212710824033"><ele>345.0</ele><time>2026-04-07T12:22:58.998Z</time></trkpt><trkpt lat="43.456497363141814" lon="2.896611668666299"><ele>345.0</ele><time>2026-04-07T12:22:59.998Z</time></trkpt><trkpt lat="43.45659160836" lon="2.8965832364393522"><ele>344.0</ele><time>2026-04-07T12:23:00.998Z</time></trkpt><trkpt lat="43.456671306121805" lon="2.896555437476067"><ele>343.0</ele><time>2026-04-07T12:23:01.998Z</time></trkpt><trkpt lat="43.4567954238813" lon="2.896516418953982"><ele>342.0</ele><time>2026-04-07T12:23:02.998Z</time></trkpt><trkpt lat="43.456984366675805" lon="2.89640364399408"><ele>341.0</ele><time>2026-04-07T12:23:03.998Z</time></trkpt><trkpt lat="43.457132619867615" lon="2.8961351280197047"><ele>344.25</ele><time>2026-04-07T12:23:04.998Z</time></trkpt><trkpt lat="43.45719374098862" lon="2.8959533139923836"><ele>347.5</ele><time>2026-04-07T12:23:05.998Z</time></trkpt><trkpt lat="43.45725418191098" lon="2.8957695897564575"><ele>350.75</ele><time>2026-04-07T12:23:06.998Z</time></trkpt><trkpt lat="43.457309824584755" lon="2.8955991893775943"><ele>354.0</ele><time>2026-04-07T12:23:07.998Z</time></trkpt><trkpt lat="43.4574057959898" lon="2.8953295281780647"><ele>345.3333333333333</ele><time>2026-04-07T12:23:08.998Z</time></trkpt><trkpt lat="43.45741017242624" lon="2.894902371244016"><ele>336.66666666666663</ele><time>2026-04-07T12:23:09.998Z</time></trkpt><trkpt lat="43.457381353893496" lon="2.8947310980841428"><ele>328.0</ele><time>2026-04-07T12:23:10.998Z</time></trkpt><trkpt lat="43.45717931166843" lon="2.8944676031072993"><ele>328.0</ele><time>2026-04-07T12:23:11.998Z</time></trkpt><trkpt lat="43.45741373813528" lon="2.8947561434032365"><ele>328.0</ele><time>2026-04-07T12:23:13.998Z</time></trkpt><trkpt lat="43.4573385145713" lon="2.8946228402125933"><ele>328.0</ele><time>2026-04-07T12:23:14.998Z</time></trkpt><trkpt lat="43.45725320511144" lon="2.8945125591251295"><ele>328.0</ele><time>2026-04-07T12:23:15.998Z</time></trkpt><trkpt lat="43.45716497588717" lon="2.8943937635659607"><ele>328.0</ele><time>2026-04-07T12:23:16.998Z</time></trkpt><trkpt lat="43.4570827054046" lon="2.8942791779741643"><ele>328.0</ele><time>2026-04-07T12:23:17.998Z</time></trkpt><trkpt lat="43.457002516201555" lon="2.894152320216611"><ele>328.0</ele><time>2026-04-07T12:23:18.998Z</time></trkpt><trkpt lat="43.4569266289162" lon="2.894027663977735"><ele>329.75</ele><time>2026-04-07T12:23:19.998Z</time></trkpt><trkpt lat="43.456868701543996" lon="2.893888202470754"><ele>331.5</ele><time>2026-04-07T12:23:20.998Z</time></trkpt><trkpt lat="43.45684047000513" lon="2.893725731642054"><ele>333.25</ele><time>2026-04-07T12:23:21.998Z</time></trkpt><trkpt lat="43.45685118565596" lon="2.8935633547964765"><ele>335.0</ele><time>2026-04-07T12:23:22.998Z</time></trkpt><trkpt lat="43.45689296737087" lon="2.893419733796661"><ele>336.0</ele><time>2026-04-07T12:23:23.998Z</time></trkpt><trkpt lat="43.456960992179184" lon="2.8932966362485577"><ele>337.0</ele><time>2026-04-07T12:23:24.998Z</time></trkpt><trkpt lat="43.45702844730887" lon="2.8931828834488567"><ele>338.0</ele><time>2026-04-07T12:23:25.998Z</time></trkpt><trkpt lat="43.45708553062765" lon="2.893063367849918"><ele>339.0</ele><time>2026-04-07T12:23:26.998Z</time></trkpt><trkpt lat="43.45713944439394" lon="2.8929407967464056"><ele>340.0</ele><time>2026-04-07T12:23:27.998Z</time></trkpt><trkpt lat="43.45719448372176" lon="2.892825582774497"><ele>344.4</ele><time>2026-04-07T12:23:28.998Z</time></trkpt><trkpt lat="43.457251061079816" lon="2.892711145444274"><ele>348.8</ele><time>2026-04-07T12:23:29.998Z</time></trkpt><trkpt lat="43.45731021539954" lon="2.892592387900476"><ele>353.20000000000005</ele><time>2026-04-07T12:23:30.998Z</time></trkpt><trkpt lat="43.45736560109344" lon="2.8924662995354313"><ele>357.6</ele><time>2026-04-07T12:23:31.998Z</time></trkpt><trkpt lat="43.45742406201774" lon="2.89233861414197"><ele>362.0</ele><time>2026-04-07T12:23:32.998Z</time></trkpt><trkpt lat="43.45748107293525" lon="2.8922084319475774"><ele>362.0</ele><time>2026-04-07T12:23:33.998Z</time></trkpt><trkpt lat="43.457540200813945" lon="2.892080517356611"><ele>362.0</ele><time>2026-04-07T12:23:34.998Z</time></trkpt><trkpt lat="43.45759740363158" lon="2.891949310886922"><ele>362.0</ele><time>2026-04-07T12:23:35.998Z</time></trkpt><trkpt lat="43.45765767364359" lon="2.8918135560370306"><ele>362.0</ele><time>2026-04-07T12:23:37Z</time></trkpt><trkpt lat="43.45771844129941" lon="2.8916760583509626"><ele>359.0</ele><time>2026-04-07T12:23:38Z</time></trkpt><trkpt lat="43.45778183205956" lon="2.89153527091885"><ele>356.0</ele><time>2026-04-07T12:23:39Z</time></trkpt><trkpt lat="43.457852026287426" lon="2.8914014162120543"><ele>353.0</ele><time>2026-04-07T12:23:40Z</time></trkpt><trkpt lat="43.45794048942114" lon="2.891279506331904"><ele>350.0</ele><time>2026-04-07T12:23:41Z</time></trkpt><trkpt lat="43.45803959950054" lon="2.8911750299750567"><ele>356.25</ele><time>2026-04-07T12:23:42Z</time></trkpt><trkpt lat="43.4581539254661" lon="2.8911048361726404"><ele>362.5</ele><time>2026-04-07T12:23:43Z</time></trkpt><trkpt lat="43.45828082501824" lon="2.8910962132451887"><ele>368.75</ele><time>2026-04-07T12:23:44Z</time></trkpt><trkpt lat="43.45840295110622" lon="2.8910591753108466"><ele>375.0</ele><time>2026-04-07T12:23:45Z</time></trkpt><trkpt lat="43.45853351301228" lon="2.8910476988055533"><ele>375.0</ele><time>2026-04-07T12:23:46Z</time></trkpt><trkpt lat="43.45865134432759" lon="2.8910300460662848"><ele>375.0</ele><time>2026-04-07T12:23:47Z</time></trkpt><trkpt lat="43.458784146000156" lon="2.8910416800930867"><ele>375.0</ele><time>2026-04-07T12:23:48Z</time></trkpt><trkpt lat="43.4589048741532" lon="2.891013478540626"><ele>375.0</ele><time>2026-04-07T12:23:49Z</time></trkpt><trkpt lat="43.459024849842876" lon="2.8909882999811556"><ele>372.75</ele><time>2026-04-07T12:23:50Z</time></trkpt><trkpt lat="43.45914618923885" lon="2.8909652605465395"><ele>370.5</ele><time>2026-04-07T12:23:51Z</time></trkpt><trkpt lat="43.4592681611696" lon="2.8909393740562286"><ele>368.25</ele><time>2026-04-07T12:23:52Z</time></trkpt><trkpt lat="43.45939318048959" lon="2.8909185854351573"><ele>366.0</ele><time>2026-04-07T12:23:53Z</time></trkpt><trkpt lat="43.459518770548385" lon="2.890901930616664"><ele>366.75</ele><time>2026-04-07T12:23:54Z</time></trkpt><trkpt lat="43.45965235067468" lon="2.8909180921757716"><ele>367.5</ele><time>2026-04-07T12:23:55Z</time></trkpt><trkpt lat="43.459786568535925" lon="2.890976872694509"><ele>368.25</ele><time>2026-04-07T12:23:56Z</time></trkpt><trkpt lat="43.459907899791084" lon="2.891076848238779"><ele>369.0</ele><time>2026-04-07T12:23:57Z</time></trkpt><trkpt lat="43.46000481879227" lon="2.8911798700038376"><ele>374.75</ele><time>2026-04-07T12:23:58Z</time></trkpt><trkpt lat="43.46010205785985" lon="2.8912684009855028"><ele>380.5</ele><time>2026-04-07T12:23:59Z</time></trkpt><trkpt lat="43.46021607855193" lon="2.8913297456372495"><ele>386.25</ele><time>2026-04-07T12:24:00Z</time></trkpt><trkpt lat="43.46033716226124" lon="2.8913692242007833"><ele>392.0</ele><time>2026-04-07T12:24:01Z</time></trkpt><trkpt lat="43.460467001734635" lon="2.8913837977551604"><ele>392.0</ele><time>2026-04-07T12:24:02Z</time></trkpt><trkpt lat="43.460595132374394" lon="2.8913766440083184"><ele>392.0</ele><time>2026-04-07T12:24:03Z</time></trkpt><trkpt lat="43.460716387955536" lon="2.891341822228226"><ele>392.0</ele><time>2026-04-07T12:24:04Z</time></trkpt><trkpt lat="43.46083450590472" lon="2.891289266176694"><ele>392.0</ele><time>2026-04-07T12:24:05Z</time></trkpt><trkpt lat="43.46094943148734" lon="2.8912226257000766"><ele>392.0</ele><time>2026-04-07T12:24:06Z</time></trkpt><trkpt lat="43.46105397346756" lon="2.891119578437461"><ele>392.0</ele><time>2026-04-07T12:24:07Z</time></trkpt><trkpt lat="43.461151993257175" lon="2.8910083509623368"><ele>392.0</ele><time>2026-04-07T12:24:08Z</time></trkpt><trkpt lat="43.461238099244675" lon="2.890888670847627"><ele>392.0</ele><time>2026-04-07T12:24:09Z</time></trkpt><trkpt lat="43.461308260864556" lon="2.8907516134596354"><ele>395.25</ele><time>2026-04-07T12:24:10Z</time></trkpt><trkpt lat="43.46137812827538" lon="2.890611617295084"><ele>398.5</ele><time>2026-04-07T12:24:11Z</time></trkpt><trkpt lat="43.46144387109542" lon="2.8904707906850504"><ele>401.75</ele><time>2026-04-07T12:24:12Z</time></trkpt><trkpt lat="43.46151423092652" lon="2.890327052620844"><ele>405.0</ele><time>2026-04-07T12:24:13Z</time></trkpt><trkpt lat="43.46158436323508" lon="2.890185956779066"><ele>402.8</ele><time>2026-04-07T12:24:13.999Z</time></trkpt><trkpt lat="43.461654175479005" lon="2.8900453977737683"><ele>400.6</ele><time>2026-04-07T12:24:14.999Z</time></trkpt><trkpt lat="43.46171925953565" lon="2.88992178799518"><ele>398.4</ele><time>2026-04-07T12:24:15.999Z</time></trkpt><trkpt lat="43.461774698173244" lon="2.8898019914573343"><ele>396.2</ele><time>2026-04-07T12:24:16.999Z</time></trkpt><trkpt lat="43.46183169469343" lon="2.8896891853349373"><ele>394.0</ele><time>2026-04-07T12:24:17.999Z</time></trkpt><trkpt lat="43.46189244012157" lon="2.8895602170891164"><ele>394.0</ele><time>2026-04-07T12:24:18.999Z</time></trkpt><trkpt lat="43.46196275141525" lon="2.889420558633415"><ele>394.0</ele><time>2026-04-07T12:24:19.999Z</time></trkpt><trkpt lat="43.4620335395481" lon="2.889270346837058"><ele>394.0</ele><time>2026-04-07T12:24:20.999Z</time></trkpt><trkpt lat="43.46209271033202" lon="2.889118332206911"><ele>394.0</ele><time>2026-04-07T12:24:21.999Z</time></trkpt><trkpt lat="43.462141167653385" lon="2.888962293984188"><ele>400.75</ele><time>2026-04-07T12:24:22.999Z</time></trkpt><trkpt lat="43.4621803236699" lon="2.8888000300425127"><ele>407.5</ele><time>2026-04-07T12:24:23.999Z</time></trkpt><trkpt lat="43.462210571250104" lon="2.888640187355933"><ele>414.25</ele><time>2026-04-07T12:24:24.999Z</time></trkpt><trkpt lat="43.46223775478865" lon="2.888479117600377"><ele>421.0</ele><time>2026-04-07T12:24:25.999Z</time></trkpt><trkpt lat="43.46227165288195" lon="2.8883217609216953"><ele>421.0</ele><time>2026-04-07T12:24:26.999Z</time></trkpt><trkpt lat="43.46230272527984" lon="2.8881548962496804"><ele>421.0</ele><time>2026-04-07T12:24:27.999Z</time></trkpt><trkpt lat="43.462337360269764" lon="2.8879920277854763"><ele>421.0</ele><time>2026-04-07T12:24:28.999Z</time></trkpt><trkpt lat="43.46237143097932" lon="2.8878274270845665"><ele>421.0</ele><time>2026-04-07T12:24:29.999Z</time></trkpt><trkpt lat="43.462412261196484" lon="2.887667390514346"><ele>418.5</ele><time>2026-04-07T12:24:30.999Z</time></trkpt><trkpt lat="43.462450762067846" lon="2.8875050374264553"><ele>416.0</ele><time>2026-04-07T12:24:31.999Z</time></trkpt><trkpt lat="43.46249805923276" lon="2.887347440380224"><ele>413.5</ele><time>2026-04-07T12:24:32.999Z</time></trkpt><trkpt lat="43.462545276636334" lon="2.887187129622184"><ele>411.0</ele><time>2026-04-07T12:24:33.999Z</time></trkpt><trkpt lat="43.462601972414014" lon="2.887022310957756"><ele>411.0</ele><time>2026-04-07T12:24:34.999Z</time></trkpt><trkpt lat="43.46267189780994" lon="2.88687189781011"><ele>411.0</ele><time>2026-04-07T12:24:35.999Z</time></trkpt><trkpt lat="43.46275623869196" lon="2.8867321324079"><ele>411.0</ele><time>2026-04-07T12:24:36.999Z</time></trkpt><trkpt lat="43.46285268014865" lon="2.886611327162902"><ele>411.0</ele><time>2026-04-07T12:24:37.999Z</time></trkpt><trkpt lat="43.46295997552395" lon="2.8865105068273778"><ele>419.0</ele><time>2026-04-07T12:24:38.999Z</time></trkpt><trkpt lat="43.463062478659616" lon="2.8864040285620995"><ele>427.0</ele><time>2026-04-07T12:24:39.999Z</time></trkpt><trkpt lat="43.46315741308044" lon="2.8862881148936483"><ele>435.0</ele><time>2026-04-07T12:24:40.999Z</time></trkpt><trkpt lat="43.46323762263996" lon="2.8861521422242253"><ele>443.0</ele><time>2026-04-07T12:24:41.999Z</time></trkpt><trkpt lat="43.46329069944493" lon="2.8859870197526623"><ele>440.0</ele><time>2026-04-07T12:24:42.999Z</time></trkpt><trkpt lat="43.46336008070447" lon="2.8858317856286977"><ele>437.0</ele><time>2026-04-07T12:24:43.999Z</time></trkpt><trkpt lat="43.46339632559845" lon="2.885652705484719"><ele>434.0</ele><time>2026-04-07T12:24:44.999Z</time></trkpt><trkpt lat="43.46341549516074" lon="2.8854700519247607"><ele>431.0</ele><time>2026-04-07T12:24:45.999Z</time></trkpt><trkpt lat="43.463439229608255" lon="2.885291773796673"><ele>431.0</ele><time>2026-04-07T12:24:46.999Z</time></trkpt><trkpt lat="43.46346527315522" lon="2.885116393499227"><ele>431.0</ele><time>2026-04-07T12:24:47.999Z</time></trkpt><trkpt lat="43.46348986468994" lon="2.8849444827415187"><ele>431.0</ele><time>2026-04-07T12:24:48.999Z</time></trkpt><trkpt lat="43.46350795212778" lon="2.884781734768683"><ele>431.0</ele><time>2026-04-07T12:24:49.999Z</time></trkpt><trkpt lat="43.463512369901224" lon="2.8846127743364836"><ele>430.5</ele><time>2026-04-07T12:24:50.999Z</time></trkpt><trkpt lat="43.46349775144406" lon="2.88444689394287"><ele>430.0</ele><time>2026-04-07T12:24:51.999Z</time></trkpt><trkpt lat="43.463457004855115" lon="2.884270866324483"><ele>429.5</ele><time>2026-04-07T12:24:52.999Z</time></trkpt><trkpt lat="43.46340563902822" lon="2.88410829761062"><ele>429.0</ele><time>2026-04-07T12:24:53.999Z</time></trkpt><trkpt lat="43.46334749406882" lon="2.883953801629525"><ele>430.5</ele><time>2026-04-07T12:24:54.999Z</time></trkpt><trkpt lat="43.46328409769135" lon="2.8838024135147804"><ele>432.0</ele><time>2026-04-07T12:24:55.999Z</time></trkpt><trkpt lat="43.46322549486473" lon="2.883649923094654"><ele>433.5</ele><time>2026-04-07T12:24:56.999Z</time></trkpt><trkpt lat="43.46317122964592" lon="2.883495323815689"><ele>435.0</ele><time>2026-04-07T12:24:57.999Z</time></trkpt><trkpt lat="43.46311556938742" lon="2.883327925089219"><ele>437.33333333333337</ele><time>2026-04-07T12:24:58.999Z</time></trkpt><trkpt lat="43.46307281920088" lon="2.8831419750161213"><ele>439.6666666666667</ele><time>2026-04-07T12:24:59.998Z</time></trkpt><trkpt lat="43.463058418934864" lon="2.8829280785672204"><ele>442.0</ele><time>2026-04-07T12:25:00.998Z</time></trkpt><trkpt lat="43.46308775037158" lon="2.8827063044943415"><ele>441.0</ele><time>2026-04-07T12:25:01.998Z</time></trkpt><trkpt lat="43.46315378949117" lon="2.8824992405416547"><ele>440.0</ele><time>2026-04-07T12:25:02.998Z</time></trkpt><trkpt lat="43.463245857070994" lon="2.8823185104812854"><ele>439.0</ele><time>2026-04-07T12:25:03.998Z</time></trkpt><trkpt lat="43.463343348338064" lon="2.882188027991002"><ele>439.0</ele><time>2026-04-07T12:25:04.998Z</time></trkpt><trkpt lat="43.46343226868264" lon="2.88205639410295"><ele>439.0</ele><time>2026-04-07T12:25:05.998Z</time></trkpt><trkpt lat="43.46351938345212" lon="2.8819167716241565"><ele>439.0</ele><time>2026-04-07T12:25:06.998Z</time></trkpt><trkpt lat="43.46360176235277" lon="2.881773149862961"><ele>439.0</ele><time>2026-04-07T12:25:07.998Z</time></trkpt><trkpt lat="43.46367538698019" lon="2.8816296592876967"><ele>440.75</ele><time>2026-04-07T12:25:08.998Z</time></trkpt><trkpt lat="43.463753019058274" lon="2.881490192745148"><ele>442.5</ele><time>2026-04-07T12:25:09.998Z</time></trkpt><trkpt lat="43.46383133829046" lon="2.881353999922276"><ele>444.25</ele><time>2026-04-07T12:25:10.998Z</time></trkpt><trkpt lat="43.46392078273769" lon="2.8812305455227514"><ele>446.0</ele><time>2026-04-07T12:25:11.998Z</time></trkpt><trkpt lat="43.46402847253921" lon="2.8811261497285297"><ele>447.75</ele><time>2026-04-07T12:25:12.998Z</time></trkpt><trkpt lat="43.46415063651471" lon="2.8810564231242686"><ele>449.5</ele><time>2026-04-07T12:25:13.998Z</time></trkpt><trkpt lat="43.46427781413673" lon="2.8810111677147114"><ele>451.25</ele><time>2026-04-07T12:25:14.998Z</time></trkpt><trkpt lat="43.46441707642326" lon="2.881012527579455"><ele>453.0</ele><time>2026-04-07T12:25:15.998Z</time></trkpt><trkpt lat="43.46455718909078" lon="2.881040286340625"><ele>455.75</ele><time>2026-04-07T12:25:16.998Z</time></trkpt><trkpt lat="43.46469647717904" lon="2.881086738422682"><ele>458.5</ele><time>2026-04-07T12:25:17.998Z</time></trkpt><trkpt lat="43.46482878576101" lon="2.8811193472700802"><ele>461.25</ele><time>2026-04-07T12:25:18.998Z</time></trkpt><trkpt lat="43.464956982724175" lon="2.88114489351745"><ele>464.0</ele><time>2026-04-07T12:25:19.998Z</time></trkpt><trkpt lat="43.46507947890086" lon="2.881159379950287"><ele>464.0</ele><time>2026-04-07T12:25:20.998Z</time></trkpt><trkpt lat="43.46520356375982" lon="2.8811659581755387"><ele>464.0</ele><time>2026-04-07T12:25:21.998Z</time></trkpt><trkpt lat="43.46533594224948" lon="2.8811625134748193"><ele>464.0</ele><time>2026-04-07T12:25:22.998Z</time></trkpt><trkpt lat="43.465462593404446" lon="2.8811282291841924"><ele>464.0</ele><time>2026-04-07T12:25:23.998Z</time></trkpt><trkpt lat="43.46558829062458" lon="2.881062320979346"><ele>463.0</ele><time>2026-04-07T12:25:24.998Z</time></trkpt><trkpt lat="43.46571600388974" lon="2.880978978568105"><ele>462.0</ele><time>2026-04-07T12:25:25.998Z</time></trkpt><trkpt lat="43.46582560136458" lon="2.8808505030024096"><ele>461.0</ele><time>2026-04-07T12:25:26.998Z</time></trkpt><trkpt lat="43.46592466073835" lon="2.8807088058851384"><ele>460.0</ele><time>2026-04-07T12:25:27.998Z</time></trkpt><trkpt lat="43.46600407351653" lon="2.880541873909396"><ele>458.0</ele><time>2026-04-07T12:25:28.998Z</time></trkpt><trkpt lat="43.46606169566668" lon="2.880360916160897"><ele>456.0</ele><time>2026-04-07T12:25:29.998Z</time></trkpt><trkpt lat="43.46611816991828" lon="2.8801742720119496"><ele>454.0</ele><time>2026-04-07T12:25:30.998Z</time></trkpt><trkpt lat="43.46617292344279" lon="2.879981531261505"><ele>452.0</ele><time>2026-04-07T12:25:31.998Z</time></trkpt><trkpt lat="43.466217300379476" lon="2.879786572749558"><ele>452.0</ele><time>2026-04-07T12:25:32.998Z</time></trkpt><trkpt lat="43.46626088112391" lon="2.8795943700545847"><ele>452.0</ele><time>2026-04-07T12:25:33.998Z</time></trkpt><trkpt lat="43.466296257733056" lon="2.8793948188815275"><ele>452.0</ele><time>2026-04-07T12:25:34.998Z</time></trkpt><trkpt lat="43.46633822693088" lon="2.879190058173429"><ele>452.25</ele><time>2026-04-07T12:25:35.998Z</time></trkpt><trkpt lat="43.46637596423062" lon="2.878996951090899"><ele>452.5</ele><time>2026-04-07T12:25:36.998Z</time></trkpt><trkpt lat="43.46641473117783" lon="2.8787951238995517"><ele>452.75</ele><time>2026-04-07T12:25:37.998Z</time></trkpt><trkpt lat="43.466462857074845" lon="2.8785985458191226"><ele>453.0</ele><time>2026-04-07T12:25:38.998Z</time></trkpt><trkpt lat="43.46653261837299" lon="2.8784084157131424"><ele>453.0</ele><time>2026-04-07T12:25:39.998Z</time></trkpt><trkpt lat="43.466630128139585" lon="2.8782414700335788"><ele>453.0</ele><time>2026-04-07T12:25:40.998Z</time></trkpt><trkpt lat="43.466739938857174" lon="2.8780888336889734"><ele>453.0</ele><time>2026-04-07T12:25:41.998Z</time></trkpt><trkpt lat="43.46686468738391" lon="2.8779535130279887"><ele>453.0</ele><time>2026-04-07T12:25:43Z</time></trkpt><trkpt lat="43.46700393843421" lon="2.8778474350401235"><ele>453.0</ele><time>2026-04-07T12:25:44Z</time></trkpt><trkpt lat="43.4671543297744" lon="2.877776504476209"><ele>453.0</ele><time>2026-04-07T12:25:45Z</time></trkpt><trkpt lat="43.46731193448983" lon="2.87772088236878"><ele>456.33333333333337</ele><time>2026-04-07T12:25:46Z</time></trkpt><trkpt lat="43.467485053126914" lon="2.877701496299087"><ele>459.6666666666667</ele><time>2026-04-07T12:25:47Z</time></trkpt><trkpt lat="43.46764684142417" lon="2.8776756342996626"><ele>463.0</ele><time>2026-04-07T12:25:48Z</time></trkpt><trkpt lat="43.467813413992225" lon="2.877663315787678"><ele>462.33333333333337</ele><time>2026-04-07T12:25:49Z</time></trkpt><trkpt lat="43.46797871461795" lon="2.877637354710081"><ele>461.66666666666663</ele><time>2026-04-07T12:25:50Z</time></trkpt><trkpt lat="43.46815302880765" lon="2.877604032146026"><ele>461.0</ele><time>2026-04-07T12:25:51Z</time></trkpt><trkpt lat="43.46832564443257" lon="2.87759195080423"><ele>461.0</ele><time>2026-04-07T12:25:52Z</time></trkpt><trkpt lat="43.46848431259799" lon="2.8775826996854197"><ele>461.0</ele><time>2026-04-07T12:25:53Z</time></trkpt><trkpt lat="43.468653348320146" lon="2.8775693784895218"><ele>461.0</ele><time>2026-04-07T12:25:54Z</time></trkpt><trkpt lat="43.46884308429971" lon="2.877530555994983"><ele>461.3333333333333</ele><time>2026-04-07T12:25:55Z</time></trkpt><trkpt lat="43.469023495650035" lon="2.8775139768791296"><ele>461.66666666666663</ele><time>2026-04-07T12:25:56Z</time></trkpt><trkpt lat="43.46919865734425" lon="2.877493607664911"><ele>462.0</ele><time>2026-04-07T12:25:57Z</time></trkpt><trkpt lat="43.46938461052652" lon="2.8774660140024837"><ele>462.0</ele><time>2026-04-07T12:25:58Z</time></trkpt><trkpt lat="43.469555472456086" lon="2.8774496610976747"><ele>462.0</ele><time>2026-04-07T12:25:59Z</time></trkpt><trkpt lat="43.46973513840124" lon="2.87742139449383"><ele>462.0</ele><time>2026-04-07T12:26:00Z</time></trkpt><trkpt lat="43.46991533414167" lon="2.877400809122256"><ele>463.66666666666663</ele><time>2026-04-07T12:26:01Z</time></trkpt><trkpt lat="43.4700919130219" lon="2.8773724650698393"><ele>465.3333333333333</ele><time>2026-04-07T12:26:02Z</time></trkpt><trkpt lat="43.47026515599445" lon="2.8773428800962093"><ele>467.0</ele><time>2026-04-07T12:26:03Z</time></trkpt><trkpt lat="43.470443602657674" lon="2.8773109298529707"><ele>469.66666666666663</ele><time>2026-04-07T12:26:04Z</time></trkpt><trkpt lat="43.47062102932463" lon="2.8772600141418057"><ele>472.33333333333337</ele><time>2026-04-07T12:26:05Z</time></trkpt><trkpt lat="43.47078411113149" lon="2.877174559050299"><ele>475.0</ele><time>2026-04-07T12:26:06Z</time></trkpt><trkpt lat="43.470939038988476" lon="2.8770531671317583"><ele>475.0</ele><time>2026-04-07T12:26:07Z</time></trkpt><trkpt lat="43.47108259599792" lon="2.876908961551956"><ele>475.0</ele><time>2026-04-07T12:26:08Z</time></trkpt><trkpt lat="43.471209197992444" lon="2.8767477373790142"><ele>475.0</ele><time>2026-04-07T12:26:09Z</time></trkpt><trkpt lat="43.47132536551538" lon="2.876572371875692"><ele>475.0</ele><time>2026-04-07T12:26:10Z</time></trkpt><trkpt lat="43.471430980530734" lon="2.8763787916238686"><ele>475.0</ele><time>2026-04-07T12:26:11Z</time></trkpt><trkpt lat="43.471524603185905" lon="2.8761715511254824"><ele>475.0</ele><time>2026-04-07T12:26:12Z</time></trkpt><trkpt lat="43.471612350103086" lon="2.875961282269871"><ele>472.0</ele><time>2026-04-07T12:26:13Z</time></trkpt><trkpt lat="43.47170126099094" lon="2.8757515777694835"><ele>469.0</ele><time>2026-04-07T12:26:14Z</time></trkpt><trkpt lat="43.471791305630454" lon="2.8755421844839697"><ele>466.0</ele><time>2026-04-07T12:26:15Z</time></trkpt><trkpt lat="43.47188358262932" lon="2.8753347741826207"><ele>466.0</ele><time>2026-04-07T12:26:16Z</time></trkpt><trkpt lat="43.471970394348816" lon="2.8751271567340897"><ele>466.0</ele><time>2026-04-07T12:26:17Z</time></trkpt><trkpt lat="43.47205739787446" lon="2.8749195707326094"><ele>466.0</ele><time>2026-04-07T12:26:18Z</time></trkpt><trkpt lat="43.472146365200445" lon="2.874714812577756"><ele>469.33333333333337</ele><time>2026-04-07T12:26:18.999Z</time></trkpt><trkpt lat="43.472232563349664" lon="2.874510238150274"><ele>472.66666666666663</ele><time>2026-04-07T12:26:19.999Z</time></trkpt><trkpt lat="43.47231954576217" lon="2.8743122201013085"><ele>476.0</ele><time>2026-04-07T12:26:20.999Z</time></trkpt><trkpt lat="43.47240742961461" lon="2.874115834579324"><ele>476.0</ele><time>2026-04-07T12:26:21.999Z</time></trkpt><trkpt lat="43.47250050828553" lon="2.8739231570823356"><ele>476.0</ele><time>2026-04-07T12:26:22.999Z</time></trkpt><trkpt lat="43.47259423257779" lon="2.873740852194603"><ele>476.0</ele><time>2026-04-07T12:26:23.999Z</time></trkpt><trkpt lat="43.47269414224232" lon="2.873566796567473"><ele>478.0</ele><time>2026-04-07T12:26:24.999Z</time></trkpt><trkpt lat="43.472803363723834" lon="2.8734090972227677"><ele>480.0</ele><time>2026-04-07T12:26:25.999Z</time></trkpt><trkpt lat="43.472925625279466" lon="2.8732687774485606"><ele>482.0</ele><time>2026-04-07T12:26:26.999Z</time></trkpt><trkpt lat="43.4730646588354" lon="2.8731613344534805"><ele>485.0</ele><time>2026-04-07T12:26:27.999Z</time></trkpt><trkpt lat="43.4732125623128" lon="2.873085072290625"><ele>488.0</ele><time>2026-04-07T12:26:28.999Z</time></trkpt><trkpt lat="43.47336430484871" lon="2.8730266635066735"><ele>491.0</ele><time>2026-04-07T12:26:29.999Z</time></trkpt><trkpt lat="43.47351786053007" lon="2.872965933752458"><ele>491.0</ele><time>2026-04-07T12:26:30.999Z</time></trkpt><trkpt lat="43.473672993945186" lon="2.8729029282841902"><ele>491.0</ele><time>2026-04-07T12:26:31.999Z</time></trkpt><trkpt lat="43.47381696370452" lon="2.872839586680183"><ele>491.0</ele><time>2026-04-07T12:26:32.999Z</time></trkpt><trkpt lat="43.47395666958225" lon="2.8727490532978783"><ele>491.66666666666663</ele><time>2026-04-07T12:26:33.999Z</time></trkpt><trkpt lat="43.47408236688761" lon="2.8726153808092714"><ele>492.33333333333337</ele><time>2026-04-07T12:26:34.999Z</time></trkpt><trkpt lat="43.47418857207965" lon="2.8724656119496936"><ele>493.0</ele><time>2026-04-07T12:26:35.999Z</time></trkpt><trkpt lat="43.47427541051729" lon="2.872287181139689"><ele>493.0</ele><time>2026-04-07T12:26:36.999Z</time></trkpt><trkpt lat="43.47433770892233" lon="2.872084838886757"><ele>493.0</ele><time>2026-04-07T12:26:37.999Z</time></trkpt><trkpt lat="43.4743615083547" lon="2.8718697441971632"><ele>493.0</ele><time>2026-04-07T12:26:38.999Z</time></trkpt><trkpt lat="43.47437323311402" lon="2.8716683840723127"><ele>492.5</ele><time>2026-04-07T12:26:39.999Z</time></trkpt><trkpt lat="43.47437965062535" lon="2.8714656992364795"><ele>492.0</ele><time>2026-04-07T12:26:40.999Z</time></trkpt><trkpt lat="43.47438956444625" lon="2.871268754197707"><ele>491.5</ele><time>2026-04-07T12:26:41.999Z</time></trkpt><trkpt lat="43.47439931252543" lon="2.871067536798962"><ele>491.0</ele><time>2026-04-07T12:26:42.999Z</time></trkpt><trkpt lat="43.47440661435507" lon="2.8708681230999478"><ele>492.0</ele><time>2026-04-07T12:26:43.999Z</time></trkpt><trkpt lat="43.474417936313905" lon="2.870674762611193"><ele>493.0</ele><time>2026-04-07T12:26:44.999Z</time></trkpt><trkpt lat="43.47442422655132" lon="2.870485351514092"><ele>494.0</ele><time>2026-04-07T12:26:45.999Z</time></trkpt><trkpt lat="43.47442619106833" lon="2.870301366930005"><ele>495.0</ele><time>2026-04-07T12:26:46.999Z</time></trkpt><trkpt lat="43.474422840569616" lon="2.8701173194090153"><ele>496.0</ele><time>2026-04-07T12:26:47.999Z</time></trkpt><trkpt lat="43.47441126065194" lon="2.869945781274282"><ele>497.0</ele><time>2026-04-07T12:26:48.999Z</time></trkpt><trkpt lat="43.474388213177136" lon="2.869788060854869"><ele>498.0</ele><time>2026-04-07T12:26:49.999Z</time></trkpt><trkpt lat="43.474366736740855" lon="2.869594898323121"><ele>499.0</ele><time>2026-04-07T12:26:50.999Z</time></trkpt><trkpt lat="43.47433491163744" lon="2.869413241493028"><ele>502.0</ele><time>2026-04-07T12:26:51.999Z</time></trkpt><trkpt lat="43.47430562849133" lon="2.8692536699248476"><ele>505.0</ele><time>2026-04-07T12:26:52.999Z</time></trkpt><trkpt lat="43.474271220342175" lon="2.8691078140917012"><ele>508.0</ele><time>2026-04-07T12:26:53.999Z</time></trkpt><trkpt lat="43.47424928723193" lon="2.868968718612985"><ele>511.0</ele><time>2026-04-07T12:26:54.999Z</time></trkpt><trkpt lat="43.47424052095678" lon="2.868824762418284"><ele>514.0</ele><time>2026-04-07T12:26:55.999Z</time></trkpt><trkpt lat="43.47422571472316" lon="2.868678210572102"><ele>514.0</ele><time>2026-04-07T12:26:56.999Z</time></trkpt><trkpt lat="43.47420240841776" lon="2.8685663996480457"><ele>514.0</ele><time>2026-04-07T12:26:57.999Z</time></trkpt><trkpt lat="43.47400160937748" lon="2.868244102660542"><ele>514.0</ele><time>2026-04-07T12:26:58.999Z</time></trkpt><trkpt lat="43.473948350860645" lon="2.8680798046258884"><ele>516.0</ele><time>2026-04-07T12:26:59.999Z</time></trkpt><trkpt lat="43.47389520072496" lon="2.8679230819033266"><ele>518.0</ele><time>2026-04-07T12:27:00.999Z</time></trkpt><trkpt lat="43.47384351406382" lon="2.867763534629579"><ele>520.0</ele><time>2026-04-07T12:27:01.999Z</time></trkpt><trkpt lat="43.473789077238855" lon="2.8675986683645482"><ele>522.0</ele><time>2026-04-07T12:27:02.999Z</time></trkpt><trkpt lat="43.47373626608231" lon="2.86742928341582"><ele>522.25</ele><time>2026-04-07T12:27:03.999Z</time></trkpt><trkpt lat="43.473714535177606" lon="2.8672497682241076"><ele>522.5</ele><time>2026-04-07T12:27:04.999Z</time></trkpt><trkpt lat="43.47368404656857" lon="2.867068613971255"><ele>522.75</ele><time>2026-04-07T12:27:05.998Z</time></trkpt><trkpt lat="43.473698140110876" lon="2.866885477332333"><ele>523.0</ele><time>2026-04-07T12:27:06.998Z</time></trkpt><trkpt lat="43.47371018070743" lon="2.8667030972235965"><ele>523.5</ele><time>2026-04-07T12:27:07.998Z</time></trkpt><trkpt lat="43.47373177347499" lon="2.866518251918276"><ele>524.0</ele><time>2026-04-07T12:27:08.998Z</time></trkpt><trkpt lat="43.473747161910694" lon="2.8663348520165224"><ele>524.5</ele><time>2026-04-07T12:27:09.998Z</time></trkpt><trkpt lat="43.4737722813448" lon="2.8661514566110116"><ele>525.0</ele><time>2026-04-07T12:27:10.998Z</time></trkpt><trkpt lat="43.4737972647252" lon="2.865965310531342"><ele>526.25</ele><time>2026-04-07T12:27:11.998Z</time></trkpt><trkpt lat="43.473816495842954" lon="2.8657743199038785"><ele>527.5</ele><time>2026-04-07T12:27:12.998Z</time></trkpt><trkpt lat="43.47384184026811" lon="2.865584875445881"><ele>528.75</ele><time>2026-04-07T12:27:13.998Z</time></trkpt><trkpt lat="43.47382718495441" lon="2.8653922150572146"><ele>530.0</ele><time>2026-04-07T12:27:14.998Z</time></trkpt><trkpt lat="43.47380681544118" lon="2.8651988795390007"><ele>531.0</ele><time>2026-04-07T12:27:15.998Z</time></trkpt><trkpt lat="43.47377556588512" lon="2.865009267223259"><ele>532.0</ele><time>2026-04-07T12:27:16.998Z</time></trkpt><trkpt lat="43.47374706470069" lon="2.864812072194873"><ele>533.0</ele><time>2026-04-07T12:27:17.998Z</time></trkpt><trkpt lat="43.473710349865144" lon="2.864619415338222"><ele>534.0</ele><time>2026-04-07T12:27:18.998Z</time></trkpt><trkpt lat="43.47368287293925" lon="2.8644333807726605"><ele>530.75</ele><time>2026-04-07T12:27:19.998Z</time></trkpt><trkpt lat="43.47364949263588" lon="2.864236781755362"><ele>527.5</ele><time>2026-04-07T12:27:20.998Z</time></trkpt><trkpt lat="43.47362515381389" lon="2.8640515332672885"><ele>524.25</ele><time>2026-04-07T12:27:21.998Z</time></trkpt><trkpt lat="43.4735970095561" lon="2.86385652705048"><ele>521.0</ele><time>2026-04-07T12:27:22.998Z</time></trkpt><trkpt lat="43.47357151598973" lon="2.8636691537542376"><ele>521.0</ele><time>2026-04-07T12:27:23.998Z</time></trkpt><trkpt lat="43.4735502756316" lon="2.863468122680168"><ele>521.0</ele><time>2026-04-07T12:27:24.998Z</time></trkpt><trkpt lat="43.47352396043245" lon="2.8632743163407466"><ele>521.0</ele><time>2026-04-07T12:27:25.998Z</time></trkpt><trkpt lat="43.47349612150186" lon="2.863068178456669"><ele>521.0</ele><time>2026-04-07T12:27:26.998Z</time></trkpt><trkpt lat="43.47347586564628" lon="2.862870395465434"><ele>521.5</ele><time>2026-04-07T12:27:27.998Z</time></trkpt><trkpt lat="43.473448545405496" lon="2.8626734625200996"><ele>522.0</ele><time>2026-04-07T12:27:28.998Z</time></trkpt><trkpt lat="43.47342360406427" lon="2.862469727435579"><ele>522.5</ele><time>2026-04-07T12:27:29.998Z</time></trkpt><trkpt lat="43.47339421095926" lon="2.8622643552204368"><ele>523.0</ele><time>2026-04-07T12:27:30.998Z</time></trkpt><trkpt lat="43.47336051860829" lon="2.8620623199058537"><ele>523.5</ele><time>2026-04-07T12:27:31.998Z</time></trkpt><trkpt lat="43.47333374361414" lon="2.8618629568132485"><ele>524.0</ele><time>2026-04-07T12:27:32.998Z</time></trkpt><trkpt lat="43.473307086829124" lon="2.8616649244123322"><ele>524.5</ele><time>2026-04-07T12:27:33.998Z</time></trkpt><trkpt lat="43.47328400035929" lon="2.861477628723736"><ele>525.0</ele><time>2026-04-07T12:27:34.998Z</time></trkpt><trkpt lat="43.47326578889032" lon="2.861278244040799"><ele>526.0</ele><time>2026-04-07T12:27:35.998Z</time></trkpt><trkpt lat="43.47323532623499" lon="2.8610515303438335"><ele>527.0</ele><time>2026-04-07T12:27:36.998Z</time></trkpt><trkpt lat="43.47320350653895" lon="2.860767286955049"><ele>528.0</ele><time>2026-04-07T12:27:37.998Z</time></trkpt><trkpt lat="43.473167968712325" lon="2.860539247831617"><ele>528.0</ele><time>2026-04-07T12:27:38.998Z</time></trkpt><trkpt lat="43.4731506139541" lon="2.8604284338125403"><ele>528.0</ele><time>2026-04-07T12:27:39.998Z</time></trkpt><trkpt lat="43.473127754035424" lon="2.8602214959503782"><ele>528.0</ele><time>2026-04-07T12:27:40.998Z</time></trkpt><trkpt lat="43.47309525724733" lon="2.860000831450905"><ele>528.0</ele><time>2026-04-07T12:27:41.998Z</time></trkpt><trkpt lat="43.47307026722345" lon="2.859786215938932"><ele>528.6666666666666</ele><time>2026-04-07T12:27:42.998Z</time></trkpt><trkpt lat="43.47304244816245" lon="2.8595722287755128"><ele>529.3333333333333</ele><time>2026-04-07T12:27:43.998Z</time></trkpt><trkpt lat="43.47301073953326" lon="2.859365263712479"><ele>530.0</ele><time>2026-04-07T12:27:44.998Z</time></trkpt><trkpt lat="43.47298389493707" lon="2.8591389380510503"><ele>530.3333333333333</ele><time>2026-04-07T12:27:45.998Z</time></trkpt><trkpt lat="43.47295735528468" lon="2.8589160000728113"><ele>530.6666666666666</ele><time>2026-04-07T12:27:46.998Z</time></trkpt><trkpt lat="43.47293096867466" lon="2.858687692516094"><ele>531.0</ele><time>2026-04-07T12:27:47.998Z</time></trkpt><trkpt lat="43.472900371172436" lon="2.8584739571373454"><ele>530.3333333333334</ele><time>2026-04-07T12:27:49Z</time></trkpt><trkpt lat="43.47286406885126" lon="2.858247537772855"><ele>529.6666666666667</ele><time>2026-04-07T12:27:50Z</time></trkpt><trkpt lat="43.472839203314635" lon="2.858028379273374"><ele>529.0</ele><time>2026-04-07T12:27:51Z</time></trkpt><trkpt lat="43.47281283266416" lon="2.8578067278079704"><ele>529.0</ele><time>2026-04-07T12:27:52Z</time></trkpt><trkpt lat="43.472782345855926" lon="2.857581548195907"><ele>529.0</ele><time>2026-04-07T12:27:53Z</time></trkpt><trkpt lat="43.47275383468412" lon="2.857359723835161"><ele>529.0</ele><time>2026-04-07T12:27:54Z</time></trkpt><trkpt lat="43.47272561491242" lon="2.857131291036815"><ele>529.0</ele><time>2026-04-07T12:27:55Z</time></trkpt><trkpt lat="43.472693455163785" lon="2.856895964663509"><ele>529.0</ele><time>2026-04-07T12:27:56Z</time></trkpt><trkpt lat="43.472667933949026" lon="2.8566570519817316"><ele>529.0</ele><time>2026-04-07T12:27:57Z</time></trkpt><trkpt lat="43.47263712319475" lon="2.8564214964151122"><ele>529.6666666666667</ele><time>2026-04-07T12:27:58Z</time></trkpt><trkpt lat="43.47260772536346" lon="2.8561854482843887"><ele>530.3333333333334</ele><time>2026-04-07T12:27:59Z</time></trkpt><trkpt lat="43.47257398682806" lon="2.8559511508252005"><ele>531.0</ele><time>2026-04-07T12:28:00Z</time></trkpt><trkpt lat="43.4725420143044" lon="2.855714871989565"><ele>531.3333333333334</ele><time>2026-04-07T12:28:01Z</time></trkpt><trkpt lat="43.47250561490984" lon="2.855478254456568"><ele>531.6666666666667</ele><time>2026-04-07T12:28:02Z</time></trkpt><trkpt lat="43.472465720438265" lon="2.855243255840609"><ele>532.0</ele><time>2026-04-07T12:28:03Z</time></trkpt><trkpt lat="43.472449975027864" lon="2.8549996074627217"><ele>532.3333333333334</ele><time>2026-04-07T12:28:04Z</time></trkpt><trkpt lat="43.47241918142483" lon="2.854761060684607"><ele>532.6666666666666</ele><time>2026-04-07T12:28:05Z</time></trkpt><trkpt lat="43.472373090451214" lon="2.854522434906694"><ele>533.0</ele><time>2026-04-07T12:28:06Z</time></trkpt><trkpt lat="43.47234066557436" lon="2.8542656310661494"><ele>533.0</ele><time>2026-04-07T12:28:07Z</time></trkpt><trkpt lat="43.47230786109578" lon="2.854008668235019"><ele>533.0</ele><time>2026-04-07T12:28:08Z</time></trkpt><trkpt lat="43.47227488183371" lon="2.853755389095087"><ele>533.0</ele><time>2026-04-07T12:28:09Z</time></trkpt><trkpt lat="43.47224341114963" lon="2.8535013387660615"><ele>534.0</ele><time>2026-04-07T12:28:10Z</time></trkpt><trkpt lat="43.472209644960444" lon="2.8532533654997576"><ele>535.0</ele><time>2026-04-07T12:28:11Z</time></trkpt><trkpt lat="43.47217531062434" lon="2.8530074579137996"><ele>536.0</ele><time>2026-04-07T12:28:12Z</time></trkpt><trkpt lat="43.47214450024196" lon="2.85277141992621"><ele>536.0</ele><time>2026-04-07T12:28:13Z</time></trkpt><trkpt lat="43.47211526980504" lon="2.8525451204886463"><ele>536.0</ele><time>2026-04-07T12:28:14Z</time></trkpt><trkpt lat="43.472094371570094" lon="2.8522982834818404"><ele>536.0</ele><time>2026-04-07T12:28:15Z</time></trkpt><trkpt lat="43.47206012858118" lon="2.852055044699369"><ele>536.3333333333333</ele><time>2026-04-07T12:28:16Z</time></trkpt><trkpt lat="43.472021399907284" lon="2.851804490894653"><ele>536.6666666666666</ele><time>2026-04-07T12:28:17Z</time></trkpt><trkpt lat="43.471988866305665" lon="2.851554042478875"><ele>537.0</ele><time>2026-04-07T12:28:18Z</time></trkpt><trkpt lat="43.47195790411657" lon="2.851306057813957"><ele>537.0</ele><time>2026-04-07T12:28:19Z</time></trkpt><trkpt lat="43.47192386128213" lon="2.851063699672099"><ele>537.0</ele><time>2026-04-07T12:28:20Z</time></trkpt><trkpt lat="43.47190779657097" lon="2.8508139044433736"><ele>537.0</ele><time>2026-04-07T12:28:21Z</time></trkpt><trkpt lat="43.47187691866279" lon="2.8505700053932785"><ele>537.6666666666666</ele><time>2026-04-07T12:28:22Z</time></trkpt><trkpt lat="43.47184547871735" lon="2.8503247903218067"><ele>538.3333333333333</ele><time>2026-04-07T12:28:23Z</time></trkpt><trkpt lat="43.47179681610419" lon="2.850081689939883"><ele>539.0</ele><time>2026-04-07T12:28:24Z</time></trkpt><trkpt lat="43.471766054914184" lon="2.849841679082506"><ele>539.3333333333333</ele><time>2026-04-07T12:28:24.999Z</time></trkpt><trkpt lat="43.47173132380549" lon="2.8496007492934816"><ele>539.6666666666666</ele><time>2026-04-07T12:28:25.999Z</time></trkpt><trkpt lat="43.471696719933135" lon="2.8493587992934324"><ele>540.0</ele><time>2026-04-07T12:28:26.999Z</time></trkpt><trkpt lat="43.471674323004855" lon="2.8491127649054566"><ele>540.6666666666666</ele><time>2026-04-07T12:28:27.999Z</time></trkpt><trkpt lat="43.471642404661175" lon="2.84888497051917"><ele>541.3333333333333</ele><time>2026-04-07T12:28:28.999Z</time></trkpt><trkpt lat="43.47161099639861" lon="2.8486466266808357"><ele>542.0</ele><time>2026-04-07T12:28:29.999Z</time></trkpt><trkpt lat="43.471584015932194" lon="2.8484160694026137"><ele>543.0</ele><time>2026-04-07T12:28:30.999Z</time></trkpt><trkpt lat="43.47155292266828" lon="2.8481793678859137"><ele>544.0</ele><time>2026-04-07T12:28:31.999Z</time></trkpt><trkpt lat="43.47152266242418" lon="2.8479492859575264"><ele>545.0</ele><time>2026-04-07T12:28:32.999Z</time></trkpt><trkpt lat="43.47150072875522" lon="2.847712274829917"><ele>546.6666666666666</ele><time>2026-04-07T12:28:33.999Z</time></trkpt><trkpt lat="43.4714553800187" lon="2.847478787313187"><ele>548.3333333333334</ele><time>2026-04-07T12:28:34.999Z</time></trkpt><trkpt lat="43.471424432928536" lon="2.847248359181205"><ele>550.0</ele><time>2026-04-07T12:28:35.999Z</time></trkpt><trkpt lat="43.471410341883306" lon="2.847017713369115"><ele>550.0</ele><time>2026-04-07T12:28:36.999Z</time></trkpt><trkpt lat="43.4713659016904" lon="2.846796443950056"><ele>550.0</ele><time>2026-04-07T12:28:37.999Z</time></trkpt><trkpt lat="43.47135119134323" lon="2.8465632059517856"><ele>550.0</ele><time>2026-04-07T12:28:38.999Z</time></trkpt><trkpt lat="43.47132098704477" lon="2.8463398506931727"><ele>549.3333333333334</ele><time>2026-04-07T12:28:39.999Z</time></trkpt><trkpt lat="43.471290896663234" lon="2.8461173378983298"><ele>548.6666666666666</ele><time>2026-04-07T12:28:40.999Z</time></trkpt><trkpt lat="43.47124293461671" lon="2.845890271812726"><ele>548.0</ele><time>2026-04-07T12:28:41.999Z</time></trkpt><trkpt lat="43.4712109396109" lon="2.8456571146848755"><ele>548.0</ele><time>2026-04-07T12:28:42.999Z</time></trkpt><trkpt lat="43.4711845040437" lon="2.8454400846359116"><ele>548.0</ele><time>2026-04-07T12:28:43.999Z</time></trkpt><trkpt lat="43.471150591742536" lon="2.8452060909239556"><ele>548.0</ele><time>2026-04-07T12:28:44.999Z</time></trkpt><trkpt lat="43.47112189831325" lon="2.8449736614651044"><ele>550.0</ele><time>2026-04-07T12:28:45.999Z</time></trkpt><trkpt lat="43.47108720896679" lon="2.8447487124954214"><ele>552.0</ele><time>2026-04-07T12:28:46.999Z</time></trkpt><trkpt lat="43.47105802067746" lon="2.8445199398699264"><ele>554.0</ele><time>2026-04-07T12:28:47.999Z</time></trkpt><trkpt lat="43.471031190790114" lon="2.8442901486021874"><ele>555.3333333333333</ele><time>2026-04-07T12:28:48.999Z</time></trkpt><trkpt lat="43.4709974483688" lon="2.844069383356723"><ele>556.6666666666666</ele><time>2026-04-07T12:28:49.999Z</time></trkpt><trkpt lat="43.47096734055463" lon="2.8438365157603576"><ele>558.0</ele><time>2026-04-07T12:28:50.999Z</time></trkpt><trkpt lat="43.4709365695787" lon="2.8436041572954034"><ele>559.6666666666666</ele><time>2026-04-07T12:28:51.999Z</time></trkpt><trkpt lat="43.470899875263" lon="2.84337789061001"><ele>561.3333333333333</ele><time>2026-04-07T12:28:52.999Z</time></trkpt><trkpt lat="43.47087892914878" lon="2.843144233982494"><ele>563.0</ele><time>2026-04-07T12:28:53.999Z</time></trkpt><trkpt lat="43.47084492905745" lon="2.842919975852155"><ele>563.0</ele><time>2026-04-07T12:28:54.999Z</time></trkpt><trkpt lat="43.47080845011352" lon="2.8426720204649123"><ele>563.0</ele><time>2026-04-07T12:28:55.999Z</time></trkpt><trkpt lat="43.47077732116599" lon="2.842437142855608"><ele>563.0</ele><time>2026-04-07T12:28:56.999Z</time></trkpt><trkpt lat="43.47074636974874" lon="2.842206531754829"><ele>563.6666666666666</ele><time>2026-04-07T12:28:57.999Z</time></trkpt><trkpt lat="43.47072211950397" lon="2.8419671188483067"><ele>564.3333333333334</ele><time>2026-04-07T12:28:58.999Z</time></trkpt><trkpt lat="43.470707283442806" lon="2.8417266052909724"><ele>565.0</ele><time>2026-04-07T12:28:59.999Z</time></trkpt><trkpt lat="43.47070207208059" lon="2.841478319398597"><ele>565.3333333333334</ele><time>2026-04-07T12:29:00.999Z</time></trkpt><trkpt lat="43.47072717659739" lon="2.8412301848093673"><ele>565.6666666666666</ele><time>2026-04-07T12:29:01.999Z</time></trkpt><trkpt lat="43.470784435072424" lon="2.8409889935442987"><ele>566.0</ele><time>2026-04-07T12:29:02.999Z</time></trkpt><trkpt lat="43.470854334547184" lon="2.8407316812640113"><ele>566.3333333333333</ele><time>2026-04-07T12:29:03.999Z</time></trkpt><trkpt lat="43.470939152973756" lon="2.8404794840562637"><ele>566.6666666666666</ele><time>2026-04-07T12:29:04.999Z</time></trkpt><trkpt lat="43.47103470099281" lon="2.840216283994072"><ele>567.0</ele><time>2026-04-07T12:29:05.999Z</time></trkpt><trkpt lat="43.471141704618994" lon="2.839945108477057"><ele>569.5</ele><time>2026-04-07T12:29:06.999Z</time></trkpt><trkpt lat="43.471245959541505" lon="2.839655200682663"><ele>572.0</ele><time>2026-04-07T12:29:07.999Z</time></trkpt><trkpt lat="43.47134352888108" lon="2.8393642794935707"><ele>568.5</ele><time>2026-04-07T12:29:08.999Z</time></trkpt><trkpt lat="43.47141885411221" lon="2.8390411072466004"><ele>565.0</ele><time>2026-04-07T12:29:09.999Z</time></trkpt><trkpt lat="43.47146075849247" lon="2.838703913083177"><ele>564.0</ele><time>2026-04-07T12:29:10.999Z</time></trkpt><trkpt lat="43.47145600197814" lon="2.838342500160025"><ele>563.0</ele><time>2026-04-07T12:29:11.998Z</time></trkpt><trkpt lat="43.471415808667786" lon="2.8379982741012477"><ele>563.0</ele><time>2026-04-07T12:29:12.998Z</time></trkpt><trkpt lat="43.4713457311174" lon="2.83764552834502"><ele>563.0</ele><time>2026-04-07T12:29:13.998Z</time></trkpt><trkpt lat="43.47125463441809" lon="2.837302509271245"><ele>555.0</ele><time>2026-04-07T12:29:14.998Z</time></trkpt><trkpt lat="43.4711695261467" lon="2.8369568773668186"><ele>547.0</ele><time>2026-04-07T12:29:15.998Z</time></trkpt><trkpt lat="43.47107362313976" lon="2.8365938597848133"><ele>546.0</ele><time>2026-04-07T12:29:16.998Z</time></trkpt><trkpt lat="43.470989428195466" lon="2.8362416989578345"><ele>545.0</ele><time>2026-04-07T12:29:17.998Z</time></trkpt><trkpt lat="43.47090064541555" lon="2.835885533565522"><ele>544.0</ele><time>2026-04-07T12:29:18.998Z</time></trkpt><trkpt lat="43.470809509465006" lon="2.8355275117487158"><ele>543.0</ele><time>2026-04-07T12:29:19.998Z</time></trkpt><trkpt lat="43.47072244331952" lon="2.8351715658206356"><ele>543.0</ele><time>2026-04-07T12:29:20.998Z</time></trkpt><trkpt lat="43.4706318890471" lon="2.83480955924891"><ele>543.0</ele><time>2026-04-07T12:29:21.998Z</time></trkpt><trkpt lat="43.47054431040294" lon="2.834447266324389"><ele>545.0</ele><time>2026-04-07T12:29:22.998Z</time></trkpt><trkpt lat="43.470461156573464" lon="2.834080525670166"><ele>547.0</ele><time>2026-04-07T12:29:23.998Z</time></trkpt><trkpt lat="43.47041349161785" lon="2.8337023855765024"><ele>539.0</ele><time>2026-04-07T12:29:24.998Z</time></trkpt><trkpt lat="43.470384200845615" lon="2.8333238902912323"><ele>531.0</ele><time>2026-04-07T12:29:25.998Z</time></trkpt><trkpt lat="43.4703781305553" lon="2.8329401012709305"><ele>530.5</ele><time>2026-04-07T12:29:26.998Z</time></trkpt><trkpt lat="43.47037282448063" lon="2.832559575742628"><ele>530.0</ele><time>2026-04-07T12:29:27.998Z</time></trkpt><trkpt lat="43.4703559418941" lon="2.8321769934381793"><ele>529.5</ele><time>2026-04-07T12:29:28.998Z</time></trkpt><trkpt lat="43.470329071139034" lon="2.831800459292675"><ele>529.0</ele><time>2026-04-07T12:29:29.998Z</time></trkpt><trkpt lat="43.470261772276125" lon="2.831432473278885"><ele>529.0</ele><time>2026-04-07T12:29:30.998Z</time></trkpt><trkpt lat="43.470167656252166" lon="2.8310775961022916"><ele>529.0</ele><time>2026-04-07T12:29:31.998Z</time></trkpt><trkpt lat="43.470027285713755" lon="2.8307569924792237"><ele>528.0</ele><time>2026-04-07T12:29:32.998Z</time></trkpt><trkpt lat="43.469882202671094" lon="2.830448095766504"><ele>527.0</ele><time>2026-04-07T12:29:33.998Z</time></trkpt><trkpt lat="43.469773954504916" lon="2.8301398696669993"><ele>529.0</ele><time>2026-04-07T12:29:34.998Z</time></trkpt><trkpt lat="43.46970440971493" lon="2.829827596686007"><ele>531.0</ele><time>2026-04-07T12:29:35.998Z</time></trkpt><trkpt lat="43.469695064708496" lon="2.82951532803238"><ele>529.6666666666666</ele><time>2026-04-07T12:29:36.998Z</time></trkpt><trkpt lat="43.469718798474425" lon="2.829205112319738"><ele>528.3333333333333</ele><time>2026-04-07T12:29:37.998Z</time></trkpt><trkpt lat="43.46976756871123" lon="2.8289160406812743"><ele>527.0</ele><time>2026-04-07T12:29:38.998Z</time></trkpt><trkpt lat="43.469796951345955" lon="2.8286442872521174"><ele>526.0</ele><time>2026-04-07T12:29:39.998Z</time></trkpt><trkpt lat="43.469809647504015" lon="2.8283804800615715"><ele>525.0</ele><time>2026-04-07T12:29:40.998Z</time></trkpt><trkpt lat="43.46981552020927" lon="2.8281435428940553"><ele>524.0</ele><time>2026-04-07T12:29:41.998Z</time></trkpt><trkpt lat="43.46980958586106" lon="2.827921843125026"><ele>524.0</ele><time>2026-04-07T12:29:42.998Z</time></trkpt><trkpt lat="43.469785204389815" lon="2.8277077775858492"><ele>524.0</ele><time>2026-04-07T12:29:43.998Z</time></trkpt><trkpt lat="43.469739600276434" lon="2.827503503527751"><ele>524.0</ele><time>2026-04-07T12:29:44.998Z</time></trkpt><trkpt lat="43.46967418376538" lon="2.827312067224627"><ele>524.5</ele><time>2026-04-07T12:29:45.998Z</time></trkpt><trkpt lat="43.469598034445326" lon="2.827139169278296"><ele>525.0</ele><time>2026-04-07T12:29:46.998Z</time></trkpt><trkpt lat="43.4695036736032" lon="2.826983185422199"><ele>525.5</ele><time>2026-04-07T12:29:47.998Z</time></trkpt><trkpt lat="43.4693941526071" lon="2.8268525927631836"><ele>526.0</ele><time>2026-04-07T12:29:48.998Z</time></trkpt><trkpt lat="43.46928533938594" lon="2.8267225719903624"><ele>524.0</ele><time>2026-04-07T12:29:49.998Z</time></trkpt><trkpt lat="43.46918148769767" lon="2.826589831311739"><ele>522.0</ele><time>2026-04-07T12:29:50.998Z</time></trkpt><trkpt lat="43.469079678541135" lon="2.826457448436607"><ele>520.0</ele><time>2026-04-07T12:29:51.998Z</time></trkpt><trkpt lat="43.468976565213964" lon="2.8263349181973125"><ele>518.0</ele><time>2026-04-07T12:29:52.998Z</time></trkpt><trkpt lat="43.468879421995716" lon="2.8262030706316503"><ele>518.0</ele><time>2026-04-07T12:29:53.998Z</time></trkpt><trkpt lat="43.46878889687425" lon="2.826066349956012"><ele>518.0</ele><time>2026-04-07T12:29:55Z</time></trkpt><trkpt lat="43.46870620126034" lon="2.825915573626771"><ele>518.0</ele><time>2026-04-07T12:29:56Z</time></trkpt><trkpt lat="43.468646242933865" lon="2.82574752427797"><ele>518.0</ele><time>2026-04-07T12:29:57Z</time></trkpt><trkpt lat="43.468595827929896" lon="2.8255707216528125"><ele>516.75</ele><time>2026-04-07T12:29:58Z</time></trkpt><trkpt lat="43.46855248307969" lon="2.82539731737067"><ele>515.5</ele><time>2026-04-07T12:29:59Z</time></trkpt><trkpt lat="43.46851067404479" lon="2.8252221084267486"><ele>514.25</ele><time>2026-04-07T12:30:00Z</time></trkpt><trkpt lat="43.46846532049622" lon="2.8250494680065135"><ele>513.0</ele><time>2026-04-07T12:30:01Z</time></trkpt><trkpt lat="43.46842103924821" lon="2.824878940289083"><ele>513.0</ele><time>2026-04-07T12:30:02Z</time></trkpt><trkpt lat="43.468381159519794" lon="2.824714584026274"><ele>513.0</ele><time>2026-04-07T12:30:03Z</time></trkpt><trkpt lat="43.46832960318085" lon="2.824545248598247"><ele>513.0</ele><time>2026-04-07T12:30:04Z</time></trkpt><trkpt lat="43.46828750455031" lon="2.824390068789389"><ele>513.0</ele><time>2026-04-07T12:30:05Z</time></trkpt><trkpt lat="43.468247400289314" lon="2.824231020414766"><ele>511.5</ele><time>2026-04-07T12:30:06Z</time></trkpt><trkpt lat="43.468204769966654" lon="2.8240702208363047"><ele>510.0</ele><time>2026-04-07T12:30:07Z</time></trkpt><trkpt lat="43.46816130718613" lon="2.823901902851839"><ele>508.5</ele><time>2026-04-07T12:30:08Z</time></trkpt><trkpt lat="43.468106741270404" lon="2.82370505209679"><ele>507.0</ele><time>2026-04-07T12:30:09Z</time></trkpt><trkpt lat="43.468050569173656" lon="2.823494916137127"><ele>508.33333333333337</ele><time>2026-04-07T12:30:10Z</time></trkpt><trkpt lat="43.46798530269858" lon="2.8232703342499743"><ele>509.6666666666667</ele><time>2026-04-07T12:30:11Z</time></trkpt><trkpt lat="43.46791749302029" lon="2.8230318515020585"><ele>511.0</ele><time>2026-04-07T12:30:12Z</time></trkpt><trkpt lat="43.46788853103055" lon="2.8227665041088166"><ele>511.6666666666667</ele><time>2026-04-07T12:30:13Z</time></trkpt><trkpt lat="43.467886625157924" lon="2.822485808884574"><ele>512.3333333333334</ele><time>2026-04-07T12:30:14Z</time></trkpt><trkpt lat="43.46792705618873" lon="2.822197189659197"><ele>513.0</ele><time>2026-04-07T12:30:15Z</time></trkpt><trkpt lat="43.46800080909038" lon="2.8219068128741354"><ele>508.0</ele><time>2026-04-07T12:30:16Z</time></trkpt><trkpt lat="43.46809773407282" lon="2.821620025458943"><ele>503.0</ele><time>2026-04-07T12:30:17Z</time></trkpt><trkpt lat="43.46822686940578" lon="2.8213479204815846"><ele>503.0</ele><time>2026-04-07T12:30:18Z</time></trkpt><trkpt lat="43.46835246699725" lon="2.8210631737814076"><ele>503.0</ele><time>2026-04-07T12:30:19Z</time></trkpt><trkpt lat="43.46847504865401" lon="2.820778980957414"><ele>501.0</ele><time>2026-04-07T12:30:20Z</time></trkpt><trkpt lat="43.4685855930132" lon="2.8205108679037147"><ele>499.0</ele><time>2026-04-07T12:30:21Z</time></trkpt><trkpt lat="43.46868474789954" lon="2.8202414102974"><ele>497.0</ele><time>2026-04-07T12:30:22Z</time></trkpt><trkpt lat="43.4687740013772" lon="2.819980679393237"><ele>497.0</ele><time>2026-04-07T12:30:23Z</time></trkpt><trkpt lat="43.46883226511465" lon="2.819706688142635"><ele>497.0</ele><time>2026-04-07T12:30:24Z</time></trkpt><trkpt lat="43.46886139066349" lon="2.8194279149046317"><ele>497.0</ele><time>2026-04-07T12:30:25Z</time></trkpt><trkpt lat="43.46885056477266" lon="2.8191535544316135"><ele>497.0</ele><time>2026-04-07T12:30:26Z</time></trkpt><trkpt lat="43.46881594530911" lon="2.8188746129774156"><ele>497.0</ele><time>2026-04-07T12:30:27Z</time></trkpt><trkpt lat="43.468750058563785" lon="2.818618376123794"><ele>497.0</ele><time>2026-04-07T12:30:28Z</time></trkpt><trkpt lat="43.468666811343354" lon="2.8183862583562096"><ele>493.66666666666663</ele><time>2026-04-07T12:30:29Z</time></trkpt><trkpt lat="43.46856480483673" lon="2.818154369619278"><ele>490.33333333333337</ele><time>2026-04-07T12:30:30Z</time></trkpt><trkpt lat="43.46846321351765" lon="2.8179188444654217"><ele>487.0</ele><time>2026-04-07T12:30:31Z</time></trkpt><trkpt lat="43.46835539020133" lon="2.81768685308384"><ele>485.6666666666667</ele><time>2026-04-07T12:30:32Z</time></trkpt><trkpt lat="43.46825524358623" lon="2.8174603845682276"><ele>484.33333333333337</ele><time>2026-04-07T12:30:33Z</time></trkpt><trkpt lat="43.46815716726544" lon="2.817213403022837"><ele>483.0</ele><time>2026-04-07T12:30:34Z</time></trkpt><trkpt lat="43.468063732930986" lon="2.8169657156269565"><ele>484.33333333333337</ele><time>2026-04-07T12:30:35Z</time></trkpt><trkpt lat="43.467969328082155" lon="2.816714073305819"><ele>485.6666666666667</ele><time>2026-04-07T12:30:35.999Z</time></trkpt><trkpt lat="43.46788362638607" lon="2.816456993219524"><ele>487.0</ele><time>2026-04-07T12:30:36.999Z</time></trkpt><trkpt lat="43.467808381167956" lon="2.8161931293731235"><ele>481.0</ele><time>2026-04-07T12:30:37.999Z</time></trkpt><trkpt lat="43.467740630486546" lon="2.815930116553249"><ele>475.0</ele><time>2026-04-07T12:30:38.999Z</time></trkpt><trkpt lat="43.467682783690904" lon="2.8156597999630795"><ele>469.0</ele><time>2026-04-07T12:30:39.999Z</time></trkpt><trkpt lat="43.467631552551985" lon="2.815388702956443"><ele>468.0</ele><time>2026-04-07T12:30:40.999Z</time></trkpt><trkpt lat="43.46759465543803" lon="2.8151188079182177"><ele>467.0</ele><time>2026-04-07T12:30:41.999Z</time></trkpt><trkpt lat="43.46756053096003" lon="2.8148447360131046"><ele>466.0</ele><time>2026-04-07T12:30:42.999Z</time></trkpt><trkpt lat="43.4675389804567" lon="2.814570159798956"><ele>466.0</ele><time>2026-04-07T12:30:43.999Z</time></trkpt><trkpt lat="43.46752593501094" lon="2.8142921581401508"><ele>466.0</ele><time>2026-04-07T12:30:44.999Z</time></trkpt><trkpt lat="43.46752031557486" lon="2.814005574960564"><ele>466.0</ele><time>2026-04-07T12:30:45.999Z</time></trkpt><trkpt lat="43.46752156752211" lon="2.813708495590539"><ele>466.33333333333337</ele><time>2026-04-07T12:30:46.999Z</time></trkpt><trkpt lat="43.46751876237975" lon="2.813411460519579"><ele>466.66666666666663</ele><time>2026-04-07T12:30:47.999Z</time></trkpt><trkpt lat="43.46751464755285" lon="2.8131271430546994"><ele>467.0</ele><time>2026-04-07T12:30:48.999Z</time></trkpt><trkpt lat="43.46750749486276" lon="2.8128395968889413"><ele>466.3333333333333</ele><time>2026-04-07T12:30:49.999Z</time></trkpt><trkpt lat="43.46750254721141" lon="2.8125590151129614"><ele>465.66666666666663</ele><time>2026-04-07T12:30:50.999Z</time></trkpt><trkpt lat="43.46749740474229" lon="2.812281664426665"><ele>465.0</ele><time>2026-04-07T12:30:51.999Z</time></trkpt><trkpt lat="43.46749402437796" lon="2.811997453681001"><ele>464.66666666666663</ele><time>2026-04-07T12:30:52.999Z</time></trkpt><trkpt lat="43.467492564486996" lon="2.811713669374717"><ele>464.3333333333333</ele><time>2026-04-07T12:30:53.999Z</time></trkpt><trkpt lat="43.467488255694036" lon="2.811434598114708"><ele>464.0</ele><time>2026-04-07T12:30:54.999Z</time></trkpt><trkpt lat="43.46747383153946" lon="2.8111517659350036"><ele>464.3333333333333</ele><time>2026-04-07T12:30:55.999Z</time></trkpt><trkpt lat="43.467455029394124" lon="2.81087035311967"><ele>464.66666666666663</ele><time>2026-04-07T12:30:56.999Z</time></trkpt><trkpt lat="43.467428009672346" lon="2.8105873365946987"><ele>465.0</ele><time>2026-04-07T12:30:57.999Z</time></trkpt><trkpt lat="43.46738907608195" lon="2.8103046266917917"><ele>464.0</ele><time>2026-04-07T12:30:58.999Z</time></trkpt><trkpt lat="43.467338443439395" lon="2.8100224010097876"><ele>463.0</ele><time>2026-04-07T12:30:59.999Z</time></trkpt><trkpt lat="43.46729200040842" lon="2.809741927257908"><ele>462.0</ele><time>2026-04-07T12:31:00.999Z</time></trkpt><trkpt lat="43.4672487689277" lon="2.8094636346900588"><ele>461.0</ele><time>2026-04-07T12:31:01.999Z</time></trkpt><trkpt lat="43.467202701501314" lon="2.8091789428816454"><ele>460.0</ele><time>2026-04-07T12:31:02.999Z</time></trkpt><trkpt lat="43.46715985457474" lon="2.808899577987986"><ele>459.0</ele><time>2026-04-07T12:31:03.999Z</time></trkpt><trkpt lat="43.46711758084855" lon="2.808627163864564"><ele>458.0</ele><time>2026-04-07T12:31:04.999Z</time></trkpt><trkpt lat="43.4670799085179" lon="2.808354342687387"><ele>457.0</ele><time>2026-04-07T12:31:05.999Z</time></trkpt><trkpt lat="43.46704153548556" lon="2.808073337535211"><ele>456.0</ele><time>2026-04-07T12:31:06.999Z</time></trkpt><trkpt lat="43.46701933970603" lon="2.807800087989308"><ele>454.33333333333337</ele><time>2026-04-07T12:31:07.999Z</time></trkpt><trkpt lat="43.46700313264103" lon="2.807524798374579"><ele>452.6666666666667</ele><time>2026-04-07T12:31:08.999Z</time></trkpt><trkpt lat="43.46698852268069" lon="2.807246125400482"><ele>451.0</ele><time>2026-04-07T12:31:09.999Z</time></trkpt><trkpt lat="43.46697002826765" lon="2.8069576504709004"><ele>450.33333333333337</ele><time>2026-04-07T12:31:10.999Z</time></trkpt><trkpt lat="43.46695370542442" lon="2.806679328251091"><ele>449.66666666666663</ele><time>2026-04-07T12:31:11.999Z</time></trkpt><trkpt lat="43.46692623999661" lon="2.806386248766643"><ele>449.0</ele><time>2026-04-07T12:31:12.999Z</time></trkpt><trkpt lat="43.46690838555774" lon="2.806093945962852"><ele>448.66666666666663</ele><time>2026-04-07T12:31:13.999Z</time></trkpt><trkpt lat="43.46688974455826" lon="2.8058101397796333"><ele>448.33333333333337</ele><time>2026-04-07T12:31:14.999Z</time></trkpt><trkpt lat="43.46687454498608" lon="2.8055332997740283"><ele>448.0</ele><time>2026-04-07T12:31:15.999Z</time></trkpt><trkpt lat="43.46686180285868" lon="2.8052659543953937"><ele>448.6666666666667</ele><time>2026-04-07T12:31:16.999Z</time></trkpt><trkpt lat="43.46684646066614" lon="2.805004244276073"><ele>449.33333333333337</ele><time>2026-04-07T12:31:17.999Z</time></trkpt><trkpt lat="43.46682680541844" lon="2.804744234515998"><ele>450.0</ele><time>2026-04-07T12:31:18.999Z</time></trkpt><trkpt lat="43.4668129773337" lon="2.8044898038744126"><ele>450.66666666666663</ele><time>2026-04-07T12:31:19.999Z</time></trkpt><trkpt lat="43.46678765531738" lon="2.8042407926859325"><ele>451.3333333333333</ele><time>2026-04-07T12:31:20.999Z</time></trkpt><trkpt lat="43.466742852884806" lon="2.8039907980990075"><ele>452.0</ele><time>2026-04-07T12:31:21.999Z</time></trkpt><trkpt lat="43.466664062959126" lon="2.8037151036579577"><ele>451.0</ele><time>2026-04-07T12:31:22.998Z</time></trkpt><trkpt lat="43.46653938250704" lon="2.80344915292586"><ele>450.0</ele><time>2026-04-07T12:31:23.998Z</time></trkpt><trkpt lat="43.466396142278974" lon="2.8032257764141497"><ele>449.0</ele><time>2026-04-07T12:31:24.998Z</time></trkpt><trkpt lat="43.466233044796525" lon="2.8030228814918914"><ele>447.0</ele><time>2026-04-07T12:31:25.998Z</time></trkpt><trkpt lat="43.466057732671246" lon="2.8028411661848573"><ele>445.0</ele><time>2026-04-07T12:31:26.998Z</time></trkpt><trkpt lat="43.465901536030145" lon="2.802682652372293"><ele>443.0</ele><time>2026-04-07T12:31:27.998Z</time></trkpt><trkpt lat="43.465756911855564" lon="2.8025407540405323"><ele>441.75</ele><time>2026-04-07T12:31:28.998Z</time></trkpt><trkpt lat="43.46563866263118" lon="2.8023884267642223"><ele>440.5</ele><time>2026-04-07T12:31:29.998Z</time></trkpt><trkpt lat="43.46553745173477" lon="2.8022369231805544"><ele>439.25</ele><time>2026-04-07T12:31:30.998Z</time></trkpt><trkpt lat="43.465467179690826" lon="2.802101836421728"><ele>438.0</ele><time>2026-04-07T12:31:31.998Z</time></trkpt><trkpt lat="43.465417204159685" lon="2.80196629453317"><ele>435.5</ele><time>2026-04-07T12:31:32.998Z</time></trkpt><trkpt lat="43.46537025364806" lon="2.801819057320287"><ele>433.0</ele><time>2026-04-07T12:31:33.998Z</time></trkpt><trkpt lat="43.46533720689725" lon="2.801655115475571"><ele>430.5</ele><time>2026-04-07T12:31:34.998Z</time></trkpt><trkpt lat="43.46531440752165" lon="2.8014862385567803"><ele>428.0</ele><time>2026-04-07T12:31:35.998Z</time></trkpt><trkpt lat="43.46530365728923" lon="2.801310066669423"><ele>428.0</ele><time>2026-04-07T12:31:36.998Z</time></trkpt><trkpt lat="43.46530624620247" lon="2.80111467475031"><ele>428.0</ele><time>2026-04-07T12:31:37.998Z</time></trkpt><trkpt lat="43.46532807199882" lon="2.800919895808069"><ele>428.0</ele><time>2026-04-07T12:31:38.998Z</time></trkpt><trkpt lat="43.46536636612966" lon="2.8007326221891855"><ele>428.0</ele><time>2026-04-07T12:31:39.998Z</time></trkpt><trkpt lat="43.465426626734164" lon="2.8005536071161448"><ele>429.75</ele><time>2026-04-07T12:31:40.998Z</time></trkpt><trkpt lat="43.465503341713614" lon="2.800384538759822"><ele>431.5</ele><time>2026-04-07T12:31:41.998Z</time></trkpt><trkpt lat="43.46559279247193" lon="2.8002495148140887"><ele>433.25</ele><time>2026-04-07T12:31:42.998Z</time></trkpt><trkpt lat="43.465682407426144" lon="2.800137373537821"><ele>435.0</ele><time>2026-04-07T12:31:43.998Z</time></trkpt><trkpt lat="43.46577773588159" lon="2.8000478453321747"><ele>430.75</ele><time>2026-04-07T12:31:44.998Z</time></trkpt><trkpt lat="43.46587252647606" lon="2.799970227622981"><ele>426.5</ele><time>2026-04-07T12:31:45.998Z</time></trkpt><trkpt lat="43.46597910536665" lon="2.7999008542345516"><ele>422.25</ele><time>2026-04-07T12:31:46.998Z</time></trkpt><trkpt lat="43.46609321858773" lon="2.7998501076549003"><ele>418.0</ele><time>2026-04-07T12:31:47.998Z</time></trkpt><trkpt lat="43.466217479009785" lon="2.799818850489716"><ele>420.0</ele><time>2026-04-07T12:31:48.998Z</time></trkpt><trkpt lat="43.46634053762641" lon="2.799795753011145"><ele>422.0</ele><time>2026-04-07T12:31:49.998Z</time></trkpt><trkpt lat="43.46647053098901" lon="2.799755030956449"><ele>424.0</ele><time>2026-04-07T12:31:50.998Z</time></trkpt><trkpt lat="43.4665985349639" lon="2.7997100230831227"><ele>426.0</ele><time>2026-04-07T12:31:51.998Z</time></trkpt><trkpt lat="43.46672346690702" lon="2.7996692230331095"><ele>426.0</ele><time>2026-04-07T12:31:52.998Z</time></trkpt><trkpt lat="43.4668473749325" lon="2.799636051563949"><ele>426.0</ele><time>2026-04-07T12:31:53.998Z</time></trkpt><trkpt lat="43.466987542875245" lon="2.7995965483610616"><ele>426.0</ele><time>2026-04-07T12:31:54.998Z</time></trkpt><trkpt lat="43.46711828571158" lon="2.799565327087855"><ele>426.0</ele><time>2026-04-07T12:31:55.998Z</time></trkpt><trkpt lat="43.46727916636614" lon="2.799481063454157"><ele>427.75</ele><time>2026-04-07T12:31:56.998Z</time></trkpt><trkpt lat="43.467425641713405" lon="2.799439331654403"><ele>429.5</ele><time>2026-04-07T12:31:57.998Z</time></trkpt><trkpt lat="43.467574918767305" lon="2.7994014546841717"><ele>431.25</ele><time>2026-04-07T12:31:58.998Z</time></trkpt><trkpt lat="43.467714874391426" lon="2.799364309121841"><ele>433.0</ele><time>2026-04-07T12:31:59.998Z</time></trkpt><trkpt lat="43.46785102032723" lon="2.7993232607559415"><ele>428.0</ele><time>2026-04-07T12:32:01Z</time></trkpt><trkpt lat="43.46796644556313" lon="2.799290991460083"><ele>423.0</ele><time>2026-04-07T12:32:02Z</time></trkpt><trkpt lat="43.46808085892539" lon="2.7992546266538705"><ele>418.0</ele><time>2026-04-07T12:32:03Z</time></trkpt><trkpt lat="43.468189094326064" lon="2.799219888593695"><ele>413.0</ele><time>2026-04-07T12:32:04Z</time></trkpt><trkpt lat="43.468289709631065" lon="2.7991833292934944"><ele>413.0</ele><time>2026-04-07T12:32:05Z</time></trkpt><trkpt lat="43.46838347781549" lon="2.7991230015952375"><ele>413.0</ele><time>2026-04-07T12:32:06Z</time></trkpt><trkpt lat="43.468481063897244" lon="2.7990217197301805"><ele>413.0</ele><time>2026-04-07T12:32:07Z</time></trkpt><trkpt lat="43.46857188112176" lon="2.798902034293652"><ele>413.0</ele><time>2026-04-07T12:32:08Z</time></trkpt><trkpt lat="43.46866403012692" lon="2.798749785116996"><ele>413.0</ele><time>2026-04-07T12:32:09Z</time></trkpt><trkpt lat="43.46873052103831" lon="2.7985778411025293"><ele>413.0</ele><time>2026-04-07T12:32:10Z</time></trkpt><trkpt lat="43.468776885192824" lon="2.798388402606756"><ele>413.0</ele><time>2026-04-07T12:32:11Z</time></trkpt><trkpt lat="43.468789827915394" lon="2.7982084068831563"><ele>413.0</ele><time>2026-04-07T12:32:12Z</time></trkpt><trkpt lat="43.4687892454012" lon="2.798031981461058"><ele>411.0</ele><time>2026-04-07T12:32:13Z</time></trkpt><trkpt lat="43.46877485941181" lon="2.7978580234805785"><ele>409.0</ele><time>2026-04-07T12:32:14Z</time></trkpt><trkpt lat="43.46873702441568" lon="2.7976848113818593"><ele>407.0</ele><time>2026-04-07T12:32:15Z</time></trkpt><trkpt lat="43.468685718968594" lon="2.7975051547651884"><ele>405.0</ele><time>2026-04-07T12:32:16Z</time></trkpt><trkpt lat="43.46863689176756" lon="2.7973010774378513"><ele>404.0</ele><time>2026-04-07T12:32:17Z</time></trkpt><trkpt lat="43.46858413297708" lon="2.7971003811752815"><ele>403.0</ele><time>2026-04-07T12:32:18Z</time></trkpt><trkpt lat="43.4685301655749" lon="2.796861949070491"><ele>402.0</ele><time>2026-04-07T12:32:19Z</time></trkpt><trkpt lat="43.46848841342624" lon="2.7966690628819864"><ele>400.25</ele><time>2026-04-07T12:32:20Z</time></trkpt><trkpt lat="43.468449378110364" lon="2.796480054873793"><ele>398.5</ele><time>2026-04-07T12:32:21Z</time></trkpt><trkpt lat="43.46840243648643" lon="2.7962919606891936"><ele>396.75</ele><time>2026-04-07T12:32:22Z</time></trkpt><trkpt lat="43.468361293738674" lon="2.7960996597074"><ele>395.0</ele><time>2026-04-07T12:32:23Z</time></trkpt><trkpt lat="43.46832148624581" lon="2.795912458508699"><ele>395.0</ele><time>2026-04-07T12:32:24Z</time></trkpt><trkpt lat="43.46827777508164" lon="2.7957222823720276"><ele>395.0</ele><time>2026-04-07T12:32:25Z</time></trkpt><trkpt lat="43.46823054921597" lon="2.7955139145442107"><ele>395.0</ele><time>2026-04-07T12:32:26Z</time></trkpt><trkpt lat="43.468188897837706" lon="2.795309727440399"><ele>395.25</ele><time>2026-04-07T12:32:27Z</time></trkpt><trkpt lat="43.468137270957925" lon="2.795136973642608"><ele>395.5</ele><time>2026-04-07T12:32:28Z</time></trkpt><trkpt lat="43.46808599876055" lon="2.794956702992511"><ele>395.75</ele><time>2026-04-07T12:32:29Z</time></trkpt><trkpt lat="43.468053059684436" lon="2.79478151961414"><ele>396.0</ele><time>2026-04-07T12:32:30Z</time></trkpt><trkpt lat="43.46800400191318" lon="2.794580436293966"><ele>396.0</ele><time>2026-04-07T12:32:31Z</time></trkpt><trkpt lat="43.467957864223024" lon="2.7943913131709275"><ele>396.0</ele><time>2026-04-07T12:32:32Z</time></trkpt><trkpt lat="43.46790857388399" lon="2.794215171849497"><ele>396.0</ele><time>2026-04-07T12:32:33Z</time></trkpt><trkpt lat="43.46784777618464" lon="2.7940441074594697"><ele>396.0</ele><time>2026-04-07T12:32:34Z</time></trkpt><trkpt lat="43.467773745280205" lon="2.793872190271112"><ele>395.5</ele><time>2026-04-07T12:32:35Z</time></trkpt><trkpt lat="43.46769279091827" lon="2.7937254294785827"><ele>395.0</ele><time>2026-04-07T12:32:36Z</time></trkpt><trkpt lat="43.46760205180792" lon="2.793589353503363"><ele>394.5</ele><time>2026-04-07T12:32:37Z</time></trkpt><trkpt lat="43.46749874179363" lon="2.7934719378458936"><ele>394.0</ele><time>2026-04-07T12:32:38Z</time></trkpt><trkpt lat="43.467395313882534" lon="2.7933612219883175"><ele>394.0</ele><time>2026-04-07T12:32:39Z</time></trkpt><trkpt lat="43.467289127595194" lon="2.793272066721044"><ele>394.0</ele><time>2026-04-07T12:32:40Z</time></trkpt><trkpt lat="43.46718123727688" lon="2.793182091286841"><ele>394.0</ele><time>2026-04-07T12:32:40.999Z</time></trkpt><trkpt lat="43.46706189344178" lon="2.7931069311336403"><ele>394.0</ele><time>2026-04-07T12:32:41.999Z</time></trkpt><trkpt lat="43.46694665907453" lon="2.7930300855383012"><ele>393.0</ele><time>2026-04-07T12:32:42.999Z</time></trkpt><trkpt lat="43.46683383285933" lon="2.792953146903924"><ele>392.0</ele><time>2026-04-07T12:32:43.999Z</time></trkpt><trkpt lat="43.46671854625841" lon="2.792886508858457"><ele>391.0</ele><time>2026-04-07T12:32:44.999Z</time></trkpt><trkpt lat="43.466603978946814" lon="2.7928131500495006"><ele>390.0</ele><time>2026-04-07T12:32:45.999Z</time></trkpt><trkpt lat="43.46649684460344" lon="2.792736574115439"><ele>389.6</ele><time>2026-04-07T12:32:46.999Z</time></trkpt><trkpt lat="43.466392610891006" lon="2.792665371404065"><ele>389.2</ele><time>2026-04-07T12:32:47.999Z</time></trkpt><trkpt lat="43.46629546012451" lon="2.7925895850322395"><ele>388.79999999999995</ele><time>2026-04-07T12:32:48.999Z</time></trkpt><trkpt lat="43.46620611484072" lon="2.7925013634610165"><ele>388.4</ele><time>2026-04-07T12:32:49.999Z</time></trkpt><trkpt lat="43.46613851478339" lon="2.792388290824484"><ele>388.0</ele><time>2026-04-07T12:32:50.999Z</time></trkpt><trkpt lat="43.46609310173845" lon="2.792261830124812"><ele>387.59999999999997</ele><time>2026-04-07T12:32:51.999Z</time></trkpt><trkpt lat="43.46606530909473" lon="2.7921187504560345"><ele>387.2</ele><time>2026-04-07T12:32:52.999Z</time></trkpt><trkpt lat="43.46607993857035" lon="2.7919684396738202"><ele>386.8</ele><time>2026-04-07T12:32:53.999Z</time></trkpt><trkpt lat="43.466112569221394" lon="2.7918318417928707"><ele>386.4</ele><time>2026-04-07T12:32:54.999Z</time></trkpt><trkpt lat="43.46612864809736" lon="2.79168994731886"><ele>386.0</ele><time>2026-04-07T12:32:55.999Z</time></trkpt><trkpt lat="43.466202257446355" lon="2.7915851822314033"><ele>385.5</ele><time>2026-04-07T12:32:56.999Z</time></trkpt><trkpt lat="43.46628802969256" lon="2.7915027682144142"><ele>385.0</ele><time>2026-04-07T12:32:57.999Z</time></trkpt><trkpt lat="43.466385749149225" lon="2.791422862832848"><ele>384.5</ele><time>2026-04-07T12:32:58.999Z</time></trkpt><trkpt lat="43.46648278025813" lon="2.7913296067180173"><ele>384.0</ele><time>2026-04-07T12:32:59.999Z</time></trkpt><trkpt lat="43.46658593556544" lon="2.7912240399806962"><ele>384.0</ele><time>2026-04-07T12:33:00.999Z</time></trkpt><trkpt lat="43.466694285631156" lon="2.7911184196793815"><ele>384.0</ele><time>2026-04-07T12:33:01.999Z</time></trkpt><trkpt lat="43.46680270697361" lon="2.791014245854123"><ele>384.0</ele><time>2026-04-07T12:33:02.999Z</time></trkpt><trkpt lat="43.466909340640335" lon="2.790923562109553"><ele>384.0</ele><time>2026-04-07T12:33:03.999Z</time></trkpt><trkpt lat="43.467016736511546" lon="2.7908221262642483"><ele>383.0</ele><time>2026-04-07T12:33:04.999Z</time></trkpt><trkpt lat="43.46712827580689" lon="2.790730696530256"><ele>382.0</ele><time>2026-04-07T12:33:05.999Z</time></trkpt><trkpt lat="43.46723709513273" lon="2.790622339236005"><ele>381.0</ele><time>2026-04-07T12:33:06.999Z</time></trkpt><trkpt lat="43.467346719343944" lon="2.790527076299038"><ele>380.0</ele><time>2026-04-07T12:33:07.999Z</time></trkpt><trkpt lat="43.46744178243294" lon="2.790416538632997"><ele>380.0</ele><time>2026-04-07T12:33:08.999Z</time></trkpt><trkpt lat="43.467585083092324" lon="2.7903263933070988"><ele>380.0</ele><time>2026-04-07T12:33:09.999Z</time></trkpt><trkpt lat="43.4677084637181" lon="2.790243035420878"><ele>380.0</ele><time>2026-04-07T12:33:10.999Z</time></trkpt><trkpt lat="43.46784177435056" lon="2.79017961002183"><ele>380.0</ele><time>2026-04-07T12:33:11.999Z</time></trkpt><trkpt lat="43.467983829043206" lon="2.790183284308082"><ele>380.0</ele><time>2026-04-07T12:33:12.999Z</time></trkpt><trkpt lat="43.46811637446501" lon="2.790151563904555"><ele>380.0</ele><time>2026-04-07T12:33:13.999Z</time></trkpt><trkpt lat="43.46825253455059" lon="2.7901586392230375"><ele>380.0</ele><time>2026-04-07T12:33:14.999Z</time></trkpt><trkpt lat="43.46838126478678" lon="2.79015951751648"><ele>380.0</ele><time>2026-04-07T12:33:15.999Z</time></trkpt><trkpt lat="43.468518257375685" lon="2.790156646653832"><ele>380.0</ele><time>2026-04-07T12:33:16.999Z</time></trkpt><trkpt lat="43.468662620036426" lon="2.790149247113475"><ele>380.0</ele><time>2026-04-07T12:33:17.999Z</time></trkpt><trkpt lat="43.468799207767695" lon="2.790094913103986"><ele>380.0</ele><time>2026-04-07T12:33:18.999Z</time></trkpt><trkpt lat="43.46893281192695" lon="2.790021243541221"><ele>380.0</ele><time>2026-04-07T12:33:19.999Z</time></trkpt><trkpt lat="43.4690574650298" lon="2.7899331285235447"><ele>376.0</ele><time>2026-04-07T12:33:20.999Z</time></trkpt><trkpt lat="43.46917981056857" lon="2.7898409277671625"><ele>372.0</ele><time>2026-04-07T12:33:21.999Z</time></trkpt><trkpt lat="43.46930482687551" lon="2.7897489659373593"><ele>368.0</ele><time>2026-04-07T12:33:22.999Z</time></trkpt><trkpt lat="43.46943431574444" lon="2.7896565894439176"><ele>364.0</ele><time>2026-04-07T12:33:23.999Z</time></trkpt><trkpt lat="43.46955585239062" lon="2.7895671906958395"><ele>364.0</ele><time>2026-04-07T12:33:24.999Z</time></trkpt><trkpt lat="43.46968071886547" lon="2.78947494777239"><ele>364.0</ele><time>2026-04-07T12:33:25.998Z</time></trkpt><trkpt lat="43.46980865215897" lon="2.7893857099105164"><ele>364.0</ele><time>2026-04-07T12:33:26.998Z</time></trkpt><trkpt lat="43.469931522198124" lon="2.7892936506792947"><ele>364.0</ele><time>2026-04-07T12:33:27.998Z</time></trkpt><trkpt lat="43.47005857462823" lon="2.7892046362030505"><ele>362.25</ele><time>2026-04-07T12:33:28.998Z</time></trkpt><trkpt lat="43.47017640078815" lon="2.789122002352766"><ele>360.5</ele><time>2026-04-07T12:33:29.998Z</time></trkpt><trkpt lat="43.47028044132648" lon="2.7890495263901536"><ele>358.75</ele><time>2026-04-07T12:33:30.998Z</time></trkpt><trkpt lat="43.47037614181561" lon="2.788976346440194"><ele>357.0</ele><time>2026-04-07T12:33:31.998Z</time></trkpt><trkpt lat="43.47047885576111" lon="2.7889174249020647"><ele>356.6</ele><time>2026-04-07T12:33:32.998Z</time></trkpt><trkpt lat="43.47057792575405" lon="2.7888815318084306"><ele>356.20000000000005</ele><time>2026-04-07T12:33:33.998Z</time></trkpt><trkpt lat="43.47067044281391" lon="2.788872507591413"><ele>355.8</ele><time>2026-04-07T12:33:34.998Z</time></trkpt><trkpt lat="43.470772453510065" lon="2.788868619391143"><ele>355.4</ele><time>2026-04-07T12:33:35.998Z</time></trkpt><trkpt lat="43.47088017550712" lon="2.7888873500782334"><ele>355.0</ele><time>2026-04-07T12:33:36.998Z</time></trkpt><trkpt lat="43.47097960416482" lon="2.7889177486870707"><ele>355.0</ele><time>2026-04-07T12:33:37.998Z</time></trkpt><trkpt lat="43.47107613378007" lon="2.7889613249607437"><ele>355.0</ele><time>2026-04-07T12:33:38.998Z</time></trkpt><trkpt lat="43.47116093462475" lon="2.789023229762781"><ele>355.0</ele><time>2026-04-07T12:33:39.998Z</time></trkpt><trkpt lat="43.47126165170496" lon="2.789104783133152"><ele>355.0</ele><time>2026-04-07T12:33:40.998Z</time></trkpt><trkpt lat="43.471351297189536" lon="2.789209431890747"><ele>355.0</ele><time>2026-04-07T12:33:41.998Z</time></trkpt><trkpt lat="43.471434285148966" lon="2.7893259892805276"><ele>354.25</ele><time>2026-04-07T12:33:42.998Z</time></trkpt><trkpt lat="43.47151184910542" lon="2.789450257988183"><ele>353.5</ele><time>2026-04-07T12:33:43.998Z</time></trkpt><trkpt lat="43.47158358837375" lon="2.789575435197028"><ele>352.75</ele><time>2026-04-07T12:33:44.998Z</time></trkpt><trkpt lat="43.47167043409925" lon="2.7897199556823398"><ele>352.0</ele><time>2026-04-07T12:33:45.998Z</time></trkpt><trkpt lat="43.471769456147385" lon="2.789858510900705"><ele>352.0</ele><time>2026-04-07T12:33:46.998Z</time></trkpt><trkpt lat="43.47187900329976" lon="2.789994387951153"><ele>352.0</ele><time>2026-04-07T12:33:47.998Z</time></trkpt><trkpt lat="43.47202705868954" lon="2.7901039743661187"><ele>352.0</ele><time>2026-04-07T12:33:48.998Z</time></trkpt><trkpt lat="43.47218889127425" lon="2.79016422852032"><ele>350.3333333333333</ele><time>2026-04-07T12:33:49.998Z</time></trkpt><trkpt lat="43.472353853497665" lon="2.790166474821734"><ele>348.6666666666667</ele><time>2026-04-07T12:33:50.998Z</time></trkpt><trkpt lat="43.47250341520056" lon="2.79012879929415"><ele>347.0</ele><time>2026-04-07T12:33:51.998Z</time></trkpt><trkpt lat="43.47262176011847" lon="2.790042804427874"><ele>347.0</ele><time>2026-04-07T12:33:52.998Z</time></trkpt><trkpt lat="43.47271778733304" lon="2.789932167209853"><ele>347.0</ele><time>2026-04-07T12:33:53.998Z</time></trkpt><trkpt lat="43.4728022669993" lon="2.7898019300594536"><ele>347.0</ele><time>2026-04-07T12:33:54.998Z</time></trkpt><trkpt lat="43.472880788254656" lon="2.789662307295742"><ele>347.0</ele><time>2026-04-07T12:33:55.998Z</time></trkpt><trkpt lat="43.47294960701846" lon="2.7895244602510303"><ele>347.8</ele><time>2026-04-07T12:33:56.998Z</time></trkpt><trkpt lat="43.473023331895945" lon="2.7893993635134473"><ele>348.6</ele><time>2026-04-07T12:33:57.998Z</time></trkpt><trkpt lat="43.47308883975903" lon="2.7892656964055"><ele>349.40000000000003</ele><time>2026-04-07T12:33:58.998Z</time></trkpt><trkpt lat="43.47314908535343" lon="2.7891405149153767"><ele>350.20000000000005</ele><time>2026-04-07T12:33:59.998Z</time></trkpt><trkpt lat="43.473207872369514" lon="2.7890199658366046"><ele>351.0</ele><time>2026-04-07T12:34:00.998Z</time></trkpt><trkpt lat="43.47326241860121" lon="2.788906302551614"><ele>351.0</ele><time>2026-04-07T12:34:01.998Z</time></trkpt><trkpt lat="43.473317021884604" lon="2.7887920840788016"><ele>351.0</ele><time>2026-04-07T12:34:02.998Z</time></trkpt><trkpt lat="43.47337786041782" lon="2.7886813222284954"><ele>351.0</ele><time>2026-04-07T12:34:03.998Z</time></trkpt><trkpt lat="43.47344283426725" lon="2.7885828805110227"><ele>351.0</ele><time>2026-04-07T12:34:04.998Z</time></trkpt><trkpt lat="43.47348956524408" lon="2.7884699017051515"><ele>351.0</ele><time>2026-04-07T12:34:05.998Z</time></trkpt><trkpt lat="43.47353757569876" lon="2.788370776701266"><ele>350.8</ele><time>2026-04-07T12:34:07Z</time></trkpt><trkpt lat="43.473588513333624" lon="2.7882766654328157"><ele>350.6</ele><time>2026-04-07T12:34:08Z</time></trkpt><trkpt lat="43.473640812268215" lon="2.7881992344979696"><ele>350.4</ele><time>2026-04-07T12:34:09Z</time></trkpt><trkpt lat="43.47370789451557" lon="2.788110707677014"><ele>350.2</ele><time>2026-04-07T12:34:10Z</time></trkpt><trkpt lat="43.47378950063868" lon="2.7880351231949008"><ele>350.0</ele><time>2026-04-07T12:34:11Z</time></trkpt><trkpt lat="43.47388012021058" lon="2.7879751320277992"><ele>350.0</ele><time>2026-04-07T12:34:12Z</time></trkpt><trkpt lat="43.473981622414854" lon="2.7879406967949287"><ele>350.0</ele><time>2026-04-07T12:34:13Z</time></trkpt><trkpt lat="43.47409071707755" lon="2.7879317570283626"><ele>350.0</ele><time>2026-04-07T12:34:14Z</time></trkpt><trkpt lat="43.47419610310612" lon="2.7879564731462945"><ele>350.0</ele><time>2026-04-07T12:34:15Z</time></trkpt><trkpt lat="43.47429946870487" lon="2.7880057446738062"><ele>350.0</ele><time>2026-04-07T12:34:16Z</time></trkpt><trkpt lat="43.47440047905764" lon="2.7880793650883398"><ele>350.0</ele><time>2026-04-07T12:34:17Z</time></trkpt><trkpt lat="43.474494143741474" lon="2.7881659348333607"><ele>350.0</ele><time>2026-04-07T12:34:18Z</time></trkpt><trkpt lat="43.474589828425394" lon="2.7882664688783563"><ele>350.0</ele><time>2026-04-07T12:34:19Z</time></trkpt><trkpt lat="43.47469086961259" lon="2.788379339860583"><ele>350.0</ele><time>2026-04-07T12:34:20Z</time></trkpt><trkpt lat="43.47480546730452" lon="2.788502084392511"><ele>349.25</ele><time>2026-04-07T12:34:21Z</time></trkpt><trkpt lat="43.47492566854678" lon="2.7886427960325384"><ele>348.5</ele><time>2026-04-07T12:34:22Z</time></trkpt><trkpt lat="43.47502805387203" lon="2.7887897961272006"><ele>347.75</ele><time>2026-04-07T12:34:23Z</time></trkpt><trkpt lat="43.4751181483521" lon="2.7889371717564932"><ele>347.0</ele><time>2026-04-07T12:34:24Z</time></trkpt><trkpt lat="43.47520176364145" lon="2.7890920437201565"><ele>347.0</ele><time>2026-04-07T12:34:25Z</time></trkpt><trkpt lat="43.4752820683741" lon="2.789255601590172"><ele>347.0</ele><time>2026-04-07T12:34:26Z</time></trkpt><trkpt lat="43.475360613011205" lon="2.789413421277411"><ele>347.0</ele><time>2026-04-07T12:34:27Z</time></trkpt><trkpt lat="43.475430224481315" lon="2.78957431683213"><ele>347.0</ele><time>2026-04-07T12:34:28Z</time></trkpt><trkpt lat="43.47548636239926" lon="2.7897467274266496"><ele>346.0</ele><time>2026-04-07T12:34:29Z</time></trkpt><trkpt lat="43.47555404727105" lon="2.7899226052472987"><ele>345.0</ele><time>2026-04-07T12:34:30Z</time></trkpt><trkpt lat="43.47562073529391" lon="2.7900918051110866"><ele>344.0</ele><time>2026-04-07T12:34:31Z</time></trkpt><trkpt lat="43.47570509559637" lon="2.790254715724222"><ele>343.0</ele><time>2026-04-07T12:34:32Z</time></trkpt><trkpt lat="43.475796567020105" lon="2.790410143400665"><ele>345.0</ele><time>2026-04-07T12:34:33Z</time></trkpt><trkpt lat="43.47589922134463" lon="2.790560191695477"><ele>347.0</ele><time>2026-04-07T12:34:34Z</time></trkpt><trkpt lat="43.47600426336561" lon="2.790698835466909"><ele>349.0</ele><time>2026-04-07T12:34:35Z</time></trkpt><trkpt lat="43.47612448854018" lon="2.790826717650367"><ele>351.0</ele><time>2026-04-07T12:34:36Z</time></trkpt><trkpt lat="43.476249677526624" lon="2.7909450012948906"><ele>346.0</ele><time>2026-04-07T12:34:37Z</time></trkpt><trkpt lat="43.47637802307223" lon="2.7910560316217827"><ele>341.0</ele><time>2026-04-07T12:34:38Z</time></trkpt><trkpt lat="43.47651440004559" lon="2.791159194101835"><ele>336.0</ele><time>2026-04-07T12:34:39Z</time></trkpt><trkpt lat="43.476648704797036" lon="2.7912627269567456"><ele>336.0</ele><time>2026-04-07T12:34:40Z</time></trkpt><trkpt lat="43.476774383189415" lon="2.7913737819988587"><ele>336.0</ele><time>2026-04-07T12:34:41Z</time></trkpt><trkpt lat="43.47689421516499" lon="2.79148918830572"><ele>336.0</ele><time>2026-04-07T12:34:42Z</time></trkpt><trkpt lat="43.477009888747205" lon="2.7916119968353272"><ele>336.0</ele><time>2026-04-07T12:34:43Z</time></trkpt><trkpt lat="43.47712245210193" lon="2.791733952792917"><ele>333.5</ele><time>2026-04-07T12:34:44Z</time></trkpt><trkpt lat="43.477230605897674" lon="2.791855144315144"><ele>331.0</ele><time>2026-04-07T12:34:44.999Z</time></trkpt><trkpt lat="43.477341819466545" lon="2.7919731565221553"><ele>328.5</ele><time>2026-04-07T12:34:45.999Z</time></trkpt><trkpt lat="43.47746520405794" lon="2.792100268255302"><ele>326.0</ele><time>2026-04-07T12:34:46.999Z</time></trkpt><trkpt lat="43.477583951710706" lon="2.792198802157178"><ele>326.0</ele><time>2026-04-07T12:34:47.999Z</time></trkpt><trkpt lat="43.47771554315118" lon="2.792270744722993"><ele>326.0</ele><time>2026-04-07T12:34:48.999Z</time></trkpt><trkpt lat="43.47785327979143" lon="2.79230331707617"><ele>326.0</ele><time>2026-04-07T12:34:49.999Z</time></trkpt><trkpt lat="43.47799260872212" lon="2.7923113597187768"><ele>326.0</ele><time>2026-04-07T12:34:50.999Z</time></trkpt><trkpt lat="43.47813629950685" lon="2.792292444528849"><ele>326.75</ele><time>2026-04-07T12:34:51.999Z</time></trkpt><trkpt lat="43.47827787388643" lon="2.792248550161957"><ele>327.5</ele><time>2026-04-07T12:34:52.999Z</time></trkpt><trkpt lat="43.4784193045765" lon="2.792206707129449"><ele>328.25</ele><time>2026-04-07T12:34:53.999Z</time></trkpt><trkpt lat="43.478550232767276" lon="2.7921735618445775"><ele>329.0</ele><time>2026-04-07T12:34:54.999Z</time></trkpt><trkpt lat="43.47869715223608" lon="2.792134990568967"><ele>329.0</ele><time>2026-04-07T12:34:55.999Z</time></trkpt><trkpt lat="43.47884287199323" lon="2.7920958710136867"><ele>329.0</ele><time>2026-04-07T12:34:56.999Z</time></trkpt><trkpt lat="43.47898829225935" lon="2.792058064067122"><ele>329.0</ele><time>2026-04-07T12:34:57.999Z</time></trkpt><trkpt lat="43.479136615166055" lon="2.79202005866253"><ele>329.0</ele><time>2026-04-07T12:34:58.999Z</time></trkpt><trkpt lat="43.4792773955824" lon="2.791992374190815"><ele>329.0</ele><time>2026-04-07T12:34:59.999Z</time></trkpt><trkpt lat="43.47943461445975" lon="2.7919500748493165"><ele>329.0</ele><time>2026-04-07T12:35:00.999Z</time></trkpt><trkpt lat="43.47958778559778" lon="2.7919066905158383"><ele>329.0</ele><time>2026-04-07T12:35:01.999Z</time></trkpt><trkpt lat="43.47974541638839" lon="2.7918714798782327"><ele>324.33333333333337</ele><time>2026-04-07T12:35:02.999Z</time></trkpt><trkpt lat="43.47989676494229" lon="2.791834123426736"><ele>319.6666666666667</ele><time>2026-04-07T12:35:03.999Z</time></trkpt><trkpt lat="43.48005553228862" lon="2.7917982513366018"><ele>315.0</ele><time>2026-04-07T12:35:04.999Z</time></trkpt><trkpt lat="43.480211916142785" lon="2.7917592743432613"><ele>315.0</ele><time>2026-04-07T12:35:05.999Z</time></trkpt><trkpt lat="43.480361657595935" lon="2.791717821769261"><ele>315.0</ele><time>2026-04-07T12:35:06.999Z</time></trkpt><trkpt lat="43.480510907256885" lon="2.7916725789986514"><ele>315.0</ele><time>2026-04-07T12:35:07.999Z</time></trkpt><trkpt lat="43.48065344800406" lon="2.7916000550563442"><ele>316.0</ele><time>2026-04-07T12:35:08.999Z</time></trkpt><trkpt lat="43.48078802665641" lon="2.791511913805326"><ele>317.0</ele><time>2026-04-07T12:35:09.999Z</time></trkpt><trkpt lat="43.480908462799825" lon="2.791391725790949"><ele>318.0</ele><time>2026-04-07T12:35:10.999Z</time></trkpt><trkpt lat="43.481008459444965" lon="2.7912790679090924"><ele>319.0</ele><time>2026-04-07T12:35:11.999Z</time></trkpt><trkpt lat="43.48110998500316" lon="2.7910961240081313"><ele>320.3333333333333</ele><time>2026-04-07T12:35:12.999Z</time></trkpt><trkpt lat="43.48120404359551" lon="2.7908984724970094"><ele>321.6666666666667</ele><time>2026-04-07T12:35:13.999Z</time></trkpt><trkpt lat="43.481270374665336" lon="2.790686487414117"><ele>323.0</ele><time>2026-04-07T12:35:14.999Z</time></trkpt><trkpt lat="43.481314859785854" lon="2.790466859104551"><ele>323.0</ele><time>2026-04-07T12:35:15.999Z</time></trkpt><trkpt lat="43.481334802273096" lon="2.790251613683336"><ele>323.0</ele><time>2026-04-07T12:35:16.999Z</time></trkpt><trkpt lat="43.48134133690138" lon="2.790042045170488"><ele>323.0</ele><time>2026-04-07T12:35:17.999Z</time></trkpt><trkpt lat="43.48133514196172" lon="2.7898380273941914"><ele>320.75</ele><time>2026-04-07T12:35:18.999Z</time></trkpt><trkpt lat="43.48133405415808" lon="2.7896453073863947"><ele>318.5</ele><time>2026-04-07T12:35:19.999Z</time></trkpt><trkpt lat="43.48133344066196" lon="2.7894571222965077"><ele>316.25</ele><time>2026-04-07T12:35:20.999Z</time></trkpt><trkpt lat="43.48133575359256" lon="2.78926748693719"><ele>314.0</ele><time>2026-04-07T12:35:21.999Z</time></trkpt><trkpt lat="43.48133560877363" lon="2.789072144587957"><ele>313.0</ele><time>2026-04-07T12:35:22.999Z</time></trkpt><trkpt lat="43.48133499187862" lon="2.788868452913993"><ele>312.0</ele><time>2026-04-07T12:35:23.999Z</time></trkpt><trkpt lat="43.48133573033681" lon="2.7886570714825423"><ele>311.0</ele><time>2026-04-07T12:35:24.999Z</time></trkpt><trkpt lat="43.48133567942167" lon="2.788443388470677"><ele>311.0</ele><time>2026-04-07T12:35:25.999Z</time></trkpt><trkpt lat="43.4813353210697" lon="2.788236094962541"><ele>311.0</ele><time>2026-04-07T12:35:26.999Z</time></trkpt><trkpt lat="43.48134038933983" lon="2.7880338667359985"><ele>311.0</ele><time>2026-04-07T12:35:27.999Z</time></trkpt><trkpt lat="43.48134399846312" lon="2.7878333051218127"><ele>311.0</ele><time>2026-04-07T12:35:28.999Z</time></trkpt><trkpt lat="43.481351852245915" lon="2.787628971088534"><ele>310.5</ele><time>2026-04-07T12:35:29.998Z</time></trkpt><trkpt lat="43.481362383515844" lon="2.7874257239832674"><ele>310.0</ele><time>2026-04-07T12:35:30.998Z</time></trkpt><trkpt lat="43.4813753342963" lon="2.787228773139369"><ele>309.5</ele><time>2026-04-07T12:35:31.998Z</time></trkpt><trkpt lat="43.481394022662634" lon="2.7870390932266864"><ele>309.0</ele><time>2026-04-07T12:35:32.998Z</time></trkpt><trkpt lat="43.48141909792114" lon="2.786849397597768"><ele>308.0</ele><time>2026-04-07T12:35:33.998Z</time></trkpt><trkpt lat="43.48145757148903" lon="2.78665851364776"><ele>307.0</ele><time>2026-04-07T12:35:34.998Z</time></trkpt><trkpt lat="43.48151057073331" lon="2.786465036898772"><ele>306.0</ele><time>2026-04-07T12:35:35.998Z</time></trkpt><trkpt lat="43.481577252039045" lon="2.7862937576210185"><ele>305.0</ele><time>2026-04-07T12:35:36.998Z</time></trkpt><trkpt lat="43.48166126925125" lon="2.786115324262942"><ele>309.33333333333337</ele><time>2026-04-07T12:35:37.998Z</time></trkpt><trkpt lat="43.48176167679308" lon="2.785929897802091"><ele>313.6666666666667</ele><time>2026-04-07T12:35:38.998Z</time></trkpt><trkpt lat="43.48186251361115" lon="2.7857334395991007"><ele>318.0</ele><time>2026-04-07T12:35:39.998Z</time></trkpt><trkpt lat="43.48195982285499" lon="2.785531756811619"><ele>318.0</ele><time>2026-04-07T12:35:40.998Z</time></trkpt><trkpt lat="43.48204798912538" lon="2.785343777126853"><ele>318.0</ele><time>2026-04-07T12:35:41.998Z</time></trkpt><trkpt lat="43.48213764368443" lon="2.7851693184591855"><ele>318.0</ele><time>2026-04-07T12:35:42.998Z</time></trkpt><trkpt lat="43.482223142337844" lon="2.785003572208814"><ele>313.75</ele><time>2026-04-07T12:35:43.998Z</time></trkpt><trkpt lat="43.482292996963054" lon="2.784861848991225"><ele>309.5</ele><time>2026-04-07T12:35:44.998Z</time></trkpt><trkpt lat="43.48236509738388" lon="2.784727684410355"><ele>305.25</ele><time>2026-04-07T12:35:45.998Z</time></trkpt><trkpt lat="43.4824259704385" lon="2.784598844453761"><ele>301.0</ele><time>2026-04-07T12:35:46.998Z</time></trkpt><trkpt lat="43.482478299434646" lon="2.7844630246425597"><ele>302.25</ele><time>2026-04-07T12:35:47.998Z</time></trkpt><trkpt lat="43.48251319565275" lon="2.7843181795298255"><ele>303.5</ele><time>2026-04-07T12:35:48.998Z</time></trkpt><trkpt lat="43.482534746214235" lon="2.7841632240795464"><ele>304.75</ele><time>2026-04-07T12:35:49.998Z</time></trkpt><trkpt lat="43.48254810503369" lon="2.784001177208597"><ele>306.0</ele><time>2026-04-07T12:35:50.998Z</time></trkpt><trkpt lat="43.4825466525823" lon="2.783824783467761"><ele>306.0</ele><time>2026-04-07T12:35:51.998Z</time></trkpt><trkpt lat="43.48252833389674" lon="2.783636239928364"><ele>306.0</ele><time>2026-04-07T12:35:52.998Z</time></trkpt><trkpt lat="43.48248774608479" lon="2.783459312904384"><ele>306.0</ele><time>2026-04-07T12:35:53.998Z</time></trkpt><trkpt lat="43.48242772785051" lon="2.7832912102397502"><ele>306.0</ele><time>2026-04-07T12:35:54.998Z</time></trkpt><trkpt lat="43.482367876002584" lon="2.783126678918599"><ele>305.25</ele><time>2026-04-07T12:35:55.998Z</time></trkpt><trkpt lat="43.48229914439544" lon="2.782978727984964"><ele>304.5</ele><time>2026-04-07T12:35:56.998Z</time></trkpt><trkpt lat="43.48223140319241" lon="2.782825287635035"><ele>303.75</ele><time>2026-04-07T12:35:57.998Z</time></trkpt><trkpt lat="43.48215933493749" lon="2.782670826820899"><ele>303.0</ele><time>2026-04-07T12:35:58.998Z</time></trkpt><trkpt lat="43.48209757324198" lon="2.7825028361329727"><ele>303.75</ele><time>2026-04-07T12:35:59.998Z</time></trkpt><trkpt lat="43.48205404014564" lon="2.7823287167198463"><ele>304.5</ele><time>2026-04-07T12:36:00.998Z</time></trkpt><trkpt lat="43.48202398325582" lon="2.7821453994098393"><ele>305.25</ele><time>2026-04-07T12:36:01.998Z</time></trkpt><trkpt lat="43.48199932093827" lon="2.7819609930181604"><ele>306.0</ele><time>2026-04-07T12:36:02.998Z</time></trkpt><trkpt lat="43.48197396982327" lon="2.781785342620567"><ele>306.0</ele><time>2026-04-07T12:36:03.998Z</time></trkpt><trkpt lat="43.48194667347244" lon="2.781606803289097"><ele>306.0</ele><time>2026-04-07T12:36:04.998Z</time></trkpt><trkpt lat="43.481926366138154" lon="2.7814204740150745"><ele>306.0</ele><time>2026-04-07T12:36:05.998Z</time></trkpt><trkpt lat="43.48190551848063" lon="2.7812284250740444"><ele>306.0</ele><time>2026-04-07T12:36:06.998Z</time></trkpt><trkpt lat="43.481883648989395" lon="2.7810467477140968"><ele>304.0</ele><time>2026-04-07T12:36:07.998Z</time></trkpt><trkpt lat="43.48189912085267" lon="2.780838530181315"><ele>302.0</ele><time>2026-04-07T12:36:08.998Z</time></trkpt><trkpt lat="43.481932246809365" lon="2.7806345342227496"><ele>300.0</ele><time>2026-04-07T12:36:09.998Z</time></trkpt><trkpt lat="43.481990583089264" lon="2.7804342119610745"><ele>300.0</ele><time>2026-04-07T12:36:10.998Z</time></trkpt><trkpt lat="43.482069069409995" lon="2.7802431407272246"><ele>300.0</ele><time>2026-04-07T12:36:11.998Z</time></trkpt><trkpt lat="43.48218043128003" lon="2.780070741993562"><ele>300.0</ele><time>2026-04-07T12:36:13Z</time></trkpt><trkpt lat="43.48231122993651" lon="2.7799264857350665"><ele>299.3333333333333</ele><time>2026-04-07T12:36:14Z</time></trkpt><trkpt lat="43.48246416510759" lon="2.7798264230243364"><ele>298.66666666666663</ele><time>2026-04-07T12:36:15Z</time></trkpt><trkpt lat="43.482627349894784" lon="2.7797662841488733"><ele>298.0</ele><time>2026-04-07T12:36:16Z</time></trkpt><trkpt lat="43.48279089236965" lon="2.779738008993758"><ele>298.66666666666663</ele><time>2026-04-07T12:36:17Z</time></trkpt><trkpt lat="43.48295297128514" lon="2.7797526609449377"><ele>299.3333333333333</ele><time>2026-04-07T12:36:18Z</time></trkpt><trkpt lat="43.48310337196389" lon="2.7798058312695204"><ele>300.0</ele><time>2026-04-07T12:36:19Z</time></trkpt><trkpt lat="43.48324822596882" lon="2.7798699549498087"><ele>300.0</ele><time>2026-04-07T12:36:20Z</time></trkpt><trkpt lat="43.48338845473957" lon="2.7799550038450267"><ele>300.0</ele><time>2026-04-07T12:36:21Z</time></trkpt><trkpt lat="43.483520887220195" lon="2.7800393345365144"><ele>300.0</ele><time>2026-04-07T12:36:22Z</time></trkpt><trkpt lat="43.48364659352718" lon="2.780127629032592"><ele>300.0</ele><time>2026-04-07T12:36:23Z</time></trkpt><trkpt lat="43.48377538145772" lon="2.7802199362493845"><ele>301.0</ele><time>2026-04-07T12:36:24Z</time></trkpt><trkpt lat="43.48390303275894" lon="2.780310897528943"><ele>302.0</ele><time>2026-04-07T12:36:25Z</time></trkpt><trkpt lat="43.48403264150158" lon="2.780396953101197"><ele>303.0</ele><time>2026-04-07T12:36:26Z</time></trkpt><trkpt lat="43.48415890483457" lon="2.7804756136122477"><ele>304.0</ele><time>2026-04-07T12:36:27Z</time></trkpt><trkpt lat="43.48428510955475" lon="2.780556367982661"><ele>304.0</ele><time>2026-04-07T12:36:28Z</time></trkpt><trkpt lat="43.484410501047" lon="2.780629987662229"><ele>304.0</ele><time>2026-04-07T12:36:29Z</time></trkpt><trkpt lat="43.48453203016693" lon="2.7807019973036744"><ele>304.0</ele><time>2026-04-07T12:36:30Z</time></trkpt><trkpt lat="43.48465992845848" lon="2.780766663531099"><ele>304.0</ele><time>2026-04-07T12:36:31Z</time></trkpt><trkpt lat="43.484795454049575" lon="2.7808252299682277"><ele>300.0</ele><time>2026-04-07T12:36:32Z</time></trkpt><trkpt lat="43.48492903262477" lon="2.780861066598181"><ele>296.0</ele><time>2026-04-07T12:36:33Z</time></trkpt><trkpt lat="43.48506194981433" lon="2.780884517432278"><ele>292.0</ele><time>2026-04-07T12:36:34Z</time></trkpt><trkpt lat="43.485182816181215" lon="2.780909795479058"><ele>288.0</ele><time>2026-04-07T12:36:35Z</time></trkpt><trkpt lat="43.48528990450208" lon="2.780935757395825"><ele>288.0</ele><time>2026-04-07T12:36:36Z</time></trkpt><trkpt lat="43.485380291872" lon="2.7809566699088957"><ele>288.0</ele><time>2026-04-07T12:36:37Z</time></trkpt><trkpt lat="43.48546480253825" lon="2.780977087194292"><ele>288.0</ele><time>2026-04-07T12:36:38Z</time></trkpt><trkpt lat="43.48555970335788" lon="2.780996928464924"><ele>288.0</ele><time>2026-04-07T12:36:39Z</time></trkpt><trkpt lat="43.48564928572246" lon="2.781021744260089"><ele>288.0</ele><time>2026-04-07T12:36:40Z</time></trkpt><trkpt lat="43.48575091987092" lon="2.7810449082601996"><ele>288.0</ele><time>2026-04-07T12:36:41Z</time></trkpt><trkpt lat="43.48585937208467" lon="2.7810702900658044"><ele>288.0</ele><time>2026-04-07T12:36:42Z</time></trkpt><trkpt lat="43.48597097925056" lon="2.781092278471457"><ele>288.0</ele><time>2026-04-07T12:36:43Z</time></trkpt><trkpt lat="43.48608586898602" lon="2.781094463157172"><ele>288.0</ele><time>2026-04-07T12:36:44Z</time></trkpt><trkpt lat="43.48620312313688" lon="2.781069842020789"><ele>289.25</ele><time>2026-04-07T12:36:45Z</time></trkpt><trkpt lat="43.4863127602659" lon="2.781025332706505"><ele>290.5</ele><time>2026-04-07T12:36:46Z</time></trkpt><trkpt lat="43.48641324481904" lon="2.7809233962443516"><ele>291.75</ele><time>2026-04-07T12:36:47Z</time></trkpt><trkpt lat="43.48651035621508" lon="2.7808139202614375"><ele>293.0</ele><time>2026-04-07T12:36:48Z</time></trkpt><trkpt lat="43.48659069260344" lon="2.7806788783186698"><ele>293.25</ele><time>2026-04-07T12:36:48.999Z</time></trkpt><trkpt lat="43.486644228070354" lon="2.7805141686363397"><ele>293.5</ele><time>2026-04-07T12:36:49.999Z</time></trkpt><trkpt lat="43.48668366491713" lon="2.7803410292346284"><ele>293.75</ele><time>2026-04-07T12:36:50.999Z</time></trkpt><trkpt lat="43.486704299682316" lon="2.7801608206407478"><ele>294.0</ele><time>2026-04-07T12:36:51.999Z</time></trkpt><trkpt lat="43.48670359692074" lon="2.779972901372044"><ele>294.75</ele><time>2026-04-07T12:36:52.999Z</time></trkpt><trkpt lat="43.48668979575093" lon="2.779794185354198"><ele>295.5</ele><time>2026-04-07T12:36:53.999Z</time></trkpt><trkpt lat="43.486680536939616" lon="2.7796199299564974"><ele>296.25</ele><time>2026-04-07T12:36:54.999Z</time></trkpt><trkpt lat="43.48667547892403" lon="2.7794454022376667"><ele>297.0</ele><time>2026-04-07T12:36:55.999Z</time></trkpt><trkpt lat="43.486663507144335" lon="2.7792589131724084"><ele>298.5</ele><time>2026-04-07T12:36:56.999Z</time></trkpt><trkpt lat="43.48665152545652" lon="2.7790706950742843"><ele>300.0</ele><time>2026-04-07T12:36:57.999Z</time></trkpt><trkpt lat="43.48663505433051" lon="2.7788816735173674"><ele>301.5</ele><time>2026-04-07T12:36:58.999Z</time></trkpt><trkpt lat="43.48661491635939" lon="2.778674766707869"><ele>303.0</ele><time>2026-04-07T12:36:59.999Z</time></trkpt><trkpt lat="43.48658878817916" lon="2.7784724668155305"><ele>303.5</ele><time>2026-04-07T12:37:00.999Z</time></trkpt><trkpt lat="43.48655814152357" lon="2.778279884810316"><ele>304.0</ele><time>2026-04-07T12:37:01.999Z</time></trkpt><trkpt lat="43.48652661129022" lon="2.7781109784691544"><ele>304.5</ele><time>2026-04-07T12:37:02.999Z</time></trkpt><trkpt lat="43.48649095266029" lon="2.7779593293423908"><ele>305.0</ele><time>2026-04-07T12:37:03.999Z</time></trkpt><trkpt lat="43.48646239736671" lon="2.7778089401740615"><ele>305.0</ele><time>2026-04-07T12:37:04.999Z</time></trkpt><trkpt lat="43.48642865181273" lon="2.7776606547533014"><ele>305.0</ele><time>2026-04-07T12:37:05.999Z</time></trkpt><trkpt lat="43.48639764764356" lon="2.7775118560686773"><ele>305.0</ele><time>2026-04-07T12:37:06.999Z</time></trkpt><trkpt lat="43.486374230069686" lon="2.777367431768732"><ele>305.0</ele><time>2026-04-07T12:37:07.999Z</time></trkpt><trkpt lat="43.48635125385999" lon="2.7772319256093305"><ele>305.0</ele><time>2026-04-07T12:37:08.999Z</time></trkpt><trkpt lat="43.48631636009242" lon="2.777088926040674"><ele>305.0</ele><time>2026-04-07T12:37:09.999Z</time></trkpt><trkpt lat="43.4862828581359" lon="2.7769443862179672"><ele>305.0</ele><time>2026-04-07T12:37:10.999Z</time></trkpt><trkpt lat="43.48625194652465" lon="2.7767957638180985"><ele>305.0</ele><time>2026-04-07T12:37:11.999Z</time></trkpt><trkpt lat="43.48621706017582" lon="2.7766510158924866"><ele>305.0</ele><time>2026-04-07T12:37:12.999Z</time></trkpt><trkpt lat="43.48616761270337" lon="2.7765162069773135"><ele>305.0</ele><time>2026-04-07T12:37:13.999Z</time></trkpt><trkpt lat="43.48610080272793" lon="2.77639554217262"><ele>303.6</ele><time>2026-04-07T12:37:14.999Z</time></trkpt><trkpt lat="43.48603424372531" lon="2.7762857058619166"><ele>302.2</ele><time>2026-04-07T12:37:15.999Z</time></trkpt><trkpt lat="43.485966092169384" lon="2.776181611687159"><ele>300.8</ele><time>2026-04-07T12:37:16.999Z</time></trkpt><trkpt lat="43.48589007568668" lon="2.7760837471824775"><ele>299.4</ele><time>2026-04-07T12:37:17.999Z</time></trkpt><trkpt lat="43.48581452708599" lon="2.7759952451336827"><ele>298.0</ele><time>2026-04-07T12:37:18.999Z</time></trkpt><trkpt lat="43.485742038691505" lon="2.775901117217328"><ele>298.0</ele><time>2026-04-07T12:37:19.999Z</time></trkpt><trkpt lat="43.48567296153094" lon="2.7758071153196298"><ele>298.0</ele><time>2026-04-07T12:37:20.999Z</time></trkpt><trkpt lat="43.48560532476898" lon="2.7757207549793073"><ele>298.0</ele><time>2026-04-07T12:37:21.999Z</time></trkpt><trkpt lat="43.4855385473791" lon="2.77562808419028"><ele>298.0</ele><time>2026-04-07T12:37:22.999Z</time></trkpt><trkpt lat="43.48546978512889" lon="2.775523801807312"><ele>298.0</ele><time>2026-04-07T12:37:23.999Z</time></trkpt><trkpt lat="43.48541117847587" lon="2.775404674184309"><ele>296.8</ele><time>2026-04-07T12:37:24.999Z</time></trkpt><trkpt lat="43.48536723952502" lon="2.7752695796552325"><ele>295.6</ele><time>2026-04-07T12:37:25.999Z</time></trkpt><trkpt lat="43.48534122593404" lon="2.7751328629026313"><ele>294.4</ele><time>2026-04-07T12:37:26.999Z</time></trkpt><trkpt lat="43.48533319974196" lon="2.7749949611508864"><ele>293.2</ele><time>2026-04-07T12:37:27.999Z</time></trkpt><trkpt lat="43.48533808808282" lon="2.7748574673137343"><ele>292.0</ele><time>2026-04-07T12:37:28.999Z</time></trkpt><trkpt lat="43.485348173418515" lon="2.7747256408716106"><ele>292.0</ele><time>2026-04-07T12:37:29.999Z</time></trkpt><trkpt lat="43.48536546410487" lon="2.7745958779427093"><ele>292.0</ele><time>2026-04-07T12:37:30.999Z</time></trkpt><trkpt lat="43.485392139354715" lon="2.7744671239575958"><ele>292.0</ele><time>2026-04-07T12:37:31.999Z</time></trkpt><trkpt lat="43.48543963604859" lon="2.7743451087071036"><ele>292.0</ele><time>2026-04-07T12:37:32.999Z</time></trkpt><trkpt lat="43.485502308710366" lon="2.774238474100209"><ele>292.0</ele><time>2026-04-07T12:37:33.999Z</time></trkpt><trkpt lat="43.485589025423074" lon="2.774160705578797"><ele>293.4</ele><time>2026-04-07T12:37:34.998Z</time></trkpt><trkpt lat="43.48568590700705" lon="2.774098100096253"><ele>294.79999999999995</ele><time>2026-04-07T12:37:35.998Z</time></trkpt><trkpt lat="43.48578925302206" lon="2.7740649499191767"><ele>296.2</ele><time>2026-04-07T12:37:36.998Z</time></trkpt><trkpt lat="43.485885290928564" lon="2.774036446952455"><ele>297.59999999999997</ele><time>2026-04-07T12:37:37.998Z</time></trkpt><trkpt lat="43.48597925829074" lon="2.773997526965333"><ele>299.0</ele><time>2026-04-07T12:37:38.998Z</time></trkpt><trkpt lat="43.486074525233796" lon="2.773947689601088"><ele>299.0</ele><time>2026-04-07T12:37:39.998Z</time></trkpt><trkpt lat="43.48616857850118" lon="2.7738796297538464"><ele>299.0</ele><time>2026-04-07T12:37:40.998Z</time></trkpt><trkpt lat="43.48624270425754" lon="2.7738318168915197"><ele>299.0</ele><time>2026-04-07T12:37:41.998Z</time></trkpt><trkpt lat="43.486329389378305" lon="2.773735364855135"><ele>299.0</ele><time>2026-04-07T12:37:42.998Z</time></trkpt><trkpt lat="43.48640774559631" lon="2.773665913316147"><ele>299.0</ele><time>2026-04-07T12:37:43.998Z</time></trkpt><trkpt lat="43.48648606869634" lon="2.773583227785056"><ele>300.0</ele><time>2026-04-07T12:37:44.998Z</time></trkpt><trkpt lat="43.486569994778726" lon="2.7734996516743804"><ele>301.0</ele><time>2026-04-07T12:37:45.998Z</time></trkpt><trkpt lat="43.486653866278466" lon="2.7734117649424275"><ele>302.0</ele><time>2026-04-07T12:37:46.998Z</time></trkpt><trkpt lat="43.486731291047626" lon="2.773328049550466"><ele>303.0</ele><time>2026-04-07T12:37:47.998Z</time></trkpt><trkpt lat="43.48680393254853" lon="2.773238947238296"><ele>304.0</ele><time>2026-04-07T12:37:48.998Z</time></trkpt><trkpt lat="43.48686621804291" lon="2.773129846647742"><ele>304.0</ele><time>2026-04-07T12:37:49.998Z</time></trkpt><trkpt lat="43.486919981967546" lon="2.7730045395801786"><ele>304.0</ele><time>2026-04-07T12:37:50.998Z</time></trkpt><trkpt lat="43.48696557716452" lon="2.772867082944346"><ele>304.0</ele><time>2026-04-07T12:37:51.998Z</time></trkpt><trkpt lat="43.487005430945274" lon="2.7727373664390482"><ele>304.0</ele><time>2026-04-07T12:37:52.998Z</time></trkpt><trkpt lat="43.48703526214626" lon="2.77260317162671"><ele>304.0</ele><time>2026-04-07T12:37:53.998Z</time></trkpt><trkpt lat="43.487064357421545" lon="2.772462829733635"><ele>303.5</ele><time>2026-04-07T12:37:54.998Z</time></trkpt><trkpt lat="43.487075756795726" lon="2.7723054753635794"><ele>303.0</ele><time>2026-04-07T12:37:55.998Z</time></trkpt><trkpt lat="43.48710563438519" lon="2.7721517994540745"><ele>302.5</ele><time>2026-04-07T12:37:56.998Z</time></trkpt><trkpt lat="43.487117206570716" lon="2.7719955807312417"><ele>302.0</ele><time>2026-04-07T12:37:57.998Z</time></trkpt><trkpt lat="43.48712238532706" lon="2.7718283249914055"><ele>304.1666666666667</ele><time>2026-04-07T12:37:58.998Z</time></trkpt><trkpt lat="43.48710861968246" lon="2.7716956612130215"><ele>306.33333333333337</ele><time>2026-04-07T12:37:59.998Z</time></trkpt><trkpt lat="43.48711261096033" lon="2.771586072255945"><ele>308.5</ele><time>2026-04-07T12:38:00.998Z</time></trkpt><trkpt lat="43.487111055038696" lon="2.771478960573839"><ele>310.6666666666667</ele><time>2026-04-07T12:38:01.998Z</time></trkpt><trkpt lat="43.48711386026226" lon="2.7713751901178845"><ele>312.8333333333333</ele><time>2026-04-07T12:38:02.998Z</time></trkpt><trkpt lat="43.48711484751361" lon="2.7712771184045337"><ele>315.0</ele><time>2026-04-07T12:38:03.998Z</time></trkpt><trkpt lat="43.48711811173735" lon="2.7711830767181738"><ele>315.0</ele><time>2026-04-07T12:38:04.998Z</time></trkpt><trkpt lat="43.487127291955055" lon="2.7710920158728087"><ele>315.0</ele><time>2026-04-07T12:38:05.998Z</time></trkpt><trkpt lat="43.4871366317977" lon="2.7709758161020943"><ele>315.0</ele><time>2026-04-07T12:38:06.998Z</time></trkpt><trkpt lat="43.48714727342596" lon="2.7708549735778276"><ele>315.0</ele><time>2026-04-07T12:38:07.998Z</time></trkpt><trkpt lat="43.48716585933415" lon="2.77071955535498"><ele>315.0</ele><time>2026-04-07T12:38:08.998Z</time></trkpt><trkpt lat="43.48718344060734" lon="2.770586846593288"><ele>315.0</ele><time>2026-04-07T12:38:09.998Z</time></trkpt><trkpt lat="43.48720337952729" lon="2.7704701748430454"><ele>314.4</ele><time>2026-04-07T12:38:10.998Z</time></trkpt><trkpt lat="43.48723085783895" lon="2.7703666951609325"><ele>313.8</ele><time>2026-04-07T12:38:11.998Z</time></trkpt><trkpt lat="43.48724856723619" lon="2.7702313152371607"><ele>313.2</ele><time>2026-04-07T12:38:12.998Z</time></trkpt><trkpt lat="43.48725309252895" lon="2.7700696512628418"><ele>312.6</ele><time>2026-04-07T12:38:13.998Z</time></trkpt><trkpt lat="43.48726559493673" lon="2.7699379930715873"><ele>312.0</ele><time>2026-04-07T12:38:14.998Z</time></trkpt><trkpt lat="43.48727984467844" lon="2.769812622829187"><ele>311.4</ele><time>2026-04-07T12:38:15.998Z</time></trkpt><trkpt lat="43.48729170102734" lon="2.769691941306462"><ele>310.79999999999995</ele><time>2026-04-07T12:38:16.998Z</time></trkpt><trkpt lat="43.487303092808" lon="2.769560473236674"><ele>310.2</ele><time>2026-04-07T12:38:17.998Z</time></trkpt><trkpt lat="43.487319026371715" lon="2.769433323234375"><ele>309.59999999999997</ele><time>2026-04-07T12:38:19Z</time></trkpt><trkpt lat="43.48733745246002" lon="2.7693049537516505"><ele>309.0</ele><time>2026-04-07T12:38:20Z</time></trkpt><trkpt lat="43.48735261605607" lon="2.7691764826152263"><ele>308.2</ele><time>2026-04-07T12:38:21Z</time></trkpt><trkpt lat="43.487370532761716" lon="2.7690477928376076"><ele>307.4</ele><time>2026-04-07T12:38:22Z</time></trkpt><trkpt lat="43.487375327804514" lon="2.7689262581075162"><ele>306.6</ele><time>2026-04-07T12:38:23Z</time></trkpt><trkpt lat="43.48738165396811" lon="2.7688094399718377"><ele>305.8</ele><time>2026-04-07T12:38:24Z</time></trkpt><trkpt lat="43.48738957258286" lon="2.768685440533579"><ele>305.0</ele><time>2026-04-07T12:38:25Z</time></trkpt><trkpt lat="43.487404437538956" lon="2.7685590384460963"><ele>305.0</ele><time>2026-04-07T12:38:26Z</time></trkpt><trkpt lat="43.487421049050106" lon="2.768428567754842"><ele>305.0</ele><time>2026-04-07T12:38:27Z</time></trkpt><trkpt lat="43.48743489835601" lon="2.768291135416225"><ele>305.0</ele><time>2026-04-07T12:38:28Z</time></trkpt><trkpt lat="43.487451305443955" lon="2.768155794048848"><ele>305.0</ele><time>2026-04-07T12:38:29Z</time></trkpt><trkpt lat="43.487466720474174" lon="2.768035606237325"><ele>305.0</ele><time>2026-04-07T12:38:30Z</time></trkpt><trkpt lat="43.48748129260781" lon="2.7679204118314362"><ele>305.0</ele><time>2026-04-07T12:38:31Z</time></trkpt><trkpt lat="43.48749371596356" lon="2.7678048420056136"><ele>305.0</ele><time>2026-04-07T12:38:32Z</time></trkpt><trkpt lat="43.48750693887987" lon="2.767685638548817"><ele>305.0</ele><time>2026-04-07T12:38:33Z</time></trkpt><trkpt lat="43.48753049016098" lon="2.767448823504872"><ele>305.0</ele><time>2026-04-07T12:38:35Z</time></trkpt><trkpt lat="43.4875391039074" lon="2.767331785477136"><ele>305.0</ele><time>2026-04-07T12:38:36Z</time></trkpt><trkpt lat="43.48754869700234" lon="2.767223072612942"><ele>304.83333333333337</ele><time>2026-04-07T12:38:37Z</time></trkpt><trkpt lat="43.48755945722457" lon="2.7671139798680975"><ele>304.6666666666667</ele><time>2026-04-07T12:38:38Z</time></trkpt><trkpt lat="43.48757182415662" lon="2.7669957836063057"><ele>304.5</ele><time>2026-04-07T12:38:39Z</time></trkpt><trkpt lat="43.48758236645393" lon="2.7668777432412557"><ele>304.3333333333333</ele><time>2026-04-07T12:38:40Z</time></trkpt><trkpt lat="43.487597458606906" lon="2.7667533138566665"><ele>304.16666666666663</ele><time>2026-04-07T12:38:41Z</time></trkpt><trkpt lat="43.48761181941757" lon="2.7666262638892354"><ele>304.0</ele><time>2026-04-07T12:38:42Z</time></trkpt><trkpt lat="43.487627170481545" lon="2.7664968513874064"><ele>303.8</ele><time>2026-04-07T12:38:43Z</time></trkpt><trkpt lat="43.487642801932665" lon="2.766363497898077"><ele>303.59999999999997</ele><time>2026-04-07T12:38:44Z</time></trkpt><trkpt lat="43.4876608084592" lon="2.7662284457158206"><ele>303.4</ele><time>2026-04-07T12:38:45Z</time></trkpt><trkpt lat="43.4876743571913" lon="2.7660938767310306"><ele>303.2</ele><time>2026-04-07T12:38:46Z</time></trkpt><trkpt lat="43.48769231982146" lon="2.7659461621378276"><ele>303.0</ele><time>2026-04-07T12:38:47Z</time></trkpt><trkpt lat="43.4877034584445" lon="2.765806707345369"><ele>303.4</ele><time>2026-04-07T12:38:48Z</time></trkpt><trkpt lat="43.4877174246576" lon="2.7656696670505623"><ele>303.8</ele><time>2026-04-07T12:38:49Z</time></trkpt><trkpt lat="43.48773255166859" lon="2.7655434841330404"><ele>304.2</ele><time>2026-04-07T12:38:50Z</time></trkpt><trkpt lat="43.48774720297196" lon="2.765427330612698"><ele>304.6</ele><time>2026-04-07T12:38:51Z</time></trkpt><trkpt lat="43.487760041013814" lon="2.765306403139467"><ele>305.0</ele><time>2026-04-07T12:38:52Z</time></trkpt><trkpt lat="43.487771659422734" lon="2.7651887892904736"><ele>305.1666666666667</ele><time>2026-04-07T12:38:53Z</time></trkpt><trkpt lat="43.48778834906514" lon="2.7650707278316546"><ele>305.33333333333337</ele><time>2026-04-07T12:38:53.999Z</time></trkpt><trkpt lat="43.48780183241651" lon="2.764951850668513"><ele>305.5</ele><time>2026-04-07T12:38:54.999Z</time></trkpt><trkpt lat="43.487819017746865" lon="2.7648302095199027"><ele>305.6666666666667</ele><time>2026-04-07T12:38:55.999Z</time></trkpt><trkpt lat="43.48783561026336" lon="2.7647055955497866"><ele>305.8333333333333</ele><time>2026-04-07T12:38:56.999Z</time></trkpt><trkpt lat="43.48785001808323" lon="2.764581986939632"><ele>306.0</ele><time>2026-04-07T12:38:57.999Z</time></trkpt><trkpt lat="43.4878650324074" lon="2.764462679137046"><ele>306.5</ele><time>2026-04-07T12:38:58.999Z</time></trkpt><trkpt lat="43.48787833637836" lon="2.764351051889701"><ele>307.0</ele><time>2026-04-07T12:38:59.999Z</time></trkpt><trkpt lat="43.487889865843144" lon="2.7642423163611856"><ele>307.5</ele><time>2026-04-07T12:39:00.999Z</time></trkpt><trkpt lat="43.48790416252068" lon="2.7641361998010416"><ele>308.0</ele><time>2026-04-07T12:39:01.999Z</time></trkpt><trkpt lat="43.48791749302445" lon="2.76403257880383"><ele>308.5</ele><time>2026-04-07T12:39:02.999Z</time></trkpt><trkpt lat="43.48793089146957" lon="2.763932038547815"><ele>309.0</ele><time>2026-04-07T12:39:03.999Z</time></trkpt><trkpt lat="43.48794369972302" lon="2.7638405880362757"><ele>311.4</ele><time>2026-04-07T12:39:04.999Z</time></trkpt><trkpt lat="43.48796774016375" lon="2.7636674312762084"><ele>313.79999999999995</ele><time>2026-04-07T12:39:06.999Z</time></trkpt><trkpt lat="43.487980618257545" lon="2.763567702139056"><ele>316.20000000000005</ele><time>2026-04-07T12:39:07.999Z</time></trkpt><trkpt lat="43.487999934817545" lon="2.763454302947027"><ele>318.6</ele><time>2026-04-07T12:39:08.999Z</time></trkpt><trkpt lat="43.48801020658629" lon="2.7633382568471343"><ele>321.0</ele><time>2026-04-07T12:39:09.999Z</time></trkpt><trkpt lat="43.48802682982964" lon="2.763225169023243"><ele>321.1666666666667</ele><time>2026-04-07T12:39:10.999Z</time></trkpt><trkpt lat="43.48805701248404" lon="2.7631160006435245"><ele>321.3333333333333</ele><time>2026-04-07T12:39:11.999Z</time></trkpt><trkpt lat="43.48807365907956" lon="2.7630238316492837"><ele>321.5</ele><time>2026-04-07T12:39:12.999Z</time></trkpt><trkpt lat="43.48811511652635" lon="2.7628944574053222"><ele>321.66666666666663</ele><time>2026-04-07T12:39:14.999Z</time></trkpt><trkpt lat="43.48817012927434" lon="2.7627939309371485"><ele>321.8333333333333</ele><time>2026-04-07T12:39:16.999Z</time></trkpt><trkpt lat="43.48820141277023" lon="2.762682209930481"><ele>322.0</ele><time>2026-04-07T12:39:18.999Z</time></trkpt><trkpt lat="43.48820068621749" lon="2.7621930936896413"><ele>322.0</ele><time>2026-04-07T12:39:19.999Z</time></trkpt><trkpt lat="43.48822892963591" lon="2.762085574933942"><ele>322.0</ele><time>2026-04-07T12:39:20.999Z</time></trkpt><trkpt lat="43.48825309559662" lon="2.761972575705761"><ele>322.0</ele><time>2026-04-07T12:39:21.999Z</time></trkpt><trkpt lat="43.48826322703948" lon="2.761867939864666"><ele>322.0</ele><time>2026-04-07T12:39:22.999Z</time></trkpt><trkpt lat="43.48828107904736" lon="2.7617760651674796"><ele>322.0</ele><time>2026-04-07T12:39:23.999Z</time></trkpt><trkpt lat="43.488298568003685" lon="2.761688977496"><ele>322.0</ele><time>2026-04-07T12:39:24.999Z</time></trkpt><trkpt lat="43.488327166381474" lon="2.761541162555014"><ele>322.0</ele><time>2026-04-07T12:39:26.999Z</time></trkpt><trkpt lat="43.48833290391134" lon="2.761434851029702"><ele>322.0</ele><time>2026-04-07T12:39:28.999Z</time></trkpt><trkpt lat="43.48837045779259" lon="2.761320061648272"><ele>322.0</ele><time>2026-04-07T12:39:33.999Z</time></trkpt><trkpt lat="43.48839190035404" lon="2.761221598956237"><ele>322.0</ele><time>2026-04-07T12:39:46.998Z</time></trkpt><trkpt lat="43.48840672006215" lon="2.7611125549056035"><ele>322.0</ele><time>2026-04-07T12:40:00.998Z</time></trkpt><trkpt lat="43.488429242378274" lon="2.7609911610925923"><ele>322.0</ele><time>2026-04-07T12:40:02.998Z</time></trkpt><trkpt lat="43.488449779200096" lon="2.760880468935454"><ele>321.66666666666663</ele><time>2026-04-07T12:40:04.998Z</time></trkpt><trkpt lat="43.48846566156608" lon="2.7607948639915922"><ele>321.3333333333333</ele><time>2026-04-07T12:40:06.998Z</time></trkpt><trkpt lat="43.48848350749243" lon="2.7606986751366307"><ele>321.0</ele><time>2026-04-07T12:40:09.998Z</time></trkpt><trkpt lat="43.48850462516651" lon="2.7605856290994573"><ele>320.6666666666667</ele><time>2026-04-07T12:40:13.998Z</time></trkpt><trkpt lat="43.488529424943444" lon="2.760452791785382"><ele>320.33333333333337</ele><time>2026-04-07T12:40:15.998Z</time></trkpt><trkpt lat="43.488551984011316" lon="2.7603296882015282"><ele>320.0</ele><time>2026-04-07T12:40:17.998Z</time></trkpt><trkpt lat="43.48857398754094" lon="2.7602100933539373"><ele>319.6</ele><time>2026-04-07T12:40:19.998Z</time></trkpt><trkpt lat="43.48860090074418" lon="2.760063813194674"><ele>319.2</ele><time>2026-04-07T12:40:21.998Z</time></trkpt><trkpt lat="43.48862005766649" lon="2.7598998321559742"><ele>318.8</ele><time>2026-04-07T12:40:23.998Z</time></trkpt><trkpt lat="43.48865376592373" lon="2.759775242629883"><ele>318.4</ele><time>2026-04-07T12:40:26Z</time></trkpt><trkpt lat="43.48868249685173" lon="2.7596158049950095"><ele>318.0</ele><time>2026-04-07T12:40:28Z</time></trkpt><trkpt lat="43.48870715773238" lon="2.759483522259872"><ele>318.0</ele><time>2026-04-07T12:40:30Z</time></trkpt><trkpt lat="43.488708180577795" lon="2.759389327784883"><ele>318.0</ele><time>2026-04-07T12:40:31Z</time></trkpt><trkpt lat="43.48872939366922" lon="2.7592841934573293"><ele>318.0</ele><time>2026-04-07T12:40:32Z</time></trkpt><trkpt lat="43.48876122172663" lon="2.7591872155680446"><ele>318.0</ele><time>2026-04-07T12:40:33Z</time></trkpt><trkpt lat="43.488777874283386" lon="2.759095168434318"><ele>318.0</ele><time>2026-04-07T12:40:34Z</time></trkpt><trkpt lat="43.488795749859534" lon="2.7589963612329527"><ele>318.0</ele><time>2026-04-07T12:40:35Z</time></trkpt><trkpt lat="43.48881110375286" lon="2.75891149243584"><ele>318.0</ele><time>2026-04-07T12:40:36Z</time></trkpt><trkpt lat="43.48882849353147" lon="2.758815370384285"><ele>318.0</ele><time>2026-04-07T12:40:37Z</time></trkpt><trkpt lat="43.48882848946675" lon="2.7587262280754206"><ele>318.0</ele><time>2026-04-07T12:40:38Z</time></trkpt><trkpt lat="43.488859413382094" lon="2.758645728380714"><ele>318.0</ele><time>2026-04-07T12:40:39Z</time></trkpt><trkpt lat="43.488875586768806" lon="2.7585504272509036"><ele>318.0</ele><time>2026-04-07T12:40:40Z</time></trkpt><trkpt lat="43.48889029917316" lon="2.7584625761201624"><ele>318.0</ele><time>2026-04-07T12:40:41Z</time></trkpt><trkpt lat="43.48890428435005" lon="2.758377456099315"><ele>318.0</ele><time>2026-04-07T12:40:42Z</time></trkpt><trkpt lat="43.48892117166492" lon="2.7582901527041184"><ele>318.0</ele><time>2026-04-07T12:40:43Z</time></trkpt><trkpt lat="43.48898789149881" lon="2.7581461638234086"><ele>318.0</ele><time>2026-04-07T12:40:45Z</time></trkpt><trkpt lat="43.48902671643835" lon="2.7580402502792207"><ele>318.0</ele><time>2026-04-07T12:40:46Z</time></trkpt><trkpt lat="43.48904201658265" lon="2.7579356262501773"><ele>318.0</ele><time>2026-04-07T12:40:47Z</time></trkpt><trkpt lat="43.489062245052004" lon="2.7578034178084025"><ele>318.0</ele><time>2026-04-07T12:40:48Z</time></trkpt><trkpt lat="43.48913242814152" lon="2.757668930403749"><ele>318.0</ele><time>2026-04-07T12:40:49Z</time></trkpt><trkpt lat="43.48922857566677" lon="2.7575855060498724"><ele>318.0</ele><time>2026-04-07T12:40:50Z</time></trkpt><trkpt lat="43.48929494222525" lon="2.757470563764651"><ele>318.0</ele><time>2026-04-07T12:40:51Z</time></trkpt><trkpt lat="43.48937670161177" lon="2.757371679844887"><ele>318.0</ele><time>2026-04-07T12:40:52Z</time></trkpt><trkpt lat="43.48944824610603" lon="2.7572751800522055"><ele>318.0</ele><time>2026-04-07T12:40:53Z</time></trkpt><trkpt lat="43.489516936741204" lon="2.7571711295826207"><ele>318.0</ele><time>2026-04-07T12:40:54Z</time></trkpt><trkpt lat="43.48959335756498" lon="2.7570768569143467"><ele>318.4</ele><time>2026-04-07T12:40:55Z</time></trkpt><trkpt lat="43.48966471783292" lon="2.756978881206599"><ele>318.8</ele><time>2026-04-07T12:40:56Z</time></trkpt><trkpt lat="43.48974658884312" lon="2.7569212839549593"><ele>319.2</ele><time>2026-04-07T12:40:57Z</time></trkpt><trkpt lat="43.489842851987376" lon="2.756862093087712"><ele>319.6</ele><time>2026-04-07T12:40:58Z</time></trkpt><trkpt lat="43.4899592817887" lon="2.756834438613352"><ele>320.0</ele><time>2026-04-07T12:40:59Z</time></trkpt><trkpt lat="43.490096746727865" lon="2.7568803579936834"><ele>321.5</ele><time>2026-04-07T12:40:59.999Z</time></trkpt><trkpt lat="43.490222006032916" lon="2.7569771836701116"><ele>323.0</ele><time>2026-04-07T12:41:00.999Z</time></trkpt><trkpt lat="43.49035061574917" lon="2.757071533813706"><ele>324.5</ele><time>2026-04-07T12:41:01.999Z</time></trkpt><trkpt lat="43.490472409993515" lon="2.7571458459276244"><ele>326.0</ele><time>2026-04-07T12:41:02.999Z</time></trkpt><trkpt lat="43.490581367560786" lon="2.7572071529757483"><ele>327.6</ele><time>2026-04-07T12:41:03.999Z</time></trkpt><trkpt lat="43.490675109395376" lon="2.7572420751453035"><ele>329.20000000000005</ele><time>2026-04-07T12:41:04.999Z</time></trkpt><trkpt lat="43.490783426474096" lon="2.7573080250711977"><ele>330.79999999999995</ele><time>2026-04-07T12:41:05.999Z</time></trkpt><trkpt lat="43.49089167009361" lon="2.757357307857255"><ele>332.4</ele><time>2026-04-07T12:41:06.999Z</time></trkpt><trkpt lat="43.491004339407354" lon="2.757383778446386"><ele>334.0</ele><time>2026-04-07T12:41:07.999Z</time></trkpt><trkpt lat="43.49112090001463" lon="2.7573973429570966"><ele>334.0</ele><time>2026-04-07T12:41:08.999Z</time></trkpt><trkpt lat="43.491246124488654" lon="2.7574176482679182"><ele>334.0</ele><time>2026-04-07T12:41:09.999Z</time></trkpt><trkpt lat="43.49136249831429" lon="2.757421301370598"><ele>334.0</ele><time>2026-04-07T12:41:10.999Z</time></trkpt><trkpt lat="43.49147812831513" lon="2.7574154802117583"><ele>334.0</ele><time>2026-04-07T12:41:11.999Z</time></trkpt><trkpt lat="43.49159314938961" lon="2.7573789609755637"><ele>335.25</ele><time>2026-04-07T12:41:12.999Z</time></trkpt><trkpt lat="43.49170972847115" lon="2.7573471154828257"><ele>336.5</ele><time>2026-04-07T12:41:13.999Z</time></trkpt><trkpt lat="43.491825576061686" lon="2.757303051048254"><ele>337.75</ele><time>2026-04-07T12:41:14.999Z</time></trkpt><trkpt lat="43.49195643046443" lon="2.7572535325204646"><ele>339.0</ele><time>2026-04-07T12:41:15.999Z</time></trkpt><trkpt lat="43.49207879705954" lon="2.7572255890713113"><ele>340.0</ele><time>2026-04-07T12:41:16.999Z</time></trkpt><trkpt lat="43.492206210169186" lon="2.7572244622116884"><ele>341.0</ele><time>2026-04-07T12:41:17.999Z</time></trkpt><trkpt lat="43.49233599410164" lon="2.7572517506580994"><ele>342.0</ele><time>2026-04-07T12:41:18.999Z</time></trkpt><trkpt lat="43.49245049145483" lon="2.757287806003809"><ele>343.0</ele><time>2026-04-07T12:41:19.999Z</time></trkpt><trkpt lat="43.492564116392636" lon="2.757284107581935"><ele>343.0</ele><time>2026-04-07T12:41:20.999Z</time></trkpt><trkpt lat="43.49268638953686" lon="2.757246460881307"><ele>343.0</ele><time>2026-04-07T12:41:21.999Z</time></trkpt><trkpt lat="43.49280985960982" lon="2.7571611281339283"><ele>343.0</ele><time>2026-04-07T12:41:22.999Z</time></trkpt><trkpt lat="43.49293186208702" lon="2.75706686612764"><ele>343.0</ele><time>2026-04-07T12:41:23.999Z</time></trkpt><trkpt lat="43.493042531017345" lon="2.756970354611125"><ele>343.25</ele><time>2026-04-07T12:41:24.999Z</time></trkpt><trkpt lat="43.4931443757963" lon="2.7568778319348457"><ele>343.5</ele><time>2026-04-07T12:41:25.999Z</time></trkpt><trkpt lat="43.49324083115393" lon="2.7567799826782475"><ele>343.75</ele><time>2026-04-07T12:41:26.999Z</time></trkpt><trkpt lat="43.49333039439751" lon="2.7566778258132185"><ele>344.0</ele><time>2026-04-07T12:41:27.999Z</time></trkpt><trkpt lat="43.4934160043896" lon="2.7565649784606103"><ele>344.0</ele><time>2026-04-07T12:41:28.999Z</time></trkpt><trkpt lat="43.4935065089941" lon="2.756453649503427"><ele>344.0</ele><time>2026-04-07T12:41:29.999Z</time></trkpt><trkpt lat="43.49359444592427" lon="2.756338485899943"><ele>344.0</ele><time>2026-04-07T12:41:30.999Z</time></trkpt><trkpt lat="43.493686207586386" lon="2.756222340193611"><ele>344.0</ele><time>2026-04-07T12:41:31.999Z</time></trkpt><trkpt lat="43.49378297841076" lon="2.7561096304611032"><ele>345.5</ele><time>2026-04-07T12:41:32.999Z</time></trkpt><trkpt lat="43.49388012464131" lon="2.7560163151758066"><ele>347.0</ele><time>2026-04-07T12:41:33.999Z</time></trkpt><trkpt lat="43.49398172464513" lon="2.7559275407753367"><ele>348.5</ele><time>2026-04-07T12:41:34.999Z</time></trkpt><trkpt lat="43.49409466444122" lon="2.7558598542155064"><ele>350.0</ele><time>2026-04-07T12:41:35.999Z</time></trkpt><trkpt lat="43.49421736848695" lon="2.7558162987957715"><ele>350.0</ele><time>2026-04-07T12:41:36.999Z</time></trkpt><trkpt lat="43.49433438708217" lon="2.7557805208018724"><ele>350.0</ele><time>2026-04-07T12:41:37.999Z</time></trkpt><trkpt lat="43.494452031369065" lon="2.75575990013919"><ele>350.0</ele><time>2026-04-07T12:41:38.999Z</time></trkpt><trkpt lat="43.494565638610304" lon="2.7557488417121534"><ele>350.0</ele><time>2026-04-07T12:41:39.999Z</time></trkpt><trkpt lat="43.49467953649497" lon="2.755748717283756"><ele>352.5</ele><time>2026-04-07T12:41:40.999Z</time></trkpt><trkpt lat="43.49479323793959" lon="2.7557426577086157"><ele>355.0</ele><time>2026-04-07T12:41:41.999Z</time></trkpt><trkpt lat="43.494909422234585" lon="2.7557271200405484"><ele>357.5</ele><time>2026-04-07T12:41:42.999Z</time></trkpt><trkpt lat="43.49502856201631" lon="2.7557234893996227"><ele>360.0</ele><time>2026-04-07T12:41:43.999Z</time></trkpt><trkpt lat="43.49514486005308" lon="2.7557253046212873"><ele>360.0</ele><time>2026-04-07T12:41:44.999Z</time></trkpt><trkpt lat="43.495260285737686" lon="2.7556913780007486"><ele>360.0</ele><time>2026-04-07T12:41:45.998Z</time></trkpt><trkpt lat="43.49536688354111" lon="2.7556566046046846"><ele>360.0</ele><time>2026-04-07T12:41:46.998Z</time></trkpt><trkpt lat="43.49547911306294" lon="2.7556152715977045"><ele>360.0</ele><time>2026-04-07T12:41:47.998Z</time></trkpt><trkpt lat="43.49558272579256" lon="2.755558405764703"><ele>362.75</ele><time>2026-04-07T12:41:48.998Z</time></trkpt><trkpt lat="43.49567466745537" lon="2.755495500910227"><ele>365.5</ele><time>2026-04-07T12:41:49.998Z</time></trkpt><trkpt lat="43.49577735320104" lon="2.7554382312253813"><ele>368.25</ele><time>2026-04-07T12:41:50.998Z</time></trkpt><trkpt lat="43.495873290206895" lon="2.7553730342379965"><ele>371.0</ele><time>2026-04-07T12:41:51.998Z</time></trkpt><trkpt lat="43.4960007389844" lon="2.7553394694305573"><ele>371.0</ele><time>2026-04-07T12:41:52.998Z</time></trkpt><trkpt lat="43.49612209641252" lon="2.755306863850326"><ele>371.0</ele><time>2026-04-07T12:41:53.998Z</time></trkpt><trkpt lat="43.49617205164884" lon="2.75519988484498"><ele>371.0</ele><time>2026-04-07T12:41:54.998Z</time></trkpt><trkpt lat="43.49626553433059" lon="2.7551280921437264"><ele>371.0</ele><time>2026-04-07T12:41:55.998Z</time></trkpt><trkpt lat="43.496359347343095" lon="2.755055112689971"><ele>371.0</ele><time>2026-04-07T12:41:56.998Z</time></trkpt><trkpt lat="43.49644829976251" lon="2.754986527218256"><ele>372.6</ele><time>2026-04-07T12:41:57.998Z</time></trkpt><trkpt lat="43.496541348897324" lon="2.7549114217491275"><ele>374.20000000000005</ele><time>2026-04-07T12:41:58.998Z</time></trkpt><trkpt lat="43.49663399289976" lon="2.7548272248450503"><ele>375.79999999999995</ele><time>2026-04-07T12:41:59.998Z</time></trkpt><trkpt lat="43.49672707656262" lon="2.7547426802302573"><ele>377.4</ele><time>2026-04-07T12:42:00.998Z</time></trkpt><trkpt lat="43.49681581470123" lon="2.7546465393647313"><ele>379.0</ele><time>2026-04-07T12:42:01.998Z</time></trkpt><trkpt lat="43.496898275925815" lon="2.754543269342793"><ele>379.0</ele><time>2026-04-07T12:42:02.998Z</time></trkpt><trkpt lat="43.496970240913946" lon="2.754428261621091"><ele>379.0</ele><time>2026-04-07T12:42:03.998Z</time></trkpt><trkpt lat="43.49703987728017" lon="2.7543104716994993"><ele>379.0</ele><time>2026-04-07T12:42:04.998Z</time></trkpt><trkpt lat="43.49709966558033" lon="2.754186734678936"><ele>379.0</ele><time>2026-04-07T12:42:05.998Z</time></trkpt><trkpt lat="43.497153607234424" lon="2.7540577905503505"><ele>379.0</ele><time>2026-04-07T12:42:06.998Z</time></trkpt><trkpt lat="43.49720260363848" lon="2.753926073423932"><ele>381.4</ele><time>2026-04-07T12:42:07.998Z</time></trkpt><trkpt lat="43.49724871979709" lon="2.7537929600933273"><ele>383.79999999999995</ele><time>2026-04-07T12:42:08.998Z</time></trkpt><trkpt lat="43.4972805948788" lon="2.7536487648934256"><ele>386.20000000000005</ele><time>2026-04-07T12:42:09.998Z</time></trkpt><trkpt lat="43.49729863590697" lon="2.7535080104136123"><ele>388.6</ele><time>2026-04-07T12:42:10.998Z</time></trkpt><trkpt lat="43.49731401022715" lon="2.7533577860455405"><ele>391.0</ele><time>2026-04-07T12:42:11.998Z</time></trkpt><trkpt lat="43.497330126900216" lon="2.7532157599055425"><ele>391.0</ele><time>2026-04-07T12:42:12.998Z</time></trkpt><trkpt lat="43.497346171580325" lon="2.7530662799024848"><ele>391.0</ele><time>2026-04-07T12:42:13.998Z</time></trkpt><trkpt lat="43.497360647570304" lon="2.7529170990072394"><ele>391.0</ele><time>2026-04-07T12:42:14.998Z</time></trkpt><trkpt lat="43.49737666040337" lon="2.7527729525027267"><ele>391.0</ele><time>2026-04-07T12:42:15.998Z</time></trkpt><trkpt lat="43.497403131415844" lon="2.752630742746867"><ele>391.0</ele><time>2026-04-07T12:42:16.998Z</time></trkpt><trkpt lat="43.497423317584754" lon="2.7524985899073857"><ele>390.75</ele><time>2026-04-07T12:42:17.998Z</time></trkpt><trkpt lat="43.49746575411368" lon="2.7523546792931475"><ele>390.5</ele><time>2026-04-07T12:42:18.998Z</time></trkpt><trkpt lat="43.49751359792263" lon="2.7522134707433916"><ele>390.25</ele><time>2026-04-07T12:42:19.998Z</time></trkpt><trkpt lat="43.497567207657276" lon="2.752074555525674"><ele>390.0</ele><time>2026-04-07T12:42:20.998Z</time></trkpt><trkpt lat="43.49762679094672" lon="2.7519277044462758"><ele>385.75</ele><time>2026-04-07T12:42:21.998Z</time></trkpt><trkpt lat="43.49769928467501" lon="2.751790309734393"><ele>381.5</ele><time>2026-04-07T12:42:22.998Z</time></trkpt><trkpt lat="43.49777632424639" lon="2.7516566753969127"><ele>377.25</ele><time>2026-04-07T12:42:23.998Z</time></trkpt><trkpt lat="43.49785551584958" lon="2.751521554607347"><ele>373.0</ele><time>2026-04-07T12:42:24.998Z</time></trkpt><trkpt lat="43.497943934691264" lon="2.751388263861484"><ele>378.25</ele><time>2026-04-07T12:42:25.998Z</time></trkpt><trkpt lat="43.49802308220232" lon="2.751257997795244"><ele>383.5</ele><time>2026-04-07T12:42:26.998Z</time></trkpt><trkpt lat="43.49810252164482" lon="2.751123567567172"><ele>388.75</ele><time>2026-04-07T12:42:27.998Z</time></trkpt><trkpt lat="43.498182835269915" lon="2.750988514895585"><ele>394.0</ele><time>2026-04-07T12:42:28.998Z</time></trkpt><trkpt lat="43.498261180854364" lon="2.7508575082520563"><ele>394.0</ele><time>2026-04-07T12:42:29.998Z</time></trkpt><trkpt lat="43.498346358274866" lon="2.750736642135113"><ele>394.0</ele><time>2026-04-07T12:42:31Z</time></trkpt><trkpt lat="43.498459190656604" lon="2.750667403551066"><ele>394.0</ele><time>2026-04-07T12:42:32Z</time></trkpt><trkpt lat="43.49857496709248" lon="2.7506153095545964"><ele>394.0</ele><time>2026-04-07T12:42:33Z</time></trkpt><trkpt lat="43.498700139726054" lon="2.7506010107269523"><ele>394.5</ele><time>2026-04-07T12:42:34Z</time></trkpt><trkpt lat="43.49882188103805" lon="2.75062849374781"><ele>395.0</ele><time>2026-04-07T12:42:35Z</time></trkpt><trkpt lat="43.49893492156609" lon="2.750698633659845"><ele>395.5</ele><time>2026-04-07T12:42:36Z</time></trkpt><trkpt lat="43.49904920514236" lon="2.75079130439318"><ele>396.0</ele><time>2026-04-07T12:42:37Z</time></trkpt><trkpt lat="43.49915752016855" lon="2.7508825765631375"><ele>396.0</ele><time>2026-04-07T12:42:38Z</time></trkpt><trkpt lat="43.499254069121186" lon="2.7509712737487404"><ele>396.0</ele><time>2026-04-07T12:42:39Z</time></trkpt><trkpt lat="43.49935162253851" lon="2.751067402927249"><ele>396.0</ele><time>2026-04-07T12:42:40Z</time></trkpt><trkpt lat="43.499441237533446" lon="2.751173888174556"><ele>396.0</ele><time>2026-04-07T12:42:41Z</time></trkpt><trkpt lat="43.49951560068675" lon="2.7512785812023317"><ele>397.4</ele><time>2026-04-07T12:42:42Z</time></trkpt><trkpt lat="43.49958570727721" lon="2.751396875903273"><ele>398.8</ele><time>2026-04-07T12:42:43Z</time></trkpt><trkpt lat="43.49964326537167" lon="2.7515122662568845"><ele>400.2</ele><time>2026-04-07T12:42:44Z</time></trkpt><trkpt lat="43.49970714039558" lon="2.751615934742964"><ele>401.59999999999997</ele><time>2026-04-07T12:42:45Z</time></trkpt><trkpt lat="43.4997737287433" lon="2.751739999259929"><ele>403.0</ele><time>2026-04-07T12:42:46Z</time></trkpt><trkpt lat="43.49986273087763" lon="2.7518354479629195"><ele>411.5</ele><time>2026-04-07T12:42:47Z</time></trkpt><trkpt lat="43.499961798693604" lon="2.7519120400776336"><ele>420.0</ele><time>2026-04-07T12:42:48Z</time></trkpt><trkpt lat="43.50007105813197" lon="2.751960380755264"><ele>428.5</ele><time>2026-04-07T12:42:49Z</time></trkpt><trkpt lat="43.50018963210615" lon="2.7519681571097356"><ele>437.0</ele><time>2026-04-07T12:42:50Z</time></trkpt><trkpt lat="43.500303840141264" lon="2.7519676966651616"><ele>440.0</ele><time>2026-04-07T12:42:51Z</time></trkpt><trkpt lat="43.50042595111479" lon="2.7519393014729565"><ele>443.0</ele><time>2026-04-07T12:42:52Z</time></trkpt><trkpt lat="43.50053952238147" lon="2.751923120818604"><ele>446.0</ele><time>2026-04-07T12:42:53Z</time></trkpt><trkpt lat="43.50066102648297" lon="2.751899439274903"><ele>449.0</ele><time>2026-04-07T12:42:54Z</time></trkpt><trkpt lat="43.50079130204669" lon="2.7518504992724204"><ele>444.75</ele><time>2026-04-07T12:42:55Z</time></trkpt><trkpt lat="43.5009150509676" lon="2.7517955948118438"><ele>440.5</ele><time>2026-04-07T12:42:56Z</time></trkpt><trkpt lat="43.5010403357366" lon="2.751739465676529"><ele>436.25</ele><time>2026-04-07T12:42:57Z</time></trkpt><trkpt lat="43.50116951492849" lon="2.751690208189536"><ele>432.0</ele><time>2026-04-07T12:42:58Z</time></trkpt><trkpt lat="43.50129445318666" lon="2.7516379766755"><ele>432.0</ele><time>2026-04-07T12:42:59Z</time></trkpt><trkpt lat="43.50140849017708" lon="2.75158572913711"><ele>432.0</ele><time>2026-04-07T12:43:00Z</time></trkpt><trkpt lat="43.50152047613637" lon="2.7515415921733006"><ele>432.0</ele><time>2026-04-07T12:43:01Z</time></trkpt><trkpt lat="43.50163291675988" lon="2.7514915020246016"><ele>432.0</ele><time>2026-04-07T12:43:02Z</time></trkpt><trkpt lat="43.501739712934075" lon="2.7514376654294073"><ele>432.0</ele><time>2026-04-07T12:43:03Z</time></trkpt><trkpt lat="43.501844425799476" lon="2.75137578972995"><ele>432.0</ele><time>2026-04-07T12:43:03.999Z</time></trkpt><trkpt lat="43.50193602513514" lon="2.7512767345298363"><ele>432.0</ele><time>2026-04-07T12:43:04.999Z</time></trkpt><trkpt lat="43.50201855624037" lon="2.751154161562217"><ele>432.0</ele><time>2026-04-07T12:43:05.999Z</time></trkpt><trkpt lat="43.50208400105391" lon="2.7510016912243835"><ele>435.0</ele><time>2026-04-07T12:43:06.999Z</time></trkpt><trkpt lat="43.50213845823225" lon="2.7508400799546533"><ele>438.0</ele><time>2026-04-07T12:43:07.999Z</time></trkpt><trkpt lat="43.50218310757324" lon="2.7506573182000973"><ele>441.0</ele><time>2026-04-07T12:43:08.999Z</time></trkpt><trkpt lat="43.502231981352246" lon="2.750466490562395"><ele>444.0</ele><time>2026-04-07T12:43:09.999Z</time></trkpt><trkpt lat="43.502293594820536" lon="2.750276233807951"><ele>441.0</ele><time>2026-04-07T12:43:10.999Z</time></trkpt><trkpt lat="43.50235677885101" lon="2.7500815563337566"><ele>438.0</ele><time>2026-04-07T12:43:11.999Z</time></trkpt><trkpt lat="43.502426121303344" lon="2.749882360433648"><ele>435.0</ele><time>2026-04-07T12:43:12.999Z</time></trkpt><trkpt lat="43.50250216767646" lon="2.7496801636196673"><ele>435.0</ele><time>2026-04-07T12:43:13.999Z</time></trkpt><trkpt lat="43.502598541707684" lon="2.7494892813251592"><ele>435.0</ele><time>2026-04-07T12:43:14.999Z</time></trkpt><trkpt lat="43.50272400985249" lon="2.749326764693391"><ele>435.0</ele><time>2026-04-07T12:43:15.999Z</time></trkpt><trkpt lat="43.50284370121959" lon="2.7491924405590313"><ele>437.8</ele><time>2026-04-07T12:43:16.999Z</time></trkpt><trkpt lat="43.502952084270824" lon="2.749086093023564"><ele>440.6</ele><time>2026-04-07T12:43:17.999Z</time></trkpt><trkpt lat="43.50304922015748" lon="2.7490177588943587"><ele>443.4</ele><time>2026-04-07T12:43:18.999Z</time></trkpt><trkpt lat="43.503093510731325" lon="2.7489032152768256"><ele>446.2</ele><time>2026-04-07T12:43:19.999Z</time></trkpt><trkpt lat="43.50307212306897" lon="2.74877467977064"><ele>449.0</ele><time>2026-04-07T12:43:20.999Z</time></trkpt><trkpt lat="43.502991901621584" lon="2.748673028049996"><ele>444.75</ele><time>2026-04-07T12:43:21.999Z</time></trkpt><trkpt lat="43.50287214532731" lon="2.7485993635265737"><ele>440.5</ele><time>2026-04-07T12:43:22.999Z</time></trkpt><trkpt lat="43.50274609616967" lon="2.7486231141534057"><ele>436.25</ele><time>2026-04-07T12:43:23.999Z</time></trkpt><trkpt lat="43.50261991053517" lon="2.748721119424418"><ele>432.0</ele><time>2026-04-07T12:43:24.999Z</time></trkpt><trkpt lat="43.50249133963677" lon="2.748779853870828"><ele>432.0</ele><time>2026-04-07T12:43:25.999Z</time></trkpt><trkpt lat="43.502396877851965" lon="2.7488311786361956"><ele>432.0</ele><time>2026-04-07T12:43:26.999Z</time></trkpt><trkpt lat="43.502296124550874" lon="2.748885921782284"><ele>432.0</ele><time>2026-04-07T12:43:27.999Z</time></trkpt><trkpt lat="43.50218806417083" lon="2.7489446352419087"><ele>432.0</ele><time>2026-04-07T12:43:28.999Z</time></trkpt><trkpt lat="43.50207176952236" lon="2.749007822598293"><ele>432.75</ele><time>2026-04-07T12:43:29.999Z</time></trkpt><trkpt lat="43.5019602398516" lon="2.749087802027953"><ele>433.5</ele><time>2026-04-07T12:43:30.999Z</time></trkpt><trkpt lat="43.50183227342318" lon="2.74915593708338"><ele>434.25</ele><time>2026-04-07T12:43:31.999Z</time></trkpt><trkpt lat="43.501703009599744" lon="2.749232832642882"><ele>435.0</ele><time>2026-04-07T12:43:32.999Z</time></trkpt><trkpt lat="43.501576079017696" lon="2.7492455484732163"><ele>435.0</ele><time>2026-04-07T12:43:33.999Z</time></trkpt><trkpt lat="43.50148331505284" lon="2.749190773156177"><ele>435.0</ele><time>2026-04-07T12:43:34.999Z</time></trkpt><trkpt lat="43.501424015876914" lon="2.749086047175441"><ele>435.0</ele><time>2026-04-07T12:43:35.999Z</time></trkpt><trkpt lat="43.50141715909714" lon="2.7489541772106634"><ele>435.0</ele><time>2026-04-07T12:43:36.999Z</time></trkpt><trkpt lat="43.501475612101736" lon="2.7488282562971866"><ele>435.0</ele><time>2026-04-07T12:43:37.999Z</time></trkpt><trkpt lat="43.501567833779006" lon="2.7487354690237265"><ele>435.0</ele><time>2026-04-07T12:43:38.999Z</time></trkpt><trkpt lat="43.50168172042584" lon="2.748673862721292"><ele>435.0</ele><time>2026-04-07T12:43:39.999Z</time></trkpt><trkpt lat="43.501802500481105" lon="2.7486381879873005"><ele>435.0</ele><time>2026-04-07T12:43:40.999Z</time></trkpt><trkpt lat="43.501901433610094" lon="2.74860365430075"><ele>435.0</ele><time>2026-04-07T12:43:41.999Z</time></trkpt><trkpt lat="43.501982618013365" lon="2.7485526213487943"><ele>435.0</ele><time>2026-04-07T12:43:42.999Z</time></trkpt><trkpt lat="43.50205661479419" lon="2.748490716021615"><ele>436.8333333333333</ele><time>2026-04-07T12:43:43.999Z</time></trkpt><trkpt lat="43.502129316579925" lon="2.7484259934321953"><ele>438.66666666666663</ele><time>2026-04-07T12:43:44.999Z</time></trkpt><trkpt lat="43.50220301136999" lon="2.748356149277601"><ele>440.5</ele><time>2026-04-07T12:43:45.999Z</time></trkpt><trkpt lat="43.50227724403254" lon="2.748283819780502"><ele>442.3333333333333</ele><time>2026-04-07T12:43:46.999Z</time></trkpt><trkpt lat="43.5023472790113" lon="2.7482162738585347"><ele>444.16666666666663</ele><time>2026-04-07T12:43:47.999Z</time></trkpt><trkpt lat="43.502414959887226" lon="2.7481481921515685"><ele>446.0</ele><time>2026-04-07T12:43:48.999Z</time></trkpt><trkpt lat="43.50248090402306" lon="2.7480808915066848"><ele>445.99999999999994</ele><time>2026-04-07T12:43:49.998Z</time></trkpt><trkpt lat="43.502546064585474" lon="2.748003098907003"><ele>446.0</ele><time>2026-04-07T12:43:50.998Z</time></trkpt><trkpt lat="43.50260725275557" lon="2.7479331505687687"><ele>446.0</ele><time>2026-04-07T12:43:51.998Z</time></trkpt><trkpt lat="43.50267065154115" lon="2.747855006495927"><ele>446.0</ele><time>2026-04-07T12:43:52.998Z</time></trkpt><trkpt lat="43.50273164836155" lon="2.747773419304049"><ele>445.99999999999994</ele><time>2026-04-07T12:43:53.998Z</time></trkpt><trkpt lat="43.502785911224144" lon="2.74768532439381"><ele>446.0</ele><time>2026-04-07T12:43:54.998Z</time></trkpt><trkpt lat="43.50284449483708" lon="2.747596988559842"><ele>445.16666666666663</ele><time>2026-04-07T12:43:55.998Z</time></trkpt><trkpt lat="43.50289938356403" lon="2.747505070000132"><ele>444.3333333333333</ele><time>2026-04-07T12:43:56.998Z</time></trkpt><trkpt lat="43.502951303038344" lon="2.747411056288203"><ele>443.5</ele><time>2026-04-07T12:43:57.998Z</time></trkpt><trkpt lat="43.50300324174067" lon="2.747313046694356"><ele>442.66666666666663</ele><time>2026-04-07T12:43:58.998Z</time></trkpt><trkpt lat="43.503049067281566" lon="2.7472145037995364"><ele>441.8333333333333</ele><time>2026-04-07T12:43:59.998Z</time></trkpt><trkpt lat="43.503094271247235" lon="2.7471155541261063"><ele>441.0</ele><time>2026-04-07T12:44:00.998Z</time></trkpt><trkpt lat="43.50313472712779" lon="2.747015206716062"><ele>445.6</ele><time>2026-04-07T12:44:01.998Z</time></trkpt><trkpt lat="43.50317546707651" lon="2.7469136247258894"><ele>450.20000000000005</ele><time>2026-04-07T12:44:02.998Z</time></trkpt><trkpt lat="43.50321362658438" lon="2.746804166814397"><ele>454.79999999999995</ele><time>2026-04-07T12:44:03.998Z</time></trkpt><trkpt lat="43.50325267494582" lon="2.7466748056920105"><ele>459.4</ele><time>2026-04-07T12:44:04.998Z</time></trkpt><trkpt lat="43.50329146022619" lon="2.746534457490158"><ele>464.0</ele><time>2026-04-07T12:44:05.998Z</time></trkpt><trkpt lat="43.50332945779389" lon="2.7463919325582133"><ele>464.0</ele><time>2026-04-07T12:44:06.998Z</time></trkpt><trkpt lat="43.50336522131725" lon="2.746239670394276"><ele>464.0</ele><time>2026-04-07T12:44:07.998Z</time></trkpt><trkpt lat="43.50340256596008" lon="2.7460839946346574"><ele>464.0</ele><time>2026-04-07T12:44:08.998Z</time></trkpt><trkpt lat="43.503442845067084" lon="2.7459252580858555"><ele>464.0</ele><time>2026-04-07T12:44:09.998Z</time></trkpt><trkpt lat="43.50348901788313" lon="2.745762341325376"><ele>462.75</ele><time>2026-04-07T12:44:10.998Z</time></trkpt><trkpt lat="43.503534260881125" lon="2.7455937098807044"><ele>461.5</ele><time>2026-04-07T12:44:11.998Z</time></trkpt><trkpt lat="43.50357291301096" lon="2.7454221019207674"><ele>460.25</ele><time>2026-04-07T12:44:12.998Z</time></trkpt><trkpt lat="43.50362253807489" lon="2.745249064392075"><ele>459.0</ele><time>2026-04-07T12:44:13.998Z</time></trkpt><trkpt lat="43.50367040970144" lon="2.7450761722732087"><ele>458.5</ele><time>2026-04-07T12:44:14.998Z</time></trkpt><trkpt lat="43.50373035134741" lon="2.7449058500188"><ele>458.0</ele><time>2026-04-07T12:44:15.998Z</time></trkpt><trkpt lat="43.50380743810221" lon="2.744738908477665"><ele>457.5</ele><time>2026-04-07T12:44:16.998Z</time></trkpt><trkpt lat="43.503905950789765" lon="2.744586901948262"><ele>457.0</ele><time>2026-04-07T12:44:17.998Z</time></trkpt><trkpt lat="43.50400556527111" lon="2.744453565596337"><ele>460.0</ele><time>2026-04-07T12:44:18.998Z</time></trkpt><trkpt lat="43.5041122576181" lon="2.744332921139639"><ele>463.0</ele><time>2026-04-07T12:44:19.998Z</time></trkpt><trkpt lat="43.50422074080835" lon="2.7442214949176202"><ele>466.0</ele><time>2026-04-07T12:44:20.998Z</time></trkpt><trkpt lat="43.504337779245525" lon="2.7441232403510263"><ele>469.0</ele><time>2026-04-07T12:44:21.998Z</time></trkpt><trkpt lat="43.504455400249526" lon="2.7440411226394255"><ele>469.0</ele><time>2026-04-07T12:44:22.998Z</time></trkpt><trkpt lat="43.50457609373359" lon="2.743970336717151"><ele>469.0</ele><time>2026-04-07T12:44:23.998Z</time></trkpt><trkpt lat="43.504699772126905" lon="2.743913515588952"><ele>469.0</ele><time>2026-04-07T12:44:24.998Z</time></trkpt><trkpt lat="43.50482417922528" lon="2.74386128144723"><ele>469.0</ele><time>2026-04-07T12:44:25.998Z</time></trkpt><trkpt lat="43.50494587856533" lon="2.743818955537897"><ele>474.25</ele><time>2026-04-07T12:44:26.998Z</time></trkpt><trkpt lat="43.505070222617995" lon="2.743798292360034"><ele>479.5</ele><time>2026-04-07T12:44:27.998Z</time></trkpt><trkpt lat="43.505193256019574" lon="2.7437859057964977"><ele>484.75</ele><time>2026-04-07T12:44:28.998Z</time></trkpt><trkpt lat="43.50531559983883" lon="2.743777629035897"><ele>490.0</ele><time>2026-04-07T12:44:29.998Z</time></trkpt><trkpt lat="43.50543682304497" lon="2.743751771042506"><ele>488.5</ele><time>2026-04-07T12:44:30.998Z</time></trkpt><trkpt lat="43.50555653599134" lon="2.7436898709616253"><ele>487.0</ele><time>2026-04-07T12:44:31.998Z</time></trkpt><trkpt lat="43.50566928442031" lon="2.7435987914864097"><ele>485.5</ele><time>2026-04-07T12:44:32.998Z</time></trkpt><trkpt lat="43.50577393812059" lon="2.7434938510190148"><ele>484.0</ele><time>2026-04-07T12:44:33.998Z</time></trkpt><trkpt lat="43.50587325280583" lon="2.7433718636432083"><ele>484.0</ele><time>2026-04-07T12:44:34.998Z</time></trkpt><trkpt lat="43.50597250189391" lon="2.743240467929109"><ele>484.0</ele><time>2026-04-07T12:44:35.997Z</time></trkpt><trkpt lat="43.50606884980823" lon="2.74309723311327"><ele>484.0</ele><time>2026-04-07T12:44:37Z</time></trkpt><trkpt lat="43.50616524426401" lon="2.742959306303637"><ele>484.0</ele><time>2026-04-07T12:44:38Z</time></trkpt><trkpt lat="43.50625999705866" lon="2.742826856870933"><ele>487.25</ele><time>2026-04-07T12:44:39Z</time></trkpt><trkpt lat="43.50635323923661" lon="2.7426936320348045"><ele>490.5</ele><time>2026-04-07T12:44:40Z</time></trkpt><trkpt lat="43.506447571634055" lon="2.7425563861888107"><ele>493.75</ele><time>2026-04-07T12:44:41Z</time></trkpt><trkpt lat="43.50653723087852" lon="2.742427263927677"><ele>497.0</ele><time>2026-04-07T12:44:42Z</time></trkpt><trkpt lat="43.50662890318961" lon="2.74229608039477"><ele>497.0</ele><time>2026-04-07T12:44:43Z</time></trkpt><trkpt lat="43.50672045242757" lon="2.7421571191991045"><ele>497.0</ele><time>2026-04-07T12:44:44Z</time></trkpt><trkpt lat="43.50681229518124" lon="2.742024124354489"><ele>497.0</ele><time>2026-04-07T12:44:45Z</time></trkpt><trkpt lat="43.50689999615576" lon="2.741897206471451"><ele>497.0</ele><time>2026-04-07T12:44:46Z</time></trkpt><trkpt lat="43.506996793535706" lon="2.7417744100175883"><ele>498.75</ele><time>2026-04-07T12:44:47Z</time></trkpt><trkpt lat="43.50709734575399" lon="2.741657234560796"><ele>500.5</ele><time>2026-04-07T12:44:48Z</time></trkpt><trkpt lat="43.507202411969196" lon="2.7415438024254493"><ele>502.25</ele><time>2026-04-07T12:44:49Z</time></trkpt><trkpt lat="43.507308576162394" lon="2.7414442672734523"><ele>504.0</ele><time>2026-04-07T12:44:50Z</time></trkpt><trkpt lat="43.50740888337102" lon="2.7413321897864735"><ele>504.0</ele><time>2026-04-07T12:44:51Z</time></trkpt><trkpt lat="43.507513345319325" lon="2.7412376249294477"><ele>504.0</ele><time>2026-04-07T12:44:52Z</time></trkpt><trkpt lat="43.507639943261246" lon="2.7411957251445673"><ele>504.0</ele><time>2026-04-07T12:44:53Z</time></trkpt><trkpt lat="43.50777153770737" lon="2.741207764387509"><ele>504.0</ele><time>2026-04-07T12:44:54Z</time></trkpt><trkpt lat="43.507898872015566" lon="2.7412777727476625"><ele>503.75</ele><time>2026-04-07T12:44:55Z</time></trkpt><trkpt lat="43.508017186987914" lon="2.7413868345259793"><ele>503.5</ele><time>2026-04-07T12:44:56Z</time></trkpt><trkpt lat="43.50812544689575" lon="2.741512012609742"><ele>503.25</ele><time>2026-04-07T12:44:57Z</time></trkpt><trkpt lat="43.50821929529856" lon="2.7416434218525376"><ele>503.0</ele><time>2026-04-07T12:44:58Z</time></trkpt><trkpt lat="43.50830050215594" lon="2.741779194446128"><ele>507.75</ele><time>2026-04-07T12:44:59Z</time></trkpt><trkpt lat="43.508365805804004" lon="2.7419167822940644"><ele>512.5</ele><time>2026-04-07T12:45:00Z</time></trkpt><trkpt lat="43.508432956260066" lon="2.742062485347233"><ele>517.25</ele><time>2026-04-07T12:45:01Z</time></trkpt><trkpt lat="43.50849947520283" lon="2.742210538859786"><ele>522.0</ele><time>2026-04-07T12:45:02Z</time></trkpt><trkpt lat="43.50856343653146" lon="2.7423506489442615"><ele>522.0</ele><time>2026-04-07T12:45:03Z</time></trkpt><trkpt lat="43.50862581593248" lon="2.742486914570583"><ele>522.0</ele><time>2026-04-07T12:45:04Z</time></trkpt><trkpt lat="43.50869070820459" lon="2.742621849933811"><ele>522.0</ele><time>2026-04-07T12:45:05Z</time></trkpt><trkpt lat="43.50874941763452" lon="2.742757293552514"><ele>522.0</ele><time>2026-04-07T12:45:06Z</time></trkpt><trkpt lat="43.50881100607073" lon="2.742890275158908"><ele>518.75</ele><time>2026-04-07T12:45:07Z</time></trkpt><trkpt lat="43.50887301213546" lon="2.743024856252143"><ele>515.5</ele><time>2026-04-07T12:45:08Z</time></trkpt><trkpt lat="43.50893363784143" lon="2.7431591072043093"><ele>512.25</ele><time>2026-04-07T12:45:09Z</time></trkpt><trkpt lat="43.50898972374609" lon="2.7432940591173662"><ele>509.0</ele><time>2026-04-07T12:45:10Z</time></trkpt><trkpt lat="43.509044635401544" lon="2.7434282892531594"><ele>512.6</ele><time>2026-04-07T12:45:11Z</time></trkpt><trkpt lat="43.50909344916239" lon="2.743563720963405"><ele>516.2</ele><time>2026-04-07T12:45:11.999Z</time></trkpt><trkpt lat="43.509135779454354" lon="2.7436943466639137"><ele>519.8000000000001</ele><time>2026-04-07T12:45:12.999Z</time></trkpt><trkpt lat="43.50916695169418" lon="2.743835049273544"><ele>523.4</ele><time>2026-04-07T12:45:13.999Z</time></trkpt><trkpt lat="43.50918256278913" lon="2.743975114685558"><ele>527.0</ele><time>2026-04-07T12:45:14.999Z</time></trkpt><trkpt lat="43.50919988931693" lon="2.7441150314941685"><ele>527.0</ele><time>2026-04-07T12:45:15.999Z</time></trkpt><trkpt lat="43.50920041148837" lon="2.7442319787186906"><ele>527.0</ele><time>2026-04-07T12:45:16.999Z</time></trkpt><trkpt lat="43.50920575284816" lon="2.744326946198067"><ele>527.0</ele><time>2026-04-07T12:45:17.999Z</time></trkpt><trkpt lat="43.50920450831704" lon="2.744421859170753"><ele>527.0</ele><time>2026-04-07T12:45:18.999Z</time></trkpt><trkpt lat="43.50936279260721" lon="2.744624219808804"><ele>527.0</ele><time>2026-04-07T12:45:19.999Z</time></trkpt><trkpt lat="43.509426722218095" lon="2.744729271786585"><ele>529.5</ele><time>2026-04-07T12:45:20.999Z</time></trkpt><trkpt lat="43.50950910685837" lon="2.7448197901313645"><ele>532.0</ele><time>2026-04-07T12:45:21.999Z</time></trkpt><trkpt lat="43.50961437025146" lon="2.7448998894863488"><ele>534.5</ele><time>2026-04-07T12:45:22.999Z</time></trkpt><trkpt lat="43.509725414583066" lon="2.744997721337738"><ele>537.0</ele><time>2026-04-07T12:45:23.999Z</time></trkpt><trkpt lat="43.5098357080175" lon="2.7451175830449452"><ele>538.0</ele><time>2026-04-07T12:45:24.999Z</time></trkpt><trkpt lat="43.50993980811771" lon="2.7452517104913996"><ele>539.0</ele><time>2026-04-07T12:45:25.999Z</time></trkpt><trkpt lat="43.51004316822259" lon="2.745402600893086"><ele>540.0</ele><time>2026-04-07T12:45:26.999Z</time></trkpt><trkpt lat="43.51014755274283" lon="2.745556065592169"><ele>541.0</ele><time>2026-04-07T12:45:27.999Z</time></trkpt><trkpt lat="43.51024971743072" lon="2.7457251141804426"><ele>541.0</ele><time>2026-04-07T12:45:28.999Z</time></trkpt><trkpt lat="43.51035541935704" lon="2.7458925656390782"><ele>541.0</ele><time>2026-04-07T12:45:29.999Z</time></trkpt><trkpt lat="43.51045975719853" lon="2.7460611646547646"><ele>541.0</ele><time>2026-04-07T12:45:30.999Z</time></trkpt><trkpt lat="43.51056439289336" lon="2.7462433534426354"><ele>539.0</ele><time>2026-04-07T12:45:31.999Z</time></trkpt><trkpt lat="43.510685672423236" lon="2.7463981711607297"><ele>537.0</ele><time>2026-04-07T12:45:32.999Z</time></trkpt><trkpt lat="43.51082898659616" lon="2.746502592046758"><ele>535.0</ele><time>2026-04-07T12:45:33.999Z</time></trkpt><trkpt lat="43.51097185201582" lon="2.746531261002242"><ele>535.0</ele><time>2026-04-07T12:45:34.999Z</time></trkpt><trkpt lat="43.511116506034504" lon="2.746491258598177"><ele>535.0</ele><time>2026-04-07T12:45:35.999Z</time></trkpt><trkpt lat="43.51125874008482" lon="2.7463895330926875"><ele>535.0</ele><time>2026-04-07T12:45:36.999Z</time></trkpt><trkpt lat="43.51137030491739" lon="2.746237630724618"><ele>541.3333333333334</ele><time>2026-04-07T12:45:37.999Z</time></trkpt><trkpt lat="43.51145266480584" lon="2.7460391254401957"><ele>547.6666666666666</ele><time>2026-04-07T12:45:38.999Z</time></trkpt><trkpt lat="43.511479718233566" lon="2.7458205684360237"><ele>554.0</ele><time>2026-04-07T12:45:39.999Z</time></trkpt><trkpt lat="43.511449434696864" lon="2.7455900999078615"><ele>554.0</ele><time>2026-04-07T12:45:40.999Z</time></trkpt><trkpt lat="43.51130475667361" lon="2.7453037275789365"><ele>554.0</ele><time>2026-04-07T12:45:41.999Z</time></trkpt><trkpt lat="43.51120697074259" lon="2.7451175065668063"><ele>554.0</ele><time>2026-04-07T12:45:42.999Z</time></trkpt><trkpt lat="43.51114642374962" lon="2.7449213155821406"><ele>545.3333333333333</ele><time>2026-04-07T12:45:43.999Z</time></trkpt><trkpt lat="43.511142635778775" lon="2.744694750293943"><ele>536.6666666666666</ele><time>2026-04-07T12:45:44.999Z</time></trkpt><trkpt lat="43.511172109454385" lon="2.744459058939756"><ele>528.0</ele><time>2026-04-07T12:45:45.999Z</time></trkpt><trkpt lat="43.51124058973536" lon="2.7442676680130678"><ele>537.25</ele><time>2026-04-07T12:45:46.999Z</time></trkpt><trkpt lat="43.51127240223436" lon="2.7440921501746636"><ele>546.5</ele><time>2026-04-07T12:45:47.999Z</time></trkpt><trkpt lat="43.511306091118605" lon="2.7439318010475775"><ele>555.75</ele><time>2026-04-07T12:45:48.999Z</time></trkpt><trkpt lat="43.51133856026864" lon="2.7437858712242225"><ele>565.0</ele><time>2026-04-07T12:45:49.999Z</time></trkpt><trkpt lat="43.51136747329451" lon="2.743651145508437"><ele>564.6</ele><time>2026-04-07T12:45:50.999Z</time></trkpt><trkpt lat="43.51138726278925" lon="2.7435275085474315"><ele>564.2</ele><time>2026-04-07T12:45:51.999Z</time></trkpt><trkpt lat="43.51140233561775" lon="2.7434237765415084"><ele>563.8</ele><time>2026-04-07T12:45:52.999Z</time></trkpt><trkpt lat="43.511402308062756" lon="2.7433222099530807"><ele>563.4</ele><time>2026-04-07T12:45:53.999Z</time></trkpt><trkpt lat="43.511417224195895" lon="2.743170526883024"><ele>563.0</ele><time>2026-04-07T12:45:55.999Z</time></trkpt><trkpt lat="43.51141800110045" lon="2.743006382588869"><ele>563.0</ele><time>2026-04-07T12:45:57.998Z</time></trkpt><trkpt lat="43.51148125631996" lon="2.7429286630690894"><ele>563.0</ele><time>2026-04-07T12:45:59.998Z</time></trkpt><trkpt lat="43.51154947874627" lon="2.7430666615486747"><ele>563.0</ele><time>2026-04-07T12:46:01.998Z</time></trkpt><trkpt lat="43.51150482298009" lon="2.743191867107845"><ele>563.0</ele><time>2026-04-07T12:46:03.998Z</time></trkpt><trkpt lat="43.51148938057586" lon="2.7433219622768883"><ele>563.0</ele><time>2026-04-07T12:46:05.998Z</time></trkpt><trkpt lat="43.51148925552674" lon="2.743466744479588"><ele>563.4</ele><time>2026-04-07T12:46:07.998Z</time></trkpt><trkpt lat="43.511476450483116" lon="2.74358968500224"><ele>563.8</ele><time>2026-04-07T12:46:09.998Z</time></trkpt><trkpt lat="43.511472170363874" lon="2.743730648621953"><ele>564.2</ele><time>2026-04-07T12:46:11.998Z</time></trkpt><trkpt lat="43.511474586454455" lon="2.743877799392417"><ele>564.6</ele><time>2026-04-07T12:46:13.998Z</time></trkpt><trkpt lat="43.51147162090128" lon="2.7440270066511636"><ele>565.0</ele><time>2026-04-07T12:46:15.998Z</time></trkpt><trkpt lat="43.511475925268456" lon="2.744168968541688"><ele>565.0</ele><time>2026-04-07T12:46:17.998Z</time></trkpt><trkpt lat="43.51146491827587" lon="2.744317114379316"><ele>565.0</ele><time>2026-04-07T12:46:19.998Z</time></trkpt><trkpt lat="43.51146879473318" lon="2.744411125914008"><ele>565.0</ele><time>2026-04-07T12:46:20.998Z</time></trkpt><trkpt lat="43.51146583207777" lon="2.744533653392457"><ele>565.0</ele><time>2026-04-07T12:46:21.998Z</time></trkpt><trkpt lat="43.51146429443022" lon="2.74467589981075"><ele>565.0</ele><time>2026-04-07T12:46:22.998Z</time></trkpt><trkpt lat="43.51145477304461" lon="2.744819070424368"><ele>564.5</ele><time>2026-04-07T12:46:23.998Z</time></trkpt><trkpt lat="43.5114882076354" lon="2.744908735240622"><ele>564.0</ele><time>2026-04-07T12:46:24.998Z</time></trkpt><trkpt lat="43.5115539164582" lon="2.7449629341212094"><ele>563.5</ele><time>2026-04-07T12:46:25.998Z</time></trkpt><trkpt lat="43.51163252078377" lon="2.744915245382576"><ele>563.0</ele><time>2026-04-07T12:46:26.998Z</time></trkpt><trkpt lat="43.51167866073033" lon="2.7448132764005293"><ele>562.5</ele><time>2026-04-07T12:46:27.998Z</time></trkpt><trkpt lat="43.51167825253852" lon="2.7446811908556223"><ele>562.0</ele><time>2026-04-07T12:46:28.998Z</time></trkpt><trkpt lat="43.51162267703926" lon="2.7445493133367065"><ele>562.0</ele><time>2026-04-07T12:46:29.998Z</time></trkpt><trkpt lat="43.51159109188767" lon="2.7443968373161596"><ele>562.0</ele><time>2026-04-07T12:46:30.998Z</time></trkpt><trkpt lat="43.51159548376159" lon="2.7442225094639348"><ele>562.0</ele><time>2026-04-07T12:46:31.998Z</time></trkpt><trkpt lat="43.51163930678007" lon="2.744048721524897"><ele>562.0</ele><time>2026-04-07T12:46:32.998Z</time></trkpt><trkpt lat="43.5116823395863" lon="2.7438927836883993"><ele>562.2</ele><time>2026-04-07T12:46:33.998Z</time></trkpt><trkpt lat="43.51171533446594" lon="2.7437554306603595"><ele>562.4000000000001</ele><time>2026-04-07T12:46:34.998Z</time></trkpt><trkpt lat="43.51176175006248" lon="2.7436295091519107"><ele>562.5999999999999</ele><time>2026-04-07T12:46:35.998Z</time></trkpt><trkpt lat="43.51179973811017" lon="2.743495662927766"><ele>562.8</ele><time>2026-04-07T12:46:36.998Z</time></trkpt><trkpt lat="43.51183510260275" lon="2.7433498469409447"><ele>563.0</ele><time>2026-04-07T12:46:37.998Z</time></trkpt><trkpt lat="43.51186830603813" lon="2.7432083312318074"><ele>563.0</ele><time>2026-04-07T12:46:38.998Z</time></trkpt><trkpt lat="43.51190394670905" lon="2.743066685202167"><ele>563.0</ele><time>2026-04-07T12:46:39.998Z</time></trkpt><trkpt lat="43.51191230790398" lon="2.742917330040144"><ele>563.0</ele><time>2026-04-07T12:46:40.998Z</time></trkpt><trkpt lat="43.51193295984903" lon="2.7427667372113618"><ele>563.0</ele><time>2026-04-07T12:46:41.998Z</time></trkpt><trkpt lat="43.51196626986102" lon="2.7426233775430178"><ele>563.0</ele><time>2026-04-07T12:46:43Z</time></trkpt><trkpt lat="43.51200854021884" lon="2.742487261773877"><ele>562.1999999999999</ele><time>2026-04-07T12:46:44Z</time></trkpt><trkpt lat="43.512040687004195" lon="2.742344015843103"><ele>561.4</ele><time>2026-04-07T12:46:45Z</time></trkpt><trkpt lat="43.51206541826496" lon="2.7421998251137394"><ele>560.5999999999999</ele><time>2026-04-07T12:46:46Z</time></trkpt><trkpt lat="43.51209037407932" lon="2.742052609469824"><ele>559.8</ele><time>2026-04-07T12:46:47Z</time></trkpt><trkpt lat="43.51212054966588" lon="2.7418960775457113"><ele>559.0</ele><time>2026-04-07T12:46:48Z</time></trkpt><trkpt lat="43.51211998252732" lon="2.7417149104652294"><ele>561.6666666666667</ele><time>2026-04-07T12:46:49Z</time></trkpt><trkpt lat="43.512096503473266" lon="2.741512959657715"><ele>564.3333333333334</ele><time>2026-04-07T12:46:50Z</time></trkpt><trkpt lat="43.512041502225266" lon="2.741322143647162"><ele>567.0</ele><time>2026-04-07T12:46:51Z</time></trkpt><trkpt lat="43.51197514587251" lon="2.7411308996926858"><ele>568.3333333333334</ele><time>2026-04-07T12:46:52Z</time></trkpt><trkpt lat="43.51192444296005" lon="2.740928072334749"><ele>569.6666666666667</ele><time>2026-04-07T12:46:53Z</time></trkpt><trkpt lat="43.511916939999765" lon="2.7407076093118734"><ele>571.0</ele><time>2026-04-07T12:46:54Z</time></trkpt><trkpt lat="43.51193945757108" lon="2.7404833276606957"><ele>571.0</ele><time>2026-04-07T12:46:55Z</time></trkpt><trkpt lat="43.51196948990665" lon="2.7402629548207185"><ele>571.0</ele><time>2026-04-07T12:46:56Z</time></trkpt><trkpt lat="43.51200598829911" lon="2.7400535805552653"><ele>571.0</ele><time>2026-04-07T12:46:57Z</time></trkpt><trkpt lat="43.51204739475017" lon="2.739866234676527"><ele>577.0</ele><time>2026-04-07T12:46:58Z</time></trkpt><trkpt lat="43.51210291628542" lon="2.739707394644022"><ele>583.0</ele><time>2026-04-07T12:46:59Z</time></trkpt><trkpt lat="43.51219268607539" lon="2.7395801737620133"><ele>589.0</ele><time>2026-04-07T12:47:00Z</time></trkpt><trkpt lat="43.512293212604874" lon="2.7394866391686246"><ele>595.0</ele><time>2026-04-07T12:47:01Z</time></trkpt><trkpt lat="43.512398432625375" lon="2.739419619238831"><ele>593.0</ele><time>2026-04-07T12:47:02Z</time></trkpt><trkpt lat="43.51249943001613" lon="2.739358585692279"><ele>591.0</ele><time>2026-04-07T12:47:03Z</time></trkpt><trkpt lat="43.512597978260075" lon="2.7392882109997108"><ele>589.0</ele><time>2026-04-07T12:47:04Z</time></trkpt><trkpt lat="43.51269248180425" lon="2.7392219942070186"><ele>587.0</ele><time>2026-04-07T12:47:05Z</time></trkpt><trkpt lat="43.51278467884453" lon="2.739177783442038"><ele>585.0</ele><time>2026-04-07T12:47:06Z</time></trkpt><trkpt lat="43.51288264807855" lon="2.739167616975249"><ele>585.4</ele><time>2026-04-07T12:47:07Z</time></trkpt><trkpt lat="43.51296468574995" lon="2.7391556304169935"><ele>585.8</ele><time>2026-04-07T12:47:08Z</time></trkpt><trkpt lat="43.513066915755374" lon="2.739180832335055"><ele>586.2</ele><time>2026-04-07T12:47:09Z</time></trkpt><trkpt lat="43.51316075198267" lon="2.739205098537464"><ele>586.6</ele><time>2026-04-07T12:47:10Z</time></trkpt><trkpt lat="43.51325747361346" lon="2.7392545370067856"><ele>587.0</ele><time>2026-04-07T12:47:11Z</time></trkpt><trkpt lat="43.51335630888922" lon="2.739321996196338"><ele>592.0</ele><time>2026-04-07T12:47:12Z</time></trkpt><trkpt lat="43.51345355414663" lon="2.739444920964731"><ele>597.0</ele><time>2026-04-07T12:47:13Z</time></trkpt><trkpt lat="43.5135191697978" lon="2.7396118609733198"><ele>602.0</ele><time>2026-04-07T12:47:14Z</time></trkpt><trkpt lat="43.51359252210978" lon="2.7397696899011796"><ele>607.0</ele><time>2026-04-07T12:47:15Z</time></trkpt><trkpt lat="43.51364742242243" lon="2.739953222219249"><ele>607.0</ele><time>2026-04-07T12:47:16Z</time></trkpt><trkpt lat="43.513721343185416" lon="2.740136876776194"><ele>607.0</ele><time>2026-04-07T12:47:17Z</time></trkpt><trkpt lat="43.51380798132246" lon="2.740306801136807"><ele>607.0</ele><time>2026-04-07T12:47:17.999Z</time></trkpt><trkpt lat="43.513923201515055" lon="2.7404268867267376"><ele>607.0</ele><time>2026-04-07T12:47:18.999Z</time></trkpt><trkpt lat="43.51404411791259" lon="2.740511693895149"><ele>609.75</ele><time>2026-04-07T12:47:19.999Z</time></trkpt><trkpt lat="43.51417800774268" lon="2.740558278835871"><ele>612.5</ele><time>2026-04-07T12:47:20.999Z</time></trkpt><trkpt lat="43.51431116621456" lon="2.740558494314552"><ele>615.25</ele><time>2026-04-07T12:47:21.999Z</time></trkpt><trkpt lat="43.51442523921201" lon="2.7405295753780208"><ele>618.0</ele><time>2026-04-07T12:47:22.999Z</time></trkpt><trkpt lat="43.51452780068043" lon="2.7405097117021295"><ele>619.0</ele><time>2026-04-07T12:47:23.999Z</time></trkpt><trkpt lat="43.514614067514856" lon="2.74051202607958"><ele>620.0</ele><time>2026-04-07T12:47:24.999Z</time></trkpt><trkpt lat="43.51471179294922" lon="2.7405137035140212"><ele>621.0</ele><time>2026-04-07T12:47:25.999Z</time></trkpt><trkpt lat="43.51481167660594" lon="2.7405039690880697"><ele>622.0</ele><time>2026-04-07T12:47:26.999Z</time></trkpt><trkpt lat="43.51491320838449" lon="2.7405055459457954"><ele>623.0</ele><time>2026-04-07T12:47:27.999Z</time></trkpt><trkpt lat="43.51500780823357" lon="2.740503190806272"><ele>623.0</ele><time>2026-04-07T12:47:28.999Z</time></trkpt><trkpt lat="43.515103761884355" lon="2.74049593501475"><ele>623.0</ele><time>2026-04-07T12:47:29.999Z</time></trkpt><trkpt lat="43.51519178073716" lon="2.740456683697289"><ele>623.0</ele><time>2026-04-07T12:47:30.999Z</time></trkpt><trkpt lat="43.51526808229172" lon="2.740373492384963"><ele>623.0</ele><time>2026-04-07T12:47:31.999Z</time></trkpt><trkpt lat="43.51532242918138" lon="2.740256129858424"><ele>623.0</ele><time>2026-04-07T12:47:32.999Z</time></trkpt><trkpt lat="43.51535216691509" lon="2.7401291177690474"><ele>620.6</ele><time>2026-04-07T12:47:33.999Z</time></trkpt><trkpt lat="43.51535027406064" lon="2.7399793001264365"><ele>618.1999999999999</ele><time>2026-04-07T12:47:34.999Z</time></trkpt><trkpt lat="43.51535867170941" lon="2.739849736477007"><ele>615.8</ele><time>2026-04-07T12:47:35.999Z</time></trkpt><trkpt lat="43.51537613788458" lon="2.7397217364242112"><ele>613.4</ele><time>2026-04-07T12:47:36.999Z</time></trkpt><trkpt lat="43.515394949000225" lon="2.7395994110708206"><ele>611.0</ele><time>2026-04-07T12:47:37.999Z</time></trkpt><trkpt lat="43.51541147205973" lon="2.739475173666237"><ele>616.8333333333333</ele><time>2026-04-07T12:47:38.999Z</time></trkpt><trkpt lat="43.515422770938294" lon="2.7393523727057025"><ele>622.6666666666666</ele><time>2026-04-07T12:47:39.999Z</time></trkpt><trkpt lat="43.51543335956497" lon="2.7392382165756164"><ele>628.5</ele><time>2026-04-07T12:47:40.999Z</time></trkpt><trkpt lat="43.51544240726888" lon="2.739130468241902"><ele>634.3333333333334</ele><time>2026-04-07T12:47:41.999Z</time></trkpt><trkpt lat="43.51545052077153" lon="2.739032066609895"><ele>640.1666666666667</ele><time>2026-04-07T12:47:42.999Z</time></trkpt><trkpt lat="43.51546635534249" lon="2.738927594925607"><ele>646.0</ele><time>2026-04-07T12:47:43.999Z</time></trkpt><trkpt lat="43.51547309034037" lon="2.7388341624756904"><ele>646.0</ele><time>2026-04-07T12:47:44.999Z</time></trkpt><trkpt lat="43.51548259123999" lon="2.738739420272413"><ele>646.0</ele><time>2026-04-07T12:47:45.999Z</time></trkpt><trkpt lat="43.515498857492" lon="2.7386390409925694"><ele>646.0</ele><time>2026-04-07T12:47:46.999Z</time></trkpt><trkpt lat="43.515509333382994" lon="2.7385225972478953"><ele>646.0</ele><time>2026-04-07T12:47:47.999Z</time></trkpt><trkpt lat="43.5155216356925" lon="2.738394987607747"><ele>646.0</ele><time>2026-04-07T12:47:48.999Z</time></trkpt><trkpt lat="43.51553953847283" lon="2.73825505283566"><ele>646.0</ele><time>2026-04-07T12:47:49.999Z</time></trkpt><trkpt lat="43.515559400042996" lon="2.7381147746530976"><ele>645.8</ele><time>2026-04-07T12:47:50.999Z</time></trkpt><trkpt lat="43.515588460802114" lon="2.7379661799654307"><ele>645.5999999999999</ele><time>2026-04-07T12:47:51.999Z</time></trkpt><trkpt lat="43.51564143497742" lon="2.7378375569438465"><ele>645.4</ele><time>2026-04-07T12:47:52.999Z</time></trkpt><trkpt lat="43.51570153749748" lon="2.73771121205505"><ele>645.2</ele><time>2026-04-07T12:47:53.999Z</time></trkpt><trkpt lat="43.51575724026191" lon="2.7375780895983417"><ele>645.0</ele><time>2026-04-07T12:47:54.999Z</time></trkpt><trkpt lat="43.51582980902871" lon="2.7374520127590576"><ele>643.0</ele><time>2026-04-07T12:47:55.999Z</time></trkpt><trkpt lat="43.51588631684685" lon="2.7373114386719735"><ele>641.0</ele><time>2026-04-07T12:47:56.999Z</time></trkpt><trkpt lat="43.5159205946474" lon="2.737152373623928"><ele>639.0</ele><time>2026-04-07T12:47:57.999Z</time></trkpt><trkpt lat="43.51592286805875" lon="2.7369972858741245"><ele>637.0</ele><time>2026-04-07T12:47:58.999Z</time></trkpt><trkpt lat="43.5159098175361" lon="2.736843853741346"><ele>636.75</ele><time>2026-04-07T12:47:59.999Z</time></trkpt><trkpt lat="43.5158790799269" lon="2.736697265752194"><ele>636.5</ele><time>2026-04-07T12:48:00.999Z</time></trkpt><trkpt lat="43.51583953309516" lon="2.7365515517774868"><ele>636.25</ele><time>2026-04-07T12:48:01.999Z</time></trkpt><trkpt lat="43.515831954514454" lon="2.736392851478722"><ele>636.0</ele><time>2026-04-07T12:48:02.999Z</time></trkpt><trkpt lat="43.515813686983236" lon="2.736240355199463"><ele>636.0</ele><time>2026-04-07T12:48:03.999Z</time></trkpt><trkpt lat="43.51580183094419" lon="2.7360896208517844"><ele>636.0</ele><time>2026-04-07T12:48:04.998Z</time></trkpt><trkpt lat="43.51581307047539" lon="2.7359348027169235"><ele>636.0</ele><time>2026-04-07T12:48:05.998Z</time></trkpt><trkpt lat="43.51583636332297" lon="2.7357808106107373"><ele>636.0</ele><time>2026-04-07T12:48:06.998Z</time></trkpt><trkpt lat="43.51586650018384" lon="2.7356318616333968"><ele>636.0</ele><time>2026-04-07T12:48:07.998Z</time></trkpt><trkpt lat="43.51590988782798" lon="2.735486346694189"><ele>636.75</ele><time>2026-04-07T12:48:08.998Z</time></trkpt><trkpt lat="43.51596895375832" lon="2.735344707741879"><ele>637.5</ele><time>2026-04-07T12:48:09.998Z</time></trkpt><trkpt lat="43.51603698715502" lon="2.735212390397318"><ele>638.25</ele><time>2026-04-07T12:48:10.998Z</time></trkpt><trkpt lat="43.516116312349965" lon="2.735093559812816"><ele>639.0</ele><time>2026-04-07T12:48:11.998Z</time></trkpt><trkpt lat="43.51620126176309" lon="2.7349866383210983"><ele>643.8</ele><time>2026-04-07T12:48:12.998Z</time></trkpt><trkpt lat="43.5162956802655" lon="2.7349000394948355"><ele>648.5999999999999</ele><time>2026-04-07T12:48:13.998Z</time></trkpt><trkpt lat="43.516394940132166" lon="2.734827191904268"><ele>653.4</ele><time>2026-04-07T12:48:14.998Z</time></trkpt><trkpt lat="43.51648980517913" lon="2.734745161287125"><ele>658.1999999999999</ele><time>2026-04-07T12:48:15.998Z</time></trkpt><trkpt lat="43.516570723834846" lon="2.734674725276321"><ele>663.0</ele><time>2026-04-07T12:48:16.998Z</time></trkpt><trkpt lat="43.51664645653941" lon="2.734590287521473"><ele>663.0</ele><time>2026-04-07T12:48:17.998Z</time></trkpt><trkpt lat="43.51670457762593" lon="2.734481326164034"><ele>663.0</ele><time>2026-04-07T12:48:18.998Z</time></trkpt><trkpt lat="43.51673873400327" lon="2.734339655316637"><ele>663.0</ele><time>2026-04-07T12:48:19.998Z</time></trkpt><trkpt lat="43.516750774494895" lon="2.7342235325718183"><ele>663.0</ele><time>2026-04-07T12:48:20.998Z</time></trkpt><trkpt lat="43.51672153278779" lon="2.7340812861754973"><ele>663.0</ele><time>2026-04-07T12:48:21.998Z</time></trkpt><trkpt lat="43.51666981246489" lon="2.7339676870459044"><ele>664.6666666666666</ele><time>2026-04-07T12:48:22.998Z</time></trkpt><trkpt lat="43.516618071603546" lon="2.7338865092630464"><ele>666.3333333333334</ele><time>2026-04-07T12:48:23.998Z</time></trkpt><trkpt lat="43.51655565620832" lon="2.7338294793707933"><ele>668.0</ele><time>2026-04-07T12:48:24.998Z</time></trkpt><trkpt lat="43.516499407634406" lon="2.7337435293226475"><ele>669.6666666666667</ele><time>2026-04-07T12:48:25.998Z</time></trkpt><trkpt lat="43.51643596418219" lon="2.733683534117224"><ele>671.3333333333334</ele><time>2026-04-07T12:48:26.998Z</time></trkpt><trkpt lat="43.516365937753555" lon="2.733619436191541"><ele>673.0</ele><time>2026-04-07T12:48:27.998Z</time></trkpt><trkpt lat="43.5162836644621" lon="2.733548338128996"><ele>669.6666666666667</ele><time>2026-04-07T12:48:28.998Z</time></trkpt><trkpt lat="43.516217961073366" lon="2.7334915592065223"><ele>666.3333333333334</ele><time>2026-04-07T12:48:29.998Z</time></trkpt><trkpt lat="43.51594531278342" lon="2.7332482589077345"><ele>663.0</ele><time>2026-04-07T12:48:30.998Z</time></trkpt><trkpt lat="43.51584063287298" lon="2.7331506897719184"><ele>663.0</ele><time>2026-04-07T12:48:31.998Z</time></trkpt><trkpt lat="43.51574873809604" lon="2.7330587853894146"><ele>663.0</ele><time>2026-04-07T12:48:32.998Z</time></trkpt><trkpt lat="43.5156745883304" lon="2.7329756222424177"><ele>663.0</ele><time>2026-04-07T12:48:33.998Z</time></trkpt><trkpt lat="43.51560888567509" lon="2.7328600140191486"><ele>663.0</ele><time>2026-04-07T12:48:34.998Z</time></trkpt><trkpt lat="43.51556476037353" lon="2.732730391520157"><ele>663.0</ele><time>2026-04-07T12:48:35.998Z</time></trkpt><trkpt lat="43.51552013053834" lon="2.732602672491676"><ele>666.5999999999999</ele><time>2026-04-07T12:48:36.998Z</time></trkpt><trkpt lat="43.51548611950585" lon="2.7324703912811064"><ele>670.1999999999999</ele><time>2026-04-07T12:48:37.998Z</time></trkpt><trkpt lat="43.515476185772414" lon="2.7323195966866716"><ele>673.8</ele><time>2026-04-07T12:48:38.998Z</time></trkpt><trkpt lat="43.515484716585014" lon="2.732174096586605"><ele>677.4</ele><time>2026-04-07T12:48:39.998Z</time></trkpt><trkpt lat="43.51550384946593" lon="2.732029308375535"><ele>681.0</ele><time>2026-04-07T12:48:40.998Z</time></trkpt><trkpt lat="43.51553370196997" lon="2.73189249789357"><ele>680.0</ele><time>2026-04-07T12:48:41.998Z</time></trkpt><trkpt lat="43.51557874537889" lon="2.7317618328864817"><ele>679.0</ele><time>2026-04-07T12:48:42.998Z</time></trkpt><trkpt lat="43.515638309944585" lon="2.7316408526382543"><ele>678.0</ele><time>2026-04-07T12:48:43.998Z</time></trkpt><trkpt lat="43.515707748631286" lon="2.7315331695365326"><ele>677.0</ele><time>2026-04-07T12:48:44.998Z</time></trkpt><trkpt lat="43.515782712168075" lon="2.7314402620544884"><ele>676.0</ele><time>2026-04-07T12:48:45.998Z</time></trkpt><trkpt lat="43.51586780980938" lon="2.7313528425301588"><ele>676.0</ele><time>2026-04-07T12:48:46.998Z</time></trkpt><trkpt lat="43.51595379279986" lon="2.7312658010091173"><ele>676.0</ele><time>2026-04-07T12:48:47.998Z</time></trkpt><trkpt lat="43.51604131826592" lon="2.7311917941998436"><ele>676.0</ele><time>2026-04-07T12:48:49Z</time></trkpt><trkpt lat="43.516131260392086" lon="2.7311204852965494"><ele>676.0</ele><time>2026-04-07T12:48:50Z</time></trkpt><trkpt lat="43.51621937567477" lon="2.731047340843475"><ele>676.0</ele><time>2026-04-07T12:48:51Z</time></trkpt><trkpt lat="43.51630902848024" lon="2.7309697372463373"><ele>678.4</ele><time>2026-04-07T12:48:52Z</time></trkpt><trkpt lat="43.516393297059324" lon="2.7308928644264245"><ele>680.8</ele><time>2026-04-07T12:48:53Z</time></trkpt><trkpt lat="43.51646017057142" lon="2.7307978061244174"><ele>683.1999999999999</ele><time>2026-04-07T12:48:54Z</time></trkpt><trkpt lat="43.51651501912591" lon="2.7306806913221235"><ele>685.5999999999999</ele><time>2026-04-07T12:48:55Z</time></trkpt><trkpt lat="43.51656647699307" lon="2.73054134610303"><ele>688.0</ele><time>2026-04-07T12:48:56Z</time></trkpt><trkpt lat="43.51660440398535" lon="2.730412099303768"><ele>688.0</ele><time>2026-04-07T12:48:57Z</time></trkpt><trkpt lat="43.51663663229548" lon="2.730286011389984"><ele>688.0</ele><time>2026-04-07T12:48:58Z</time></trkpt><trkpt lat="43.516665069455755" lon="2.7301583408126016"><ele>688.0</ele><time>2026-04-07T12:48:59Z</time></trkpt><trkpt lat="43.51669506798534" lon="2.730028887117256"><ele>688.0</ele><time>2026-04-07T12:49:00Z</time></trkpt><trkpt lat="43.51671992306737" lon="2.729901131691308"><ele>688.0</ele><time>2026-04-07T12:49:01Z</time></trkpt><trkpt lat="43.51674884384607" lon="2.7297751357282007"><ele>687.8</ele><time>2026-04-07T12:49:02Z</time></trkpt><trkpt lat="43.516772981125605" lon="2.7296486832741196"><ele>687.5999999999999</ele><time>2026-04-07T12:49:03Z</time></trkpt><trkpt lat="43.51679876657845" lon="2.7295240202850164"><ele>687.4000000000001</ele><time>2026-04-07T12:49:04Z</time></trkpt><trkpt lat="43.51682507842381" lon="2.729396924961052"><ele>687.2</ele><time>2026-04-07T12:49:05Z</time></trkpt><trkpt lat="43.516839095352125" lon="2.7292742910725205"><ele>687.0</ele><time>2026-04-07T12:49:06Z</time></trkpt><trkpt lat="43.51686277969425" lon="2.729144500287656"><ele>687.0</ele><time>2026-04-07T12:49:07Z</time></trkpt><trkpt lat="43.51686595442028" lon="2.729012727629885"><ele>687.0</ele><time>2026-04-07T12:49:08Z</time></trkpt><trkpt lat="43.51688508229588" lon="2.7289105090280783"><ele>687.0</ele><time>2026-04-07T12:49:09Z</time></trkpt><trkpt lat="43.516978714532954" lon="2.7288835050943354"><ele>687.0</ele><time>2026-04-07T12:49:11Z</time></trkpt><trkpt lat="43.517022085233954" lon="2.7289712219997404"><ele>687.0</ele><time>2026-04-07T12:49:12Z</time></trkpt><trkpt lat="43.517024146867435" lon="2.7290896507702107"><ele>687.0</ele><time>2026-04-07T12:49:13Z</time></trkpt><trkpt lat="43.51696278752556" lon="2.729221320191597"><ele>687.0</ele><time>2026-04-07T12:49:14Z</time></trkpt><trkpt lat="43.51695861001479" lon="2.7293629143550113"><ele>687.0</ele><time>2026-04-07T12:49:15Z</time></trkpt><trkpt lat="43.51693868870385" lon="2.7294961133164173"><ele>687.0</ele><time>2026-04-07T12:49:16Z</time></trkpt><trkpt lat="43.516948955364114" lon="2.7296201054611906"><ele>687.0</ele><time>2026-04-07T12:49:17Z</time></trkpt><trkpt lat="43.516950790443616" lon="2.729754657691104"><ele>687.0</ele><time>2026-04-07T12:49:18Z</time></trkpt><trkpt lat="43.516965971223854" lon="2.729893760487254"><ele>686.8</ele><time>2026-04-07T12:49:19Z</time></trkpt><trkpt lat="43.5169972373469" lon="2.730003878173721"><ele>686.6</ele><time>2026-04-07T12:49:20Z</time></trkpt><trkpt lat="43.517000485907296" lon="2.73013342123426"><ele>686.4</ele><time>2026-04-07T12:49:21Z</time></trkpt><trkpt lat="43.517020645511415" lon="2.7302541696370115"><ele>686.1999999999999</ele><time>2026-04-07T12:49:22Z</time></trkpt><trkpt lat="43.51704081318341" lon="2.7303816968049883"><ele>686.0</ele><time>2026-04-07T12:49:23Z</time></trkpt><trkpt lat="43.517056443954786" lon="2.7305039038993506"><ele>686.4</ele><time>2026-04-07T12:49:24Z</time></trkpt><trkpt lat="43.51706513995841" lon="2.73063336314488"><ele>686.8</ele><time>2026-04-07T12:49:25Z</time></trkpt><trkpt lat="43.51709371645035" lon="2.730767447311526"><ele>687.1999999999999</ele><time>2026-04-07T12:49:26Z</time></trkpt><trkpt lat="43.51711934549049" lon="2.730901525704269"><ele>687.5999999999999</ele><time>2026-04-07T12:49:27Z</time></trkpt><trkpt lat="43.51714032351412" lon="2.7310437907618605"><ele>688.0</ele><time>2026-04-07T12:49:27.999Z</time></trkpt><trkpt lat="43.51716278425458" lon="2.731183445554328"><ele>694.2</ele><time>2026-04-07T12:49:28.999Z</time></trkpt><trkpt lat="43.51719495360014" lon="2.7313264196051557"><ele>700.4</ele><time>2026-04-07T12:49:29.999Z</time></trkpt><trkpt lat="43.5172257396367" lon="2.7314616055746685"><ele>706.6</ele><time>2026-04-07T12:49:30.999Z</time></trkpt><trkpt lat="43.51725673454087" lon="2.7315933504101064"><ele>712.8000000000001</ele><time>2026-04-07T12:49:31.999Z</time></trkpt><trkpt lat="43.5173017819038" lon="2.7317248090650605"><ele>719.0</ele><time>2026-04-07T12:49:32.999Z</time></trkpt><trkpt lat="43.51735281124158" lon="2.7318514544567165"><ele>716.2</ele><time>2026-04-07T12:49:33.999Z</time></trkpt><trkpt lat="43.517409754047776" lon="2.7319723360830386"><ele>713.4000000000001</ele><time>2026-04-07T12:49:34.999Z</time></trkpt><trkpt lat="43.517480876401564" lon="2.7320828479618493"><ele>710.6</ele><time>2026-04-07T12:49:35.999Z</time></trkpt><trkpt lat="43.51756090625251" lon="2.732181188792379"><ele>707.8</ele><time>2026-04-07T12:49:36.999Z</time></trkpt><trkpt lat="43.517648189601566" lon="2.732277644494193"><ele>705.0</ele><time>2026-04-07T12:49:37.999Z</time></trkpt><trkpt lat="43.51774549435617" lon="2.732360897368077"><ele>705.0</ele><time>2026-04-07T12:49:38.999Z</time></trkpt><trkpt lat="43.51784457889361" lon="2.732442146915242"><ele>705.0</ele><time>2026-04-07T12:49:39.999Z</time></trkpt><trkpt lat="43.51794463093474" lon="2.7324973494276166"><ele>705.0</ele><time>2026-04-07T12:49:40.999Z</time></trkpt><trkpt lat="43.51804021998755" lon="2.73255678747854"><ele>705.0</ele><time>2026-04-07T12:49:41.999Z</time></trkpt><trkpt lat="43.518141012204616" lon="2.7326106904962986"><ele>705.0</ele><time>2026-04-07T12:49:42.999Z</time></trkpt><trkpt lat="43.518241359847515" lon="2.7326660820674493"><ele>705.0</ele><time>2026-04-07T12:49:43.999Z</time></trkpt><trkpt lat="43.51836413760477" lon="2.7327080586953745"><ele>705.0</ele><time>2026-04-07T12:49:44.999Z</time></trkpt><trkpt lat="43.51846440250893" lon="2.7327719660544187"><ele>705.0</ele><time>2026-04-07T12:49:45.999Z</time></trkpt><trkpt lat="43.51855265416622" lon="2.7327990200213748"><ele>705.0</ele><time>2026-04-07T12:49:46.999Z</time></trkpt><trkpt lat="43.51864150507551" lon="2.732850604800357"><ele>705.0</ele><time>2026-04-07T12:49:47.999Z</time></trkpt><trkpt lat="43.51874689239679" lon="2.7328874440739117"><ele>709.2</ele><time>2026-04-07T12:49:48.999Z</time></trkpt><trkpt lat="43.51883965559503" lon="2.7329347857796358"><ele>713.4</ele><time>2026-04-07T12:49:49.999Z</time></trkpt><trkpt lat="43.51895041344651" lon="2.7329665648314063"><ele>717.5999999999999</ele><time>2026-04-07T12:49:50.999Z</time></trkpt><trkpt lat="43.519060615562644" lon="2.732996675058725"><ele>721.8</ele><time>2026-04-07T12:49:51.999Z</time></trkpt><trkpt lat="43.519153357714444" lon="2.7330200643065754"><ele>726.0</ele><time>2026-04-07T12:49:52.999Z</time></trkpt><trkpt lat="43.51924402190825" lon="2.7330500402727376"><ele>726.0</ele><time>2026-04-07T12:49:53.999Z</time></trkpt><trkpt lat="43.519340183664184" lon="2.7330821182513976"><ele>726.0</ele><time>2026-04-07T12:49:54.999Z</time></trkpt><trkpt lat="43.51941584462188" lon="2.733184326576426"><ele>726.0</ele><time>2026-04-07T12:49:55.999Z</time></trkpt><trkpt lat="43.51946491434347" lon="2.7333327076800384"><ele>726.0</ele><time>2026-04-07T12:49:56.999Z</time></trkpt><trkpt lat="43.51947612273553" lon="2.7335038488029726"><ele>726.0</ele><time>2026-04-07T12:49:57.999Z</time></trkpt><trkpt lat="43.51942669699014" lon="2.733679352839832"><ele>726.5</ele><time>2026-04-07T12:49:58.999Z</time></trkpt><trkpt lat="43.51943092282526" lon="2.733874773841908"><ele>727.0</ele><time>2026-04-07T12:49:59.999Z</time></trkpt><trkpt lat="43.51940201465377" lon="2.734051343894089"><ele>727.5</ele><time>2026-04-07T12:50:00.999Z</time></trkpt><trkpt lat="43.5193824774802" lon="2.734209054324008"><ele>728.0</ele><time>2026-04-07T12:50:01.999Z</time></trkpt><trkpt lat="43.519314498034944" lon="2.734337383516469"><ele>732.0</ele><time>2026-04-07T12:50:02.999Z</time></trkpt><trkpt lat="43.51924367438138" lon="2.734462072528979"><ele>736.0</ele><time>2026-04-07T12:50:03.999Z</time></trkpt><trkpt lat="43.519160224591445" lon="2.734572903639018"><ele>740.0</ele><time>2026-04-07T12:50:04.999Z</time></trkpt><trkpt lat="43.51907268581277" lon="2.7346748607154243"><ele>744.0</ele><time>2026-04-07T12:50:05.999Z</time></trkpt><trkpt lat="43.51898480836389" lon="2.7347797459273275"><ele>744.0</ele><time>2026-04-07T12:50:06.999Z</time></trkpt><trkpt lat="43.51890956838988" lon="2.734898516188659"><ele>744.0</ele><time>2026-04-07T12:50:07.999Z</time></trkpt><trkpt lat="43.518839588040045" lon="2.735004472719221"><ele>744.0</ele><time>2026-04-07T12:50:08.999Z</time></trkpt><trkpt lat="43.51876158721233" lon="2.735123243294712"><ele>744.0</ele><time>2026-04-07T12:50:09.999Z</time></trkpt><trkpt lat="43.51870342887635" lon="2.7352555301457198"><ele>744.0</ele><time>2026-04-07T12:50:10.999Z</time></trkpt><trkpt lat="43.51864622656821" lon="2.735386271325217"><ele>744.0</ele><time>2026-04-07T12:50:11.999Z</time></trkpt><trkpt lat="43.51857897856552" lon="2.7355230948581606"><ele>744.0</ele><time>2026-04-07T12:50:12.999Z</time></trkpt><trkpt lat="43.518527319190085" lon="2.735658214720822"><ele>744.0</ele><time>2026-04-07T12:50:13.998Z</time></trkpt><trkpt lat="43.51848101608661" lon="2.7357926765106533"><ele>744.0</ele><time>2026-04-07T12:50:14.998Z</time></trkpt><trkpt lat="43.51845780246505" lon="2.7359343848312525"><ele>744.0</ele><time>2026-04-07T12:50:15.998Z</time></trkpt><trkpt lat="43.51840347793157" lon="2.73606588743297"><ele>744.0</ele><time>2026-04-07T12:50:16.998Z</time></trkpt><trkpt lat="43.51835815084122" lon="2.736202830232307"><ele>744.0</ele><time>2026-04-07T12:50:17.998Z</time></trkpt><trkpt lat="43.518329403577795" lon="2.7363482452295833"><ele>744.0</ele><time>2026-04-07T12:50:18.998Z</time></trkpt><trkpt lat="43.51830348565036" lon="2.7364941782642225"><ele>744.0</ele><time>2026-04-07T12:50:19.998Z</time></trkpt><trkpt lat="43.51830159535535" lon="2.7366460009838445"><ele>744.0</ele><time>2026-04-07T12:50:20.998Z</time></trkpt><trkpt lat="43.51831124281902" lon="2.7367959030542415"><ele>745.2</ele><time>2026-04-07T12:50:21.998Z</time></trkpt><trkpt lat="43.51832013427989" lon="2.736937086087227"><ele>746.4000000000001</ele><time>2026-04-07T12:50:22.998Z</time></trkpt><trkpt lat="43.51834412738274" lon="2.737075205736467"><ele>747.6</ele><time>2026-04-07T12:50:23.998Z</time></trkpt><trkpt lat="43.51832842530716" lon="2.7372305700345896"><ele>748.8</ele><time>2026-04-07T12:50:24.998Z</time></trkpt><trkpt lat="43.518308212930116" lon="2.73737434895332"><ele>750.0</ele><time>2026-04-07T12:50:25.998Z</time></trkpt><trkpt lat="43.518268475150194" lon="2.7375060343418727"><ele>750.0</ele><time>2026-04-07T12:50:26.998Z</time></trkpt><trkpt lat="43.51822032349621" lon="2.737629509696055"><ele>750.0</ele><time>2026-04-07T12:50:27.998Z</time></trkpt><trkpt lat="43.51817249236181" lon="2.737766583436064"><ele>750.0</ele><time>2026-04-07T12:50:28.998Z</time></trkpt><trkpt lat="43.518139954346836" lon="2.7379065621583707"><ele>750.0</ele><time>2026-04-07T12:50:29.998Z</time></trkpt><trkpt lat="43.518141317343805" lon="2.738062876729029"><ele>750.0</ele><time>2026-04-07T12:50:30.998Z</time></trkpt><trkpt lat="43.51813782910468" lon="2.738214272646745"><ele>751.75</ele><time>2026-04-07T12:50:31.998Z</time></trkpt><trkpt lat="43.518151778418186" lon="2.7383747408589727"><ele>753.5</ele><time>2026-04-07T12:50:32.998Z</time></trkpt><trkpt lat="43.5181749988931" lon="2.7385293221802063"><ele>755.25</ele><time>2026-04-07T12:50:33.998Z</time></trkpt><trkpt lat="43.51818141549406" lon="2.7386777783435883"><ele>757.0</ele><time>2026-04-07T12:50:34.998Z</time></trkpt><trkpt lat="43.51820552982853" lon="2.7388289522225433"><ele>757.8</ele><time>2026-04-07T12:50:35.998Z</time></trkpt><trkpt lat="43.518226722100465" lon="2.738985045552951"><ele>758.6</ele><time>2026-04-07T12:50:36.998Z</time></trkpt><trkpt lat="43.51826067056258" lon="2.739129769176405"><ele>759.4</ele><time>2026-04-07T12:50:37.998Z</time></trkpt><trkpt lat="43.51829154423197" lon="2.7392735928470433"><ele>760.1999999999999</ele><time>2026-04-07T12:50:38.998Z</time></trkpt><trkpt lat="43.51833327257586" lon="2.7394115309549756"><ele>761.0</ele><time>2026-04-07T12:50:39.998Z</time></trkpt><trkpt lat="43.51837217962158" lon="2.7395550689077215"><ele>761.0</ele><time>2026-04-07T12:50:40.998Z</time></trkpt><trkpt lat="43.51839384517699" lon="2.7396838933461605"><ele>761.0</ele><time>2026-04-07T12:50:41.998Z</time></trkpt><trkpt lat="43.51841470489631" lon="2.7398374199685875"><ele>761.0</ele><time>2026-04-07T12:50:42.998Z</time></trkpt><trkpt lat="43.51842876852272" lon="2.7399719861274296"><ele>761.0</ele><time>2026-04-07T12:50:43.998Z</time></trkpt><trkpt lat="43.51844351548895" lon="2.7401172770144027"><ele>761.0</ele><time>2026-04-07T12:50:44.998Z</time></trkpt><trkpt lat="43.518458005304026" lon="2.7402600368287975"><ele>761.0</ele><time>2026-04-07T12:50:45.998Z</time></trkpt><trkpt lat="43.51847225099731" lon="2.7404005345536655"><ele>761.0</ele><time>2026-04-07T12:50:46.998Z</time></trkpt><trkpt lat="43.51848809880546" lon="2.740543548522278"><ele>761.0</ele><time>2026-04-07T12:50:47.998Z</time></trkpt><trkpt lat="43.518507221951424" lon="2.7406850138324605"><ele>761.0</ele><time>2026-04-07T12:50:48.998Z</time></trkpt><trkpt lat="43.51852910906528" lon="2.7408277644706622"><ele>761.0</ele><time>2026-04-07T12:50:49.998Z</time></trkpt><trkpt lat="43.518555757387" lon="2.740971836732294"><ele>760.5999999999999</ele><time>2026-04-07T12:50:50.998Z</time></trkpt><trkpt lat="43.51858711926031" lon="2.741117152177153"><ele>760.2</ele><time>2026-04-07T12:50:51.998Z</time></trkpt><trkpt lat="43.518631191128556" lon="2.741263578514763"><ele>759.8</ele><time>2026-04-07T12:50:52.998Z</time></trkpt><trkpt lat="43.518662778280664" lon="2.7414018443493404"><ele>759.4000000000001</ele><time>2026-04-07T12:50:53.998Z</time></trkpt><trkpt lat="43.51870290347351" lon="2.741536027969504"><ele>759.0</ele><time>2026-04-07T12:50:55Z</time></trkpt><trkpt lat="43.51874833209625" lon="2.7416667869522944"><ele>762.4000000000001</ele><time>2026-04-07T12:50:56Z</time></trkpt><trkpt lat="43.51878132895112" lon="2.741803355690243"><ele>765.8</ele><time>2026-04-07T12:50:57Z</time></trkpt><trkpt lat="43.51883148744525" lon="2.7419282836175807"><ele>769.2</ele><time>2026-04-07T12:50:58Z</time></trkpt><trkpt lat="43.51888525509039" lon="2.742055135936583"><ele>772.5999999999999</ele><time>2026-04-07T12:50:59Z</time></trkpt><trkpt lat="43.51894017939757" lon="2.742176765011521"><ele>776.0</ele><time>2026-04-07T12:51:00Z</time></trkpt><trkpt lat="43.51899023776397" lon="2.742295239105154"><ele>776.0</ele><time>2026-04-07T12:51:01Z</time></trkpt><trkpt lat="43.51905798041294" lon="2.7423970501603647"><ele>776.0</ele><time>2026-04-07T12:51:02Z</time></trkpt><trkpt lat="43.51913970962322" lon="2.7424866395839205"><ele>776.0</ele><time>2026-04-07T12:51:03Z</time></trkpt><trkpt lat="43.519215131380165" lon="2.7425848126567587"><ele>776.0</ele><time>2026-04-07T12:51:04Z</time></trkpt><trkpt lat="43.51929280783958" lon="2.7426687965444057"><ele>776.0</ele><time>2026-04-07T12:51:05Z</time></trkpt><trkpt lat="43.519351979632425" lon="2.74276502993458"><ele>776.1999999999999</ele><time>2026-04-07T12:51:06Z</time></trkpt><trkpt lat="43.51943027629834" lon="2.7428292472444347"><ele>776.4</ele><time>2026-04-07T12:51:07Z</time></trkpt><trkpt lat="43.51950291991351" lon="2.7429074960752198"><ele>776.6</ele><time>2026-04-07T12:51:08Z</time></trkpt><trkpt lat="43.519575714998055" lon="2.7429836384269057"><ele>776.8</ele><time>2026-04-07T12:51:09Z</time></trkpt><trkpt lat="43.51964936462521" lon="2.7430620577187264"><ele>777.0</ele><time>2026-04-07T12:51:10Z</time></trkpt><trkpt lat="43.51974803954564" lon="2.7431039791280285"><ele>777.0</ele><time>2026-04-07T12:51:11Z</time></trkpt><trkpt lat="43.5198513226166" lon="2.7431119520988783"><ele>777.0</ele><time>2026-04-07T12:51:12Z</time></trkpt><trkpt lat="43.519950528775965" lon="2.743080001417542"><ele>777.0</ele><time>2026-04-07T12:51:13Z</time></trkpt><trkpt lat="43.52004729517021" lon="2.742994846197248"><ele>777.0</ele><time>2026-04-07T12:51:14Z</time></trkpt><trkpt lat="43.520115056959696" lon="2.7428750857742785"><ele>777.0</ele><time>2026-04-07T12:51:15Z</time></trkpt><trkpt lat="43.52018842089502" lon="2.742791459214067"><ele>779.2</ele><time>2026-04-07T12:51:16Z</time></trkpt><trkpt lat="43.520249581747336" lon="2.742686442220812"><ele>781.4000000000001</ele><time>2026-04-07T12:51:17Z</time></trkpt><trkpt lat="43.5203136182639" lon="2.7425883791319077"><ele>783.5999999999999</ele><time>2026-04-07T12:51:18Z</time></trkpt><trkpt lat="43.520378853200626" lon="2.742477399298201"><ele>785.8</ele><time>2026-04-07T12:51:19Z</time></trkpt><trkpt lat="43.52046791744956" lon="2.742399300138042"><ele>788.0</ele><time>2026-04-07T12:51:20Z</time></trkpt><trkpt lat="43.52056250202656" lon="2.7423330848052"><ele>788.0</ele><time>2026-04-07T12:51:21Z</time></trkpt><trkpt lat="43.5206610292503" lon="2.742287197347993"><ele>788.0</ele><time>2026-04-07T12:51:22Z</time></trkpt><trkpt lat="43.52076409694119" lon="2.7422661101551187"><ele>788.0</ele><time>2026-04-07T12:51:23Z</time></trkpt><trkpt lat="43.5208680872789" lon="2.74226022762761"><ele>788.0</ele><time>2026-04-07T12:51:24Z</time></trkpt><trkpt lat="43.520972187778234" lon="2.742265390720569"><ele>788.0</ele><time>2026-04-07T12:51:25Z</time></trkpt><trkpt lat="43.52107470331794" lon="2.7422819879812192"><ele>788.0</ele><time>2026-04-07T12:51:26Z</time></trkpt><trkpt lat="43.52117554996516" lon="2.7422934996520327"><ele>788.0</ele><time>2026-04-07T12:51:27Z</time></trkpt><trkpt lat="43.52127400335347" lon="2.7423064562114674"><ele>788.0</ele><time>2026-04-07T12:51:28Z</time></trkpt><trkpt lat="43.5213712304838" lon="2.7423182077260395"><ele>788.0</ele><time>2026-04-07T12:51:29Z</time></trkpt><trkpt lat="43.52146375168535" lon="2.7423309186886535"><ele>788.0</ele><time>2026-04-07T12:51:30Z</time></trkpt><trkpt lat="43.521560090729174" lon="2.7423331916891898"><ele>788.0</ele><time>2026-04-07T12:51:31Z</time></trkpt><trkpt lat="43.52165805429447" lon="2.7423259813268217"><ele>788.0</ele><time>2026-04-07T12:51:32Z</time></trkpt><trkpt lat="43.52176345092776" lon="2.7423202758610836"><ele>788.0</ele><time>2026-04-07T12:51:32.999Z</time></trkpt><trkpt lat="43.52186732661527" lon="2.742300059150465"><ele>788.0</ele><time>2026-04-07T12:51:33.999Z</time></trkpt><trkpt lat="43.52196857472199" lon="2.742269940334102"><ele>788.0</ele><time>2026-04-07T12:51:34.999Z</time></trkpt><trkpt lat="43.52206947014779" lon="2.7422142342342397"><ele>788.0</ele><time>2026-04-07T12:51:35.999Z</time></trkpt><trkpt lat="43.52217312371619" lon="2.7421421730059383"><ele>788.0</ele><time>2026-04-07T12:51:36.999Z</time></trkpt><trkpt lat="43.52227884622592" lon="2.7420667272408674"><ele>788.0</ele><time>2026-04-07T12:51:37.999Z</time></trkpt><trkpt lat="43.522398751143314" lon="2.7420009590529184"><ele>788.0</ele><time>2026-04-07T12:51:38.999Z</time></trkpt><trkpt lat="43.52251702776749" lon="2.7419193580055303"><ele>796.0</ele><time>2026-04-07T12:51:39.999Z</time></trkpt><trkpt lat="43.52263215368011" lon="2.741867121410577"><ele>804.0</ele><time>2026-04-07T12:51:40.999Z</time></trkpt><trkpt lat="43.52275128501398" lon="2.7417826997944683"><ele>812.0</ele><time>2026-04-07T12:51:41.999Z</time></trkpt><trkpt lat="43.52286634096363" lon="2.741714387801229"><ele>820.0</ele><time>2026-04-07T12:51:42.999Z</time></trkpt><trkpt lat="43.5229831857326" lon="2.741678495471898"><ele>821.4</ele><time>2026-04-07T12:51:43.999Z</time></trkpt><trkpt lat="43.523088253093626" lon="2.7416674137357306"><ele>822.8</ele><time>2026-04-07T12:51:44.999Z</time></trkpt><trkpt lat="43.52317423278389" lon="2.741692524198137"><ele>824.2</ele><time>2026-04-07T12:51:45.999Z</time></trkpt><trkpt lat="43.52327462078963" lon="2.741837484049819"><ele>825.6</ele><time>2026-04-07T12:51:47.999Z</time></trkpt><trkpt lat="43.52329929776864" lon="2.7419499033207773"><ele>827.0</ele><time>2026-04-07T12:51:48.999Z</time></trkpt><trkpt lat="43.52333248738042" lon="2.742090056300896"><ele>822.75</ele><time>2026-04-07T12:51:49.999Z</time></trkpt><trkpt lat="43.52331759399319" lon="2.7422726582655876"><ele>818.5</ele><time>2026-04-07T12:51:50.999Z</time></trkpt><trkpt lat="43.52332370741355" lon="2.7424186608054972"><ele>814.25</ele><time>2026-04-07T12:51:51.999Z</time></trkpt><trkpt lat="43.52335696071895" lon="2.742571631996356"><ele>810.0</ele><time>2026-04-07T12:51:52.999Z</time></trkpt><trkpt lat="43.5233909623544" lon="2.74271042282611"><ele>808.2</ele><time>2026-04-07T12:51:53.999Z</time></trkpt><trkpt lat="43.523429967199824" lon="2.7428417157570273"><ele>806.4</ele><time>2026-04-07T12:51:54.999Z</time></trkpt><trkpt lat="43.5234784672103" lon="2.7429608199555195"><ele>804.5999999999999</ele><time>2026-04-07T12:51:55.999Z</time></trkpt><trkpt lat="43.52353570360195" lon="2.7430805640146354"><ele>802.8</ele><time>2026-04-07T12:51:56.999Z</time></trkpt><trkpt lat="43.523612566674466" lon="2.743186795290628"><ele>801.0</ele><time>2026-04-07T12:51:57.999Z</time></trkpt><trkpt lat="43.52369639378609" lon="2.743293179867964"><ele>805.4</ele><time>2026-04-07T12:51:58.999Z</time></trkpt><trkpt lat="43.523796430579516" lon="2.743358564252924"><ele>809.8</ele><time>2026-04-07T12:51:59.999Z</time></trkpt><trkpt lat="43.523903867999515" lon="2.743416455426874"><ele>814.1999999999999</ele><time>2026-04-07T12:52:00.999Z</time></trkpt><trkpt lat="43.52401089246236" lon="2.7434501601512133"><ele>818.5999999999999</ele><time>2026-04-07T12:52:01.999Z</time></trkpt><trkpt lat="43.52411951217904" lon="2.7434689935529093"><ele>823.0</ele><time>2026-04-07T12:52:02.999Z</time></trkpt><trkpt lat="43.524224314548604" lon="2.74347373296412"><ele>823.0</ele><time>2026-04-07T12:52:03.999Z</time></trkpt><trkpt lat="43.52433507118196" lon="2.7434773894058653"><ele>823.0</ele><time>2026-04-07T12:52:04.999Z</time></trkpt><trkpt lat="43.52444923438185" lon="2.7434875117636115"><ele>823.0</ele><time>2026-04-07T12:52:05.999Z</time></trkpt><trkpt lat="43.52455857231527" lon="2.7434862070223773"><ele>823.0</ele><time>2026-04-07T12:52:06.999Z</time></trkpt><trkpt lat="43.52466495406306" lon="2.7434742410468127"><ele>823.0</ele><time>2026-04-07T12:52:07.999Z</time></trkpt><trkpt lat="43.524768418097025" lon="2.7434590762543585"><ele>824.5999999999999</ele><time>2026-04-07T12:52:08.999Z</time></trkpt><trkpt lat="43.52487139794468" lon="2.743436133058127"><ele>826.1999999999999</ele><time>2026-04-07T12:52:09.999Z</time></trkpt><trkpt lat="43.52497788085111" lon="2.743403595784863"><ele>827.8</ele><time>2026-04-07T12:52:10.999Z</time></trkpt><trkpt lat="43.52508364305466" lon="2.7433681452310177"><ele>829.4</ele><time>2026-04-07T12:52:11.999Z</time></trkpt><trkpt lat="43.52518823976051" lon="2.743342994610206"><ele>831.0</ele><time>2026-04-07T12:52:12.999Z</time></trkpt><trkpt lat="43.525291739470234" lon="2.7432994569675153"><ele>832.4</ele><time>2026-04-07T12:52:13.999Z</time></trkpt><trkpt lat="43.52539675313751" lon="2.743266321199626"><ele>833.8</ele><time>2026-04-07T12:52:14.999Z</time></trkpt><trkpt lat="43.52550441373446" lon="2.743229871917787"><ele>835.1999999999999</ele><time>2026-04-07T12:52:15.999Z</time></trkpt><trkpt lat="43.5256154160015" lon="2.7432035291653603"><ele>836.5999999999999</ele><time>2026-04-07T12:52:16.999Z</time></trkpt><trkpt lat="43.52571855703025" lon="2.7432133555745133"><ele>838.0</ele><time>2026-04-07T12:52:17.999Z</time></trkpt><trkpt lat="43.52583405215117" lon="2.743250508573362"><ele>838.0</ele><time>2026-04-07T12:52:18.998Z</time></trkpt><trkpt lat="43.52594152712838" lon="2.74331066682638"><ele>838.0</ele><time>2026-04-07T12:52:19.998Z</time></trkpt><trkpt lat="43.526033750608185" lon="2.7434053860059815"><ele>838.0</ele><time>2026-04-07T12:52:20.998Z</time></trkpt><trkpt lat="43.52611610734147" lon="2.7435085533814485"><ele>838.0</ele><time>2026-04-07T12:52:21.998Z</time></trkpt><trkpt lat="43.526187506782975" lon="2.743620340828757"><ele>839.8</ele><time>2026-04-07T12:52:22.998Z</time></trkpt><trkpt lat="43.52625653724817" lon="2.74373437727915"><ele>841.5999999999999</ele><time>2026-04-07T12:52:23.998Z</time></trkpt><trkpt lat="43.52632713648661" lon="2.7438398312266306"><ele>843.4000000000001</ele><time>2026-04-07T12:52:24.998Z</time></trkpt><trkpt lat="43.526396403319325" lon="2.743947692546467"><ele>845.2</ele><time>2026-04-07T12:52:25.998Z</time></trkpt><trkpt lat="43.52646285915735" lon="2.744059116212224"><ele>847.0</ele><time>2026-04-07T12:52:26.998Z</time></trkpt><trkpt lat="43.526528823824954" lon="2.744164326972985"><ele>847.0</ele><time>2026-04-07T12:52:27.998Z</time></trkpt><trkpt lat="43.52660132518512" lon="2.7442644539102177"><ele>847.0</ele><time>2026-04-07T12:52:28.998Z</time></trkpt><trkpt lat="43.52667059682018" lon="2.7443583380660797"><ele>847.0</ele><time>2026-04-07T12:52:29.998Z</time></trkpt><trkpt lat="43.52674470050244" lon="2.74445546873636"><ele>847.0</ele><time>2026-04-07T12:52:30.998Z</time></trkpt><trkpt lat="43.526811044842574" lon="2.744554710223167"><ele>847.0</ele><time>2026-04-07T12:52:31.998Z</time></trkpt><trkpt lat="43.52688192017349" lon="2.7446507678044245"><ele>844.6</ele><time>2026-04-07T12:52:32.998Z</time></trkpt><trkpt lat="43.52696892294287" lon="2.7447364890958403"><ele>842.2</ele><time>2026-04-07T12:52:33.998Z</time></trkpt><trkpt lat="43.52705397609678" lon="2.7448234404937977"><ele>839.8</ele><time>2026-04-07T12:52:34.998Z</time></trkpt><trkpt lat="43.527132163915844" lon="2.7449173943608707"><ele>837.4</ele><time>2026-04-07T12:52:35.998Z</time></trkpt><trkpt lat="43.52720040528853" lon="2.7450247906802736"><ele>835.0</ele><time>2026-04-07T12:52:36.998Z</time></trkpt><trkpt lat="43.52725872284063" lon="2.7451433218913457"><ele>839.2</ele><time>2026-04-07T12:52:37.998Z</time></trkpt><trkpt lat="43.52730906009678" lon="2.745266591799307"><ele>843.4</ele><time>2026-04-07T12:52:38.998Z</time></trkpt><trkpt lat="43.527347830706006" lon="2.7453923021960938"><ele>847.5999999999999</ele><time>2026-04-07T12:52:39.998Z</time></trkpt><trkpt lat="43.527390521436416" lon="2.745515906183908"><ele>851.8</ele><time>2026-04-07T12:52:40.998Z</time></trkpt><trkpt lat="43.5274358573436" lon="2.745643679991972"><ele>856.0</ele><time>2026-04-07T12:52:41.998Z</time></trkpt><trkpt lat="43.527477596897505" lon="2.7457729358659377"><ele>856.0</ele><time>2026-04-07T12:52:42.998Z</time></trkpt><trkpt lat="43.527522448049545" lon="2.745901504153862"><ele>855.9999999999999</ele><time>2026-04-07T12:52:43.998Z</time></trkpt><trkpt lat="43.52756269863409" lon="2.746029961798847"><ele>855.9999999999999</ele><time>2026-04-07T12:52:44.998Z</time></trkpt><trkpt lat="43.52760304870135" lon="2.746157762705323"><ele>856.0</ele><time>2026-04-07T12:52:45.998Z</time></trkpt><trkpt lat="43.52764338284556" lon="2.7462881145731415"><ele>856.0</ele><time>2026-04-07T12:52:46.998Z</time></trkpt><trkpt lat="43.52767677547986" lon="2.746419763423425"><ele>854.8</ele><time>2026-04-07T12:52:47.998Z</time></trkpt><trkpt lat="43.52771054530848" lon="2.7465508309921973"><ele>853.5999999999999</ele><time>2026-04-07T12:52:48.998Z</time></trkpt><trkpt lat="43.52774742377405" lon="2.746683079361274"><ele>852.4</ele><time>2026-04-07T12:52:49.998Z</time></trkpt><trkpt lat="43.52776517805839" lon="2.746825748713811"><ele>851.2</ele><time>2026-04-07T12:52:50.998Z</time></trkpt><trkpt lat="43.527775649519725" lon="2.7469680885921224"><ele>850.0</ele><time>2026-04-07T12:52:51.998Z</time></trkpt><trkpt lat="43.52777558239247" lon="2.747113082509702"><ele>850.0</ele><time>2026-04-07T12:52:52.998Z</time></trkpt><trkpt lat="43.52777378792266" lon="2.7472580575422523"><ele>850.0</ele><time>2026-04-07T12:52:53.998Z</time></trkpt><trkpt lat="43.52777102349221" lon="2.7474016815481432"><ele>850.0</ele><time>2026-04-07T12:52:54.998Z</time></trkpt><trkpt lat="43.52776468141265" lon="2.7475505037894896"><ele>850.0</ele><time>2026-04-07T12:52:55.998Z</time></trkpt><trkpt lat="43.52775718964488" lon="2.747695724252105"><ele>850.0</ele><time>2026-04-07T12:52:56.998Z</time></trkpt><trkpt lat="43.52775405327917" lon="2.7478407087293473"><ele>851.0</ele><time>2026-04-07T12:52:57.998Z</time></trkpt><trkpt lat="43.52775135420162" lon="2.747989522570039"><ele>852.0</ele><time>2026-04-07T12:52:58.998Z</time></trkpt><trkpt lat="43.527751704291255" lon="2.7481393357864863"><ele>853.0</ele><time>2026-04-07T12:52:59.998Z</time></trkpt><trkpt lat="43.52775664066181" lon="2.748286761267524"><ele>854.0</ele><time>2026-04-07T12:53:01Z</time></trkpt><trkpt lat="43.52776407675609" lon="2.7484385463774688"><ele>855.0</ele><time>2026-04-07T12:53:02Z</time></trkpt><trkpt lat="43.52775906577343" lon="2.748590776402009"><ele>855.4</ele><time>2026-04-07T12:53:03Z</time></trkpt><trkpt lat="43.52775514470375" lon="2.748740348276796"><ele>855.8</ele><time>2026-04-07T12:53:04Z</time></trkpt><trkpt lat="43.527759427276095" lon="2.7488906333774805"><ele>856.2</ele><time>2026-04-07T12:53:05Z</time></trkpt><trkpt lat="43.527778255320044" lon="2.7490546014926127"><ele>856.6</ele><time>2026-04-07T12:53:06Z</time></trkpt><trkpt lat="43.527772971673286" lon="2.7492049346480596"><ele>857.0</ele><time>2026-04-07T12:53:07Z</time></trkpt><trkpt lat="43.52778389857305" lon="2.749361869309363"><ele>857.2</ele><time>2026-04-07T12:53:08Z</time></trkpt><trkpt lat="43.527798142743734" lon="2.749523246021397"><ele>857.4000000000001</ele><time>2026-04-07T12:53:09Z</time></trkpt><trkpt lat="43.52781553628758" lon="2.7496625206382617"><ele>857.5999999999999</ele><time>2026-04-07T12:53:10Z</time></trkpt><trkpt lat="43.52783816998314" lon="2.7498043115419963"><ele>857.8</ele><time>2026-04-07T12:53:11Z</time></trkpt><trkpt lat="43.52786475580038" lon="2.74993731221172"><ele>858.0</ele><time>2026-04-07T12:53:12Z</time></trkpt><trkpt lat="43.52789723997335" lon="2.7500687290017027"><ele>863.4</ele><time>2026-04-07T12:53:13Z</time></trkpt><trkpt lat="43.52793791649583" lon="2.7502017611479705"><ele>868.8</ele><time>2026-04-07T12:53:14Z</time></trkpt><trkpt lat="43.52798236327647" lon="2.750328788481202"><ele>874.2</ele><time>2026-04-07T12:53:15Z</time></trkpt><trkpt lat="43.52803352644637" lon="2.7504464318056443"><ele>879.6</ele><time>2026-04-07T12:53:16Z</time></trkpt><trkpt lat="43.52809788603701" lon="2.7505651306651746"><ele>885.0</ele><time>2026-04-07T12:53:17Z</time></trkpt><trkpt lat="43.528166736047325" lon="2.7506710683450843"><ele>885.0</ele><time>2026-04-07T12:53:18Z</time></trkpt><trkpt lat="43.528247313077784" lon="2.7507663970201333"><ele>885.0</ele><time>2026-04-07T12:53:19Z</time></trkpt><trkpt lat="43.52833563904654" lon="2.750846751566287"><ele>885.0</ele><time>2026-04-07T12:53:20Z</time></trkpt><trkpt lat="43.528425133396674" lon="2.75090992207593"><ele>885.0</ele><time>2026-04-07T12:53:21Z</time></trkpt><trkpt lat="43.52852772110792" lon="2.7509677727799957"><ele>885.0</ele><time>2026-04-07T12:53:22Z</time></trkpt><trkpt lat="43.52862361117007" lon="2.751013180644038"><ele>886.8</ele><time>2026-04-07T12:53:23Z</time></trkpt><trkpt lat="43.52872441179176" lon="2.7510566997908907"><ele>888.6</ele><time>2026-04-07T12:53:24Z</time></trkpt><trkpt lat="43.528819771175954" lon="2.751093694592544"><ele>890.4000000000001</ele><time>2026-04-07T12:53:25Z</time></trkpt><trkpt lat="43.52891233712787" lon="2.751136947398652"><ele>892.2</ele><time>2026-04-07T12:53:26Z</time></trkpt><trkpt lat="43.52901116611803" lon="2.7511940368208916"><ele>894.0</ele><time>2026-04-07T12:53:27Z</time></trkpt><trkpt lat="43.52910274021443" lon="2.751264380845356"><ele>894.0</ele><time>2026-04-07T12:53:28Z</time></trkpt><trkpt lat="43.52920493157349" lon="2.751333775213595"><ele>894.0</ele><time>2026-04-07T12:53:29Z</time></trkpt><trkpt lat="43.529293848789024" lon="2.7514605670232344"><ele>894.0</ele><time>2026-04-07T12:53:30Z</time></trkpt><trkpt lat="43.52936866357387" lon="2.7515755724618103"><ele>894.0</ele><time>2026-04-07T12:53:31Z</time></trkpt><trkpt lat="43.529437837650775" lon="2.75170706696821"><ele>894.0</ele><time>2026-04-07T12:53:32Z</time></trkpt><trkpt lat="43.52949479539777" lon="2.75183213350807"><ele>894.0000000000001</ele><time>2026-04-07T12:53:33Z</time></trkpt><trkpt lat="43.529541415677606" lon="2.751949498962065"><ele>894.0000000000001</ele><time>2026-04-07T12:53:34Z</time></trkpt><trkpt lat="43.52956735081606" lon="2.752050115238484"><ele>894.0</ele><time>2026-04-07T12:53:35Z</time></trkpt><trkpt lat="43.52959134606384" lon="2.7521766004089683"><ele>894.0</ele><time>2026-04-07T12:53:36Z</time></trkpt><trkpt lat="43.529610757795986" lon="2.752286918969876"><ele>898.2</ele><time>2026-04-07T12:53:37Z</time></trkpt><trkpt lat="43.52963407375021" lon="2.7524238835692882"><ele>902.4000000000001</ele><time>2026-04-07T12:53:37.999Z</time></trkpt><trkpt lat="43.529660565032636" lon="2.7525728694303964"><ele>906.6</ele><time>2026-04-07T12:53:38.999Z</time></trkpt><trkpt lat="43.52968739188791" lon="2.7527161505326947"><ele>910.8</ele><time>2026-04-07T12:53:39.999Z</time></trkpt><trkpt lat="43.5297238661749" lon="2.7528643755851143"><ele>915.0</ele><time>2026-04-07T12:53:40.999Z</time></trkpt><trkpt lat="43.52975131103909" lon="2.752998137857194"><ele>915.0</ele><time>2026-04-07T12:53:41.999Z</time></trkpt><trkpt lat="43.529795892399406" lon="2.7531458549624905"><ele>915.0</ele><time>2026-04-07T12:53:42.999Z</time></trkpt><trkpt lat="43.5298350758101" lon="2.753277079552734"><ele>915.0</ele><time>2026-04-07T12:53:43.999Z</time></trkpt><trkpt lat="43.529874592187625" lon="2.7534173256325576"><ele>915.0</ele><time>2026-04-07T12:53:44.999Z</time></trkpt><trkpt lat="43.52991391146857" lon="2.7535551128643854"><ele>915.0</ele><time>2026-04-07T12:53:45.999Z</time></trkpt><trkpt lat="43.52995351578252" lon="2.753697908148676"><ele>913.2</ele><time>2026-04-07T12:53:46.999Z</time></trkpt><trkpt lat="43.529992658257584" lon="2.7538356154101584"><ele>911.4</ele><time>2026-04-07T12:53:47.999Z</time></trkpt><trkpt lat="43.53003185432308" lon="2.7539672886435356"><ele>909.5999999999999</ele><time>2026-04-07T12:53:48.999Z</time></trkpt><trkpt lat="43.53008057842916" lon="2.7541039951237067"><ele>907.8</ele><time>2026-04-07T12:53:49.999Z</time></trkpt><trkpt lat="43.53013576283926" lon="2.7542362647797414"><ele>906.0</ele><time>2026-04-07T12:53:50.999Z</time></trkpt><trkpt lat="43.530209717103524" lon="2.7543265203282536"><ele>903.8</ele><time>2026-04-07T12:53:51.999Z</time></trkpt><trkpt lat="43.53028446329318" lon="2.754437006237867"><ele>901.5999999999999</ele><time>2026-04-07T12:53:52.999Z</time></trkpt><trkpt lat="43.53036277691283" lon="2.7545340543639045"><ele>899.4</ele><time>2026-04-07T12:53:53.999Z</time></trkpt><trkpt lat="43.530440693049016" lon="2.7546413359340245"><ele>897.2</ele><time>2026-04-07T12:53:54.999Z</time></trkpt><trkpt lat="43.53051246612292" lon="2.7547319563888064"><ele>895.0</ele><time>2026-04-07T12:53:55.999Z</time></trkpt><trkpt lat="43.53057904645163" lon="2.7548475976915"><ele>899.6</ele><time>2026-04-07T12:53:56.999Z</time></trkpt><trkpt lat="43.53065234853131" lon="2.7549550215853826"><ele>904.2</ele><time>2026-04-07T12:53:57.999Z</time></trkpt><trkpt lat="43.530729400009115" lon="2.7550648484149187"><ele>908.8</ele><time>2026-04-07T12:53:58.999Z</time></trkpt><trkpt lat="43.53076558636072" lon="2.7552003315138727"><ele>913.4</ele><time>2026-04-07T12:53:59.999Z</time></trkpt><trkpt lat="43.53082157902441" lon="2.7553260923474645"><ele>918.0</ele><time>2026-04-07T12:54:00.999Z</time></trkpt><trkpt lat="43.53085641907561" lon="2.7554690484873006"><ele>918.0</ele><time>2026-04-07T12:54:01.999Z</time></trkpt><trkpt lat="43.5308830558939" lon="2.7556416186193036"><ele>918.0</ele><time>2026-04-07T12:54:02.999Z</time></trkpt><trkpt lat="43.53088836309158" lon="2.7558306166268975"><ele>918.0</ele><time>2026-04-07T12:54:03.999Z</time></trkpt><trkpt lat="43.530883563645126" lon="2.7559878883629487"><ele>918.0</ele><time>2026-04-07T12:54:04.999Z</time></trkpt><trkpt lat="43.53083882080173" lon="2.756223922909532"><ele>916.0</ele><time>2026-04-07T12:54:05.999Z</time></trkpt><trkpt lat="43.53088697136961" lon="2.756478583703387"><ele>914.0</ele><time>2026-04-07T12:54:06.999Z</time></trkpt><trkpt lat="43.53091410353851" lon="2.7566699925725016"><ele>912.0</ele><time>2026-04-07T12:54:07.999Z</time></trkpt><trkpt lat="43.530915728073865" lon="2.7568870475736014"><ele>911.25</ele><time>2026-04-07T12:54:08.999Z</time></trkpt><trkpt lat="43.530922285656" lon="2.7570947824827843"><ele>910.5</ele><time>2026-04-07T12:54:09.999Z</time></trkpt><trkpt lat="43.530929079263295" lon="2.7572768794780753"><ele>909.75</ele><time>2026-04-07T12:54:10.999Z</time></trkpt><trkpt lat="43.530950773038306" lon="2.7574203226625245"><ele>909.0</ele><time>2026-04-07T12:54:11.999Z</time></trkpt><trkpt lat="43.53101309626884" lon="2.7575801307790213"><ele>909.0</ele><time>2026-04-07T12:54:12.999Z</time></trkpt><trkpt lat="43.531085901730705" lon="2.7576937403176087"><ele>909.0</ele><time>2026-04-07T12:54:13.999Z</time></trkpt><trkpt lat="43.53117410319174" lon="2.7577632128929563"><ele>909.0</ele><time>2026-04-07T12:54:14.999Z</time></trkpt><trkpt lat="43.53124982204715" lon="2.757820832268491"><ele>909.0</ele><time>2026-04-07T12:54:15.999Z</time></trkpt><trkpt lat="43.531299544674724" lon="2.7578777539460373"><ele>909.0</ele><time>2026-04-07T12:54:16.999Z</time></trkpt><trkpt lat="43.53122653646495" lon="2.757888207412909"><ele>909.0</ele><time>2026-04-07T12:54:20.999Z</time></trkpt><trkpt lat="43.53116490697439" lon="2.7578570294347142"><ele>899.0</ele><time>2026-04-07T12:54:22.999Z</time></trkpt><trkpt lat="43.53110671186591" lon="2.7578197293418896"><ele>899.0</ele><time>2026-04-07T12:54:25.998Z</time></trkpt></trkseg><trkseg><trkpt lat="43.531183732169694" lon="2.7578455678591234"><ele>900.5000000000001</ele><time>2026-04-07T13:08:41Z</time></trkpt><trkpt lat="43.53124642056909" lon="2.7579146408679853"><ele>902.0</ele><time>2026-04-07T13:08:44Z</time></trkpt><trkpt lat="43.53132059627001" lon="2.7579199145797273"><ele>903.5</ele><time>2026-04-07T13:08:47Z</time></trkpt><trkpt lat="43.53139181493001" lon="2.7579044952126606"><ele>905.0</ele><time>2026-04-07T13:08:49.999Z</time></trkpt><trkpt lat="43.53146560443953" lon="2.757902323860443"><ele>906.5000000000001</ele><time>2026-04-07T13:08:51.999Z</time></trkpt><trkpt lat="43.53160348703206" lon="2.757890252798201"><ele>908.0</ele><time>2026-04-07T13:08:53.999Z</time></trkpt><trkpt lat="43.53168261969534" lon="2.757880219676709"><ele>908.0</ele><time>2026-04-07T13:08:54.999Z</time></trkpt><trkpt lat="43.531784557761334" lon="2.7578125801578826"><ele>908.0</ele><time>2026-04-07T13:08:55.999Z</time></trkpt><trkpt lat="43.53188757175404" lon="2.7577437425403697"><ele>908.0</ele><time>2026-04-07T13:08:56.999Z</time></trkpt><trkpt lat="43.53197137321815" lon="2.7576713309862297"><ele>908.0</ele><time>2026-04-07T13:08:57.999Z</time></trkpt><trkpt lat="43.53205933256208" lon="2.757592855888113"><ele>908.0</ele><time>2026-04-07T13:08:58.999Z</time></trkpt><trkpt lat="43.53214763008696" lon="2.7575177079770734"><ele>912.75</ele><time>2026-04-07T13:08:59.999Z</time></trkpt><trkpt lat="43.532233775945095" lon="2.7574357863269654"><ele>917.5</ele><time>2026-04-07T13:09:00.999Z</time></trkpt><trkpt lat="43.53233322463769" lon="2.7573481777340123"><ele>922.25</ele><time>2026-04-07T13:09:01.999Z</time></trkpt><trkpt lat="43.53245298791664" lon="2.7572301255942713"><ele>927.0</ele><time>2026-04-07T13:09:02.999Z</time></trkpt><trkpt lat="43.53254987738056" lon="2.757127986713881"><ele>927.0</ele><time>2026-04-07T13:09:03.999Z</time></trkpt><trkpt lat="43.53264842554753" lon="2.7570206537810624"><ele>927.0</ele><time>2026-04-07T13:09:04.999Z</time></trkpt><trkpt lat="43.53274068599039" lon="2.756910625439626"><ele>927.0</ele><time>2026-04-07T13:09:05.999Z</time></trkpt><trkpt lat="43.53283944932537" lon="2.756835575733833"><ele>927.0</ele><time>2026-04-07T13:09:06.999Z</time></trkpt><trkpt lat="43.53293595597892" lon="2.756750401730765"><ele>930.0</ele><time>2026-04-07T13:09:07.999Z</time></trkpt><trkpt lat="43.53303332906336" lon="2.7566666990983717"><ele>933.0</ele><time>2026-04-07T13:09:08.999Z</time></trkpt><trkpt lat="43.53312291330146" lon="2.75657503504372"><ele>936.0</ele><time>2026-04-07T13:09:09.999Z</time></trkpt><trkpt lat="43.533219347140864" lon="2.7564859350044912"><ele>939.0</ele><time>2026-04-07T13:09:10.999Z</time></trkpt><trkpt lat="43.5333104797406" lon="2.756398570955462"><ele>939.0</ele><time>2026-04-07T13:09:11.999Z</time></trkpt><trkpt lat="43.53340530683994" lon="2.756310131319644"><ele>939.0</ele><time>2026-04-07T13:09:12.999Z</time></trkpt><trkpt lat="43.53350005939747" lon="2.756223805385484"><ele>939.0</ele><time>2026-04-07T13:09:13.999Z</time></trkpt><trkpt lat="43.53359785167039" lon="2.756136126914343"><ele>939.0</ele><time>2026-04-07T13:09:14.999Z</time></trkpt><trkpt lat="43.533705203181846" lon="2.7560472707030224"><ele>940.0</ele><time>2026-04-07T13:09:15.999Z</time></trkpt><trkpt lat="43.533803603032986" lon="2.7559374906728573"><ele>941.0</ele><time>2026-04-07T13:09:16.999Z</time></trkpt><trkpt lat="43.53391005293966" lon="2.7558496285921956"><ele>942.0</ele><time>2026-04-07T13:09:17.999Z</time></trkpt><trkpt lat="43.53402506666908" lon="2.7557431925625435"><ele>943.0</ele><time>2026-04-07T13:09:18.999Z</time></trkpt><trkpt lat="43.534148628578315" lon="2.755630906471065"><ele>943.0</ele><time>2026-04-07T13:09:19.999Z</time></trkpt><trkpt lat="43.53428108375035" lon="2.7555165706512605"><ele>943.0</ele><time>2026-04-07T13:09:20.999Z</time></trkpt><trkpt lat="43.53441558153086" lon="2.7554034498805966"><ele>943.0</ele><time>2026-04-07T13:09:21.999Z</time></trkpt><trkpt lat="43.534531822647494" lon="2.7552875967063346"><ele>942.5</ele><time>2026-04-07T13:09:22.999Z</time></trkpt><trkpt lat="43.53463641767642" lon="2.7551732648756317"><ele>942.0</ele><time>2026-04-07T13:09:23.999Z</time></trkpt><trkpt lat="43.53473986036621" lon="2.7550640891363822"><ele>941.5</ele><time>2026-04-07T13:09:24.999Z</time></trkpt><trkpt lat="43.53484513447014" lon="2.7549603552833664"><ele>941.0</ele><time>2026-04-07T13:09:25.999Z</time></trkpt><trkpt lat="43.53494709084132" lon="2.7548683780298164"><ele>941.0</ele><time>2026-04-07T13:09:26.999Z</time></trkpt><trkpt lat="43.535051269692154" lon="2.754770488241314"><ele>941.0</ele><time>2026-04-07T13:09:27.999Z</time></trkpt><trkpt lat="43.5351668393702" lon="2.7546703978039746"><ele>941.0</ele><time>2026-04-07T13:09:28.999Z</time></trkpt><trkpt lat="43.53529161629209" lon="2.7545605210003137"><ele>941.0</ele><time>2026-04-07T13:09:29.999Z</time></trkpt><trkpt lat="43.535415994428796" lon="2.7544365974387413"><ele>941.3333333333334</ele><time>2026-04-07T13:09:30.999Z</time></trkpt><trkpt lat="43.535543861526804" lon="2.754305824101572"><ele>941.6666666666667</ele><time>2026-04-07T13:09:31.999Z</time></trkpt><trkpt lat="43.53567940853293" lon="2.7541773689627567"><ele>942.0</ele><time>2026-04-07T13:09:32.998Z</time></trkpt><trkpt lat="43.5358135335303" lon="2.754051928707903"><ele>942.0</ele><time>2026-04-07T13:09:33.998Z</time></trkpt><trkpt lat="43.53595064630903" lon="2.7539234123394487"><ele>942.0</ele><time>2026-04-07T13:09:34.998Z</time></trkpt><trkpt lat="43.53608935641703" lon="2.7537947667565312"><ele>942.0</ele><time>2026-04-07T13:09:35.998Z</time></trkpt><trkpt lat="43.53623082284044" lon="2.7536577169527185"><ele>942.0</ele><time>2026-04-07T13:09:36.998Z</time></trkpt><trkpt lat="43.53637502764354" lon="2.7535235207161843"><ele>942.0</ele><time>2026-04-07T13:09:37.998Z</time></trkpt><trkpt lat="43.53652325521774" lon="2.7533824442868253"><ele>942.0</ele><time>2026-04-07T13:09:38.998Z</time></trkpt><trkpt lat="43.536673588360465" lon="2.7532406166204484"><ele>942.0</ele><time>2026-04-07T13:09:39.998Z</time></trkpt><trkpt lat="43.53682874178177" lon="2.7530849202851657"><ele>942.0</ele><time>2026-04-07T13:09:40.998Z</time></trkpt><trkpt lat="43.53699149901104" lon="2.752934281319635"><ele>942.0</ele><time>2026-04-07T13:09:41.998Z</time></trkpt><trkpt lat="43.53715213493116" lon="2.7527799666506008"><ele>941.0</ele><time>2026-04-07T13:09:42.998Z</time></trkpt><trkpt lat="43.5373102488436" lon="2.7526328438928465"><ele>940.0</ele><time>2026-04-07T13:09:43.998Z</time></trkpt><trkpt lat="43.53747063210874" lon="2.7524877758157205"><ele>939.0</ele><time>2026-04-07T13:09:44.998Z</time></trkpt><trkpt lat="43.537631743147124" lon="2.752333669066872"><ele>939.0</ele><time>2026-04-07T13:09:45.998Z</time></trkpt><trkpt lat="43.53779611156756" lon="2.752175702780206"><ele>939.0</ele><time>2026-04-07T13:09:46.998Z</time></trkpt><trkpt lat="43.53796209842466" lon="2.7520197567903395"><ele>939.0</ele><time>2026-04-07T13:09:47.998Z</time></trkpt><trkpt lat="43.5381317126829" lon="2.751855703229124"><ele>938.0</ele><time>2026-04-07T13:09:48.998Z</time></trkpt><trkpt lat="43.53830438027404" lon="2.751687504483413"><ele>937.0</ele><time>2026-04-07T13:09:49.998Z</time></trkpt><trkpt lat="43.538478186597" lon="2.7515206337304936"><ele>936.0</ele><time>2026-04-07T13:09:50.998Z</time></trkpt><trkpt lat="43.53864892231635" lon="2.751358710132153"><ele>935.0</ele><time>2026-04-07T13:09:51.998Z</time></trkpt><trkpt lat="43.53882444495625" lon="2.7511940436704"><ele>934.0</ele><time>2026-04-07T13:09:52.998Z</time></trkpt><trkpt lat="43.53899960594195" lon="2.751031124664344"><ele>933.0</ele><time>2026-04-07T13:09:53.998Z</time></trkpt><trkpt lat="43.53917406989655" lon="2.750863966709744"><ele>933.0</ele><time>2026-04-07T13:09:54.998Z</time></trkpt><trkpt lat="43.53935146707326" lon="2.750693360741199"><ele>933.0</ele><time>2026-04-07T13:09:55.998Z</time></trkpt><trkpt lat="43.53952566205993" lon="2.7505293745465487"><ele>933.0</ele><time>2026-04-07T13:09:56.998Z</time></trkpt><trkpt lat="43.53970369994876" lon="2.7503685871803767"><ele>931.3333333333333</ele><time>2026-04-07T13:09:57.998Z</time></trkpt><trkpt lat="43.53988151822169" lon="2.750197472051972"><ele>929.6666666666666</ele><time>2026-04-07T13:09:58.998Z</time></trkpt><trkpt lat="43.5400641660982" lon="2.750024552840988"><ele>928.0</ele><time>2026-04-07T13:09:59.998Z</time></trkpt><trkpt lat="43.54023825206812" lon="2.7498507607997045"><ele>926.3333333333333</ele><time>2026-04-07T13:10:00.998Z</time></trkpt><trkpt lat="43.5404061427686" lon="2.749675570192773"><ele>924.6666666666667</ele><time>2026-04-07T13:10:01.998Z</time></trkpt><trkpt lat="43.54058580615904" lon="2.7495180981049834"><ele>923.0</ele><time>2026-04-07T13:10:02.998Z</time></trkpt><trkpt lat="43.540750971692404" lon="2.749373970908536"><ele>923.0</ele><time>2026-04-07T13:10:03.998Z</time></trkpt><trkpt lat="43.54092222146978" lon="2.749208650832375"><ele>923.0</ele><time>2026-04-07T13:10:04.998Z</time></trkpt><trkpt lat="43.54109250982304" lon="2.749052754106804"><ele>923.0</ele><time>2026-04-07T13:10:05.998Z</time></trkpt><trkpt lat="43.54125604684096" lon="2.7488953072238496"><ele>922.0</ele><time>2026-04-07T13:10:06.998Z</time></trkpt><trkpt lat="43.541421803761" lon="2.74873246893722"><ele>921.0</ele><time>2026-04-07T13:10:07.998Z</time></trkpt><trkpt lat="43.54159346539033" lon="2.7485766095473005"><ele>920.0</ele><time>2026-04-07T13:10:08.998Z</time></trkpt><trkpt lat="43.54175329270976" lon="2.7484222185670526"><ele>920.0</ele><time>2026-04-07T13:10:09.998Z</time></trkpt><trkpt lat="43.541933607144315" lon="2.7482858061064728"><ele>920.0</ele><time>2026-04-07T13:10:10.998Z</time></trkpt><trkpt lat="43.54210119370508" lon="2.7481420350692267"><ele>920.0</ele><time>2026-04-07T13:10:11.998Z</time></trkpt><trkpt lat="43.542260387226385" lon="2.7480009284040094"><ele>918.3333333333334</ele><time>2026-04-07T13:10:12.998Z</time></trkpt><trkpt lat="43.5424243705408" lon="2.7478489049166175"><ele>916.6666666666667</ele><time>2026-04-07T13:10:13.998Z</time></trkpt><trkpt lat="43.54259028565874" lon="2.747701575537673"><ele>915.0</ele><time>2026-04-07T13:10:14.998Z</time></trkpt><trkpt lat="43.54275131584619" lon="2.7475451917511404"><ele>911.3333333333333</ele><time>2026-04-07T13:10:15.998Z</time></trkpt><trkpt lat="43.54291483615387" lon="2.747381651177955"><ele>907.6666666666666</ele><time>2026-04-07T13:10:16.998Z</time></trkpt><trkpt lat="43.54307475177317" lon="2.7472059074567508"><ele>904.0</ele><time>2026-04-07T13:10:17.997Z</time></trkpt><trkpt lat="43.543226512206665" lon="2.7470142112535214"><ele>905.6666666666666</ele><time>2026-04-07T13:10:19Z</time></trkpt><trkpt lat="43.54336655637679" lon="2.7468081986075807"><ele>907.3333333333333</ele><time>2026-04-07T13:10:20Z</time></trkpt><trkpt lat="43.54349120544222" lon="2.7466013319660534"><ele>909.0</ele><time>2026-04-07T13:10:21Z</time></trkpt><trkpt lat="43.54360685405463" lon="2.7463907898569575"><ele>905.0</ele><time>2026-04-07T13:10:22Z</time></trkpt><trkpt lat="43.54371600142368" lon="2.7461805225243636"><ele>901.0</ele><time>2026-04-07T13:10:23Z</time></trkpt><trkpt lat="43.54381271783566" lon="2.7459872940602406"><ele>897.0</ele><time>2026-04-07T13:10:24Z</time></trkpt><trkpt lat="43.543906408550065" lon="2.7457986315962204"><ele>897.0</ele><time>2026-04-07T13:10:25Z</time></trkpt><trkpt lat="43.54399650790606" lon="2.745623415092258"><ele>897.0</ele><time>2026-04-07T13:10:26Z</time></trkpt><trkpt lat="43.5440808101388" lon="2.745435732657867"><ele>897.0</ele><time>2026-04-07T13:10:27Z</time></trkpt><trkpt lat="43.54416202927452" lon="2.74526151497755"><ele>897.0</ele><time>2026-04-07T13:10:28Z</time></trkpt><trkpt lat="43.54425030029899" lon="2.7451311547200783"><ele>897.0</ele><time>2026-04-07T13:10:29Z</time></trkpt><trkpt lat="43.54433828488627" lon="2.7449965352748076"><ele>897.0</ele><time>2026-04-07T13:10:30Z</time></trkpt><trkpt lat="43.544421267060926" lon="2.7448723866370255"><ele>897.0</ele><time>2026-04-07T13:10:31Z</time></trkpt><trkpt lat="43.544502058155544" lon="2.744743615400803"><ele>896.6</ele><time>2026-04-07T13:10:32Z</time></trkpt><trkpt lat="43.5445621604518" lon="2.7446213190475786"><ele>896.2</ele><time>2026-04-07T13:10:33Z</time></trkpt><trkpt lat="43.54462925628489" lon="2.744521940336053"><ele>895.8</ele><time>2026-04-07T13:10:34Z</time></trkpt><trkpt lat="43.54468440797443" lon="2.744439912095053"><ele>895.4</ele><time>2026-04-07T13:10:35Z</time></trkpt><trkpt lat="43.544729609945136" lon="2.7443742029776437"><ele>895.0</ele><time>2026-04-07T13:10:36Z</time></trkpt><trkpt lat="43.54479615271977" lon="2.7442676108724684"><ele>894.9999999999999</ele><time>2026-04-07T13:10:38Z</time></trkpt><trkpt lat="43.5448394786638" lon="2.744202974986623"><ele>895.0</ele><time>2026-04-07T13:10:39Z</time></trkpt><trkpt lat="43.54488826409802" lon="2.7441294442218496"><ele>895.0</ele><time>2026-04-07T13:10:40Z</time></trkpt><trkpt lat="43.54493866208335" lon="2.744054321405557"><ele>895.0</ele><time>2026-04-07T13:10:41Z</time></trkpt><trkpt lat="43.54501760239973" lon="2.7439447098532113"><ele>894.9999999999999</ele><time>2026-04-07T13:10:43Z</time></trkpt><trkpt lat="43.54506450159857" lon="2.7438595255024527"><ele>895.0</ele><time>2026-04-07T13:10:45Z</time></trkpt><trkpt lat="43.54513299181053" lon="2.7438357201022328"><ele>895.0</ele><time>2026-04-07T13:10:48Z</time></trkpt><trkpt lat="43.54515265063193" lon="2.7437350258212354"><ele>895.0</ele><time>2026-04-07T13:13:02.999Z</time></trkpt><trkpt lat="43.54522044050593" lon="2.7436197002715677"><ele>895.0</ele><time>2026-04-07T13:13:03.999Z</time></trkpt><trkpt lat="43.54528786764056" lon="2.743508251140738"><ele>895.0</ele><time>2026-04-07T13:13:04.999Z</time></trkpt><trkpt lat="43.545356463986465" lon="2.7433967212369703"><ele>895.0</ele><time>2026-04-07T13:13:05.999Z</time></trkpt><trkpt lat="43.545438290050754" lon="2.7432853278394806"><ele>898.25</ele><time>2026-04-07T13:13:06.999Z</time></trkpt><trkpt lat="43.54553272589377" lon="2.743172849355619"><ele>901.5</ele><time>2026-04-07T13:13:07.999Z</time></trkpt><trkpt lat="43.545631402021506" lon="2.7430606437009546"><ele>904.75</ele><time>2026-04-07T13:13:08.999Z</time></trkpt><trkpt lat="43.54575294570924" lon="2.7429430990779333"><ele>908.0</ele><time>2026-04-07T13:13:09.999Z</time></trkpt><trkpt lat="43.5458695416941" lon="2.7428195276470837"><ele>908.0</ele><time>2026-04-07T13:13:10.999Z</time></trkpt><trkpt lat="43.54599925550666" lon="2.7426900993583447"><ele>908.0</ele><time>2026-04-07T13:13:11.999Z</time></trkpt><trkpt lat="43.54612498713651" lon="2.74255672187296"><ele>908.0</ele><time>2026-04-07T13:13:12.999Z</time></trkpt><trkpt lat="43.54625622599896" lon="2.7424197401581214"><ele>908.6666666666667</ele><time>2026-04-07T13:13:13.999Z</time></trkpt><trkpt lat="43.546388533116684" lon="2.7422676016286824"><ele>909.3333333333333</ele><time>2026-04-07T13:13:14.999Z</time></trkpt><trkpt lat="43.546522502581276" lon="2.742117655368193"><ele>910.0</ele><time>2026-04-07T13:13:15.999Z</time></trkpt><trkpt lat="43.54666306629437" lon="2.741966081580468"><ele>910.6666666666666</ele><time>2026-04-07T13:13:16.999Z</time></trkpt><trkpt lat="43.54680281158793" lon="2.741804118004062"><ele>911.3333333333333</ele><time>2026-04-07T13:13:17.999Z</time></trkpt><trkpt lat="43.546937449103986" lon="2.741639273915246"><ele>912.0</ele><time>2026-04-07T13:13:18.999Z</time></trkpt><trkpt lat="43.54707944706933" lon="2.741467717070888"><ele>910.6666666666667</ele><time>2026-04-07T13:13:19.999Z</time></trkpt><trkpt lat="43.547224034863305" lon="2.741287853694437"><ele>909.3333333333334</ele><time>2026-04-07T13:13:20.999Z</time></trkpt><trkpt lat="43.54736596472467" lon="2.7410959859120734"><ele>908.0</ele><time>2026-04-07T13:13:21.999Z</time></trkpt><trkpt lat="43.547502866496394" lon="2.7408904870827357"><ele>908.0</ele><time>2026-04-07T13:13:22.999Z</time></trkpt><trkpt lat="43.54763028322576" lon="2.7406700023003716"><ele>908.0</ele><time>2026-04-07T13:13:23.999Z</time></trkpt><trkpt lat="43.547753412663766" lon="2.740436557800044"><ele>908.0</ele><time>2026-04-07T13:13:24.999Z</time></trkpt><trkpt lat="43.54786629299855" lon="2.7401862176751526"><ele>908.3333333333334</ele><time>2026-04-07T13:13:25.999Z</time></trkpt><trkpt lat="43.54796599488598" lon="2.7399220595270464"><ele>908.6666666666667</ele><time>2026-04-07T13:13:26.999Z</time></trkpt><trkpt lat="43.54805889344557" lon="2.739650102692788"><ele>909.0</ele><time>2026-04-07T13:13:27.999Z</time></trkpt><trkpt lat="43.548141319853244" lon="2.7393620798265954"><ele>910.0</ele><time>2026-04-07T13:13:28.999Z</time></trkpt><trkpt lat="43.548209409360524" lon="2.7390671077098134"><ele>911.0</ele><time>2026-04-07T13:13:29.999Z</time></trkpt><trkpt lat="43.54826038736946" lon="2.7387672280866817"><ele>912.0</ele><time>2026-04-07T13:13:30.999Z</time></trkpt><trkpt lat="43.548302383651944" lon="2.7384667309501576"><ele>914.0</ele><time>2026-04-07T13:13:31.999Z</time></trkpt><trkpt lat="43.54834042100577" lon="2.738171914243257"><ele>916.0</ele><time>2026-04-07T13:13:32.999Z</time></trkpt><trkpt lat="43.54838534041123" lon="2.737876451124019"><ele>918.0</ele><time>2026-04-07T13:13:33.999Z</time></trkpt><trkpt lat="43.54845680887439" lon="2.7375954265949334"><ele>920.0</ele><time>2026-04-07T13:13:34.999Z</time></trkpt><trkpt lat="43.548551417989266" lon="2.7373297303407775"><ele>922.0</ele><time>2026-04-07T13:13:35.999Z</time></trkpt><trkpt lat="43.548660782992194" lon="2.737079206333115"><ele>924.0</ele><time>2026-04-07T13:13:36.999Z</time></trkpt><trkpt lat="43.548790051434" lon="2.73684044174687"><ele>927.0</ele><time>2026-04-07T13:13:37.999Z</time></trkpt><trkpt lat="43.548914932741894" lon="2.736602839242886"><ele>930.0</ele><time>2026-04-07T13:13:38.999Z</time></trkpt><trkpt lat="43.549038136174495" lon="2.736361022728686"><ele>933.0</ele><time>2026-04-07T13:13:39.999Z</time></trkpt><trkpt lat="43.54916362524265" lon="2.736116685057476"><ele>933.3333333333333</ele><time>2026-04-07T13:13:40.999Z</time></trkpt><trkpt lat="43.54928994118861" lon="2.7358719449775863"><ele>933.6666666666666</ele><time>2026-04-07T13:13:41.999Z</time></trkpt><trkpt lat="43.54941848499906" lon="2.73562859688714"><ele>934.0</ele><time>2026-04-07T13:13:42.999Z</time></trkpt><trkpt lat="43.549563278041965" lon="2.735399806578097"><ele>936.6666666666666</ele><time>2026-04-07T13:13:43.999Z</time></trkpt><trkpt lat="43.54973380888607" lon="2.7352011209563547"><ele>939.3333333333333</ele><time>2026-04-07T13:13:44.999Z</time></trkpt><trkpt lat="43.54992023364702" lon="2.735027790142448"><ele>942.0</ele><time>2026-04-07T13:13:45.999Z</time></trkpt><trkpt lat="43.55011905643979" lon="2.7348744751869605"><ele>942.0</ele><time>2026-04-07T13:13:46.999Z</time></trkpt><trkpt lat="43.55032682576782" lon="2.7347493384884136"><ele>942.0</ele><time>2026-04-07T13:13:47.999Z</time></trkpt><trkpt lat="43.550542351910565" lon="2.734638307901159"><ele>942.0</ele><time>2026-04-07T13:13:48.998Z</time></trkpt><trkpt lat="43.55076094163007" lon="2.734525749519852"><ele>942.0</ele><time>2026-04-07T13:13:49.998Z</time></trkpt><trkpt lat="43.55098076448622" lon="2.734406023705493"><ele>943.5</ele><time>2026-04-07T13:13:50.998Z</time></trkpt><trkpt lat="43.551203914472296" lon="2.7342832997637805"><ele>945.0</ele><time>2026-04-07T13:13:51.998Z</time></trkpt><trkpt lat="43.55142838073263" lon="2.734159651343945"><ele>946.5</ele><time>2026-04-07T13:13:52.998Z</time></trkpt><trkpt lat="43.551654770871984" lon="2.7340368326625253"><ele>948.0</ele><time>2026-04-07T13:13:53.998Z</time></trkpt><trkpt lat="43.551881552040015" lon="2.733912152245971"><ele>943.5</ele><time>2026-04-07T13:13:54.998Z</time></trkpt><trkpt lat="43.55211186894388" lon="2.7337850005103888"><ele>939.0</ele><time>2026-04-07T13:13:55.998Z</time></trkpt><trkpt lat="43.55233907168241" lon="2.733653646816848"><ele>940.0</ele><time>2026-04-07T13:13:56.998Z</time></trkpt><trkpt lat="43.55256821052132" lon="2.733526332751957"><ele>941.0</ele><time>2026-04-07T13:13:57.998Z</time></trkpt><trkpt lat="43.552797007060825" lon="2.733393073051297"><ele>943.0</ele><time>2026-04-07T13:13:58.998Z</time></trkpt><trkpt lat="43.55302649040492" lon="2.733266353384623"><ele>945.0</ele><time>2026-04-07T13:13:59.998Z</time></trkpt><trkpt lat="43.55325277865892" lon="2.7331412171974687"><ele>945.0</ele><time>2026-04-07T13:14:00.998Z</time></trkpt><trkpt lat="43.553473557176886" lon="2.733018331131154"><ele>945.0</ele><time>2026-04-07T13:14:01.998Z</time></trkpt><trkpt lat="43.55369520155265" lon="2.7328966326727255"><ele>948.0</ele><time>2026-04-07T13:14:02.998Z</time></trkpt><trkpt lat="43.55391669999135" lon="2.732776760088635"><ele>951.0</ele><time>2026-04-07T13:14:03.998Z</time></trkpt><trkpt lat="43.55413946104409" lon="2.732660215073767"><ele>951.0</ele><time>2026-04-07T13:14:04.998Z</time></trkpt><trkpt lat="43.554361223727476" lon="2.732558090757767"><ele>951.0</ele><time>2026-04-07T13:14:05.998Z</time></trkpt><trkpt lat="43.55458451207321" lon="2.7324660274700623"><ele>952.3333333333333</ele><time>2026-04-07T13:14:06.998Z</time></trkpt><trkpt lat="43.554800877482265" lon="2.7323726316564416"><ele>953.6666666666666</ele><time>2026-04-07T13:14:07.998Z</time></trkpt><trkpt lat="43.555011067316926" lon="2.732282825275587"><ele>955.0</ele><time>2026-04-07T13:14:08.998Z</time></trkpt><trkpt lat="43.55521675153973" lon="2.732196926560212"><ele>953.6666666666666</ele><time>2026-04-07T13:14:09.998Z</time></trkpt><trkpt lat="43.5554273787334" lon="2.7321145949930052"><ele>952.3333333333333</ele><time>2026-04-07T13:14:10.998Z</time></trkpt><trkpt lat="43.55564016399256" lon="2.73205708558664"><ele>951.0</ele><time>2026-04-07T13:14:11.998Z</time></trkpt><trkpt lat="43.55585549178178" lon="2.7320472989497615"><ele>951.0</ele><time>2026-04-07T13:14:12.998Z</time></trkpt><trkpt lat="43.55606744837084" lon="2.732090379419727"><ele>951.0</ele><time>2026-04-07T13:14:13.998Z</time></trkpt><trkpt lat="43.556272401170645" lon="2.73217518716368"><ele>951.0</ele><time>2026-04-07T13:14:14.998Z</time></trkpt><trkpt lat="43.556465960897604" lon="2.7322754342536224"><ele>951.6666666666667</ele><time>2026-04-07T13:14:15.998Z</time></trkpt><trkpt lat="43.55664909940223" lon="2.7323602771684317"><ele>952.3333333333334</ele><time>2026-04-07T13:14:16.998Z</time></trkpt><trkpt lat="43.5568288283629" lon="2.7324476195446765"><ele>953.0</ele><time>2026-04-07T13:14:17.998Z</time></trkpt><trkpt lat="43.557009824162314" lon="2.732526284297824"><ele>954.3333333333334</ele><time>2026-04-07T13:14:18.998Z</time></trkpt><trkpt lat="43.55719984572036" lon="2.732589192768283"><ele>955.6666666666667</ele><time>2026-04-07T13:14:19.998Z</time></trkpt><trkpt lat="43.55738171656942" lon="2.732668133377209"><ele>957.0</ele><time>2026-04-07T13:14:20.998Z</time></trkpt><trkpt lat="43.55755064692469" lon="2.7327767754372787"><ele>954.3333333333333</ele><time>2026-04-07T13:14:21.998Z</time></trkpt><trkpt lat="43.55772094326337" lon="2.7328517325684474"><ele>951.6666666666666</ele><time>2026-04-07T13:14:22.998Z</time></trkpt><trkpt lat="43.557903178056684" lon="2.7328910033548515"><ele>949.0</ele><time>2026-04-07T13:14:23.998Z</time></trkpt><trkpt lat="43.55808343798732" lon="2.7329042027337627"><ele>949.0</ele><time>2026-04-07T13:14:24.998Z</time></trkpt><trkpt lat="43.558226409733045" lon="2.7328761435480744"><ele>949.0</ele><time>2026-04-07T13:14:25.998Z</time></trkpt><trkpt lat="43.55843172389828" lon="2.7328354652558167"><ele>949.0</ele><time>2026-04-07T13:14:26.998Z</time></trkpt><trkpt lat="43.55861709500993" lon="2.732803414168686"><ele>948.6666666666666</ele><time>2026-04-07T13:14:27.998Z</time></trkpt><trkpt lat="43.55879345308984" lon="2.7327388530318664"><ele>948.3333333333333</ele><time>2026-04-07T13:14:28.998Z</time></trkpt><trkpt lat="43.558954141595024" lon="2.7326416822167783"><ele>948.0</ele><time>2026-04-07T13:14:29.998Z</time></trkpt><trkpt lat="43.55911043133746" lon="2.732527162682004"><ele>949.6666666666667</ele><time>2026-04-07T13:14:31Z</time></trkpt><trkpt lat="43.559257524823074" lon="2.732400268318534"><ele>951.3333333333334</ele><time>2026-04-07T13:14:32Z</time></trkpt><trkpt lat="43.55939431786239" lon="2.7322591746826084"><ele>953.0</ele><time>2026-04-07T13:14:33Z</time></trkpt><trkpt lat="43.55953278799475" lon="2.732109264142769"><ele>953.0</ele><time>2026-04-07T13:14:34Z</time></trkpt><trkpt lat="43.55966296971705" lon="2.7319456823909545"><ele>953.0</ele><time>2026-04-07T13:14:35Z</time></trkpt><trkpt lat="43.55977657660886" lon="2.7317633833772943"><ele>953.0</ele><time>2026-04-07T13:14:36Z</time></trkpt><trkpt lat="43.559886411392284" lon="2.731570206456407"><ele>953.0</ele><time>2026-04-07T13:14:37Z</time></trkpt><trkpt lat="43.559991883923146" lon="2.7313712757749564"><ele>953.0</ele><time>2026-04-07T13:14:38Z</time></trkpt><trkpt lat="43.56009527443658" lon="2.7311593182405702"><ele>953.0</ele><time>2026-04-07T13:14:39Z</time></trkpt><trkpt lat="43.56018206854368" lon="2.73094581587142"><ele>955.6666666666667</ele><time>2026-04-07T13:14:40Z</time></trkpt><trkpt lat="43.56026970922651" lon="2.730733640252893"><ele>958.3333333333333</ele><time>2026-04-07T13:14:41Z</time></trkpt><trkpt lat="43.56035922448852" lon="2.7305192645404572"><ele>961.0</ele><time>2026-04-07T13:14:42Z</time></trkpt><trkpt lat="43.560447988425274" lon="2.730308834265871"><ele>957.0</ele><time>2026-04-07T13:14:43Z</time></trkpt><trkpt lat="43.5605346992146" lon="2.7300983762989497"><ele>953.0</ele><time>2026-04-07T13:14:44Z</time></trkpt><trkpt lat="43.56062514627066" lon="2.729891083199951"><ele>949.0</ele><time>2026-04-07T13:14:45Z</time></trkpt><trkpt lat="43.56071030381353" lon="2.7296810472099255"><ele>949.0</ele><time>2026-04-07T13:14:46Z</time></trkpt><trkpt lat="43.5607935055292" lon="2.7294662630793445"><ele>949.0</ele><time>2026-04-07T13:14:47Z</time></trkpt><trkpt lat="43.56086115295413" lon="2.7292453302027737"><ele>949.0</ele><time>2026-04-07T13:14:48Z</time></trkpt><trkpt lat="43.56092319979443" lon="2.72900499830782"><ele>951.3333333333333</ele><time>2026-04-07T13:14:49Z</time></trkpt><trkpt lat="43.560962595990894" lon="2.728764838650776"><ele>953.6666666666667</ele><time>2026-04-07T13:14:50Z</time></trkpt><trkpt lat="43.56099392787342" lon="2.728524212207513"><ele>956.0</ele><time>2026-04-07T13:14:51Z</time></trkpt><trkpt lat="43.56100332523785" lon="2.7282787180296113"><ele>956.3333333333334</ele><time>2026-04-07T13:14:52Z</time></trkpt><trkpt lat="43.56100624124073" lon="2.7280306412872863"><ele>956.6666666666667</ele><time>2026-04-07T13:14:53Z</time></trkpt><trkpt lat="43.56100262963802" lon="2.7277941974065723"><ele>957.0</ele><time>2026-04-07T13:14:54Z</time></trkpt><trkpt lat="43.56100802532496" lon="2.7275522477850465"><ele>957.6666666666667</ele><time>2026-04-07T13:14:55Z</time></trkpt><trkpt lat="43.56102619055105" lon="2.7273127893671525"><ele>958.3333333333334</ele><time>2026-04-07T13:14:56Z</time></trkpt><trkpt lat="43.561061442534445" lon="2.72707654008276"><ele>959.0</ele><time>2026-04-07T13:14:57Z</time></trkpt><trkpt lat="43.561101053492685" lon="2.726840123125186"><ele>961.0</ele><time>2026-04-07T13:14:58Z</time></trkpt><trkpt lat="43.56114027064194" lon="2.7266044061605594"><ele>963.0</ele><time>2026-04-07T13:14:59Z</time></trkpt><trkpt lat="43.56118048224677" lon="2.7263739783307934"><ele>965.0</ele><time>2026-04-07T13:15:00Z</time></trkpt><trkpt lat="43.56121824807062" lon="2.726144952814316"><ele>961.6666666666667</ele><time>2026-04-07T13:15:01Z</time></trkpt><trkpt lat="43.56125387910056" lon="2.7259147296074024"><ele>958.3333333333333</ele><time>2026-04-07T13:15:02Z</time></trkpt><trkpt lat="43.56129491147072" lon="2.7256867946286145"><ele>955.0</ele><time>2026-04-07T13:15:03Z</time></trkpt><trkpt lat="43.56133769022604" lon="2.7254599736287144"><ele>955.0</ele><time>2026-04-07T13:15:04Z</time></trkpt><trkpt lat="43.56137960186326" lon="2.7252319965677203"><ele>955.0</ele><time>2026-04-07T13:15:05Z</time></trkpt><trkpt lat="43.56141853416283" lon="2.7250050724861823"><ele>955.0</ele><time>2026-04-07T13:15:06Z</time></trkpt><trkpt lat="43.561457221555344" lon="2.724776490987667"><ele>957.3333333333333</ele><time>2026-04-07T13:15:07Z</time></trkpt><trkpt lat="43.561497418758016" lon="2.724553169810258"><ele>959.6666666666667</ele><time>2026-04-07T13:15:08Z</time></trkpt><trkpt lat="43.56153599013879" lon="2.7243348313850384"><ele>962.0</ele><time>2026-04-07T13:15:08.999Z</time></trkpt><trkpt lat="43.561577675653325" lon="2.7241236677485205"><ele>963.6666666666667</ele><time>2026-04-07T13:15:09.999Z</time></trkpt><trkpt lat="43.56163402442669" lon="2.7239209748188347"><ele>965.3333333333333</ele><time>2026-04-07T13:15:10.999Z</time></trkpt><trkpt lat="43.56170348946389" lon="2.7237238259967294"><ele>967.0</ele><time>2026-04-07T13:15:11.999Z</time></trkpt><trkpt lat="43.56179253354258" lon="2.7235366962891048"><ele>967.0</ele><time>2026-04-07T13:15:12.999Z</time></trkpt><trkpt lat="43.56190214846636" lon="2.723366057005132"><ele>967.0</ele><time>2026-04-07T13:15:13.999Z</time></trkpt><trkpt lat="43.562032878226645" lon="2.7232151633373323"><ele>967.0</ele><time>2026-04-07T13:15:14.999Z</time></trkpt><trkpt lat="43.562180309927875" lon="2.7230874616225003"><ele>967.0</ele><time>2026-04-07T13:15:15.999Z</time></trkpt><trkpt lat="43.562344327068786" lon="2.7229827838304024"><ele>967.0</ele><time>2026-04-07T13:15:16.999Z</time></trkpt><trkpt lat="43.562521150101844" lon="2.722895208181299"><ele>967.0</ele><time>2026-04-07T13:15:17.999Z</time></trkpt><trkpt lat="43.56269776461623" lon="2.7227965115153974"><ele>963.6666666666666</ele><time>2026-04-07T13:15:18.999Z</time></trkpt><trkpt lat="43.56288080936389" lon="2.7226918799657596"><ele>960.3333333333333</ele><time>2026-04-07T13:15:19.999Z</time></trkpt><trkpt lat="43.56306120076784" lon="2.7225940110235176"><ele>957.0</ele><time>2026-04-07T13:15:20.999Z</time></trkpt><trkpt lat="43.56324119679413" lon="2.722490224971696"><ele>957.0</ele><time>2026-04-07T13:15:21.999Z</time></trkpt><trkpt lat="43.56341593129919" lon="2.722364946328505"><ele>957.0</ele><time>2026-04-07T13:15:22.999Z</time></trkpt><trkpt lat="43.56358097475128" lon="2.7221905265966004"><ele>957.0</ele><time>2026-04-07T13:15:23.999Z</time></trkpt><trkpt lat="43.5637328849003" lon="2.7219956403361003"><ele>954.6666666666667</ele><time>2026-04-07T13:15:24.999Z</time></trkpt><trkpt lat="43.563885210429135" lon="2.72182592614769"><ele>952.3333333333334</ele><time>2026-04-07T13:15:25.999Z</time></trkpt><trkpt lat="43.564038939732434" lon="2.72168756206797"><ele>950.0</ele><time>2026-04-07T13:15:26.999Z</time></trkpt><trkpt lat="43.56420011179886" lon="2.7215733933565422"><ele>950.0</ele><time>2026-04-07T13:15:27.999Z</time></trkpt><trkpt lat="43.56436855247965" lon="2.72147906408826"><ele>950.0</ele><time>2026-04-07T13:15:28.999Z</time></trkpt><trkpt lat="43.564541039568624" lon="2.7214084662651254"><ele>950.0</ele><time>2026-04-07T13:15:29.999Z</time></trkpt><trkpt lat="43.56472499154754" lon="2.7213670183780208"><ele>951.0</ele><time>2026-04-07T13:15:30.999Z</time></trkpt><trkpt lat="43.564910206256386" lon="2.7213466082745597"><ele>952.0</ele><time>2026-04-07T13:15:31.999Z</time></trkpt><trkpt lat="43.56509653444091" lon="2.721351425285113"><ele>953.0</ele><time>2026-04-07T13:15:32.999Z</time></trkpt><trkpt lat="43.565285428064705" lon="2.721377819140197"><ele>951.0</ele><time>2026-04-07T13:15:33.999Z</time></trkpt><trkpt lat="43.565467311320674" lon="2.721381876192136"><ele>949.0</ele><time>2026-04-07T13:15:34.999Z</time></trkpt><trkpt lat="43.56564468312352" lon="2.721374153517597"><ele>947.0</ele><time>2026-04-07T13:15:35.999Z</time></trkpt><trkpt lat="43.56582850129627" lon="2.7213389343369787"><ele>947.0</ele><time>2026-04-07T13:15:36.999Z</time></trkpt><trkpt lat="43.56600930457668" lon="2.7212562452172535"><ele>947.0</ele><time>2026-04-07T13:15:37.999Z</time></trkpt><trkpt lat="43.56618248529584" lon="2.721141030147041"><ele>947.0</ele><time>2026-04-07T13:15:38.999Z</time></trkpt><trkpt lat="43.56634268014691" lon="2.7209789476745776"><ele>946.0</ele><time>2026-04-07T13:15:39.999Z</time></trkpt><trkpt lat="43.56647522185055" lon="2.720784888345216"><ele>945.0</ele><time>2026-04-07T13:15:40.999Z</time></trkpt><trkpt lat="43.566583912595476" lon="2.720561584342767"><ele>944.0</ele><time>2026-04-07T13:15:41.999Z</time></trkpt><trkpt lat="43.56669145814906" lon="2.7203488285281874"><ele>939.6666666666667</ele><time>2026-04-07T13:15:42.999Z</time></trkpt><trkpt lat="43.56680093741914" lon="2.720151066665516"><ele>935.3333333333333</ele><time>2026-04-07T13:15:43.999Z</time></trkpt><trkpt lat="43.5669001192963" lon="2.719958909126056"><ele>931.0</ele><time>2026-04-07T13:15:44.999Z</time></trkpt><trkpt lat="43.56701318523951" lon="2.719761333979263"><ele>930.3333333333333</ele><time>2026-04-07T13:15:45.999Z</time></trkpt><trkpt lat="43.56712470299112" lon="2.7195609663489835"><ele>929.6666666666667</ele><time>2026-04-07T13:15:46.999Z</time></trkpt><trkpt lat="43.567240295371164" lon="2.7193601355048647"><ele>929.0</ele><time>2026-04-07T13:15:47.999Z</time></trkpt><trkpt lat="43.567369945603204" lon="2.7191660943021003"><ele>929.0</ele><time>2026-04-07T13:15:48.999Z</time></trkpt><trkpt lat="43.567509325338456" lon="2.7189811746443358"><ele>929.0</ele><time>2026-04-07T13:15:49.999Z</time></trkpt><trkpt lat="43.567671637249035" lon="2.7188332588549278"><ele>929.0</ele><time>2026-04-07T13:15:50.999Z</time></trkpt><trkpt lat="43.56783849686641" lon="2.7186904620203522"><ele>927.3333333333334</ele><time>2026-04-07T13:15:51.999Z</time></trkpt><trkpt lat="43.56801190507575" lon="2.7185710939175087"><ele>925.6666666666667</ele><time>2026-04-07T13:15:52.999Z</time></trkpt><trkpt lat="43.56820023535588" lon="2.71847074664361"><ele>924.0</ele><time>2026-04-07T13:15:53.999Z</time></trkpt><trkpt lat="43.5683894794546" lon="2.718363303727175"><ele>924.0</ele><time>2026-04-07T13:15:54.998Z</time></trkpt><trkpt lat="43.56858146358244" lon="2.7183022796959992"><ele>924.0</ele><time>2026-04-07T13:15:55.998Z</time></trkpt><trkpt lat="43.56876661374045" lon="2.718212356173721"><ele>924.0</ele><time>2026-04-07T13:15:56.998Z</time></trkpt><trkpt lat="43.568942209898" lon="2.7180864666918496"><ele>925.6666666666667</ele><time>2026-04-07T13:15:57.998Z</time></trkpt><trkpt lat="43.569098562381" lon="2.7179119000887138"><ele>927.3333333333334</ele><time>2026-04-07T13:15:58.998Z</time></trkpt><trkpt lat="43.56923796712226" lon="2.717711146879969"><ele>929.0</ele><time>2026-04-07T13:15:59.998Z</time></trkpt><trkpt lat="43.569391779226684" lon="2.7175518117064255"><ele>926.3333333333334</ele><time>2026-04-07T13:16:00.998Z</time></trkpt><trkpt lat="43.56955537105994" lon="2.717408324272833"><ele>923.6666666666667</ele><time>2026-04-07T13:16:01.998Z</time></trkpt><trkpt lat="43.56973796995141" lon="2.7172949632131447"><ele>921.0</ele><time>2026-04-07T13:16:02.998Z</time></trkpt><trkpt lat="43.56993775160577" lon="2.717216379418736"><ele>921.0</ele><time>2026-04-07T13:16:03.998Z</time></trkpt><trkpt lat="43.57014514755747" lon="2.717183590469376"><ele>921.0</ele><time>2026-04-07T13:16:04.998Z</time></trkpt><trkpt lat="43.570359189620476" lon="2.7171930596296674"><ele>921.0</ele><time>2026-04-07T13:16:05.998Z</time></trkpt><trkpt lat="43.57056846211538" lon="2.717220530842038"><ele>918.0</ele><time>2026-04-07T13:16:06.998Z</time></trkpt><trkpt lat="43.57076044725866" lon="2.7172846537418462"><ele>915.0</ele><time>2026-04-07T13:16:07.998Z</time></trkpt><trkpt lat="43.5709538090059" lon="2.7173112695213795"><ele>912.0</ele><time>2026-04-07T13:16:08.998Z</time></trkpt><trkpt lat="43.571151292128604" lon="2.717288876290061"><ele>912.3333333333333</ele><time>2026-04-07T13:16:09.998Z</time></trkpt><trkpt lat="43.57134621147586" lon="2.7172225292693986"><ele>912.6666666666666</ele><time>2026-04-07T13:16:10.998Z</time></trkpt><trkpt lat="43.57153074887324" lon="2.7171068178278097"><ele>913.0</ele><time>2026-04-07T13:16:11.998Z</time></trkpt><trkpt lat="43.57170001901074" lon="2.716965209011906"><ele>909.3333333333333</ele><time>2026-04-07T13:16:12.998Z</time></trkpt><trkpt lat="43.57186411861551" lon="2.7168055943706"><ele>905.6666666666667</ele><time>2026-04-07T13:16:13.998Z</time></trkpt><trkpt lat="43.57202711397205" lon="2.7166393452478093"><ele>902.0</ele><time>2026-04-07T13:16:14.998Z</time></trkpt><trkpt lat="43.57219673339301" lon="2.7164878058056523"><ele>902.0</ele><time>2026-04-07T13:16:15.998Z</time></trkpt><trkpt lat="43.572362449374324" lon="2.7163396392626766"><ele>902.0</ele><time>2026-04-07T13:16:16.998Z</time></trkpt><trkpt lat="43.572524822462995" lon="2.716187322744472"><ele>902.0</ele><time>2026-04-07T13:16:17.998Z</time></trkpt><trkpt lat="43.57267935554859" lon="2.716034200228369"><ele>902.3333333333334</ele><time>2026-04-07T13:16:18.998Z</time></trkpt><trkpt lat="43.5728350352794" lon="2.7158830307828152"><ele>902.6666666666667</ele><time>2026-04-07T13:16:19.998Z</time></trkpt><trkpt lat="43.57298733613666" lon="2.7157321636101743"><ele>903.0</ele><time>2026-04-07T13:16:20.998Z</time></trkpt><trkpt lat="43.573139948993756" lon="2.7155879804876464"><ele>905.3333333333333</ele><time>2026-04-07T13:16:21.998Z</time></trkpt><trkpt lat="43.5732837382617" lon="2.715438887852678"><ele>907.6666666666666</ele><time>2026-04-07T13:16:22.998Z</time></trkpt><trkpt lat="43.573433898830345" lon="2.7152968296797493"><ele>910.0</ele><time>2026-04-07T13:16:23.998Z</time></trkpt><trkpt lat="43.573581718864844" lon="2.715157840678052"><ele>910.3333333333333</ele><time>2026-04-07T13:16:24.998Z</time></trkpt><trkpt lat="43.5737331202352" lon="2.7150129578296935"><ele>910.6666666666667</ele><time>2026-04-07T13:16:25.998Z</time></trkpt><trkpt lat="43.57388168935828" lon="2.714862153246219"><ele>911.0</ele><time>2026-04-07T13:16:26.998Z</time></trkpt><trkpt lat="43.574028333220426" lon="2.7147205941919426"><ele>911.0</ele><time>2026-04-07T13:16:27.998Z</time></trkpt><trkpt lat="43.57417817531661" lon="2.7145757482158297"><ele>911.0</ele><time>2026-04-07T13:16:28.998Z</time></trkpt><trkpt lat="43.5743275864902" lon="2.7144343012306664"><ele>911.0</ele><time>2026-04-07T13:16:29.998Z</time></trkpt><trkpt lat="43.574469834451236" lon="2.7142934513990533"><ele>910.6666666666667</ele><time>2026-04-07T13:16:30.998Z</time></trkpt><trkpt lat="43.57462453463162" lon="2.7141476513078993"><ele>910.3333333333333</ele><time>2026-04-07T13:16:31.998Z</time></trkpt><trkpt lat="43.57477599935026" lon="2.7140043872333535"><ele>910.0</ele><time>2026-04-07T13:16:32.998Z</time></trkpt><trkpt lat="43.574927043532746" lon="2.7138553826453307"><ele>910.0</ele><time>2026-04-07T13:16:33.998Z</time></trkpt><trkpt lat="43.57506506917738" lon="2.7137138616954752"><ele>910.0</ele><time>2026-04-07T13:16:34.998Z</time></trkpt><trkpt lat="43.57522009576801" lon="2.7135837984700815"><ele>910.0</ele><time>2026-04-07T13:16:35.998Z</time></trkpt><trkpt lat="43.57538857980002" lon="2.7134786103780324"><ele>908.6666666666666</ele><time>2026-04-07T13:16:37Z</time></trkpt><trkpt lat="43.57554677453019" lon="2.713344009950249"><ele>907.3333333333333</ele><time>2026-04-07T13:16:38Z</time></trkpt><trkpt lat="43.575708090216445" lon="2.713219551642198"><ele>906.0</ele><time>2026-04-07T13:16:39Z</time></trkpt><trkpt lat="43.57587144791151" lon="2.71310470811681"><ele>906.0</ele><time>2026-04-07T13:16:40Z</time></trkpt><trkpt lat="43.576026591950686" lon="2.7129937309875944"><ele>906.0</ele><time>2026-04-07T13:16:41Z</time></trkpt><trkpt lat="43.576184033277144" lon="2.712876317440967"><ele>906.0</ele><time>2026-04-07T13:16:42Z</time></trkpt><trkpt lat="43.57634105504909" lon="2.7127460128046046"><ele>903.0</ele><time>2026-04-07T13:16:43Z</time></trkpt><trkpt lat="43.576489859106935" lon="2.7126081919537186"><ele>900.0</ele><time>2026-04-07T13:16:44Z</time></trkpt><trkpt lat="43.57663015917253" lon="2.712456140177026"><ele>897.0</ele><time>2026-04-07T13:16:45Z</time></trkpt><trkpt lat="43.57676326566754" lon="2.712284973690916"><ele>897.0</ele><time>2026-04-07T13:16:46Z</time></trkpt><trkpt lat="43.576886282649426" lon="2.7121027428389213"><ele>897.0</ele><time>2026-04-07T13:16:47Z</time></trkpt><trkpt lat="43.577004927059434" lon="2.7119157590964664"><ele>897.0</ele><time>2026-04-07T13:16:48Z</time></trkpt><trkpt lat="43.577122858129044" lon="2.7117281582878845"><ele>898.0</ele><time>2026-04-07T13:16:49Z</time></trkpt><trkpt lat="43.577244443263965" lon="2.7115476832358527"><ele>899.0</ele><time>2026-04-07T13:16:50Z</time></trkpt><trkpt lat="43.577364646123144" lon="2.711360490875245"><ele>900.0</ele><time>2026-04-07T13:16:51Z</time></trkpt><trkpt lat="43.57748505049407" lon="2.711174904718368"><ele>898.6666666666667</ele><time>2026-04-07T13:16:52Z</time></trkpt><trkpt lat="43.5776051123956" lon="2.710987283178275"><ele>897.3333333333334</ele><time>2026-04-07T13:16:53Z</time></trkpt><trkpt lat="43.577724684520916" lon="2.710798234306104"><ele>896.0</ele><time>2026-04-07T13:16:54Z</time></trkpt><trkpt lat="43.57784299186797" lon="2.7106092536957"><ele>896.3333333333334</ele><time>2026-04-07T13:16:55Z</time></trkpt><trkpt lat="43.57795836305466" lon="2.710427103506554"><ele>896.6666666666667</ele><time>2026-04-07T13:16:56Z</time></trkpt><trkpt lat="43.57807111114908" lon="2.7102473075369313"><ele>897.0</ele><time>2026-04-07T13:16:57Z</time></trkpt><trkpt lat="43.57817924723705" lon="2.7100599879245344"><ele>897.0</ele><time>2026-04-07T13:16:58Z</time></trkpt><trkpt lat="43.57827228964483" lon="2.7098622724887016"><ele>897.0</ele><time>2026-04-07T13:16:59Z</time></trkpt><trkpt lat="43.57835513733806" lon="2.709647006842833"><ele>897.0</ele><time>2026-04-07T13:17:00Z</time></trkpt><trkpt lat="43.578430711281655" lon="2.709424468377918"><ele>895.3333333333333</ele><time>2026-04-07T13:17:01Z</time></trkpt><trkpt lat="43.5785102321483" lon="2.709205276376287"><ele>893.6666666666666</ele><time>2026-04-07T13:17:02Z</time></trkpt><trkpt lat="43.57859198093798" lon="2.7089765910772683"><ele>892.0</ele><time>2026-04-07T13:17:03Z</time></trkpt><trkpt lat="43.57868195227924" lon="2.708758735491821"><ele>893.6666666666666</ele><time>2026-04-07T13:17:04Z</time></trkpt><trkpt lat="43.578787619307235" lon="2.708556542752812"><ele>895.3333333333333</ele><time>2026-04-07T13:17:05Z</time></trkpt><trkpt lat="43.57890832431133" lon="2.7083650813492324"><ele>897.0</ele><time>2026-04-07T13:17:06Z</time></trkpt><trkpt lat="43.57904055447089" lon="2.708193465496781"><ele>897.0</ele><time>2026-04-07T13:17:07Z</time></trkpt><trkpt lat="43.57918211606103" lon="2.7080391336720537"><ele>897.0</ele><time>2026-04-07T13:17:08Z</time></trkpt><trkpt lat="43.57932672826323" lon="2.707884312744906"><ele>897.0</ele><time>2026-04-07T13:17:09Z</time></trkpt><trkpt lat="43.57947468237646" lon="2.7077248338910493"><ele>898.3333333333333</ele><time>2026-04-07T13:17:10Z</time></trkpt><trkpt lat="43.57961299249583" lon="2.707556073778249"><ele>899.6666666666666</ele><time>2026-04-07T13:17:11Z</time></trkpt><trkpt lat="43.579756121681896" lon="2.707400675919573"><ele>901.0</ele><time>2026-04-07T13:17:12Z</time></trkpt><trkpt lat="43.57990266086121" lon="2.707244236087715"><ele>901.0</ele><time>2026-04-07T13:17:13Z</time></trkpt><trkpt lat="43.58004613871199" lon="2.7070897231156956"><ele>901.0</ele><time>2026-04-07T13:17:14Z</time></trkpt><trkpt lat="43.58019057450693" lon="2.706931200111587"><ele>901.0</ele><time>2026-04-07T13:17:15Z</time></trkpt><trkpt lat="43.58033529483756" lon="2.7067705086762928"><ele>900.3333333333333</ele><time>2026-04-07T13:17:15.999Z</time></trkpt><trkpt lat="43.58047628357044" lon="2.7066067866778702"><ele>899.6666666666667</ele><time>2026-04-07T13:17:16.999Z</time></trkpt><trkpt lat="43.58061040990322" lon="2.7064280032972046"><ele>899.0</ele><time>2026-04-07T13:17:17.999Z</time></trkpt><trkpt lat="43.580729750903124" lon="2.7062426868661977"><ele>898.0</ele><time>2026-04-07T13:17:18.999Z</time></trkpt><trkpt lat="43.58084265896968" lon="2.7060593770422634"><ele>897.0</ele><time>2026-04-07T13:17:19.999Z</time></trkpt><trkpt lat="43.58095071382677" lon="2.7058665623592346"><ele>896.0</ele><time>2026-04-07T13:17:20.999Z</time></trkpt><trkpt lat="43.581065728084994" lon="2.705673620565735"><ele>897.3333333333334</ele><time>2026-04-07T13:17:21.999Z</time></trkpt><trkpt lat="43.58118698450342" lon="2.705487270647856"><ele>898.6666666666667</ele><time>2026-04-07T13:17:22.999Z</time></trkpt><trkpt lat="43.58131664085623" lon="2.705315178220525"><ele>900.0</ele><time>2026-04-07T13:17:23.999Z</time></trkpt><trkpt lat="43.58145923243745" lon="2.705142010897893"><ele>897.3333333333333</ele><time>2026-04-07T13:17:24.999Z</time></trkpt><trkpt lat="43.58161397572197" lon="2.7050026710730966"><ele>894.6666666666666</ele><time>2026-04-07T13:17:25.999Z</time></trkpt><trkpt lat="43.58177222211003" lon="2.704879383564434"><ele>892.0</ele><time>2026-04-07T13:17:26.999Z</time></trkpt><trkpt lat="43.58193932399473" lon="2.7047719768935496"><ele>891.6666666666666</ele><time>2026-04-07T13:17:27.999Z</time></trkpt><trkpt lat="43.58211607410832" lon="2.704683831668661"><ele>891.3333333333333</ele><time>2026-04-07T13:17:28.999Z</time></trkpt><trkpt lat="43.58229613461199" lon="2.70460803298729"><ele>891.0</ele><time>2026-04-07T13:17:29.999Z</time></trkpt><trkpt lat="43.582483293126316" lon="2.7045629577212886"><ele>891.0</ele><time>2026-04-07T13:17:30.999Z</time></trkpt><trkpt lat="43.58267433569608" lon="2.7045186260176037"><ele>891.0</ele><time>2026-04-07T13:17:31.999Z</time></trkpt><trkpt lat="43.58286752356881" lon="2.704477019286743"><ele>891.0</ele><time>2026-04-07T13:17:32.999Z</time></trkpt><trkpt lat="43.583059307932054" lon="2.704437241427857"><ele>887.3333333333333</ele><time>2026-04-07T13:17:33.999Z</time></trkpt><trkpt lat="43.58325341394726" lon="2.7043910015155874"><ele>883.6666666666666</ele><time>2026-04-07T13:17:34.999Z</time></trkpt><trkpt lat="43.58343916717406" lon="2.7043488278772303"><ele>880.0</ele><time>2026-04-07T13:17:35.999Z</time></trkpt><trkpt lat="43.58363416087148" lon="2.7043042527439796"><ele>879.3333333333333</ele><time>2026-04-07T13:17:36.999Z</time></trkpt><trkpt lat="43.5838274094497" lon="2.7042612335478893"><ele>878.6666666666667</ele><time>2026-04-07T13:17:37.999Z</time></trkpt><trkpt lat="43.58401705331763" lon="2.704220024292578"><ele>878.0</ele><time>2026-04-07T13:17:38.999Z</time></trkpt><trkpt lat="43.58420052809574" lon="2.704173889308461"><ele>878.0</ele><time>2026-04-07T13:17:39.999Z</time></trkpt><trkpt lat="43.58438060991008" lon="2.704113109249706"><ele>878.0</ele><time>2026-04-07T13:17:40.999Z</time></trkpt><trkpt lat="43.58455466675881" lon="2.704033689557077"><ele>878.0</ele><time>2026-04-07T13:17:41.999Z</time></trkpt><trkpt lat="43.584728041966045" lon="2.7039328664667317"><ele>877.6666666666667</ele><time>2026-04-07T13:17:42.999Z</time></trkpt><trkpt lat="43.58488878664405" lon="2.703816877078007"><ele>877.3333333333333</ele><time>2026-04-07T13:17:43.999Z</time></trkpt><trkpt lat="43.585044550074585" lon="2.7036872991534118"><ele>877.0</ele><time>2026-04-07T13:17:44.999Z</time></trkpt><trkpt lat="43.5851977496049" lon="2.7035547645503297"><ele>875.6666666666666</ele><time>2026-04-07T13:17:45.999Z</time></trkpt><trkpt lat="43.58535689077564" lon="2.703416919108135"><ele>874.3333333333333</ele><time>2026-04-07T13:17:46.999Z</time></trkpt><trkpt lat="43.585510752340326" lon="2.7032760922076857"><ele>873.0</ele><time>2026-04-07T13:17:47.999Z</time></trkpt><trkpt lat="43.58567253583664" lon="2.7031427622271105"><ele>873.0</ele><time>2026-04-07T13:17:48.999Z</time></trkpt><trkpt lat="43.58585526537709" lon="2.7030537444943863"><ele>873.0</ele><time>2026-04-07T13:17:49.999Z</time></trkpt><trkpt lat="43.586053147980564" lon="2.703011932240334"><ele>873.0</ele><time>2026-04-07T13:17:50.999Z</time></trkpt><trkpt lat="43.586256283242314" lon="2.703014829568427"><ele>872.6666666666667</ele><time>2026-04-07T13:17:51.999Z</time></trkpt><trkpt lat="43.58645919966774" lon="2.703066469862917"><ele>872.3333333333334</ele><time>2026-04-07T13:17:52.999Z</time></trkpt><trkpt lat="43.58665922814083" lon="2.703151122360162"><ele>872.0</ele><time>2026-04-07T13:17:53.999Z</time></trkpt><trkpt lat="43.586858932914424" lon="2.703233761155369"><ele>870.6666666666667</ele><time>2026-04-07T13:17:54.999Z</time></trkpt><trkpt lat="43.58705907980521" lon="2.7033140172183074"><ele>869.3333333333333</ele><time>2026-04-07T13:17:55.999Z</time></trkpt><trkpt lat="43.58725142631573" lon="2.7033808177273766"><ele>868.0</ele><time>2026-04-07T13:17:56.999Z</time></trkpt><trkpt lat="43.58742945322655" lon="2.7034490724049838"><ele>868.0</ele><time>2026-04-07T13:17:57.999Z</time></trkpt><trkpt lat="43.58760705509705" lon="2.7035169669122694"><ele>868.0</ele><time>2026-04-07T13:17:58.999Z</time></trkpt><trkpt lat="43.587766856242105" lon="2.7035834919547863"><ele>868.0</ele><time>2026-04-07T13:17:59.999Z</time></trkpt><trkpt lat="43.587944083787065" lon="2.703638029676969"><ele>868.3333333333333</ele><time>2026-04-07T13:18:00.998Z</time></trkpt><trkpt lat="43.588116487343484" lon="2.7036869979460785"><ele>868.6666666666667</ele><time>2026-04-07T13:18:01.998Z</time></trkpt><trkpt lat="43.58828846349348" lon="2.7037308831394693"><ele>869.0</ele><time>2026-04-07T13:18:02.998Z</time></trkpt><trkpt lat="43.58845822392338" lon="2.703760455067288"><ele>869.0</ele><time>2026-04-07T13:18:03.998Z</time></trkpt><trkpt lat="43.58863063312478" lon="2.703766529818737"><ele>869.0</ele><time>2026-04-07T13:18:04.998Z</time></trkpt><trkpt lat="43.588802888426756" lon="2.703739453049519"><ele>869.0</ele><time>2026-04-07T13:18:05.998Z</time></trkpt><trkpt lat="43.58898130912537" lon="2.7036988448962824"><ele>867.3333333333334</ele><time>2026-04-07T13:18:06.998Z</time></trkpt><trkpt lat="43.5891514570708" lon="2.7036307520119434"><ele>865.6666666666667</ele><time>2026-04-07T13:18:07.998Z</time></trkpt><trkpt lat="43.58931459226179" lon="2.703518077592041"><ele>864.0</ele><time>2026-04-07T13:18:08.998Z</time></trkpt><trkpt lat="43.58947389442226" lon="2.703386214259822"><ele>865.3333333333333</ele><time>2026-04-07T13:18:09.998Z</time></trkpt><trkpt lat="43.58962472842061" lon="2.703238922876095"><ele>866.6666666666666</ele><time>2026-04-07T13:18:10.998Z</time></trkpt><trkpt lat="43.589765427004366" lon="2.7030627850268303"><ele>868.0</ele><time>2026-04-07T13:18:11.998Z</time></trkpt><trkpt lat="43.58988207455517" lon="2.702844758475585"><ele>864.6666666666666</ele><time>2026-04-07T13:18:12.998Z</time></trkpt><trkpt lat="43.58998901866995" lon="2.7026201552738303"><ele>861.3333333333333</ele><time>2026-04-07T13:18:13.998Z</time></trkpt><trkpt lat="43.59007765995682" lon="2.702377893816281"><ele>858.0</ele><time>2026-04-07T13:18:14.998Z</time></trkpt><trkpt lat="43.59013781123332" lon="2.7021245817651907"><ele>856.6666666666667</ele><time>2026-04-07T13:18:15.998Z</time></trkpt><trkpt lat="43.59019482911658" lon="2.7018653631730665"><ele>855.3333333333334</ele><time>2026-04-07T13:18:16.998Z</time></trkpt><trkpt lat="43.59025950718726" lon="2.7016280429544635"><ele>854.0</ele><time>2026-04-07T13:18:17.998Z</time></trkpt><trkpt lat="43.59036066892942" lon="2.701398878255908"><ele>853.6666666666667</ele><time>2026-04-07T13:18:18.998Z</time></trkpt><trkpt lat="43.59046743843867" lon="2.7011713544127818"><ele>853.3333333333333</ele><time>2026-04-07T13:18:19.998Z</time></trkpt><trkpt lat="43.590612915204886" lon="2.700986146328398"><ele>853.0</ele><time>2026-04-07T13:18:20.998Z</time></trkpt><trkpt lat="43.59077808192366" lon="2.700821089162363"><ele>853.0</ele><time>2026-04-07T13:18:21.998Z</time></trkpt><trkpt lat="43.59095103271038" lon="2.7006855988791356"><ele>853.0</ele><time>2026-04-07T13:18:22.998Z</time></trkpt><trkpt lat="43.59113588767611" lon="2.70055445203217"><ele>853.0</ele><time>2026-04-07T13:18:23.998Z</time></trkpt><trkpt lat="43.59132197542622" lon="2.7004361084185895"><ele>853.0</ele><time>2026-04-07T13:18:24.998Z</time></trkpt><trkpt lat="43.59150163990211" lon="2.700305523277508"><ele>853.0</ele><time>2026-04-07T13:18:25.998Z</time></trkpt><trkpt lat="43.591678158697846" lon="2.7001740772817966"><ele>853.0</ele><time>2026-04-07T13:18:26.998Z</time></trkpt><trkpt lat="43.59186807510608" lon="2.70003267826187"><ele>852.6666666666666</ele><time>2026-04-07T13:18:27.998Z</time></trkpt><trkpt lat="43.59205377061005" lon="2.6998960246483974"><ele>852.3333333333333</ele><time>2026-04-07T13:18:28.998Z</time></trkpt><trkpt lat="43.59222873404234" lon="2.699763405710064"><ele>852.0</ele><time>2026-04-07T13:18:29.998Z</time></trkpt><trkpt lat="43.592401442311626" lon="2.6996303352258955"><ele>852.0</ele><time>2026-04-07T13:18:30.998Z</time></trkpt><trkpt lat="43.59257492104203" lon="2.699509309138502"><ele>852.0</ele><time>2026-04-07T13:18:31.998Z</time></trkpt><trkpt lat="43.592771485660855" lon="2.6994330202085526"><ele>852.0</ele><time>2026-04-07T13:18:32.998Z</time></trkpt><trkpt lat="43.59297950708862" lon="2.699367842233324"><ele>845.0</ele><time>2026-04-07T13:18:33.998Z</time></trkpt><trkpt lat="43.59315213468053" lon="2.699337151884986"><ele>838.0</ele><time>2026-04-07T13:18:34.998Z</time></trkpt><trkpt lat="43.59334158835034" lon="2.6993195502559013"><ele>831.0</ele><time>2026-04-07T13:18:35.998Z</time></trkpt><trkpt lat="43.59354924788394" lon="2.699294931368228"><ele>830.6666666666667</ele><time>2026-04-07T13:18:36.998Z</time></trkpt><trkpt lat="43.593741679021164" lon="2.6992262159966596"><ele>830.3333333333334</ele><time>2026-04-07T13:18:37.998Z</time></trkpt><trkpt lat="43.59393595885385" lon="2.6991739012477844"><ele>830.0</ele><time>2026-04-07T13:18:38.998Z</time></trkpt><trkpt lat="43.594134015055296" lon="2.6990416217475985"><ele>830.0</ele><time>2026-04-07T13:18:39.998Z</time></trkpt><trkpt lat="43.59431091339359" lon="2.698901946651938"><ele>830.0</ele><time>2026-04-07T13:18:40.998Z</time></trkpt><trkpt lat="43.594481431270665" lon="2.698762318069508"><ele>830.0</ele><time>2026-04-07T13:18:41.998Z</time></trkpt><trkpt lat="43.594650364435225" lon="2.6986239870707505"><ele>825.0</ele><time>2026-04-07T13:18:43Z</time></trkpt><trkpt lat="43.59481253781857" lon="2.6984831365694273"><ele>820.0</ele><time>2026-04-07T13:18:44Z</time></trkpt><trkpt lat="43.59496386810278" lon="2.6983206422803288"><ele>815.0</ele><time>2026-04-07T13:18:45Z</time></trkpt><trkpt lat="43.59512455464589" lon="2.6981891957606927"><ele>815.0</ele><time>2026-04-07T13:18:46Z</time></trkpt><trkpt lat="43.595274918289185" lon="2.698049696764532"><ele>815.0</ele><time>2026-04-07T13:18:47Z</time></trkpt><trkpt lat="43.59540963484723" lon="2.69793543472342"><ele>815.0</ele><time>2026-04-07T13:18:48Z</time></trkpt><trkpt lat="43.59554202352466" lon="2.6978361779484543"><ele>814.6666666666667</ele><time>2026-04-07T13:18:49Z</time></trkpt><trkpt lat="43.59569536057839" lon="2.69780397869025"><ele>814.3333333333333</ele><time>2026-04-07T13:18:50Z</time></trkpt><trkpt lat="43.59585192797668" lon="2.697820520358025"><ele>814.0</ele><time>2026-04-07T13:18:51Z</time></trkpt><trkpt lat="43.59600629653046" lon="2.6978981399368958"><ele>814.0</ele><time>2026-04-07T13:18:52Z</time></trkpt><trkpt lat="43.596151152389034" lon="2.6980201431160755"><ele>814.0</ele><time>2026-04-07T13:18:53Z</time></trkpt><trkpt lat="43.59625174128974" lon="2.6981909886593027"><ele>814.0</ele><time>2026-04-07T13:18:54Z</time></trkpt><trkpt lat="43.596307022848066" lon="2.6984146646567706"><ele>809.0</ele><time>2026-04-07T13:18:55Z</time></trkpt><trkpt lat="43.596324267367635" lon="2.698654670731136"><ele>804.0</ele><time>2026-04-07T13:18:56Z</time></trkpt><trkpt lat="43.596333202415934" lon="2.698906545391478"><ele>799.0</ele><time>2026-04-07T13:18:57Z</time></trkpt><trkpt lat="43.596351569715225" lon="2.6991599083089866"><ele>799.0</ele><time>2026-04-07T13:18:58Z</time></trkpt><trkpt lat="43.596371830024246" lon="2.699416482765085"><ele>799.0</ele><time>2026-04-07T13:18:59Z</time></trkpt><trkpt lat="43.59638985360842" lon="2.699667996489908"><ele>799.0</ele><time>2026-04-07T13:19:00Z</time></trkpt><trkpt lat="43.596394031740964" lon="2.699911116232046"><ele>798.0</ele><time>2026-04-07T13:19:01Z</time></trkpt><trkpt lat="43.59635351431172" lon="2.700145879274426"><ele>797.0</ele><time>2026-04-07T13:19:02Z</time></trkpt><trkpt lat="43.59629174141408" lon="2.700380319581719"><ele>796.0</ele><time>2026-04-07T13:19:03Z</time></trkpt><trkpt lat="43.59623824370106" lon="2.700598355426613"><ele>793.3333333333333</ele><time>2026-04-07T13:19:04Z</time></trkpt><trkpt lat="43.59620832741889" lon="2.700815387316078"><ele>790.6666666666667</ele><time>2026-04-07T13:19:05Z</time></trkpt><trkpt lat="43.59616495442147" lon="2.701028471935909"><ele>788.0</ele><time>2026-04-07T13:19:06Z</time></trkpt><trkpt lat="43.59618466702455" lon="2.701270102315641"><ele>793.3333333333334</ele><time>2026-04-07T13:19:07Z</time></trkpt><trkpt lat="43.59614274329764" lon="2.7014747266358055"><ele>798.6666666666667</ele><time>2026-04-07T13:19:08Z</time></trkpt><trkpt lat="43.59610273327119" lon="2.701688578510529"><ele>804.0</ele><time>2026-04-07T13:19:09Z</time></trkpt><trkpt lat="43.59605044559634" lon="2.7018948270658507"><ele>800.25</ele><time>2026-04-07T13:19:10Z</time></trkpt><trkpt lat="43.59599696598622" lon="2.7021031293598794"><ele>796.5</ele><time>2026-04-07T13:19:11Z</time></trkpt><trkpt lat="43.59594753087122" lon="2.7022880941507106"><ele>792.75</ele><time>2026-04-07T13:19:12Z</time></trkpt><trkpt lat="43.59585870667318" lon="2.7024473974934833"><ele>789.0</ele><time>2026-04-07T13:19:13Z</time></trkpt><trkpt lat="43.595757466357846" lon="2.7025786365530555"><ele>789.0</ele><time>2026-04-07T13:19:14Z</time></trkpt><trkpt lat="43.595661755534465" lon="2.702723304124823"><ele>789.0</ele><time>2026-04-07T13:19:15Z</time></trkpt><trkpt lat="43.59552868502925" lon="2.7028532500884905"><ele>789.0</ele><time>2026-04-07T13:19:16Z</time></trkpt><trkpt lat="43.59545605905746" lon="2.7029498020660907"><ele>789.0</ele><time>2026-04-07T13:19:17Z</time></trkpt><trkpt lat="43.59544080264445" lon="2.7030559065894124"><ele>785.4000000000001</ele><time>2026-04-07T13:19:18Z</time></trkpt><trkpt lat="43.59547379367336" lon="2.7031669236377938"><ele>781.8</ele><time>2026-04-07T13:19:19Z</time></trkpt><trkpt lat="43.59554738987196" lon="2.7032523682011305"><ele>778.2</ele><time>2026-04-07T13:19:19.999Z</time></trkpt><trkpt lat="43.595644265966754" lon="2.7032895455959536"><ele>774.5999999999999</ele><time>2026-04-07T13:19:20.999Z</time></trkpt><trkpt lat="43.59576816900692" lon="2.703223052638796"><ele>771.0</ele><time>2026-04-07T13:19:21.999Z</time></trkpt><trkpt lat="43.595887267584196" lon="2.7030950426590685"><ele>771.0</ele><time>2026-04-07T13:19:22.999Z</time></trkpt><trkpt lat="43.59598941660609" lon="2.7029227293992206"><ele>771.0</ele><time>2026-04-07T13:19:23.999Z</time></trkpt><trkpt lat="43.596062038545774" lon="2.7027514730354816"><ele>771.0</ele><time>2026-04-07T13:19:24.999Z</time></trkpt><trkpt lat="43.59613519472439" lon="2.7025748663419082"><ele>767.0</ele><time>2026-04-07T13:19:25.999Z</time></trkpt><trkpt lat="43.59621149568499" lon="2.702391575237724"><ele>763.0</ele><time>2026-04-07T13:19:26.999Z</time></trkpt><trkpt lat="43.59630436838301" lon="2.702232729282953"><ele>759.0</ele><time>2026-04-07T13:19:27.999Z</time></trkpt><trkpt lat="43.596424947847744" lon="2.7020956262816167"><ele>759.0</ele><time>2026-04-07T13:19:28.999Z</time></trkpt><trkpt lat="43.596568855015704" lon="2.701976604171323"><ele>759.0</ele><time>2026-04-07T13:19:29.999Z</time></trkpt><trkpt lat="43.596708801455954" lon="2.7018836762086273"><ele>759.0</ele><time>2026-04-07T13:19:30.999Z</time></trkpt><trkpt lat="43.596847759106446" lon="2.701790812928886"><ele>756.3333333333334</ele><time>2026-04-07T13:19:31.999Z</time></trkpt><trkpt lat="43.59698271565781" lon="2.7016730706035395"><ele>753.6666666666667</ele><time>2026-04-07T13:19:32.999Z</time></trkpt><trkpt lat="43.597102045584286" lon="2.701530844517558"><ele>751.0</ele><time>2026-04-07T13:19:33.999Z</time></trkpt><trkpt lat="43.59720417588226" lon="2.7013369470652444"><ele>751.0</ele><time>2026-04-07T13:19:34.999Z</time></trkpt><trkpt lat="43.59728170124341" lon="2.701128373721237"><ele>751.0</ele><time>2026-04-07T13:19:35.999Z</time></trkpt><trkpt lat="43.59735060884877" lon="2.7009096699537682"><ele>751.0</ele><time>2026-04-07T13:19:36.999Z</time></trkpt><trkpt lat="43.59742507654666" lon="2.700704409357687"><ele>754.3333333333334</ele><time>2026-04-07T13:19:37.999Z</time></trkpt><trkpt lat="43.59748878678818" lon="2.7004901812919875"><ele>757.6666666666666</ele><time>2026-04-07T13:19:38.999Z</time></trkpt><trkpt lat="43.5975432673518" lon="2.7003013929435182"><ele>761.0</ele><time>2026-04-07T13:19:39.999Z</time></trkpt><trkpt lat="43.59762001646565" lon="2.7001050222312366"><ele>763.6666666666666</ele><time>2026-04-07T13:19:40.999Z</time></trkpt><trkpt lat="43.59769202617483" lon="2.6999108752763563"><ele>766.3333333333333</ele><time>2026-04-07T13:19:41.999Z</time></trkpt><trkpt lat="43.59778133470732" lon="2.699737135967941"><ele>769.0</ele><time>2026-04-07T13:19:42.999Z</time></trkpt><trkpt lat="43.59787335404374" lon="2.69957127922476"><ele>759.0</ele><time>2026-04-07T13:19:43.999Z</time></trkpt><trkpt lat="43.59796890042557" lon="2.699389445478595"><ele>749.0</ele><time>2026-04-07T13:19:44.999Z</time></trkpt><trkpt lat="43.59808397281275" lon="2.6992271063709414"><ele>739.0</ele><time>2026-04-07T13:19:45.999Z</time></trkpt><trkpt lat="43.59817001080092" lon="2.6990352609734467"><ele>739.0</ele><time>2026-04-07T13:19:46.999Z</time></trkpt><trkpt lat="43.59827729232139" lon="2.6988500264893394"><ele>739.0</ele><time>2026-04-07T13:19:47.999Z</time></trkpt><trkpt lat="43.59835138271187" lon="2.6986580944126333"><ele>739.0</ele><time>2026-04-07T13:19:48.999Z</time></trkpt><trkpt lat="43.59841559135892" lon="2.6984548662635564"><ele>743.0</ele><time>2026-04-07T13:19:49.999Z</time></trkpt><trkpt lat="43.59846438994832" lon="2.698256564253536"><ele>747.0</ele><time>2026-04-07T13:19:50.999Z</time></trkpt><trkpt lat="43.59852884022177" lon="2.6980854177409705"><ele>751.0</ele><time>2026-04-07T13:19:51.999Z</time></trkpt><trkpt lat="43.59857727691033" lon="2.6979364442457023"><ele>755.0</ele><time>2026-04-07T13:19:52.999Z</time></trkpt><trkpt lat="43.59863546420159" lon="2.6978234234813647"><ele>747.75</ele><time>2026-04-07T13:19:53.999Z</time></trkpt><trkpt lat="43.59869948934453" lon="2.697782825395551"><ele>740.5</ele><time>2026-04-07T13:19:54.999Z</time></trkpt><trkpt lat="43.5988336327597" lon="2.6978799255277433"><ele>733.25</ele><time>2026-04-07T13:19:56.999Z</time></trkpt><trkpt lat="43.598862361245644" lon="2.6980517677691602"><ele>726.0</ele><time>2026-04-07T13:19:57.999Z</time></trkpt><trkpt lat="43.598811684749855" lon="2.698228503369381"><ele>726.0</ele><time>2026-04-07T13:19:58.999Z</time></trkpt><trkpt lat="43.598763222374814" lon="2.6984151206405405"><ele>726.0</ele><time>2026-04-07T13:19:59.999Z</time></trkpt><trkpt lat="43.598667548694074" lon="2.698589671452758"><ele>726.0</ele><time>2026-04-07T13:20:00.999Z</time></trkpt><trkpt lat="43.598607540080444" lon="2.6988042032206496"><ele>725.6666666666666</ele><time>2026-04-07T13:20:01.999Z</time></trkpt><trkpt lat="43.598530016380955" lon="2.699050074931624"><ele>725.3333333333333</ele><time>2026-04-07T13:20:02.999Z</time></trkpt><trkpt lat="43.59848517202612" lon="2.6992886841474815"><ele>725.0</ele><time>2026-04-07T13:20:03.999Z</time></trkpt><trkpt lat="43.59842656664898" lon="2.699505251592606"><ele>725.0</ele><time>2026-04-07T13:20:04.998Z</time></trkpt><trkpt lat="43.59837115574987" lon="2.6997283755850052"><ele>725.0</ele><time>2026-04-07T13:20:05.998Z</time></trkpt><trkpt lat="43.598312799536764" lon="2.699933995068731"><ele>725.0</ele><time>2026-04-07T13:20:06.998Z</time></trkpt><trkpt lat="43.59826270575633" lon="2.7001344573956256"><ele>721.6666666666666</ele><time>2026-04-07T13:20:07.998Z</time></trkpt><trkpt lat="43.598209586133926" lon="2.700340211049391"><ele>718.3333333333334</ele><time>2026-04-07T13:20:08.998Z</time></trkpt><trkpt lat="43.59815755841164" lon="2.7005380324912047"><ele>715.0</ele><time>2026-04-07T13:20:09.998Z</time></trkpt><trkpt lat="43.59808900920506" lon="2.700721927904816"><ele>715.0</ele><time>2026-04-07T13:20:10.998Z</time></trkpt><trkpt lat="43.598022693154206" lon="2.700911685115053"><ele>715.0</ele><time>2026-04-07T13:20:11.998Z</time></trkpt><trkpt lat="43.5979739073052" lon="2.7011294078764756"><ele>715.0</ele><time>2026-04-07T13:20:12.998Z</time></trkpt><trkpt lat="43.597931452309076" lon="2.701367754080201"><ele>710.6666666666667</ele><time>2026-04-07T13:20:13.998Z</time></trkpt><trkpt lat="43.59791944919616" lon="2.701620803797222"><ele>706.3333333333334</ele><time>2026-04-07T13:20:14.998Z</time></trkpt><trkpt lat="43.597919937412094" lon="2.7018642927921905"><ele>702.0</ele><time>2026-04-07T13:20:15.998Z</time></trkpt><trkpt lat="43.59793113399652" lon="2.7020941179049696"><ele>700.3333333333334</ele><time>2026-04-07T13:20:16.998Z</time></trkpt><trkpt lat="43.59795273662704" lon="2.7023350828479775"><ele>698.6666666666667</ele><time>2026-04-07T13:20:17.998Z</time></trkpt><trkpt lat="43.597973517201865" lon="2.7025564566178986"><ele>697.0</ele><time>2026-04-07T13:20:18.998Z</time></trkpt><trkpt lat="43.597990349795786" lon="2.7027764347707643"><ele>696.75</ele><time>2026-04-07T13:20:19.998Z</time></trkpt><trkpt lat="43.59797995613697" lon="2.70298792778795"><ele>696.5</ele><time>2026-04-07T13:20:20.998Z</time></trkpt><trkpt lat="43.59794289352657" lon="2.703176848991284"><ele>696.25</ele><time>2026-04-07T13:20:21.998Z</time></trkpt><trkpt lat="43.59791874648813" lon="2.703345215405614"><ele>696.0</ele><time>2026-04-07T13:20:22.998Z</time></trkpt><trkpt lat="43.59792342954926" lon="2.703483975019557"><ele>696.0</ele><time>2026-04-07T13:20:23.998Z</time></trkpt><trkpt lat="43.59797178744868" lon="2.7035752921604286"><ele>696.0</ele><time>2026-04-07T13:20:24.998Z</time></trkpt><trkpt lat="43.598061263038325" lon="2.7036113664242345"><ele>696.0</ele><time>2026-04-07T13:20:25.998Z</time></trkpt><trkpt lat="43.59815451566919" lon="2.7035846190459702"><ele>696.0</ele><time>2026-04-07T13:20:26.998Z</time></trkpt><trkpt lat="43.598228768426935" lon="2.703473467205855"><ele>696.0</ele><time>2026-04-07T13:20:27.998Z</time></trkpt><trkpt lat="43.59825267602463" lon="2.703313428209667"><ele>696.0</ele><time>2026-04-07T13:20:28.998Z</time></trkpt><trkpt lat="43.598249259859" lon="2.70312728479083"><ele>696.0</ele><time>2026-04-07T13:20:29.998Z</time></trkpt><trkpt lat="43.59826253559337" lon="2.7029330306068227"><ele>696.0</ele><time>2026-04-07T13:20:30.998Z</time></trkpt><trkpt lat="43.59825175179762" lon="2.7027457810216435"><ele>696.0</ele><time>2026-04-07T13:20:31.998Z</time></trkpt><trkpt lat="43.59823699555585" lon="2.7025718231409366"><ele>696.1999999999999</ele><time>2026-04-07T13:20:32.998Z</time></trkpt><trkpt lat="43.59822795596057" lon="2.7024227727409045"><ele>696.4</ele><time>2026-04-07T13:20:33.998Z</time></trkpt><trkpt lat="43.598225963821115" lon="2.7022878396281205"><ele>696.6</ele><time>2026-04-07T13:20:34.998Z</time></trkpt><trkpt lat="43.59823088859433" lon="2.702160372585443"><ele>696.8</ele><time>2026-04-07T13:20:35.998Z</time></trkpt><trkpt lat="43.59824231694443" lon="2.7020321394604494"><ele>697.0</ele><time>2026-04-07T13:20:36.998Z</time></trkpt><trkpt lat="43.598245302550254" lon="2.7019020830898794"><ele>697.8333333333334</ele><time>2026-04-07T13:20:37.998Z</time></trkpt><trkpt lat="43.59826650144917" lon="2.701775729534217"><ele>698.6666666666667</ele><time>2026-04-07T13:20:38.998Z</time></trkpt><trkpt lat="43.59828897189266" lon="2.7016615407153783"><ele>699.5</ele><time>2026-04-07T13:20:39.998Z</time></trkpt><trkpt lat="43.59831082194094" lon="2.7015415655400656"><ele>700.3333333333334</ele><time>2026-04-07T13:20:40.998Z</time></trkpt><trkpt lat="43.5983362535222" lon="2.7014297189329812"><ele>701.1666666666666</ele><time>2026-04-07T13:20:41.998Z</time></trkpt><trkpt lat="43.598355850165106" lon="2.7013338326853042"><ele>702.0</ele><time>2026-04-07T13:20:42.998Z</time></trkpt><trkpt lat="43.598385866428664" lon="2.701251501342779"><ele>702.0</ele><time>2026-04-07T13:20:43.998Z</time></trkpt><trkpt lat="43.59842168600615" lon="2.7011698736474306"><ele>702.0</ele><time>2026-04-07T13:20:44.998Z</time></trkpt><trkpt lat="43.598486324243524" lon="2.70111008836884"><ele>702.0</ele><time>2026-04-07T13:20:45.998Z</time></trkpt><trkpt lat="43.598560199673" lon="2.7010935851391076"><ele>702.0</ele><time>2026-04-07T13:20:46.998Z</time></trkpt><trkpt lat="43.59866476023198" lon="2.7011807789983373"><ele>702.0</ele><time>2026-04-07T13:20:47.998Z</time></trkpt><trkpt lat="43.598723310111865" lon="2.7012502727793364"><ele>702.0</ele><time>2026-04-07T13:20:49Z</time></trkpt><trkpt lat="43.598790552817086" lon="2.701299692434809"><ele>700.2857142857143</ele><time>2026-04-07T13:20:50Z</time></trkpt><trkpt lat="43.598850338215975" lon="2.701342216182441"><ele>698.5714285714286</ele><time>2026-04-07T13:20:51Z</time></trkpt><trkpt lat="43.59891302461742" lon="2.701387304243151"><ele>696.8571428571429</ele><time>2026-04-07T13:20:52Z</time></trkpt><trkpt lat="43.5989766975091" lon="2.701432877298563"><ele>695.1428571428571</ele><time>2026-04-07T13:20:53Z</time></trkpt><trkpt lat="43.59904510723365" lon="2.701477541048582"><ele>693.4285714285714</ele><time>2026-04-07T13:20:54Z</time></trkpt><trkpt lat="43.59911341935131" lon="2.701524261243243"><ele>691.7142857142858</ele><time>2026-04-07T13:20:55Z</time></trkpt><trkpt lat="43.59917736539055" lon="2.7015729022426203"><ele>690.0</ele><time>2026-04-07T13:20:56Z</time></trkpt><trkpt lat="43.599235471173586" lon="2.701628197977831"><ele>690.0</ele><time>2026-04-07T13:20:57Z</time></trkpt><trkpt lat="43.599277462801865" lon="2.701710393533234"><ele>690.0</ele><time>2026-04-07T13:20:58Z</time></trkpt><trkpt lat="43.59928238614941" lon="2.7018216746467387"><ele>690.0</ele><time>2026-04-07T13:20:59Z</time></trkpt><trkpt lat="43.59925299728459" lon="2.7019377601404084"><ele>690.0</ele><time>2026-04-07T13:21:00Z</time></trkpt><trkpt lat="43.59922935688831" lon="2.7020663292774674"><ele>690.0</ele><time>2026-04-07T13:21:01Z</time></trkpt><trkpt lat="43.59922900655457" lon="2.7021897810716182"><ele>690.0</ele><time>2026-04-07T13:21:02Z</time></trkpt><trkpt lat="43.599257406585004" lon="2.7023197674701693"><ele>690.6</ele><time>2026-04-07T13:21:03Z</time></trkpt><trkpt lat="43.59930550812384" lon="2.702440194730979"><ele>691.2</ele><time>2026-04-07T13:21:04Z</time></trkpt><trkpt lat="43.59936126395179" lon="2.7025486731236845"><ele>691.8</ele><time>2026-04-07T13:21:05Z</time></trkpt><trkpt lat="43.59942922240017" lon="2.7026300382067374"><ele>692.4</ele><time>2026-04-07T13:21:06Z</time></trkpt><trkpt lat="43.599508047195656" lon="2.7026955060457913"><ele>693.0</ele><time>2026-04-07T13:21:07Z</time></trkpt><trkpt lat="43.59959270342006" lon="2.7027655925428182"><ele>693.6666666666666</ele><time>2026-04-07T13:21:08Z</time></trkpt><trkpt lat="43.59967027435421" lon="2.7028302862582123"><ele>694.3333333333334</ele><time>2026-04-07T13:21:09Z</time></trkpt><trkpt lat="43.599751628052495" lon="2.702892474621472"><ele>695.0</ele><time>2026-04-07T13:21:10Z</time></trkpt><trkpt lat="43.599829910801354" lon="2.7029470265009468"><ele>695.6666666666667</ele><time>2026-04-07T13:21:11Z</time></trkpt><trkpt lat="43.5999117948978" lon="2.7029980589714753"><ele>696.3333333333334</ele><time>2026-04-07T13:21:12Z</time></trkpt><trkpt lat="43.599992095680115" lon="2.703045326588977"><ele>697.0</ele><time>2026-04-07T13:21:13Z</time></trkpt><trkpt lat="43.60006611726724" lon="2.70307909124808"><ele>697.0</ele><time>2026-04-07T13:21:14Z</time></trkpt><trkpt lat="43.600140802268974" lon="2.7031165673068407"><ele>697.0</ele><time>2026-04-07T13:21:15Z</time></trkpt><trkpt lat="43.600210473895416" lon="2.7031656608327217"><ele>697.0</ele><time>2026-04-07T13:21:16Z</time></trkpt><trkpt lat="43.60028046754758" lon="2.703215244677779"><ele>697.0</ele><time>2026-04-07T13:21:17Z</time></trkpt><trkpt lat="43.60034663986938" lon="2.7032775396168653"><ele>697.0</ele><time>2026-04-07T13:21:18Z</time></trkpt><trkpt lat="43.60041077873407" lon="2.7033338613873052"><ele>697.0</ele><time>2026-04-07T13:21:19Z</time></trkpt><trkpt lat="43.600510113624956" lon="2.7034194488971655"><ele>697.5</ele><time>2026-04-07T13:21:21Z</time></trkpt><trkpt lat="43.60056110422691" lon="2.7034741406694995"><ele>698.0</ele><time>2026-04-07T13:21:22Z</time></trkpt><trkpt lat="43.60060706243222" lon="2.7035340542519837"><ele>698.5</ele><time>2026-04-07T13:21:23Z</time></trkpt><trkpt lat="43.60065524567856" lon="2.703600573851927"><ele>699.0</ele><time>2026-04-07T13:21:24Z</time></trkpt><trkpt lat="43.600694552954856" lon="2.7036804595995907"><ele>699.5</ele><time>2026-04-07T13:21:25Z</time></trkpt><trkpt lat="43.60074665564583" lon="2.703740351972875"><ele>700.0</ele><time>2026-04-07T13:21:26Z</time></trkpt><trkpt lat="43.60080634428639" lon="2.7038848287549198"><ele>700.0</ele><time>2026-04-07T13:21:27.999Z</time></trkpt><trkpt lat="43.600844082103514" lon="2.703957539894477"><ele>700.0</ele><time>2026-04-07T13:21:28.999Z</time></trkpt><trkpt lat="43.600875253087096" lon="2.7040380193416707"><ele>700.0</ele><time>2026-04-07T13:21:29.999Z</time></trkpt><trkpt lat="43.60093531475293" lon="2.704175563862853"><ele>700.0</ele><time>2026-04-07T13:21:31.999Z</time></trkpt><trkpt lat="43.600972536708326" lon="2.7043259918898217"><ele>700.0</ele><time>2026-04-07T13:21:33.999Z</time></trkpt><trkpt lat="43.600999551946714" lon="2.7044850079532523"><ele>699.3333333333334</ele><time>2026-04-07T13:21:35.999Z</time></trkpt><trkpt lat="43.60100938975331" lon="2.704589802253324"><ele>698.6666666666667</ele><time>2026-04-07T13:21:36.999Z</time></trkpt><trkpt lat="43.60102227198229" lon="2.704711698065532"><ele>698.0</ele><time>2026-04-07T13:21:37.999Z</time></trkpt><trkpt lat="43.60102295006414" lon="2.704830416578387"><ele>697.3333333333334</ele><time>2026-04-07T13:21:38.999Z</time></trkpt><trkpt lat="43.60101705482983" lon="2.7049516606189736"><ele>696.6666666666666</ele><time>2026-04-07T13:21:39.999Z</time></trkpt><trkpt lat="43.60100627828656" lon="2.7050806084140415"><ele>696.0</ele><time>2026-04-07T13:21:40.999Z</time></trkpt><trkpt lat="43.60098928668786" lon="2.705205412921476"><ele>697.0</ele><time>2026-04-07T13:21:41.999Z</time></trkpt><trkpt lat="43.60097819130347" lon="2.705340398096963"><ele>698.0</ele><time>2026-04-07T13:21:42.999Z</time></trkpt><trkpt lat="43.600964125439525" lon="2.7054707110097462"><ele>699.0</ele><time>2026-04-07T13:21:43.999Z</time></trkpt><trkpt lat="43.60095295059247" lon="2.7056039605931743"><ele>700.0</ele><time>2026-04-07T13:21:44.999Z</time></trkpt><trkpt lat="43.600934490408136" lon="2.7057311649680766"><ele>701.0</ele><time>2026-04-07T13:21:45.999Z</time></trkpt><trkpt lat="43.6008917331669" lon="2.705821806666217"><ele>701.0</ele><time>2026-04-07T13:21:46.999Z</time></trkpt><trkpt lat="43.60084622010349" lon="2.7059699015628733"><ele>701.0</ele><time>2026-04-07T13:21:48.999Z</time></trkpt><trkpt lat="43.60079801179555" lon="2.706039529538305"><ele>701.0</ele><time>2026-04-07T13:21:49.999Z</time></trkpt><trkpt lat="43.60075102489501" lon="2.7061180234863107"><ele>701.0</ele><time>2026-04-07T13:21:50.999Z</time></trkpt><trkpt lat="43.600699252913145" lon="2.7062081353775755"><ele>701.0</ele><time>2026-04-07T13:21:51.999Z</time></trkpt><trkpt lat="43.600628825475184" lon="2.7062867993184834"><ele>701.0</ele><time>2026-04-07T13:21:52.999Z</time></trkpt><trkpt lat="43.600567861643626" lon="2.706382999404397"><ele>701.6666666666666</ele><time>2026-04-07T13:21:53.999Z</time></trkpt><trkpt lat="43.60050882338502" lon="2.7064765373859516"><ele>702.3333333333333</ele><time>2026-04-07T13:21:54.999Z</time></trkpt><trkpt lat="43.60045378835331" lon="2.7065645597917003"><ele>703.0</ele><time>2026-04-07T13:21:55.999Z</time></trkpt><trkpt lat="43.60040439754123" lon="2.706643288746676"><ele>703.6666666666666</ele><time>2026-04-07T13:21:56.999Z</time></trkpt><trkpt lat="43.600367564679956" lon="2.7067175266387706"><ele>704.3333333333334</ele><time>2026-04-07T13:21:57.999Z</time></trkpt><trkpt lat="43.60030575197019" lon="2.706814123919165"><ele>705.0</ele><time>2026-04-07T13:21:59.999Z</time></trkpt><trkpt lat="43.600243631578245" lon="2.706906521707096"><ele>705.6666666666666</ele><time>2026-04-07T13:22:01.999Z</time></trkpt><trkpt lat="43.6002053017162" lon="2.7069783479272695"><ele>706.3333333333334</ele><time>2026-04-07T13:22:02.999Z</time></trkpt><trkpt lat="43.600160624788984" lon="2.707059474695998"><ele>707.0</ele><time>2026-04-07T13:22:03.999Z</time></trkpt><trkpt lat="43.60009696055552" lon="2.7071322731187966"><ele>707.6666666666667</ele><time>2026-04-07T13:22:04.999Z</time></trkpt><trkpt lat="43.600041389910544" lon="2.70722234125284"><ele>708.3333333333334</ele><time>2026-04-07T13:22:05.999Z</time></trkpt><trkpt lat="43.59998231243" lon="2.7073198252598853"><ele>709.0</ele><time>2026-04-07T13:22:06.999Z</time></trkpt><trkpt lat="43.59994867569444" lon="2.707401758583844"><ele>709.0</ele><time>2026-04-07T13:22:07.999Z</time></trkpt><trkpt lat="43.59990056301348" lon="2.7074795475212223"><ele>709.0</ele><time>2026-04-07T13:22:08.999Z</time></trkpt><trkpt lat="43.59984477962998" lon="2.7075609114852512"><ele>709.0</ele><time>2026-04-07T13:22:09.999Z</time></trkpt><trkpt lat="43.59979104344395" lon="2.707646217927853"><ele>709.0</ele><time>2026-04-07T13:22:10.999Z</time></trkpt><trkpt lat="43.59973673636057" lon="2.7077352072876097"><ele>709.0</ele><time>2026-04-07T13:22:11.999Z</time></trkpt><trkpt lat="43.599673938235064" lon="2.7078279962697938"><ele>709.0</ele><time>2026-04-07T13:22:12.998Z</time></trkpt><trkpt lat="43.59960659336196" lon="2.707924795339037"><ele>709.2</ele><time>2026-04-07T13:22:13.998Z</time></trkpt><trkpt lat="43.599534864989856" lon="2.708028601706329"><ele>709.4000000000001</ele><time>2026-04-07T13:22:14.998Z</time></trkpt><trkpt lat="43.59945284088148" lon="2.7081372591578705"><ele>709.6</ele><time>2026-04-07T13:22:15.998Z</time></trkpt><trkpt lat="43.59935802054803" lon="2.708224427935734"><ele>709.8</ele><time>2026-04-07T13:22:16.998Z</time></trkpt><trkpt lat="43.599262394508806" lon="2.7083168149807135"><ele>710.0</ele><time>2026-04-07T13:22:17.998Z</time></trkpt><trkpt lat="43.59916043357776" lon="2.7084120230061073"><ele>710.0</ele><time>2026-04-07T13:22:18.998Z</time></trkpt><trkpt lat="43.59905872366833" lon="2.7085089839733048"><ele>710.0</ele><time>2026-04-07T13:22:19.998Z</time></trkpt><trkpt lat="43.59895501813932" lon="2.7086231071852835"><ele>710.0</ele><time>2026-04-07T13:22:20.998Z</time></trkpt><trkpt lat="43.59884733758213" lon="2.708737373078335"><ele>710.0</ele><time>2026-04-07T13:22:21.998Z</time></trkpt><trkpt lat="43.598736759254415" lon="2.7088511825948607"><ele>709.25</ele><time>2026-04-07T13:22:22.998Z</time></trkpt><trkpt lat="43.598632945220686" lon="2.708985318539863"><ele>708.5</ele><time>2026-04-07T13:22:23.998Z</time></trkpt><trkpt lat="43.5985285411094" lon="2.709124167427536"><ele>707.75</ele><time>2026-04-07T13:22:24.998Z</time></trkpt><trkpt lat="43.59842678592128" lon="2.709261594582722"><ele>707.0</ele><time>2026-04-07T13:22:25.998Z</time></trkpt><trkpt lat="43.598334859052194" lon="2.7094034729336927"><ele>710.75</ele><time>2026-04-07T13:22:26.998Z</time></trkpt><trkpt lat="43.59825342103431" lon="2.709536294023852"><ele>714.5</ele><time>2026-04-07T13:22:27.998Z</time></trkpt><trkpt lat="43.598179209161096" lon="2.7096767476164954"><ele>718.25</ele><time>2026-04-07T13:22:28.998Z</time></trkpt><trkpt lat="43.598123024418236" lon="2.709824718023408"><ele>722.0</ele><time>2026-04-07T13:22:29.998Z</time></trkpt><trkpt lat="43.59806140173015" lon="2.7099852448667243"><ele>722.0</ele><time>2026-04-07T13:22:30.998Z</time></trkpt><trkpt lat="43.59801177023275" lon="2.7101505241029447"><ele>722.0</ele><time>2026-04-07T13:22:31.998Z</time></trkpt><trkpt lat="43.597972447182016" lon="2.7103176152457467"><ele>722.0</ele><time>2026-04-07T13:22:32.998Z</time></trkpt><trkpt lat="43.59793662442725" lon="2.7104975311526553"><ele>722.0</ele><time>2026-04-07T13:22:33.998Z</time></trkpt><trkpt lat="43.597898480013946" lon="2.7106699411681996"><ele>724.75</ele><time>2026-04-07T13:22:34.998Z</time></trkpt><trkpt lat="43.59786530167885" lon="2.7108413576673405"><ele>727.5</ele><time>2026-04-07T13:22:35.998Z</time></trkpt><trkpt lat="43.5978410750682" lon="2.711031907807682"><ele>730.25</ele><time>2026-04-07T13:22:36.998Z</time></trkpt><trkpt lat="43.59781038087278" lon="2.711209277746028"><ele>733.0</ele><time>2026-04-07T13:22:37.998Z</time></trkpt><trkpt lat="43.59780003826803" lon="2.7113898639593335"><ele>733.25</ele><time>2026-04-07T13:22:38.998Z</time></trkpt><trkpt lat="43.59780722540895" lon="2.7115751363781846"><ele>733.5</ele><time>2026-04-07T13:22:39.998Z</time></trkpt><trkpt lat="43.597819900440896" lon="2.711758572324802"><ele>733.75</ele><time>2026-04-07T13:22:40.998Z</time></trkpt><trkpt lat="43.59784165333775" lon="2.7119407558461934"><ele>734.0</ele><time>2026-04-07T13:22:41.998Z</time></trkpt><trkpt lat="43.59787287852749" lon="2.7121183278022563"><ele>734.0</ele><time>2026-04-07T13:22:42.998Z</time></trkpt><trkpt lat="43.597912656495716" lon="2.712288237460791"><ele>734.0</ele><time>2026-04-07T13:22:43.998Z</time></trkpt><trkpt lat="43.59796989426765" lon="2.7124497368887837"><ele>734.0</ele><time>2026-04-07T13:22:44.998Z</time></trkpt><trkpt lat="43.59803207486823" lon="2.712600968427403"><ele>734.0</ele><time>2026-04-07T13:22:45.998Z</time></trkpt><trkpt lat="43.598094757827404" lon="2.7127530588300948"><ele>730.25</ele><time>2026-04-07T13:22:46.998Z</time></trkpt><trkpt lat="43.598161796806984" lon="2.7129058995088147"><ele>726.5</ele><time>2026-04-07T13:22:47.998Z</time></trkpt><trkpt lat="43.598234743750616" lon="2.7130562363917505"><ele>722.75</ele><time>2026-04-07T13:22:48.998Z</time></trkpt><trkpt lat="43.598307133564624" lon="2.713215707866985"><ele>719.0</ele><time>2026-04-07T13:22:49.998Z</time></trkpt><trkpt lat="43.598366593323966" lon="2.713380190909466"><ele>719.0</ele><time>2026-04-07T13:22:50.998Z</time></trkpt><trkpt lat="43.598430010206094" lon="2.713539077344557"><ele>719.0</ele><time>2026-04-07T13:22:51.998Z</time></trkpt><trkpt lat="43.5984875045817" lon="2.7137047517626858"><ele>719.0</ele><time>2026-04-07T13:22:52.998Z</time></trkpt><trkpt lat="43.59854741099009" lon="2.7138649934492967"><ele>719.0</ele><time>2026-04-07T13:22:53.998Z</time></trkpt><trkpt lat="43.598606782114956" lon="2.7140211041659157"><ele>721.0</ele><time>2026-04-07T13:22:55Z</time></trkpt><trkpt lat="43.598671118461176" lon="2.714181554100022"><ele>723.0</ele><time>2026-04-07T13:22:56Z</time></trkpt><trkpt lat="43.59873802193835" lon="2.714325406664859"><ele>725.0</ele><time>2026-04-07T13:22:57Z</time></trkpt><trkpt lat="43.59880706164872" lon="2.714480212268006"><ele>727.0</ele><time>2026-04-07T13:22:58Z</time></trkpt><trkpt lat="43.59887651081147" lon="2.714643530365061"><ele>727.0</ele><time>2026-04-07T13:22:59Z</time></trkpt><trkpt lat="43.59891967933229" lon="2.7148131124059"><ele>727.0</ele><time>2026-04-07T13:23:00Z</time></trkpt><trkpt lat="43.59891906884706" lon="2.7149982409876308"><ele>727.0</ele><time>2026-04-07T13:23:01Z</time></trkpt><trkpt lat="43.59891874997988" lon="2.715185178814919"><ele>727.0</ele><time>2026-04-07T13:23:02Z</time></trkpt><trkpt lat="43.59889090354665" lon="2.7153825008765184"><ele>728.25</ele><time>2026-04-07T13:23:03Z</time></trkpt><trkpt lat="43.59886701543481" lon="2.7155666071788804"><ele>729.5</ele><time>2026-04-07T13:23:04Z</time></trkpt><trkpt lat="43.59884107272056" lon="2.7157583665669183"><ele>730.75</ele><time>2026-04-07T13:23:05Z</time></trkpt><trkpt lat="43.598784254889125" lon="2.7159459352237434"><ele>732.0</ele><time>2026-04-07T13:23:06Z</time></trkpt><trkpt lat="43.598718229872475" lon="2.716122809400932"><ele>726.25</ele><time>2026-04-07T13:23:07Z</time></trkpt><trkpt lat="43.59865126775963" lon="2.7162866984252463"><ele>720.5</ele><time>2026-04-07T13:23:08Z</time></trkpt><trkpt lat="43.59858807052238" lon="2.7164684838138493"><ele>714.75</ele><time>2026-04-07T13:23:09Z</time></trkpt><trkpt lat="43.59851338975167" lon="2.716653083587309"><ele>709.0</ele><time>2026-04-07T13:23:10Z</time></trkpt><trkpt lat="43.59844226492012" lon="2.7168279658482413"><ele>713.6666666666667</ele><time>2026-04-07T13:23:11Z</time></trkpt><trkpt lat="43.59837162698586" lon="2.717005696474193"><ele>718.3333333333334</ele><time>2026-04-07T13:23:12Z</time></trkpt><trkpt lat="43.59829835655152" lon="2.71718863985933"><ele>723.0</ele><time>2026-04-07T13:23:13Z</time></trkpt><trkpt lat="43.5982242326153" lon="2.7173709802940325"><ele>723.0</ele><time>2026-04-07T13:23:14Z</time></trkpt><trkpt lat="43.598147865507876" lon="2.717556308670196"><ele>723.0</ele><time>2026-04-07T13:23:15Z</time></trkpt><trkpt lat="43.59807244167134" lon="2.717740876975265"><ele>723.0</ele><time>2026-04-07T13:23:16Z</time></trkpt><trkpt lat="43.59799532223101" lon="2.7179337052563466"><ele>727.3333333333334</ele><time>2026-04-07T13:23:17Z</time></trkpt><trkpt lat="43.59790627691896" lon="2.71812232471735"><ele>731.6666666666667</ele><time>2026-04-07T13:23:18Z</time></trkpt><trkpt lat="43.59784915273704" lon="2.718330609438005"><ele>736.0</ele><time>2026-04-07T13:23:19Z</time></trkpt><trkpt lat="43.597777643128765" lon="2.718534369330769"><ele>729.6666666666667</ele><time>2026-04-07T13:23:20Z</time></trkpt><trkpt lat="43.597706805547034" lon="2.7187355479948625"><ele>723.3333333333334</ele><time>2026-04-07T13:23:21Z</time></trkpt><trkpt lat="43.59763528211198" lon="2.718932899243317"><ele>717.0</ele><time>2026-04-07T13:23:22Z</time></trkpt><trkpt lat="43.597555902036184" lon="2.719130126287092"><ele>717.0</ele><time>2026-04-07T13:23:23Z</time></trkpt><trkpt lat="43.5974908599316" lon="2.719331200813625"><ele>717.0</ele><time>2026-04-07T13:23:24Z</time></trkpt><trkpt lat="43.59742981287313" lon="2.7195366457613703"><ele>717.0</ele><time>2026-04-07T13:23:25Z</time></trkpt><trkpt lat="43.59738305048922" lon="2.7197499786529247"><ele>719.0</ele><time>2026-04-07T13:23:26Z</time></trkpt><trkpt lat="43.597313802276716" lon="2.719948460146535"><ele>721.0</ele><time>2026-04-07T13:23:27Z</time></trkpt><trkpt lat="43.5972665838557" lon="2.720164877425639"><ele>723.0</ele><time>2026-04-07T13:23:28Z</time></trkpt><trkpt lat="43.597212173858026" lon="2.720356884844118"><ele>726.3333333333334</ele><time>2026-04-07T13:23:29Z</time></trkpt><trkpt lat="43.59715995194958" lon="2.720554769050109"><ele>729.6666666666667</ele><time>2026-04-07T13:23:30Z</time></trkpt><trkpt lat="43.597087896707436" lon="2.720747151631282"><ele>733.0</ele><time>2026-04-07T13:23:31Z</time></trkpt><trkpt lat="43.59702944218943" lon="2.720947926965834"><ele>725.3333333333334</ele><time>2026-04-07T13:23:32Z</time></trkpt><trkpt lat="43.59698577375821" lon="2.7211574165692496"><ele>717.6666666666666</ele><time>2026-04-07T13:23:32.999Z</time></trkpt><trkpt lat="43.59691788683692" lon="2.7213425457808453"><ele>710.0</ele><time>2026-04-07T13:23:33.999Z</time></trkpt><trkpt lat="43.596869075097345" lon="2.7215497705135774"><ele>710.0</ele><time>2026-04-07T13:23:34.999Z</time></trkpt><trkpt lat="43.59681466579256" lon="2.721750740023205"><ele>710.0</ele><time>2026-04-07T13:23:35.999Z</time></trkpt><trkpt lat="43.59679498064177" lon="2.721969263316171"><ele>710.0</ele><time>2026-04-07T13:23:36.999Z</time></trkpt><trkpt lat="43.596794391487336" lon="2.7221884659553313"><ele>711.3333333333333</ele><time>2026-04-07T13:23:37.999Z</time></trkpt><trkpt lat="43.596819362628764" lon="2.7224008979066894"><ele>712.6666666666666</ele><time>2026-04-07T13:23:38.999Z</time></trkpt><trkpt lat="43.59685992934542" lon="2.722608722636826"><ele>714.0</ele><time>2026-04-07T13:23:39.999Z</time></trkpt><trkpt lat="43.59689794812397" lon="2.722814028381628"><ele>714.3333333333334</ele><time>2026-04-07T13:23:40.999Z</time></trkpt><trkpt lat="43.59692968444466" lon="2.7230197147930166"><ele>714.6666666666667</ele><time>2026-04-07T13:23:41.999Z</time></trkpt><trkpt lat="43.596964150938184" lon="2.7232269458425367"><ele>715.0</ele><time>2026-04-07T13:23:42.999Z</time></trkpt><trkpt lat="43.59697956338724" lon="2.723434956515357"><ele>724.75</ele><time>2026-04-07T13:23:43.999Z</time></trkpt><trkpt lat="43.59700500105002" lon="2.7236094505477992"><ele>734.5</ele><time>2026-04-07T13:23:44.999Z</time></trkpt><trkpt lat="43.59703284350415" lon="2.723802567904372"><ele>744.25</ele><time>2026-04-07T13:23:45.999Z</time></trkpt><trkpt lat="43.59705544680331" lon="2.7239887807351044"><ele>754.0</ele><time>2026-04-07T13:23:46.999Z</time></trkpt><trkpt lat="43.597064774212406" lon="2.7241793769990306"><ele>754.0</ele><time>2026-04-07T13:23:47.999Z</time></trkpt><trkpt lat="43.59704867053654" lon="2.724355729157126"><ele>754.0</ele><time>2026-04-07T13:23:48.999Z</time></trkpt><trkpt lat="43.597009041194994" lon="2.724547498693758"><ele>754.0</ele><time>2026-04-07T13:23:49.999Z</time></trkpt><trkpt lat="43.596948174062234" lon="2.7247365702178525"><ele>754.0</ele><time>2026-04-07T13:23:50.999Z</time></trkpt><trkpt lat="43.596875075305164" lon="2.7249314044066377"><ele>745.0</ele><time>2026-04-07T13:23:51.999Z</time></trkpt><trkpt lat="43.596804033032775" lon="2.7251180721993133"><ele>736.0</ele><time>2026-04-07T13:23:52.999Z</time></trkpt><trkpt lat="43.59673184316969" lon="2.725306766297239"><ele>727.0</ele><time>2026-04-07T13:23:53.999Z</time></trkpt><trkpt lat="43.59665866278714" lon="2.725495385122052"><ele>727.0</ele><time>2026-04-07T13:23:54.999Z</time></trkpt><trkpt lat="43.5965822827647" lon="2.7256698109160538"><ele>727.0</ele><time>2026-04-07T13:23:55.999Z</time></trkpt><trkpt lat="43.596493878583416" lon="2.725854478610932"><ele>727.0</ele><time>2026-04-07T13:23:56.999Z</time></trkpt><trkpt lat="43.59640970102295" lon="2.72603464557034"><ele>727.75</ele><time>2026-04-07T13:23:57.999Z</time></trkpt><trkpt lat="43.59633013862364" lon="2.7262189837254565"><ele>728.5</ele><time>2026-04-07T13:23:58.999Z</time></trkpt><trkpt lat="43.59625783544672" lon="2.7263978656257373"><ele>729.25</ele><time>2026-04-07T13:23:59.999Z</time></trkpt><trkpt lat="43.596189350264396" lon="2.7265700967618436"><ele>730.0</ele><time>2026-04-07T13:24:00.999Z</time></trkpt><trkpt lat="43.5961253012123" lon="2.726732425710591"><ele>728.75</ele><time>2026-04-07T13:24:01.999Z</time></trkpt><trkpt lat="43.59606581754736" lon="2.7268805453528504"><ele>727.5</ele><time>2026-04-07T13:24:02.999Z</time></trkpt><trkpt lat="43.59600360313442" lon="2.7270191301924354"><ele>726.25</ele><time>2026-04-07T13:24:03.999Z</time></trkpt><trkpt lat="43.595924931222676" lon="2.7271330163766"><ele>725.0</ele><time>2026-04-07T13:24:04.999Z</time></trkpt><trkpt lat="43.595816163612845" lon="2.727221770764467"><ele>725.0</ele><time>2026-04-07T13:24:05.999Z</time></trkpt><trkpt lat="43.59567901770741" lon="2.7272579658024787"><ele>725.0</ele><time>2026-04-07T13:24:06.999Z</time></trkpt><trkpt lat="43.595525580608175" lon="2.727297946706714"><ele>725.0</ele><time>2026-04-07T13:24:07.999Z</time></trkpt><trkpt lat="43.595368254322985" lon="2.727352919578214"><ele>724.3333333333333</ele><time>2026-04-07T13:24:08.999Z</time></trkpt><trkpt lat="43.59520137362048" lon="2.727382766278064"><ele>723.6666666666666</ele><time>2026-04-07T13:24:09.999Z</time></trkpt><trkpt lat="43.595046656142706" lon="2.727420675883044"><ele>723.0</ele><time>2026-04-07T13:24:10.999Z</time></trkpt><trkpt lat="43.594885441176515" lon="2.7274598615936183"><ele>723.0</ele><time>2026-04-07T13:24:11.999Z</time></trkpt><trkpt lat="43.5947441385285" lon="2.727520676995719"><ele>723.0</ele><time>2026-04-07T13:24:12.999Z</time></trkpt><trkpt lat="43.594626367154575" lon="2.7275838960006555"><ele>723.0</ele><time>2026-04-07T13:24:13.999Z</time></trkpt><trkpt lat="43.59453939214441" lon="2.7276365996927208"><ele>723.0</ele><time>2026-04-07T13:24:14.999Z</time></trkpt><trkpt lat="43.594451533207035" lon="2.7277098575380414"><ele>725.75</ele><time>2026-04-07T13:24:15.999Z</time></trkpt><trkpt lat="43.59434221590774" lon="2.7277742646236125"><ele>728.5</ele><time>2026-04-07T13:24:16.999Z</time></trkpt><trkpt lat="43.594234341521016" lon="2.7278434281818136"><ele>731.25</ele><time>2026-04-07T13:24:17.998Z</time></trkpt><trkpt lat="43.59412366538845" lon="2.727913077916653"><ele>734.0</ele><time>2026-04-07T13:24:18.998Z</time></trkpt><trkpt lat="43.594007583986084" lon="2.728000166491697"><ele>734.0</ele><time>2026-04-07T13:24:19.998Z</time></trkpt><trkpt lat="43.59389205733022" lon="2.72808974591593"><ele>734.0</ele><time>2026-04-07T13:24:20.998Z</time></trkpt><trkpt lat="43.59377858353245" lon="2.728203370838815"><ele>734.0</ele><time>2026-04-07T13:24:21.998Z</time></trkpt><trkpt lat="43.59364899795498" lon="2.7283122805071955"><ele>734.0</ele><time>2026-04-07T13:24:22.998Z</time></trkpt><trkpt lat="43.59353204560244" lon="2.72844295073788"><ele>733.75</ele><time>2026-04-07T13:24:23.998Z</time></trkpt><trkpt lat="43.59342132770548" lon="2.7285443711145234"><ele>733.5</ele><time>2026-04-07T13:24:24.998Z</time></trkpt><trkpt lat="43.5933139165509" lon="2.7286733134459267"><ele>733.25</ele><time>2026-04-07T13:24:25.998Z</time></trkpt><trkpt lat="43.59322273164661" lon="2.7288268050031035"><ele>733.0</ele><time>2026-04-07T13:24:26.998Z</time></trkpt><trkpt lat="43.593160194085584" lon="2.7290076554541876"><ele>733.0</ele><time>2026-04-07T13:24:27.998Z</time></trkpt><trkpt lat="43.59310860209577" lon="2.7291957237916384"><ele>733.0</ele><time>2026-04-07T13:24:28.998Z</time></trkpt><trkpt lat="43.59305881437174" lon="2.72936402243618"><ele>733.0</ele><time>2026-04-07T13:24:29.998Z</time></trkpt><trkpt lat="43.59304134327559" lon="2.729544526128476"><ele>733.0</ele><time>2026-04-07T13:24:30.998Z</time></trkpt><trkpt lat="43.593052741482815" lon="2.7297242351049666"><ele>734.75</ele><time>2026-04-07T13:24:31.998Z</time></trkpt><trkpt lat="43.59305122564204" lon="2.7298893345467374"><ele>736.5</ele><time>2026-04-07T13:24:32.998Z</time></trkpt><trkpt lat="43.593071149808054" lon="2.7300561960058958"><ele>738.25</ele><time>2026-04-07T13:24:33.998Z</time></trkpt><trkpt lat="43.59309931169068" lon="2.730226503602121"><ele>740.0</ele><time>2026-04-07T13:24:34.998Z</time></trkpt><trkpt lat="43.59314331507915" lon="2.730391260524025"><ele>740.25</ele><time>2026-04-07T13:24:35.998Z</time></trkpt><trkpt lat="43.593155177050264" lon="2.7305609964499062"><ele>740.5</ele><time>2026-04-07T13:24:36.998Z</time></trkpt><trkpt lat="43.59317938871293" lon="2.730727788212862"><ele>740.75</ele><time>2026-04-07T13:24:37.998Z</time></trkpt><trkpt lat="43.59321256648802" lon="2.7308985281822693"><ele>741.0</ele><time>2026-04-07T13:24:38.998Z</time></trkpt><trkpt lat="43.59321407642491" lon="2.73107488419075"><ele>743.5</ele><time>2026-04-07T13:24:39.998Z</time></trkpt><trkpt lat="43.593179861117" lon="2.731242467299062"><ele>746.0</ele><time>2026-04-07T13:24:40.998Z</time></trkpt><trkpt lat="43.59313603561559" lon="2.731421754188668"><ele>748.5</ele><time>2026-04-07T13:24:41.998Z</time></trkpt><trkpt lat="43.59307907181971" lon="2.731586930207321"><ele>751.0</ele><time>2026-04-07T13:24:42.998Z</time></trkpt><trkpt lat="43.593000031099436" lon="2.731750435420986"><ele>747.5</ele><time>2026-04-07T13:24:43.998Z</time></trkpt><trkpt lat="43.59291768449426" lon="2.731899209375179"><ele>744.0</ele><time>2026-04-07T13:24:44.998Z</time></trkpt><trkpt lat="43.59282960013831" lon="2.7320466683516793"><ele>740.5</ele><time>2026-04-07T13:24:45.998Z</time></trkpt><trkpt lat="43.592740463708786" lon="2.7321896724387535"><ele>737.0</ele><time>2026-04-07T13:24:46.998Z</time></trkpt><trkpt lat="43.59265115776793" lon="2.7323329484142613"><ele>737.0</ele><time>2026-04-07T13:24:47.998Z</time></trkpt><trkpt lat="43.5925664755861" lon="2.7324688063155684"><ele>737.0</ele><time>2026-04-07T13:24:48.998Z</time></trkpt><trkpt lat="43.59247814309267" lon="2.7326071721016096"><ele>737.0</ele><time>2026-04-07T13:24:49.998Z</time></trkpt><trkpt lat="43.59237780132687" lon="2.73274889812422"><ele>737.0</ele><time>2026-04-07T13:24:50.998Z</time></trkpt><trkpt lat="43.59227532997923" lon="2.73286952755495"><ele>734.0</ele><time>2026-04-07T13:24:51.998Z</time></trkpt><trkpt lat="43.592170429029714" lon="2.7329829013550535"><ele>731.0</ele><time>2026-04-07T13:24:52.998Z</time></trkpt><trkpt lat="43.592062817105955" lon="2.733098540801978"><ele>728.0</ele><time>2026-04-07T13:24:53.998Z</time></trkpt><trkpt lat="43.59196621001332" lon="2.733230976648455"><ele>725.0</ele><time>2026-04-07T13:24:54.998Z</time></trkpt><trkpt lat="43.59185407858333" lon="2.7333429652738634"><ele>725.0</ele><time>2026-04-07T13:24:55.998Z</time></trkpt><trkpt lat="43.591738782766036" lon="2.7334450777161847"><ele>725.0</ele><time>2026-04-07T13:24:56.998Z</time></trkpt><trkpt lat="43.59163390806485" lon="2.733546569226496"><ele>725.0</ele><time>2026-04-07T13:24:57.998Z</time></trkpt><trkpt lat="43.591518256102816" lon="2.73364377499551"><ele>725.0</ele><time>2026-04-07T13:24:58.998Z</time></trkpt><trkpt lat="43.591398518457886" lon="2.733814002562418"><ele>725.0</ele><time>2026-04-07T13:24:59.998Z</time></trkpt><trkpt lat="43.591276536478325" lon="2.7339461544344097"><ele>725.0</ele><time>2026-04-07T13:25:01Z</time></trkpt><trkpt lat="43.591167283328545" lon="2.7340892509766856"><ele>725.0</ele><time>2026-04-07T13:25:02Z</time></trkpt><trkpt lat="43.591063172131136" lon="2.734245891842886"><ele>727.25</ele><time>2026-04-07T13:25:03Z</time></trkpt><trkpt lat="43.590981364841014" lon="2.7344054034998555"><ele>729.5</ele><time>2026-04-07T13:25:04Z</time></trkpt><trkpt lat="43.59091685958559" lon="2.7345817726010915"><ele>731.75</ele><time>2026-04-07T13:25:05Z</time></trkpt><trkpt lat="43.59086883556297" lon="2.7347787339458494"><ele>734.0</ele><time>2026-04-07T13:25:06Z</time></trkpt><trkpt lat="43.590839014846516" lon="2.734985576708567"><ele>734.0</ele><time>2026-04-07T13:25:07Z</time></trkpt><trkpt lat="43.590850789851146" lon="2.735201725674662"><ele>734.0</ele><time>2026-04-07T13:25:08Z</time></trkpt><trkpt lat="43.59091538536322" lon="2.7354019525785396"><ele>734.0</ele><time>2026-04-07T13:25:09Z</time></trkpt><trkpt lat="43.591005777408526" lon="2.735590240374884"><ele>733.3333333333333</ele><time>2026-04-07T13:25:10Z</time></trkpt><trkpt lat="43.591122000178444" lon="2.7357611626575022"><ele>732.6666666666666</ele><time>2026-04-07T13:25:11Z</time></trkpt><trkpt lat="43.59124090384174" lon="2.7359110770493937"><ele>732.0</ele><time>2026-04-07T13:25:12Z</time></trkpt><trkpt lat="43.59135506236482" lon="2.7360403397359367"><ele>733.0</ele><time>2026-04-07T13:25:13Z</time></trkpt><trkpt lat="43.59147145817414" lon="2.736179424723092"><ele>734.0</ele><time>2026-04-07T13:25:14Z</time></trkpt><trkpt lat="43.59159774334171" lon="2.736289386745418"><ele>735.0</ele><time>2026-04-07T13:25:15Z</time></trkpt><trkpt lat="43.59172398686965" lon="2.736404299292514"><ele>735.0</ele><time>2026-04-07T13:25:16Z</time></trkpt><trkpt lat="43.59182967997108" lon="2.736548513500334"><ele>735.0</ele><time>2026-04-07T13:25:17Z</time></trkpt><trkpt lat="43.59188142643537" lon="2.736723477707152"><ele>735.0</ele><time>2026-04-07T13:25:18Z</time></trkpt><trkpt lat="43.59190757491619" lon="2.736888143217825"><ele>735.0</ele><time>2026-04-07T13:25:19Z</time></trkpt><trkpt lat="43.59190725088269" lon="2.7370466234594186"><ele>734.75</ele><time>2026-04-07T13:25:20Z</time></trkpt><trkpt lat="43.59190089022183" lon="2.737214708256215"><ele>734.5</ele><time>2026-04-07T13:25:21Z</time></trkpt><trkpt lat="43.591858325313254" lon="2.7373737433396075"><ele>734.25</ele><time>2026-04-07T13:25:22Z</time></trkpt><trkpt lat="43.59179694338698" lon="2.7375533979814786"><ele>734.0</ele><time>2026-04-07T13:25:23Z</time></trkpt><trkpt lat="43.59173604698765" lon="2.7377149644946965"><ele>735.5</ele><time>2026-04-07T13:25:24Z</time></trkpt><trkpt lat="43.591677322370444" lon="2.7378669777893054"><ele>737.0</ele><time>2026-04-07T13:25:25Z</time></trkpt><trkpt lat="43.59161230303847" lon="2.738016137270276"><ele>738.5</ele><time>2026-04-07T13:25:26Z</time></trkpt><trkpt lat="43.591532140428335" lon="2.7381729357996156"><ele>740.0</ele><time>2026-04-07T13:25:27Z</time></trkpt><trkpt lat="43.591445872449256" lon="2.738316040749561"><ele>740.0</ele><time>2026-04-07T13:25:28Z</time></trkpt><trkpt lat="43.591355595771994" lon="2.738450938105684"><ele>740.0</ele><time>2026-04-07T13:25:29Z</time></trkpt><trkpt lat="43.59126434036878" lon="2.738583594917844"><ele>740.0</ele><time>2026-04-07T13:25:30Z</time></trkpt><trkpt lat="43.59117182313856" lon="2.7387180860359472"><ele>740.0</ele><time>2026-04-07T13:25:31Z</time></trkpt><trkpt lat="43.591078578474225" lon="2.738856886622884"><ele>739.0</ele><time>2026-04-07T13:25:32Z</time></trkpt><trkpt lat="43.59100135488228" lon="2.739012185540861"><ele>738.0</ele><time>2026-04-07T13:25:33Z</time></trkpt><trkpt lat="43.59091754172829" lon="2.7391608968694463"><ele>737.0</ele><time>2026-04-07T13:25:34Z</time></trkpt><trkpt lat="43.590875593943366" lon="2.7393413381805716"><ele>736.0</ele><time>2026-04-07T13:25:35Z</time></trkpt><trkpt lat="43.59088205210818" lon="2.739527990728549"><ele>736.0</ele><time>2026-04-07T13:25:36Z</time></trkpt><trkpt lat="43.590934807124384" lon="2.739696409907693"><ele>736.0</ele><time>2026-04-07T13:25:37Z</time></trkpt><trkpt lat="43.59102086974154" lon="2.7398307419131727"><ele>736.0</ele><time>2026-04-07T13:25:37.999Z</time></trkpt><trkpt lat="43.59114135581205" lon="2.7399120702151647"><ele>736.0</ele><time>2026-04-07T13:25:38.999Z</time></trkpt><trkpt lat="43.59126617263437" lon="2.7399673391608146"><ele>738.25</ele><time>2026-04-07T13:25:39.999Z</time></trkpt><trkpt lat="43.59137898536645" lon="2.7400101898217613"><ele>740.5</ele><time>2026-04-07T13:25:40.999Z</time></trkpt><trkpt lat="43.591490716871" lon="2.740067902237531"><ele>742.75</ele><time>2026-04-07T13:25:41.999Z</time></trkpt><trkpt lat="43.591608202076216" lon="2.740124462076547"><ele>745.0</ele><time>2026-04-07T13:25:42.999Z</time></trkpt><trkpt lat="43.5917278644683" lon="2.7401665880316037"><ele>744.0</ele><time>2026-04-07T13:25:43.999Z</time></trkpt><trkpt lat="43.591846426886306" lon="2.7402222187207057"><ele>743.0</ele><time>2026-04-07T13:25:44.999Z</time></trkpt><trkpt lat="43.591960349214155" lon="2.740279817985127"><ele>742.0</ele><time>2026-04-07T13:25:45.999Z</time></trkpt><trkpt lat="43.59207815157221" lon="2.7403289280871044"><ele>741.0</ele><time>2026-04-07T13:25:46.999Z</time></trkpt><trkpt lat="43.59219277313546" lon="2.740386313018331"><ele>741.0</ele><time>2026-04-07T13:25:47.999Z</time></trkpt><trkpt lat="43.59230402439296" lon="2.7404528617050525"><ele>741.0</ele><time>2026-04-07T13:25:48.999Z</time></trkpt><trkpt lat="43.5924140491645" lon="2.7405433100439156"><ele>741.0</ele><time>2026-04-07T13:25:49.999Z</time></trkpt><trkpt lat="43.592521416739224" lon="2.7406500348502787"><ele>741.0</ele><time>2026-04-07T13:25:50.999Z</time></trkpt><trkpt lat="43.59261683260372" lon="2.740775799252846"><ele>741.0</ele><time>2026-04-07T13:25:51.999Z</time></trkpt><trkpt lat="43.59271354059071" lon="2.740898967729941"><ele>741.0</ele><time>2026-04-07T13:25:52.999Z</time></trkpt><trkpt lat="43.592806141306845" lon="2.741041081937241"><ele>741.0</ele><time>2026-04-07T13:25:53.999Z</time></trkpt><trkpt lat="43.592887707669654" lon="2.741189751845598"><ele>741.0</ele><time>2026-04-07T13:25:54.999Z</time></trkpt><trkpt lat="43.59296749090428" lon="2.741343743587956"><ele>741.75</ele><time>2026-04-07T13:25:55.999Z</time></trkpt><trkpt lat="43.593058434507164" lon="2.741487747414043"><ele>742.5</ele><time>2026-04-07T13:25:56.999Z</time></trkpt><trkpt lat="43.59316983928285" lon="2.7416138168799615"><ele>743.25</ele><time>2026-04-07T13:25:57.999Z</time></trkpt><trkpt lat="43.59329256895234" lon="2.741728883351633"><ele>744.0</ele><time>2026-04-07T13:25:58.999Z</time></trkpt><trkpt lat="43.59340844599134" lon="2.741842781484442"><ele>742.3333333333334</ele><time>2026-04-07T13:25:59.999Z</time></trkpt><trkpt lat="43.59352389922237" lon="2.741967909176403"><ele>740.6666666666667</ele><time>2026-04-07T13:26:00.999Z</time></trkpt><trkpt lat="43.59361185143895" lon="2.7421375135845962"><ele>739.0</ele><time>2026-04-07T13:26:01.999Z</time></trkpt><trkpt lat="43.59370549698184" lon="2.7423134128132296"><ele>742.3333333333334</ele><time>2026-04-07T13:26:02.999Z</time></trkpt><trkpt lat="43.59377462443109" lon="2.7425003964880665"><ele>745.6666666666666</ele><time>2026-04-07T13:26:03.999Z</time></trkpt><trkpt lat="43.593829154202645" lon="2.742702099185119"><ele>749.0</ele><time>2026-04-07T13:26:04.999Z</time></trkpt><trkpt lat="43.59387221901524" lon="2.7429168175925867"><ele>749.0</ele><time>2026-04-07T13:26:05.999Z</time></trkpt><trkpt lat="43.5939277203566" lon="2.7431311775447003"><ele>749.0</ele><time>2026-04-07T13:26:06.999Z</time></trkpt><trkpt lat="43.5939710938221" lon="2.743361881140806"><ele>749.0</ele><time>2026-04-07T13:26:07.999Z</time></trkpt><trkpt lat="43.59401992820473" lon="2.7435730842275086"><ele>748.0</ele><time>2026-04-07T13:26:08.999Z</time></trkpt><trkpt lat="43.59407964179553" lon="2.743785861653144"><ele>747.0</ele><time>2026-04-07T13:26:09.999Z</time></trkpt><trkpt lat="43.59415102504052" lon="2.743990213884186"><ele>746.0</ele><time>2026-04-07T13:26:10.999Z</time></trkpt><trkpt lat="43.59423138481442" lon="2.7442018018597762"><ele>745.3333333333333</ele><time>2026-04-07T13:26:11.999Z</time></trkpt><trkpt lat="43.594315261087175" lon="2.744410255066964"><ele>744.6666666666666</ele><time>2026-04-07T13:26:12.999Z</time></trkpt><trkpt lat="43.59440444081573" lon="2.7446142531818816"><ele>744.0</ele><time>2026-04-07T13:26:13.999Z</time></trkpt><trkpt lat="43.594494517206726" lon="2.7448087492325066"><ele>749.6666666666666</ele><time>2026-04-07T13:26:14.999Z</time></trkpt><trkpt lat="43.59458377398387" lon="2.7449873104586717"><ele>755.3333333333333</ele><time>2026-04-07T13:26:15.999Z</time></trkpt><trkpt lat="43.59465209075326" lon="2.7451792092143275"><ele>761.0</ele><time>2026-04-07T13:26:16.999Z</time></trkpt><trkpt lat="43.594706818308985" lon="2.745388392352829"><ele>761.0</ele><time>2026-04-07T13:26:17.999Z</time></trkpt><trkpt lat="43.59473006760785" lon="2.745612945825417"><ele>761.0</ele><time>2026-04-07T13:26:18.999Z</time></trkpt><trkpt lat="43.59476900031349" lon="2.74583411977542"><ele>761.0</ele><time>2026-04-07T13:26:19.999Z</time></trkpt><trkpt lat="43.59479084169781" lon="2.7460540599639724"><ele>758.0</ele><time>2026-04-07T13:26:20.999Z</time></trkpt><trkpt lat="43.594811661720655" lon="2.746274693887012"><ele>755.0</ele><time>2026-04-07T13:26:21.998Z</time></trkpt><trkpt lat="43.59483866599157" lon="2.746497119200679"><ele>752.0</ele><time>2026-04-07T13:26:22.998Z</time></trkpt><trkpt lat="43.59487110638726" lon="2.746722602498647"><ele>750.6666666666666</ele><time>2026-04-07T13:26:23.998Z</time></trkpt><trkpt lat="43.59490409183432" lon="2.746949279247784"><ele>749.3333333333334</ele><time>2026-04-07T13:26:24.998Z</time></trkpt><trkpt lat="43.59493051855968" lon="2.7471739844399754"><ele>748.0</ele><time>2026-04-07T13:26:25.998Z</time></trkpt><trkpt lat="43.59494771643885" lon="2.747396447581099"><ele>748.0</ele><time>2026-04-07T13:26:26.998Z</time></trkpt><trkpt lat="43.5949448290561" lon="2.747623349117422"><ele>748.0</ele><time>2026-04-07T13:26:27.998Z</time></trkpt><trkpt lat="43.5949683426245" lon="2.7478488731110744"><ele>748.0</ele><time>2026-04-07T13:26:28.998Z</time></trkpt><trkpt lat="43.59497315294632" lon="2.7480711310402275"><ele>748.6666666666667</ele><time>2026-04-07T13:26:29.998Z</time></trkpt><trkpt lat="43.59498125082853" lon="2.748298870075459"><ele>749.3333333333334</ele><time>2026-04-07T13:26:30.998Z</time></trkpt><trkpt lat="43.59499053695021" lon="2.748524287456909"><ele>750.0</ele><time>2026-04-07T13:26:31.998Z</time></trkpt><trkpt lat="43.595008130325354" lon="2.7487470860320373"><ele>750.0</ele><time>2026-04-07T13:26:32.998Z</time></trkpt><trkpt lat="43.5950260517913" lon="2.7489718565816625"><ele>750.0</ele><time>2026-04-07T13:26:33.998Z</time></trkpt><trkpt lat="43.59504446602294" lon="2.749184029311176"><ele>750.0</ele><time>2026-04-07T13:26:34.998Z</time></trkpt><trkpt lat="43.59505092014537" lon="2.7494055209771835"><ele>749.6666666666666</ele><time>2026-04-07T13:26:35.998Z</time></trkpt><trkpt lat="43.595047743986306" lon="2.749626477089656"><ele>749.3333333333333</ele><time>2026-04-07T13:26:36.998Z</time></trkpt><trkpt lat="43.59504166271266" lon="2.7498484748980268"><ele>749.0</ele><time>2026-04-07T13:26:37.998Z</time></trkpt><trkpt lat="43.59503337830655" lon="2.7500682709457833"><ele>750.6666666666666</ele><time>2026-04-07T13:26:38.998Z</time></trkpt><trkpt lat="43.59502183241531" lon="2.75028893392589"><ele>752.3333333333334</ele><time>2026-04-07T13:26:39.998Z</time></trkpt><trkpt lat="43.59500773248873" lon="2.750505113244229"><ele>754.0</ele><time>2026-04-07T13:26:40.998Z</time></trkpt><trkpt lat="43.59498527031347" lon="2.7507231723901575"><ele>754.0</ele><time>2026-04-07T13:26:41.998Z</time></trkpt><trkpt lat="43.59494067658571" lon="2.7509367581937956"><ele>754.0</ele><time>2026-04-07T13:26:42.998Z</time></trkpt><trkpt lat="43.594875856248606" lon="2.7511331178435916"><ele>754.0</ele><time>2026-04-07T13:26:43.998Z</time></trkpt><trkpt lat="43.594806950343795" lon="2.751336404265429"><ele>756.6666666666667</ele><time>2026-04-07T13:26:44.998Z</time></trkpt><trkpt lat="43.59475292549389" lon="2.751550550803472"><ele>759.3333333333334</ele><time>2026-04-07T13:26:45.998Z</time></trkpt><trkpt lat="43.594694126022304" lon="2.7517615091671446"><ele>762.0</ele><time>2026-04-07T13:26:46.998Z</time></trkpt><trkpt lat="43.59464985791823" lon="2.7519800739071103"><ele>762.0</ele><time>2026-04-07T13:26:47.998Z</time></trkpt><trkpt lat="43.59460268216921" lon="2.7522037580900602"><ele>762.0</ele><time>2026-04-07T13:26:48.998Z</time></trkpt><trkpt lat="43.59457612562591" lon="2.7524332721752365"><ele>762.0</ele><time>2026-04-07T13:26:49.998Z</time></trkpt><trkpt lat="43.59458012317747" lon="2.752664078659544"><ele>760.0</ele><time>2026-04-07T13:26:50.998Z</time></trkpt><trkpt lat="43.594586735894254" lon="2.752893445770193"><ele>758.0</ele><time>2026-04-07T13:26:51.998Z</time></trkpt><trkpt lat="43.594611270640534" lon="2.753119275559998"><ele>756.0</ele><time>2026-04-07T13:26:52.998Z</time></trkpt><trkpt lat="43.59467382217492" lon="2.753341024037235"><ele>751.6666666666666</ele><time>2026-04-07T13:26:53.998Z</time></trkpt><trkpt lat="43.59474505414718" lon="2.7535471360111874"><ele>747.3333333333333</ele><time>2026-04-07T13:26:54.998Z</time></trkpt><trkpt lat="43.594843961727605" lon="2.7537242942226245"><ele>743.0</ele><time>2026-04-07T13:26:55.998Z</time></trkpt><trkpt lat="43.59495135129497" lon="2.753859411416629"><ele>743.0</ele><time>2026-04-07T13:26:56.998Z</time></trkpt><trkpt lat="43.59509174693697" lon="2.7539349573831844"><ele>743.0</ele><time>2026-04-07T13:26:57.998Z</time></trkpt><trkpt lat="43.59524107292064" lon="2.753978274602457"><ele>743.0</ele><time>2026-04-07T13:26:58.998Z</time></trkpt><trkpt lat="43.595401114392544" lon="2.753964984663172"><ele>742.75</ele><time>2026-04-07T13:26:59.998Z</time></trkpt><trkpt lat="43.59554600191307" lon="2.7539697439714708"><ele>742.5</ele><time>2026-04-07T13:27:00.998Z</time></trkpt><trkpt lat="43.59569521701302" lon="2.7539566655081797"><ele>742.25</ele><time>2026-04-07T13:27:01.998Z</time></trkpt><trkpt lat="43.59584285573593" lon="2.753959664850616"><ele>742.0</ele><time>2026-04-07T13:27:02.998Z</time></trkpt><trkpt lat="43.59598549947035" lon="2.7539639621432825"><ele>742.0</ele><time>2026-04-07T13:27:03.998Z</time></trkpt><trkpt lat="43.59612208034182" lon="2.753965287421551"><ele>742.0</ele><time>2026-04-07T13:27:04.998Z</time></trkpt><trkpt lat="43.59626124772632" lon="2.7539640539891335"><ele>742.0</ele><time>2026-04-07T13:27:05.997Z</time></trkpt><trkpt lat="43.59640386051327" lon="2.7539706168596405"><ele>742.0</ele><time>2026-04-07T13:27:07Z</time></trkpt><trkpt lat="43.59654933481125" lon="2.753976804146185"><ele>743.25</ele><time>2026-04-07T13:27:08Z</time></trkpt><trkpt lat="43.5966939737124" lon="2.7539788180559466"><ele>744.5</ele><time>2026-04-07T13:27:09Z</time></trkpt><trkpt lat="43.59684322613878" lon="2.7539853301989696"><ele>745.75</ele><time>2026-04-07T13:27:10Z</time></trkpt><trkpt lat="43.59699092104044" lon="2.7539841150475057"><ele>747.0</ele><time>2026-04-07T13:27:11Z</time></trkpt><trkpt lat="43.597136917015604" lon="2.753995106607614"><ele>747.6666666666666</ele><time>2026-04-07T13:27:12Z</time></trkpt><trkpt lat="43.59729140815623" lon="2.7540275861527856"><ele>748.3333333333333</ele><time>2026-04-07T13:27:13Z</time></trkpt><trkpt lat="43.597430177236824" lon="2.754106701236357"><ele>749.0</ele><time>2026-04-07T13:27:14Z</time></trkpt><trkpt lat="43.59756293265576" lon="2.754204138224195"><ele>749.0</ele><time>2026-04-07T13:27:15Z</time></trkpt><trkpt lat="43.597688082872125" lon="2.754314854244639"><ele>749.0</ele><time>2026-04-07T13:27:16Z</time></trkpt><trkpt lat="43.59778900212211" lon="2.754488289939116"><ele>749.0</ele><time>2026-04-07T13:27:17Z</time></trkpt><trkpt lat="43.597901303718196" lon="2.7546435962986733"><ele>755.0</ele><time>2026-04-07T13:27:18Z</time></trkpt><trkpt lat="43.597991056249455" lon="2.7548224909128165"><ele>761.0</ele><time>2026-04-07T13:27:19Z</time></trkpt><trkpt lat="43.598065435004365" lon="2.7550227495166335"><ele>767.0</ele><time>2026-04-07T13:27:20Z</time></trkpt><trkpt lat="43.598100882824056" lon="2.755245351811606"><ele>767.3333333333333</ele><time>2026-04-07T13:27:21Z</time></trkpt><trkpt lat="43.59813721156872" lon="2.7554733231145727"><ele>767.6666666666666</ele><time>2026-04-07T13:27:22Z</time></trkpt><trkpt lat="43.59818490030575" lon="2.755703983000504"><ele>768.0</ele><time>2026-04-07T13:27:23Z</time></trkpt><trkpt lat="43.59821182579071" lon="2.755939761986115"><ele>766.0</ele><time>2026-04-07T13:27:24Z</time></trkpt><trkpt lat="43.59823928255532" lon="2.7561813421872934"><ele>764.0</ele><time>2026-04-07T13:27:25Z</time></trkpt><trkpt lat="43.598262263312684" lon="2.756421437521224"><ele>762.0</ele><time>2026-04-07T13:27:26Z</time></trkpt><trkpt lat="43.59827558696115" lon="2.756670008923252"><ele>761.3333333333334</ele><time>2026-04-07T13:27:27Z</time></trkpt><trkpt lat="43.59825795152679" lon="2.7569080640653922"><ele>760.6666666666667</ele><time>2026-04-07T13:27:28Z</time></trkpt><trkpt lat="43.59825310697231" lon="2.7571413061153516"><ele>760.0</ele><time>2026-04-07T13:27:29Z</time></trkpt><trkpt lat="43.598263991807855" lon="2.7573622758448586"><ele>760.0</ele><time>2026-04-07T13:27:30Z</time></trkpt><trkpt lat="43.59825638978639" lon="2.75759033922651"><ele>760.0</ele><time>2026-04-07T13:27:31Z</time></trkpt><trkpt lat="43.598269479249545" lon="2.7578147398863666"><ele>760.0</ele><time>2026-04-07T13:27:32Z</time></trkpt><trkpt lat="43.59829273522596" lon="2.758030842208444"><ele>759.75</ele><time>2026-04-07T13:27:33Z</time></trkpt><trkpt lat="43.598308996710585" lon="2.7582446083597865"><ele>759.5</ele><time>2026-04-07T13:27:34Z</time></trkpt><trkpt lat="43.59833410242402" lon="2.758432219895421"><ele>759.25</ele><time>2026-04-07T13:27:35Z</time></trkpt><trkpt lat="43.59835954572265" lon="2.7586377699900555"><ele>759.0</ele><time>2026-04-07T13:27:36Z</time></trkpt><trkpt lat="43.598389404553195" lon="2.758837898016326"><ele>758.3333333333334</ele><time>2026-04-07T13:27:37Z</time></trkpt><trkpt lat="43.598393409281655" lon="2.759044006450717"><ele>757.6666666666667</ele><time>2026-04-07T13:27:38Z</time></trkpt><trkpt lat="43.598380010243254" lon="2.759245402472012"><ele>757.0</ele><time>2026-04-07T13:27:39Z</time></trkpt><trkpt lat="43.59842825666004" lon="2.75945758951861"><ele>757.0</ele><time>2026-04-07T13:27:40Z</time></trkpt><trkpt lat="43.598336905874916" lon="2.759658297482701"><ele>757.0</ele><time>2026-04-07T13:27:41Z</time></trkpt><trkpt lat="43.598308221495444" lon="2.7598572048026706"><ele>757.0</ele><time>2026-04-07T13:27:41.999Z</time></trkpt><trkpt lat="43.59827972462766" lon="2.760063476306522"><ele>754.6666666666667</ele><time>2026-04-07T13:27:42.999Z</time></trkpt><trkpt lat="43.598253866759094" lon="2.7602754105538914"><ele>752.3333333333334</ele><time>2026-04-07T13:27:43.999Z</time></trkpt><trkpt lat="43.59824555092942" lon="2.760491010013636"><ele>750.0</ele><time>2026-04-07T13:27:44.999Z</time></trkpt><trkpt lat="43.59826010292022" lon="2.7607011232795142"><ele>750.0</ele><time>2026-04-07T13:27:45.999Z</time></trkpt><trkpt lat="43.598249214843534" lon="2.760912027134214"><ele>750.0</ele><time>2026-04-07T13:27:46.999Z</time></trkpt><trkpt lat="43.59825784406276" lon="2.761123836390962"><ele>750.0</ele><time>2026-04-07T13:27:47.999Z</time></trkpt><trkpt lat="43.59826269913501" lon="2.7613212054377327"><ele>750.75</ele><time>2026-04-07T13:27:48.999Z</time></trkpt><trkpt lat="43.59826282083457" lon="2.761515520194476"><ele>751.5</ele><time>2026-04-07T13:27:49.999Z</time></trkpt><trkpt lat="43.59824879711719" lon="2.7617138774458136"><ele>752.25</ele><time>2026-04-07T13:27:50.999Z</time></trkpt><trkpt lat="43.598227806531646" lon="2.761914938345103"><ele>753.0</ele><time>2026-04-07T13:27:51.999Z</time></trkpt><trkpt lat="43.598201410089956" lon="2.7621158171645916"><ele>753.0</ele><time>2026-04-07T13:27:52.999Z</time></trkpt><trkpt lat="43.598169829542414" lon="2.762314720417283"><ele>753.0</ele><time>2026-04-07T13:27:53.999Z</time></trkpt><trkpt lat="43.59811992017164" lon="2.762508750432353"><ele>753.0</ele><time>2026-04-07T13:27:54.999Z</time></trkpt><trkpt lat="43.59809991108015" lon="2.7627088751590745"><ele>753.0</ele><time>2026-04-07T13:27:55.999Z</time></trkpt><trkpt lat="43.59807050867322" lon="2.7629050744932666"><ele>756.3333333333334</ele><time>2026-04-07T13:27:56.999Z</time></trkpt><trkpt lat="43.598032519353254" lon="2.7630978268606583"><ele>759.6666666666667</ele><time>2026-04-07T13:27:57.999Z</time></trkpt><trkpt lat="43.598007707310046" lon="2.763306207473314"><ele>763.0</ele><time>2026-04-07T13:27:58.999Z</time></trkpt><trkpt lat="43.59797682633792" lon="2.7635148948594304"><ele>763.0</ele><time>2026-04-07T13:27:59.999Z</time></trkpt><trkpt lat="43.597966239407526" lon="2.763725546822024"><ele>763.0</ele><time>2026-04-07T13:28:00.999Z</time></trkpt><trkpt lat="43.5979257750739" lon="2.763924286863946"><ele>763.0</ele><time>2026-04-07T13:28:01.999Z</time></trkpt><trkpt lat="43.59790393970568" lon="2.764128128161186"><ele>763.0</ele><time>2026-04-07T13:28:02.999Z</time></trkpt><trkpt lat="43.5978846998622" lon="2.764313740880238"><ele>763.0</ele><time>2026-04-07T13:28:03.999Z</time></trkpt><trkpt lat="43.59787877894848" lon="2.7645312194547533"><ele>763.0</ele><time>2026-04-07T13:28:04.999Z</time></trkpt><trkpt lat="43.597880898155424" lon="2.7647222751848215"><ele>763.0</ele><time>2026-04-07T13:28:05.999Z</time></trkpt><trkpt lat="43.59787713952711" lon="2.764929138011639"><ele>764.25</ele><time>2026-04-07T13:28:06.999Z</time></trkpt><trkpt lat="43.59788592759125" lon="2.7651278510465724"><ele>765.5</ele><time>2026-04-07T13:28:07.999Z</time></trkpt><trkpt lat="43.597889472028825" lon="2.765332432019566"><ele>766.75</ele><time>2026-04-07T13:28:08.999Z</time></trkpt><trkpt lat="43.59789498109252" lon="2.7655371793491"><ele>768.0</ele><time>2026-04-07T13:28:09.999Z</time></trkpt><trkpt lat="43.59790836571718" lon="2.765728816704906"><ele>768.25</ele><time>2026-04-07T13:28:10.999Z</time></trkpt><trkpt lat="43.59792115882434" lon="2.7659226375164447"><ele>768.5</ele><time>2026-04-07T13:28:11.999Z</time></trkpt><trkpt lat="43.59791497451082" lon="2.7661226738353246"><ele>768.75</ele><time>2026-04-07T13:28:12.999Z</time></trkpt><trkpt lat="43.59793916949002" lon="2.766343888595659"><ele>769.0</ele><time>2026-04-07T13:28:13.999Z</time></trkpt><trkpt lat="43.59797023676995" lon="2.766577172496948"><ele>769.0</ele><time>2026-04-07T13:28:14.999Z</time></trkpt><trkpt lat="43.59799297739417" lon="2.7668208022801672"><ele>769.0</ele><time>2026-04-07T13:28:15.999Z</time></trkpt><trkpt lat="43.5980169818631" lon="2.767077972153032"><ele>769.0</ele><time>2026-04-07T13:28:16.999Z</time></trkpt><trkpt lat="43.598037377624365" lon="2.7672964804618845"><ele>767.5</ele><time>2026-04-07T13:28:17.999Z</time></trkpt><trkpt lat="43.59804812711423" lon="2.7674116441203753"><ele>766.0</ele><time>2026-04-07T13:28:18.999Z</time></trkpt><trkpt lat="43.59806538707709" lon="2.7675965572866765"><ele>764.5</ele><time>2026-04-07T13:28:19.999Z</time></trkpt><trkpt lat="43.598095555427165" lon="2.767789562162194"><ele>763.0</ele><time>2026-04-07T13:28:20.999Z</time></trkpt><trkpt lat="43.59811798858693" lon="2.7679955329888886"><ele>763.0</ele><time>2026-04-07T13:28:21.999Z</time></trkpt><trkpt lat="43.59813599973426" lon="2.7681955909850915"><ele>763.0</ele><time>2026-04-07T13:28:22.999Z</time></trkpt><trkpt lat="43.59813901148501" lon="2.7683983033510535"><ele>763.0</ele><time>2026-04-07T13:28:23.999Z</time></trkpt><trkpt lat="43.598155879817064" lon="2.768584854700432"><ele>763.0</ele><time>2026-04-07T13:28:24.999Z</time></trkpt><trkpt lat="43.59817283449308" lon="2.768770064814462"><ele>763.0</ele><time>2026-04-07T13:28:25.999Z</time></trkpt><trkpt lat="43.598206382134784" lon="2.7689510698678257"><ele>763.0</ele><time>2026-04-07T13:28:26.998Z</time></trkpt><trkpt lat="43.59820788240176" lon="2.769135336440319"><ele>763.0</ele><time>2026-04-07T13:28:27.998Z</time></trkpt><trkpt lat="43.59822745169281" lon="2.769315150005264"><ele>763.0</ele><time>2026-04-07T13:28:28.998Z</time></trkpt><trkpt lat="43.59825409199742" lon="2.7695115172731435"><ele>762.0</ele><time>2026-04-07T13:28:29.998Z</time></trkpt><trkpt lat="43.59829671666938" lon="2.7696963228646667"><ele>761.0</ele><time>2026-04-07T13:28:30.998Z</time></trkpt><trkpt lat="43.59832422244586" lon="2.7698849847341225"><ele>760.0</ele><time>2026-04-07T13:28:31.998Z</time></trkpt><trkpt lat="43.59833751006046" lon="2.770074856970431"><ele>759.0</ele><time>2026-04-07T13:28:32.998Z</time></trkpt><trkpt lat="43.598366585535594" lon="2.7702651488059575"><ele>757.0</ele><time>2026-04-07T13:28:33.998Z</time></trkpt><trkpt lat="43.598394447343715" lon="2.770447497586045"><ele>755.0</ele><time>2026-04-07T13:28:34.998Z</time></trkpt><trkpt lat="43.598435148956106" lon="2.7706342299116296"><ele>753.0</ele><time>2026-04-07T13:28:35.998Z</time></trkpt><trkpt lat="43.598464276110576" lon="2.770825095263574"><ele>751.0</ele><time>2026-04-07T13:28:36.998Z</time></trkpt><trkpt lat="43.59849561134413" lon="2.771016086704006"><ele>749.75</ele><time>2026-04-07T13:28:37.998Z</time></trkpt><trkpt lat="43.598521298571384" lon="2.77120724061096"><ele>748.5</ele><time>2026-04-07T13:28:38.998Z</time></trkpt><trkpt lat="43.59854911376888" lon="2.7714100474257233"><ele>747.25</ele><time>2026-04-07T13:28:39.998Z</time></trkpt><trkpt lat="43.59858124914317" lon="2.7716113070752644"><ele>746.0</ele><time>2026-04-07T13:28:40.998Z</time></trkpt><trkpt lat="43.598596996948714" lon="2.771817273211318"><ele>745.6666666666666</ele><time>2026-04-07T13:28:41.998Z</time></trkpt><trkpt lat="43.5986272137857" lon="2.7720239082518794"><ele>745.3333333333334</ele><time>2026-04-07T13:28:42.998Z</time></trkpt><trkpt lat="43.59866138599462" lon="2.772234436047566"><ele>745.0</ele><time>2026-04-07T13:28:43.998Z</time></trkpt><trkpt lat="43.59867625795035" lon="2.772481223327959"><ele>749.0</ele><time>2026-04-07T13:28:44.998Z</time></trkpt><trkpt lat="43.59866951292347" lon="2.7726877400875205"><ele>753.0</ele><time>2026-04-07T13:28:45.998Z</time></trkpt><trkpt lat="43.5987028462765" lon="2.7728777712890467"><ele>757.0</ele><time>2026-04-07T13:28:46.998Z</time></trkpt><trkpt lat="43.59871387010318" lon="2.7730765265171233"><ele>761.0</ele><time>2026-04-07T13:28:47.998Z</time></trkpt><trkpt lat="43.59871044794308" lon="2.77327436283691"><ele>761.0</ele><time>2026-04-07T13:28:48.998Z</time></trkpt><trkpt lat="43.598693233031575" lon="2.7734824234419806"><ele>761.0</ele><time>2026-04-07T13:28:49.998Z</time></trkpt><trkpt lat="43.59868454274012" lon="2.773688068626338"><ele>761.0</ele><time>2026-04-07T13:28:50.998Z</time></trkpt><trkpt lat="43.59869012995356" lon="2.7738891605074043"><ele>761.0</ele><time>2026-04-07T13:28:51.998Z</time></trkpt><trkpt lat="43.59868525067118" lon="2.7740867302162364"><ele>759.25</ele><time>2026-04-07T13:28:52.998Z</time></trkpt><trkpt lat="43.598686964834485" lon="2.77427891190469"><ele>757.5</ele><time>2026-04-07T13:28:53.998Z</time></trkpt><trkpt lat="43.59868318344365" lon="2.7744596665866466"><ele>755.75</ele><time>2026-04-07T13:28:54.998Z</time></trkpt><trkpt lat="43.59868193762865" lon="2.7746470066737734"><ele>754.0</ele><time>2026-04-07T13:28:55.998Z</time></trkpt><trkpt lat="43.59867344544964" lon="2.774810414333742"><ele>751.75</ele><time>2026-04-07T13:28:56.998Z</time></trkpt><trkpt lat="43.598665109611446" lon="2.774980720063189"><ele>749.5</ele><time>2026-04-07T13:28:57.998Z</time></trkpt><trkpt lat="43.59866259474097" lon="2.7751601645526693"><ele>747.25</ele><time>2026-04-07T13:28:58.998Z</time></trkpt><trkpt lat="43.59865623858399" lon="2.7753411500635914"><ele>745.0</ele><time>2026-04-07T13:28:59.998Z</time></trkpt><trkpt lat="43.59864947714567" lon="2.7755209412619894"><ele>745.0</ele><time>2026-04-07T13:29:00.998Z</time></trkpt><trkpt lat="43.598647965332695" lon="2.7756938439805965"><ele>745.0</ele><time>2026-04-07T13:29:01.998Z</time></trkpt><trkpt lat="43.59864155180965" lon="2.7758791916756382"><ele>745.0</ele><time>2026-04-07T13:29:02.998Z</time></trkpt><trkpt lat="43.59863811044848" lon="2.776065588990394"><ele>745.0</ele><time>2026-04-07T13:29:03.998Z</time></trkpt><trkpt lat="43.598643183951665" lon="2.7762485709431286"><ele>745.0</ele><time>2026-04-07T13:29:04.998Z</time></trkpt><trkpt lat="43.59863814858722" lon="2.7764425059730873"><ele>745.0</ele><time>2026-04-07T13:29:05.998Z</time></trkpt><trkpt lat="43.598629173388005" lon="2.776637215275286"><ele>745.0</ele><time>2026-04-07T13:29:06.998Z</time></trkpt><trkpt lat="43.59862284850469" lon="2.7768328580540116"><ele>745.0</ele><time>2026-04-07T13:29:07.998Z</time></trkpt><trkpt lat="43.59862042016125" lon="2.7770323839793822"><ele>745.25</ele><time>2026-04-07T13:29:08.998Z</time></trkpt><trkpt lat="43.59861423562216" lon="2.777230519592532"><ele>745.5</ele><time>2026-04-07T13:29:09.998Z</time></trkpt><trkpt lat="43.59861609808975" lon="2.77742548991139"><ele>745.75</ele><time>2026-04-07T13:29:10.997Z</time></trkpt><trkpt lat="43.59860214427701" lon="2.7776284529159336"><ele>746.0</ele><time>2026-04-07T13:29:11.997Z</time></trkpt><trkpt lat="43.59860118626153" lon="2.7778230133091806"><ele>746.5</ele><time>2026-04-07T13:29:13Z</time></trkpt><trkpt lat="43.59859793515339" lon="2.7780204890043043"><ele>747.0</ele><time>2026-04-07T13:29:14Z</time></trkpt><trkpt lat="43.59858712319996" lon="2.7782124068261522"><ele>747.5</ele><time>2026-04-07T13:29:15Z</time></trkpt><trkpt lat="43.59858211444484" lon="2.778397577909977"><ele>748.0</ele><time>2026-04-07T13:29:16Z</time></trkpt><trkpt lat="43.59858135052176" lon="2.7785841424048567"><ele>748.25</ele><time>2026-04-07T13:29:17Z</time></trkpt><trkpt lat="43.59857596707665" lon="2.7787644363535913"><ele>748.5</ele><time>2026-04-07T13:29:18Z</time></trkpt><trkpt lat="43.59857372461287" lon="2.7789408705650507"><ele>748.75</ele><time>2026-04-07T13:29:19Z</time></trkpt><trkpt lat="43.5985698867756" lon="2.779118073918765"><ele>749.0</ele><time>2026-04-07T13:29:20Z</time></trkpt><trkpt lat="43.59856475548615" lon="2.779292960262287"><ele>748.75</ele><time>2026-04-07T13:29:21Z</time></trkpt><trkpt lat="43.598563337373264" lon="2.779470456181498"><ele>748.5</ele><time>2026-04-07T13:29:22Z</time></trkpt><trkpt lat="43.59856046831458" lon="2.7796526822220122"><ele>748.25</ele><time>2026-04-07T13:29:23Z</time></trkpt><trkpt lat="43.59855694337245" lon="2.7798353211781697"><ele>748.0</ele><time>2026-04-07T13:29:24Z</time></trkpt><trkpt lat="43.59855209948442" lon="2.7800142807192065"><ele>748.0</ele><time>2026-04-07T13:29:25Z</time></trkpt><trkpt lat="43.59854444996761" lon="2.780195937528685"><ele>748.0</ele><time>2026-04-07T13:29:26Z</time></trkpt><trkpt lat="43.59854056414123" lon="2.780369656423755"><ele>748.0</ele><time>2026-04-07T13:29:27Z</time></trkpt><trkpt lat="43.59853050788918" lon="2.7805529582166986"><ele>748.0</ele><time>2026-04-07T13:29:28Z</time></trkpt><trkpt lat="43.59852791188404" lon="2.78072917610108"><ele>748.0</ele><time>2026-04-07T13:29:29Z</time></trkpt><trkpt lat="43.59852441354795" lon="2.780914062224546"><ele>748.0</ele><time>2026-04-07T13:29:30Z</time></trkpt><trkpt lat="43.59851540209142" lon="2.7811004666713224"><ele>748.0</ele><time>2026-04-07T13:29:31Z</time></trkpt><trkpt lat="43.598515154640346" lon="2.781287405842455"><ele>748.0</ele><time>2026-04-07T13:29:32Z</time></trkpt><trkpt lat="43.598520879954464" lon="2.7814790371740146"><ele>748.25</ele><time>2026-04-07T13:29:33Z</time></trkpt><trkpt lat="43.598501914791306" lon="2.781674852440335"><ele>748.5</ele><time>2026-04-07T13:29:34Z</time></trkpt><trkpt lat="43.59850652796772" lon="2.7818701501137655"><ele>748.75</ele><time>2026-04-07T13:29:35Z</time></trkpt><trkpt lat="43.59850643815025" lon="2.7820692659872006"><ele>749.0</ele><time>2026-04-07T13:29:36Z</time></trkpt><trkpt lat="43.59849596667264" lon="2.782266144339558"><ele>749.5</ele><time>2026-04-07T13:29:37Z</time></trkpt><trkpt lat="43.59850854344928" lon="2.7824830656738073"><ele>750.0</ele><time>2026-04-07T13:29:38Z</time></trkpt><trkpt lat="43.59849874459221" lon="2.78269939142433"><ele>750.5</ele><time>2026-04-07T13:29:39Z</time></trkpt><trkpt lat="43.59851610040168" lon="2.782883627358876"><ele>751.0</ele><time>2026-04-07T13:29:40Z</time></trkpt><trkpt lat="43.598524135481085" lon="2.783085119796543"><ele>751.75</ele><time>2026-04-07T13:29:41Z</time></trkpt><trkpt lat="43.5985237136554" lon="2.783280934934033"><ele>752.5</ele><time>2026-04-07T13:29:42Z</time></trkpt><trkpt lat="43.5985262099755" lon="2.7834771158924854"><ele>753.25</ele><time>2026-04-07T13:29:43Z</time></trkpt><trkpt lat="43.59853017080452" lon="2.7836715495343016"><ele>754.0</ele><time>2026-04-07T13:29:44Z</time></trkpt><trkpt lat="43.59854962200383" lon="2.783855117483242"><ele>754.75</ele><time>2026-04-07T13:29:45Z</time></trkpt><trkpt lat="43.59857003279349" lon="2.784041944276575"><ele>755.5</ele><time>2026-04-07T13:29:46Z</time></trkpt><trkpt lat="43.59859412304438" lon="2.7842299828446375"><ele>756.25</ele><time>2026-04-07T13:29:47Z</time></trkpt><trkpt lat="43.59861743771111" lon="2.7844128840801123"><ele>757.0</ele><time>2026-04-07T13:29:48Z</time></trkpt><trkpt lat="43.598641230532586" lon="2.784592875326333"><ele>757.25</ele><time>2026-04-07T13:29:48.999Z</time></trkpt><trkpt lat="43.59866253608614" lon="2.7847731711295367"><ele>757.5</ele><time>2026-04-07T13:29:49.999Z</time></trkpt><trkpt lat="43.59867834807271" lon="2.7849502007820712"><ele>757.75</ele><time>2026-04-07T13:29:50.999Z</time></trkpt><trkpt lat="43.598692655505914" lon="2.7851222189173637"><ele>758.0</ele><time>2026-04-07T13:29:51.999Z</time></trkpt><trkpt lat="43.59871866021994" lon="2.7852887410814278"><ele>762.5</ele><time>2026-04-07T13:29:52.999Z</time></trkpt><trkpt lat="43.59876542237758" lon="2.785437878896973"><ele>767.0</ele><time>2026-04-07T13:29:53.999Z</time></trkpt><trkpt lat="43.5988403438015" lon="2.7855684479561873"><ele>771.5</ele><time>2026-04-07T13:29:54.999Z</time></trkpt><trkpt lat="43.5989295924438" lon="2.7856778268492333"><ele>776.0</ele><time>2026-04-07T13:29:55.999Z</time></trkpt><trkpt lat="43.59902930244593" lon="2.785754264680816"><ele>776.0</ele><time>2026-04-07T13:29:56.999Z</time></trkpt><trkpt lat="43.59913350600672" lon="2.7858220344884286"><ele>776.0</ele><time>2026-04-07T13:29:57.999Z</time></trkpt><trkpt lat="43.59922340630844" lon="2.785902042542381"><ele>776.0</ele><time>2026-04-07T13:29:58.999Z</time></trkpt><trkpt lat="43.59929238023226" lon="2.7860308310724804"><ele>776.0</ele><time>2026-04-07T13:29:59.999Z</time></trkpt><trkpt lat="43.599346269186505" lon="2.786168979431182"><ele>773.4</ele><time>2026-04-07T13:30:00.999Z</time></trkpt><trkpt lat="43.59939179423648" lon="2.7863121376806097"><ele>770.8</ele><time>2026-04-07T13:30:01.999Z</time></trkpt><trkpt lat="43.599435571287835" lon="2.7864592219096167"><ele>768.1999999999999</ele><time>2026-04-07T13:30:02.999Z</time></trkpt><trkpt lat="43.599482042871806" lon="2.7865919862231046"><ele>765.5999999999999</ele><time>2026-04-07T13:30:03.999Z</time></trkpt><trkpt lat="43.599530788699326" lon="2.786702124747555"><ele>763.0</ele><time>2026-04-07T13:30:04.999Z</time></trkpt><trkpt lat="43.59960386175787" lon="2.7867597331049616"><ele>763.0</ele><time>2026-04-07T13:30:05.999Z</time></trkpt><trkpt lat="43.599706109974456" lon="2.786761875770332"><ele>763.0</ele><time>2026-04-07T13:30:06.999Z</time></trkpt><trkpt lat="43.59981809849973" lon="2.7867130607346104"><ele>763.0</ele><time>2026-04-07T13:30:07.999Z</time></trkpt><trkpt lat="43.59992137471208" lon="2.7866172282663726"><ele>763.0</ele><time>2026-04-07T13:30:08.999Z</time></trkpt><trkpt lat="43.600018115416574" lon="2.7865081224672577"><ele>763.0</ele><time>2026-04-07T13:30:09.999Z</time></trkpt><trkpt lat="43.60011529231058" lon="2.7864067508291788"><ele>763.0</ele><time>2026-04-07T13:30:10.999Z</time></trkpt><trkpt lat="43.6002152680037" lon="2.786308378225796"><ele>763.0</ele><time>2026-04-07T13:30:11.999Z</time></trkpt><trkpt lat="43.600317372495624" lon="2.786201836604155"><ele>763.0</ele><time>2026-04-07T13:30:12.999Z</time></trkpt><trkpt lat="43.600409018878885" lon="2.7860612400151967"><ele>765.25</ele><time>2026-04-07T13:30:13.999Z</time></trkpt><trkpt lat="43.600513018843" lon="2.785896147512002"><ele>767.5</ele><time>2026-04-07T13:30:14.999Z</time></trkpt><trkpt lat="43.60057688950012" lon="2.7857970559900114"><ele>769.75</ele><time>2026-04-07T13:30:15.999Z</time></trkpt><trkpt lat="43.6006604593309" lon="2.7856908906027598"><ele>772.0</ele><time>2026-04-07T13:30:16.999Z</time></trkpt><trkpt lat="43.600745435225726" lon="2.7856019791992708"><ele>772.0</ele><time>2026-04-07T13:30:17.999Z</time></trkpt><trkpt lat="43.600829241307004" lon="2.785522584249153"><ele>772.0</ele><time>2026-04-07T13:30:18.999Z</time></trkpt><trkpt lat="43.60091684480796" lon="2.785461618329169"><ele>772.0</ele><time>2026-04-07T13:30:19.999Z</time></trkpt><trkpt lat="43.60099950651666" lon="2.785389773886453"><ele>772.0</ele><time>2026-04-07T13:30:20.999Z</time></trkpt><trkpt lat="43.60108937699286" lon="2.7853231766617195"><ele>772.0</ele><time>2026-04-07T13:30:21.999Z</time></trkpt><trkpt lat="43.601185604948625" lon="2.78525859490617"><ele>769.5</ele><time>2026-04-07T13:30:22.999Z</time></trkpt><trkpt lat="43.601290899034886" lon="2.7852047639889967"><ele>767.0</ele><time>2026-04-07T13:30:23.999Z</time></trkpt><trkpt lat="43.60141026301175" lon="2.7851838341827033"><ele>764.5</ele><time>2026-04-07T13:30:24.999Z</time></trkpt><trkpt lat="43.60153589106087" lon="2.7851907901765847"><ele>762.0</ele><time>2026-04-07T13:30:25.999Z</time></trkpt><trkpt lat="43.60165346075221" lon="2.78523022347232"><ele>762.0</ele><time>2026-04-07T13:30:26.999Z</time></trkpt><trkpt lat="43.60177045131123" lon="2.7853122631978815"><ele>762.0</ele><time>2026-04-07T13:30:27.999Z</time></trkpt><trkpt lat="43.601860466131335" lon="2.78540565045782"><ele>762.0</ele><time>2026-04-07T13:30:28.999Z</time></trkpt><trkpt lat="43.60193865280836" lon="2.7855104055142377"><ele>762.0</ele><time>2026-04-07T13:30:29.999Z</time></trkpt><trkpt lat="43.60201713573129" lon="2.785624072812291"><ele>764.0</ele><time>2026-04-07T13:30:30.999Z</time></trkpt><trkpt lat="43.60208503972663" lon="2.7857459533769053"><ele>766.0</ele><time>2026-04-07T13:30:31.999Z</time></trkpt><trkpt lat="43.60215399751039" lon="2.785885736093149"><ele>768.0</ele><time>2026-04-07T13:30:32.998Z</time></trkpt><trkpt lat="43.60219873018668" lon="2.7860241763179445"><ele>770.0</ele><time>2026-04-07T13:30:33.998Z</time></trkpt><trkpt lat="43.6022361285199" lon="2.786176426206992"><ele>770.0</ele><time>2026-04-07T13:30:34.998Z</time></trkpt><trkpt lat="43.602270436902124" lon="2.786334665030017"><ele>770.0</ele><time>2026-04-07T13:30:35.998Z</time></trkpt><trkpt lat="43.60229490253204" lon="2.786498271794319"><ele>770.0</ele><time>2026-04-07T13:30:36.998Z</time></trkpt><trkpt lat="43.60233388929959" lon="2.7866643131757973"><ele>770.0</ele><time>2026-04-07T13:30:37.998Z</time></trkpt><trkpt lat="43.60236833541396" lon="2.7868299145766775"><ele>768.75</ele><time>2026-04-07T13:30:38.998Z</time></trkpt><trkpt lat="43.602398148884134" lon="2.7870027808337974"><ele>767.5</ele><time>2026-04-07T13:30:39.998Z</time></trkpt><trkpt lat="43.602432784335306" lon="2.7871751932122293"><ele>766.25</ele><time>2026-04-07T13:30:40.998Z</time></trkpt><trkpt lat="43.60246634074155" lon="2.7873500616867255"><ele>765.0</ele><time>2026-04-07T13:30:41.998Z</time></trkpt><trkpt lat="43.60249917674886" lon="2.7875224277670925"><ele>765.25</ele><time>2026-04-07T13:30:42.998Z</time></trkpt><trkpt lat="43.60252104433238" lon="2.7876890683792435"><ele>765.5</ele><time>2026-04-07T13:30:43.998Z</time></trkpt><trkpt lat="43.60253230255999" lon="2.787863662722683"><ele>765.75</ele><time>2026-04-07T13:30:44.998Z</time></trkpt><trkpt lat="43.60253896815974" lon="2.788047428223934"><ele>766.0</ele><time>2026-04-07T13:30:45.998Z</time></trkpt><trkpt lat="43.60255921837917" lon="2.788231505955759"><ele>766.0</ele><time>2026-04-07T13:30:46.998Z</time></trkpt><trkpt lat="43.60257743514945" lon="2.7884207290042764"><ele>766.0</ele><time>2026-04-07T13:30:47.998Z</time></trkpt><trkpt lat="43.60260865345116" lon="2.7886139668686605"><ele>766.0</ele><time>2026-04-07T13:30:48.998Z</time></trkpt><trkpt lat="43.60266440065699" lon="2.7888225851469817"><ele>766.0</ele><time>2026-04-07T13:30:49.998Z</time></trkpt><trkpt lat="43.60270585778956" lon="2.789022966557125"><ele>765.6666666666667</ele><time>2026-04-07T13:30:50.998Z</time></trkpt><trkpt lat="43.602753316537004" lon="2.7892388294756243"><ele>765.3333333333334</ele><time>2026-04-07T13:30:51.998Z</time></trkpt><trkpt lat="43.60280909553993" lon="2.7894683499038493"><ele>765.0</ele><time>2026-04-07T13:30:52.998Z</time></trkpt><trkpt lat="43.602868654406855" lon="2.7897013700962803"><ele>768.6666666666667</ele><time>2026-04-07T13:30:53.998Z</time></trkpt><trkpt lat="43.602920682443845" lon="2.7899306459833144"><ele>772.3333333333334</ele><time>2026-04-07T13:30:54.998Z</time></trkpt><trkpt lat="43.60298253202847" lon="2.790170962523072"><ele>776.0</ele><time>2026-04-07T13:30:55.998Z</time></trkpt><trkpt lat="43.603007167800804" lon="2.790342402605652"><ele>776.0</ele><time>2026-04-07T13:30:57.998Z</time></trkpt><trkpt lat="43.60303446686063" lon="2.79052667938212"><ele>776.0</ele><time>2026-04-07T13:30:58.998Z</time></trkpt><trkpt lat="43.60305846780103" lon="2.7907063716785387"><ele>776.0</ele><time>2026-04-07T13:30:59.998Z</time></trkpt><trkpt lat="43.60308596509992" lon="2.790857075769425"><ele>776.0</ele><time>2026-04-07T13:31:00.998Z</time></trkpt><trkpt lat="43.60309870053151" lon="2.7910140729711532"><ele>774.8</ele><time>2026-04-07T13:31:01.998Z</time></trkpt><trkpt lat="43.60311470870727" lon="2.791161740321952"><ele>773.5999999999999</ele><time>2026-04-07T13:31:02.998Z</time></trkpt><trkpt lat="43.603131405591185" lon="2.791294264109818"><ele>772.4</ele><time>2026-04-07T13:31:03.998Z</time></trkpt><trkpt lat="43.603156735562365" lon="2.7914237943214197"><ele>771.2</ele><time>2026-04-07T13:31:04.998Z</time></trkpt><trkpt lat="43.60319549772864" lon="2.791546390324494"><ele>770.0</ele><time>2026-04-07T13:31:05.998Z</time></trkpt><trkpt lat="43.6032675025443" lon="2.7916564448299703"><ele>770.0</ele><time>2026-04-07T13:31:06.998Z</time></trkpt><trkpt lat="43.60334582363227" lon="2.7917455884488827"><ele>770.0</ele><time>2026-04-07T13:31:07.998Z</time></trkpt><trkpt lat="43.603451884146864" lon="2.7918298016471574"><ele>770.0</ele><time>2026-04-07T13:31:08.998Z</time></trkpt><trkpt lat="43.60357144078223" lon="2.7918708165141504"><ele>770.0</ele><time>2026-04-07T13:31:09.998Z</time></trkpt><trkpt lat="43.603685006677566" lon="2.7918917645377697"><ele>770.0</ele><time>2026-04-07T13:31:10.998Z</time></trkpt><trkpt lat="43.60379228387916" lon="2.7919243890220837"><ele>770.0</ele><time>2026-04-07T13:31:11.998Z</time></trkpt><trkpt lat="43.60390025813504" lon="2.7919744448735786"><ele>770.0</ele><time>2026-04-07T13:31:12.998Z</time></trkpt><trkpt lat="43.6040052640154" lon="2.7920363296958293"><ele>770.0</ele><time>2026-04-07T13:31:13.998Z</time></trkpt><trkpt lat="43.60411132007892" lon="2.792100117855264"><ele>770.0</ele><time>2026-04-07T13:31:14.998Z</time></trkpt><trkpt lat="43.6042095391563" lon="2.7921633888177197"><ele>770.0</ele><time>2026-04-07T13:31:15.998Z</time></trkpt><trkpt lat="43.60429502059783" lon="2.792226546015016"><ele>770.0</ele><time>2026-04-07T13:31:16.998Z</time></trkpt><trkpt lat="43.604385796630915" lon="2.7922937797642566"><ele>770.0</ele><time>2026-04-07T13:31:17.997Z</time></trkpt><trkpt lat="43.60447479945133" lon="2.7923621652741657"><ele>770.0</ele><time>2026-04-07T13:31:19Z</time></trkpt><trkpt lat="43.604558178738095" lon="2.792453849303224"><ele>771.75</ele><time>2026-04-07T13:31:20Z</time></trkpt><trkpt lat="43.60461900268293" lon="2.792566591961216"><ele>773.5</ele><time>2026-04-07T13:31:21Z</time></trkpt><trkpt lat="43.60463658094414" lon="2.7927162178759923"><ele>775.25</ele><time>2026-04-07T13:31:22Z</time></trkpt><trkpt lat="43.60465640338562" lon="2.7928721424591987"><ele>777.0</ele><time>2026-04-07T13:31:23Z</time></trkpt><trkpt lat="43.60474218952445" lon="2.7929991620595245"><ele>777.0</ele><time>2026-04-07T13:31:24Z</time></trkpt><trkpt lat="43.6048419884262" lon="2.793080589385383"><ele>777.0</ele><time>2026-04-07T13:31:25Z</time></trkpt><trkpt lat="43.60491458488457" lon="2.793186240523214"><ele>777.0</ele><time>2026-04-07T13:31:26Z</time></trkpt><trkpt lat="43.604992401775995" lon="2.793290814861662"><ele>777.0</ele><time>2026-04-07T13:31:27Z</time></trkpt><trkpt lat="43.60502250617827" lon="2.793413717746996"><ele>777.0</ele><time>2026-04-07T13:31:28Z</time></trkpt><trkpt lat="43.60505331012057" lon="2.7935420780462494"><ele>775.8333333333334</ele><time>2026-04-07T13:31:29Z</time></trkpt><trkpt lat="43.605089019706696" lon="2.7936621691832078"><ele>774.6666666666667</ele><time>2026-04-07T13:31:30Z</time></trkpt><trkpt lat="43.60510707311738" lon="2.7937839683824706"><ele>773.5</ele><time>2026-04-07T13:31:31Z</time></trkpt><trkpt lat="43.6051341057907" lon="2.7938900122386294"><ele>772.3333333333334</ele><time>2026-04-07T13:31:32Z</time></trkpt><trkpt lat="43.605140685897666" lon="2.7940097953599436"><ele>771.1666666666667</ele><time>2026-04-07T13:31:33Z</time></trkpt><trkpt lat="43.60516382799469" lon="2.7941228709806265"><ele>770.0</ele><time>2026-04-07T13:31:34Z</time></trkpt><trkpt lat="43.60518397284719" lon="2.7942418831576807"><ele>769.8</ele><time>2026-04-07T13:31:35Z</time></trkpt><trkpt lat="43.605206444238995" lon="2.7943573468722316"><ele>769.6</ele><time>2026-04-07T13:31:36Z</time></trkpt><trkpt lat="43.60523091733283" lon="2.7944748589837576"><ele>769.4000000000001</ele><time>2026-04-07T13:31:37Z</time></trkpt><trkpt lat="43.6052574541631" lon="2.7945967754383263"><ele>769.2</ele><time>2026-04-07T13:31:38Z</time></trkpt><trkpt lat="43.60527168857742" lon="2.7947309527834543"><ele>769.0</ele><time>2026-04-07T13:31:39Z</time></trkpt><trkpt lat="43.60529530856407" lon="2.7948598069289403"><ele>768.9999999999999</ele><time>2026-04-07T13:31:40Z</time></trkpt><trkpt lat="43.60531224786084" lon="2.7949759787619244"><ele>769.0</ele><time>2026-04-07T13:31:41Z</time></trkpt><trkpt lat="43.60533403032515" lon="2.7950856674293014"><ele>769.0</ele><time>2026-04-07T13:31:42Z</time></trkpt><trkpt lat="43.605348859253446" lon="2.7951904002197505"><ele>769.0</ele><time>2026-04-07T13:31:43Z</time></trkpt><trkpt lat="43.60536806413964" lon="2.795287199175441"><ele>768.9999999999999</ele><time>2026-04-07T13:31:44Z</time></trkpt><trkpt lat="43.60538798348857" lon="2.795386539479832"><ele>769.0</ele><time>2026-04-07T13:31:45Z</time></trkpt><trkpt lat="43.60540910529732" lon="2.7954961562397287"><ele>769.8000000000001</ele><time>2026-04-07T13:31:46Z</time></trkpt><trkpt lat="43.60542747259552" lon="2.795617239398698"><ele>770.6</ele><time>2026-04-07T13:31:47Z</time></trkpt><trkpt lat="43.605448471432396" lon="2.795740599875861"><ele>771.4</ele><time>2026-04-07T13:31:48Z</time></trkpt><trkpt lat="43.60547158700807" lon="2.7958701495201037"><ele>772.2</ele><time>2026-04-07T13:31:49Z</time></trkpt><trkpt lat="43.60549586350414" lon="2.7960028101757097"><ele>773.0</ele><time>2026-04-07T13:31:50Z</time></trkpt><trkpt lat="43.60551905065902" lon="2.7961374831742813"><ele>773.0</ele><time>2026-04-07T13:31:51Z</time></trkpt><trkpt lat="43.605544821203196" lon="2.796275698935423"><ele>773.0</ele><time>2026-04-07T13:31:52Z</time></trkpt><trkpt lat="43.60557056974384" lon="2.796416572187367"><ele>773.0</ele><time>2026-04-07T13:31:53Z</time></trkpt><trkpt lat="43.60559647461082" lon="2.7965635634316097"><ele>773.0</ele><time>2026-04-07T13:31:54Z</time></trkpt><trkpt lat="43.60561560392098" lon="2.7966998149486018"><ele>773.0</ele><time>2026-04-07T13:31:54.999Z</time></trkpt><trkpt lat="43.605633046765455" lon="2.7968403075581327"><ele>772.5000000000001</ele><time>2026-04-07T13:31:55.999Z</time></trkpt><trkpt lat="43.60565307758196" lon="2.796974927903755"><ele>772.0</ele><time>2026-04-07T13:31:56.999Z</time></trkpt><trkpt lat="43.60566787317379" lon="2.7970960215873184"><ele>771.5</ele><time>2026-04-07T13:31:57.999Z</time></trkpt><trkpt lat="43.605692512676875" lon="2.7972104056805205"><ele>771.0</ele><time>2026-04-07T13:31:58.999Z</time></trkpt><trkpt lat="43.605713737234105" lon="2.7973095869149014"><ele>770.5000000000001</ele><time>2026-04-07T13:31:59.999Z</time></trkpt><trkpt lat="43.6057366607119" lon="2.797406649159036"><ele>770.0</ele><time>2026-04-07T13:32:00.999Z</time></trkpt><trkpt lat="43.60576262500374" lon="2.7975007513246912"><ele>770.0000000000001</ele><time>2026-04-07T13:32:01.999Z</time></trkpt><trkpt lat="43.60580159623795" lon="2.7975989036066258"><ele>770.0</ele><time>2026-04-07T13:32:02.999Z</time></trkpt><trkpt lat="43.605851538379575" lon="2.797704579349502"><ele>770.0</ele><time>2026-04-07T13:32:03.999Z</time></trkpt><trkpt lat="43.60591005364632" lon="2.797792603821052"><ele>770.0</ele><time>2026-04-07T13:32:04.999Z</time></trkpt><trkpt lat="43.605961037436934" lon="2.797868894975345"><ele>770.0000000000001</ele><time>2026-04-07T13:32:05.999Z</time></trkpt><trkpt lat="43.60600742935444" lon="2.7979416512591495"><ele>770.0</ele><time>2026-04-07T13:32:06.999Z</time></trkpt><trkpt lat="43.606051071149125" lon="2.798004882313055"><ele>771.0</ele><time>2026-04-07T13:32:08.999Z</time></trkpt><trkpt lat="43.60616477924101" lon="2.7978808907239805"><ele>777.0</ele><time>2026-04-07T13:32:12.999Z</time></trkpt><trkpt lat="43.60622726846574" lon="2.797835745201171"><ele>777.0</ele><time>2026-04-07T13:32:14.999Z</time></trkpt></trkseg><trkseg><trkpt lat="43.606173975674594" lon="2.797906309737927"><ele>777.0</ele><time>2026-04-07T13:59:46Z</time></trkpt><trkpt lat="43.60609453117898" lon="2.7979330814969923"><ele>777.0</ele><time>2026-04-07T13:59:48Z</time></trkpt><trkpt lat="43.606091165153785" lon="2.7980646306905443"><ele>777.0</ele><time>2026-04-07T13:59:50Z</time></trkpt><trkpt lat="43.606126404358" lon="2.798152574923765"><ele>777.0</ele><time>2026-04-07T13:59:51Z</time></trkpt><trkpt lat="43.606180446949935" lon="2.7982625743743124"><ele>777.0</ele><time>2026-04-07T13:59:52Z</time></trkpt><trkpt lat="43.606213273474474" lon="2.798362955327754"><ele>777.0</ele><time>2026-04-07T13:59:53Z</time></trkpt><trkpt lat="43.60625680944902" lon="2.79846915001055"><ele>776.0</ele><time>2026-04-07T13:59:54Z</time></trkpt><trkpt lat="43.60629624400672" lon="2.7985932449192545"><ele>775.0</ele><time>2026-04-07T13:59:55Z</time></trkpt><trkpt lat="43.606337240302786" lon="2.798705881918728"><ele>774.0</ele><time>2026-04-07T13:59:56Z</time></trkpt><trkpt lat="43.60637045348773" lon="2.798799987285722"><ele>773.0</ele><time>2026-04-07T13:59:57Z</time></trkpt><trkpt lat="43.6064177075594" lon="2.7989483552977656"><ele>772.0</ele><time>2026-04-07T13:59:59Z</time></trkpt><trkpt lat="43.606416675693644" lon="2.7990467535124988"><ele>772.0</ele><time>2026-04-07T14:00:00Z</time></trkpt><trkpt lat="43.60635112813016" lon="2.7991353391731586"><ele>772.0</ele><time>2026-04-07T14:00:01Z</time></trkpt><trkpt lat="43.606310200207126" lon="2.7992473276436787"><ele>772.0</ele><time>2026-04-07T14:00:02Z</time></trkpt><trkpt lat="43.60626767923605" lon="2.7993638318963474"><ele>772.0</ele><time>2026-04-07T14:00:03Z</time></trkpt><trkpt lat="43.60622342712647" lon="2.799481659235542"><ele>772.0</ele><time>2026-04-07T14:00:04Z</time></trkpt><trkpt lat="43.606177854265546" lon="2.799594756251824"><ele>772.2</ele><time>2026-04-07T14:00:05Z</time></trkpt><trkpt lat="43.606127392309254" lon="2.7997129224003485"><ele>772.4000000000001</ele><time>2026-04-07T14:00:06Z</time></trkpt><trkpt lat="43.60608268516184" lon="2.7998190600449835"><ele>772.5999999999999</ele><time>2026-04-07T14:00:07Z</time></trkpt><trkpt lat="43.606005478209546" lon="2.7999554276805743"><ele>772.8</ele><time>2026-04-07T14:00:08Z</time></trkpt><trkpt lat="43.60593544127573" lon="2.800037836252245"><ele>773.0</ele><time>2026-04-07T14:00:09Z</time></trkpt><trkpt lat="43.605871089687184" lon="2.800112936996944"><ele>773.0000000000001</ele><time>2026-04-07T14:00:10Z</time></trkpt><trkpt lat="43.6058094986905" lon="2.8001536147851396"><ele>773.0</ele><time>2026-04-07T14:00:11Z</time></trkpt><trkpt lat="43.60574497494881" lon="2.8002060151063075"><ele>773.0</ele><time>2026-04-07T14:00:12Z</time></trkpt><trkpt lat="43.60571659524646" lon="2.8003271326601635"><ele>773.0</ele><time>2026-04-07T14:00:13Z</time></trkpt><trkpt lat="43.60572250061454" lon="2.8004407267857707"><ele>773.0000000000001</ele><time>2026-04-07T14:00:14Z</time></trkpt><trkpt lat="43.60575617032342" lon="2.8005287504917447"><ele>773.0</ele><time>2026-04-07T14:00:15Z</time></trkpt><trkpt lat="43.60581016427065" lon="2.800621665248029"><ele>774.5999999999999</ele><time>2026-04-07T14:00:16Z</time></trkpt><trkpt lat="43.60583752036682" lon="2.800746419022022"><ele>776.1999999999999</ele><time>2026-04-07T14:00:17Z</time></trkpt><trkpt lat="43.60585421104067" lon="2.8008853683387978"><ele>777.8</ele><time>2026-04-07T14:00:18Z</time></trkpt><trkpt lat="43.60589411503706" lon="2.801057558913794"><ele>779.4</ele><time>2026-04-07T14:00:19Z</time></trkpt><trkpt lat="43.60590793719164" lon="2.801213431099731"><ele>781.0</ele><time>2026-04-07T14:00:20Z</time></trkpt><trkpt lat="43.60592677723051" lon="2.8013745969927832"><ele>782.0</ele><time>2026-04-07T14:00:21Z</time></trkpt><trkpt lat="43.60592605096202" lon="2.801538589987195"><ele>783.0</ele><time>2026-04-07T14:00:22Z</time></trkpt><trkpt lat="43.60592392707234" lon="2.8017052561836673"><ele>784.0</ele><time>2026-04-07T14:00:22.999Z</time></trkpt><trkpt lat="43.6059158620832" lon="2.8018718835062777"><ele>785.0</ele><time>2026-04-07T14:00:23.999Z</time></trkpt><trkpt lat="43.60591020332999" lon="2.8020382727294546"><ele>785.5</ele><time>2026-04-07T14:00:24.999Z</time></trkpt><trkpt lat="43.60590092321604" lon="2.8022120432156736"><ele>786.0</ele><time>2026-04-07T14:00:25.999Z</time></trkpt><trkpt lat="43.605898666595635" lon="2.802387112182271"><ele>786.5</ele><time>2026-04-07T14:00:26.999Z</time></trkpt><trkpt lat="43.60590766692412" lon="2.8025571845402224"><ele>787.0</ele><time>2026-04-07T14:00:27.999Z</time></trkpt><trkpt lat="43.6059404559701" lon="2.8027129185460518"><ele>787.0</ele><time>2026-04-07T14:00:28.999Z</time></trkpt><trkpt lat="43.6059519580814" lon="2.802841806499165"><ele>787.0</ele><time>2026-04-07T14:00:29.999Z</time></trkpt><trkpt lat="43.60598318947837" lon="2.8029666700709908"><ele>787.0</ele><time>2026-04-07T14:00:30.999Z</time></trkpt><trkpt lat="43.606038332821186" lon="2.8031778812835975"><ele>787.0</ele><time>2026-04-07T14:00:31.999Z</time></trkpt><trkpt lat="43.606104485695894" lon="2.803348771495161"><ele>792.25</ele><time>2026-04-07T14:00:32.999Z</time></trkpt><trkpt lat="43.606174292277956" lon="2.803533299810711"><ele>797.5</ele><time>2026-04-07T14:00:33.999Z</time></trkpt><trkpt lat="43.60622003179511" lon="2.8036830292104846"><ele>802.75</ele><time>2026-04-07T14:00:34.999Z</time></trkpt><trkpt lat="43.60622485383841" lon="2.803836212346095"><ele>808.0</ele><time>2026-04-07T14:00:35.999Z</time></trkpt><trkpt lat="43.6062547210547" lon="2.8039948559832775"><ele>808.0</ele><time>2026-04-07T14:00:36.999Z</time></trkpt><trkpt lat="43.606275119310844" lon="2.8041550897938845"><ele>808.0</ele><time>2026-04-07T14:00:37.999Z</time></trkpt><trkpt lat="43.60628391766274" lon="2.804319040365517"><ele>808.0</ele><time>2026-04-07T14:00:38.999Z</time></trkpt><trkpt lat="43.60628390587708" lon="2.804483318072212"><ele>808.0</ele><time>2026-04-07T14:00:39.999Z</time></trkpt><trkpt lat="43.606281853646195" lon="2.804646137750759"><ele>808.25</ele><time>2026-04-07T14:00:40.999Z</time></trkpt><trkpt lat="43.6062829139621" lon="2.8048103158836217"><ele>808.5</ele><time>2026-04-07T14:00:41.999Z</time></trkpt><trkpt lat="43.606298355736214" lon="2.804980081979379"><ele>808.75</ele><time>2026-04-07T14:00:42.999Z</time></trkpt><trkpt lat="43.606308426476595" lon="2.805144144105504"><ele>809.0</ele><time>2026-04-07T14:00:43.999Z</time></trkpt><trkpt lat="43.60630704107262" lon="2.8053081238512334"><ele>809.75</ele><time>2026-04-07T14:00:44.999Z</time></trkpt><trkpt lat="43.60632717515554" lon="2.805472076575866"><ele>810.5</ele><time>2026-04-07T14:00:45.999Z</time></trkpt><trkpt lat="43.606345181643725" lon="2.8056343350758133"><ele>811.25</ele><time>2026-04-07T14:00:46.999Z</time></trkpt><trkpt lat="43.60635580612322" lon="2.805792013511014"><ele>812.0</ele><time>2026-04-07T14:00:47.999Z</time></trkpt><trkpt lat="43.60636285643739" lon="2.8059451983150225"><ele>813.0</ele><time>2026-04-07T14:00:48.999Z</time></trkpt><trkpt lat="43.60637707528636" lon="2.806108497566743"><ele>814.0</ele><time>2026-04-07T14:00:49.999Z</time></trkpt><trkpt lat="43.60638302271217" lon="2.806275511975342"><ele>815.0</ele><time>2026-04-07T14:00:50.999Z</time></trkpt><trkpt lat="43.606377913007044" lon="2.8064387123540766"><ele>816.0</ele><time>2026-04-07T14:00:51.999Z</time></trkpt><trkpt lat="43.60634698524415" lon="2.806607080893938"><ele>816.0</ele><time>2026-04-07T14:00:52.999Z</time></trkpt><trkpt lat="43.6062910260955" lon="2.8067658555055686"><ele>816.0</ele><time>2026-04-07T14:00:53.999Z</time></trkpt><trkpt lat="43.6062364857352" lon="2.806929604845274"><ele>816.0</ele><time>2026-04-07T14:00:54.999Z</time></trkpt><trkpt lat="43.60619976639545" lon="2.807087612728899"><ele>816.0</ele><time>2026-04-07T14:00:55.999Z</time></trkpt><trkpt lat="43.60615295265683" lon="2.8072475111478004"><ele>813.25</ele><time>2026-04-07T14:00:56.999Z</time></trkpt><trkpt lat="43.60613393236101" lon="2.807403888405197"><ele>810.5</ele><time>2026-04-07T14:00:57.999Z</time></trkpt><trkpt lat="43.606104741820594" lon="2.8075677922268967"><ele>807.75</ele><time>2026-04-07T14:00:58.999Z</time></trkpt><trkpt lat="43.60607993238731" lon="2.807729672428481"><ele>805.0</ele><time>2026-04-07T14:00:59.999Z</time></trkpt><trkpt lat="43.60604645594526" lon="2.8078808339947936"><ele>805.0</ele><time>2026-04-07T14:01:00.999Z</time></trkpt><trkpt lat="43.606023651869336" lon="2.80802895016076"><ele>805.0</ele><time>2026-04-07T14:01:01.999Z</time></trkpt><trkpt lat="43.605993155572364" lon="2.8081753262026417"><ele>805.0</ele><time>2026-04-07T14:01:02.999Z</time></trkpt><trkpt lat="43.60596762692606" lon="2.808320031068225"><ele>805.0</ele><time>2026-04-07T14:01:03.999Z</time></trkpt><trkpt lat="43.60594551960124" lon="2.8084660621920055"><ele>805.0</ele><time>2026-04-07T14:01:04.999Z</time></trkpt><trkpt lat="43.60593341195815" lon="2.808611073849097"><ele>805.8</ele><time>2026-04-07T14:01:05.999Z</time></trkpt><trkpt lat="43.605915097188806" lon="2.8087578895803866"><ele>806.6</ele><time>2026-04-07T14:01:06.999Z</time></trkpt><trkpt lat="43.60590452885452" lon="2.8089085167604773"><ele>807.4000000000001</ele><time>2026-04-07T14:01:07.999Z</time></trkpt><trkpt lat="43.605896955061304" lon="2.8090501393088863"><ele>808.2</ele><time>2026-04-07T14:01:08.998Z</time></trkpt><trkpt lat="43.60589221760461" lon="2.8091968821104585"><ele>809.0</ele><time>2026-04-07T14:01:09.998Z</time></trkpt><trkpt lat="43.60588880401101" lon="2.809343952583211"><ele>810.2</ele><time>2026-04-07T14:01:10.998Z</time></trkpt><trkpt lat="43.60588517146701" lon="2.8094891126347497"><ele>811.4000000000001</ele><time>2026-04-07T14:01:11.998Z</time></trkpt><trkpt lat="43.60590855184147" lon="2.8096342550787363"><ele>812.6</ele><time>2026-04-07T14:01:12.998Z</time></trkpt><trkpt lat="43.605919363424576" lon="2.8097669449593847"><ele>813.8</ele><time>2026-04-07T14:01:13.998Z</time></trkpt><trkpt lat="43.605926529182625" lon="2.8099038084916153"><ele>815.0</ele><time>2026-04-07T14:01:14.998Z</time></trkpt><trkpt lat="43.60591992303539" lon="2.8100507756574284"><ele>815.4</ele><time>2026-04-07T14:01:15.998Z</time></trkpt><trkpt lat="43.60590372625697" lon="2.810194454114505"><ele>815.8</ele><time>2026-04-07T14:01:16.998Z</time></trkpt><trkpt lat="43.60587223840219" lon="2.810294570644802"><ele>816.2</ele><time>2026-04-07T14:01:17.998Z</time></trkpt><trkpt lat="43.60583586938447" lon="2.8103894623295895"><ele>816.6</ele><time>2026-04-07T14:01:18.998Z</time></trkpt><trkpt lat="43.60581683237572" lon="2.810589093506708"><ele>817.0</ele><time>2026-04-07T14:01:19.998Z</time></trkpt><trkpt lat="43.605796692146775" lon="2.8107347508694747"><ele>817.0</ele><time>2026-04-07T14:01:20.998Z</time></trkpt><trkpt lat="43.605776535875336" lon="2.8108735999207966"><ele>817.0</ele><time>2026-04-07T14:01:21.998Z</time></trkpt><trkpt lat="43.60575795307921" lon="2.811009553006672"><ele>817.0</ele><time>2026-04-07T14:01:22.998Z</time></trkpt><trkpt lat="43.60574790106984" lon="2.81115138175773"><ele>817.0</ele><time>2026-04-07T14:01:23.998Z</time></trkpt><trkpt lat="43.60574841640048" lon="2.811297280044258"><ele>817.0</ele><time>2026-04-07T14:01:24.998Z</time></trkpt><trkpt lat="43.60575646120529" lon="2.8114406845247677"><ele>818.2</ele><time>2026-04-07T14:01:25.998Z</time></trkpt><trkpt lat="43.60578019524495" lon="2.8115821224016972"><ele>819.4000000000001</ele><time>2026-04-07T14:01:26.998Z</time></trkpt><trkpt lat="43.60582175904294" lon="2.811716585764114"><ele>820.5999999999999</ele><time>2026-04-07T14:01:27.998Z</time></trkpt><trkpt lat="43.60582644311964" lon="2.8118568057497146"><ele>821.8</ele><time>2026-04-07T14:01:28.998Z</time></trkpt><trkpt lat="43.6057851136176" lon="2.8119944446824765"><ele>823.0</ele><time>2026-04-07T14:01:29.998Z</time></trkpt><trkpt lat="43.60570476003887" lon="2.812105986002023"><ele>824.0</ele><time>2026-04-07T14:01:30.998Z</time></trkpt><trkpt lat="43.605586483997236" lon="2.8121561890953157"><ele>825.0</ele><time>2026-04-07T14:01:31.998Z</time></trkpt><trkpt lat="43.60546269025129" lon="2.812121843736401"><ele>826.0</ele><time>2026-04-07T14:01:32.998Z</time></trkpt><trkpt lat="43.60533853692092" lon="2.8121113138968643"><ele>827.0</ele><time>2026-04-07T14:01:33.998Z</time></trkpt><trkpt lat="43.60522514025447" lon="2.8121476798818477"><ele>827.0</ele><time>2026-04-07T14:01:34.998Z</time></trkpt><trkpt lat="43.60511895239528" lon="2.8122266901535036"><ele>827.0</ele><time>2026-04-07T14:01:35.998Z</time></trkpt><trkpt lat="43.60502499884078" lon="2.8123348884153576"><ele>827.0</ele><time>2026-04-07T14:01:36.998Z</time></trkpt><trkpt lat="43.60495372704995" lon="2.812477887305568"><ele>827.0</ele><time>2026-04-07T14:01:37.998Z</time></trkpt><trkpt lat="43.604908688129996" lon="2.812616811915028"><ele>828.0</ele><time>2026-04-07T14:01:38.998Z</time></trkpt><trkpt lat="43.6048888344216" lon="2.812759791544916"><ele>829.0</ele><time>2026-04-07T14:01:39.998Z</time></trkpt><trkpt lat="43.604878615814066" lon="2.812913391484131"><ele>830.0</ele><time>2026-04-07T14:01:40.998Z</time></trkpt><trkpt lat="43.60488411913706" lon="2.8130545015322954"><ele>831.0</ele><time>2026-04-07T14:01:41.998Z</time></trkpt><trkpt lat="43.604897264012635" lon="2.813201287651497"><ele>832.0</ele><time>2026-04-07T14:01:42.998Z</time></trkpt><trkpt lat="43.604910161093315" lon="2.8133370611599036"><ele>832.0</ele><time>2026-04-07T14:01:43.998Z</time></trkpt><trkpt lat="43.60492253890015" lon="2.8134773879566235"><ele>832.0</ele><time>2026-04-07T14:01:44.998Z</time></trkpt><trkpt lat="43.60492986975064" lon="2.8136143289475015"><ele>832.0</ele><time>2026-04-07T14:01:45.998Z</time></trkpt><trkpt lat="43.60492717064449" lon="2.8137401863094493"><ele>832.0</ele><time>2026-04-07T14:01:46.998Z</time></trkpt><trkpt lat="43.604940911492776" lon="2.8138760911193788"><ele>832.0</ele><time>2026-04-07T14:01:47.998Z</time></trkpt><trkpt lat="43.60494459781345" lon="2.814008922475432"><ele>832.0</ele><time>2026-04-07T14:01:48.998Z</time></trkpt><trkpt lat="43.60495146892008" lon="2.814138514983445"><ele>832.0</ele><time>2026-04-07T14:01:49.998Z</time></trkpt><trkpt lat="43.604962828271184" lon="2.814267673542357"><ele>832.0</ele><time>2026-04-07T14:01:50.998Z</time></trkpt><trkpt lat="43.60500145499269" lon="2.814399797143186"><ele>832.0</ele><time>2026-04-07T14:01:52Z</time></trkpt><trkpt lat="43.605085568383956" lon="2.8145190011717482"><ele>832.0</ele><time>2026-04-07T14:01:53Z</time></trkpt><trkpt lat="43.60518629700296" lon="2.8145918885953938"><ele>832.0</ele><time>2026-04-07T14:01:54Z</time></trkpt><trkpt lat="43.60530826403123" lon="2.8146013606035485"><ele>832.0</ele><time>2026-04-07T14:01:55Z</time></trkpt><trkpt lat="43.605435746410784" lon="2.8145545051018557"><ele>832.0</ele><time>2026-04-07T14:01:56Z</time></trkpt><trkpt lat="43.60553313547341" lon="2.8145072277240137"><ele>832.0</ele><time>2026-04-07T14:01:57Z</time></trkpt><trkpt lat="43.60562575265096" lon="2.814441509000057"><ele>833.6</ele><time>2026-04-07T14:01:58Z</time></trkpt><trkpt lat="43.6057062333978" lon="2.8143845907962954"><ele>835.2</ele><time>2026-04-07T14:01:59Z</time></trkpt><trkpt lat="43.605800392374924" lon="2.814325710797253"><ele>836.8</ele><time>2026-04-07T14:02:00Z</time></trkpt><trkpt lat="43.60591004266754" lon="2.814327579239769"><ele>838.4</ele><time>2026-04-07T14:02:01Z</time></trkpt><trkpt lat="43.606019349935586" lon="2.814346036995757"><ele>840.0</ele><time>2026-04-07T14:02:02Z</time></trkpt><trkpt lat="43.606139244381296" lon="2.814372467047806"><ele>846.0</ele><time>2026-04-07T14:02:03Z</time></trkpt><trkpt lat="43.60622781805375" lon="2.814464940463936"><ele>852.0</ele><time>2026-04-07T14:02:04Z</time></trkpt><trkpt lat="43.60630184564207" lon="2.814584243128942"><ele>858.0</ele><time>2026-04-07T14:02:05Z</time></trkpt><trkpt lat="43.60634997861159" lon="2.814751504179784"><ele>864.0</ele><time>2026-04-07T14:02:06Z</time></trkpt><trkpt lat="43.60637723537123" lon="2.8148953803914414"><ele>864.0</ele><time>2026-04-07T14:02:07Z</time></trkpt><trkpt lat="43.60642961694705" lon="2.8150267480079605"><ele>864.0000000000001</ele><time>2026-04-07T14:02:08Z</time></trkpt><trkpt lat="43.606465960968265" lon="2.815158840208987"><ele>864.0000000000001</ele><time>2026-04-07T14:02:09Z</time></trkpt><trkpt lat="43.60649244774979" lon="2.815285676964825"><ele>864.0</ele><time>2026-04-07T14:02:10Z</time></trkpt><trkpt lat="43.60652039454393" lon="2.8154180604476986"><ele>864.0</ele><time>2026-04-07T14:02:11Z</time></trkpt><trkpt lat="43.60653981279546" lon="2.815552191892153"><ele>864.0</ele><time>2026-04-07T14:02:12Z</time></trkpt><trkpt lat="43.606540937488774" lon="2.8156990634397325"><ele>864.0000000000001</ele><time>2026-04-07T14:02:13Z</time></trkpt><trkpt lat="43.60649634586448" lon="2.81584189880576"><ele>864.0000000000001</ele><time>2026-04-07T14:02:14Z</time></trkpt><trkpt lat="43.60643635372991" lon="2.815968877800775"><ele>864.0</ele><time>2026-04-07T14:02:15Z</time></trkpt><trkpt lat="43.60636602512241" lon="2.816088305272575"><ele>864.0</ele><time>2026-04-07T14:02:16Z</time></trkpt><trkpt lat="43.606304657072755" lon="2.8162105703074514"><ele>866.2</ele><time>2026-04-07T14:02:17Z</time></trkpt><trkpt lat="43.60623293007104" lon="2.8163238325688766"><ele>868.4000000000001</ele><time>2026-04-07T14:02:18Z</time></trkpt><trkpt lat="43.60616255251194" lon="2.816432986263473"><ele>870.6</ele><time>2026-04-07T14:02:19Z</time></trkpt><trkpt lat="43.60609286817474" lon="2.816552454909584"><ele>872.8</ele><time>2026-04-07T14:02:20Z</time></trkpt><trkpt lat="43.606018190461796" lon="2.816663255540489"><ele>875.0</ele><time>2026-04-07T14:02:21Z</time></trkpt><trkpt lat="43.605953847046926" lon="2.81678197950395"><ele>872.2</ele><time>2026-04-07T14:02:21.999Z</time></trkpt><trkpt lat="43.60591214665069" lon="2.8169031606627564"><ele>869.4</ele><time>2026-04-07T14:02:22.999Z</time></trkpt><trkpt lat="43.60587171970919" lon="2.8170324108897415"><ele>866.5999999999999</ele><time>2026-04-07T14:02:23.999Z</time></trkpt><trkpt lat="43.6058492266038" lon="2.817168917048855"><ele>863.8</ele><time>2026-04-07T14:02:24.999Z</time></trkpt><trkpt lat="43.60582748770517" lon="2.8173111062027343"><ele>861.0</ele><time>2026-04-07T14:02:25.999Z</time></trkpt><trkpt lat="43.605829012658184" lon="2.817450951722476"><ele>861.0</ele><time>2026-04-07T14:02:26.999Z</time></trkpt><trkpt lat="43.6058371951512" lon="2.8175850710883776"><ele>860.9999999999999</ele><time>2026-04-07T14:02:27.999Z</time></trkpt><trkpt lat="43.60586433609354" lon="2.8177208518126817"><ele>860.9999999999999</ele><time>2026-04-07T14:02:28.999Z</time></trkpt><trkpt lat="43.605894144381864" lon="2.8178554169036776"><ele>861.0</ele><time>2026-04-07T14:02:29.999Z</time></trkpt><trkpt lat="43.60591686194464" lon="2.8179882052675445"><ele>861.0</ele><time>2026-04-07T14:02:30.999Z</time></trkpt><trkpt lat="43.60592782570448" lon="2.818132671600312"><ele>862.4</ele><time>2026-04-07T14:02:31.999Z</time></trkpt><trkpt lat="43.60592610823999" lon="2.8182752075281847"><ele>863.8</ele><time>2026-04-07T14:02:32.999Z</time></trkpt><trkpt lat="43.60589937794807" lon="2.818420673615584"><ele>865.1999999999999</ele><time>2026-04-07T14:02:33.999Z</time></trkpt><trkpt lat="43.60585841602522" lon="2.818555116178006"><ele>866.5999999999999</ele><time>2026-04-07T14:02:34.999Z</time></trkpt><trkpt lat="43.605815673294" lon="2.8186888044943386"><ele>868.0</ele><time>2026-04-07T14:02:35.999Z</time></trkpt><trkpt lat="43.605770800514854" lon="2.8188045943137476"><ele>869.2</ele><time>2026-04-07T14:02:36.999Z</time></trkpt><trkpt lat="43.60573026835648" lon="2.818951513656553"><ele>870.4</ele><time>2026-04-07T14:02:37.999Z</time></trkpt><trkpt lat="43.60570291808875" lon="2.8190991474286875"><ele>871.6000000000001</ele><time>2026-04-07T14:02:38.999Z</time></trkpt><trkpt lat="43.60569708805055" lon="2.8192451405160144"><ele>872.8000000000001</ele><time>2026-04-07T14:02:39.999Z</time></trkpt><trkpt lat="43.60571577584008" lon="2.819388201058117"><ele>874.0</ele><time>2026-04-07T14:02:40.999Z</time></trkpt><trkpt lat="43.60574427023652" lon="2.8195252352657447"><ele>875.6</ele><time>2026-04-07T14:02:41.999Z</time></trkpt><trkpt lat="43.60578823810667" lon="2.8196551942123875"><ele>877.2</ele><time>2026-04-07T14:02:42.999Z</time></trkpt><trkpt lat="43.60580898384938" lon="2.8197929064477556"><ele>878.8000000000001</ele><time>2026-04-07T14:02:43.999Z</time></trkpt><trkpt lat="43.6058237697712" lon="2.8199285573502504"><ele>880.4000000000001</ele><time>2026-04-07T14:02:44.999Z</time></trkpt><trkpt lat="43.605800715047636" lon="2.8200668991974926"><ele>882.0</ele><time>2026-04-07T14:02:45.999Z</time></trkpt><trkpt lat="43.60572044986065" lon="2.8201716110708785"><ele>884.75</ele><time>2026-04-07T14:02:46.999Z</time></trkpt><trkpt lat="43.605602428981456" lon="2.820236078123237"><ele>887.5</ele><time>2026-04-07T14:02:47.999Z</time></trkpt><trkpt lat="43.605472927336656" lon="2.820248154187606"><ele>890.25</ele><time>2026-04-07T14:02:48.999Z</time></trkpt><trkpt lat="43.60534740232595" lon="2.820243094046249"><ele>893.0</ele><time>2026-04-07T14:02:49.999Z</time></trkpt><trkpt lat="43.60524499959697" lon="2.820247451734919"><ele>893.0</ele><time>2026-04-07T14:02:50.999Z</time></trkpt><trkpt lat="43.6051271754619" lon="2.8202402235374646"><ele>893.0</ele><time>2026-04-07T14:02:51.999Z</time></trkpt><trkpt lat="43.605020308456915" lon="2.820260018045506"><ele>893.0</ele><time>2026-04-07T14:02:52.999Z</time></trkpt><trkpt lat="43.60491108805372" lon="2.820304166001992"><ele>893.0</ele><time>2026-04-07T14:02:53.999Z</time></trkpt><trkpt lat="43.60481266800965" lon="2.820367770945359"><ele>893.0</ele><time>2026-04-07T14:02:54.999Z</time></trkpt><trkpt lat="43.60472678892155" lon="2.8204601218194285"><ele>893.0</ele><time>2026-04-07T14:02:55.999Z</time></trkpt><trkpt lat="43.604642191828276" lon="2.820558518760006"><ele>893.0</ele><time>2026-04-07T14:02:56.999Z</time></trkpt><trkpt lat="43.604577338195256" lon="2.8206862449832397"><ele>893.0</ele><time>2026-04-07T14:02:57.999Z</time></trkpt><trkpt lat="43.60453257817884" lon="2.82082248091948"><ele>893.0</ele><time>2026-04-07T14:02:58.999Z</time></trkpt><trkpt lat="43.604504498751645" lon="2.820959797944888"><ele>893.0</ele><time>2026-04-07T14:02:59.999Z</time></trkpt><trkpt lat="43.60449998098344" lon="2.821092994462181"><ele>893.3333333333334</ele><time>2026-04-07T14:03:00.999Z</time></trkpt><trkpt lat="43.60447873454831" lon="2.8212117006820847"><ele>893.6666666666667</ele><time>2026-04-07T14:03:01.999Z</time></trkpt><trkpt lat="43.60445739531084" lon="2.8213286160895366"><ele>894.0</ele><time>2026-04-07T14:03:02.999Z</time></trkpt><trkpt lat="43.60444119845789" lon="2.8214524201414877"><ele>894.3333333333333</ele><time>2026-04-07T14:03:03.999Z</time></trkpt><trkpt lat="43.60442817035957" lon="2.821574247288043"><ele>894.6666666666666</ele><time>2026-04-07T14:03:04.999Z</time></trkpt><trkpt lat="43.60441358793588" lon="2.821701281271539"><ele>895.0</ele><time>2026-04-07T14:03:05.999Z</time></trkpt><trkpt lat="43.60439481874961" lon="2.8218212535987215"><ele>895.0</ele><time>2026-04-07T14:03:06.999Z</time></trkpt><trkpt lat="43.60434780730257" lon="2.821939151992586"><ele>895.0</ele><time>2026-04-07T14:03:07.999Z</time></trkpt><trkpt lat="43.60431301739543" lon="2.8220909676683545"><ele>895.0</ele><time>2026-04-07T14:03:08.999Z</time></trkpt><trkpt lat="43.60424139653082" lon="2.822243101886054"><ele>895.0</ele><time>2026-04-07T14:03:09.999Z</time></trkpt><trkpt lat="43.60417955582998" lon="2.822430270407905"><ele>895.0</ele><time>2026-04-07T14:03:10.998Z</time></trkpt><trkpt lat="43.6041325304477" lon="2.822642031433838"><ele>895.0</ele><time>2026-04-07T14:03:11.998Z</time></trkpt><trkpt lat="43.60407033304476" lon="2.8228569073645695"><ele>895.0</ele><time>2026-04-07T14:03:12.998Z</time></trkpt><trkpt lat="43.60408853110608" lon="2.823088901649215"><ele>895.3333333333333</ele><time>2026-04-07T14:03:13.998Z</time></trkpt><trkpt lat="43.60406184013057" lon="2.8233675682217205"><ele>895.6666666666667</ele><time>2026-04-07T14:03:14.998Z</time></trkpt><trkpt lat="43.60415616241149" lon="2.8232180760026306"><ele>896.0</ele><time>2026-04-07T14:03:15.998Z</time></trkpt><trkpt lat="43.604251429020096" lon="2.8233593076365904"><ele>896.0</ele><time>2026-04-07T14:03:16.998Z</time></trkpt><trkpt lat="43.60438374850711" lon="2.823450577950812"><ele>896.0</ele><time>2026-04-07T14:03:17.998Z</time></trkpt><trkpt lat="43.60452912917319" lon="2.823497814546833"><ele>896.0</ele><time>2026-04-07T14:03:18.998Z</time></trkpt><trkpt lat="43.60468126468578" lon="2.8235204377066663"><ele>898.3333333333334</ele><time>2026-04-07T14:03:19.998Z</time></trkpt><trkpt lat="43.604844989304816" lon="2.8235282196151363"><ele>900.6666666666667</ele><time>2026-04-07T14:03:20.998Z</time></trkpt><trkpt lat="43.60498969918697" lon="2.823587649791117"><ele>903.0</ele><time>2026-04-07T14:03:21.998Z</time></trkpt><trkpt lat="43.60513626931842" lon="2.82371180763071"><ele>903.0</ele><time>2026-04-07T14:03:22.998Z</time></trkpt><trkpt lat="43.605243080713755" lon="2.8238976391098225"><ele>903.0</ele><time>2026-04-07T14:03:23.998Z</time></trkpt><trkpt lat="43.6053163059638" lon="2.824129681590078"><ele>903.0</ele><time>2026-04-07T14:03:24.998Z</time></trkpt><trkpt lat="43.60532497581399" lon="2.824352444783945"><ele>901.6666666666667</ele><time>2026-04-07T14:03:25.998Z</time></trkpt><trkpt lat="43.60530540945246" lon="2.8245883564975673"><ele>900.3333333333334</ele><time>2026-04-07T14:03:26.998Z</time></trkpt><trkpt lat="43.605281986046755" lon="2.824828648994647"><ele>899.0</ele><time>2026-04-07T14:03:27.998Z</time></trkpt><trkpt lat="43.60526267223275" lon="2.825049879826601"><ele>900.5</ele><time>2026-04-07T14:03:28.998Z</time></trkpt><trkpt lat="43.60524722029519" lon="2.8252514909349684"><ele>902.0</ele><time>2026-04-07T14:03:29.998Z</time></trkpt><trkpt lat="43.605235146120926" lon="2.8254334214459234"><ele>903.5</ele><time>2026-04-07T14:03:30.998Z</time></trkpt><trkpt lat="43.60522216117462" lon="2.825610799192571"><ele>905.0</ele><time>2026-04-07T14:03:31.998Z</time></trkpt><trkpt lat="43.6052189662736" lon="2.825782700827966"><ele>905.0</ele><time>2026-04-07T14:03:32.998Z</time></trkpt><trkpt lat="43.60518096571661" lon="2.825933250517437"><ele>905.0</ele><time>2026-04-07T14:03:33.998Z</time></trkpt><trkpt lat="43.6051483550805" lon="2.8260848409179147"><ele>905.0</ele><time>2026-04-07T14:03:34.998Z</time></trkpt><trkpt lat="43.60510864407627" lon="2.8262266089509818"><ele>905.0</ele><time>2026-04-07T14:03:35.998Z</time></trkpt><trkpt lat="43.605055788739776" lon="2.826370470357878"><ele>908.75</ele><time>2026-04-07T14:03:36.998Z</time></trkpt><trkpt lat="43.60497428725876" lon="2.826489535384463"><ele>912.5</ele><time>2026-04-07T14:03:37.998Z</time></trkpt><trkpt lat="43.604885200326606" lon="2.82660112801722"><ele>916.25</ele><time>2026-04-07T14:03:38.998Z</time></trkpt><trkpt lat="43.604811693263045" lon="2.826716050052505"><ele>920.0</ele><time>2026-04-07T14:03:39.998Z</time></trkpt><trkpt lat="43.60475716999711" lon="2.826834860607487"><ele>918.6</ele><time>2026-04-07T14:03:40.998Z</time></trkpt><trkpt lat="43.60468907364955" lon="2.826948711960552"><ele>917.2</ele><time>2026-04-07T14:03:41.998Z</time></trkpt><trkpt lat="43.60463036240763" lon="2.8270646375806043"><ele>915.8</ele><time>2026-04-07T14:03:42.998Z</time></trkpt><trkpt lat="43.604560011705495" lon="2.8271780201899235"><ele>914.4</ele><time>2026-04-07T14:03:43.998Z</time></trkpt><trkpt lat="43.60449093884347" lon="2.8272933786780734"><ele>913.0</ele><time>2026-04-07T14:03:44.998Z</time></trkpt><trkpt lat="43.60442387176608" lon="2.8274067312170366"><ele>913.0</ele><time>2026-04-07T14:03:45.998Z</time></trkpt><trkpt lat="43.604361978737664" lon="2.8275252667719584"><ele>913.0</ele><time>2026-04-07T14:03:46.998Z</time></trkpt><trkpt lat="43.604298244303514" lon="2.8276432707426307"><ele>913.0</ele><time>2026-04-07T14:03:47.998Z</time></trkpt><trkpt lat="43.604241015388205" lon="2.827765151295308"><ele>913.0</ele><time>2026-04-07T14:03:48.998Z</time></trkpt><trkpt lat="43.604183364932126" lon="2.827889087976455"><ele>913.0</ele><time>2026-04-07T14:03:49.998Z</time></trkpt><trkpt lat="43.604135099104255" lon="2.8280158243004587"><ele>914.4</ele><time>2026-04-07T14:03:50.998Z</time></trkpt><trkpt lat="43.604092807320164" lon="2.8281485390255696"><ele>915.8</ele><time>2026-04-07T14:03:51.998Z</time></trkpt><trkpt lat="43.604058683497385" lon="2.828287119036991"><ele>917.2</ele><time>2026-04-07T14:03:52.998Z</time></trkpt><trkpt lat="43.604031124334035" lon="2.828431260281773"><ele>918.6</ele><time>2026-04-07T14:03:53.998Z</time></trkpt><trkpt lat="43.604008162321435" lon="2.828570900450888"><ele>920.0</ele><time>2026-04-07T14:03:54.998Z</time></trkpt><trkpt lat="43.60399139393817" lon="2.828706761289661"><ele>921.2</ele><time>2026-04-07T14:03:55.998Z</time></trkpt><trkpt lat="43.60398313987762" lon="2.8288502642881532"><ele>922.4</ele><time>2026-04-07T14:03:56.998Z</time></trkpt><trkpt lat="43.60397958042842" lon="2.828988222230021"><ele>923.5999999999999</ele><time>2026-04-07T14:03:58Z</time></trkpt><trkpt lat="43.60398747944585" lon="2.829098882958402"><ele>924.8</ele><time>2026-04-07T14:03:59Z</time></trkpt><trkpt lat="43.60400270585274" lon="2.8292124459005294"><ele>926.0</ele><time>2026-04-07T14:04:00Z</time></trkpt><trkpt lat="43.60402808915493" lon="2.8293277218423354"><ele>927.0000000000001</ele><time>2026-04-07T14:04:01Z</time></trkpt><trkpt lat="43.60404852982801" lon="2.829440215177928"><ele>928.0</ele><time>2026-04-07T14:04:02Z</time></trkpt><trkpt lat="43.60406072499092" lon="2.8295515679848355"><ele>929.0</ele><time>2026-04-07T14:04:03Z</time></trkpt><trkpt lat="43.60408108224864" lon="2.829662112217663"><ele>930.0</ele><time>2026-04-07T14:04:04Z</time></trkpt><trkpt lat="43.604105091635915" lon="2.829773317208477"><ele>931.0000000000001</ele><time>2026-04-07T14:04:05Z</time></trkpt><trkpt lat="43.604135653525155" lon="2.829884400484763"><ele>932.0</ele><time>2026-04-07T14:04:06Z</time></trkpt><trkpt lat="43.60416939339943" lon="2.829988845890041"><ele>932.0000000000001</ele><time>2026-04-07T14:04:07Z</time></trkpt><trkpt lat="43.60419941662827" lon="2.83010390448244"><ele>932.0</ele><time>2026-04-07T14:04:08Z</time></trkpt><trkpt lat="43.604232211530906" lon="2.830216894734359"><ele>932.0</ele><time>2026-04-07T14:04:09Z</time></trkpt><trkpt lat="43.60425290942082" lon="2.8303311972398486"><ele>932.0</ele><time>2026-04-07T14:04:10Z</time></trkpt><trkpt lat="43.604268999762446" lon="2.8304538765480376"><ele>932.0000000000001</ele><time>2026-04-07T14:04:11Z</time></trkpt><trkpt lat="43.60427149017302" lon="2.8305703694176145"><ele>932.0</ele><time>2026-04-07T14:04:12Z</time></trkpt><trkpt lat="43.604246436487394" lon="2.830696698374547"><ele>933.6666666666667</ele><time>2026-04-07T14:04:13Z</time></trkpt><trkpt lat="43.604209593448196" lon="2.83080292322737"><ele>935.3333333333334</ele><time>2026-04-07T14:04:14Z</time></trkpt><trkpt lat="43.60417409577798" lon="2.8309058636798747"><ele>937.0</ele><time>2026-04-07T14:04:15Z</time></trkpt><trkpt lat="43.60412302699153" lon="2.8310153378224037"><ele>938.6666666666667</ele><time>2026-04-07T14:04:16Z</time></trkpt><trkpt lat="43.60406692359136" lon="2.8311093506488483"><ele>940.3333333333334</ele><time>2026-04-07T14:04:17Z</time></trkpt><trkpt lat="43.60401340448625" lon="2.8312091827212336"><ele>942.0</ele><time>2026-04-07T14:04:18Z</time></trkpt><trkpt lat="43.60395543300327" lon="2.8313089368101716"><ele>943.8</ele><time>2026-04-07T14:04:19Z</time></trkpt><trkpt lat="43.60389935460656" lon="2.831417571012588"><ele>945.6</ele><time>2026-04-07T14:04:20Z</time></trkpt><trkpt lat="43.60384608754015" lon="2.831532814927147"><ele>947.3999999999999</ele><time>2026-04-07T14:04:21Z</time></trkpt><trkpt lat="43.6038047704014" lon="2.83165289051088"><ele>949.1999999999999</ele><time>2026-04-07T14:04:22Z</time></trkpt><trkpt lat="43.603781969424666" lon="2.8317863063795556"><ele>951.0</ele><time>2026-04-07T14:04:23Z</time></trkpt><trkpt lat="43.60377127057249" lon="2.8319290266526744"><ele>953.0</ele><time>2026-04-07T14:04:24Z</time></trkpt><trkpt lat="43.60375502529467" lon="2.8320698159889135"><ele>954.9999999999999</ele><time>2026-04-07T14:04:25Z</time></trkpt><trkpt lat="43.6037314733528" lon="2.8322052985383963"><ele>956.9999999999999</ele><time>2026-04-07T14:04:26Z</time></trkpt><trkpt lat="43.603708780405114" lon="2.8323445216875993"><ele>959.0</ele><time>2026-04-07T14:04:27Z</time></trkpt><trkpt lat="43.60368800457382" lon="2.8324873276739546"><ele>961.0</ele><time>2026-04-07T14:04:28Z</time></trkpt><trkpt lat="43.60366207629185" lon="2.8326320337808064"><ele>956.8</ele><time>2026-04-07T14:04:29Z</time></trkpt><trkpt lat="43.603634031402166" lon="2.832776871156975"><ele>952.5999999999999</ele><time>2026-04-07T14:04:30Z</time></trkpt><trkpt lat="43.603595711732886" lon="2.8329135800724616"><ele>948.4</ele><time>2026-04-07T14:04:31Z</time></trkpt><trkpt lat="43.60356466719076" lon="2.833061359371152"><ele>944.2</ele><time>2026-04-07T14:04:32Z</time></trkpt><trkpt lat="43.60353098551775" lon="2.833204959740693"><ele>940.0</ele><time>2026-04-07T14:04:32.999Z</time></trkpt><trkpt lat="43.60348323973945" lon="2.833351229584578"><ele>942.6</ele><time>2026-04-07T14:04:33.999Z</time></trkpt><trkpt lat="43.6034465132784" lon="2.833496919276591"><ele>945.2</ele><time>2026-04-07T14:04:34.999Z</time></trkpt><trkpt lat="43.60339672240853" lon="2.8336279388532715"><ele>947.8</ele><time>2026-04-07T14:04:35.999Z</time></trkpt><trkpt lat="43.60336661392713" lon="2.8337745545423374"><ele>950.4</ele><time>2026-04-07T14:04:36.999Z</time></trkpt><trkpt lat="43.603320786616365" lon="2.8339251801241607"><ele>953.0</ele><time>2026-04-07T14:04:37.999Z</time></trkpt><trkpt lat="43.603282480912" lon="2.834069216847253"><ele>953.0</ele><time>2026-04-07T14:04:38.999Z</time></trkpt><trkpt lat="43.60323652446325" lon="2.834187290649759"><ele>953.0</ele><time>2026-04-07T14:04:39.999Z</time></trkpt><trkpt lat="43.60318194840666" lon="2.8343131710133767"><ele>953.0</ele><time>2026-04-07T14:04:40.999Z</time></trkpt><trkpt lat="43.60313894063338" lon="2.8344397557732455"><ele>953.0</ele><time>2026-04-07T14:04:41.999Z</time></trkpt><trkpt lat="43.603081563786226" lon="2.8345621206884357"><ele>953.0</ele><time>2026-04-07T14:04:42.999Z</time></trkpt><trkpt lat="43.60301314461781" lon="2.834674697827615"><ele>954.0</ele><time>2026-04-07T14:04:43.999Z</time></trkpt><trkpt lat="43.60293919418774" lon="2.8347773293803877"><ele>955.0</ele><time>2026-04-07T14:04:44.999Z</time></trkpt><trkpt lat="43.60287430968005" lon="2.8348977062539884"><ele>956.0</ele><time>2026-04-07T14:04:45.999Z</time></trkpt><trkpt lat="43.60279660045571" lon="2.8349978390898505"><ele>957.0</ele><time>2026-04-07T14:04:46.999Z</time></trkpt><trkpt lat="43.60271217140664" lon="2.8350954805125754"><ele>958.0</ele><time>2026-04-07T14:04:47.999Z</time></trkpt><trkpt lat="43.60262627267859" lon="2.8352012766510244"><ele>958.0</ele><time>2026-04-07T14:04:48.999Z</time></trkpt><trkpt lat="43.60255007941486" lon="2.835309542067983"><ele>958.0</ele><time>2026-04-07T14:04:49.999Z</time></trkpt><trkpt lat="43.60248058625934" lon="2.8354240778751643"><ele>958.0</ele><time>2026-04-07T14:04:50.999Z</time></trkpt><trkpt lat="43.60240620906821" lon="2.835527026371896"><ele>958.0</ele><time>2026-04-07T14:04:51.999Z</time></trkpt><trkpt lat="43.602331640091286" lon="2.835637719659723"><ele>958.0</ele><time>2026-04-07T14:04:52.999Z</time></trkpt><trkpt lat="43.60226114290092" lon="2.8357521027550305"><ele>958.0</ele><time>2026-04-07T14:04:53.999Z</time></trkpt><trkpt lat="43.602194331534726" lon="2.8358673248624964"><ele>958.0</ele><time>2026-04-07T14:04:54.999Z</time></trkpt><trkpt lat="43.602129507151844" lon="2.8359867140625257"><ele>958.0</ele><time>2026-04-07T14:04:55.999Z</time></trkpt><trkpt lat="43.602066193969144" lon="2.8361133394518205"><ele>958.0</ele><time>2026-04-07T14:04:56.999Z</time></trkpt><trkpt lat="43.602021135910434" lon="2.836249738678315"><ele>958.0</ele><time>2026-04-07T14:04:57.999Z</time></trkpt><trkpt lat="43.60195737077899" lon="2.8363759087169176"><ele>957.0</ele><time>2026-04-07T14:04:58.999Z</time></trkpt><trkpt lat="43.601910927163864" lon="2.8365196475982852"><ele>956.0</ele><time>2026-04-07T14:04:59.999Z</time></trkpt><trkpt lat="43.60187240056571" lon="2.836648653744745"><ele>955.0</ele><time>2026-04-07T14:05:00.999Z</time></trkpt><trkpt lat="43.601828980235936" lon="2.8367976958892966"><ele>954.0</ele><time>2026-04-07T14:05:01.999Z</time></trkpt><trkpt lat="43.6017869413528" lon="2.836941996144572"><ele>953.0</ele><time>2026-04-07T14:05:02.999Z</time></trkpt><trkpt lat="43.60176020443516" lon="2.837088537930283"><ele>955.2</ele><time>2026-04-07T14:05:03.999Z</time></trkpt><trkpt lat="43.6017043017931" lon="2.83720613861768"><ele>957.4</ele><time>2026-04-07T14:05:04.999Z</time></trkpt><trkpt lat="43.60165493655943" lon="2.8373500006046695"><ele>959.6000000000001</ele><time>2026-04-07T14:05:05.999Z</time></trkpt><trkpt lat="43.6016003765062" lon="2.837489211741506"><ele>961.8000000000001</ele><time>2026-04-07T14:05:06.999Z</time></trkpt><trkpt lat="43.60152961668654" lon="2.8376062724317186"><ele>964.0</ele><time>2026-04-07T14:05:07.999Z</time></trkpt><trkpt lat="43.60145608709291" lon="2.83772384783088"><ele>964.0</ele><time>2026-04-07T14:05:08.999Z</time></trkpt><trkpt lat="43.60137959148564" lon="2.8378395298325216"><ele>964.0000000000001</ele><time>2026-04-07T14:05:09.999Z</time></trkpt><trkpt lat="43.60130129174604" lon="2.8379471264484732"><ele>964.0000000000001</ele><time>2026-04-07T14:05:10.999Z</time></trkpt><trkpt lat="43.6012221263648" lon="2.8380471522550064"><ele>964.0</ele><time>2026-04-07T14:05:11.999Z</time></trkpt><trkpt lat="43.601135857060314" lon="2.8381483507826792"><ele>964.0</ele><time>2026-04-07T14:05:12.999Z</time></trkpt><trkpt lat="43.60105051100543" lon="2.838230633106707"><ele>964.0</ele><time>2026-04-07T14:05:13.999Z</time></trkpt><trkpt lat="43.6009564097164" lon="2.8383128765835717"><ele>964.0000000000001</ele><time>2026-04-07T14:05:14.999Z</time></trkpt><trkpt lat="43.600855465514464" lon="2.8383789554930323"><ele>964.0000000000001</ele><time>2026-04-07T14:05:15.999Z</time></trkpt><trkpt lat="43.60075263926736" lon="2.8384638748508517"><ele>964.0</ele><time>2026-04-07T14:05:16.999Z</time></trkpt><trkpt lat="43.60065927613818" lon="2.838526263492441"><ele>964.0</ele><time>2026-04-07T14:05:17.999Z</time></trkpt><trkpt lat="43.60055869228466" lon="2.8385606641488375"><ele>965.4000000000001</ele><time>2026-04-07T14:05:18.999Z</time></trkpt><trkpt lat="43.60045814438986" lon="2.8386223906437764"><ele>966.8000000000001</ele><time>2026-04-07T14:05:19.999Z</time></trkpt><trkpt lat="43.600350303027966" lon="2.838673847079414"><ele>968.1999999999999</ele><time>2026-04-07T14:05:20.998Z</time></trkpt><trkpt lat="43.60025441902788" lon="2.838732556486073"><ele>969.5999999999999</ele><time>2026-04-07T14:05:21.998Z</time></trkpt><trkpt lat="43.600158048630995" lon="2.8387989400395797"><ele>971.0</ele><time>2026-04-07T14:05:22.998Z</time></trkpt><trkpt lat="43.60006120738972" lon="2.8388715449303366"><ele>971.0</ele><time>2026-04-07T14:05:23.998Z</time></trkpt><trkpt lat="43.599964661962865" lon="2.8389492968945156"><ele>970.9999999999999</ele><time>2026-04-07T14:05:24.998Z</time></trkpt><trkpt lat="43.59985774030686" lon="2.839014796385059"><ele>970.9999999999999</ele><time>2026-04-07T14:05:25.998Z</time></trkpt><trkpt lat="43.59975759793517" lon="2.839079421681813"><ele>971.0</ele><time>2026-04-07T14:05:26.998Z</time></trkpt><trkpt lat="43.599662337548615" lon="2.839154173269576"><ele>971.0</ele><time>2026-04-07T14:05:27.998Z</time></trkpt><trkpt lat="43.5995725670942" lon="2.8392152339865175"><ele>971.4</ele><time>2026-04-07T14:05:28.998Z</time></trkpt><trkpt lat="43.599482971634444" lon="2.8392750292509645"><ele>971.8</ele><time>2026-04-07T14:05:29.998Z</time></trkpt><trkpt lat="43.59939315237441" lon="2.8393342244689546"><ele>972.1999999999999</ele><time>2026-04-07T14:05:30.998Z</time></trkpt><trkpt lat="43.59930388770674" lon="2.8393914602814183"><ele>972.5999999999999</ele><time>2026-04-07T14:05:31.998Z</time></trkpt><trkpt lat="43.5992183218426" lon="2.839455543064528"><ele>973.0</ele><time>2026-04-07T14:05:32.998Z</time></trkpt><trkpt lat="43.59914853577911" lon="2.839509111217805"><ele>973.75</ele><time>2026-04-07T14:05:33.998Z</time></trkpt><trkpt lat="43.599089342635835" lon="2.839543020302873"><ele>974.5</ele><time>2026-04-07T14:05:34.998Z</time></trkpt><trkpt lat="43.5991707368748" lon="2.8397523706901864"><ele>975.25</ele><time>2026-04-07T14:05:37.998Z</time></trkpt><trkpt lat="43.599269255787874" lon="2.839790361139316"><ele>976.0</ele><time>2026-04-07T14:05:38.998Z</time></trkpt><trkpt lat="43.59937760289184" lon="2.83985003184413"><ele>976.0</ele><time>2026-04-07T14:05:39.998Z</time></trkpt><trkpt lat="43.59945360490299" lon="2.839937200795611"><ele>975.9999999999999</ele><time>2026-04-07T14:05:40.998Z</time></trkpt><trkpt lat="43.599554155899376" lon="2.839997353347378"><ele>975.9999999999999</ele><time>2026-04-07T14:05:41.998Z</time></trkpt><trkpt lat="43.5996479824342" lon="2.8400798837254153"><ele>976.0</ele><time>2026-04-07T14:05:42.998Z</time></trkpt><trkpt lat="43.59974364535133" lon="2.840164972642194"><ele>976.0</ele><time>2026-04-07T14:05:43.998Z</time></trkpt><trkpt lat="43.59983064857695" lon="2.840273532756096"><ele>976.5</ele><time>2026-04-07T14:05:44.998Z</time></trkpt><trkpt lat="43.599931627014314" lon="2.840366533292842"><ele>977.0</ele><time>2026-04-07T14:05:45.998Z</time></trkpt><trkpt lat="43.5999980131768" lon="2.840498899020712"><ele>977.5</ele><time>2026-04-07T14:05:46.998Z</time></trkpt><trkpt lat="43.6000848241944" lon="2.8406243053938782"><ele>978.0</ele><time>2026-04-07T14:05:47.998Z</time></trkpt><trkpt lat="43.60014098731895" lon="2.8407779879644948"><ele>978.0</ele><time>2026-04-07T14:05:48.998Z</time></trkpt><trkpt lat="43.60016444910433" lon="2.8409495250062626"><ele>978.0</ele><time>2026-04-07T14:05:49.998Z</time></trkpt><trkpt lat="43.60020187192577" lon="2.8411310773595644"><ele>978.0</ele><time>2026-04-07T14:05:50.998Z</time></trkpt><trkpt lat="43.600211494149576" lon="2.841305926438763"><ele>978.0</ele><time>2026-04-07T14:05:51.998Z</time></trkpt><trkpt lat="43.60022358253815" lon="2.841482901269028"><ele>978.25</ele><time>2026-04-07T14:05:52.998Z</time></trkpt><trkpt lat="43.60024908334084" lon="2.841676449417603"><ele>978.5</ele><time>2026-04-07T14:05:53.998Z</time></trkpt><trkpt lat="43.60029368084088" lon="2.84183366523263"><ele>978.75</ele><time>2026-04-07T14:05:54.998Z</time></trkpt><trkpt lat="43.60035475663481" lon="2.841962755826515"><ele>979.0</ele><time>2026-04-07T14:05:55.998Z</time></trkpt><trkpt lat="43.60046061145815" lon="2.8421313083374615"><ele>978.3333333333333</ele><time>2026-04-07T14:05:56.998Z</time></trkpt><trkpt lat="43.600606631340774" lon="2.842143373947657"><ele>977.6666666666667</ele><time>2026-04-07T14:05:57.998Z</time></trkpt><trkpt lat="43.600762165037374" lon="2.842174817935508"><ele>977.0</ele><time>2026-04-07T14:05:58.998Z</time></trkpt><trkpt lat="43.600905543786396" lon="2.8422173457118856"><ele>977.0</ele><time>2026-04-07T14:05:59.998Z</time></trkpt><trkpt lat="43.60104502735898" lon="2.842235704919999"><ele>977.0</ele><time>2026-04-07T14:06:00.998Z</time></trkpt><trkpt lat="43.60118987917394" lon="2.842259661795977"><ele>977.0</ele><time>2026-04-07T14:06:01.998Z</time></trkpt><trkpt lat="43.601337534615354" lon="2.842280856932542"><ele>977.0</ele><time>2026-04-07T14:06:02.998Z</time></trkpt><trkpt lat="43.60149025516018" lon="2.842312424674259"><ele>976.6666666666667</ele><time>2026-04-07T14:06:04Z</time></trkpt><trkpt lat="43.60164711664627" lon="2.8423227093607673"><ele>976.3333333333333</ele><time>2026-04-07T14:06:05Z</time></trkpt><trkpt lat="43.60181189936395" lon="2.8423330929927535"><ele>976.0</ele><time>2026-04-07T14:06:06Z</time></trkpt><trkpt lat="43.60195904442805" lon="2.84241936650237"><ele>976.3333333333333</ele><time>2026-04-07T14:06:07Z</time></trkpt><trkpt lat="43.602113905586386" lon="2.8425282804567313"><ele>976.6666666666667</ele><time>2026-04-07T14:06:08Z</time></trkpt><trkpt lat="43.602273345277304" lon="2.8426310881419043"><ele>977.0</ele><time>2026-04-07T14:06:09Z</time></trkpt><trkpt lat="43.60244271702177" lon="2.842713234478102"><ele>977.0</ele><time>2026-04-07T14:06:10Z</time></trkpt><trkpt lat="43.60260640642883" lon="2.8427883631360875"><ele>977.0</ele><time>2026-04-07T14:06:11Z</time></trkpt><trkpt lat="43.60277506843891" lon="2.842846065923551"><ele>977.0</ele><time>2026-04-07T14:06:12Z</time></trkpt><trkpt lat="43.60294201478895" lon="2.842893498952907"><ele>973.6666666666667</ele><time>2026-04-07T14:06:13Z</time></trkpt><trkpt lat="43.60311189795526" lon="2.8429020599195094"><ele>970.3333333333333</ele><time>2026-04-07T14:06:14Z</time></trkpt><trkpt lat="43.603263765857086" lon="2.8429097120368447"><ele>967.0</ele><time>2026-04-07T14:06:15Z</time></trkpt><trkpt lat="43.60338754594085" lon="2.8429835999400774"><ele>967.0</ele><time>2026-04-07T14:06:16Z</time></trkpt><trkpt lat="43.603477978842" lon="2.8430777375698795"><ele>967.0</ele><time>2026-04-07T14:06:17Z</time></trkpt><trkpt lat="43.6035383448157" lon="2.843198214468341"><ele>967.0</ele><time>2026-04-07T14:06:18Z</time></trkpt><trkpt lat="43.60356041434147" lon="2.8433390105404706"><ele>967.0</ele><time>2026-04-07T14:06:19Z</time></trkpt><trkpt lat="43.60350933138082" lon="2.8435150767678343"><ele>966.75</ele><time>2026-04-07T14:06:20Z</time></trkpt><trkpt lat="43.603462443676996" lon="2.8436866065869126"><ele>966.5</ele><time>2026-04-07T14:06:21Z</time></trkpt><trkpt lat="43.603407742851594" lon="2.8438628221852116"><ele>966.25</ele><time>2026-04-07T14:06:22Z</time></trkpt><trkpt lat="43.60335567326003" lon="2.8440184708702754"><ele>966.0</ele><time>2026-04-07T14:06:23Z</time></trkpt><trkpt lat="43.60330528942777" lon="2.844168789257459"><ele>966.0</ele><time>2026-04-07T14:06:24Z</time></trkpt><trkpt lat="43.60327066327068" lon="2.8443270143511716"><ele>966.0</ele><time>2026-04-07T14:06:25Z</time></trkpt><trkpt lat="43.60322482892611" lon="2.844468054242161"><ele>966.0</ele><time>2026-04-07T14:06:26Z</time></trkpt><trkpt lat="43.60322342226969" lon="2.8446452653495835"><ele>966.0</ele><time>2026-04-07T14:06:27Z</time></trkpt><trkpt lat="43.60326532724503" lon="2.8447981861589944"><ele>966.0</ele><time>2026-04-07T14:06:28Z</time></trkpt><trkpt lat="43.603336791573426" lon="2.8449310270900052"><ele>966.0</ele><time>2026-04-07T14:06:29Z</time></trkpt><trkpt lat="43.60342406243896" lon="2.845032399172182"><ele>966.0</ele><time>2026-04-07T14:06:30Z</time></trkpt><trkpt lat="43.603524599698126" lon="2.8450936987917794"><ele>966.0</ele><time>2026-04-07T14:06:31Z</time></trkpt><trkpt lat="43.603640656360675" lon="2.8451005020652853"><ele>966.5999999999999</ele><time>2026-04-07T14:06:32Z</time></trkpt><trkpt lat="43.603770661930454" lon="2.84512042751684"><ele>967.1999999999999</ele><time>2026-04-07T14:06:33Z</time></trkpt><trkpt lat="43.60388311886187" lon="2.8451504724052907"><ele>967.8000000000001</ele><time>2026-04-07T14:06:34Z</time></trkpt><trkpt lat="43.60396777779287" lon="2.845175803382596"><ele>968.4000000000001</ele><time>2026-04-07T14:06:35Z</time></trkpt><trkpt lat="43.6040443197731" lon="2.845198239743643"><ele>969.0</ele><time>2026-04-07T14:06:36Z</time></trkpt><trkpt lat="43.60411719695999" lon="2.845216072506991"><ele>969.0</ele><time>2026-04-07T14:06:37Z</time></trkpt><trkpt lat="43.6041974456429" lon="2.845201543548895"><ele>969.0</ele><time>2026-04-07T14:06:38Z</time></trkpt><trkpt lat="43.6042875141293" lon="2.8452240289035244"><ele>969.0</ele><time>2026-04-07T14:06:39Z</time></trkpt><trkpt lat="43.6043810628534" lon="2.8452225294957136"><ele>969.0</ele><time>2026-04-07T14:06:40Z</time></trkpt><trkpt lat="43.60446987426879" lon="2.8452137770412"><ele>969.0</ele><time>2026-04-07T14:06:41Z</time></trkpt><trkpt lat="43.604562832449375" lon="2.845224921594174"><ele>969.0</ele><time>2026-04-07T14:06:42Z</time></trkpt><trkpt lat="43.604652107715914" lon="2.8453247054752624"><ele>965.0</ele><time>2026-04-07T14:06:42.999Z</time></trkpt><trkpt lat="43.60475819529447" lon="2.845432427750866"><ele>961.0</ele><time>2026-04-07T14:06:43.999Z</time></trkpt><trkpt lat="43.60484454454607" lon="2.8455613500464927"><ele>957.0</ele><time>2026-04-07T14:06:44.999Z</time></trkpt><trkpt lat="43.60493368208877" lon="2.8456781084660525"><ele>953.0</ele><time>2026-04-07T14:06:45.999Z</time></trkpt><trkpt lat="43.60501484428343" lon="2.8458323384235205"><ele>955.6666666666667</ele><time>2026-04-07T14:06:46.999Z</time></trkpt><trkpt lat="43.60508891951672" lon="2.8460029637599202"><ele>958.3333333333333</ele><time>2026-04-07T14:06:47.999Z</time></trkpt><trkpt lat="43.605155796913266" lon="2.8461987810915317"><ele>961.0</ele><time>2026-04-07T14:06:48.999Z</time></trkpt><trkpt lat="43.605194788927335" lon="2.8464068742471524"><ele>961.0</ele><time>2026-04-07T14:06:49.999Z</time></trkpt><trkpt lat="43.60521842579946" lon="2.846600576798018"><ele>961.0</ele><time>2026-04-07T14:06:50.999Z</time></trkpt><trkpt lat="43.60520581631579" lon="2.8467554878029193"><ele>961.0</ele><time>2026-04-07T14:06:51.999Z</time></trkpt><trkpt lat="43.605241103888815" lon="2.8468901717557658"><ele>961.0</ele><time>2026-04-07T14:06:52.999Z</time></trkpt><trkpt lat="43.60535628253793" lon="2.8469834776984246"><ele>960.75</ele><time>2026-04-07T14:06:53.999Z</time></trkpt><trkpt lat="43.60548454043444" lon="2.8470372410952853"><ele>960.5</ele><time>2026-04-07T14:06:54.999Z</time></trkpt><trkpt lat="43.605600194990316" lon="2.8470297326337572"><ele>960.25</ele><time>2026-04-07T14:06:55.999Z</time></trkpt><trkpt lat="43.6056861183143" lon="2.846925602291543"><ele>960.0</ele><time>2026-04-07T14:06:56.999Z</time></trkpt><trkpt lat="43.605712620671575" lon="2.8467902411617443"><ele>960.0</ele><time>2026-04-07T14:06:57.999Z</time></trkpt><trkpt lat="43.60572186334138" lon="2.8466188328471156"><ele>960.0</ele><time>2026-04-07T14:06:58.999Z</time></trkpt><trkpt lat="43.60573058390335" lon="2.8464484047741183"><ele>960.0</ele><time>2026-04-07T14:06:59.999Z</time></trkpt><trkpt lat="43.60574861289531" lon="2.846253422723557"><ele>960.0</ele><time>2026-04-07T14:07:00.999Z</time></trkpt><trkpt lat="43.60578770539183" lon="2.8460451269185825"><ele>956.3333333333333</ele><time>2026-04-07T14:07:01.999Z</time></trkpt><trkpt lat="43.60582753794212" lon="2.845831822735958"><ele>952.6666666666666</ele><time>2026-04-07T14:07:02.999Z</time></trkpt><trkpt lat="43.60584764680189" lon="2.845626287773778"><ele>949.0</ele><time>2026-04-07T14:07:03.999Z</time></trkpt><trkpt lat="43.605920323301675" lon="2.8454427766103416"><ele>949.0</ele><time>2026-04-07T14:07:04.999Z</time></trkpt><trkpt lat="43.60602821393829" lon="2.8452804816741923"><ele>949.0</ele><time>2026-04-07T14:07:05.999Z</time></trkpt><trkpt lat="43.60615567046046" lon="2.845123083614325"><ele>949.0</ele><time>2026-04-07T14:07:06.999Z</time></trkpt><trkpt lat="43.60627625526287" lon="2.844960704062332"><ele>950.0</ele><time>2026-04-07T14:07:07.999Z</time></trkpt><trkpt lat="43.60640939537514" lon="2.844807235426965"><ele>951.0</ele><time>2026-04-07T14:07:08.999Z</time></trkpt><trkpt lat="43.606539637061516" lon="2.8446474019839934"><ele>952.0</ele><time>2026-04-07T14:07:09.999Z</time></trkpt><trkpt lat="43.60667120192526" lon="2.844489043382291"><ele>952.0</ele><time>2026-04-07T14:07:10.999Z</time></trkpt><trkpt lat="43.60680673487931" lon="2.8443380843207193"><ele>952.0</ele><time>2026-04-07T14:07:11.999Z</time></trkpt><trkpt lat="43.60695022658566" lon="2.8441925585739303"><ele>952.0</ele><time>2026-04-07T14:07:12.999Z</time></trkpt><trkpt lat="43.60708638327261" lon="2.8440333041329264"><ele>952.3333333333333</ele><time>2026-04-07T14:07:13.999Z</time></trkpt><trkpt lat="43.60721526768915" lon="2.843855060539328"><ele>952.6666666666667</ele><time>2026-04-07T14:07:14.999Z</time></trkpt><trkpt lat="43.60734381281544" lon="2.843682131030052"><ele>953.0</ele><time>2026-04-07T14:07:15.999Z</time></trkpt><trkpt lat="43.60747030166256" lon="2.843506652009542"><ele>951.6666666666667</ele><time>2026-04-07T14:07:16.999Z</time></trkpt><trkpt lat="43.60761972706125" lon="2.8433380820882292"><ele>950.3333333333333</ele><time>2026-04-07T14:07:17.999Z</time></trkpt><trkpt lat="43.607782057273056" lon="2.8431830286152233"><ele>949.0</ele><time>2026-04-07T14:07:18.999Z</time></trkpt><trkpt lat="43.607949566181176" lon="2.8430646687190317"><ele>949.0</ele><time>2026-04-07T14:07:19.999Z</time></trkpt><trkpt lat="43.6081088738618" lon="2.8429001003141385"><ele>949.0</ele><time>2026-04-07T14:07:20.999Z</time></trkpt><trkpt lat="43.60829353576864" lon="2.842784247993405"><ele>949.0</ele><time>2026-04-07T14:07:21.999Z</time></trkpt><trkpt lat="43.6084758122852" lon="2.8426443963283012"><ele>946.3333333333333</ele><time>2026-04-07T14:07:22.999Z</time></trkpt><trkpt lat="43.608662530626674" lon="2.842536473620751"><ele>943.6666666666667</ele><time>2026-04-07T14:07:23.999Z</time></trkpt><trkpt lat="43.60884728071205" lon="2.842413423260621"><ele>941.0</ele><time>2026-04-07T14:07:24.999Z</time></trkpt><trkpt lat="43.609021953582456" lon="2.8422974800258425"><ele>941.0</ele><time>2026-04-07T14:07:25.999Z</time></trkpt><trkpt lat="43.609168559819395" lon="2.842188340880348"><ele>941.0</ele><time>2026-04-07T14:07:26.999Z</time></trkpt><trkpt lat="43.609294485268904" lon="2.842087974755566"><ele>941.0</ele><time>2026-04-07T14:07:27.999Z</time></trkpt><trkpt lat="43.60939507954328" lon="2.842048588248457"><ele>941.0</ele><time>2026-04-07T14:07:28.999Z</time></trkpt><trkpt lat="43.60945733456074" lon="2.8420708772388266"><ele>937.75</ele><time>2026-04-07T14:07:29.998Z</time></trkpt><trkpt lat="43.6095857282548" lon="2.8421221263183907"><ele>934.5</ele><time>2026-04-07T14:07:30.998Z</time></trkpt><trkpt lat="43.609701609911575" lon="2.8422669052572944"><ele>931.25</ele><time>2026-04-07T14:07:31.998Z</time></trkpt><trkpt lat="43.609776150399846" lon="2.8424469198872346"><ele>928.0</ele><time>2026-04-07T14:07:32.998Z</time></trkpt><trkpt lat="43.60983221035843" lon="2.842645564373311"><ele>928.0</ele><time>2026-04-07T14:07:33.998Z</time></trkpt><trkpt lat="43.60986466071659" lon="2.8428377982457516"><ele>928.0</ele><time>2026-04-07T14:07:34.998Z</time></trkpt><trkpt lat="43.609892172854195" lon="2.8430182305698946"><ele>928.0</ele><time>2026-04-07T14:07:35.998Z</time></trkpt><trkpt lat="43.60992499544535" lon="2.8432120185444933"><ele>928.0</ele><time>2026-04-07T14:07:36.998Z</time></trkpt><trkpt lat="43.60992931243613" lon="2.843406915769436"><ele>928.75</ele><time>2026-04-07T14:07:37.998Z</time></trkpt><trkpt lat="43.60992491681153" lon="2.8435916944390836"><ele>929.5</ele><time>2026-04-07T14:07:38.998Z</time></trkpt><trkpt lat="43.60994531268885" lon="2.8437911367628392"><ele>930.25</ele><time>2026-04-07T14:07:39.998Z</time></trkpt><trkpt lat="43.609992610160205" lon="2.8439892166948377"><ele>931.0</ele><time>2026-04-07T14:07:40.998Z</time></trkpt><trkpt lat="43.6100444054641" lon="2.8441873607006194"><ele>932.0</ele><time>2026-04-07T14:07:41.998Z</time></trkpt><trkpt lat="43.61009533669458" lon="2.8443873636527552"><ele>933.0</ele><time>2026-04-07T14:07:42.998Z</time></trkpt><trkpt lat="43.610169402347296" lon="2.844589560369032"><ele>934.0</ele><time>2026-04-07T14:07:43.998Z</time></trkpt><trkpt lat="43.610255354667885" lon="2.84479895136805"><ele>934.0</ele><time>2026-04-07T14:07:44.998Z</time></trkpt><trkpt lat="43.610316979693145" lon="2.845027965452993"><ele>934.0</ele><time>2026-04-07T14:07:45.998Z</time></trkpt><trkpt lat="43.61033865923394" lon="2.845286277816652"><ele>934.0</ele><time>2026-04-07T14:07:46.998Z</time></trkpt><trkpt lat="43.61033218236379" lon="2.845544803237444"><ele>935.3333333333333</ele><time>2026-04-07T14:07:47.998Z</time></trkpt><trkpt lat="43.610319029568" lon="2.845758755925094"><ele>936.6666666666667</ele><time>2026-04-07T14:07:48.998Z</time></trkpt><trkpt lat="43.6102999102927" lon="2.8460009476316714"><ele>938.0</ele><time>2026-04-07T14:07:49.998Z</time></trkpt><trkpt lat="43.610276201753386" lon="2.846244361093131"><ele>938.0</ele><time>2026-04-07T14:07:50.998Z</time></trkpt><trkpt lat="43.61027810854789" lon="2.84648677295074"><ele>938.0</ele><time>2026-04-07T14:07:51.998Z</time></trkpt><trkpt lat="43.6102936866636" lon="2.8466924355346697"><ele>938.0</ele><time>2026-04-07T14:07:52.998Z</time></trkpt><trkpt lat="43.61033101520454" lon="2.8468733004186872"><ele>937.5999999999999</ele><time>2026-04-07T14:07:53.998Z</time></trkpt><trkpt lat="43.61035981675413" lon="2.847004551782138"><ele>937.1999999999999</ele><time>2026-04-07T14:07:54.998Z</time></trkpt><trkpt lat="43.610420902447935" lon="2.847108138455894"><ele>936.8</ele><time>2026-04-07T14:07:55.998Z</time></trkpt><trkpt lat="43.610505504568394" lon="2.8471791113462683"><ele>936.4</ele><time>2026-04-07T14:07:56.998Z</time></trkpt><trkpt lat="43.61061953144527" lon="2.8471406238457986"><ele>936.0</ele><time>2026-04-07T14:07:57.998Z</time></trkpt><trkpt lat="43.610721318018115" lon="2.847036935639464"><ele>936.0</ele><time>2026-04-07T14:07:58.998Z</time></trkpt><trkpt lat="43.610792101197084" lon="2.8468924325305007"><ele>936.0</ele><time>2026-04-07T14:07:59.998Z</time></trkpt><trkpt lat="43.61089227989358" lon="2.846785571629025"><ele>936.0</ele><time>2026-04-07T14:08:00.998Z</time></trkpt><trkpt lat="43.61099741278379" lon="2.8467046754381107"><ele>936.0</ele><time>2026-04-07T14:08:01.998Z</time></trkpt><trkpt lat="43.611107871281426" lon="2.846632311498578"><ele>932.0</ele><time>2026-04-07T14:08:02.998Z</time></trkpt><trkpt lat="43.61123879382771" lon="2.846563752919777"><ele>928.0</ele><time>2026-04-07T14:08:03.998Z</time></trkpt><trkpt lat="43.61136154080475" lon="2.8465059495864535"><ele>924.0</ele><time>2026-04-07T14:08:04.998Z</time></trkpt><trkpt lat="43.61148677686313" lon="2.8464624213993224"><ele>920.0</ele><time>2026-04-07T14:08:05.998Z</time></trkpt><trkpt lat="43.611633880468645" lon="2.8464495976769677"><ele>920.0</ele><time>2026-04-07T14:08:06.998Z</time></trkpt><trkpt lat="43.611771372187576" lon="2.846488467138889"><ele>920.0</ele><time>2026-04-07T14:08:07.998Z</time></trkpt><trkpt lat="43.61191875033979" lon="2.8465098308477628"><ele>920.0</ele><time>2026-04-07T14:08:08.998Z</time></trkpt><trkpt lat="43.612062959170835" lon="2.846567773837382"><ele>920.0</ele><time>2026-04-07T14:08:10Z</time></trkpt><trkpt lat="43.612210460419874" lon="2.8466181917064763"><ele>919.0</ele><time>2026-04-07T14:08:11Z</time></trkpt><trkpt lat="43.61235899470073" lon="2.8466582111443834"><ele>918.0</ele><time>2026-04-07T14:08:12Z</time></trkpt><trkpt lat="43.61251318025075" lon="2.8466769571635973"><ele>917.0</ele><time>2026-04-07T14:08:13Z</time></trkpt><trkpt lat="43.61267627518344" lon="2.8466971056725683"><ele>917.0</ele><time>2026-04-07T14:08:14Z</time></trkpt><trkpt lat="43.612843449798625" lon="2.8466882282451236"><ele>917.0</ele><time>2026-04-07T14:08:15Z</time></trkpt><trkpt lat="43.613008948952654" lon="2.8466314727206803"><ele>917.0</ele><time>2026-04-07T14:08:16Z</time></trkpt><trkpt lat="43.613169620277425" lon="2.8465566594621516"><ele>917.0</ele><time>2026-04-07T14:08:17Z</time></trkpt><trkpt lat="43.61329812470946" lon="2.8464537113970816"><ele>917.0</ele><time>2026-04-07T14:08:18Z</time></trkpt><trkpt lat="43.6134222253478" lon="2.84635447447628"><ele>917.0</ele><time>2026-04-07T14:08:19Z</time></trkpt><trkpt lat="43.613562921965" lon="2.8463081476919685"><ele>917.0</ele><time>2026-04-07T14:08:20Z</time></trkpt><trkpt lat="43.61369097532432" lon="2.8462803854384324"><ele>914.75</ele><time>2026-04-07T14:08:21Z</time></trkpt><trkpt lat="43.613820762947874" lon="2.846356355837211"><ele>912.5</ele><time>2026-04-07T14:08:22Z</time></trkpt><trkpt lat="43.61389507810212" lon="2.84650998503917"><ele>910.25</ele><time>2026-04-07T14:08:23Z</time></trkpt><trkpt lat="43.61391750174062" lon="2.8466810703609426"><ele>908.0</ele><time>2026-04-07T14:08:24Z</time></trkpt><trkpt lat="43.61394028168162" lon="2.846904045826052"><ele>908.0</ele><time>2026-04-07T14:08:25Z</time></trkpt><trkpt lat="43.61394762752582" lon="2.8470922738663194"><ele>908.0</ele><time>2026-04-07T14:08:26Z</time></trkpt><trkpt lat="43.613950089733684" lon="2.847289706910052"><ele>908.0</ele><time>2026-04-07T14:08:27Z</time></trkpt><trkpt lat="43.613968571408" lon="2.8474623440870457"><ele>908.0</ele><time>2026-04-07T14:08:28Z</time></trkpt><trkpt lat="43.61401915359633" lon="2.8476325628906105"><ele>914.0</ele><time>2026-04-07T14:08:29Z</time></trkpt><trkpt lat="43.6140921598904" lon="2.847767970547076"><ele>920.0</ele><time>2026-04-07T14:08:30Z</time></trkpt><trkpt lat="43.614239019363815" lon="2.847899634402849"><ele>926.0</ele><time>2026-04-07T14:08:31Z</time></trkpt><trkpt lat="43.6143835190135" lon="2.8479855811222703"><ele>921.25</ele><time>2026-04-07T14:08:32Z</time></trkpt><trkpt lat="43.6145172227552" lon="2.8480705806191597"><ele>916.5</ele><time>2026-04-07T14:08:33Z</time></trkpt><trkpt lat="43.61464636126657" lon="2.8481493536831084"><ele>911.75</ele><time>2026-04-07T14:08:34Z</time></trkpt><trkpt lat="43.614779628233826" lon="2.8482273835475014"><ele>907.0</ele><time>2026-04-07T14:08:35Z</time></trkpt><trkpt lat="43.61491136182495" lon="2.8483109016341825"><ele>907.0</ele><time>2026-04-07T14:08:36Z</time></trkpt><trkpt lat="43.61504453663131" lon="2.8484135677324036"><ele>907.0</ele><time>2026-04-07T14:08:37Z</time></trkpt><trkpt lat="43.615156536047394" lon="2.84853537771493"><ele>907.0</ele><time>2026-04-07T14:08:38Z</time></trkpt><trkpt lat="43.61528789930728" lon="2.848651904783611"><ele>905.25</ele><time>2026-04-07T14:08:39Z</time></trkpt><trkpt lat="43.61539851100669" lon="2.8487798115740843"><ele>903.5</ele><time>2026-04-07T14:08:40Z</time></trkpt><trkpt lat="43.61549300942801" lon="2.8489202659361323"><ele>901.75</ele><time>2026-04-07T14:08:41Z</time></trkpt><trkpt lat="43.61559296742248" lon="2.8490583065151225"><ele>900.0</ele><time>2026-04-07T14:08:42Z</time></trkpt><trkpt lat="43.6157005316807" lon="2.8491871591371023"><ele>901.0</ele><time>2026-04-07T14:08:43Z</time></trkpt><trkpt lat="43.61578358323935" lon="2.8493334471728953"><ele>902.0</ele><time>2026-04-07T14:08:44Z</time></trkpt><trkpt lat="43.61585473627821" lon="2.849490853233916"><ele>903.0</ele><time>2026-04-07T14:08:45Z</time></trkpt><trkpt lat="43.61588684682515" lon="2.8496635829184616"><ele>904.0</ele><time>2026-04-07T14:08:46Z</time></trkpt><trkpt lat="43.615877420796046" lon="2.8498660287242115"><ele>904.0</ele><time>2026-04-07T14:08:47Z</time></trkpt><trkpt lat="43.615804160065274" lon="2.850031412287617"><ele>904.0</ele><time>2026-04-07T14:08:48Z</time></trkpt><trkpt lat="43.61571488180548" lon="2.85021951457076"><ele>904.0</ele><time>2026-04-07T14:08:49Z</time></trkpt><trkpt lat="43.61563373664635" lon="2.8504229506026526"><ele>902.5</ele><time>2026-04-07T14:08:50Z</time></trkpt><trkpt lat="43.61558298839339" lon="2.8506174875040573"><ele>901.0</ele><time>2026-04-07T14:08:50.999Z</time></trkpt><trkpt lat="43.61555585835515" lon="2.850787169094692"><ele>899.5</ele><time>2026-04-07T14:08:51.999Z</time></trkpt><trkpt lat="43.61553989203996" lon="2.8509410701411544"><ele>898.0</ele><time>2026-04-07T14:08:52.999Z</time></trkpt><trkpt lat="43.61553063296598" lon="2.8510736558148566"><ele>896.9999999999999</ele><time>2026-04-07T14:08:53.999Z</time></trkpt><trkpt lat="43.61551016640345" lon="2.851195403409066"><ele>896.0</ele><time>2026-04-07T14:08:54.999Z</time></trkpt><trkpt lat="43.61549256271726" lon="2.8512940966457734"><ele>895.0</ele><time>2026-04-07T14:08:55.999Z</time></trkpt><trkpt lat="43.615485551821656" lon="2.85138519131639"><ele>894.0</ele><time>2026-04-07T14:08:56.999Z</time></trkpt><trkpt lat="43.61546673723336" lon="2.8515540007490356"><ele>892.9999999999999</ele><time>2026-04-07T14:08:58.999Z</time></trkpt><trkpt lat="43.615437886741816" lon="2.8516784543460236"><ele>892.0</ele><time>2026-04-07T14:09:00.999Z</time></trkpt><trkpt lat="43.61543365615921" lon="2.8518155481153804"><ele>891.6</ele><time>2026-04-07T14:09:02.999Z</time></trkpt><trkpt lat="43.615417743754406" lon="2.8519872508346893"><ele>891.2</ele><time>2026-04-07T14:09:04.999Z</time></trkpt><trkpt lat="43.61540936984631" lon="2.8521001867710525"><ele>890.8</ele><time>2026-04-07T14:09:05.999Z</time></trkpt><trkpt lat="43.61541029545615" lon="2.8522331725791332"><ele>890.4</ele><time>2026-04-07T14:09:06.999Z</time></trkpt><trkpt lat="43.61541350412622" lon="2.8523637285583594"><ele>890.0</ele><time>2026-04-07T14:09:07.999Z</time></trkpt><trkpt lat="43.61540908565858" lon="2.852505735286065"><ele>889.5</ele><time>2026-04-07T14:09:08.999Z</time></trkpt><trkpt lat="43.61539837561443" lon="2.852650762978157"><ele>889.0</ele><time>2026-04-07T14:09:09.999Z</time></trkpt><trkpt lat="43.615347492111844" lon="2.852796974393637"><ele>888.5</ele><time>2026-04-07T14:09:10.999Z</time></trkpt><trkpt lat="43.61532559197387" lon="2.852975675743171"><ele>888.0</ele><time>2026-04-07T14:09:11.999Z</time></trkpt><trkpt lat="43.61533003758463" lon="2.853187307283017"><ele>888.0</ele><time>2026-04-07T14:09:12.999Z</time></trkpt><trkpt lat="43.615339657087446" lon="2.853413357389903"><ele>888.0</ele><time>2026-04-07T14:09:13.999Z</time></trkpt><trkpt lat="43.615445102891016" lon="2.853457403187631"><ele>888.0</ele><time>2026-04-07T14:09:14.999Z</time></trkpt><trkpt lat="43.615581098232184" lon="2.853609779573577"><ele>888.0</ele><time>2026-04-07T14:09:15.999Z</time></trkpt><trkpt lat="43.61574332967262" lon="2.8536699336639533"><ele>890.0</ele><time>2026-04-07T14:09:16.999Z</time></trkpt><trkpt lat="43.615889520853734" lon="2.853697829461222"><ele>892.0</ele><time>2026-04-07T14:09:17.999Z</time></trkpt><trkpt lat="43.61601030199949" lon="2.8537337784621313"><ele>894.0</ele><time>2026-04-07T14:09:18.999Z</time></trkpt><trkpt lat="43.61611415380028" lon="2.853860156436116"><ele>896.0</ele><time>2026-04-07T14:09:19.999Z</time></trkpt><trkpt lat="43.61619103152196" lon="2.8540431504140935"><ele>892.0</ele><time>2026-04-07T14:09:20.999Z</time></trkpt><trkpt lat="43.61618849396052" lon="2.8542505491807604"><ele>888.0</ele><time>2026-04-07T14:09:21.999Z</time></trkpt><trkpt lat="43.61619079921838" lon="2.8544570070075683"><ele>884.0</ele><time>2026-04-07T14:09:22.999Z</time></trkpt><trkpt lat="43.616197714134096" lon="2.8546516663016495"><ele>880.0</ele><time>2026-04-07T14:09:23.999Z</time></trkpt><trkpt lat="43.61621604160857" lon="2.8548280447077468"><ele>880.0</ele><time>2026-04-07T14:09:24.999Z</time></trkpt><trkpt lat="43.61624213571355" lon="2.8550144651691016"><ele>880.0</ele><time>2026-04-07T14:09:25.999Z</time></trkpt><trkpt lat="43.6162687395476" lon="2.855185828953378"><ele>880.0</ele><time>2026-04-07T14:09:26.999Z</time></trkpt><trkpt lat="43.61628448294517" lon="2.855365493770678"><ele>880.0</ele><time>2026-04-07T14:09:27.999Z</time></trkpt><trkpt lat="43.616306304964276" lon="2.855560660919093"><ele>882.0</ele><time>2026-04-07T14:09:28.999Z</time></trkpt><trkpt lat="43.616376687518354" lon="2.855736278336185"><ele>884.0</ele><time>2026-04-07T14:09:29.999Z</time></trkpt><trkpt lat="43.6164775643142" lon="2.8559089508873816"><ele>886.0</ele><time>2026-04-07T14:09:30.999Z</time></trkpt><trkpt lat="43.616544994563235" lon="2.856088271850333"><ele>887.25</ele><time>2026-04-07T14:09:31.999Z</time></trkpt><trkpt lat="43.61653867441076" lon="2.856295223919574"><ele>888.5</ele><time>2026-04-07T14:09:32.999Z</time></trkpt><trkpt lat="43.616547894825025" lon="2.8564911250182634"><ele>889.75</ele><time>2026-04-07T14:09:33.999Z</time></trkpt><trkpt lat="43.61653812157725" lon="2.856669185058949"><ele>891.0</ele><time>2026-04-07T14:09:34.999Z</time></trkpt><trkpt lat="43.616548295922364" lon="2.8568338509677225"><ele>892.5999999999999</ele><time>2026-04-07T14:09:35.999Z</time></trkpt><trkpt lat="43.61657316002886" lon="2.856993093598311"><ele>894.1999999999999</ele><time>2026-04-07T14:09:36.998Z</time></trkpt><trkpt lat="43.616616343501626" lon="2.8571356160300567"><ele>895.8000000000001</ele><time>2026-04-07T14:09:37.998Z</time></trkpt><trkpt lat="43.61666322548614" lon="2.85726706669144"><ele>897.4000000000001</ele><time>2026-04-07T14:09:38.998Z</time></trkpt><trkpt lat="43.61671896168528" lon="2.8573949611529064"><ele>899.0</ele><time>2026-04-07T14:09:39.998Z</time></trkpt><trkpt lat="43.61676783705848" lon="2.857524572806897"><ele>896.75</ele><time>2026-04-07T14:09:40.998Z</time></trkpt><trkpt lat="43.6168229841883" lon="2.8576597809363893"><ele>894.5</ele><time>2026-04-07T14:09:41.998Z</time></trkpt><trkpt lat="43.61689352340359" lon="2.8577925581370733"><ele>892.25</ele><time>2026-04-07T14:09:42.998Z</time></trkpt><trkpt lat="43.616987593730265" lon="2.8579002984074395"><ele>890.0</ele><time>2026-04-07T14:09:43.998Z</time></trkpt><trkpt lat="43.617080297801856" lon="2.8580072832939547"><ele>890.0</ele><time>2026-04-07T14:09:44.998Z</time></trkpt><trkpt lat="43.61718268425338" lon="2.8580966104519314"><ele>890.0</ele><time>2026-04-07T14:09:45.998Z</time></trkpt><trkpt lat="43.61729106340796" lon="2.8581640070638525"><ele>890.0</ele><time>2026-04-07T14:09:46.998Z</time></trkpt><trkpt lat="43.61738822944797" lon="2.858247883345848"><ele>890.0</ele><time>2026-04-07T14:09:47.998Z</time></trkpt><trkpt lat="43.61748583328523" lon="2.8583309123768084"><ele>890.0</ele><time>2026-04-07T14:09:48.998Z</time></trkpt><trkpt lat="43.61753886508399" lon="2.8584035185782386"><ele>890.0</ele><time>2026-04-07T14:09:49.998Z</time></trkpt><trkpt lat="43.61760230831701" lon="2.8584582618419123"><ele>890.0</ele><time>2026-04-07T14:09:51.998Z</time></trkpt><trkpt lat="43.61769006199397" lon="2.8585265202763206"><ele>890.0</ele><time>2026-04-07T14:10:45Z</time></trkpt><trkpt lat="43.617778245592895" lon="2.8585892119516956"><ele>890.0</ele><time>2026-04-07T14:10:46Z</time></trkpt><trkpt lat="43.617884799661255" lon="2.8586645236937653"><ele>888.5000000000001</ele><time>2026-04-07T14:10:47Z</time></trkpt><trkpt lat="43.617996821334614" lon="2.8587037588473128"><ele>887.0</ele><time>2026-04-07T14:10:48Z</time></trkpt><trkpt lat="43.61809849951613" lon="2.858733944456607"><ele>885.5</ele><time>2026-04-07T14:10:49Z</time></trkpt><trkpt lat="43.61817162742598" lon="2.858738121316613"><ele>884.0</ele><time>2026-04-07T14:10:50Z</time></trkpt><trkpt lat="43.61825030438611" lon="2.858741861137883"><ele>882.5000000000001</ele><time>2026-04-07T14:10:52Z</time></trkpt><trkpt lat="43.61831760746094" lon="2.858701896185955"><ele>881.0</ele><time>2026-04-07T14:10:53Z</time></trkpt><trkpt lat="43.61847792594923" lon="2.8587210803824235"><ele>881.0</ele><time>2026-04-07T14:10:54Z</time></trkpt><trkpt lat="43.6184309182479" lon="2.8589857529039175"><ele>881.0</ele><time>2026-04-07T14:10:55Z</time></trkpt><trkpt lat="43.61845738564151" lon="2.8591162896558124"><ele>881.0</ele><time>2026-04-07T14:10:56Z</time></trkpt><trkpt lat="43.61847595289848" lon="2.85922851014139"><ele>881.0</ele><time>2026-04-07T14:10:57Z</time></trkpt><trkpt lat="43.618477051350084" lon="2.8593438434132428"><ele>881.8</ele><time>2026-04-07T14:10:58Z</time></trkpt><trkpt lat="43.618464955306045" lon="2.8594672583193264"><ele>882.5999999999999</ele><time>2026-04-07T14:10:59Z</time></trkpt><trkpt lat="43.61844316598217" lon="2.8595667231723003"><ele>883.4</ele><time>2026-04-07T14:11:00Z</time></trkpt><trkpt lat="43.61841598544032" lon="2.8596770627873833"><ele>884.2</ele><time>2026-04-07T14:11:00.999Z</time></trkpt><trkpt lat="43.61838130693628" lon="2.859822406616799"><ele>885.0</ele><time>2026-04-07T14:11:01.999Z</time></trkpt><trkpt lat="43.61834789449023" lon="2.8599624492559643"><ele>885.0</ele><time>2026-04-07T14:11:02.999Z</time></trkpt><trkpt lat="43.618298306588215" lon="2.860096095741311"><ele>885.0</ele><time>2026-04-07T14:11:03.999Z</time></trkpt><trkpt lat="43.61824689683075" lon="2.860257144021716"><ele>885.0</ele><time>2026-04-07T14:11:04.999Z</time></trkpt><trkpt lat="43.618196003689555" lon="2.8604327658322597"><ele>885.0</ele><time>2026-04-07T14:11:05.999Z</time></trkpt><trkpt lat="43.61813787430786" lon="2.8605960682324936"><ele>885.5</ele><time>2026-04-07T14:11:06.999Z</time></trkpt><trkpt lat="43.61807257383487" lon="2.8607576578619955"><ele>886.0</ele><time>2026-04-07T14:11:07.999Z</time></trkpt><trkpt lat="43.618005347167596" lon="2.8609172457389627"><ele>886.5</ele><time>2026-04-07T14:11:08.999Z</time></trkpt><trkpt lat="43.61793607938162" lon="2.86108123205586"><ele>887.0</ele><time>2026-04-07T14:11:09.999Z</time></trkpt><trkpt lat="43.61786330785106" lon="2.8612501631955327"><ele>887.25</ele><time>2026-04-07T14:11:10.999Z</time></trkpt><trkpt lat="43.61779184129449" lon="2.861416307557951"><ele>887.5</ele><time>2026-04-07T14:11:11.999Z</time></trkpt><trkpt lat="43.61774142690991" lon="2.861582032784789"><ele>887.75</ele><time>2026-04-07T14:11:12.999Z</time></trkpt><trkpt lat="43.61767565989021" lon="2.861725171134746"><ele>888.0</ele><time>2026-04-07T14:11:13.999Z</time></trkpt><trkpt lat="43.61760416375063" lon="2.8618840612201164"><ele>888.0</ele><time>2026-04-07T14:11:14.999Z</time></trkpt><trkpt lat="43.617528069969666" lon="2.8620212034485553"><ele>888.0</ele><time>2026-04-07T14:11:15.999Z</time></trkpt><trkpt lat="43.61748280683682" lon="2.862119096761704"><ele>888.0</ele><time>2026-04-07T14:11:16.999Z</time></trkpt><trkpt lat="43.61741939855123" lon="2.86217229050661"><ele>888.0</ele><time>2026-04-07T14:11:17.999Z</time></trkpt><trkpt lat="43.617320116294316" lon="2.862227192783485"><ele>888.0</ele><time>2026-04-07T14:11:19.999Z</time></trkpt><trkpt lat="43.61711667953958" lon="2.8621748664343123"><ele>888.0</ele><time>2026-04-07T14:11:21.999Z</time></trkpt><trkpt lat="43.617026591466434" lon="2.862149702722484"><ele>888.0</ele><time>2026-04-07T14:11:22.999Z</time></trkpt><trkpt lat="43.616917593874064" lon="2.8621310282310124"><ele>888.0</ele><time>2026-04-07T14:11:23.999Z</time></trkpt><trkpt lat="43.61682286617015" lon="2.862118639039836"><ele>888.0</ele><time>2026-04-07T14:11:24.999Z</time></trkpt><trkpt lat="43.61672106454646" lon="2.862095125183093"><ele>888.0</ele><time>2026-04-07T14:11:25.999Z</time></trkpt><trkpt lat="43.616610530858566" lon="2.862065149050494"><ele>887.75</ele><time>2026-04-07T14:11:26.999Z</time></trkpt><trkpt lat="43.616497722232886" lon="2.862032627112113"><ele>887.5</ele><time>2026-04-07T14:11:27.999Z</time></trkpt><trkpt lat="43.616382477321146" lon="2.8620056465270785"><ele>887.25</ele><time>2026-04-07T14:11:28.999Z</time></trkpt><trkpt lat="43.61625783767667" lon="2.861986617310164"><ele>887.0</ele><time>2026-04-07T14:11:29.999Z</time></trkpt><trkpt lat="43.61613720576332" lon="2.86199771588416"><ele>887.75</ele><time>2026-04-07T14:11:30.999Z</time></trkpt><trkpt lat="43.616017673519366" lon="2.861973826304809"><ele>888.5</ele><time>2026-04-07T14:11:31.999Z</time></trkpt><trkpt lat="43.615892392683364" lon="2.8619669932643506"><ele>889.25</ele><time>2026-04-07T14:11:32.999Z</time></trkpt><trkpt lat="43.61576790481761" lon="2.861957378848214"><ele>890.0</ele><time>2026-04-07T14:11:33.999Z</time></trkpt><trkpt lat="43.61566331314541" lon="2.8619395415898405"><ele>890.0</ele><time>2026-04-07T14:11:34.999Z</time></trkpt><trkpt lat="43.61553622263126" lon="2.8619180444698014"><ele>890.0</ele><time>2026-04-07T14:11:35.999Z</time></trkpt><trkpt lat="43.61539896348039" lon="2.8618695900384643"><ele>890.0</ele><time>2026-04-07T14:11:36.999Z</time></trkpt><trkpt lat="43.61527456677609" lon="2.861841770442944"><ele>890.0</ele><time>2026-04-07T14:11:37.999Z</time></trkpt><trkpt lat="43.615146990167936" lon="2.8618130939039674"><ele>893.25</ele><time>2026-04-07T14:11:38.999Z</time></trkpt><trkpt lat="43.61502678453213" lon="2.861777320562515"><ele>896.5</ele><time>2026-04-07T14:11:39.999Z</time></trkpt><trkpt lat="43.614895332568665" lon="2.861737752590427"><ele>899.75</ele><time>2026-04-07T14:11:40.999Z</time></trkpt><trkpt lat="43.614774950024454" lon="2.8616758711419785"><ele>903.0</ele><time>2026-04-07T14:11:41.999Z</time></trkpt><trkpt lat="43.614661686810166" lon="2.8615857814919567"><ele>903.0</ele><time>2026-04-07T14:11:42.999Z</time></trkpt><trkpt lat="43.614547301307" lon="2.8615104345218754"><ele>903.0</ele><time>2026-04-07T14:11:43.999Z</time></trkpt><trkpt lat="43.61443978000195" lon="2.86149076030379"><ele>903.0</ele><time>2026-04-07T14:11:44.999Z</time></trkpt><trkpt lat="43.61432954223542" lon="2.8615746850698676"><ele>903.0</ele><time>2026-04-07T14:11:45.999Z</time></trkpt><trkpt lat="43.61423628393196" lon="2.8616814245059086"><ele>899.25</ele><time>2026-04-07T14:11:46.999Z</time></trkpt><trkpt lat="43.61413702982239" lon="2.8618514141823477"><ele>895.5</ele><time>2026-04-07T14:11:47.998Z</time></trkpt><trkpt lat="43.6140577505826" lon="2.8620009249688487"><ele>891.75</ele><time>2026-04-07T14:11:48.998Z</time></trkpt><trkpt lat="43.61397443432433" lon="2.862158695928124"><ele>888.0</ele><time>2026-04-07T14:11:49.998Z</time></trkpt><trkpt lat="43.613898471341734" lon="2.862302542676183"><ele>888.0</ele><time>2026-04-07T14:11:50.998Z</time></trkpt><trkpt lat="43.61382859840775" lon="2.8624332025071038"><ele>888.0</ele><time>2026-04-07T14:11:51.998Z</time></trkpt><trkpt lat="43.61375366819482" lon="2.862571267311145"><ele>888.0</ele><time>2026-04-07T14:11:52.998Z</time></trkpt><trkpt lat="43.61367450837019" lon="2.862717125450791"><ele>888.0</ele><time>2026-04-07T14:11:53.998Z</time></trkpt><trkpt lat="43.61360230262355" lon="2.862852885092246"><ele>889.25</ele><time>2026-04-07T14:11:54.998Z</time></trkpt><trkpt lat="43.61352899591636" lon="2.862993278855093"><ele>890.5</ele><time>2026-04-07T14:11:55.998Z</time></trkpt><trkpt lat="43.613455235410285" lon="2.863133962675855"><ele>891.75</ele><time>2026-04-07T14:11:56.998Z</time></trkpt><trkpt lat="43.6133786988461" lon="2.8632798720943127"><ele>893.0</ele><time>2026-04-07T14:11:57.998Z</time></trkpt><trkpt lat="43.613304572661214" lon="2.8634270337608707"><ele>893.75</ele><time>2026-04-07T14:11:58.998Z</time></trkpt><trkpt lat="43.61323409555915" lon="2.8635685065168657"><ele>894.5</ele><time>2026-04-07T14:11:59.998Z</time></trkpt><trkpt lat="43.6131660634164" lon="2.863727997537602"><ele>895.25</ele><time>2026-04-07T14:12:00.998Z</time></trkpt><trkpt lat="43.61307757561543" lon="2.863854858875689"><ele>896.0</ele><time>2026-04-07T14:12:01.998Z</time></trkpt><trkpt lat="43.61298468292146" lon="2.8639913027400783"><ele>896.0</ele><time>2026-04-07T14:12:02.998Z</time></trkpt><trkpt lat="43.612898454874255" lon="2.8641048480072757"><ele>896.0</ele><time>2026-04-07T14:12:03.998Z</time></trkpt><trkpt lat="43.61279714559756" lon="2.864219375285376"><ele>896.0</ele><time>2026-04-07T14:12:04.998Z</time></trkpt><trkpt lat="43.612683736107215" lon="2.864347808379298"><ele>896.0</ele><time>2026-04-07T14:12:05.998Z</time></trkpt><trkpt lat="43.61257921116192" lon="2.864467684526096"><ele>896.75</ele><time>2026-04-07T14:12:06.998Z</time></trkpt><trkpt lat="43.61247211488407" lon="2.864591157127101"><ele>897.5</ele><time>2026-04-07T14:12:07.998Z</time></trkpt><trkpt lat="43.61236483148931" lon="2.864714843985176"><ele>898.25</ele><time>2026-04-07T14:12:08.998Z</time></trkpt><trkpt lat="43.61226411429319" lon="2.864830960609309"><ele>899.0</ele><time>2026-04-07T14:12:09.998Z</time></trkpt><trkpt lat="43.612164947352376" lon="2.8649430609021254"><ele>899.0</ele><time>2026-04-07T14:12:10.998Z</time></trkpt><trkpt lat="43.6120694797422" lon="2.865073296036182"><ele>899.0</ele><time>2026-04-07T14:12:11.998Z</time></trkpt><trkpt lat="43.61196112371011" lon="2.865191173162754"><ele>899.0</ele><time>2026-04-07T14:12:12.998Z</time></trkpt><trkpt lat="43.61184749104096" lon="2.865288284740735"><ele>899.0</ele><time>2026-04-07T14:12:13.998Z</time></trkpt><trkpt lat="43.61172967325433" lon="2.865391593611059"><ele>900.25</ele><time>2026-04-07T14:12:14.998Z</time></trkpt><trkpt lat="43.611615031482884" lon="2.8654764286620824"><ele>901.5</ele><time>2026-04-07T14:12:15.998Z</time></trkpt><trkpt lat="43.61148988644628" lon="2.865555897734692"><ele>902.75</ele><time>2026-04-07T14:12:16.998Z</time></trkpt><trkpt lat="43.61135651899349" lon="2.8656224842178895"><ele>904.0</ele><time>2026-04-07T14:12:17.998Z</time></trkpt><trkpt lat="43.61123073473345" lon="2.865687643786411"><ele>906.25</ele><time>2026-04-07T14:12:18.998Z</time></trkpt><trkpt lat="43.61108980055529" lon="2.865733248400437"><ele>908.5</ele><time>2026-04-07T14:12:19.998Z</time></trkpt><trkpt lat="43.61095498562771" lon="2.8658072029624058"><ele>910.75</ele><time>2026-04-07T14:12:20.998Z</time></trkpt><trkpt lat="43.61081851658873" lon="2.8658584259425512"><ele>913.0</ele><time>2026-04-07T14:12:22Z</time></trkpt><trkpt lat="43.61069176065065" lon="2.8659065585629473"><ele>911.75</ele><time>2026-04-07T14:12:23Z</time></trkpt><trkpt lat="43.61056460571073" lon="2.8659488776610798"><ele>910.5</ele><time>2026-04-07T14:12:24Z</time></trkpt><trkpt lat="43.61043200953294" lon="2.866006516038497"><ele>909.25</ele><time>2026-04-07T14:12:25Z</time></trkpt><trkpt lat="43.61027854463112" lon="2.8660680445518465"><ele>908.0</ele><time>2026-04-07T14:12:26Z</time></trkpt><trkpt lat="43.610145523805365" lon="2.866151850272743"><ele>908.0</ele><time>2026-04-07T14:12:27Z</time></trkpt><trkpt lat="43.61005485209221" lon="2.866236663800313"><ele>908.0</ele><time>2026-04-07T14:12:28Z</time></trkpt><trkpt lat="43.609956144407626" lon="2.86628700484346"><ele>908.0</ele><time>2026-04-07T14:12:29Z</time></trkpt><trkpt lat="43.60984544952901" lon="2.8663528559989864"><ele>908.0</ele><time>2026-04-07T14:12:30Z</time></trkpt><trkpt lat="43.609732167881994" lon="2.8664187236311642"><ele>908.0</ele><time>2026-04-07T14:12:31Z</time></trkpt><trkpt lat="43.60959864923778" lon="2.8664824391608263"><ele>908.0</ele><time>2026-04-07T14:12:32Z</time></trkpt><trkpt lat="43.609514088340795" lon="2.866534809557672"><ele>908.0</ele><time>2026-04-07T14:12:33Z</time></trkpt><trkpt lat="43.60944247963975" lon="2.8665895429051416"><ele>908.0</ele><time>2026-04-07T14:12:34Z</time></trkpt><trkpt lat="43.60938856913918" lon="2.866651558196282"><ele>908.0</ele><time>2026-04-07T14:12:35Z</time></trkpt><trkpt lat="43.60930587754187" lon="2.866815309306522"><ele>908.0</ele><time>2026-04-07T14:12:37Z</time></trkpt><trkpt lat="43.60932364461509" lon="2.8670665263594675"><ele>908.0</ele><time>2026-04-07T14:12:38Z</time></trkpt><trkpt lat="43.60933927980542" lon="2.867207725353826"><ele>908.0</ele><time>2026-04-07T14:12:39Z</time></trkpt><trkpt lat="43.60935721130705" lon="2.8673456728889524"><ele>908.0</ele><time>2026-04-07T14:12:40Z</time></trkpt><trkpt lat="43.60937514123546" lon="2.8674916650554296"><ele>908.0</ele><time>2026-04-07T14:12:41Z</time></trkpt><trkpt lat="43.60939308851847" lon="2.867643397025815"><ele>908.0</ele><time>2026-04-07T14:12:42Z</time></trkpt><trkpt lat="43.60941163070002" lon="2.867800209933558"><ele>908.0</ele><time>2026-04-07T14:12:43Z</time></trkpt><trkpt lat="43.60943012287669" lon="2.8679565999076364"><ele>908.0</ele><time>2026-04-07T14:12:44Z</time></trkpt><trkpt lat="43.60944872097156" lon="2.8681138857725466"><ele>908.0</ele><time>2026-04-07T14:12:45Z</time></trkpt><trkpt lat="43.60946690431476" lon="2.8682676639067672"><ele>908.0</ele><time>2026-04-07T14:12:46Z</time></trkpt><trkpt lat="43.60948495611857" lon="2.8684203296239756"><ele>908.0</ele><time>2026-04-07T14:12:47Z</time></trkpt><trkpt lat="43.60950264421351" lon="2.8685672400151185"><ele>908.0</ele><time>2026-04-07T14:12:48Z</time></trkpt><trkpt lat="43.61148988644628" lon="2.865555897734692"><ele>907.0</ele><time>2026-04-07T14:12:16.998Z</time></trkpt><trkpt lat="43.61135651899349" lon="2.8656224842178895"><ele>906.0</ele><time>2026-04-07T14:12:17.998Z</time></trkpt><trkpt lat="43.61123073473345" lon="2.865687643786411"><ele>905.0</ele><time>2026-04-07T14:12:18.998Z</time></trkpt><trkpt lat="43.61108980055529" lon="2.865733248400437"><ele>904.0</ele><time>2026-04-07T14:12:19.998Z</time></trkpt><trkpt lat="43.61095498562771" lon="2.8658072029624058"><ele>904.5</ele><time>2026-04-07T14:12:20.998Z</time></trkpt><trkpt lat="43.61081851658873" lon="2.8658584259425512"><ele>905.0</ele><time>2026-04-07T14:12:22Z</time></trkpt><trkpt lat="43.61069176065065" lon="2.8659065585629473"><ele>905.5</ele><time>2026-04-07T14:12:23Z</time></trkpt><trkpt lat="43.61056460571073" lon="2.8659488776610798"><ele>906.0</ele><time>2026-04-07T14:12:24Z</time></trkpt><trkpt lat="43.61043200953294" lon="2.866006516038497"><ele>906.5</ele><time>2026-04-07T14:12:25Z</time></trkpt><trkpt lat="43.61027854463112" lon="2.8660680445518465"><ele>907.0</ele><time>2026-04-07T14:12:26Z</time></trkpt><trkpt lat="43.610145523805365" lon="2.866151850272743"><ele>907.5</ele><time>2026-04-07T14:12:27Z</time></trkpt><trkpt lat="43.61005485209221" lon="2.866236663800313"><ele>908.0</ele><time>2026-04-07T14:12:28Z</time></trkpt><trkpt lat="43.609956144407626" lon="2.86628700484346"><ele>908.0</ele><time>2026-04-07T14:12:29Z</time></trkpt><trkpt lat="43.60984544952901" lon="2.8663528559989864"><ele>908.0</ele><time>2026-04-07T14:12:30Z</time></trkpt><trkpt lat="43.609732167881994" lon="2.8664187236311642"><ele>908.0</ele><time>2026-04-07T14:12:31Z</time></trkpt><trkpt lat="43.60959864923778" lon="2.8664824391608263"><ele>908.0</ele><time>2026-04-07T14:12:32Z</time></trkpt><trkpt lat="43.609514088340795" lon="2.866534809557672"><ele>908.0</ele><time>2026-04-07T14:12:33Z</time></trkpt><trkpt lat="43.60944247963975" lon="2.8665895429051416"><ele>908.0</ele><time>2026-04-07T14:12:34Z</time></trkpt><trkpt lat="43.60938856913918" lon="2.866651558196282"><ele>908.0</ele><time>2026-04-07T14:12:35Z</time></trkpt><trkpt lat="43.60930587754187" lon="2.866815309306522"><ele>908.0</ele><time>2026-04-07T14:12:37Z</time></trkpt><trkpt lat="43.60932364461509" lon="2.8670665263594675"><ele>908.0</ele><time>2026-04-07T14:12:38Z</time></trkpt><trkpt lat="43.60933927980542" lon="2.867207725353826"><ele>908.0</ele><time>2026-04-07T14:12:39Z</time></trkpt><trkpt lat="43.60935721130705" lon="2.8673456728889524"><ele>908.0</ele><time>2026-04-07T14:12:40Z</time></trkpt><trkpt lat="43.60937514123546" lon="2.8674916650554296"><ele>908.0</ele><time>2026-04-07T14:12:41Z</time></trkpt><trkpt lat="43.60939308851847" lon="2.867643397025815"><ele>908.0</ele><time>2026-04-07T14:12:42Z</time></trkpt><trkpt lat="43.60941163070002" lon="2.867800209933558"><ele>908.0</ele><time>2026-04-07T14:12:43Z</time></trkpt><trkpt lat="43.60943012287669" lon="2.8679565999076364"><ele>908.0</ele><time>2026-04-07T14:12:44Z</time></trkpt><trkpt lat="43.60944872097156" lon="2.8681138857725466"><ele>908.0</ele><time>2026-04-07T14:12:45Z</time></trkpt><trkpt lat="43.60946690431476" lon="2.8682676639067672"><ele>908.0</ele><time>2026-04-07T14:12:46Z</time></trkpt><trkpt lat="43.60948495611857" lon="2.8684203296239756"><ele>911.5999999999999</ele><time>2026-04-07T14:12:47Z</time></trkpt><trkpt lat="43.60950264421351" lon="2.8685672400151185"><ele>915.1999999999999</ele><time>2026-04-07T14:12:48Z</time></trkpt><trkpt lat="43.60952021632056" lon="2.868711478011266"><ele>918.8</ele><time>2026-04-07T14:12:49Z</time></trkpt><trkpt lat="43.60953805407983" lon="2.868857896468886"><ele>922.4</ele><time>2026-04-07T14:12:50Z</time></trkpt><trkpt lat="43.60955509387112" lon="2.8689950422015587"><ele>926.0</ele><time>2026-04-07T14:12:51Z</time></trkpt><trkpt lat="43.60959556256944" lon="2.8691272110139234"><ele>926.0</ele><time>2026-04-07T14:12:52Z</time></trkpt><trkpt lat="43.609611312486805" lon="2.8692723294254914"><ele>925.9999999999999</ele><time>2026-04-07T14:12:53Z</time></trkpt><trkpt lat="43.60963088617652" lon="2.8694293679929905"><ele>925.9999999999999</ele><time>2026-04-07T14:12:54Z</time></trkpt><trkpt lat="43.60963951304828" lon="2.8695816399937932"><ele>926.0</ele><time>2026-04-07T14:12:55Z</time></trkpt><trkpt lat="43.60964007024028" lon="2.8697347390554495"><ele>926.0</ele><time>2026-04-07T14:12:56Z</time></trkpt><trkpt lat="43.60962976481012" lon="2.8698812950312056"><ele>927.25</ele><time>2026-04-07T14:12:57Z</time></trkpt><trkpt lat="43.60961937628582" lon="2.870036440454838"><ele>928.5</ele><time>2026-04-07T14:12:58Z</time></trkpt><trkpt lat="43.60959487837423" lon="2.870201403982819"><ele>929.75</ele><time>2026-04-07T14:12:59Z</time></trkpt><trkpt lat="43.6095427104912" lon="2.8703499679302373"><ele>931.0</ele><time>2026-04-07T14:13:00Z</time></trkpt><trkpt lat="43.609522980236406" lon="2.8705032157655257"><ele>932.5</ele><time>2026-04-07T14:13:01Z</time></trkpt><trkpt lat="43.60951571512717" lon="2.8706900665763735"><ele>934.0</ele><time>2026-04-07T14:13:02Z</time></trkpt><trkpt lat="43.60949692638879" lon="2.870859370179175"><ele>935.5</ele><time>2026-04-07T14:13:02.999Z</time></trkpt><trkpt lat="43.60946700799144" lon="2.871021319433161"><ele>937.0</ele><time>2026-04-07T14:13:03.999Z</time></trkpt><trkpt lat="43.6094582856254" lon="2.871184163449841"><ele>933.5</ele><time>2026-04-07T14:13:04.999Z</time></trkpt><trkpt lat="43.609465208599495" lon="2.871360021971704"><ele>930.0</ele><time>2026-04-07T14:13:05.999Z</time></trkpt><trkpt lat="43.60947242658797" lon="2.871547409817635"><ele>926.5</ele><time>2026-04-07T14:13:06.999Z</time></trkpt><trkpt lat="43.60947827039643" lon="2.8716945722645972"><ele>923.0</ele><time>2026-04-07T14:13:07.999Z</time></trkpt><trkpt lat="43.60949154388356" lon="2.8718616339210237"><ele>927.0</ele><time>2026-04-07T14:13:08.999Z</time></trkpt><trkpt lat="43.6095234083669" lon="2.872032033172513"><ele>931.0</ele><time>2026-04-07T14:13:09.999Z</time></trkpt><trkpt lat="43.60955627079702" lon="2.8721848098829907"><ele>935.0</ele><time>2026-04-07T14:13:10.999Z</time></trkpt><trkpt lat="43.609589036148165" lon="2.872345640523525"><ele>939.0</ele><time>2026-04-07T14:13:11.999Z</time></trkpt><trkpt lat="43.60963864604024" lon="2.872504369219798"><ele>937.75</ele><time>2026-04-07T14:13:12.999Z</time></trkpt><trkpt lat="43.60968602506367" lon="2.8726634066346977"><ele>936.5</ele><time>2026-04-07T14:13:13.999Z</time></trkpt><trkpt lat="43.60973067843957" lon="2.8728198084523204"><ele>935.25</ele><time>2026-04-07T14:13:14.999Z</time></trkpt><trkpt lat="43.609779234634956" lon="2.8729849829624596"><ele>934.0</ele><time>2026-04-07T14:13:15.999Z</time></trkpt><trkpt lat="43.60981645678096" lon="2.8731398531720327"><ele>934.0</ele><time>2026-04-07T14:13:16.999Z</time></trkpt><trkpt lat="43.60985084634221" lon="2.8733054790704657"><ele>934.0</ele><time>2026-04-07T14:13:17.999Z</time></trkpt><trkpt lat="43.60988923540682" lon="2.87347837986985"><ele>934.0</ele><time>2026-04-07T14:13:18.999Z</time></trkpt><trkpt lat="43.609920778178136" lon="2.87365900060802"><ele>934.0</ele><time>2026-04-07T14:13:19.999Z</time></trkpt><trkpt lat="43.60996235077291" lon="2.873827776531148"><ele>933.25</ele><time>2026-04-07T14:13:20.999Z</time></trkpt><trkpt lat="43.60999749866121" lon="2.873987870685143"><ele>932.5</ele><time>2026-04-07T14:13:21.999Z</time></trkpt><trkpt lat="43.610030172775204" lon="2.8741384939172043"><ele>931.75</ele><time>2026-04-07T14:13:22.999Z</time></trkpt><trkpt lat="43.61006601804372" lon="2.874293345001896"><ele>931.0</ele><time>2026-04-07T14:13:23.999Z</time></trkpt><trkpt lat="43.61010719857799" lon="2.874441923610093"><ele>930.25</ele><time>2026-04-07T14:13:24.999Z</time></trkpt><trkpt lat="43.6101543970286" lon="2.8745878002355063"><ele>929.5</ele><time>2026-04-07T14:13:25.999Z</time></trkpt><trkpt lat="43.61018871223199" lon="2.8747508104139423"><ele>928.75</ele><time>2026-04-07T14:13:26.999Z</time></trkpt><trkpt lat="43.61020022806714" lon="2.8749283652291417"><ele>928.0</ele><time>2026-04-07T14:13:27.999Z</time></trkpt><trkpt lat="43.61021300493005" lon="2.8751142392206814"><ele>928.0</ele><time>2026-04-07T14:13:28.999Z</time></trkpt><trkpt lat="43.61022438351709" lon="2.8753058925925177"><ele>928.0</ele><time>2026-04-07T14:13:29.999Z</time></trkpt><trkpt lat="43.61025076953177" lon="2.8754877415832456"><ele>928.0</ele><time>2026-04-07T14:13:30.999Z</time></trkpt><trkpt lat="43.610250617284365" lon="2.875668273765496"><ele>928.0</ele><time>2026-04-07T14:13:31.999Z</time></trkpt><trkpt lat="43.61025877396268" lon="2.875823232197586"><ele>928.75</ele><time>2026-04-07T14:13:32.999Z</time></trkpt><trkpt lat="43.61025600797732" lon="2.8759576158447717"><ele>929.5</ele><time>2026-04-07T14:13:33.999Z</time></trkpt><trkpt lat="43.61025246935494" lon="2.87611686150837"><ele>930.25</ele><time>2026-04-07T14:13:34.999Z</time></trkpt><trkpt lat="43.61021053610594" lon="2.876274841372648"><ele>931.0</ele><time>2026-04-07T14:13:35.999Z</time></trkpt><trkpt lat="43.61015032086546" lon="2.8764239529395126"><ele>931.0</ele><time>2026-04-07T14:13:36.999Z</time></trkpt><trkpt lat="43.6100773058807" lon="2.876552746796823"><ele>931.0</ele><time>2026-04-07T14:13:37.999Z</time></trkpt><trkpt lat="43.6099939731359" lon="2.8766956031929514"><ele>931.0</ele><time>2026-04-07T14:13:38.999Z</time></trkpt><trkpt lat="43.609911148531786" lon="2.8768375932512704"><ele>931.0</ele><time>2026-04-07T14:13:39.999Z</time></trkpt><trkpt lat="43.609824969292895" lon="2.8769853342978253"><ele>934.0</ele><time>2026-04-07T14:13:40.999Z</time></trkpt><trkpt lat="43.60975446744715" lon="2.877148972822748"><ele>937.0</ele><time>2026-04-07T14:13:41.999Z</time></trkpt><trkpt lat="43.60968192111475" lon="2.877304856032796"><ele>940.0</ele><time>2026-04-07T14:13:42.999Z</time></trkpt><trkpt lat="43.609615556048944" lon="2.877456061111597"><ele>943.0</ele><time>2026-04-07T14:13:43.999Z</time></trkpt><trkpt lat="43.609553929068056" lon="2.8776020012394654"><ele>941.0</ele><time>2026-04-07T14:13:44.999Z</time></trkpt><trkpt lat="43.60950856381636" lon="2.8777683940315573"><ele>939.0</ele><time>2026-04-07T14:13:45.999Z</time></trkpt><trkpt lat="43.6095037649439" lon="2.87794236591389"><ele>937.0</ele><time>2026-04-07T14:13:46.999Z</time></trkpt><trkpt lat="43.609489448327196" lon="2.8781203081153257"><ele>935.0</ele><time>2026-04-07T14:13:47.998Z</time></trkpt><trkpt lat="43.60947873040427" lon="2.87830447829785"><ele>935.75</ele><time>2026-04-07T14:13:48.998Z</time></trkpt><trkpt lat="43.60947004625234" lon="2.878482675731184"><ele>936.5</ele><time>2026-04-07T14:13:49.998Z</time></trkpt><trkpt lat="43.60945863173353" lon="2.8786589675190273"><ele>937.25</ele><time>2026-04-07T14:13:50.998Z</time></trkpt><trkpt lat="43.60944761370991" lon="2.8788300835417417"><ele>938.0</ele><time>2026-04-07T14:13:51.998Z</time></trkpt><trkpt lat="43.60944269063431" lon="2.8789874858363906"><ele>938.0</ele><time>2026-04-07T14:13:52.998Z</time></trkpt><trkpt lat="43.60944639039298" lon="2.8791499106664094"><ele>938.0</ele><time>2026-04-07T14:13:53.998Z</time></trkpt><trkpt lat="43.60943338547936" lon="2.8793521672180624"><ele>938.0</ele><time>2026-04-07T14:13:54.998Z</time></trkpt><trkpt lat="43.60941937586269" lon="2.879528088476922"><ele>938.0</ele><time>2026-04-07T14:13:55.998Z</time></trkpt><trkpt lat="43.60938918597001" lon="2.879700223082508"><ele>939.5</ele><time>2026-04-07T14:13:56.998Z</time></trkpt><trkpt lat="43.60935279325019" lon="2.8798701160456828"><ele>941.0</ele><time>2026-04-07T14:13:57.998Z</time></trkpt><trkpt lat="43.6093259387035" lon="2.8800383588532914"><ele>942.5</ele><time>2026-04-07T14:13:58.998Z</time></trkpt><trkpt lat="43.60929624242384" lon="2.880206021599161"><ele>944.0</ele><time>2026-04-07T14:13:59.998Z</time></trkpt><trkpt lat="43.6092718737735" lon="2.880363788826226"><ele>946.25</ele><time>2026-04-07T14:14:00.998Z</time></trkpt><trkpt lat="43.609248605228636" lon="2.8805246962850157"><ele>948.5</ele><time>2026-04-07T14:14:01.998Z</time></trkpt><trkpt lat="43.60922358523072" lon="2.8806809360342838"><ele>950.75</ele><time>2026-04-07T14:14:02.998Z</time></trkpt><trkpt lat="43.60919037846851" lon="2.880843080530922"><ele>953.0</ele><time>2026-04-07T14:14:03.998Z</time></trkpt><trkpt lat="43.60914722629458" lon="2.88100796300302"><ele>956.25</ele><time>2026-04-07T14:14:04.998Z</time></trkpt><trkpt lat="43.609086729626455" lon="2.881171351206425"><ele>959.5</ele><time>2026-04-07T14:14:05.998Z</time></trkpt><trkpt lat="43.60901720838137" lon="2.8813239073833694"><ele>962.75</ele><time>2026-04-07T14:14:06.998Z</time></trkpt><trkpt lat="43.60894666595342" lon="2.881480935949137"><ele>966.0</ele><time>2026-04-07T14:14:07.998Z</time></trkpt><trkpt lat="43.60888122994948" lon="2.8816426910939987"><ele>967.5</ele><time>2026-04-07T14:14:08.998Z</time></trkpt><trkpt lat="43.60881503986891" lon="2.881805668473983"><ele>969.0</ele><time>2026-04-07T14:14:09.998Z</time></trkpt><trkpt lat="43.60875050483602" lon="2.8819594500082557"><ele>970.5</ele><time>2026-04-07T14:14:10.998Z</time></trkpt><trkpt lat="43.60867978591558" lon="2.882115617132528"><ele>972.0</ele><time>2026-04-07T14:14:11.998Z</time></trkpt><trkpt lat="43.608623026368335" lon="2.88227280926623"><ele>966.75</ele><time>2026-04-07T14:14:12.998Z</time></trkpt><trkpt lat="43.60855871266793" lon="2.882432723491922"><ele>961.5</ele><time>2026-04-07T14:14:13.998Z</time></trkpt><trkpt lat="43.60851044923316" lon="2.8825968409966345"><ele>956.25</ele><time>2026-04-07T14:14:14.998Z</time></trkpt><trkpt lat="43.6084618510388" lon="2.882769411200161"><ele>951.0</ele><time>2026-04-07T14:14:15.998Z</time></trkpt><trkpt lat="43.608420054740904" lon="2.882934622582659"><ele>950.75</ele><time>2026-04-07T14:14:16.998Z</time></trkpt><trkpt lat="43.60837516393908" lon="2.8831046297633938"><ele>950.5</ele><time>2026-04-07T14:14:17.998Z</time></trkpt><trkpt lat="43.60833890569392" lon="2.883286659280809"><ele>950.25</ele><time>2026-04-07T14:14:18.998Z</time></trkpt><trkpt lat="43.60832666844536" lon="2.883483193448576"><ele>950.0</ele><time>2026-04-07T14:14:19.998Z</time></trkpt><trkpt lat="43.60832680911464" lon="2.8836757493504375"><ele>948.5</ele><time>2026-04-07T14:14:20.998Z</time></trkpt><trkpt lat="43.60832626378971" lon="2.883865881531256"><ele>947.0</ele><time>2026-04-07T14:14:21.998Z</time></trkpt><trkpt lat="43.608333914778456" lon="2.8840582333949096"><ele>945.5</ele><time>2026-04-07T14:14:22.998Z</time></trkpt><trkpt lat="43.608333017625164" lon="2.8842561882705158"><ele>944.0</ele><time>2026-04-07T14:14:23.998Z</time></trkpt><trkpt lat="43.60833234811876" lon="2.884461799072719"><ele>943.3333333333334</ele><time>2026-04-07T14:14:24.998Z</time></trkpt><trkpt lat="43.60834475031827" lon="2.8846695356240635"><ele>942.6666666666667</ele><time>2026-04-07T14:14:25.998Z</time></trkpt><trkpt lat="43.608371120260045" lon="2.884874999586674"><ele>942.0</ele><time>2026-04-07T14:14:26.998Z</time></trkpt><trkpt lat="43.608411575411196" lon="2.8850846974636575"><ele>941.3333333333333</ele><time>2026-04-07T14:14:28Z</time></trkpt><trkpt lat="43.60847410527253" lon="2.8852844581685333"><ele>940.6666666666666</ele><time>2026-04-07T14:14:29Z</time></trkpt><trkpt lat="43.608558561403015" lon="2.8854760050621255"><ele>940.0</ele><time>2026-04-07T14:14:30Z</time></trkpt><trkpt lat="43.60865626048046" lon="2.8856584052412"><ele>942.3333333333333</ele><time>2026-04-07T14:14:31Z</time></trkpt><trkpt lat="43.60875174505561" lon="2.8858419569452582"><ele>944.6666666666667</ele><time>2026-04-07T14:14:32Z</time></trkpt><trkpt lat="43.60882974611465" lon="2.8860289246763555"><ele>947.0</ele><time>2026-04-07T14:14:33Z</time></trkpt><trkpt lat="43.60888722821226" lon="2.8862175798869028"><ele>947.0</ele><time>2026-04-07T14:14:34Z</time></trkpt><trkpt lat="43.608930040392174" lon="2.8864006261538493"><ele>947.0</ele><time>2026-04-07T14:14:35Z</time></trkpt><trkpt lat="43.60900669680348" lon="2.886548542821954"><ele>947.0</ele><time>2026-04-07T14:14:36Z</time></trkpt><trkpt lat="43.609121875393086" lon="2.8866716955666907"><ele>947.0</ele><time>2026-04-07T14:14:37Z</time></trkpt><trkpt lat="43.609240372215886" lon="2.8867826837154893"><ele>947.25</ele><time>2026-04-07T14:14:38Z</time></trkpt><trkpt lat="43.609348828696625" lon="2.8869128056132523"><ele>947.5</ele><time>2026-04-07T14:14:39Z</time></trkpt><trkpt lat="43.609428700995934" lon="2.88708936738953"><ele>947.75</ele><time>2026-04-07T14:14:40Z</time></trkpt><trkpt lat="43.60947879384978" lon="2.887291590217412"><ele>948.0</ele><time>2026-04-07T14:14:41Z</time></trkpt><trkpt lat="43.6095117422177" lon="2.887498667437731"><ele>949.0</ele><time>2026-04-07T14:14:42Z</time></trkpt><trkpt lat="43.60953708266935" lon="2.88768745541102"><ele>950.0</ele><time>2026-04-07T14:14:43Z</time></trkpt><trkpt lat="43.60954332210598" lon="2.8878869635624125"><ele>951.0</ele><time>2026-04-07T14:14:44Z</time></trkpt><trkpt lat="43.60949736489972" lon="2.888092363558583"><ele>952.0</ele><time>2026-04-07T14:14:45Z</time></trkpt><trkpt lat="43.6094186621842" lon="2.8882760425869543"><ele>952.75</ele><time>2026-04-07T14:14:46Z</time></trkpt><trkpt lat="43.60931048008604" lon="2.888429267031908"><ele>953.5</ele><time>2026-04-07T14:14:47Z</time></trkpt><trkpt lat="43.609220465810886" lon="2.888574205605929"><ele>954.25</ele><time>2026-04-07T14:14:48Z</time></trkpt><trkpt lat="43.60914466684522" lon="2.888717135286739"><ele>955.0</ele><time>2026-04-07T14:14:49Z</time></trkpt><trkpt lat="43.60907184153046" lon="2.8888517892402743"><ele>955.0</ele><time>2026-04-07T14:14:50Z</time></trkpt><trkpt lat="43.60900256222593" lon="2.8889989897497697"><ele>955.0</ele><time>2026-04-07T14:14:51Z</time></trkpt><trkpt lat="43.60894249406825" lon="2.889147297039198"><ele>955.0</ele><time>2026-04-07T14:14:52Z</time></trkpt><trkpt lat="43.60887965601607" lon="2.8893297470251205"><ele>955.0</ele><time>2026-04-07T14:14:53Z</time></trkpt><trkpt lat="43.60882569405193" lon="2.889528439091821"><ele>954.4</ele><time>2026-04-07T14:14:54Z</time></trkpt><trkpt lat="43.608784198726994" lon="2.889661273122151"><ele>953.8</ele><time>2026-04-07T14:14:55Z</time></trkpt><trkpt lat="43.6087813165309" lon="2.8898046705156313"><ele>953.2</ele><time>2026-04-07T14:14:56Z</time></trkpt><trkpt lat="43.60880978438098" lon="2.889937205174768"><ele>952.6</ele><time>2026-04-07T14:14:57Z</time></trkpt><trkpt lat="43.608857918017044" lon="2.89010031786172"><ele>952.0</ele><time>2026-04-07T14:14:58Z</time></trkpt><trkpt lat="43.608942209203356" lon="2.890235171727102"><ele>950.75</ele><time>2026-04-07T14:14:59Z</time></trkpt><trkpt lat="43.60904610063667" lon="2.890357640203736"><ele>949.5</ele><time>2026-04-07T14:15:00Z</time></trkpt><trkpt lat="43.60914380215065" lon="2.8904800869089255"><ele>948.25</ele><time>2026-04-07T14:15:01Z</time></trkpt><trkpt lat="43.60923341106283" lon="2.8906094688195636"><ele>947.0</ele><time>2026-04-07T14:15:02Z</time></trkpt><trkpt lat="43.60931432164904" lon="2.8907320705940034"><ele>947.0</ele><time>2026-04-07T14:15:02.999Z</time></trkpt><trkpt lat="43.60939490121742" lon="2.8908432112131726"><ele>947.0</ele><time>2026-04-07T14:15:03.999Z</time></trkpt><trkpt lat="43.609465516714096" lon="2.8909698855570545"><ele>947.0</ele><time>2026-04-07T14:15:04.999Z</time></trkpt><trkpt lat="43.60956391705956" lon="2.89108036941651"><ele>947.0</ele><time>2026-04-07T14:15:05.999Z</time></trkpt><trkpt lat="43.60968602730726" lon="2.8911883787717527"><ele>948.0</ele><time>2026-04-07T14:15:06.999Z</time></trkpt><trkpt lat="43.60980403515903" lon="2.891273599202951"><ele>949.0</ele><time>2026-04-07T14:15:07.999Z</time></trkpt><trkpt lat="43.60994370812158" lon="2.891351954671041"><ele>950.0</ele><time>2026-04-07T14:15:08.999Z</time></trkpt><trkpt lat="43.61008676694762" lon="2.891420306348914"><ele>951.0</ele><time>2026-04-07T14:15:09.999Z</time></trkpt><trkpt lat="43.61020587334514" lon="2.891554020638767"><ele>951.0</ele><time>2026-04-07T14:15:10.999Z</time></trkpt><trkpt lat="43.61030031274226" lon="2.8917350535766135"><ele>951.0</ele><time>2026-04-07T14:15:11.999Z</time></trkpt><trkpt lat="43.61038204032039" lon="2.8919219483910235"><ele>951.0</ele><time>2026-04-07T14:15:12.999Z</time></trkpt><trkpt lat="43.610466882499864" lon="2.892101106394631"><ele>952.0</ele><time>2026-04-07T14:15:13.999Z</time></trkpt><trkpt lat="43.61052347970788" lon="2.892301187440519"><ele>953.0</ele><time>2026-04-07T14:15:14.999Z</time></trkpt><trkpt lat="43.61059061485077" lon="2.8924999345699383"><ele>954.0</ele><time>2026-04-07T14:15:15.999Z</time></trkpt><trkpt lat="43.61067038529829" lon="2.8926853905628094"><ele>954.0</ele><time>2026-04-07T14:15:16.999Z</time></trkpt><trkpt lat="43.61077488296791" lon="2.8928458597538547"><ele>954.0</ele><time>2026-04-07T14:15:17.999Z</time></trkpt><trkpt lat="43.610899457748616" lon="2.892981190237117"><ele>954.0</ele><time>2026-04-07T14:15:18.999Z</time></trkpt><trkpt lat="43.610991423967064" lon="2.8931509038513177"><ele>954.0</ele><time>2026-04-07T14:15:19.999Z</time></trkpt><trkpt lat="43.61111699868572" lon="2.893268953051701"><ele>954.0</ele><time>2026-04-07T14:15:20.999Z</time></trkpt><trkpt lat="43.611250399713796" lon="2.8933523993981125"><ele>954.0</ele><time>2026-04-07T14:15:21.999Z</time></trkpt><trkpt lat="43.611392771598545" lon="2.8933905188928137"><ele>954.0</ele><time>2026-04-07T14:15:22.999Z</time></trkpt><trkpt lat="43.611542684867125" lon="2.8933993088215755"><ele>956.25</ele><time>2026-04-07T14:15:23.999Z</time></trkpt><trkpt lat="43.611691460567634" lon="2.893384598233087"><ele>958.5</ele><time>2026-04-07T14:15:24.999Z</time></trkpt><trkpt lat="43.61183841356172" lon="2.89337111096481"><ele>960.75</ele><time>2026-04-07T14:15:25.999Z</time></trkpt><trkpt lat="43.61197932623226" lon="2.8933955072122233"><ele>963.0</ele><time>2026-04-07T14:15:26.999Z</time></trkpt><trkpt lat="43.61211153579416" lon="2.893454405711377"><ele>964.0</ele><time>2026-04-07T14:15:27.999Z</time></trkpt><trkpt lat="43.612206855851404" lon="2.8935546058186388"><ele>965.0</ele><time>2026-04-07T14:15:28.999Z</time></trkpt><trkpt lat="43.6123041209528" lon="2.89358560474117"><ele>966.0</ele><time>2026-04-07T14:15:29.999Z</time></trkpt><trkpt lat="43.612413799707994" lon="2.893643742410867"><ele>967.0</ele><time>2026-04-07T14:15:30.999Z</time></trkpt><trkpt lat="43.61254754701834" lon="2.893749189865204"><ele>967.0</ele><time>2026-04-07T14:15:31.999Z</time></trkpt><trkpt lat="43.61262980353088" lon="2.8938089464286563"><ele>967.0</ele><time>2026-04-07T14:15:32.999Z</time></trkpt><trkpt lat="43.61264417668715" lon="2.893963904525871"><ele>967.0</ele><time>2026-04-07T14:15:33.999Z</time></trkpt><trkpt lat="43.61262541862932" lon="2.894117491794606"><ele>967.0</ele><time>2026-04-07T14:15:34.999Z</time></trkpt><trkpt lat="43.61254674764105" lon="2.8942462924094357"><ele>967.0</ele><time>2026-04-07T14:15:35.999Z</time></trkpt><trkpt lat="43.612509313987395" lon="2.894396790200383"><ele>967.8</ele><time>2026-04-07T14:15:36.999Z</time></trkpt><trkpt lat="43.61245869540021" lon="2.894521175752777"><ele>968.6</ele><time>2026-04-07T14:15:37.999Z</time></trkpt><trkpt lat="43.61242514742108" lon="2.8946359668652613"><ele>969.3999999999999</ele><time>2026-04-07T14:15:38.999Z</time></trkpt><trkpt lat="43.61240230417629" lon="2.894761912356367"><ele>970.1999999999999</ele><time>2026-04-07T14:15:39.999Z</time></trkpt><trkpt lat="43.61240721213023" lon="2.8948913068213273"><ele>971.0</ele><time>2026-04-07T14:15:40.999Z</time></trkpt><trkpt lat="43.61242513862748" lon="2.8950389180009615"><ele>969.5</ele><time>2026-04-07T14:15:41.999Z</time></trkpt><trkpt lat="43.61245702697363" lon="2.8951977559465267"><ele>968.0</ele><time>2026-04-07T14:15:42.999Z</time></trkpt><trkpt lat="43.61252528310816" lon="2.8953467650457907"><ele>966.5</ele><time>2026-04-07T14:15:43.999Z</time></trkpt><trkpt lat="43.61261349731395" lon="2.8954550020174175"><ele>965.0</ele><time>2026-04-07T14:15:44.999Z</time></trkpt><trkpt lat="43.612722081907016" lon="2.8955795205097656"><ele>965.0</ele><time>2026-04-07T14:15:45.999Z</time></trkpt><trkpt lat="43.61280828228125" lon="2.8956762949099764"><ele>965.0</ele><time>2026-04-07T14:15:46.999Z</time></trkpt><trkpt lat="43.61290538941659" lon="2.8957701666017313"><ele>965.0</ele><time>2026-04-07T14:15:47.998Z</time></trkpt><trkpt lat="43.613021094069836" lon="2.8958400999350205"><ele>965.0</ele><time>2026-04-07T14:15:48.998Z</time></trkpt><trkpt lat="43.61314660713785" lon="2.895895242584516"><ele>964.75</ele><time>2026-04-07T14:15:49.998Z</time></trkpt><trkpt lat="43.61328053351736" lon="2.8959302732940206"><ele>964.5</ele><time>2026-04-07T14:15:50.998Z</time></trkpt><trkpt lat="43.61341947208246" lon="2.895962252955895"><ele>964.25</ele><time>2026-04-07T14:15:51.998Z</time></trkpt><trkpt lat="43.61355467502069" lon="2.8959996274120545"><ele>964.0</ele><time>2026-04-07T14:15:52.998Z</time></trkpt><trkpt lat="43.613707544851174" lon="2.896059425715727"><ele>964.0</ele><time>2026-04-07T14:15:53.998Z</time></trkpt><trkpt lat="43.61385853935903" lon="2.8961087853487797"><ele>964.0</ele><time>2026-04-07T14:15:54.998Z</time></trkpt><trkpt lat="43.61399229053532" lon="2.8961576973731167"><ele>964.0</ele><time>2026-04-07T14:15:55.998Z</time></trkpt><trkpt lat="43.614105078705684" lon="2.896204158641378"><ele>964.0</ele><time>2026-04-07T14:15:56.998Z</time></trkpt><trkpt lat="43.61422848644864" lon="2.896248491862511"><ele>964.0</ele><time>2026-04-07T14:15:57.998Z</time></trkpt><trkpt lat="43.61435845824958" lon="2.8963603876810216"><ele>964.0</ele><time>2026-04-07T14:15:58.998Z</time></trkpt><trkpt lat="43.614469961158406" lon="2.896481296373476"><ele>964.0</ele><time>2026-04-07T14:15:59.998Z</time></trkpt><trkpt lat="43.61456728794388" lon="2.896615483791351"><ele>964.0</ele><time>2026-04-07T14:16:00.998Z</time></trkpt><trkpt lat="43.61465899661242" lon="2.896762178797714"><ele>965.5</ele><time>2026-04-07T14:16:01.998Z</time></trkpt><trkpt lat="43.61475236853538" lon="2.896913034805873"><ele>967.0</ele><time>2026-04-07T14:16:02.998Z</time></trkpt><trkpt lat="43.61483966339804" lon="2.897058101213861"><ele>968.5</ele><time>2026-04-07T14:16:03.998Z</time></trkpt><trkpt lat="43.61493485567619" lon="2.8972135578508205"><ele>970.0</ele><time>2026-04-07T14:16:04.998Z</time></trkpt><trkpt lat="43.615043051572144" lon="2.897350233705492"><ele>970.0</ele><time>2026-04-07T14:16:05.998Z</time></trkpt><trkpt lat="43.61516376582063" lon="2.897464255762492"><ele>970.0</ele><time>2026-04-07T14:16:06.998Z</time></trkpt><trkpt lat="43.615299636979955" lon="2.8975779468257583"><ele>970.0</ele><time>2026-04-07T14:16:07.998Z</time></trkpt><trkpt lat="43.61545911384265" lon="2.8975776955489967"><ele>969.6666666666666</ele><time>2026-04-07T14:16:08.998Z</time></trkpt><trkpt lat="43.615635558743946" lon="2.8975493568219233"><ele>969.3333333333333</ele><time>2026-04-07T14:16:09.998Z</time></trkpt><trkpt lat="43.61579391835863" lon="2.897523236972627"><ele>969.0</ele><time>2026-04-07T14:16:10.998Z</time></trkpt><trkpt lat="43.61595550665049" lon="2.897505717277921"><ele>969.0</ele><time>2026-04-07T14:16:11.998Z</time></trkpt><trkpt lat="43.616114736958636" lon="2.897511154117967"><ele>969.0</ele><time>2026-04-07T14:16:12.998Z</time></trkpt><trkpt lat="43.61627284555878" lon="2.8975185519828783"><ele>969.0</ele><time>2026-04-07T14:16:13.998Z</time></trkpt><trkpt lat="43.61641326378376" lon="2.8975932363945214"><ele>967.3333333333333</ele><time>2026-04-07T14:16:14.998Z</time></trkpt><trkpt lat="43.616542975152704" lon="2.8977106342604655"><ele>965.6666666666666</ele><time>2026-04-07T14:16:15.998Z</time></trkpt><trkpt lat="43.61668383013728" lon="2.8978450560737206"><ele>964.0</ele><time>2026-04-07T14:16:16.998Z</time></trkpt><trkpt lat="43.616811743646636" lon="2.8979685191208793"><ele>964.0</ele><time>2026-04-07T14:16:17.998Z</time></trkpt><trkpt lat="43.616936393082966" lon="2.898065696860435"><ele>964.0</ele><time>2026-04-07T14:16:18.998Z</time></trkpt><trkpt lat="43.61706786927303" lon="2.8982195984816532"><ele>964.0</ele><time>2026-04-07T14:16:19.998Z</time></trkpt><trkpt lat="43.6171942541484" lon="2.898360374114083"><ele>965.25</ele><time>2026-04-07T14:16:20.998Z</time></trkpt><trkpt lat="43.617289374800315" lon="2.8985098022815854"><ele>966.5</ele><time>2026-04-07T14:16:21.998Z</time></trkpt><trkpt lat="43.617370053317835" lon="2.8986870564402105"><ele>967.75</ele><time>2026-04-07T14:16:22.998Z</time></trkpt><trkpt lat="43.61740227446109" lon="2.898879397698246"><ele>969.0</ele><time>2026-04-07T14:16:23.998Z</time></trkpt><trkpt lat="43.61737810946987" lon="2.8990761799495135"><ele>968.25</ele><time>2026-04-07T14:16:24.998Z</time></trkpt><trkpt lat="43.6173450435406" lon="2.899281130260148"><ele>967.5</ele><time>2026-04-07T14:16:25.998Z</time></trkpt><trkpt lat="43.617315918240074" lon="2.8994472141987884"><ele>966.75</ele><time>2026-04-07T14:16:26.998Z</time></trkpt><trkpt lat="43.61730526350712" lon="2.899631355974698"><ele>966.0</ele><time>2026-04-07T14:16:27.998Z</time></trkpt><trkpt lat="43.61733236854873" lon="2.8998004400227098"><ele>966.0</ele><time>2026-04-07T14:16:28.998Z</time></trkpt><trkpt lat="43.61740015123797" lon="2.8999539422328935"><ele>966.0</ele><time>2026-04-07T14:16:29.998Z</time></trkpt><trkpt lat="43.61748024796501" lon="2.900125659394847"><ele>966.0</ele><time>2026-04-07T14:16:30.998Z</time></trkpt><trkpt lat="43.617569808116556" lon="2.900299836648281"><ele>966.0</ele><time>2026-04-07T14:16:31.998Z</time></trkpt><trkpt lat="43.61765735445159" lon="2.9004553132909"><ele>966.0</ele><time>2026-04-07T14:16:32.997Z</time></trkpt><trkpt lat="43.61775283107746" lon="2.900600260809356"><ele>966.0</ele><time>2026-04-07T14:16:34Z</time></trkpt><trkpt lat="43.61786779730524" lon="2.9007255067021838"><ele>966.0</ele><time>2026-04-07T14:16:35Z</time></trkpt><trkpt lat="43.61797248764198" lon="2.900889749989663"><ele>966.0</ele><time>2026-04-07T14:16:36Z</time></trkpt><trkpt lat="43.61811189542003" lon="2.9010305933995544"><ele>966.0</ele><time>2026-04-07T14:16:37Z</time></trkpt><trkpt lat="43.61819871251743" lon="2.901163786194474"><ele>966.0</ele><time>2026-04-07T14:16:38Z</time></trkpt><trkpt lat="43.61832506289026" lon="2.9012898988432925"><ele>966.0</ele><time>2026-04-07T14:16:39Z</time></trkpt><trkpt lat="43.61845805667527" lon="2.9014183922469816"><ele>966.0</ele><time>2026-04-07T14:16:40Z</time></trkpt><trkpt lat="43.61859501094261" lon="2.9015450207058957"><ele>966.6666666666667</ele><time>2026-04-07T14:16:41Z</time></trkpt><trkpt lat="43.61871593435669" lon="2.9016850425179967"><ele>967.3333333333334</ele><time>2026-04-07T14:16:42Z</time></trkpt><trkpt lat="43.618864536121166" lon="2.9018028202628625"><ele>968.0</ele><time>2026-04-07T14:16:43Z</time></trkpt><trkpt lat="43.61898610205922" lon="2.9019425381170363"><ele>968.0</ele><time>2026-04-07T14:16:44Z</time></trkpt><trkpt lat="43.61911256121939" lon="2.9021015118710483"><ele>968.0</ele><time>2026-04-07T14:16:45Z</time></trkpt><trkpt lat="43.61925576514644" lon="2.9022337011414274"><ele>968.0</ele><time>2026-04-07T14:16:46Z</time></trkpt><trkpt lat="43.619391586761225" lon="2.9023738277505853"><ele>970.6666666666667</ele><time>2026-04-07T14:16:47Z</time></trkpt><trkpt lat="43.61952777910848" lon="2.9025001671459805"><ele>973.3333333333333</ele><time>2026-04-07T14:16:48Z</time></trkpt><trkpt lat="43.61966726771316" lon="2.902638934262889"><ele>976.0</ele><time>2026-04-07T14:16:49Z</time></trkpt><trkpt lat="43.619817768070654" lon="2.902770343000078"><ele>976.0</ele><time>2026-04-07T14:16:50Z</time></trkpt><trkpt lat="43.61996091400862" lon="2.902917570540193"><ele>976.0</ele><time>2026-04-07T14:16:51Z</time></trkpt><trkpt lat="43.620104929033886" lon="2.903078252602914"><ele>976.0</ele><time>2026-04-07T14:16:52Z</time></trkpt><trkpt lat="43.62025790001321" lon="2.9031944607554703"><ele>974.6666666666666</ele><time>2026-04-07T14:16:53Z</time></trkpt><trkpt lat="43.620429045799845" lon="2.903236551616093"><ele>973.3333333333333</ele><time>2026-04-07T14:16:54Z</time></trkpt><trkpt lat="43.62058410017265" lon="2.903245730609343"><ele>972.0</ele><time>2026-04-07T14:16:55Z</time></trkpt><trkpt lat="43.62075500217533" lon="2.9031996760088155"><ele>972.0</ele><time>2026-04-07T14:16:56Z</time></trkpt><trkpt lat="43.620924155154135" lon="2.9031262437027294"><ele>972.0</ele><time>2026-04-07T14:16:57Z</time></trkpt><trkpt lat="43.62109052979546" lon="2.903103982853535"><ele>972.0</ele><time>2026-04-07T14:16:58Z</time></trkpt><trkpt lat="43.621250740229186" lon="2.903137504727773"><ele>973.3333333333333</ele><time>2026-04-07T14:16:59Z</time></trkpt><trkpt lat="43.6214135925668" lon="2.90320388375677"><ele>974.6666666666666</ele><time>2026-04-07T14:17:00Z</time></trkpt><trkpt lat="43.62157336630876" lon="2.9032706355496853"><ele>976.0</ele><time>2026-04-07T14:17:01Z</time></trkpt><trkpt lat="43.62175496475551" lon="2.903304942547297"><ele>976.0</ele><time>2026-04-07T14:17:02Z</time></trkpt><trkpt lat="43.6219279320072" lon="2.903272042463069"><ele>976.0</ele><time>2026-04-07T14:17:03Z</time></trkpt><trkpt lat="43.62207479845423" lon="2.9032829728627205"><ele>976.0</ele><time>2026-04-07T14:17:04Z</time></trkpt><trkpt lat="43.622181440640695" lon="2.90332961058471"><ele>976.0</ele><time>2026-04-07T14:17:05Z</time></trkpt><trkpt lat="43.62228257438734" lon="2.903365717455268"><ele>971.6666666666666</ele><time>2026-04-07T14:17:06Z</time></trkpt><trkpt lat="43.62242118173385" lon="2.9034146588703775"><ele>967.3333333333333</ele><time>2026-04-07T14:17:07Z</time></trkpt><trkpt lat="43.62261689817652" lon="2.9035490111849285"><ele>963.0</ele><time>2026-04-07T14:17:07.999Z</time></trkpt><trkpt lat="43.62276187052626" lon="2.903657247462255"><ele>965.5</ele><time>2026-04-07T14:17:08.999Z</time></trkpt><trkpt lat="43.622884935562816" lon="2.903764144249783"><ele>968.0</ele><time>2026-04-07T14:17:09.999Z</time></trkpt><trkpt lat="43.62300735834037" lon="2.9038689600041954"><ele>970.5</ele><time>2026-04-07T14:17:10.999Z</time></trkpt><trkpt lat="43.62312062596757" lon="2.9039623166287636"><ele>973.0</ele><time>2026-04-07T14:17:11.999Z</time></trkpt><trkpt lat="43.6232355619226" lon="2.904043788867057"><ele>973.0</ele><time>2026-04-07T14:17:12.999Z</time></trkpt><trkpt lat="43.623378196428604" lon="2.9040342340777427"><ele>973.0</ele><time>2026-04-07T14:17:13.999Z</time></trkpt><trkpt lat="43.62352256650899" lon="2.9040011079844565"><ele>973.0</ele><time>2026-04-07T14:17:14.999Z</time></trkpt><trkpt lat="43.623622714742396" lon="2.9039790664437843"><ele>973.0</ele><time>2026-04-07T14:17:15.999Z</time></trkpt><trkpt lat="43.62370864583238" lon="2.9039885873988727"><ele>974.5</ele><time>2026-04-07T14:17:16.999Z</time></trkpt><trkpt lat="43.62385136380385" lon="2.9039733275551405"><ele>976.0</ele><time>2026-04-07T14:17:17.999Z</time></trkpt><trkpt lat="43.62397283319035" lon="2.9039854065272306"><ele>977.5</ele><time>2026-04-07T14:17:18.999Z</time></trkpt><trkpt lat="43.6241047439408" lon="2.9040347707038925"><ele>979.0</ele><time>2026-04-07T14:17:19.999Z</time></trkpt><trkpt lat="43.62420838859478" lon="2.904138138826743"><ele>979.0</ele><time>2026-04-07T14:17:20.999Z</time></trkpt><trkpt lat="43.62433702015269" lon="2.9042062410663196"><ele>979.0</ele><time>2026-04-07T14:17:21.999Z</time></trkpt><trkpt lat="43.62444747794966" lon="2.904252942942788"><ele>979.0</ele><time>2026-04-07T14:17:22.999Z</time></trkpt><trkpt lat="43.62457695072496" lon="2.904232242519754"><ele>979.0</ele><time>2026-04-07T14:17:23.999Z</time></trkpt><trkpt lat="43.624697969021135" lon="2.9041476631039944"><ele>980.8000000000001</ele><time>2026-04-07T14:17:24.999Z</time></trkpt><trkpt lat="43.62478238284845" lon="2.9040738435904343"><ele>982.6000000000001</ele><time>2026-04-07T14:17:25.999Z</time></trkpt><trkpt lat="43.62485115089447" lon="2.9039688964877617"><ele>984.4</ele><time>2026-04-07T14:17:26.999Z</time></trkpt><trkpt lat="43.62490831987636" lon="2.9038415502498753"><ele>986.2</ele><time>2026-04-07T14:17:27.999Z</time></trkpt><trkpt lat="43.62495265341223" lon="2.9037637473834934"><ele>988.0</ele><time>2026-04-07T14:17:28.999Z</time></trkpt><trkpt lat="43.62506847356736" lon="2.903751623872795"><ele>988.0</ele><time>2026-04-07T14:17:30.999Z</time></trkpt><trkpt lat="43.625147636240534" lon="2.903789373761117"><ele>988.0</ele><time>2026-04-07T14:17:31.999Z</time></trkpt><trkpt lat="43.62519184740118" lon="2.9039056789226056"><ele>988.0</ele><time>2026-04-07T14:17:32.999Z</time></trkpt><trkpt lat="43.62520499889712" lon="2.904058688328426"><ele>988.0</ele><time>2026-04-07T14:17:33.999Z</time></trkpt><trkpt lat="43.625246632234806" lon="2.9041938583414733"><ele>988.0</ele><time>2026-04-07T14:17:34.999Z</time></trkpt><trkpt lat="43.625285991923924" lon="2.904323884340801"><ele>988.4</ele><time>2026-04-07T14:17:35.999Z</time></trkpt><trkpt lat="43.6253384244922" lon="2.9044477751613056"><ele>988.8</ele><time>2026-04-07T14:17:36.999Z</time></trkpt><trkpt lat="43.62539021376459" lon="2.904567492911045"><ele>989.2</ele><time>2026-04-07T14:17:37.999Z</time></trkpt><trkpt lat="43.62547220009762" lon="2.9046847267938443"><ele>989.6</ele><time>2026-04-07T14:17:38.999Z</time></trkpt><trkpt lat="43.62555900396836" lon="2.904785550376657"><ele>990.0</ele><time>2026-04-07T14:17:39.999Z</time></trkpt><trkpt lat="43.625651596730215" lon="2.904879377444326"><ele>990.0</ele><time>2026-04-07T14:17:40.999Z</time></trkpt><trkpt lat="43.62573603513203" lon="2.9049958778785103"><ele>990.0</ele><time>2026-04-07T14:17:41.999Z</time></trkpt><trkpt lat="43.62580103721674" lon="2.9051002713152583"><ele>990.0</ele><time>2026-04-07T14:17:42.999Z</time></trkpt><trkpt lat="43.62583921870161" lon="2.90518047250917"><ele>990.0</ele><time>2026-04-07T14:17:43.999Z</time></trkpt><trkpt lat="43.625895255814086" lon="2.9052346192027714"><ele>990.0</ele><time>2026-04-07T14:17:44.999Z</time></trkpt><trkpt lat="43.62594894611569" lon="2.9052800948950472"><ele>990.0</ele><time>2026-04-07T14:17:45.999Z</time></trkpt><trkpt lat="43.62600605100779" lon="2.9053307582933585"><ele>985.0</ele><time>2026-04-07T14:17:47.999Z</time></trkpt><trkpt lat="43.626527238847025" lon="2.9057060596522577"><ele>985.0</ele><time>2026-04-07T14:17:48.999Z</time></trkpt><trkpt lat="43.62665014537561" lon="2.9057744191679253"><ele>985.0</ele><time>2026-04-07T14:17:49.999Z</time></trkpt><trkpt lat="43.62678775481103" lon="2.9057924464809544"><ele>985.0</ele><time>2026-04-07T14:17:50.999Z</time></trkpt><trkpt lat="43.62687286756198" lon="2.905794301438051"><ele>985.0</ele><time>2026-04-07T14:17:51.999Z</time></trkpt><trkpt lat="43.627057912080474" lon="2.905791864075018"><ele>988.3333333333333</ele><time>2026-04-07T14:17:52.999Z</time></trkpt><trkpt lat="43.62720711288744" lon="2.9058210090455843"><ele>991.6666666666667</ele><time>2026-04-07T14:17:53.998Z</time></trkpt><trkpt lat="43.62735855099625" lon="2.905873718456153"><ele>995.0</ele><time>2026-04-07T14:17:54.998Z</time></trkpt><trkpt lat="43.6275124237208" lon="2.9059351780124847"><ele>990.6666666666667</ele><time>2026-04-07T14:17:55.998Z</time></trkpt><trkpt lat="43.627670254148555" lon="2.9059988620577286"><ele>986.3333333333333</ele><time>2026-04-07T14:17:56.998Z</time></trkpt><trkpt lat="43.627807859876484" lon="2.906067692815718"><ele>982.0</ele><time>2026-04-07T14:17:57.998Z</time></trkpt><trkpt lat="43.62793338275445" lon="2.906160952654248"><ele>982.0</ele><time>2026-04-07T14:17:58.998Z</time></trkpt><trkpt lat="43.62809879487802" lon="2.9062521677564233"><ele>982.0</ele><time>2026-04-07T14:17:59.998Z</time></trkpt><trkpt lat="43.62824122851593" lon="2.906352832032007"><ele>982.0</ele><time>2026-04-07T14:18:00.998Z</time></trkpt><trkpt lat="43.6283930415334" lon="2.9064430860565933"><ele>982.0</ele><time>2026-04-07T14:18:01.998Z</time></trkpt><trkpt lat="43.62854685234727" lon="2.9065437346936336"><ele>982.0</ele><time>2026-04-07T14:18:02.998Z</time></trkpt><trkpt lat="43.6286973885329" lon="2.9066472661198413"><ele>982.0</ele><time>2026-04-07T14:18:03.998Z</time></trkpt><trkpt lat="43.62882636964251" lon="2.906788410212229"><ele>980.0</ele><time>2026-04-07T14:18:04.998Z</time></trkpt><trkpt lat="43.62897779953696" lon="2.906905340066827"><ele>978.0</ele><time>2026-04-07T14:18:05.998Z</time></trkpt><trkpt lat="43.62910186671417" lon="2.9070095476288045"><ele>976.0</ele><time>2026-04-07T14:18:06.998Z</time></trkpt><trkpt lat="43.62924320785787" lon="2.9070778791134"><ele>976.0</ele><time>2026-04-07T14:18:07.998Z</time></trkpt><trkpt lat="43.62940421660089" lon="2.9070826861937173"><ele>976.0</ele><time>2026-04-07T14:18:08.998Z</time></trkpt><trkpt lat="43.62953389086173" lon="2.907111418333563"><ele>976.0</ele><time>2026-04-07T14:18:09.998Z</time></trkpt><trkpt lat="43.629640144546585" lon="2.907200335602379"><ele>976.0</ele><time>2026-04-07T14:18:11.998Z</time></trkpt><trkpt lat="43.62969922115672" lon="2.90725700579755"><ele>977.4</ele><time>2026-04-07T14:18:12.998Z</time></trkpt><trkpt lat="43.62975289483387" lon="2.9073507660069815"><ele>978.8</ele><time>2026-04-07T14:18:13.998Z</time></trkpt><trkpt lat="43.62977450302513" lon="2.9074955451448994"><ele>980.1999999999999</ele><time>2026-04-07T14:18:14.998Z</time></trkpt><trkpt lat="43.6297774302679" lon="2.9076358870786265"><ele>981.5999999999999</ele><time>2026-04-07T14:18:15.998Z</time></trkpt><trkpt lat="43.6297672745894" lon="2.9077753685694843"><ele>983.0</ele><time>2026-04-07T14:18:16.998Z</time></trkpt><trkpt lat="43.62977159740935" lon="2.907900442424912"><ele>983.0000000000001</ele><time>2026-04-07T14:18:17.998Z</time></trkpt><trkpt lat="43.629756548596745" lon="2.908017885419525"><ele>983.0</ele><time>2026-04-07T14:18:18.998Z</time></trkpt><trkpt lat="43.62973865133813" lon="2.908153672315124"><ele>983.0</ele><time>2026-04-07T14:18:19.998Z</time></trkpt><trkpt lat="43.62973020747735" lon="2.9082846920570407"><ele>983.0</ele><time>2026-04-07T14:18:20.998Z</time></trkpt><trkpt lat="43.62975793367162" lon="2.9083916850312064"><ele>983.0000000000001</ele><time>2026-04-07T14:18:21.998Z</time></trkpt><trkpt lat="43.6298055775022" lon="2.9084872258332366"><ele>983.0</ele><time>2026-04-07T14:18:22.998Z</time></trkpt><trkpt lat="43.62986842547206" lon="2.908570365765858"><ele>982.4</ele><time>2026-04-07T14:18:23.998Z</time></trkpt><trkpt lat="43.6299529180379" lon="2.908660593188229"><ele>981.8</ele><time>2026-04-07T14:18:24.998Z</time></trkpt><trkpt lat="43.630031953915164" lon="2.9087679724933686"><ele>981.2</ele><time>2026-04-07T14:18:25.998Z</time></trkpt><trkpt lat="43.63011342331474" lon="2.908864882891361"><ele>980.6</ele><time>2026-04-07T14:18:26.998Z</time></trkpt><trkpt lat="43.6301983765277" lon="2.9089501160724267"><ele>980.0</ele><time>2026-04-07T14:18:27.998Z</time></trkpt><trkpt lat="43.630317719982635" lon="2.9089860295675707"><ele>981.6</ele><time>2026-04-07T14:18:28.998Z</time></trkpt><trkpt lat="43.630416928637224" lon="2.9090467558375557"><ele>983.2</ele><time>2026-04-07T14:18:29.998Z</time></trkpt><trkpt lat="43.63048794004669" lon="2.9090725574307075"><ele>984.8</ele><time>2026-04-07T14:18:30.998Z</time></trkpt><trkpt lat="43.63057066300346" lon="2.9091600238390503"><ele>986.4</ele><time>2026-04-07T14:18:31.998Z</time></trkpt><trkpt lat="43.63069531911935" lon="2.9091743789378137"><ele>988.0</ele><time>2026-04-07T14:18:32.998Z</time></trkpt><trkpt lat="43.63079993974528" lon="2.9092096898637414"><ele>987.5999999999999</ele><time>2026-04-07T14:18:33.998Z</time></trkpt><trkpt lat="43.63090339726785" lon="2.909249004126616"><ele>987.1999999999999</ele><time>2026-04-07T14:18:34.998Z</time></trkpt><trkpt lat="43.63099911250301" lon="2.9093052990480315"><ele>986.8</ele><time>2026-04-07T14:18:35.998Z</time></trkpt><trkpt lat="43.63110963956957" lon="2.9093533645312895"><ele>986.4</ele><time>2026-04-07T14:18:36.998Z</time></trkpt><trkpt lat="43.63121549866174" lon="2.909405097301106"><ele>986.0</ele><time>2026-04-07T14:18:37.998Z</time></trkpt><trkpt lat="43.631326557960094" lon="2.909414699495918"><ele>987.75</ele><time>2026-04-07T14:18:38.998Z</time></trkpt><trkpt lat="43.63146397644439" lon="2.909425864841327"><ele>989.5</ele><time>2026-04-07T14:18:40Z</time></trkpt><trkpt lat="43.63160158878023" lon="2.9094235016917946"><ele>991.25</ele><time>2026-04-07T14:18:41Z</time></trkpt><trkpt lat="43.63170757026169" lon="2.909429694083355"><ele>993.0</ele><time>2026-04-07T14:18:42Z</time></trkpt><trkpt lat="43.63180993367452" lon="2.9094576149235976"><ele>993.0</ele><time>2026-04-07T14:18:43Z</time></trkpt><trkpt lat="43.63194147532923" lon="2.9094880216187633"><ele>993.0</ele><time>2026-04-07T14:18:44Z</time></trkpt><trkpt lat="43.632058081071044" lon="2.909501009038035"><ele>993.0</ele><time>2026-04-07T14:18:45Z</time></trkpt><trkpt lat="43.63217180582675" lon="2.909518500523623"><ele>993.0</ele><time>2026-04-07T14:18:46Z</time></trkpt><trkpt lat="43.63229959561225" lon="2.909561442222228"><ele>993.5</ele><time>2026-04-07T14:18:47Z</time></trkpt><trkpt lat="43.632414545037356" lon="2.909592751650832"><ele>994.0</ele><time>2026-04-07T14:18:48Z</time></trkpt><trkpt lat="43.63255168424511" lon="2.909624007087962"><ele>994.5</ele><time>2026-04-07T14:18:49Z</time></trkpt><trkpt lat="43.632695293070405" lon="2.9096237201509103"><ele>995.0</ele><time>2026-04-07T14:18:50Z</time></trkpt><trkpt lat="43.63287518131511" lon="2.909613586822679"><ele>995.0</ele><time>2026-04-07T14:18:51Z</time></trkpt><trkpt lat="43.63301949016932" lon="2.90961292440713"><ele>995.0</ele><time>2026-04-07T14:18:52Z</time></trkpt><trkpt lat="43.633120653572206" lon="2.9095748115555464"><ele>995.0</ele><time>2026-04-07T14:18:53Z</time></trkpt><trkpt lat="43.633236739758" lon="2.9095441362126966"><ele>995.0</ele><time>2026-04-07T14:18:54Z</time></trkpt><trkpt lat="43.633364629511824" lon="2.909524985017754"><ele>995.0</ele><time>2026-04-07T14:18:55Z</time></trkpt><trkpt lat="43.63350878015519" lon="2.9095087373372093"><ele>995.0</ele><time>2026-04-07T14:18:56Z</time></trkpt><trkpt lat="43.63362426215145" lon="2.909516512133083"><ele>995.0</ele><time>2026-04-07T14:18:57Z</time></trkpt><trkpt lat="43.63375214122902" lon="2.9095641919545385"><ele>995.0</ele><time>2026-04-07T14:18:58Z</time></trkpt><trkpt lat="43.63387731179625" lon="2.9096442343434594"><ele>995.5</ele><time>2026-04-07T14:18:59Z</time></trkpt><trkpt lat="43.63398661583138" lon="2.9097132247694915"><ele>996.0</ele><time>2026-04-07T14:19:00Z</time></trkpt><trkpt lat="43.63409624424088" lon="2.909817376446211"><ele>996.5</ele><time>2026-04-07T14:19:01Z</time></trkpt><trkpt lat="43.634201412162156" lon="2.909921072623171"><ele>997.0</ele><time>2026-04-07T14:19:02Z</time></trkpt><trkpt lat="43.634299352935074" lon="2.909992283146628"><ele>997.0</ele><time>2026-04-07T14:19:03Z</time></trkpt><trkpt lat="43.63440655634138" lon="2.910036973766009"><ele>997.0</ele><time>2026-04-07T14:19:04Z</time></trkpt><trkpt lat="43.634493199252105" lon="2.9100056130055707"><ele>997.0</ele><time>2026-04-07T14:19:05Z</time></trkpt><trkpt lat="43.634578060235924" lon="2.9099260396901863"><ele>997.0</ele><time>2026-04-07T14:19:06Z</time></trkpt><trkpt lat="43.634676447886" lon="2.909843959527583"><ele>997.0</ele><time>2026-04-07T14:19:07Z</time></trkpt><trkpt lat="43.63477135561562" lon="2.909774461407896"><ele>999.0</ele><time>2026-04-07T14:19:08Z</time></trkpt><trkpt lat="43.63487030622862" lon="2.909683685206206"><ele>1001.0</ele><time>2026-04-07T14:19:09Z</time></trkpt><trkpt lat="43.634955237742425" lon="2.9095689865415673"><ele>1003.0</ele><time>2026-04-07T14:19:10Z</time></trkpt><trkpt lat="43.63501268176101" lon="2.9094319457406126"><ele>1005.0</ele><time>2026-04-07T14:19:11Z</time></trkpt><trkpt lat="43.635103658240524" lon="2.9093271008461756"><ele>1005.0</ele><time>2026-04-07T14:19:12Z</time></trkpt><trkpt lat="43.63521412994996" lon="2.9092466730331417"><ele>1005.0</ele><time>2026-04-07T14:19:13Z</time></trkpt><trkpt lat="43.63532944986666" lon="2.9092400411893755"><ele>1005.0</ele><time>2026-04-07T14:19:14Z</time></trkpt><trkpt lat="43.635458861419714" lon="2.9092445363201724"><ele>1005.0</ele><time>2026-04-07T14:19:15Z</time></trkpt><trkpt lat="43.635578250729665" lon="2.9092488984282054"><ele>1008.0</ele><time>2026-04-07T14:19:16Z</time></trkpt><trkpt lat="43.63569585069067" lon="2.9092562018504986"><ele>1011.0</ele><time>2026-04-07T14:19:16.999Z</time></trkpt><trkpt lat="43.63581274721838" lon="2.909254622907212"><ele>1014.0</ele><time>2026-04-07T14:19:17.999Z</time></trkpt><trkpt lat="43.635919586254595" lon="2.909261013159364"><ele>1017.0</ele><time>2026-04-07T14:19:18.999Z</time></trkpt><trkpt lat="43.63601725570909" lon="2.9092672500992633"><ele>1020.0</ele><time>2026-04-07T14:19:19.999Z</time></trkpt><trkpt lat="43.63610894349394" lon="2.9092754982528297"><ele>1020.0</ele><time>2026-04-07T14:19:20.999Z</time></trkpt><trkpt lat="43.63621865488148" lon="2.9092381915522827"><ele>1020.0</ele><time>2026-04-07T14:19:21.999Z</time></trkpt><trkpt lat="43.63632896928069" lon="2.909178559054934"><ele>1020.0</ele><time>2026-04-07T14:19:22.999Z</time></trkpt><trkpt lat="43.63644206824513" lon="2.9090868518139077"><ele>1020.0</ele><time>2026-04-07T14:19:23.999Z</time></trkpt><trkpt lat="43.63654782637796" lon="2.909011325823246"><ele>1020.0</ele><time>2026-04-07T14:19:24.999Z</time></trkpt><trkpt lat="43.636655133160936" lon="2.908951715913539"><ele>1020.0</ele><time>2026-04-07T14:19:25.999Z</time></trkpt><trkpt lat="43.63677018260674" lon="2.908882339600274"><ele>1020.0</ele><time>2026-04-07T14:19:26.999Z</time></trkpt><trkpt lat="43.63689291711007" lon="2.908837082539853"><ele>1020.0</ele><time>2026-04-07T14:19:27.999Z</time></trkpt><trkpt lat="43.63700035946601" lon="2.908766189379181"><ele>1022.25</ele><time>2026-04-07T14:19:28.999Z</time></trkpt><trkpt lat="43.63711613785619" lon="2.9087273364079245"><ele>1024.5</ele><time>2026-04-07T14:19:29.999Z</time></trkpt><trkpt lat="43.63723451333942" lon="2.9086539032586476"><ele>1026.75</ele><time>2026-04-07T14:19:30.999Z</time></trkpt><trkpt lat="43.63735922459747" lon="2.9086200529252872"><ele>1029.0</ele><time>2026-04-07T14:19:31.999Z</time></trkpt><trkpt lat="43.63747987555892" lon="2.9085891401825323"><ele>1029.0</ele><time>2026-04-07T14:19:32.999Z</time></trkpt><trkpt lat="43.63760745793092" lon="2.9085673314470646"><ele>1029.0</ele><time>2026-04-07T14:19:33.999Z</time></trkpt><trkpt lat="43.637724772238656" lon="2.908563756229719"><ele>1029.0</ele><time>2026-04-07T14:19:34.999Z</time></trkpt><trkpt lat="43.63784292517243" lon="2.9085980566978527"><ele>1029.0</ele><time>2026-04-07T14:19:35.999Z</time></trkpt><trkpt lat="43.637991197036655" lon="2.908604641219344"><ele>1029.25</ele><time>2026-04-07T14:19:36.999Z</time></trkpt><trkpt lat="43.638107472122975" lon="2.9086410675665384"><ele>1029.5</ele><time>2026-04-07T14:19:37.999Z</time></trkpt><trkpt lat="43.63822436562284" lon="2.9087009153249634"><ele>1029.75</ele><time>2026-04-07T14:19:38.999Z</time></trkpt><trkpt lat="43.638331040928755" lon="2.908745719542703"><ele>1030.0</ele><time>2026-04-07T14:19:39.999Z</time></trkpt><trkpt lat="43.63845301627622" lon="2.9088416267367125"><ele>1030.0</ele><time>2026-04-07T14:19:40.999Z</time></trkpt><trkpt lat="43.63857958248905" lon="2.908936816428887"><ele>1030.0</ele><time>2026-04-07T14:19:41.999Z</time></trkpt><trkpt lat="43.6386970846839" lon="2.9090363860537662"><ele>1030.0</ele><time>2026-04-07T14:19:42.999Z</time></trkpt><trkpt lat="43.63879911314286" lon="2.909131135529593"><ele>1030.0</ele><time>2026-04-07T14:19:43.999Z</time></trkpt><trkpt lat="43.63892404497485" lon="2.9092274689996316"><ele>1032.25</ele><time>2026-04-07T14:19:44.999Z</time></trkpt><trkpt lat="43.639042624974984" lon="2.9093162028059325"><ele>1034.5</ele><time>2026-04-07T14:19:45.999Z</time></trkpt><trkpt lat="43.63916604783221" lon="2.9094152311370345"><ele>1036.75</ele><time>2026-04-07T14:19:46.999Z</time></trkpt><trkpt lat="43.63929630348344" lon="2.909506330577035"><ele>1039.0</ele><time>2026-04-07T14:19:47.999Z</time></trkpt><trkpt lat="43.6394441799736" lon="2.9095606178844595"><ele>1039.0</ele><time>2026-04-07T14:19:48.999Z</time></trkpt><trkpt lat="43.639591654097224" lon="2.9096104190699856"><ele>1039.0</ele><time>2026-04-07T14:19:49.999Z</time></trkpt><trkpt lat="43.63973691623868" lon="2.9096376049864174"><ele>1039.0</ele><time>2026-04-07T14:19:50.999Z</time></trkpt><trkpt lat="43.63986970984201" lon="2.9096515331331627"><ele>1039.0</ele><time>2026-04-07T14:19:51.999Z</time></trkpt><trkpt lat="43.640016816082515" lon="2.909659886328568"><ele>1039.0</ele><time>2026-04-07T14:19:52.999Z</time></trkpt><trkpt lat="43.6401674693929" lon="2.9096605977024192"><ele>1039.0</ele><time>2026-04-07T14:19:53.999Z</time></trkpt><trkpt lat="43.64030842934217" lon="2.9096527224301165"><ele>1039.0</ele><time>2026-04-07T14:19:54.999Z</time></trkpt><trkpt lat="43.64046249157535" lon="2.9096365061708758"><ele>1039.0</ele><time>2026-04-07T14:19:55.999Z</time></trkpt><trkpt lat="43.640597883656206" lon="2.9096175557214914"><ele>1039.0</ele><time>2026-04-07T14:19:56.999Z</time></trkpt><trkpt lat="43.640738675794616" lon="2.9096167344756614"><ele>1039.0</ele><time>2026-04-07T14:19:57.999Z</time></trkpt><trkpt lat="43.6409121256439" lon="2.909670377441422"><ele>1039.0</ele><time>2026-04-07T14:19:58.999Z</time></trkpt><trkpt lat="43.64106990725159" lon="2.909750198763927"><ele>1040.75</ele><time>2026-04-07T14:19:59.999Z</time></trkpt><trkpt lat="43.64118419490161" lon="2.9098322242181065"><ele>1042.5</ele><time>2026-04-07T14:20:00.999Z</time></trkpt><trkpt lat="43.641296495768835" lon="2.9099095077098434"><ele>1044.25</ele><time>2026-04-07T14:20:01.999Z</time></trkpt><trkpt lat="43.64138569353552" lon="2.9100016500423203"><ele>1046.0</ele><time>2026-04-07T14:20:02.998Z</time></trkpt><trkpt lat="43.64153839692007" lon="2.910063179328152"><ele>1045.3333333333335</ele><time>2026-04-07T14:20:03.998Z</time></trkpt><trkpt lat="43.64170398977715" lon="2.9101087991326877"><ele>1044.6666666666667</ele><time>2026-04-07T14:20:04.998Z</time></trkpt><trkpt lat="43.64184772591198" lon="2.9101544694537997"><ele>1044.0</ele><time>2026-04-07T14:20:05.998Z</time></trkpt><trkpt lat="43.64198148425003" lon="2.9101927903871645"><ele>1045.3333333333333</ele><time>2026-04-07T14:20:06.998Z</time></trkpt><trkpt lat="43.642131168019404" lon="2.91024674106182"><ele>1046.6666666666665</ele><time>2026-04-07T14:20:07.998Z</time></trkpt><trkpt lat="43.64227625378483" lon="2.9103116488462706"><ele>1048.0</ele><time>2026-04-07T14:20:08.998Z</time></trkpt><trkpt lat="43.64241256219166" lon="2.9103895997415976"><ele>1048.0</ele><time>2026-04-07T14:20:09.998Z</time></trkpt><trkpt lat="43.642557458928856" lon="2.9104522966941304"><ele>1048.0</ele><time>2026-04-07T14:20:10.998Z</time></trkpt><trkpt lat="43.64271168452404" lon="2.9104961833769676"><ele>1048.0</ele><time>2026-04-07T14:20:11.998Z</time></trkpt><trkpt lat="43.64287305585915" lon="2.910515646914339"><ele>1047.6666666666665</ele><time>2026-04-07T14:20:12.998Z</time></trkpt><trkpt lat="43.64303641357486" lon="2.9105444952165618"><ele>1047.3333333333333</ele><time>2026-04-07T14:20:13.998Z</time></trkpt><trkpt lat="43.643226746817966" lon="2.9105613164324837"><ele>1047.0</ele><time>2026-04-07T14:20:14.998Z</time></trkpt><trkpt lat="43.64338681687379" lon="2.910593374063644"><ele>1047.0</ele><time>2026-04-07T14:20:15.998Z</time></trkpt><trkpt lat="43.643525006279" lon="2.9106440734166275"><ele>1047.0</ele><time>2026-04-07T14:20:16.998Z</time></trkpt><trkpt lat="43.64366751797924" lon="2.910705935856738"><ele>1047.0</ele><time>2026-04-07T14:20:17.998Z</time></trkpt><trkpt lat="43.64383507601566" lon="2.91080138337432"><ele>1048.3333333333333</ele><time>2026-04-07T14:20:18.998Z</time></trkpt><trkpt lat="43.64400274051367" lon="2.910867698665681"><ele>1049.6666666666665</ele><time>2026-04-07T14:20:19.998Z</time></trkpt><trkpt lat="43.644153733878746" lon="2.91097702455697"><ele>1051.0</ele><time>2026-04-07T14:20:20.998Z</time></trkpt><trkpt lat="43.64430608124816" lon="2.911089106618539"><ele>1049.0</ele><time>2026-04-07T14:20:21.998Z</time></trkpt><trkpt lat="43.64446206506492" lon="2.9111453547872475"><ele>1047.0</ele><time>2026-04-07T14:20:22.998Z</time></trkpt><trkpt lat="43.64461660865249" lon="2.9112075959734067"><ele>1045.0</ele><time>2026-04-07T14:20:23.998Z</time></trkpt><trkpt lat="43.6447959552765" lon="2.9112835404986552"><ele>1045.0</ele><time>2026-04-07T14:20:24.998Z</time></trkpt><trkpt lat="43.644956070181834" lon="2.911355788343674"><ele>1045.0</ele><time>2026-04-07T14:20:25.998Z</time></trkpt><trkpt lat="43.645113545206954" lon="2.911440927157511"><ele>1045.0</ele><time>2026-04-07T14:20:26.998Z</time></trkpt><trkpt lat="43.64527621553586" lon="2.911529241327795"><ele>1046.6666666666665</ele><time>2026-04-07T14:20:27.998Z</time></trkpt><trkpt lat="43.6454312003258" lon="2.911634015822158"><ele>1048.3333333333333</ele><time>2026-04-07T14:20:28.998Z</time></trkpt><trkpt lat="43.64557920938771" lon="2.9117498293503434"><ele>1050.0</ele><time>2026-04-07T14:20:29.998Z</time></trkpt><trkpt lat="43.64572864706116" lon="2.911872591631352"><ele>1050.0</ele><time>2026-04-07T14:20:30.998Z</time></trkpt><trkpt lat="43.64586903247291" lon="2.9119875681261913"><ele>1050.0</ele><time>2026-04-07T14:20:31.998Z</time></trkpt><trkpt lat="43.64601497011113" lon="2.9120860598818714"><ele>1050.0</ele><time>2026-04-07T14:20:32.998Z</time></trkpt><trkpt lat="43.64614600796973" lon="2.9121636295084525"><ele>1051.0</ele><time>2026-04-07T14:20:33.998Z</time></trkpt><trkpt lat="43.64626536465868" lon="2.912242909048759"><ele>1052.0</ele><time>2026-04-07T14:20:34.998Z</time></trkpt><trkpt lat="43.6463644589442" lon="2.912375033576023"><ele>1053.0</ele><time>2026-04-07T14:20:35.998Z</time></trkpt><trkpt lat="43.646464651020516" lon="2.912480906500258"><ele>1054.0</ele><time>2026-04-07T14:20:36.998Z</time></trkpt><trkpt lat="43.64652073559575" lon="2.9126175433046932"><ele>1054.25</ele><time>2026-04-07T14:20:37.998Z</time></trkpt><trkpt lat="43.64652881500394" lon="2.912780603198301"><ele>1054.5</ele><time>2026-04-07T14:20:38.998Z</time></trkpt><trkpt lat="43.64652308749047" lon="2.9129479353346235"><ele>1054.75</ele><time>2026-04-07T14:20:39.998Z</time></trkpt><trkpt lat="43.646510255571954" lon="2.91312601445149"><ele>1055.0</ele><time>2026-04-07T14:20:40.998Z</time></trkpt><trkpt lat="43.64652545096068" lon="2.9133158196268045"><ele>1054.5</ele><time>2026-04-07T14:20:41.998Z</time></trkpt><trkpt lat="43.646556075126476" lon="2.9134704990535427"><ele>1054.0</ele><time>2026-04-07T14:20:42.998Z</time></trkpt><trkpt lat="43.646582187413884" lon="2.913622135912391"><ele>1053.5</ele><time>2026-04-07T14:20:43.998Z</time></trkpt><trkpt lat="43.646606144986215" lon="2.913771380736599"><ele>1053.0</ele><time>2026-04-07T14:20:44.998Z</time></trkpt><trkpt lat="43.646637413010765" lon="2.913931944761087"><ele>1053.0</ele><time>2026-04-07T14:20:46Z</time></trkpt><trkpt lat="43.6466786719059" lon="2.914087778010506"><ele>1053.0</ele><time>2026-04-07T14:20:47Z</time></trkpt><trkpt lat="43.646732835532504" lon="2.914255304072082"><ele>1053.0</ele><time>2026-04-07T14:20:48Z</time></trkpt><trkpt lat="43.64682966493511" lon="2.914395622983984"><ele>1053.0</ele><time>2026-04-07T14:20:49Z</time></trkpt><trkpt lat="43.64692711237352" lon="2.9145607350362486"><ele>1053.0</ele><time>2026-04-07T14:20:50Z</time></trkpt><trkpt lat="43.64702790847697" lon="2.914703161301124"><ele>1053.0</ele><time>2026-04-07T14:20:51Z</time></trkpt><trkpt lat="43.647115803385155" lon="2.9148213819873545"><ele>1053.0</ele><time>2026-04-07T14:20:52Z</time></trkpt><trkpt lat="43.64721164210657" lon="2.9149680351669365"><ele>1053.0</ele><time>2026-04-07T14:20:53Z</time></trkpt><trkpt lat="43.647309431994415" lon="2.9151026067673893"><ele>1053.0</ele><time>2026-04-07T14:20:54Z</time></trkpt><trkpt lat="43.64740781383658" lon="2.9152226587806718"><ele>1053.0</ele><time>2026-04-07T14:20:55Z</time></trkpt><trkpt lat="43.647491140551615" lon="2.9153206863115115"><ele>1053.0</ele><time>2026-04-07T14:20:56Z</time></trkpt><trkpt lat="43.64760301641507" lon="2.9154187268494174"><ele>1053.0</ele><time>2026-04-07T14:20:57Z</time></trkpt><trkpt lat="43.64773342967041" lon="2.9154840520056338"><ele>1055.75</ele><time>2026-04-07T14:20:58Z</time></trkpt><trkpt lat="43.64787322419932" lon="2.9155784159191183"><ele>1058.5</ele><time>2026-04-07T14:20:59Z</time></trkpt><trkpt lat="43.647997150254994" lon="2.9156516830911734"><ele>1061.25</ele><time>2026-04-07T14:21:00Z</time></trkpt><trkpt lat="43.64813506817266" lon="2.9157214202809993"><ele>1064.0</ele><time>2026-04-07T14:21:01Z</time></trkpt><trkpt lat="43.648270648953805" lon="2.91579234055623"><ele>1064.0</ele><time>2026-04-07T14:21:02Z</time></trkpt><trkpt lat="43.64841278110473" lon="2.9158710446418707"><ele>1064.0</ele><time>2026-04-07T14:21:03Z</time></trkpt><trkpt lat="43.6485533239941" lon="2.9159474982783657"><ele>1064.0</ele><time>2026-04-07T14:21:04Z</time></trkpt><trkpt lat="43.64866708829068" lon="2.9160359070727626"><ele>1064.0</ele><time>2026-04-07T14:21:05Z</time></trkpt><trkpt lat="43.648784981325726" lon="2.9161032966322153"><ele>1063.0</ele><time>2026-04-07T14:21:06Z</time></trkpt><trkpt lat="43.648923117597825" lon="2.916191112387036"><ele>1062.0</ele><time>2026-04-07T14:21:07Z</time></trkpt><trkpt lat="43.649071569231175" lon="2.916279403770962"><ele>1061.0</ele><time>2026-04-07T14:21:08Z</time></trkpt><trkpt lat="43.64922015795311" lon="2.916320426893688"><ele>1061.0</ele><time>2026-04-07T14:21:09Z</time></trkpt><trkpt lat="43.649328536496846" lon="2.916359779716392"><ele>1061.0</ele><time>2026-04-07T14:21:10Z</time></trkpt><trkpt lat="43.6494629393161" lon="2.9164257440361108"><ele>1061.0</ele><time>2026-04-07T14:21:11Z</time></trkpt><trkpt lat="43.64961397787619" lon="2.9165212541750853"><ele>1061.0</ele><time>2026-04-07T14:21:12Z</time></trkpt><trkpt lat="43.64972801850504" lon="2.916680668569815"><ele>1060.0</ele><time>2026-04-07T14:21:13Z</time></trkpt><trkpt lat="43.64987100037767" lon="2.9168034121994495"><ele>1059.0</ele><time>2026-04-07T14:21:14Z</time></trkpt><trkpt lat="43.65002659466589" lon="2.916895790549291"><ele>1058.0</ele><time>2026-04-07T14:21:15Z</time></trkpt><trkpt lat="43.65019960405838" lon="2.9169204913902473"><ele>1057.6666666666667</ele><time>2026-04-07T14:21:16Z</time></trkpt><trkpt lat="43.65037548748574" lon="2.916943444844067"><ele>1057.3333333333333</ele><time>2026-04-07T14:21:17Z</time></trkpt><trkpt lat="43.65055141832317" lon="2.916986178811536"><ele>1057.0</ele><time>2026-04-07T14:21:18Z</time></trkpt><trkpt lat="43.65070389931885" lon="2.917011411047097"><ele>1057.0</ele><time>2026-04-07T14:21:19Z</time></trkpt><trkpt lat="43.65083838199537" lon="2.9169815976631113"><ele>1057.0</ele><time>2026-04-07T14:21:20Z</time></trkpt><trkpt lat="43.65097294325582" lon="2.916871268088223"><ele>1057.0</ele><time>2026-04-07T14:21:21Z</time></trkpt><trkpt lat="43.651069114855794" lon="2.9168349942336493"><ele>1057.0</ele><time>2026-04-07T14:21:22Z</time></trkpt><trkpt lat="43.65118105488999" lon="2.9168558829521007"><ele>1059.75</ele><time>2026-04-07T14:21:23Z</time></trkpt><trkpt lat="43.651280468094996" lon="2.916944264294375"><ele>1062.5</ele><time>2026-04-07T14:21:23.999Z</time></trkpt><trkpt lat="43.65136754504354" lon="2.917063592758587"><ele>1065.25</ele><time>2026-04-07T14:21:24.999Z</time></trkpt><trkpt lat="43.65142555055528" lon="2.9171977049701523"><ele>1068.0</ele><time>2026-04-07T14:21:25.999Z</time></trkpt><trkpt lat="43.65144157863176" lon="2.917343357464529"><ele>1068.0</ele><time>2026-04-07T14:21:26.999Z</time></trkpt><trkpt lat="43.65138919121611" lon="2.9174505154414274"><ele>1068.0</ele><time>2026-04-07T14:21:27.999Z</time></trkpt><trkpt lat="43.651353673645644" lon="2.917597859805986"><ele>1068.0</ele><time>2026-04-07T14:21:28.999Z</time></trkpt><trkpt lat="43.65132008251657" lon="2.9177374222167396"><ele>1068.0</ele><time>2026-04-07T14:21:29.999Z</time></trkpt><trkpt lat="43.65131664214207" lon="2.9178869487157764"><ele>1068.0</ele><time>2026-04-07T14:21:30.999Z</time></trkpt><trkpt lat="43.65135374045515" lon="2.9180374134429896"><ele>1066.75</ele><time>2026-04-07T14:21:31.999Z</time></trkpt><trkpt lat="43.65140683616182" lon="2.9181800112058722"><ele>1065.5</ele><time>2026-04-07T14:21:32.999Z</time></trkpt><trkpt lat="43.65148083289703" lon="2.9183067505108333"><ele>1064.25</ele><time>2026-04-07T14:21:33.999Z</time></trkpt><trkpt lat="43.65157249604928" lon="2.9184063463992396"><ele>1063.0</ele><time>2026-04-07T14:21:34.999Z</time></trkpt><trkpt lat="43.65166953795736" lon="2.9184867881780496"><ele>1063.5</ele><time>2026-04-07T14:21:35.999Z</time></trkpt><trkpt lat="43.65177427042525" lon="2.9185508431381986"><ele>1064.0</ele><time>2026-04-07T14:21:36.999Z</time></trkpt><trkpt lat="43.65187912327481" lon="2.9186045081399032"><ele>1064.5</ele><time>2026-04-07T14:21:37.999Z</time></trkpt><trkpt lat="43.651985549244166" lon="2.9186617618533255"><ele>1065.0</ele><time>2026-04-07T14:21:38.999Z</time></trkpt><trkpt lat="43.652096639733514" lon="2.918728449482983"><ele>1065.0</ele><time>2026-04-07T14:21:39.999Z</time></trkpt><trkpt lat="43.652211844414104" lon="2.9187875271929777"><ele>1065.0</ele><time>2026-04-07T14:21:40.999Z</time></trkpt><trkpt lat="43.65234438903737" lon="2.918840419964043"><ele>1065.0</ele><time>2026-04-07T14:21:41.999Z</time></trkpt><trkpt lat="43.652473109226285" lon="2.9189021539436166"><ele>1065.0</ele><time>2026-04-07T14:21:42.999Z</time></trkpt><trkpt lat="43.65259325696387" lon="2.918986014038792"><ele>1065.0</ele><time>2026-04-07T14:21:43.999Z</time></trkpt><trkpt lat="43.652687302464685" lon="2.9191432198535305"><ele>1065.0</ele><time>2026-04-07T14:21:44.999Z</time></trkpt><trkpt lat="43.65275170829846" lon="2.9193198922998365"><ele>1065.0</ele><time>2026-04-07T14:21:45.999Z</time></trkpt><trkpt lat="43.65279784960492" lon="2.919492019255115"><ele>1065.0</ele><time>2026-04-07T14:21:46.999Z</time></trkpt><trkpt lat="43.65283810228374" lon="2.919668945265341"><ele>1065.75</ele><time>2026-04-07T14:21:47.999Z</time></trkpt><trkpt lat="43.65289185741504" lon="2.91984366161055"><ele>1066.5</ele><time>2026-04-07T14:21:48.999Z</time></trkpt><trkpt lat="43.65294585007049" lon="2.9200242553482"><ele>1067.25</ele><time>2026-04-07T14:21:49.999Z</time></trkpt><trkpt lat="43.65303668150193" lon="2.9201976573779995"><ele>1068.0</ele><time>2026-04-07T14:21:50.999Z</time></trkpt><trkpt lat="43.65315234102598" lon="2.9203415589043606"><ele>1068.0</ele><time>2026-04-07T14:21:51.999Z</time></trkpt><trkpt lat="43.653267490006186" lon="2.9204588510623988"><ele>1068.0</ele><time>2026-04-07T14:21:52.999Z</time></trkpt><trkpt lat="43.65335155052455" lon="2.9205890169890116"><ele>1068.0</ele><time>2026-04-07T14:21:53.999Z</time></trkpt><trkpt lat="43.653424659433306" lon="2.920741781916774"><ele>1068.0</ele><time>2026-04-07T14:21:54.999Z</time></trkpt><trkpt lat="43.65344741040292" lon="2.920916420986456"><ele>1068.5</ele><time>2026-04-07T14:21:55.999Z</time></trkpt><trkpt lat="43.65344834003837" lon="2.9211160095484003"><ele>1069.0</ele><time>2026-04-07T14:21:56.999Z</time></trkpt><trkpt lat="43.653450882772425" lon="2.9213161001261714"><ele>1069.5</ele><time>2026-04-07T14:21:57.999Z</time></trkpt><trkpt lat="43.653453205465055" lon="2.921498875500427"><ele>1070.0</ele><time>2026-04-07T14:21:58.999Z</time></trkpt><trkpt lat="43.65345409704343" lon="2.9216743934605844"><ele>1069.75</ele><time>2026-04-07T14:21:59.999Z</time></trkpt><trkpt lat="43.65345487957334" lon="2.9218467555727683"><ele>1069.5</ele><time>2026-04-07T14:22:00.999Z</time></trkpt><trkpt lat="43.65345716835026" lon="2.9220149158401894"><ele>1069.25</ele><time>2026-04-07T14:22:01.999Z</time></trkpt><trkpt lat="43.65347716179422" lon="2.922174285068487"><ele>1069.0</ele><time>2026-04-07T14:22:02.999Z</time></trkpt><trkpt lat="43.6534804200052" lon="2.9223293229192038"><ele>1069.0</ele><time>2026-04-07T14:22:03.999Z</time></trkpt><trkpt lat="43.65348157938723" lon="2.922475730788979"><ele>1069.0</ele><time>2026-04-07T14:22:04.999Z</time></trkpt><trkpt lat="43.65347839516638" lon="2.9226011262327622"><ele>1069.0</ele><time>2026-04-07T14:22:05.999Z</time></trkpt><trkpt lat="43.6534811404909" lon="2.922713202165692"><ele>1069.0</ele><time>2026-04-07T14:22:06.999Z</time></trkpt><trkpt lat="43.653470266447925" lon="2.9228493751202596"><ele>1069.0</ele><time>2026-04-07T14:22:08.998Z</time></trkpt><trkpt lat="43.65344055250431" lon="2.922944303338089"><ele>1067.0</ele><time>2026-04-07T14:22:10.998Z</time></trkpt><trkpt lat="43.653423184816" lon="2.9230484311546228"><ele>1067.0</ele><time>2026-04-07T14:22:11.998Z</time></trkpt></trkseg><trkseg><trkpt lat="43.653444354526215" lon="2.9231614518993414"><ele>1067.0</ele><time>2026-04-07T14:33:58.998Z</time></trkpt><trkpt lat="43.653399294587736" lon="2.923330268330508"><ele>1067.0</ele><time>2026-04-07T14:34:00.998Z</time></trkpt><trkpt lat="43.653354914731906" lon="2.9234242569601165"><ele>1067.0</ele><time>2026-04-07T14:34:01.998Z</time></trkpt><trkpt lat="43.65328244022659" lon="2.923522142048162"><ele>1067.0</ele><time>2026-04-07T14:34:02.998Z</time></trkpt><trkpt lat="43.653227321673754" lon="2.9236560351889187"><ele>1067.0</ele><time>2026-04-07T14:34:03.998Z</time></trkpt><trkpt lat="43.65316733067818" lon="2.9238028321532825"><ele>1066.8</ele><time>2026-04-07T14:34:04.998Z</time></trkpt><trkpt lat="43.65311389649686" lon="2.9239401517784644"><ele>1066.6</ele><time>2026-04-07T14:34:05.998Z</time></trkpt><trkpt lat="43.65306331833685" lon="2.924070132417122"><ele>1066.3999999999999</ele><time>2026-04-07T14:34:06.998Z</time></trkpt><trkpt lat="43.653032673526596" lon="2.924190415266741"><ele>1066.2</ele><time>2026-04-07T14:34:07.998Z</time></trkpt><trkpt lat="43.65296350879761" lon="2.924325966203763"><ele>1066.0</ele><time>2026-04-07T14:34:08.998Z</time></trkpt><trkpt lat="43.65290635706351" lon="2.9244653133437093"><ele>1066.0</ele><time>2026-04-07T14:34:09.998Z</time></trkpt><trkpt lat="43.65284591242851" lon="2.9246189268252314"><ele>1066.0</ele><time>2026-04-07T14:34:10.998Z</time></trkpt><trkpt lat="43.65279765668296" lon="2.9247905869219686"><ele>1066.0</ele><time>2026-04-07T14:34:11.998Z</time></trkpt><trkpt lat="43.65276956006785" lon="2.924961012059055"><ele>1066.0</ele><time>2026-04-07T14:34:12.998Z</time></trkpt><trkpt lat="43.65275464842289" lon="2.9251261163302966"><ele>1068.25</ele><time>2026-04-07T14:34:13.998Z</time></trkpt><trkpt lat="43.65275207359111" lon="2.9253096519023614"><ele>1070.5</ele><time>2026-04-07T14:34:14.998Z</time></trkpt><trkpt lat="43.65275753269451" lon="2.925502876486345"><ele>1072.75</ele><time>2026-04-07T14:34:15.998Z</time></trkpt><trkpt lat="43.652772432496604" lon="2.9256867877161024"><ele>1075.0</ele><time>2026-04-07T14:34:16.998Z</time></trkpt><trkpt lat="43.65278002334172" lon="2.9258504904426244"><ele>1074.75</ele><time>2026-04-07T14:34:17.998Z</time></trkpt><trkpt lat="43.65278008226971" lon="2.926006866444973"><ele>1074.5</ele><time>2026-04-07T14:34:18.998Z</time></trkpt><trkpt lat="43.652787356532535" lon="2.926178798489253"><ele>1074.25</ele><time>2026-04-07T14:34:19.998Z</time></trkpt><trkpt lat="43.65279922795411" lon="2.9263432788450263"><ele>1074.0</ele><time>2026-04-07T14:34:20.998Z</time></trkpt><trkpt lat="43.652834800507165" lon="2.926519073867375"><ele>1073.75</ele><time>2026-04-07T14:34:21.998Z</time></trkpt><trkpt lat="43.65288529018565" lon="2.926670452453295"><ele>1073.5</ele><time>2026-04-07T14:34:22.998Z</time></trkpt><trkpt lat="43.65295258429725" lon="2.926830500606817"><ele>1073.25</ele><time>2026-04-07T14:34:23.998Z</time></trkpt><trkpt lat="43.65301191788058" lon="2.926970652006216"><ele>1073.0</ele><time>2026-04-07T14:34:24.998Z</time></trkpt><trkpt lat="43.6530775220023" lon="2.927111077517015"><ele>1073.0</ele><time>2026-04-07T14:34:25.998Z</time></trkpt><trkpt lat="43.6531439340225" lon="2.92725304088271"><ele>1073.0</ele><time>2026-04-07T14:34:26.998Z</time></trkpt><trkpt lat="43.65321164718065" lon="2.927397751699424"><ele>1073.0</ele><time>2026-04-07T14:34:27.998Z</time></trkpt><trkpt lat="43.65329066598345" lon="2.9275338077513524"><ele>1073.0</ele><time>2026-04-07T14:34:28.998Z</time></trkpt><trkpt lat="43.65337273187495" lon="2.927674412055836"><ele>1073.25</ele><time>2026-04-07T14:34:29.998Z</time></trkpt><trkpt lat="43.65345710878397" lon="2.927816706495987"><ele>1073.5</ele><time>2026-04-07T14:34:30.998Z</time></trkpt><trkpt lat="43.65354465009708" lon="2.9279682024167473"><ele>1073.75</ele><time>2026-04-07T14:34:31.998Z</time></trkpt><trkpt lat="43.653631482067034" lon="2.928120252555667"><ele>1074.0</ele><time>2026-04-07T14:34:32.998Z</time></trkpt><trkpt lat="43.653720569520736" lon="2.928272460966502"><ele>1074.75</ele><time>2026-04-07T14:34:34Z</time></trkpt><trkpt lat="43.65380784280172" lon="2.928423766353905"><ele>1075.5</ele><time>2026-04-07T14:34:35Z</time></trkpt><trkpt lat="43.65389157397183" lon="2.9285720770487242"><ele>1076.25</ele><time>2026-04-07T14:34:36Z</time></trkpt><trkpt lat="43.653974975938674" lon="2.9287141385108204"><ele>1077.0</ele><time>2026-04-07T14:34:37Z</time></trkpt><trkpt lat="43.65405742621625" lon="2.9288523078829356"><ele>1077.0</ele><time>2026-04-07T14:34:38Z</time></trkpt><trkpt lat="43.654143735361814" lon="2.9289870599635286"><ele>1077.0</ele><time>2026-04-07T14:34:39Z</time></trkpt><trkpt lat="43.65422892349818" lon="2.929104431548225"><ele>1077.0</ele><time>2026-04-07T14:34:40Z</time></trkpt><trkpt lat="43.65432670951886" lon="2.9292057852050437"><ele>1077.0</ele><time>2026-04-07T14:34:41Z</time></trkpt><trkpt lat="43.65442743782297" lon="2.9292949862958593"><ele>1077.0</ele><time>2026-04-07T14:34:42Z</time></trkpt><trkpt lat="43.65451969071139" lon="2.9293791291716524"><ele>1077.0</ele><time>2026-04-07T14:34:43Z</time></trkpt><trkpt lat="43.654616251022404" lon="2.9294644038806785"><ele>1077.0</ele><time>2026-04-07T14:34:44Z</time></trkpt><trkpt lat="43.65471993461675" lon="2.9295634755292834"><ele>1077.0</ele><time>2026-04-07T14:34:45Z</time></trkpt><trkpt lat="43.654830162394234" lon="2.92967199054674"><ele>1077.0</ele><time>2026-04-07T14:34:46Z</time></trkpt><trkpt lat="43.654948546226194" lon="2.929782444322632"><ele>1077.0</ele><time>2026-04-07T14:34:47Z</time></trkpt><trkpt lat="43.65505423167484" lon="2.929883288451873"><ele>1077.0</ele><time>2026-04-07T14:34:48Z</time></trkpt><trkpt lat="43.65511618722821" lon="2.9299573646409987"><ele>1077.0</ele><time>2026-04-07T14:34:49Z</time></trkpt><trkpt lat="43.655049206741474" lon="2.9300329211424896"><ele>1077.0</ele><time>2026-04-07T14:34:53Z</time></trkpt><trkpt lat="43.65493909077313" lon="2.9301064029668384"><ele>1076.8</ele><time>2026-04-07T14:34:55Z</time></trkpt><trkpt lat="43.65496277937968" lon="2.9302298617381353"><ele>1076.6</ele><time>2026-04-07T14:34:58Z</time></trkpt><trkpt lat="43.654999087874806" lon="2.93031124904196"><ele>1076.3999999999999</ele><time>2026-04-07T14:34:59Z</time></trkpt><trkpt lat="43.6550096553019" lon="2.9304455375364973"><ele>1076.2</ele><time>2026-04-07T14:35:00Z</time></trkpt><trkpt lat="43.655027334377955" lon="2.930599746602033"><ele>1076.0</ele><time>2026-04-07T14:35:01Z</time></trkpt><trkpt lat="43.65501585593924" lon="2.930758572279818"><ele>1076.2</ele><time>2026-04-07T14:35:02Z</time></trkpt><trkpt lat="43.65500708201911" lon="2.930911178060754"><ele>1076.3999999999999</ele><time>2026-04-07T14:35:03Z</time></trkpt><trkpt lat="43.654995842160695" lon="2.9310528457919776"><ele>1076.6</ele><time>2026-04-07T14:35:04Z</time></trkpt><trkpt lat="43.654976828982726" lon="2.931194503442791"><ele>1076.8</ele><time>2026-04-07T14:35:05Z</time></trkpt><trkpt lat="43.654950079058224" lon="2.931346673339593"><ele>1077.0</ele><time>2026-04-07T14:35:06Z</time></trkpt><trkpt lat="43.654917133557944" lon="2.931501862574661"><ele>1077.0</ele><time>2026-04-07T14:35:07Z</time></trkpt><trkpt lat="43.654897397229554" lon="2.931658194396131"><ele>1077.0</ele><time>2026-04-07T14:35:08Z</time></trkpt><trkpt lat="43.65486818132843" lon="2.9318175889770246"><ele>1077.0</ele><time>2026-04-07T14:35:09Z</time></trkpt><trkpt lat="43.6548454289625" lon="2.9320044026417764"><ele>1077.0</ele><time>2026-04-07T14:35:10Z</time></trkpt><trkpt lat="43.654821135281125" lon="2.932178631266432"><ele>1077.4</ele><time>2026-04-07T14:35:10.999Z</time></trkpt><trkpt lat="43.65478941686688" lon="2.932352059018272"><ele>1077.8000000000002</ele><time>2026-04-07T14:35:11.999Z</time></trkpt><trkpt lat="43.65476354718115" lon="2.9324922345744584"><ele>1078.2</ele><time>2026-04-07T14:35:12.999Z</time></trkpt><trkpt lat="43.654745903586665" lon="2.93260435534042"><ele>1078.6000000000001</ele><time>2026-04-07T14:35:13.999Z</time></trkpt><trkpt lat="43.654731052828275" lon="2.9326954146289004"><ele>1079.0</ele><time>2026-04-07T14:35:14.999Z</time></trkpt><trkpt lat="43.65471879148465" lon="2.932849367508906"><ele>1078.1666666666667</ele><time>2026-04-07T14:35:16.999Z</time></trkpt><trkpt lat="43.65475296622949" lon="2.9329913842677446"><ele>1077.3333333333335</ele><time>2026-04-07T14:35:18.999Z</time></trkpt><trkpt lat="43.65479622716993" lon="2.9330893256380004"><ele>1076.5</ele><time>2026-04-07T14:35:20.999Z</time></trkpt><trkpt lat="43.654816254292136" lon="2.9331825948009405"><ele>1075.6666666666667</ele><time>2026-04-07T14:35:22.999Z</time></trkpt><trkpt lat="43.654886316653595" lon="2.933239461643492"><ele>1074.8333333333333</ele><time>2026-04-07T14:35:26.999Z</time></trkpt><trkpt lat="43.65493347636391" lon="2.933317741763694"><ele>1074.0</ele><time>2026-04-07T14:35:29.999Z</time></trkpt><trkpt lat="43.65494476288793" lon="2.933110975268989"><ele>1077.0</ele><time>2026-04-07T14:35:31.999Z</time></trkpt><trkpt lat="43.65493366122712" lon="2.9315311332895746"><ele>1077.0</ele><time>2026-04-07T14:44:46Z</time></trkpt><trkpt lat="43.6549568588777" lon="2.931413169908591"><ele>1077.0</ele><time>2026-04-07T14:44:47Z</time></trkpt><trkpt lat="43.65499332069245" lon="2.931253129337739"><ele>1077.0</ele><time>2026-04-07T14:44:48Z</time></trkpt><trkpt lat="43.65502220250686" lon="2.9311040297507187"><ele>1077.0</ele><time>2026-04-07T14:44:49Z</time></trkpt><trkpt lat="43.655033290882045" lon="2.93099854753028"><ele>1077.0</ele><time>2026-04-07T14:44:50Z</time></trkpt><trkpt lat="43.65504183202703" lon="2.930899703570701"><ele>1076.8333333333333</ele><time>2026-04-07T14:44:51Z</time></trkpt><trkpt lat="43.655035981138106" lon="2.9307389008851397"><ele>1076.6666666666667</ele><time>2026-04-07T14:44:53Z</time></trkpt><trkpt lat="43.65503874297105" lon="2.9306417390641952"><ele>1076.5</ele><time>2026-04-07T14:44:54Z</time></trkpt><trkpt lat="43.6550415050607" lon="2.93054295488989"><ele>1076.3333333333335</ele><time>2026-04-07T14:44:55Z</time></trkpt><trkpt lat="43.65503455441337" lon="2.930452881396758"><ele>1076.1666666666667</ele><time>2026-04-07T14:44:56Z</time></trkpt><trkpt lat="43.655014654339865" lon="2.930346989795572"><ele>1076.0</ele><time>2026-04-07T14:44:57Z</time></trkpt><trkpt lat="43.65498985239508" lon="2.930234768466476"><ele>1076.0</ele><time>2026-04-07T14:44:58Z</time></trkpt><trkpt lat="43.654961781420994" lon="2.930137748593709"><ele>1076.0</ele><time>2026-04-07T14:44:59Z</time></trkpt><trkpt lat="43.6549365351617" lon="2.9300467265353274"><ele>1076.0</ele><time>2026-04-07T14:45:00Z</time></trkpt><trkpt lat="43.65490473604121" lon="2.929959587774144"><ele>1076.0</ele><time>2026-04-07T14:45:00.999Z</time></trkpt><trkpt lat="43.65488865616784" lon="2.9298702400229715"><ele>1076.0</ele><time>2026-04-07T14:45:01.999Z</time></trkpt><trkpt lat="43.65485402651508" lon="2.929755902122021"><ele>1076.0</ele><time>2026-04-07T14:45:03.999Z</time></trkpt><trkpt lat="43.654951509932054" lon="2.9297947805083964"><ele>1076.0</ele><time>2026-04-07T14:45:07.999Z</time></trkpt><trkpt lat="43.655024513378294" lon="2.9298707805430526"><ele>1076.0</ele><time>2026-04-07T14:45:08.999Z</time></trkpt><trkpt lat="43.65511784897341" lon="2.929949836031785"><ele>1076.0</ele><time>2026-04-07T14:45:09.999Z</time></trkpt><trkpt lat="43.6552025247706" lon="2.9300665710052836"><ele>1076.0</ele><time>2026-04-07T14:45:10.999Z</time></trkpt><trkpt lat="43.655278903885964" lon="2.9302022322929457"><ele>1076.0</ele><time>2026-04-07T14:45:11.999Z</time></trkpt><trkpt lat="43.655343962911886" lon="2.930348536078643"><ele>1078.3999999999999</ele><time>2026-04-07T14:45:12.999Z</time></trkpt><trkpt lat="43.65539478965273" lon="2.9304806819977247"><ele>1080.8</ele><time>2026-04-07T14:45:13.999Z</time></trkpt><trkpt lat="43.65541471011659" lon="2.9306284897796684"><ele>1083.1999999999998</ele><time>2026-04-07T14:45:14.999Z</time></trkpt><trkpt lat="43.65543721596445" lon="2.9307740039183674"><ele>1085.6</ele><time>2026-04-07T14:45:15.999Z</time></trkpt><trkpt lat="43.655455286992414" lon="2.930912224733791"><ele>1088.0</ele><time>2026-04-07T14:45:16.999Z</time></trkpt><trkpt lat="43.6554772503202" lon="2.9310464755808794"><ele>1088.8</ele><time>2026-04-07T14:45:17.999Z</time></trkpt><trkpt lat="43.65548448489801" lon="2.9311875036343475"><ele>1089.6</ele><time>2026-04-07T14:45:18.999Z</time></trkpt><trkpt lat="43.655491510346636" lon="2.9313299521422604"><ele>1090.4</ele><time>2026-04-07T14:45:19.999Z</time></trkpt><trkpt lat="43.65549921707728" lon="2.931466700984781"><ele>1091.2</ele><time>2026-04-07T14:45:20.999Z</time></trkpt><trkpt lat="43.655508838283595" lon="2.9316032191770875"><ele>1092.0</ele><time>2026-04-07T14:45:21.999Z</time></trkpt><trkpt lat="43.655525525991685" lon="2.931744163111126"><ele>1092.4</ele><time>2026-04-07T14:45:22.999Z</time></trkpt><trkpt lat="43.65553746963361" lon="2.9318718610688035"><ele>1092.8000000000002</ele><time>2026-04-07T14:45:23.999Z</time></trkpt><trkpt lat="43.655558437993584" lon="2.931992038810607"><ele>1093.2</ele><time>2026-04-07T14:45:24.999Z</time></trkpt><trkpt lat="43.65558151809908" lon="2.9321201559886583"><ele>1093.6000000000001</ele><time>2026-04-07T14:45:25.999Z</time></trkpt><trkpt lat="43.65560539569166" lon="2.9322619102745247"><ele>1094.0</ele><time>2026-04-07T14:45:26.999Z</time></trkpt><trkpt lat="43.65563236530459" lon="2.93240364618553"><ele>1094.0</ele><time>2026-04-07T14:45:27.999Z</time></trkpt><trkpt lat="43.655668598536174" lon="2.9325372477389684"><ele>1094.0</ele><time>2026-04-07T14:45:28.999Z</time></trkpt><trkpt lat="43.65572367284933" lon="2.9326770565211038"><ele>1094.0</ele><time>2026-04-07T14:45:29.999Z</time></trkpt><trkpt lat="43.65577319733511" lon="2.932798399736113"><ele>1094.0</ele><time>2026-04-07T14:45:30.999Z</time></trkpt><trkpt lat="43.65582930557478" lon="2.9329268536041564"><ele>1094.0</ele><time>2026-04-07T14:45:31.999Z</time></trkpt><trkpt lat="43.655887044207525" lon="2.9330520789889722"><ele>1093.8</ele><time>2026-04-07T14:45:32.999Z</time></trkpt><trkpt lat="43.65594431714964" lon="2.933160508317244"><ele>1093.6000000000001</ele><time>2026-04-07T14:45:33.999Z</time></trkpt><trkpt lat="43.65600500291773" lon="2.933287821344022"><ele>1093.4</ele><time>2026-04-07T14:45:34.999Z</time></trkpt><trkpt lat="43.65606523050579" lon="2.9334164227844677"><ele>1093.2</ele><time>2026-04-07T14:45:35.999Z</time></trkpt><trkpt lat="43.65613062217209" lon="2.9335399354387377"><ele>1093.0</ele><time>2026-04-07T14:45:36.999Z</time></trkpt><trkpt lat="43.65622164873441" lon="2.9336479121997274"><ele>1096.25</ele><time>2026-04-07T14:45:37.999Z</time></trkpt><trkpt lat="43.65630840538261" lon="2.9337606075213665"><ele>1099.5</ele><time>2026-04-07T14:45:38.999Z</time></trkpt><trkpt lat="43.65638659191417" lon="2.933866212486993"><ele>1102.75</ele><time>2026-04-07T14:45:39.999Z</time></trkpt><trkpt lat="43.65647189008032" lon="2.9339706367283265"><ele>1106.0</ele><time>2026-04-07T14:45:40.999Z</time></trkpt><trkpt lat="43.656568904453096" lon="2.934073845257069"><ele>1106.0</ele><time>2026-04-07T14:45:41.999Z</time></trkpt><trkpt lat="43.65665641583356" lon="2.934178298106187"><ele>1106.0</ele><time>2026-04-07T14:45:42.999Z</time></trkpt><trkpt lat="43.656744211425476" lon="2.9343065382141207"><ele>1106.0</ele><time>2026-04-07T14:45:43.999Z</time></trkpt><trkpt lat="43.6568264164903" lon="2.9344565097011825"><ele>1106.0</ele><time>2026-04-07T14:45:44.999Z</time></trkpt><trkpt lat="43.656896423018544" lon="2.934598877138414"><ele>1106.0</ele><time>2026-04-07T14:45:45.998Z</time></trkpt><trkpt lat="43.656970181911966" lon="2.9347509861036243"><ele>1106.0</ele><time>2026-04-07T14:45:46.998Z</time></trkpt><trkpt lat="43.65705672343329" lon="2.9348730920998682"><ele>1106.0</ele><time>2026-04-07T14:45:47.998Z</time></trkpt><trkpt lat="43.65711711141631" lon="2.93501208537827"><ele>1106.0</ele><time>2026-04-07T14:45:48.998Z</time></trkpt><trkpt lat="43.65721030306132" lon="2.9351321685483396"><ele>1106.0</ele><time>2026-04-07T14:45:49.998Z</time></trkpt><trkpt lat="43.65731009909328" lon="2.9352486877947235"><ele>1106.0</ele><time>2026-04-07T14:45:50.998Z</time></trkpt><trkpt lat="43.65739650912111" lon="2.935354359684401"><ele>1106.0</ele><time>2026-04-07T14:45:51.998Z</time></trkpt><trkpt lat="43.6574536125236" lon="2.9354248744244194"><ele>1106.0</ele><time>2026-04-07T14:45:52.998Z</time></trkpt><trkpt lat="43.65749766804204" lon="2.935616526047641"><ele>1106.0</ele><time>2026-04-07T14:45:53.998Z</time></trkpt><trkpt lat="43.65749705204903" lon="2.935776644898595"><ele>1106.0</ele><time>2026-04-07T14:45:54.998Z</time></trkpt><trkpt lat="43.657450676058566" lon="2.9359270938679964"><ele>1106.0</ele><time>2026-04-07T14:45:55.998Z</time></trkpt><trkpt lat="43.6573778320751" lon="2.9360530609345594"><ele>1106.0</ele><time>2026-04-07T14:45:56.998Z</time></trkpt><trkpt lat="43.6572892510237" lon="2.936175523202041"><ele>1106.5</ele><time>2026-04-07T14:45:57.998Z</time></trkpt><trkpt lat="43.65718468782269" lon="2.9362586994975857"><ele>1107.0</ele><time>2026-04-07T14:45:58.998Z</time></trkpt><trkpt lat="43.65706151788929" lon="2.936320626886677"><ele>1107.5</ele><time>2026-04-07T14:45:59.998Z</time></trkpt><trkpt lat="43.656925285301185" lon="2.9363512607251114"><ele>1108.0</ele><time>2026-04-07T14:46:00.998Z</time></trkpt><trkpt lat="43.656798106960764" lon="2.9363785584175233"><ele>1108.5</ele><time>2026-04-07T14:46:01.998Z</time></trkpt><trkpt lat="43.65667900288059" lon="2.9364045112741946"><ele>1109.0</ele><time>2026-04-07T14:46:02.998Z</time></trkpt><trkpt lat="43.656564321739964" lon="2.9364313728766076"><ele>1109.5</ele><time>2026-04-07T14:46:03.998Z</time></trkpt><trkpt lat="43.65644866461808" lon="2.9364620126485566"><ele>1110.0</ele><time>2026-04-07T14:46:04.998Z</time></trkpt><trkpt lat="43.65634334868815" lon="2.936517760669222"><ele>1110.0</ele><time>2026-04-07T14:46:05.998Z</time></trkpt><trkpt lat="43.65623078382984" lon="2.936554875106002"><ele>1110.0</ele><time>2026-04-07T14:46:06.998Z</time></trkpt><trkpt lat="43.65613631235902" lon="2.936602503722449"><ele>1110.0</ele><time>2026-04-07T14:46:07.998Z</time></trkpt><trkpt lat="43.65604248829293" lon="2.9366722086151205"><ele>1110.0</ele><time>2026-04-07T14:46:08.998Z</time></trkpt><trkpt lat="43.65595700339666" lon="2.9367731132008785"><ele>1110.0</ele><time>2026-04-07T14:46:09.998Z</time></trkpt><trkpt lat="43.65588078021335" lon="2.9368975688205454"><ele>1110.6</ele><time>2026-04-07T14:46:10.998Z</time></trkpt><trkpt lat="43.65582369999804" lon="2.9370267032505275"><ele>1111.2</ele><time>2026-04-07T14:46:11.998Z</time></trkpt><trkpt lat="43.65577001810781" lon="2.9371554323069082"><ele>1111.8</ele><time>2026-04-07T14:46:12.998Z</time></trkpt><trkpt lat="43.655725523135324" lon="2.937290898111355"><ele>1112.4</ele><time>2026-04-07T14:46:13.998Z</time></trkpt><trkpt lat="43.65568850558257" lon="2.937436213050688"><ele>1113.0</ele><time>2026-04-07T14:46:14.998Z</time></trkpt><trkpt lat="43.655656561365575" lon="2.9375676164408016"><ele>1114.5</ele><time>2026-04-07T14:46:15.998Z</time></trkpt><trkpt lat="43.65562784841097" lon="2.9377133235864274"><ele>1116.0</ele><time>2026-04-07T14:46:16.998Z</time></trkpt><trkpt lat="43.655588650137176" lon="2.937861291678187"><ele>1117.5</ele><time>2026-04-07T14:46:17.998Z</time></trkpt><trkpt lat="43.65555063930992" lon="2.9380146148166726"><ele>1119.0</ele><time>2026-04-07T14:46:18.998Z</time></trkpt><trkpt lat="43.655511153853304" lon="2.9381803624957934"><ele>1119.0</ele><time>2026-04-07T14:46:19.998Z</time></trkpt><trkpt lat="43.65546728853272" lon="2.9383428832091196"><ele>1119.0</ele><time>2026-04-07T14:46:20.998Z</time></trkpt><trkpt lat="43.65542519376865" lon="2.9385067024934"><ele>1119.0</ele><time>2026-04-07T14:46:21.998Z</time></trkpt><trkpt lat="43.65538030250911" lon="2.938664183705285"><ele>1119.0</ele><time>2026-04-07T14:46:22.998Z</time></trkpt><trkpt lat="43.65531018133705" lon="2.938812334231892"><ele>1119.75</ele><time>2026-04-07T14:46:23.998Z</time></trkpt><trkpt lat="43.65522522137633" lon="2.9389562698460083"><ele>1120.5</ele><time>2026-04-07T14:46:24.998Z</time></trkpt><trkpt lat="43.655116730140215" lon="2.9390781561649875"><ele>1121.25</ele><time>2026-04-07T14:46:25.998Z</time></trkpt><trkpt lat="43.65500155826328" lon="2.939195277802227"><ele>1122.0</ele><time>2026-04-07T14:46:26.998Z</time></trkpt><trkpt lat="43.65488661568996" lon="2.939322824118156"><ele>1122.0</ele><time>2026-04-07T14:46:27.998Z</time></trkpt><trkpt lat="43.65476625406084" lon="2.939438677689968"><ele>1122.0</ele><time>2026-04-07T14:46:28.998Z</time></trkpt><trkpt lat="43.65464881693589" lon="2.939559820364925"><ele>1122.0</ele><time>2026-04-07T14:46:29.997Z</time></trkpt><trkpt lat="43.65454055925118" lon="2.9396691483586403"><ele>1122.0</ele><time>2026-04-07T14:46:31Z</time></trkpt><trkpt lat="43.65443807918532" lon="2.939768602730464"><ele>1122.5</ele><time>2026-04-07T14:46:32Z</time></trkpt><trkpt lat="43.65433878348714" lon="2.939864704728363"><ele>1123.0</ele><time>2026-04-07T14:46:33Z</time></trkpt><trkpt lat="43.65423744432864" lon="2.939960151169244"><ele>1123.5</ele><time>2026-04-07T14:46:34Z</time></trkpt><trkpt lat="43.654137894023265" lon="2.940056618967429"><ele>1124.0</ele><time>2026-04-07T14:46:35Z</time></trkpt><trkpt lat="43.65404149006876" lon="2.9401580602959747"><ele>1124.0</ele><time>2026-04-07T14:46:36Z</time></trkpt><trkpt lat="43.65394582684049" lon="2.9402589674430186"><ele>1124.0</ele><time>2026-04-07T14:46:37Z</time></trkpt><trkpt lat="43.65385145834079" lon="2.940364866668399"><ele>1124.0</ele><time>2026-04-07T14:46:38Z</time></trkpt><trkpt lat="43.65376306578369" lon="2.940469950315579"><ele>1124.0</ele><time>2026-04-07T14:46:39Z</time></trkpt><trkpt lat="43.653674494850996" lon="2.9405774446200077"><ele>1123.6000000000001</ele><time>2026-04-07T14:46:40Z</time></trkpt><trkpt lat="43.65358514411783" lon="2.9406787712660254"><ele>1123.2</ele><time>2026-04-07T14:46:41Z</time></trkpt><trkpt lat="43.653507059091716" lon="2.940791636280986"><ele>1122.8000000000002</ele><time>2026-04-07T14:46:42Z</time></trkpt><trkpt lat="43.65342532684364" lon="2.9408986725185997"><ele>1122.4</ele><time>2026-04-07T14:46:43Z</time></trkpt><trkpt lat="43.65334998498271" lon="2.940999143571207"><ele>1122.0</ele><time>2026-04-07T14:46:44Z</time></trkpt><trkpt lat="43.65328868236225" lon="2.941094359848258"><ele>1120.0</ele><time>2026-04-07T14:46:45Z</time></trkpt><trkpt lat="43.65323585739971" lon="2.9411704596645345"><ele>1120.0</ele><time>2026-04-07T14:46:46Z</time></trkpt><trkpt lat="43.65315394459517" lon="2.941258721376176"><ele>1120.0</ele><time>2026-04-07T14:46:48Z</time></trkpt><trkpt lat="43.653111425060565" lon="2.9413426520832706"><ele>1120.0</ele><time>2026-04-07T14:46:51Z</time></trkpt></trkseg></trk></gpx>